<?xml version='1.0' encoding='UTF-8'?><gpx version="1.1" creator="JPX - https://github.com/jenetics/jpx" xmlns="http://www.topografix.com/GPX/1/1"><trk><trkseg><trkpt lat="43.9652617" lon="12.7547983"><ele>8.0</ele><time>2026-04-26T07:11:36.042Z</time></trkpt><trkpt lat="43.9651517" lon="12.7546717"><ele>8.0</ele><time>2026-04-26T07:11:37.543Z</time></trkpt><trkpt lat="43.9650817" lon="12.7545983"><ele>8.0</ele><time>2026-04-26T07:11:38.541Z</time></trkpt><trkpt lat="43.965025" lon="12.7545183"><ele>8.0</ele><time>2026-04-26T07:11:39.543Z</time></trkpt><trkpt lat="43.96496" lon="12.754435"><ele>8.0</ele><time>2026-04-26T07:11:40.542Z</time></trkpt><trkpt lat="43.9649033" lon="12.7543533"><ele>7.0</ele><time>2026-04-26T07:11:41.54Z</time></trkpt><trkpt lat="43.9648283" lon="12.754255"><ele>6.000000000000001</ele><time>2026-04-26T07:11:42.541Z</time></trkpt><trkpt lat="43.9647467" lon="12.7541667"><ele>5.0</ele><time>2026-04-26T07:11:43.54Z</time></trkpt><trkpt lat="43.9646583" lon="12.7540767"><ele>4.0</ele><time>2026-04-26T07:11:44.543Z</time></trkpt><trkpt lat="43.964575" lon="12.753985"><ele>3.0</ele><time>2026-04-26T07:11:45.542Z</time></trkpt><trkpt lat="43.9644817" lon="12.7538917"><ele>3.0</ele><time>2026-04-26T07:11:46.542Z</time></trkpt><trkpt lat="43.96439" lon="12.7538"><ele>3.0</ele><time>2026-04-26T07:11:47.542Z</time></trkpt><trkpt lat="43.9642867" lon="12.7537083"><ele>3.0</ele><time>2026-04-26T07:11:48.542Z</time></trkpt><trkpt lat="43.96418" lon="12.75361"><ele>3.0</ele><time>2026-04-26T07:11:49.542Z</time></trkpt><trkpt lat="43.9640667" lon="12.7535067"><ele>4.25</ele><time>2026-04-26T07:11:50.54Z</time></trkpt><trkpt lat="43.96395" lon="12.7534017"><ele>5.5</ele><time>2026-04-26T07:11:51.543Z</time></trkpt><trkpt lat="43.963835" lon="12.7533"><ele>6.75</ele><time>2026-04-26T07:11:52.543Z</time></trkpt><trkpt lat="43.9637283" lon="12.7532017"><ele>8.0</ele><time>2026-04-26T07:11:53.542Z</time></trkpt><trkpt lat="43.9636333" lon="12.7531233"><ele>8.0</ele><time>2026-04-26T07:11:54.542Z</time></trkpt><trkpt lat="43.9635433" lon="12.753045"><ele>8.0</ele><time>2026-04-26T07:11:55.543Z</time></trkpt><trkpt lat="43.9634483" lon="12.7529667"><ele>8.0</ele><time>2026-04-26T07:11:56.539Z</time></trkpt><trkpt lat="43.9633533" lon="12.7528767"><ele>8.0</ele><time>2026-04-26T07:11:57.54Z</time></trkpt><trkpt lat="43.963255" lon="12.7527767"><ele>8.25</ele><time>2026-04-26T07:11:58.541Z</time></trkpt><trkpt lat="43.9631383" lon="12.7526783"><ele>8.5</ele><time>2026-04-26T07:11:59.539Z</time></trkpt><trkpt lat="43.9630217" lon="12.752575"><ele>8.75</ele><time>2026-04-26T07:12:00.541Z</time></trkpt><trkpt lat="43.9629083" lon="12.7524683"><ele>9.0</ele><time>2026-04-26T07:12:01.543Z</time></trkpt><trkpt lat="43.962785" lon="12.7523683"><ele>9.0</ele><time>2026-04-26T07:12:02.54Z</time></trkpt><trkpt lat="43.9626583" lon="12.752265"><ele>9.0</ele><time>2026-04-26T07:12:03.541Z</time></trkpt><trkpt lat="43.9625433" lon="12.7521633"><ele>9.0</ele><time>2026-04-26T07:12:04.542Z</time></trkpt><trkpt lat="43.9624267" lon="12.7520567"><ele>9.0</ele><time>2026-04-26T07:12:05.541Z</time></trkpt><trkpt lat="43.9622967" lon="12.75194"><ele>9.0</ele><time>2026-04-26T07:12:06.542Z</time></trkpt><trkpt lat="43.9621733" lon="12.7518317"><ele>9.0</ele><time>2026-04-26T07:12:07.542Z</time></trkpt><trkpt lat="43.9620483" lon="12.751715"><ele>9.0</ele><time>2026-04-26T07:12:08.54Z</time></trkpt><trkpt lat="43.9619267" lon="12.7516"><ele>9.0</ele><time>2026-04-26T07:12:09.54Z</time></trkpt><trkpt lat="43.96181" lon="12.7514867"><ele>9.25</ele><time>2026-04-26T07:12:10.541Z</time></trkpt><trkpt lat="43.9616917" lon="12.7513717"><ele>9.5</ele><time>2026-04-26T07:12:11.541Z</time></trkpt><trkpt lat="43.9615817" lon="12.751265"><ele>9.75</ele><time>2026-04-26T07:12:12.542Z</time></trkpt><trkpt lat="43.9614733" lon="12.7511683"><ele>10.0</ele><time>2026-04-26T07:12:13.543Z</time></trkpt><trkpt lat="43.9613667" lon="12.75108"><ele>9.8</ele><time>2026-04-26T07:12:14.541Z</time></trkpt><trkpt lat="43.9612817" lon="12.75101"><ele>9.6</ele><time>2026-04-26T07:12:15.54Z</time></trkpt><trkpt lat="43.9612133" lon="12.75094"><ele>9.4</ele><time>2026-04-26T07:12:16.543Z</time></trkpt><trkpt lat="43.961165" lon="12.7508633"><ele>9.2</ele><time>2026-04-26T07:12:17.541Z</time></trkpt><trkpt lat="43.9611533" lon="12.7507183"><ele>9.0</ele><time>2026-04-26T07:12:19.543Z</time></trkpt><trkpt lat="43.961175" lon="12.750555"><ele>9.0</ele><time>2026-04-26T07:12:21.54Z</time></trkpt><trkpt lat="43.96124" lon="12.7504767"><ele>9.0</ele><time>2026-04-26T07:12:22.541Z</time></trkpt><trkpt lat="43.961315" lon="12.7504033"><ele>9.0</ele><time>2026-04-26T07:12:23.541Z</time></trkpt><trkpt lat="43.9614067" lon="12.750335"><ele>9.0</ele><time>2026-04-26T07:12:24.542Z</time></trkpt><trkpt lat="43.9614667" lon="12.7502883"><ele>9.0</ele><time>2026-04-26T07:12:25.541Z</time></trkpt><trkpt lat="43.961515" lon="12.75022"><ele>9.0</ele><time>2026-04-26T07:12:28.542Z</time></trkpt><trkpt lat="43.9614917" lon="12.75033"><ele>9.0</ele><time>2026-04-26T07:12:33.541Z</time></trkpt><trkpt lat="43.96153" lon="12.7502433"><ele>9.0</ele><time>2026-04-26T07:12:48.541Z</time></trkpt><trkpt lat="43.961585" lon="12.7501633"><ele>9.0</ele><time>2026-04-26T07:12:49.542Z</time></trkpt><trkpt lat="43.9616317" lon="12.7500917"><ele>9.0</ele><time>2026-04-26T07:12:50.542Z</time></trkpt><trkpt lat="43.9617017" lon="12.7499967"><ele>9.0</ele><time>2026-04-26T07:12:52.542Z</time></trkpt><trkpt lat="43.9616283" lon="12.750005"><ele>9.0</ele><time>2026-04-26T07:13:27.54Z</time></trkpt><trkpt lat="43.9615767" lon="12.75011"><ele>9.0</ele><time>2026-04-26T07:13:29.54Z</time></trkpt><trkpt lat="43.9615367" lon="12.75019"><ele>9.0</ele><time>2026-04-26T07:13:30.541Z</time></trkpt><trkpt lat="43.96149" lon="12.7502783"><ele>9.0</ele><time>2026-04-26T07:13:31.543Z</time></trkpt><trkpt lat="43.9614167" lon="12.75041"><ele>9.0</ele><time>2026-04-26T07:13:33.541Z</time></trkpt><trkpt lat="43.9613633" lon="12.75048"><ele>9.0</ele><time>2026-04-26T07:13:34.542Z</time></trkpt><trkpt lat="43.9612817" lon="12.7505333"><ele>9.0</ele><time>2026-04-26T07:13:36.544Z</time></trkpt><trkpt lat="43.96121" lon="12.7505683"><ele>9.0</ele><time>2026-04-26T07:13:37.542Z</time></trkpt><trkpt lat="43.9611283" lon="12.7505967"><ele>9.0</ele><time>2026-04-26T07:13:38.543Z</time></trkpt><trkpt lat="43.9610383" lon="12.750625"><ele>9.0</ele><time>2026-04-26T07:13:39.539Z</time></trkpt><trkpt lat="43.9609183" lon="12.7506617"><ele>9.0</ele><time>2026-04-26T07:13:40.542Z</time></trkpt><trkpt lat="43.9607133" lon="12.750665"><ele>9.0</ele><time>2026-04-26T07:13:41.541Z</time></trkpt><trkpt lat="43.9605483" lon="12.7506583"><ele>9.0</ele><time>2026-04-26T07:13:42.541Z</time></trkpt><trkpt lat="43.9604133" lon="12.7506183"><ele>9.0</ele><time>2026-04-26T07:13:43.542Z</time></trkpt><trkpt lat="43.960315" lon="12.750565"><ele>9.0</ele><time>2026-04-26T07:13:44.543Z</time></trkpt><trkpt lat="43.960245" lon="12.7505233"><ele>9.0</ele><time>2026-04-26T07:13:45.542Z</time></trkpt><trkpt lat="43.9601833" lon="12.7504733"><ele>9.0</ele><time>2026-04-26T07:13:47.543Z</time></trkpt><trkpt lat="43.960125" lon="12.7503917"><ele>9.0</ele><time>2026-04-26T07:13:50.543Z</time></trkpt><trkpt lat="43.9600883" lon="12.75027"><ele>9.0</ele><time>2026-04-26T07:13:52.542Z</time></trkpt><trkpt lat="43.9600483" lon="12.75015"><ele>9.0</ele><time>2026-04-26T07:13:54.541Z</time></trkpt><trkpt lat="43.9600917" lon="12.7500833"><ele>9.0</ele><time>2026-04-26T07:16:04.543Z</time></trkpt><trkpt lat="43.960105" lon="12.7501933"><ele>9.0</ele><time>2026-04-26T07:16:06.543Z</time></trkpt><trkpt lat="43.9601017" lon="12.7502833"><ele>9.0</ele><time>2026-04-26T07:16:07.545Z</time></trkpt><trkpt lat="43.9600933" lon="12.75037"><ele>9.0</ele><time>2026-04-26T07:16:08.54Z</time></trkpt><trkpt lat="43.9600833" lon="12.750475"><ele>9.0</ele><time>2026-04-26T07:16:09.543Z</time></trkpt><trkpt lat="43.96007" lon="12.7505917"><ele>9.0</ele><time>2026-04-26T07:16:10.544Z</time></trkpt><trkpt lat="43.960055" lon="12.7507267"><ele>9.0</ele><time>2026-04-26T07:16:11.543Z</time></trkpt><trkpt lat="43.9600367" lon="12.7508767"><ele>9.25</ele><time>2026-04-26T07:16:12.544Z</time></trkpt><trkpt lat="43.9600133" lon="12.7510367"><ele>9.5</ele><time>2026-04-26T07:16:13.545Z</time></trkpt><trkpt lat="43.95999" lon="12.7512067"><ele>9.75</ele><time>2026-04-26T07:16:14.539Z</time></trkpt><trkpt lat="43.95997" lon="12.7513783"><ele>10.0</ele><time>2026-04-26T07:16:15.541Z</time></trkpt><trkpt lat="43.9599483" lon="12.7515483"><ele>9.5</ele><time>2026-04-26T07:16:16.545Z</time></trkpt><trkpt lat="43.95993" lon="12.7517217"><ele>9.0</ele><time>2026-04-26T07:16:17.54Z</time></trkpt><trkpt lat="43.95991" lon="12.7518933"><ele>8.5</ele><time>2026-04-26T07:16:18.542Z</time></trkpt><trkpt lat="43.9598917" lon="12.752065"><ele>8.0</ele><time>2026-04-26T07:16:19.542Z</time></trkpt><trkpt lat="43.9598717" lon="12.7522417"><ele>7.75</ele><time>2026-04-26T07:16:20.541Z</time></trkpt><trkpt lat="43.9598533" lon="12.7524133"><ele>7.5</ele><time>2026-04-26T07:16:21.541Z</time></trkpt><trkpt lat="43.9598383" lon="12.7525783"><ele>7.25</ele><time>2026-04-26T07:16:22.542Z</time></trkpt><trkpt lat="43.959825" lon="12.7527433"><ele>7.0</ele><time>2026-04-26T07:16:23.541Z</time></trkpt><trkpt lat="43.9598117" lon="12.752905"><ele>6.8</ele><time>2026-04-26T07:16:24.541Z</time></trkpt><trkpt lat="43.9597983" lon="12.7530617"><ele>6.6</ele><time>2026-04-26T07:16:25.543Z</time></trkpt><trkpt lat="43.959785" lon="12.7532167"><ele>6.3999999999999995</ele><time>2026-04-26T07:16:26.542Z</time></trkpt><trkpt lat="43.9597717" lon="12.7533667"><ele>6.199999999999999</ele><time>2026-04-26T07:16:27.542Z</time></trkpt><trkpt lat="43.95976" lon="12.7535133"><ele>6.0</ele><time>2026-04-26T07:16:28.544Z</time></trkpt><trkpt lat="43.95975" lon="12.753655"><ele>6.0</ele><time>2026-04-26T07:16:29.544Z</time></trkpt><trkpt lat="43.9597367" lon="12.7537933"><ele>6.0</ele><time>2026-04-26T07:16:30.544Z</time></trkpt><trkpt lat="43.9597267" lon="12.7539183"><ele>6.0</ele><time>2026-04-26T07:16:31.542Z</time></trkpt><trkpt lat="43.9597167" lon="12.7540383"><ele>6.0</ele><time>2026-04-26T07:16:32.539Z</time></trkpt><trkpt lat="43.9597067" lon="12.754155"><ele>6.0</ele><time>2026-04-26T07:16:33.543Z</time></trkpt><trkpt lat="43.959695" lon="12.7542767"><ele>6.6</ele><time>2026-04-26T07:16:34.542Z</time></trkpt><trkpt lat="43.9596867" lon="12.7544033"><ele>7.199999999999999</ele><time>2026-04-26T07:16:35.546Z</time></trkpt><trkpt lat="43.959675" lon="12.7545433"><ele>7.800000000000001</ele><time>2026-04-26T07:16:36.542Z</time></trkpt><trkpt lat="43.9596633" lon="12.7546883"><ele>8.4</ele><time>2026-04-26T07:16:37.545Z</time></trkpt><trkpt lat="43.95965" lon="12.7548333"><ele>9.0</ele><time>2026-04-26T07:16:38.54Z</time></trkpt><trkpt lat="43.9596383" lon="12.7549783"><ele>9.0</ele><time>2026-04-26T07:16:39.542Z</time></trkpt><trkpt lat="43.9596283" lon="12.755115"><ele>9.0</ele><time>2026-04-26T07:16:40.542Z</time></trkpt><trkpt lat="43.9596183" lon="12.7552467"><ele>9.0</ele><time>2026-04-26T07:16:41.544Z</time></trkpt><trkpt lat="43.9596083" lon="12.7553667"><ele>9.0</ele><time>2026-04-26T07:16:42.542Z</time></trkpt><trkpt lat="43.9596" lon="12.7554767"><ele>9.0</ele><time>2026-04-26T07:16:43.545Z</time></trkpt><trkpt lat="43.9595917" lon="12.7555767"><ele>9.0</ele><time>2026-04-26T07:16:44.54Z</time></trkpt><trkpt lat="43.959585" lon="12.755665"><ele>9.0</ele><time>2026-04-26T07:16:45.544Z</time></trkpt><trkpt lat="43.9595717" lon="12.7558167"><ele>9.0</ele><time>2026-04-26T07:16:47.541Z</time></trkpt><trkpt lat="43.9595517" lon="12.7559383"><ele>9.0</ele><time>2026-04-26T07:16:49.543Z</time></trkpt><trkpt lat="43.9595233" lon="12.7560517"><ele>9.0</ele><time>2026-04-26T07:16:51.541Z</time></trkpt><trkpt lat="43.9594933" lon="12.7562083"><ele>9.0</ele><time>2026-04-26T07:16:53.541Z</time></trkpt><trkpt lat="43.9594967" lon="12.7563083"><ele>9.0</ele><time>2026-04-26T07:16:54.542Z</time></trkpt><trkpt lat="43.9595" lon="12.756415"><ele>9.0</ele><time>2026-04-26T07:16:55.542Z</time></trkpt><trkpt lat="43.9595" lon="12.7565333"><ele>9.0</ele><time>2026-04-26T07:16:56.542Z</time></trkpt><trkpt lat="43.959495" lon="12.7566517"><ele>9.0</ele><time>2026-04-26T07:16:57.542Z</time></trkpt><trkpt lat="43.9594833" lon="12.7567633"><ele>9.0</ele><time>2026-04-26T07:16:58.541Z</time></trkpt><trkpt lat="43.95947" lon="12.7568667"><ele>9.0</ele><time>2026-04-26T07:16:59.549Z</time></trkpt><trkpt lat="43.95946" lon="12.756965"><ele>8.833333333333334</ele><time>2026-04-26T07:17:00.534Z</time></trkpt><trkpt lat="43.9594517" lon="12.7570533"><ele>8.666666666666666</ele><time>2026-04-26T07:17:01.533Z</time></trkpt><trkpt lat="43.95944" lon="12.7572267"><ele>8.5</ele><time>2026-04-26T07:17:03.533Z</time></trkpt><trkpt lat="43.9594283" lon="12.7573217"><ele>8.333333333333332</ele><time>2026-04-26T07:17:04.537Z</time></trkpt><trkpt lat="43.959415" lon="12.75744"><ele>8.166666666666666</ele><time>2026-04-26T07:17:05.534Z</time></trkpt><trkpt lat="43.959395" lon="12.7575683"><ele>8.0</ele><time>2026-04-26T07:17:06.534Z</time></trkpt><trkpt lat="43.9593633" lon="12.7577233"><ele>7.75</ele><time>2026-04-26T07:17:07.535Z</time></trkpt><trkpt lat="43.959325" lon="12.7578767"><ele>7.5</ele><time>2026-04-26T07:17:08.533Z</time></trkpt><trkpt lat="43.9592833" lon="12.7580283"><ele>7.25</ele><time>2026-04-26T07:17:09.535Z</time></trkpt><trkpt lat="43.9592417" lon="12.758175"><ele>7.0</ele><time>2026-04-26T07:17:10.533Z</time></trkpt><trkpt lat="43.9591983" lon="12.7583133"><ele>7.0</ele><time>2026-04-26T07:17:11.533Z</time></trkpt><trkpt lat="43.959155" lon="12.7584467"><ele>7.0</ele><time>2026-04-26T07:17:12.535Z</time></trkpt><trkpt lat="43.9591067" lon="12.7585783"><ele>7.0</ele><time>2026-04-26T07:17:13.534Z</time></trkpt><trkpt lat="43.9590517" lon="12.75872"><ele>7.0</ele><time>2026-04-26T07:17:14.534Z</time></trkpt><trkpt lat="43.9589883" lon="12.7588683"><ele>6.75</ele><time>2026-04-26T07:17:15.537Z</time></trkpt><trkpt lat="43.95892" lon="12.7590183"><ele>6.5</ele><time>2026-04-26T07:17:16.534Z</time></trkpt><trkpt lat="43.9588483" lon="12.759175"><ele>6.25</ele><time>2026-04-26T07:17:17.535Z</time></trkpt><trkpt lat="43.9587783" lon="12.7593383"><ele>6.0</ele><time>2026-04-26T07:17:18.534Z</time></trkpt><trkpt lat="43.9587067" lon="12.759515"><ele>6.75</ele><time>2026-04-26T07:17:19.534Z</time></trkpt><trkpt lat="43.9586317" lon="12.75969"><ele>7.5</ele><time>2026-04-26T07:17:20.534Z</time></trkpt><trkpt lat="43.9585567" lon="12.75987"><ele>8.25</ele><time>2026-04-26T07:17:21.534Z</time></trkpt><trkpt lat="43.9584783" lon="12.7600517"><ele>9.0</ele><time>2026-04-26T07:17:22.536Z</time></trkpt><trkpt lat="43.9583967" lon="12.760235"><ele>9.666666666666666</ele><time>2026-04-26T07:17:23.536Z</time></trkpt><trkpt lat="43.958315" lon="12.7604183"><ele>10.333333333333332</ele><time>2026-04-26T07:17:24.536Z</time></trkpt><trkpt lat="43.9582317" lon="12.7606033"><ele>11.0</ele><time>2026-04-26T07:17:25.537Z</time></trkpt><trkpt lat="43.95815" lon="12.7607833"><ele>11.0</ele><time>2026-04-26T07:17:26.536Z</time></trkpt><trkpt lat="43.9580683" lon="12.7609517"><ele>11.0</ele><time>2026-04-26T07:17:27.536Z</time></trkpt><trkpt lat="43.9579967" lon="12.7611017"><ele>11.0</ele><time>2026-04-26T07:17:28.536Z</time></trkpt><trkpt lat="43.9579317" lon="12.76124"><ele>11.0</ele><time>2026-04-26T07:17:29.536Z</time></trkpt><trkpt lat="43.9578667" lon="12.7613767"><ele>11.5</ele><time>2026-04-26T07:17:30.537Z</time></trkpt><trkpt lat="43.9578033" lon="12.7615183"><ele>12.0</ele><time>2026-04-26T07:17:31.538Z</time></trkpt><trkpt lat="43.95774" lon="12.7616617"><ele>12.5</ele><time>2026-04-26T07:17:32.537Z</time></trkpt><trkpt lat="43.957685" lon="12.7618017"><ele>13.0</ele><time>2026-04-26T07:17:33.537Z</time></trkpt><trkpt lat="43.9576333" lon="12.76193"><ele>13.333333333333332</ele><time>2026-04-26T07:17:34.534Z</time></trkpt><trkpt lat="43.9575817" lon="12.762035"><ele>13.666666666666666</ele><time>2026-04-26T07:17:35.533Z</time></trkpt><trkpt lat="43.9575217" lon="12.7621183"><ele>14.0</ele><time>2026-04-26T07:17:36.534Z</time></trkpt><trkpt lat="43.9574583" lon="12.7622017"><ele>14.333333333333332</ele><time>2026-04-26T07:17:37.534Z</time></trkpt><trkpt lat="43.95741" lon="12.7623"><ele>14.666666666666666</ele><time>2026-04-26T07:17:38.538Z</time></trkpt><trkpt lat="43.9573733" lon="12.76242"><ele>15.0</ele><time>2026-04-26T07:17:39.536Z</time></trkpt><trkpt lat="43.9573283" lon="12.7625617"><ele>16.75</ele><time>2026-04-26T07:17:40.537Z</time></trkpt><trkpt lat="43.957275" lon="12.7627217"><ele>18.5</ele><time>2026-04-26T07:17:41.536Z</time></trkpt><trkpt lat="43.9572067" lon="12.7629033"><ele>20.25</ele><time>2026-04-26T07:17:42.537Z</time></trkpt><trkpt lat="43.9571317" lon="12.7630967"><ele>22.0</ele><time>2026-04-26T07:17:43.536Z</time></trkpt><trkpt lat="43.957055" lon="12.7632917"><ele>22.0</ele><time>2026-04-26T07:17:44.537Z</time></trkpt><trkpt lat="43.9569817" lon="12.7634867"><ele>22.0</ele><time>2026-04-26T07:17:45.536Z</time></trkpt><trkpt lat="43.9569233" lon="12.7636867"><ele>22.0</ele><time>2026-04-26T07:17:46.534Z</time></trkpt><trkpt lat="43.95689" lon="12.7639017"><ele>21.666666666666664</ele><time>2026-04-26T07:17:47.534Z</time></trkpt><trkpt lat="43.9568783" lon="12.7641283"><ele>21.333333333333332</ele><time>2026-04-26T07:17:48.535Z</time></trkpt><trkpt lat="43.9568967" lon="12.7643533"><ele>21.0</ele><time>2026-04-26T07:17:49.533Z</time></trkpt><trkpt lat="43.95693" lon="12.764575"><ele>20.333333333333332</ele><time>2026-04-26T07:17:50.533Z</time></trkpt><trkpt lat="43.95698" lon="12.7647967"><ele>19.666666666666664</ele><time>2026-04-26T07:17:51.534Z</time></trkpt><trkpt lat="43.9570283" lon="12.7650067"><ele>19.0</ele><time>2026-04-26T07:17:52.535Z</time></trkpt><trkpt lat="43.9570767" lon="12.7651983"><ele>18.75</ele><time>2026-04-26T07:17:53.537Z</time></trkpt><trkpt lat="43.95712" lon="12.7653767"><ele>18.5</ele><time>2026-04-26T07:17:54.533Z</time></trkpt><trkpt lat="43.9571483" lon="12.7655367"><ele>18.25</ele><time>2026-04-26T07:17:55.534Z</time></trkpt><trkpt lat="43.9571483" lon="12.7656917"><ele>18.0</ele><time>2026-04-26T07:17:56.533Z</time></trkpt><trkpt lat="43.9571217" lon="12.765825"><ele>18.0</ele><time>2026-04-26T07:17:57.533Z</time></trkpt><trkpt lat="43.9570533" lon="12.7659117"><ele>18.0</ele><time>2026-04-26T07:17:58.533Z</time></trkpt><trkpt lat="43.9569667" lon="12.7659583"><ele>18.0</ele><time>2026-04-26T07:17:59.534Z</time></trkpt><trkpt lat="43.9568683" lon="12.765985"><ele>18.0</ele><time>2026-04-26T07:18:00.536Z</time></trkpt><trkpt lat="43.9567633" lon="12.7659583"><ele>18.0</ele><time>2026-04-26T07:18:01.536Z</time></trkpt><trkpt lat="43.95669" lon="12.7658833"><ele>17.2</ele><time>2026-04-26T07:18:02.537Z</time></trkpt><trkpt lat="43.9566383" lon="12.7657767"><ele>16.4</ele><time>2026-04-26T07:18:03.536Z</time></trkpt><trkpt lat="43.956615" lon="12.7656417"><ele>15.599999999999998</ele><time>2026-04-26T07:18:04.537Z</time></trkpt><trkpt lat="43.9566283" lon="12.7654817"><ele>14.799999999999999</ele><time>2026-04-26T07:18:05.536Z</time></trkpt><trkpt lat="43.9566417" lon="12.7653083"><ele>14.0</ele><time>2026-04-26T07:18:06.536Z</time></trkpt><trkpt lat="43.9566517" lon="12.76512"><ele>13.666666666666668</ele><time>2026-04-26T07:18:07.536Z</time></trkpt><trkpt lat="43.9566517" lon="12.7649167"><ele>13.333333333333332</ele><time>2026-04-26T07:18:08.537Z</time></trkpt><trkpt lat="43.9566333" lon="12.764705"><ele>13.0</ele><time>2026-04-26T07:18:09.536Z</time></trkpt><trkpt lat="43.9566" lon="12.7644867"><ele>14.0</ele><time>2026-04-26T07:18:10.538Z</time></trkpt><trkpt lat="43.9565483" lon="12.7642667"><ele>15.0</ele><time>2026-04-26T07:18:11.537Z</time></trkpt><trkpt lat="43.9564833" lon="12.764045"><ele>16.0</ele><time>2026-04-26T07:18:12.538Z</time></trkpt><trkpt lat="43.9564017" lon="12.7638233"><ele>16.0</ele><time>2026-04-26T07:18:13.537Z</time></trkpt><trkpt lat="43.9562983" lon="12.7636133"><ele>16.0</ele><time>2026-04-26T07:18:14.536Z</time></trkpt><trkpt lat="43.95617" lon="12.7634217"><ele>16.0</ele><time>2026-04-26T07:18:15.537Z</time></trkpt><trkpt lat="43.95603" lon="12.7632483"><ele>15.666666666666666</ele><time>2026-04-26T07:18:16.537Z</time></trkpt><trkpt lat="43.9558783" lon="12.763085"><ele>15.333333333333332</ele><time>2026-04-26T07:18:17.533Z</time></trkpt><trkpt lat="43.95572" lon="12.7629283"><ele>15.0</ele><time>2026-04-26T07:18:18.534Z</time></trkpt><trkpt lat="43.9555633" lon="12.7627717"><ele>13.666666666666666</ele><time>2026-04-26T07:18:19.537Z</time></trkpt><trkpt lat="43.9554117" lon="12.76262"><ele>12.333333333333332</ele><time>2026-04-26T07:18:20.536Z</time></trkpt><trkpt lat="43.95527" lon="12.76248"><ele>11.0</ele><time>2026-04-26T07:18:21.537Z</time></trkpt><trkpt lat="43.955135" lon="12.7623433"><ele>11.0</ele><time>2026-04-26T07:18:22.536Z</time></trkpt><trkpt lat="43.9549983" lon="12.7622"><ele>11.0</ele><time>2026-04-26T07:18:23.532Z</time></trkpt><trkpt lat="43.95485" lon="12.76205"><ele>11.0</ele><time>2026-04-26T07:18:24.538Z</time></trkpt><trkpt lat="43.9546983" lon="12.76188"><ele>10.333333333333332</ele><time>2026-04-26T07:18:25.537Z</time></trkpt><trkpt lat="43.9545517" lon="12.7616917"><ele>9.666666666666666</ele><time>2026-04-26T07:18:26.537Z</time></trkpt><trkpt lat="43.9544217" lon="12.7614833"><ele>9.0</ele><time>2026-04-26T07:18:27.537Z</time></trkpt><trkpt lat="43.9543067" lon="12.7612617"><ele>8.666666666666666</ele><time>2026-04-26T07:18:28.535Z</time></trkpt><trkpt lat="43.9542067" lon="12.7610283"><ele>8.333333333333332</ele><time>2026-04-26T07:18:29.536Z</time></trkpt><trkpt lat="43.954125" lon="12.760785"><ele>8.0</ele><time>2026-04-26T07:18:30.536Z</time></trkpt><trkpt lat="43.954055" lon="12.760545"><ele>8.333333333333332</ele><time>2026-04-26T07:18:31.536Z</time></trkpt><trkpt lat="43.953995" lon="12.7603033"><ele>8.666666666666666</ele><time>2026-04-26T07:18:32.537Z</time></trkpt><trkpt lat="43.9539433" lon="12.760055"><ele>9.0</ele><time>2026-04-26T07:18:33.537Z</time></trkpt><trkpt lat="43.9538983" lon="12.7598117"><ele>9.0</ele><time>2026-04-26T07:18:34.533Z</time></trkpt><trkpt lat="43.95386" lon="12.7595783"><ele>9.0</ele><time>2026-04-26T07:18:35.538Z</time></trkpt><trkpt lat="43.95383" lon="12.75935"><ele>9.0</ele><time>2026-04-26T07:18:36.537Z</time></trkpt><trkpt lat="43.9538" lon="12.7591167"><ele>9.0</ele><time>2026-04-26T07:18:37.536Z</time></trkpt><trkpt lat="43.9537683" lon="12.7588783"><ele>9.0</ele><time>2026-04-26T07:18:38.534Z</time></trkpt><trkpt lat="43.9537317" lon="12.7586233"><ele>9.0</ele><time>2026-04-26T07:18:39.538Z</time></trkpt><trkpt lat="43.9536933" lon="12.75835"><ele>9.0</ele><time>2026-04-26T07:18:40.536Z</time></trkpt><trkpt lat="43.9536583" lon="12.7580667"><ele>9.0</ele><time>2026-04-26T07:18:41.537Z</time></trkpt><trkpt lat="43.9536233" lon="12.7577783"><ele>9.0</ele><time>2026-04-26T07:18:42.536Z</time></trkpt><trkpt lat="43.95359" lon="12.757475"><ele>9.0</ele><time>2026-04-26T07:18:43.537Z</time></trkpt><trkpt lat="43.9535533" lon="12.7571667"><ele>9.0</ele><time>2026-04-26T07:18:44.536Z</time></trkpt><trkpt lat="43.9535167" lon="12.7568533"><ele>8.666666666666666</ele><time>2026-04-26T07:18:45.536Z</time></trkpt><trkpt lat="43.9534817" lon="12.7565467"><ele>8.333333333333332</ele><time>2026-04-26T07:18:46.536Z</time></trkpt><trkpt lat="43.9534467" lon="12.75624"><ele>8.0</ele><time>2026-04-26T07:18:47.536Z</time></trkpt><trkpt lat="43.9534183" lon="12.75593"><ele>8.0</ele><time>2026-04-26T07:18:48.537Z</time></trkpt><trkpt lat="43.9533917" lon="12.75562"><ele>8.0</ele><time>2026-04-26T07:18:49.538Z</time></trkpt><trkpt lat="43.9533683" lon="12.7553"><ele>8.5</ele><time>2026-04-26T07:18:50.538Z</time></trkpt><trkpt lat="43.9533433" lon="12.7549883"><ele>9.0</ele><time>2026-04-26T07:18:51.535Z</time></trkpt><trkpt lat="43.95332" lon="12.7546733"><ele>9.5</ele><time>2026-04-26T07:18:52.538Z</time></trkpt><trkpt lat="43.9532983" lon="12.7543583"><ele>10.0</ele><time>2026-04-26T07:18:53.537Z</time></trkpt><trkpt lat="43.95328" lon="12.7540417"><ele>10.0</ele><time>2026-04-26T07:18:54.537Z</time></trkpt><trkpt lat="43.9532583" lon="12.75373"><ele>10.0</ele><time>2026-04-26T07:18:55.538Z</time></trkpt><trkpt lat="43.9532433" lon="12.7534133"><ele>11.5</ele><time>2026-04-26T07:18:56.536Z</time></trkpt><trkpt lat="43.95323" lon="12.753095"><ele>13.0</ele><time>2026-04-26T07:18:57.536Z</time></trkpt><trkpt lat="43.9532217" lon="12.75278"><ele>13.0</ele><time>2026-04-26T07:18:58.535Z</time></trkpt><trkpt lat="43.9532167" lon="12.7524683"><ele>13.0</ele><time>2026-04-26T07:18:59.533Z</time></trkpt><trkpt lat="43.953215" lon="12.7521483"><ele>12.666666666666666</ele><time>2026-04-26T07:19:00.537Z</time></trkpt><trkpt lat="43.9532117" lon="12.7518367"><ele>12.333333333333332</ele><time>2026-04-26T07:19:01.536Z</time></trkpt><trkpt lat="43.9532067" lon="12.7515317"><ele>12.0</ele><time>2026-04-26T07:19:02.536Z</time></trkpt><trkpt lat="43.9531983" lon="12.751225"><ele>12.0</ele><time>2026-04-26T07:19:03.534Z</time></trkpt><trkpt lat="43.9532" lon="12.7509183"><ele>12.0</ele><time>2026-04-26T07:19:04.536Z</time></trkpt><trkpt lat="43.9532067" lon="12.75061"><ele>12.0</ele><time>2026-04-26T07:19:05.537Z</time></trkpt><trkpt lat="43.9532117" lon="12.7502983"><ele>11.333333333333334</ele><time>2026-04-26T07:19:06.542Z</time></trkpt><trkpt lat="43.95322" lon="12.749995"><ele>10.666666666666668</ele><time>2026-04-26T07:19:07.536Z</time></trkpt><trkpt lat="43.9532283" lon="12.7496983"><ele>10.0</ele><time>2026-04-26T07:19:08.537Z</time></trkpt><trkpt lat="43.9532317" lon="12.749405"><ele>10.0</ele><time>2026-04-26T07:19:09.536Z</time></trkpt><trkpt lat="43.953235" lon="12.74911"><ele>10.0</ele><time>2026-04-26T07:19:10.536Z</time></trkpt><trkpt lat="43.953235" lon="12.748815"><ele>10.0</ele><time>2026-04-26T07:19:11.537Z</time></trkpt><trkpt lat="43.9532333" lon="12.7485183"><ele>10.0</ele><time>2026-04-26T07:19:12.537Z</time></trkpt><trkpt lat="43.9532283" lon="12.74822"><ele>10.0</ele><time>2026-04-26T07:19:13.536Z</time></trkpt><trkpt lat="43.95322" lon="12.7479217"><ele>10.0</ele><time>2026-04-26T07:19:14.537Z</time></trkpt><trkpt lat="43.953205" lon="12.7476167"><ele>10.333333333333334</ele><time>2026-04-26T07:19:15.536Z</time></trkpt><trkpt lat="43.953185" lon="12.7473133"><ele>10.666666666666666</ele><time>2026-04-26T07:19:16.538Z</time></trkpt><trkpt lat="43.95316" lon="12.747015"><ele>11.0</ele><time>2026-04-26T07:19:17.537Z</time></trkpt><trkpt lat="43.95313" lon="12.74672"><ele>11.666666666666666</ele><time>2026-04-26T07:19:18.537Z</time></trkpt><trkpt lat="43.9530933" lon="12.7464267"><ele>12.333333333333332</ele><time>2026-04-26T07:19:19.538Z</time></trkpt><trkpt lat="43.9530517" lon="12.7461383"><ele>13.0</ele><time>2026-04-26T07:19:20.537Z</time></trkpt><trkpt lat="43.9530017" lon="12.7458467"><ele>13.333333333333332</ele><time>2026-04-26T07:19:21.538Z</time></trkpt><trkpt lat="43.9529467" lon="12.7455583"><ele>13.666666666666668</ele><time>2026-04-26T07:19:22.537Z</time></trkpt><trkpt lat="43.9528883" lon="12.7452733"><ele>14.0</ele><time>2026-04-26T07:19:23.537Z</time></trkpt><trkpt lat="43.9528233" lon="12.74499"><ele>14.0</ele><time>2026-04-26T07:19:24.538Z</time></trkpt><trkpt lat="43.9527583" lon="12.744705"><ele>14.0</ele><time>2026-04-26T07:19:25.536Z</time></trkpt><trkpt lat="43.9526867" lon="12.74442"><ele>14.0</ele><time>2026-04-26T07:19:26.535Z</time></trkpt><trkpt lat="43.95261" lon="12.7441383"><ele>13.333333333333334</ele><time>2026-04-26T07:19:27.537Z</time></trkpt><trkpt lat="43.9525317" lon="12.743855"><ele>12.666666666666668</ele><time>2026-04-26T07:19:28.538Z</time></trkpt><trkpt lat="43.9524533" lon="12.743575"><ele>12.0</ele><time>2026-04-26T07:19:29.536Z</time></trkpt><trkpt lat="43.9523717" lon="12.7432933"><ele>12.0</ele><time>2026-04-26T07:19:30.535Z</time></trkpt><trkpt lat="43.95229" lon="12.7430133"><ele>12.0</ele><time>2026-04-26T07:19:31.534Z</time></trkpt><trkpt lat="43.9522083" lon="12.7427367"><ele>12.0</ele><time>2026-04-26T07:19:32.537Z</time></trkpt><trkpt lat="43.9521267" lon="12.74246"><ele>12.0</ele><time>2026-04-26T07:19:33.535Z</time></trkpt><trkpt lat="43.9520433" lon="12.7421833"><ele>12.0</ele><time>2026-04-26T07:19:34.536Z</time></trkpt><trkpt lat="43.9519617" lon="12.7419083"><ele>12.0</ele><time>2026-04-26T07:19:35.538Z</time></trkpt><trkpt lat="43.9518767" lon="12.7416333"><ele>12.0</ele><time>2026-04-26T07:19:36.537Z</time></trkpt><trkpt lat="43.951795" lon="12.7413567"><ele>12.0</ele><time>2026-04-26T07:19:37.538Z</time></trkpt><trkpt lat="43.9517117" lon="12.74108"><ele>12.0</ele><time>2026-04-26T07:19:38.533Z</time></trkpt><trkpt lat="43.9516267" lon="12.7408017"><ele>12.666666666666668</ele><time>2026-04-26T07:19:39.537Z</time></trkpt><trkpt lat="43.95154" lon="12.7405283"><ele>13.333333333333334</ele><time>2026-04-26T07:19:40.536Z</time></trkpt><trkpt lat="43.95146" lon="12.7402483"><ele>14.0</ele><time>2026-04-26T07:19:41.535Z</time></trkpt><trkpt lat="43.9513917" lon="12.739965"><ele>14.0</ele><time>2026-04-26T07:19:42.537Z</time></trkpt><trkpt lat="43.9513217" lon="12.73968"><ele>14.0</ele><time>2026-04-26T07:19:43.538Z</time></trkpt><trkpt lat="43.9512567" lon="12.7393917"><ele>14.0</ele><time>2026-04-26T07:19:44.536Z</time></trkpt><trkpt lat="43.9511967" lon="12.7391033"><ele>14.0</ele><time>2026-04-26T07:19:45.536Z</time></trkpt><trkpt lat="43.951145" lon="12.7388167"><ele>14.0</ele><time>2026-04-26T07:19:46.536Z</time></trkpt><trkpt lat="43.9511" lon="12.7385283"><ele>14.0</ele><time>2026-04-26T07:19:47.536Z</time></trkpt><trkpt lat="43.9510617" lon="12.738235"><ele>14.0</ele><time>2026-04-26T07:19:48.537Z</time></trkpt><trkpt lat="43.95103" lon="12.7379383"><ele>14.0</ele><time>2026-04-26T07:19:49.537Z</time></trkpt><trkpt lat="43.9510067" lon="12.7376433"><ele>14.0</ele><time>2026-04-26T07:19:50.537Z</time></trkpt><trkpt lat="43.95099" lon="12.7373417"><ele>14.0</ele><time>2026-04-26T07:19:51.536Z</time></trkpt><trkpt lat="43.9509783" lon="12.73704"><ele>14.0</ele><time>2026-04-26T07:19:52.538Z</time></trkpt><trkpt lat="43.9509733" lon="12.7367367"><ele>14.0</ele><time>2026-04-26T07:19:53.536Z</time></trkpt><trkpt lat="43.9509783" lon="12.736435"><ele>13.666666666666668</ele><time>2026-04-26T07:19:54.537Z</time></trkpt><trkpt lat="43.9509917" lon="12.73613"><ele>13.333333333333332</ele><time>2026-04-26T07:19:55.536Z</time></trkpt><trkpt lat="43.951015" lon="12.7358317"><ele>13.0</ele><time>2026-04-26T07:19:56.536Z</time></trkpt><trkpt lat="43.951045" lon="12.7355317"><ele>12.666666666666666</ele><time>2026-04-26T07:19:57.536Z</time></trkpt><trkpt lat="43.9510833" lon="12.7352283"><ele>12.333333333333332</ele><time>2026-04-26T07:19:58.534Z</time></trkpt><trkpt lat="43.9511317" lon="12.7349267"><ele>12.0</ele><time>2026-04-26T07:19:59.533Z</time></trkpt><trkpt lat="43.9511883" lon="12.7346283"><ele>12.666666666666668</ele><time>2026-04-26T07:20:00.533Z</time></trkpt><trkpt lat="43.9512517" lon="12.7343417"><ele>13.333333333333334</ele><time>2026-04-26T07:20:01.537Z</time></trkpt><trkpt lat="43.9513233" lon="12.73406"><ele>14.0</ele><time>2026-04-26T07:20:02.537Z</time></trkpt><trkpt lat="43.95141" lon="12.7337883"><ele>14.0</ele><time>2026-04-26T07:20:03.537Z</time></trkpt><trkpt lat="43.9515133" lon="12.7335283"><ele>14.0</ele><time>2026-04-26T07:20:04.534Z</time></trkpt><trkpt lat="43.95163" lon="12.73328"><ele>14.0</ele><time>2026-04-26T07:20:05.534Z</time></trkpt><trkpt lat="43.9517567" lon="12.7330467"><ele>14.0</ele><time>2026-04-26T07:20:06.535Z</time></trkpt><trkpt lat="43.95189" lon="12.73282"><ele>14.0</ele><time>2026-04-26T07:20:07.536Z</time></trkpt><trkpt lat="43.9520283" lon="12.7325933"><ele>14.0</ele><time>2026-04-26T07:20:08.537Z</time></trkpt><trkpt lat="43.9521683" lon="12.732375"><ele>13.333333333333334</ele><time>2026-04-26T07:20:09.537Z</time></trkpt><trkpt lat="43.9523133" lon="12.7321633"><ele>12.666666666666668</ele><time>2026-04-26T07:20:10.537Z</time></trkpt><trkpt lat="43.952465" lon="12.731955"><ele>12.0</ele><time>2026-04-26T07:20:11.536Z</time></trkpt><trkpt lat="43.95262" lon="12.7317567"><ele>13.333333333333332</ele><time>2026-04-26T07:20:12.536Z</time></trkpt><trkpt lat="43.9527783" lon="12.73156"><ele>14.666666666666666</ele><time>2026-04-26T07:20:13.537Z</time></trkpt><trkpt lat="43.9529417" lon="12.7313667"><ele>16.0</ele><time>2026-04-26T07:20:14.536Z</time></trkpt><trkpt lat="43.9531083" lon="12.7311717"><ele>16.0</ele><time>2026-04-26T07:20:15.536Z</time></trkpt><trkpt lat="43.9532733" lon="12.7309817"><ele>16.0</ele><time>2026-04-26T07:20:16.537Z</time></trkpt><trkpt lat="43.9534283" lon="12.730805"><ele>16.0</ele><time>2026-04-26T07:20:17.536Z</time></trkpt><trkpt lat="43.953575" lon="12.7306433"><ele>16.0</ele><time>2026-04-26T07:20:18.536Z</time></trkpt><trkpt lat="43.9537167" lon="12.730485"><ele>16.0</ele><time>2026-04-26T07:20:19.537Z</time></trkpt><trkpt lat="43.9538567" lon="12.7303317"><ele>16.0</ele><time>2026-04-26T07:20:20.536Z</time></trkpt><trkpt lat="43.953995" lon="12.73018"><ele>15.666666666666666</ele><time>2026-04-26T07:20:21.536Z</time></trkpt><trkpt lat="43.95413" lon="12.7300333"><ele>15.333333333333332</ele><time>2026-04-26T07:20:22.537Z</time></trkpt><trkpt lat="43.9542567" lon="12.7298983"><ele>15.0</ele><time>2026-04-26T07:20:23.537Z</time></trkpt><trkpt lat="43.9543767" lon="12.7297683"><ele>15.5</ele><time>2026-04-26T07:20:24.538Z</time></trkpt><trkpt lat="43.9544917" lon="12.72965"><ele>16.0</ele><time>2026-04-26T07:20:25.537Z</time></trkpt><trkpt lat="43.9545917" lon="12.7295517"><ele>16.5</ele><time>2026-04-26T07:20:26.537Z</time></trkpt><trkpt lat="43.9546783" lon="12.72948"><ele>17.0</ele><time>2026-04-26T07:20:27.535Z</time></trkpt><trkpt lat="43.9547567" lon="12.7294217"><ele>17.0</ele><time>2026-04-26T07:20:28.537Z</time></trkpt><trkpt lat="43.954815" lon="12.729385"><ele>17.0</ele><time>2026-04-26T07:20:29.533Z</time></trkpt><trkpt lat="43.9549183" lon="12.729435"><ele>17.0</ele><time>2026-04-26T07:20:32.534Z</time></trkpt><trkpt lat="43.9549817" lon="12.729455"><ele>17.0</ele><time>2026-04-26T07:20:33.533Z</time></trkpt><trkpt lat="43.955055" lon="12.7294917"><ele>17.0</ele><time>2026-04-26T07:20:34.534Z</time></trkpt><trkpt lat="43.95513" lon="12.7295567"><ele>17.0</ele><time>2026-04-26T07:20:35.537Z</time></trkpt><trkpt lat="43.9551967" lon="12.72966"><ele>16.8</ele><time>2026-04-26T07:20:36.535Z</time></trkpt><trkpt lat="43.9552633" lon="12.729775"><ele>16.6</ele><time>2026-04-26T07:20:37.536Z</time></trkpt><trkpt lat="43.9553217" lon="12.7298833"><ele>16.400000000000002</ele><time>2026-04-26T07:20:38.535Z</time></trkpt><trkpt lat="43.955375" lon="12.72998"><ele>16.2</ele><time>2026-04-26T07:20:39.534Z</time></trkpt><trkpt lat="43.9554233" lon="12.7300817"><ele>16.0</ele><time>2026-04-26T07:20:40.534Z</time></trkpt><trkpt lat="43.95546" lon="12.73019"><ele>15.833333333333332</ele><time>2026-04-26T07:20:41.534Z</time></trkpt><trkpt lat="43.9554817" lon="12.730305"><ele>15.666666666666666</ele><time>2026-04-26T07:20:42.536Z</time></trkpt><trkpt lat="43.95549" lon="12.73042"><ele>15.5</ele><time>2026-04-26T07:20:43.537Z</time></trkpt><trkpt lat="43.9555117" lon="12.73053"><ele>15.333333333333332</ele><time>2026-04-26T07:20:44.533Z</time></trkpt><trkpt lat="43.955555" lon="12.7306267"><ele>15.166666666666666</ele><time>2026-04-26T07:20:45.534Z</time></trkpt><trkpt lat="43.9556183" lon="12.7307017"><ele>15.0</ele><time>2026-04-26T07:20:46.537Z</time></trkpt><trkpt lat="43.9556983" lon="12.7307483"><ele>15.0</ele><time>2026-04-26T07:20:47.536Z</time></trkpt><trkpt lat="43.9558" lon="12.7307633"><ele>15.0</ele><time>2026-04-26T07:20:48.538Z</time></trkpt><trkpt lat="43.9558967" lon="12.7308"><ele>15.0</ele><time>2026-04-26T07:20:49.537Z</time></trkpt><trkpt lat="43.956" lon="12.7308367"><ele>15.0</ele><time>2026-04-26T07:20:50.538Z</time></trkpt><trkpt lat="43.9561183" lon="12.7308433"><ele>15.0</ele><time>2026-04-26T07:20:51.534Z</time></trkpt><trkpt lat="43.95623" lon="12.73083"><ele>14.5</ele><time>2026-04-26T07:20:52.536Z</time></trkpt><trkpt lat="43.9563417" lon="12.73079"><ele>14.0</ele><time>2026-04-26T07:20:53.536Z</time></trkpt><trkpt lat="43.9564483" lon="12.7307233"><ele>13.5</ele><time>2026-04-26T07:20:54.537Z</time></trkpt><trkpt lat="43.9565483" lon="12.7306417"><ele>13.0</ele><time>2026-04-26T07:20:55.537Z</time></trkpt><trkpt lat="43.9566383" lon="12.730555"><ele>13.0</ele><time>2026-04-26T07:20:56.536Z</time></trkpt><trkpt lat="43.95672" lon="12.730475"><ele>13.0</ele><time>2026-04-26T07:20:57.536Z</time></trkpt><trkpt lat="43.9567967" lon="12.7304033"><ele>13.0</ele><time>2026-04-26T07:20:58.535Z</time></trkpt><trkpt lat="43.9568667" lon="12.7303367"><ele>13.0</ele><time>2026-04-26T07:20:59.536Z</time></trkpt><trkpt lat="43.9569233" lon="12.7302817"><ele>13.0</ele><time>2026-04-26T07:21:00.535Z</time></trkpt><trkpt lat="43.9570217" lon="12.7302017"><ele>13.4</ele><time>2026-04-26T07:21:02.533Z</time></trkpt><trkpt lat="43.9571383" lon="12.73014"><ele>13.8</ele><time>2026-04-26T07:21:04.538Z</time></trkpt><trkpt lat="43.95722" lon="12.7300383"><ele>14.2</ele><time>2026-04-26T07:21:06.538Z</time></trkpt><trkpt lat="43.9571967" lon="12.72989"><ele>14.6</ele><time>2026-04-26T07:21:08.537Z</time></trkpt><trkpt lat="43.9571267" lon="12.7297983"><ele>15.0</ele><time>2026-04-26T07:21:09.536Z</time></trkpt><trkpt lat="43.9570433" lon="12.72969"><ele>15.0</ele><time>2026-04-26T07:21:10.536Z</time></trkpt><trkpt lat="43.9569367" lon="12.7295233"><ele>15.0</ele><time>2026-04-26T07:21:11.537Z</time></trkpt><trkpt lat="43.9568433" lon="12.72934"><ele>15.0</ele><time>2026-04-26T07:21:12.538Z</time></trkpt><trkpt lat="43.9567483" lon="12.7291433"><ele>15.666666666666668</ele><time>2026-04-26T07:21:13.536Z</time></trkpt><trkpt lat="43.956645" lon="12.72895"><ele>16.333333333333336</ele><time>2026-04-26T07:21:14.536Z</time></trkpt><trkpt lat="43.95653" lon="12.7287583"><ele>17.0</ele><time>2026-04-26T07:21:15.538Z</time></trkpt><trkpt lat="43.9564133" lon="12.7285683"><ele>16.333333333333336</ele><time>2026-04-26T07:21:16.536Z</time></trkpt><trkpt lat="43.956285" lon="12.728375"><ele>15.666666666666668</ele><time>2026-04-26T07:21:17.538Z</time></trkpt><trkpt lat="43.9561517" lon="12.7281883"><ele>15.0</ele><time>2026-04-26T07:21:18.537Z</time></trkpt><trkpt lat="43.9560167" lon="12.728005"><ele>15.0</ele><time>2026-04-26T07:21:19.539Z</time></trkpt><trkpt lat="43.9558767" lon="12.7278217"><ele>15.0</ele><time>2026-04-26T07:21:20.537Z</time></trkpt><trkpt lat="43.9557367" lon="12.727635"><ele>15.0</ele><time>2026-04-26T07:21:21.537Z</time></trkpt><trkpt lat="43.955595" lon="12.7274483"><ele>15.333333333333332</ele><time>2026-04-26T07:21:22.537Z</time></trkpt><trkpt lat="43.9554533" lon="12.727255"><ele>15.666666666666666</ele><time>2026-04-26T07:21:23.537Z</time></trkpt><trkpt lat="43.9553083" lon="12.7270683"><ele>16.0</ele><time>2026-04-26T07:21:24.537Z</time></trkpt><trkpt lat="43.955155" lon="12.7268983"><ele>16.0</ele><time>2026-04-26T07:21:25.537Z</time></trkpt><trkpt lat="43.954995" lon="12.7267433"><ele>16.0</ele><time>2026-04-26T07:21:26.537Z</time></trkpt><trkpt lat="43.95483" lon="12.72661"><ele>16.0</ele><time>2026-04-26T07:21:27.534Z</time></trkpt><trkpt lat="43.9546767" lon="12.7265"><ele>16.0</ele><time>2026-04-26T07:21:28.535Z</time></trkpt><trkpt lat="43.9545417" lon="12.7264067"><ele>16.0</ele><time>2026-04-26T07:21:29.537Z</time></trkpt><trkpt lat="43.9544333" lon="12.7263083"><ele>16.0</ele><time>2026-04-26T07:21:30.536Z</time></trkpt><trkpt lat="43.9543567" lon="12.7262067"><ele>16.0</ele><time>2026-04-26T07:21:31.537Z</time></trkpt><trkpt lat="43.954315" lon="12.726085"><ele>15.833333333333332</ele><time>2026-04-26T07:21:32.533Z</time></trkpt><trkpt lat="43.954295" lon="12.7259583"><ele>15.666666666666666</ele><time>2026-04-26T07:21:33.537Z</time></trkpt><trkpt lat="43.9542667" lon="12.7258367"><ele>15.5</ele><time>2026-04-26T07:21:34.534Z</time></trkpt><trkpt lat="43.9542167" lon="12.7257433"><ele>15.333333333333332</ele><time>2026-04-26T07:21:35.538Z</time></trkpt><trkpt lat="43.95416" lon="12.7256733"><ele>15.166666666666666</ele><time>2026-04-26T07:21:36.538Z</time></trkpt><trkpt lat="43.9540867" lon="12.72566"><ele>15.0</ele><time>2026-04-26T07:21:37.536Z</time></trkpt><trkpt lat="43.9539983" lon="12.7256983"><ele>15.6</ele><time>2026-04-26T07:21:38.538Z</time></trkpt><trkpt lat="43.9539117" lon="12.7257217"><ele>16.2</ele><time>2026-04-26T07:21:39.535Z</time></trkpt><trkpt lat="43.9538083" lon="12.7257433"><ele>16.8</ele><time>2026-04-26T07:21:40.537Z</time></trkpt><trkpt lat="43.9536967" lon="12.7257317"><ele>17.4</ele><time>2026-04-26T07:21:41.537Z</time></trkpt><trkpt lat="43.9535617" lon="12.725695"><ele>18.0</ele><time>2026-04-26T07:21:42.536Z</time></trkpt><trkpt lat="43.9534117" lon="12.7256417"><ele>18.666666666666668</ele><time>2026-04-26T07:21:43.537Z</time></trkpt><trkpt lat="43.9532517" lon="12.7255833"><ele>19.333333333333336</ele><time>2026-04-26T07:21:44.536Z</time></trkpt><trkpt lat="43.9530867" lon="12.7255133"><ele>20.0</ele><time>2026-04-26T07:21:45.537Z</time></trkpt><trkpt lat="43.952915" lon="12.7254383"><ele>20.0</ele><time>2026-04-26T07:21:46.535Z</time></trkpt><trkpt lat="43.9527433" lon="12.7253667"><ele>20.0</ele><time>2026-04-26T07:21:47.535Z</time></trkpt><trkpt lat="43.95257" lon="12.7253"><ele>20.0</ele><time>2026-04-26T07:21:48.535Z</time></trkpt><trkpt lat="43.9524033" lon="12.7252317"><ele>19.333333333333336</ele><time>2026-04-26T07:21:49.534Z</time></trkpt><trkpt lat="43.9522417" lon="12.7251683"><ele>18.666666666666668</ele><time>2026-04-26T07:21:50.535Z</time></trkpt><trkpt lat="43.9520817" lon="12.725105"><ele>18.0</ele><time>2026-04-26T07:21:51.536Z</time></trkpt><trkpt lat="43.9519217" lon="12.7250417"><ele>18.0</ele><time>2026-04-26T07:21:52.535Z</time></trkpt><trkpt lat="43.9517583" lon="12.7249767"><ele>18.0</ele><time>2026-04-26T07:21:53.536Z</time></trkpt><trkpt lat="43.95159" lon="12.7249117"><ele>18.0</ele><time>2026-04-26T07:21:54.537Z</time></trkpt><trkpt lat="43.9514267" lon="12.724845"><ele>19.0</ele><time>2026-04-26T07:21:55.538Z</time></trkpt><trkpt lat="43.9512717" lon="12.7247783"><ele>20.0</ele><time>2026-04-26T07:21:56.538Z</time></trkpt><trkpt lat="43.951125" lon="12.7247217"><ele>21.0</ele><time>2026-04-26T07:21:57.536Z</time></trkpt><trkpt lat="43.9509883" lon="12.7246683"><ele>20.6</ele><time>2026-04-26T07:21:58.538Z</time></trkpt><trkpt lat="43.950865" lon="12.724615"><ele>20.200000000000003</ele><time>2026-04-26T07:21:59.537Z</time></trkpt><trkpt lat="43.950755" lon="12.7245633"><ele>19.799999999999997</ele><time>2026-04-26T07:22:00.537Z</time></trkpt><trkpt lat="43.9506667" lon="12.72451"><ele>19.4</ele><time>2026-04-26T07:22:01.538Z</time></trkpt><trkpt lat="43.9505967" lon="12.7244483"><ele>19.0</ele><time>2026-04-26T07:22:02.537Z</time></trkpt><trkpt lat="43.95054" lon="12.72437"><ele>18.833333333333332</ele><time>2026-04-26T07:22:03.537Z</time></trkpt><trkpt lat="43.9504883" lon="12.7242817"><ele>18.666666666666664</ele><time>2026-04-26T07:22:04.534Z</time></trkpt><trkpt lat="43.9504283" lon="12.7242"><ele>18.5</ele><time>2026-04-26T07:22:05.539Z</time></trkpt><trkpt lat="43.9503617" lon="12.7241417"><ele>18.333333333333332</ele><time>2026-04-26T07:22:06.538Z</time></trkpt><trkpt lat="43.9502767" lon="12.7241183"><ele>18.166666666666668</ele><time>2026-04-26T07:22:07.539Z</time></trkpt><trkpt lat="43.9501867" lon="12.7241033"><ele>18.0</ele><time>2026-04-26T07:22:08.538Z</time></trkpt><trkpt lat="43.95009" lon="12.724075"><ele>18.5</ele><time>2026-04-26T07:22:09.537Z</time></trkpt><trkpt lat="43.9499883" lon="12.724015"><ele>19.0</ele><time>2026-04-26T07:22:10.54Z</time></trkpt><trkpt lat="43.949885" lon="12.723925"><ele>19.5</ele><time>2026-04-26T07:22:11.538Z</time></trkpt><trkpt lat="43.9497867" lon="12.7238183"><ele>20.0</ele><time>2026-04-26T07:22:12.537Z</time></trkpt><trkpt lat="43.9496983" lon="12.7237067"><ele>20.0</ele><time>2026-04-26T07:22:13.538Z</time></trkpt><trkpt lat="43.9496067" lon="12.7235917"><ele>20.0</ele><time>2026-04-26T07:22:14.537Z</time></trkpt><trkpt lat="43.9495133" lon="12.723475"><ele>20.0</ele><time>2026-04-26T07:22:15.537Z</time></trkpt><trkpt lat="43.9494167" lon="12.7233583"><ele>20.0</ele><time>2026-04-26T07:22:16.534Z</time></trkpt><trkpt lat="43.94932" lon="12.7232367"><ele>20.0</ele><time>2026-04-26T07:22:17.534Z</time></trkpt><trkpt lat="43.9492183" lon="12.72311"><ele>20.0</ele><time>2026-04-26T07:22:18.534Z</time></trkpt><trkpt lat="43.9491133" lon="12.7229733"><ele>20.0</ele><time>2026-04-26T07:22:19.533Z</time></trkpt><trkpt lat="43.9490017" lon="12.722835"><ele>20.0</ele><time>2026-04-26T07:22:20.533Z</time></trkpt><trkpt lat="43.948885" lon="12.7226883"><ele>20.0</ele><time>2026-04-26T07:22:21.533Z</time></trkpt><trkpt lat="43.9487633" lon="12.7225367"><ele>20.0</ele><time>2026-04-26T07:22:22.534Z</time></trkpt><trkpt lat="43.9486383" lon="12.7223833"><ele>20.0</ele><time>2026-04-26T07:22:23.534Z</time></trkpt><trkpt lat="43.9485133" lon="12.7222317"><ele>20.0</ele><time>2026-04-26T07:22:24.536Z</time></trkpt><trkpt lat="43.9483967" lon="12.7220933"><ele>20.0</ele><time>2026-04-26T07:22:25.535Z</time></trkpt><trkpt lat="43.9482917" lon="12.7219683"><ele>20.0</ele><time>2026-04-26T07:22:26.624Z</time></trkpt><trkpt lat="43.948195" lon="12.721855"><ele>20.0</ele><time>2026-04-26T07:22:27.532Z</time></trkpt><trkpt lat="43.94811" lon="12.7217517"><ele>20.5</ele><time>2026-04-26T07:22:28.533Z</time></trkpt><trkpt lat="43.94804" lon="12.72166"><ele>21.0</ele><time>2026-04-26T07:22:29.532Z</time></trkpt><trkpt lat="43.9479817" lon="12.72157"><ele>21.5</ele><time>2026-04-26T07:22:30.533Z</time></trkpt><trkpt lat="43.9479433" lon="12.7214733"><ele>22.0</ele><time>2026-04-26T07:22:31.537Z</time></trkpt><trkpt lat="43.94791" lon="12.72138"><ele>22.5</ele><time>2026-04-26T07:22:32.536Z</time></trkpt><trkpt lat="43.9478717" lon="12.7212867"><ele>23.0</ele><time>2026-04-26T07:22:33.532Z</time></trkpt><trkpt lat="43.9478083" lon="12.7212067"><ele>23.0</ele><time>2026-04-26T07:22:34.537Z</time></trkpt><trkpt lat="43.9477117" lon="12.7211533"><ele>23.0</ele><time>2026-04-26T07:22:35.536Z</time></trkpt><trkpt lat="43.947595" lon="12.721095"><ele>23.0</ele><time>2026-04-26T07:22:36.533Z</time></trkpt><trkpt lat="43.9474667" lon="12.72101"><ele>23.0</ele><time>2026-04-26T07:22:37.537Z</time></trkpt><trkpt lat="43.9473517" lon="12.7209"><ele>23.25</ele><time>2026-04-26T07:22:38.536Z</time></trkpt><trkpt lat="43.947245" lon="12.7207933"><ele>23.5</ele><time>2026-04-26T07:22:39.536Z</time></trkpt><trkpt lat="43.947145" lon="12.7206867"><ele>23.75</ele><time>2026-04-26T07:22:40.537Z</time></trkpt><trkpt lat="43.947035" lon="12.72058"><ele>24.0</ele><time>2026-04-26T07:22:41.535Z</time></trkpt><trkpt lat="43.9469233" lon="12.72047"><ele>24.0</ele><time>2026-04-26T07:22:42.537Z</time></trkpt><trkpt lat="43.9468117" lon="12.7203583"><ele>24.0</ele><time>2026-04-26T07:22:43.534Z</time></trkpt><trkpt lat="43.9466983" lon="12.7202467"><ele>24.0</ele><time>2026-04-26T07:22:44.534Z</time></trkpt><trkpt lat="43.94658" lon="12.7201317"><ele>24.0</ele><time>2026-04-26T07:22:45.536Z</time></trkpt><trkpt lat="43.9464567" lon="12.7200083"><ele>24.0</ele><time>2026-04-26T07:22:46.532Z</time></trkpt><trkpt lat="43.9463233" lon="12.7198767"><ele>24.0</ele><time>2026-04-26T07:22:47.535Z</time></trkpt><trkpt lat="43.946175" lon="12.71973"><ele>24.0</ele><time>2026-04-26T07:22:48.533Z</time></trkpt><trkpt lat="43.94602" lon="12.71957"><ele>24.0</ele><time>2026-04-26T07:22:49.535Z</time></trkpt><trkpt lat="43.9458567" lon="12.7194033"><ele>24.0</ele><time>2026-04-26T07:22:50.534Z</time></trkpt><trkpt lat="43.9456867" lon="12.7192317"><ele>24.0</ele><time>2026-04-26T07:22:51.534Z</time></trkpt><trkpt lat="43.9455117" lon="12.7190633"><ele>24.333333333333336</ele><time>2026-04-26T07:22:52.536Z</time></trkpt><trkpt lat="43.945345" lon="12.7189033"><ele>24.666666666666668</ele><time>2026-04-26T07:22:53.534Z</time></trkpt><trkpt lat="43.9451867" lon="12.71875"><ele>25.0</ele><time>2026-04-26T07:22:54.534Z</time></trkpt><trkpt lat="43.9450333" lon="12.7185967"><ele>25.0</ele><time>2026-04-26T07:22:55.536Z</time></trkpt><trkpt lat="43.9448817" lon="12.7184367"><ele>25.0</ele><time>2026-04-26T07:22:56.537Z</time></trkpt><trkpt lat="43.9447383" lon="12.7182667"><ele>25.0</ele><time>2026-04-26T07:22:57.536Z</time></trkpt><trkpt lat="43.9446067" lon="12.7180867"><ele>25.0</ele><time>2026-04-26T07:22:58.537Z</time></trkpt><trkpt lat="43.944495" lon="12.7179067"><ele>25.0</ele><time>2026-04-26T07:22:59.536Z</time></trkpt><trkpt lat="43.944405" lon="12.71773"><ele>25.0</ele><time>2026-04-26T07:23:00.537Z</time></trkpt><trkpt lat="43.9443333" lon="12.71756"><ele>25.0</ele><time>2026-04-26T07:23:01.534Z</time></trkpt><trkpt lat="43.94426" lon="12.7174133"><ele>25.0</ele><time>2026-04-26T07:23:02.537Z</time></trkpt><trkpt lat="43.944165" lon="12.71731"><ele>25.0</ele><time>2026-04-26T07:23:03.537Z</time></trkpt><trkpt lat="43.9440483" lon="12.7172467"><ele>25.0</ele><time>2026-04-26T07:23:04.537Z</time></trkpt><trkpt lat="43.94392" lon="12.7172367"><ele>24.5</ele><time>2026-04-26T07:23:05.537Z</time></trkpt><trkpt lat="43.9437933" lon="12.7172883"><ele>24.0</ele><time>2026-04-26T07:23:06.537Z</time></trkpt><trkpt lat="43.943665" lon="12.7173783"><ele>23.5</ele><time>2026-04-26T07:23:07.536Z</time></trkpt><trkpt lat="43.9435267" lon="12.7174567"><ele>23.0</ele><time>2026-04-26T07:23:08.533Z</time></trkpt><trkpt lat="43.9433833" lon="12.71748"><ele>23.333333333333336</ele><time>2026-04-26T07:23:09.536Z</time></trkpt><trkpt lat="43.943235" lon="12.717445"><ele>23.666666666666668</ele><time>2026-04-26T07:23:10.534Z</time></trkpt><trkpt lat="43.9430833" lon="12.7173617"><ele>24.0</ele><time>2026-04-26T07:23:11.536Z</time></trkpt><trkpt lat="43.94293" lon="12.7172533"><ele>24.0</ele><time>2026-04-26T07:23:12.536Z</time></trkpt><trkpt lat="43.9427733" lon="12.7171333"><ele>24.0</ele><time>2026-04-26T07:23:13.536Z</time></trkpt><trkpt lat="43.942615" lon="12.717015"><ele>24.0</ele><time>2026-04-26T07:23:14.536Z</time></trkpt><trkpt lat="43.9424583" lon="12.7168967"><ele>25.0</ele><time>2026-04-26T07:23:15.537Z</time></trkpt><trkpt lat="43.9423033" lon="12.7167767"><ele>26.0</ele><time>2026-04-26T07:23:16.535Z</time></trkpt><trkpt lat="43.94214" lon="12.7166633"><ele>27.0</ele><time>2026-04-26T07:23:17.535Z</time></trkpt><trkpt lat="43.9419783" lon="12.7165417"><ele>27.0</ele><time>2026-04-26T07:23:18.533Z</time></trkpt><trkpt lat="43.9418233" lon="12.716425"><ele>27.0</ele><time>2026-04-26T07:23:19.536Z</time></trkpt><trkpt lat="43.9416783" lon="12.7163217"><ele>27.0</ele><time>2026-04-26T07:23:20.535Z</time></trkpt><trkpt lat="43.9415433" lon="12.7162217"><ele>27.0</ele><time>2026-04-26T07:23:21.533Z</time></trkpt><trkpt lat="43.9414167" lon="12.7161383"><ele>27.0</ele><time>2026-04-26T07:23:22.534Z</time></trkpt><trkpt lat="43.9412933" lon="12.7160533"><ele>27.0</ele><time>2026-04-26T07:23:23.533Z</time></trkpt><trkpt lat="43.94118" lon="12.7159767"><ele>27.0</ele><time>2026-04-26T07:23:24.534Z</time></trkpt><trkpt lat="43.941075" lon="12.7158967"><ele>27.0</ele><time>2026-04-26T07:23:25.534Z</time></trkpt><trkpt lat="43.940975" lon="12.7158183"><ele>27.0</ele><time>2026-04-26T07:23:26.537Z</time></trkpt><trkpt lat="43.9408733" lon="12.7157383"><ele>27.0</ele><time>2026-04-26T07:23:27.534Z</time></trkpt><trkpt lat="43.94076" lon="12.715655"><ele>27.0</ele><time>2026-04-26T07:23:28.533Z</time></trkpt><trkpt lat="43.9406417" lon="12.7155683"><ele>27.0</ele><time>2026-04-26T07:23:29.534Z</time></trkpt><trkpt lat="43.9405233" lon="12.7154617"><ele>27.0</ele><time>2026-04-26T07:23:30.533Z</time></trkpt><trkpt lat="43.9403967" lon="12.715335"><ele>27.0</ele><time>2026-04-26T07:23:31.539Z</time></trkpt><trkpt lat="43.9402683" lon="12.7152"><ele>27.333333333333336</ele><time>2026-04-26T07:23:32.54Z</time></trkpt><trkpt lat="43.9401383" lon="12.7150617"><ele>27.666666666666668</ele><time>2026-04-26T07:23:33.533Z</time></trkpt><trkpt lat="43.940015" lon="12.7149283"><ele>28.0</ele><time>2026-04-26T07:23:34.533Z</time></trkpt><trkpt lat="43.9399033" lon="12.714795"><ele>28.0</ele><time>2026-04-26T07:23:35.534Z</time></trkpt><trkpt lat="43.9398033" lon="12.71467"><ele>28.0</ele><time>2026-04-26T07:23:36.536Z</time></trkpt><trkpt lat="43.9397133" lon="12.7145467"><ele>28.0</ele><time>2026-04-26T07:23:37.538Z</time></trkpt><trkpt lat="43.9396317" lon="12.7144233"><ele>28.0</ele><time>2026-04-26T07:23:38.537Z</time></trkpt><trkpt lat="43.9395533" lon="12.7143117"><ele>28.2</ele><time>2026-04-26T07:23:39.536Z</time></trkpt><trkpt lat="43.939475" lon="12.71421"><ele>28.4</ele><time>2026-04-26T07:23:40.536Z</time></trkpt><trkpt lat="43.939405" lon="12.7141133"><ele>28.599999999999998</ele><time>2026-04-26T07:23:41.534Z</time></trkpt><trkpt lat="43.9393383" lon="12.714025"><ele>28.799999999999997</ele><time>2026-04-26T07:23:42.533Z</time></trkpt><trkpt lat="43.939275" lon="12.7139333"><ele>29.0</ele><time>2026-04-26T07:23:43.535Z</time></trkpt><trkpt lat="43.9392217" lon="12.7138583"><ele>29.0</ele><time>2026-04-26T07:23:44.536Z</time></trkpt><trkpt lat="43.9391367" lon="12.71375"><ele>29.0</ele><time>2026-04-26T07:23:46.536Z</time></trkpt><trkpt lat="43.9390583" lon="12.713665"><ele>29.0</ele><time>2026-04-26T07:23:48.536Z</time></trkpt><trkpt lat="43.9389817" lon="12.7135567"><ele>29.0</ele><time>2026-04-26T07:23:50.533Z</time></trkpt><trkpt lat="43.93892" lon="12.7134667"><ele>29.0</ele><time>2026-04-26T07:23:52.533Z</time></trkpt><trkpt lat="43.9388417" lon="12.7133483"><ele>28.999999999999996</ele><time>2026-04-26T07:23:54.532Z</time></trkpt><trkpt lat="43.9387833" lon="12.7132517"><ele>29.0</ele><time>2026-04-26T07:23:56.536Z</time></trkpt><trkpt lat="43.9387267" lon="12.71317"><ele>29.0</ele><time>2026-04-26T07:23:58.537Z</time></trkpt><trkpt lat="43.93867" lon="12.71309"><ele>29.0</ele><time>2026-04-26T07:24:00.533Z</time></trkpt><trkpt lat="43.938615" lon="12.7130217"><ele>28.999999999999996</ele><time>2026-04-26T07:24:02.532Z</time></trkpt><trkpt lat="43.9385433" lon="12.7130167"><ele>29.0</ele><time>2026-04-26T07:24:04.534Z</time></trkpt><trkpt lat="43.9384683" lon="12.7130717"><ele>29.000000000000004</ele><time>2026-04-26T07:24:06.533Z</time></trkpt><trkpt lat="43.9383917" lon="12.7131533"><ele>29.0</ele><time>2026-04-26T07:24:08.536Z</time></trkpt><trkpt lat="43.93833" lon="12.713205"><ele>29.000000000000004</ele><time>2026-04-26T07:24:09.533Z</time></trkpt><trkpt lat="43.93826" lon="12.7132567"><ele>29.000000000000004</ele><time>2026-04-26T07:24:10.535Z</time></trkpt><trkpt lat="43.9381983" lon="12.7132967"><ele>29.0</ele><time>2026-04-26T07:24:11.536Z</time></trkpt><trkpt lat="43.9381367" lon="12.7133233"><ele>29.000000000000004</ele><time>2026-04-26T07:24:12.535Z</time></trkpt><trkpt lat="43.93807" lon="12.7133267"><ele>29.000000000000004</ele><time>2026-04-26T07:24:13.535Z</time></trkpt><trkpt lat="43.9380067" lon="12.7133083"><ele>29.0</ele><time>2026-04-26T07:24:14.535Z</time></trkpt><trkpt lat="43.937895" lon="12.7132517"><ele>29.0</ele><time>2026-04-26T07:24:16.536Z</time></trkpt><trkpt lat="43.9378" lon="12.7132783"><ele>29.0</ele><time>2026-04-26T07:24:18.536Z</time></trkpt><trkpt lat="43.9377533" lon="12.713355"><ele>29.0</ele><time>2026-04-26T07:24:19.536Z</time></trkpt><trkpt lat="43.9376817" lon="12.7134683"><ele>29.0</ele><time>2026-04-26T07:24:20.536Z</time></trkpt><trkpt lat="43.9375983" lon="12.7135833"><ele>29.333333333333332</ele><time>2026-04-26T07:24:21.536Z</time></trkpt><trkpt lat="43.9374933" lon="12.7137317"><ele>29.666666666666664</ele><time>2026-04-26T07:24:22.537Z</time></trkpt><trkpt lat="43.93737" lon="12.71389"><ele>30.0</ele><time>2026-04-26T07:24:23.537Z</time></trkpt><trkpt lat="43.937235" lon="12.7140433"><ele>30.0</ele><time>2026-04-26T07:24:24.537Z</time></trkpt><trkpt lat="43.9370917" lon="12.714195"><ele>30.0</ele><time>2026-04-26T07:24:25.536Z</time></trkpt><trkpt lat="43.9369483" lon="12.7143583"><ele>30.0</ele><time>2026-04-26T07:24:26.538Z</time></trkpt><trkpt lat="43.9368117" lon="12.7145283"><ele>30.0</ele><time>2026-04-26T07:24:27.537Z</time></trkpt><trkpt lat="43.93668" lon="12.71469"><ele>30.0</ele><time>2026-04-26T07:24:28.536Z</time></trkpt><trkpt lat="43.936545" lon="12.7148533"><ele>30.0</ele><time>2026-04-26T07:24:29.537Z</time></trkpt><trkpt lat="43.9364033" lon="12.7150217"><ele>30.0</ele><time>2026-04-26T07:24:30.536Z</time></trkpt><trkpt lat="43.9362633" lon="12.7151967"><ele>30.0</ele><time>2026-04-26T07:24:31.533Z</time></trkpt><trkpt lat="43.93612" lon="12.715375"><ele>30.0</ele><time>2026-04-26T07:24:32.536Z</time></trkpt><trkpt lat="43.9359733" lon="12.71556"><ele>30.333333333333336</ele><time>2026-04-26T07:24:33.536Z</time></trkpt><trkpt lat="43.9358283" lon="12.7157483"><ele>30.666666666666668</ele><time>2026-04-26T07:24:34.536Z</time></trkpt><trkpt lat="43.9356867" lon="12.7159317"><ele>31.0</ele><time>2026-04-26T07:24:35.536Z</time></trkpt><trkpt lat="43.9355433" lon="12.7161183"><ele>31.0</ele><time>2026-04-26T07:24:36.536Z</time></trkpt><trkpt lat="43.9354017" lon="12.7163067"><ele>31.0</ele><time>2026-04-26T07:24:37.537Z</time></trkpt><trkpt lat="43.9352617" lon="12.7164967"><ele>31.0</ele><time>2026-04-26T07:24:38.533Z</time></trkpt><trkpt lat="43.9351183" lon="12.7166867"><ele>30.666666666666668</ele><time>2026-04-26T07:24:39.536Z</time></trkpt><trkpt lat="43.9349783" lon="12.7168817"><ele>30.333333333333336</ele><time>2026-04-26T07:24:40.533Z</time></trkpt><trkpt lat="43.93484" lon="12.7170833"><ele>30.0</ele><time>2026-04-26T07:24:41.533Z</time></trkpt><trkpt lat="43.9347033" lon="12.7172883"><ele>30.0</ele><time>2026-04-26T07:24:42.537Z</time></trkpt><trkpt lat="43.9345683" lon="12.7174983"><ele>30.0</ele><time>2026-04-26T07:24:43.536Z</time></trkpt><trkpt lat="43.9344367" lon="12.7177117"><ele>30.0</ele><time>2026-04-26T07:24:44.533Z</time></trkpt><trkpt lat="43.9343033" lon="12.717925"><ele>29.666666666666664</ele><time>2026-04-26T07:24:45.536Z</time></trkpt><trkpt lat="43.9341667" lon="12.71814"><ele>29.333333333333332</ele><time>2026-04-26T07:24:46.536Z</time></trkpt><trkpt lat="43.9340317" lon="12.7183533"><ele>29.0</ele><time>2026-04-26T07:24:47.536Z</time></trkpt><trkpt lat="43.9338983" lon="12.71856"><ele>28.666666666666664</ele><time>2026-04-26T07:24:48.536Z</time></trkpt><trkpt lat="43.9337667" lon="12.71877"><ele>28.333333333333336</ele><time>2026-04-26T07:24:49.536Z</time></trkpt><trkpt lat="43.9336367" lon="12.7189783"><ele>28.0</ele><time>2026-04-26T07:24:50.537Z</time></trkpt><trkpt lat="43.9335083" lon="12.71918"><ele>28.0</ele><time>2026-04-26T07:24:51.537Z</time></trkpt><trkpt lat="43.93338" lon="12.7193767"><ele>28.0</ele><time>2026-04-26T07:24:52.533Z</time></trkpt><trkpt lat="43.9332417" lon="12.719565"><ele>28.0</ele><time>2026-04-26T07:24:53.536Z</time></trkpt><trkpt lat="43.9330967" lon="12.7197317"><ele>28.0</ele><time>2026-04-26T07:24:54.537Z</time></trkpt><trkpt lat="43.9329433" lon="12.7198733"><ele>28.0</ele><time>2026-04-26T07:24:55.536Z</time></trkpt><trkpt lat="43.9327817" lon="12.7199967"><ele>28.0</ele><time>2026-04-26T07:24:56.537Z</time></trkpt><trkpt lat="43.9326167" lon="12.7201033"><ele>28.333333333333336</ele><time>2026-04-26T07:24:57.533Z</time></trkpt><trkpt lat="43.9324483" lon="12.7201933"><ele>28.666666666666664</ele><time>2026-04-26T07:24:58.536Z</time></trkpt><trkpt lat="43.9322717" lon="12.72027"><ele>29.0</ele><time>2026-04-26T07:24:59.536Z</time></trkpt><trkpt lat="43.932085" lon="12.7203367"><ele>28.0</ele><time>2026-04-26T07:25:00.536Z</time></trkpt><trkpt lat="43.9318883" lon="12.72039"><ele>27.0</ele><time>2026-04-26T07:25:01.533Z</time></trkpt><trkpt lat="43.9316833" lon="12.7204383"><ele>26.0</ele><time>2026-04-26T07:25:02.533Z</time></trkpt><trkpt lat="43.931475" lon="12.7204867"><ele>25.666666666666664</ele><time>2026-04-26T07:25:03.537Z</time></trkpt><trkpt lat="43.9312683" lon="12.7205383"><ele>25.333333333333336</ele><time>2026-04-26T07:25:04.536Z</time></trkpt><trkpt lat="43.931075" lon="12.72059"><ele>25.0</ele><time>2026-04-26T07:25:05.537Z</time></trkpt><trkpt lat="43.9308933" lon="12.7206383"><ele>26.0</ele><time>2026-04-26T07:25:06.536Z</time></trkpt><trkpt lat="43.930715" lon="12.7206883"><ele>27.0</ele><time>2026-04-26T07:25:07.538Z</time></trkpt><trkpt lat="43.9305383" lon="12.72074"><ele>28.0</ele><time>2026-04-26T07:25:08.536Z</time></trkpt><trkpt lat="43.93036" lon="12.72079"><ele>28.0</ele><time>2026-04-26T07:25:09.537Z</time></trkpt><trkpt lat="43.9301883" lon="12.7208317"><ele>28.0</ele><time>2026-04-26T07:25:10.533Z</time></trkpt><trkpt lat="43.9300133" lon="12.72087"><ele>28.0</ele><time>2026-04-26T07:25:11.532Z</time></trkpt><trkpt lat="43.9298333" lon="12.7209067"><ele>28.333333333333336</ele><time>2026-04-26T07:25:12.535Z</time></trkpt><trkpt lat="43.9296433" lon="12.72094"><ele>28.666666666666664</ele><time>2026-04-26T07:25:13.533Z</time></trkpt><trkpt lat="43.9294467" lon="12.7209683"><ele>29.0</ele><time>2026-04-26T07:25:14.533Z</time></trkpt><trkpt lat="43.9292533" lon="12.720995"><ele>29.333333333333332</ele><time>2026-04-26T07:25:15.534Z</time></trkpt><trkpt lat="43.9290667" lon="12.7210267"><ele>29.666666666666664</ele><time>2026-04-26T07:25:16.533Z</time></trkpt><trkpt lat="43.9288883" lon="12.7210667"><ele>30.0</ele><time>2026-04-26T07:25:17.532Z</time></trkpt><trkpt lat="43.9287233" lon="12.7211083"><ele>30.0</ele><time>2026-04-26T07:25:18.534Z</time></trkpt><trkpt lat="43.9285633" lon="12.721155"><ele>30.0</ele><time>2026-04-26T07:25:19.533Z</time></trkpt><trkpt lat="43.92841" lon="12.7212033"><ele>30.0</ele><time>2026-04-26T07:25:20.532Z</time></trkpt><trkpt lat="43.9282667" lon="12.7212567"><ele>30.0</ele><time>2026-04-26T07:25:21.533Z</time></trkpt><trkpt lat="43.92813" lon="12.7213117"><ele>30.0</ele><time>2026-04-26T07:25:22.534Z</time></trkpt><trkpt lat="43.927995" lon="12.7213717"><ele>30.0</ele><time>2026-04-26T07:25:23.536Z</time></trkpt><trkpt lat="43.9278683" lon="12.7214367"><ele>30.0</ele><time>2026-04-26T07:25:24.536Z</time></trkpt><trkpt lat="43.9277483" lon="12.7215"><ele>30.0</ele><time>2026-04-26T07:25:25.536Z</time></trkpt><trkpt lat="43.9276383" lon="12.7215567"><ele>30.0</ele><time>2026-04-26T07:25:26.534Z</time></trkpt><trkpt lat="43.9275433" lon="12.7216067"><ele>30.0</ele><time>2026-04-26T07:25:27.533Z</time></trkpt><trkpt lat="43.927455" lon="12.7216567"><ele>30.0</ele><time>2026-04-26T07:25:28.535Z</time></trkpt><trkpt lat="43.9273817" lon="12.721705"><ele>30.0</ele><time>2026-04-26T07:25:29.539Z</time></trkpt><trkpt lat="43.9273083" lon="12.72175"><ele>30.0</ele><time>2026-04-26T07:25:30.536Z</time></trkpt><trkpt lat="43.92722" lon="12.721795"><ele>30.0</ele><time>2026-04-26T07:25:31.536Z</time></trkpt><trkpt lat="43.9271217" lon="12.7218367"><ele>30.0</ele><time>2026-04-26T07:25:32.537Z</time></trkpt><trkpt lat="43.927015" lon="12.7218867"><ele>30.0</ele><time>2026-04-26T07:25:33.536Z</time></trkpt><trkpt lat="43.9269017" lon="12.72195"><ele>30.0</ele><time>2026-04-26T07:25:34.536Z</time></trkpt><trkpt lat="43.926785" lon="12.722015"><ele>29.5</ele><time>2026-04-26T07:25:35.533Z</time></trkpt><trkpt lat="43.9266617" lon="12.7220817"><ele>29.0</ele><time>2026-04-26T07:25:36.536Z</time></trkpt><trkpt lat="43.926535" lon="12.72215"><ele>28.5</ele><time>2026-04-26T07:25:37.534Z</time></trkpt><trkpt lat="43.926405" lon="12.722215"><ele>28.0</ele><time>2026-04-26T07:25:38.532Z</time></trkpt><trkpt lat="43.9262717" lon="12.7222867"><ele>28.0</ele><time>2026-04-26T07:25:39.536Z</time></trkpt><trkpt lat="43.9261333" lon="12.72236"><ele>28.0</ele><time>2026-04-26T07:25:40.533Z</time></trkpt><trkpt lat="43.9259967" lon="12.722435"><ele>28.0</ele><time>2026-04-26T07:25:41.539Z</time></trkpt><trkpt lat="43.92586" lon="12.7225083"><ele>28.0</ele><time>2026-04-26T07:25:42.533Z</time></trkpt><trkpt lat="43.92572" lon="12.7225817"><ele>28.0</ele><time>2026-04-26T07:25:43.536Z</time></trkpt><trkpt lat="43.9255817" lon="12.722655"><ele>28.0</ele><time>2026-04-26T07:25:44.537Z</time></trkpt><trkpt lat="43.9254433" lon="12.7227283"><ele>28.0</ele><time>2026-04-26T07:25:45.536Z</time></trkpt><trkpt lat="43.9253083" lon="12.7228017"><ele>28.0</ele><time>2026-04-26T07:25:46.536Z</time></trkpt><trkpt lat="43.9251717" lon="12.7228733"><ele>28.25</ele><time>2026-04-26T07:25:47.536Z</time></trkpt><trkpt lat="43.925035" lon="12.722945"><ele>28.5</ele><time>2026-04-26T07:25:48.537Z</time></trkpt><trkpt lat="43.9248983" lon="12.7230167"><ele>28.75</ele><time>2026-04-26T07:25:49.537Z</time></trkpt><trkpt lat="43.924755" lon="12.7230883"><ele>29.0</ele><time>2026-04-26T07:25:50.536Z</time></trkpt><trkpt lat="43.92461" lon="12.7231617"><ele>29.0</ele><time>2026-04-26T07:25:51.533Z</time></trkpt><trkpt lat="43.9244633" lon="12.7232333"><ele>29.0</ele><time>2026-04-26T07:25:52.537Z</time></trkpt><trkpt lat="43.9243183" lon="12.723305"><ele>29.0</ele><time>2026-04-26T07:25:53.537Z</time></trkpt><trkpt lat="43.9241733" lon="12.723375"><ele>29.75</ele><time>2026-04-26T07:25:54.537Z</time></trkpt><trkpt lat="43.9240367" lon="12.7234383"><ele>30.5</ele><time>2026-04-26T07:25:55.538Z</time></trkpt><trkpt lat="43.9239017" lon="12.7234967"><ele>31.25</ele><time>2026-04-26T07:25:56.536Z</time></trkpt><trkpt lat="43.923765" lon="12.7235583"><ele>32.0</ele><time>2026-04-26T07:25:57.536Z</time></trkpt><trkpt lat="43.9236283" lon="12.7236217"><ele>32.0</ele><time>2026-04-26T07:25:58.538Z</time></trkpt><trkpt lat="43.9234917" lon="12.7236833"><ele>32.0</ele><time>2026-04-26T07:25:59.533Z</time></trkpt><trkpt lat="43.9233533" lon="12.7237467"><ele>32.0</ele><time>2026-04-26T07:26:00.536Z</time></trkpt><trkpt lat="43.923215" lon="12.7238083"><ele>32.0</ele><time>2026-04-26T07:26:01.535Z</time></trkpt><trkpt lat="43.9230783" lon="12.72387"><ele>32.25</ele><time>2026-04-26T07:26:02.536Z</time></trkpt><trkpt lat="43.9229433" lon="12.7239233"><ele>32.5</ele><time>2026-04-26T07:26:03.536Z</time></trkpt><trkpt lat="43.9228083" lon="12.723955"><ele>32.75</ele><time>2026-04-26T07:26:04.536Z</time></trkpt><trkpt lat="43.92267" lon="12.7239517"><ele>33.0</ele><time>2026-04-26T07:26:05.536Z</time></trkpt><trkpt lat="43.922535" lon="12.72392"><ele>33.5</ele><time>2026-04-26T07:26:06.537Z</time></trkpt><trkpt lat="43.9223983" lon="12.7238767"><ele>34.0</ele><time>2026-04-26T07:26:07.537Z</time></trkpt><trkpt lat="43.9222567" lon="12.72382"><ele>34.5</ele><time>2026-04-26T07:26:08.536Z</time></trkpt><trkpt lat="43.9221117" lon="12.72374"><ele>35.0</ele><time>2026-04-26T07:26:09.538Z</time></trkpt><trkpt lat="43.92196" lon="12.7236633"><ele>35.0</ele><time>2026-04-26T07:26:10.537Z</time></trkpt><trkpt lat="43.92181" lon="12.7235883"><ele>35.0</ele><time>2026-04-26T07:26:11.536Z</time></trkpt><trkpt lat="43.9216617" lon="12.7235133"><ele>35.0</ele><time>2026-04-26T07:26:12.537Z</time></trkpt><trkpt lat="43.9215117" lon="12.7234283"><ele>37.0</ele><time>2026-04-26T07:26:13.536Z</time></trkpt><trkpt lat="43.9213683" lon="12.7233283"><ele>39.0</ele><time>2026-04-26T07:26:14.537Z</time></trkpt><trkpt lat="43.9212317" lon="12.7232133"><ele>41.0</ele><time>2026-04-26T07:26:15.537Z</time></trkpt><trkpt lat="43.9210983" lon="12.7230933"><ele>41.0</ele><time>2026-04-26T07:26:16.537Z</time></trkpt><trkpt lat="43.9209633" lon="12.722975"><ele>41.0</ele><time>2026-04-26T07:26:17.537Z</time></trkpt><trkpt lat="43.9208217" lon="12.7228783"><ele>41.0</ele><time>2026-04-26T07:26:18.536Z</time></trkpt><trkpt lat="43.92067" lon="12.722805"><ele>41.666666666666664</ele><time>2026-04-26T07:26:19.537Z</time></trkpt><trkpt lat="43.9205067" lon="12.72275"><ele>42.333333333333336</ele><time>2026-04-26T07:26:20.536Z</time></trkpt><trkpt lat="43.920335" lon="12.7227167"><ele>43.0</ele><time>2026-04-26T07:26:21.536Z</time></trkpt><trkpt lat="43.9201567" lon="12.7226967"><ele>47.333333333333336</ele><time>2026-04-26T07:26:22.536Z</time></trkpt><trkpt lat="43.9199833" lon="12.7226683"><ele>51.66666666666667</ele><time>2026-04-26T07:26:23.536Z</time></trkpt><trkpt lat="43.919825" lon="12.7226167"><ele>56.0</ele><time>2026-04-26T07:26:24.536Z</time></trkpt><trkpt lat="43.919675" lon="12.7225383"><ele>56.0</ele><time>2026-04-26T07:26:25.536Z</time></trkpt><trkpt lat="43.9195283" lon="12.72244"><ele>56.0</ele><time>2026-04-26T07:26:26.536Z</time></trkpt><trkpt lat="43.9193817" lon="12.7223317"><ele>56.0</ele><time>2026-04-26T07:26:27.536Z</time></trkpt><trkpt lat="43.919235" lon="12.7222217"><ele>57.333333333333336</ele><time>2026-04-26T07:26:28.537Z</time></trkpt><trkpt lat="43.91909" lon="12.7221167"><ele>58.66666666666667</ele><time>2026-04-26T07:26:29.536Z</time></trkpt><trkpt lat="43.91895" lon="12.7220117"><ele>60.0</ele><time>2026-04-26T07:26:30.538Z</time></trkpt><trkpt lat="43.9188133" lon="12.7219117"><ele>59.66666666666667</ele><time>2026-04-26T07:26:31.536Z</time></trkpt><trkpt lat="43.918675" lon="12.7218183"><ele>59.333333333333336</ele><time>2026-04-26T07:26:32.538Z</time></trkpt><trkpt lat="43.9185317" lon="12.7217317"><ele>59.0</ele><time>2026-04-26T07:26:33.537Z</time></trkpt><trkpt lat="43.9183867" lon="12.72165"><ele>61.66666666666667</ele><time>2026-04-26T07:26:34.538Z</time></trkpt><trkpt lat="43.918245" lon="12.7215617"><ele>64.33333333333333</ele><time>2026-04-26T07:26:35.536Z</time></trkpt><trkpt lat="43.918105" lon="12.7214817"><ele>67.0</ele><time>2026-04-26T07:26:36.536Z</time></trkpt><trkpt lat="43.9179683" lon="12.7214"><ele>67.0</ele><time>2026-04-26T07:26:37.536Z</time></trkpt><trkpt lat="43.91784" lon="12.721325"><ele>67.0</ele><time>2026-04-26T07:26:38.538Z</time></trkpt><trkpt lat="43.917715" lon="12.721245"><ele>67.0</ele><time>2026-04-26T07:26:39.536Z</time></trkpt><trkpt lat="43.9175833" lon="12.7211517"><ele>67.0</ele><time>2026-04-26T07:26:40.538Z</time></trkpt><trkpt lat="43.9174467" lon="12.721055"><ele>70.33333333333333</ele><time>2026-04-26T07:26:41.536Z</time></trkpt><trkpt lat="43.9173133" lon="12.7209433"><ele>73.66666666666667</ele><time>2026-04-26T07:26:42.537Z</time></trkpt><trkpt lat="43.9171833" lon="12.720825"><ele>77.0</ele><time>2026-04-26T07:26:43.536Z</time></trkpt><trkpt lat="43.9170583" lon="12.7207067"><ele>77.0</ele><time>2026-04-26T07:26:44.537Z</time></trkpt><trkpt lat="43.916935" lon="12.7205933"><ele>77.0</ele><time>2026-04-26T07:26:45.539Z</time></trkpt><trkpt lat="43.9168167" lon="12.72048"><ele>77.0</ele><time>2026-04-26T07:26:46.537Z</time></trkpt><trkpt lat="43.916705" lon="12.72037"><ele>77.0</ele><time>2026-04-26T07:26:47.538Z</time></trkpt><trkpt lat="43.9166033" lon="12.720265"><ele>79.5</ele><time>2026-04-26T07:26:48.536Z</time></trkpt><trkpt lat="43.9165017" lon="12.7201583"><ele>82.0</ele><time>2026-04-26T07:26:49.537Z</time></trkpt><trkpt lat="43.9163983" lon="12.7200417"><ele>84.5</ele><time>2026-04-26T07:26:50.536Z</time></trkpt><trkpt lat="43.9163033" lon="12.7199067"><ele>87.0</ele><time>2026-04-26T07:26:51.537Z</time></trkpt><trkpt lat="43.9162217" lon="12.71976"><ele>87.0</ele><time>2026-04-26T07:26:52.538Z</time></trkpt><trkpt lat="43.9161367" lon="12.7196033"><ele>87.0</ele><time>2026-04-26T07:26:53.537Z</time></trkpt><trkpt lat="43.9160483" lon="12.7194367"><ele>87.0</ele><time>2026-04-26T07:26:54.536Z</time></trkpt><trkpt lat="43.9159567" lon="12.7192633"><ele>87.0</ele><time>2026-04-26T07:26:55.537Z</time></trkpt><trkpt lat="43.91587" lon="12.7190917"><ele>87.0</ele><time>2026-04-26T07:26:56.536Z</time></trkpt><trkpt lat="43.9157833" lon="12.7189233"><ele>87.0</ele><time>2026-04-26T07:26:57.537Z</time></trkpt><trkpt lat="43.915695" lon="12.7187567"><ele>87.0</ele><time>2026-04-26T07:26:58.537Z</time></trkpt><trkpt lat="43.91561" lon="12.7185933"><ele>87.0</ele><time>2026-04-26T07:26:59.537Z</time></trkpt><trkpt lat="43.915525" lon="12.7184283"><ele>86.5</ele><time>2026-04-26T07:27:00.537Z</time></trkpt><trkpt lat="43.9154383" lon="12.7182633"><ele>86.0</ele><time>2026-04-26T07:27:01.538Z</time></trkpt><trkpt lat="43.91535" lon="12.718095"><ele>85.5</ele><time>2026-04-26T07:27:02.537Z</time></trkpt><trkpt lat="43.91526" lon="12.7179267"><ele>85.0</ele><time>2026-04-26T07:27:03.536Z</time></trkpt><trkpt lat="43.9151683" lon="12.7177533"><ele>85.66666666666666</ele><time>2026-04-26T07:27:04.538Z</time></trkpt><trkpt lat="43.915075" lon="12.7175783"><ele>86.33333333333333</ele><time>2026-04-26T07:27:05.536Z</time></trkpt><trkpt lat="43.9149767" lon="12.7174033"><ele>87.0</ele><time>2026-04-26T07:27:06.538Z</time></trkpt><trkpt lat="43.914875" lon="12.717235"><ele>87.0</ele><time>2026-04-26T07:27:07.536Z</time></trkpt><trkpt lat="43.91476" lon="12.717075"><ele>87.0</ele><time>2026-04-26T07:27:08.536Z</time></trkpt><trkpt lat="43.9146383" lon="12.7169217"><ele>87.0</ele><time>2026-04-26T07:27:09.535Z</time></trkpt><trkpt lat="43.9145183" lon="12.7167683"><ele>87.0</ele><time>2026-04-26T07:27:10.538Z</time></trkpt><trkpt lat="43.9144033" lon="12.71662"><ele>87.0</ele><time>2026-04-26T07:27:11.536Z</time></trkpt><trkpt lat="43.9142967" lon="12.71648"><ele>87.0</ele><time>2026-04-26T07:27:12.536Z</time></trkpt><trkpt lat="43.9141983" lon="12.7163517"><ele>87.0</ele><time>2026-04-26T07:27:13.539Z</time></trkpt><trkpt lat="43.9141083" lon="12.7162367"><ele>87.39999999999999</ele><time>2026-04-26T07:27:14.536Z</time></trkpt><trkpt lat="43.9140267" lon="12.7161317"><ele>87.8</ele><time>2026-04-26T07:27:15.537Z</time></trkpt><trkpt lat="43.9139517" lon="12.7160333"><ele>88.2</ele><time>2026-04-26T07:27:16.536Z</time></trkpt><trkpt lat="43.9138833" lon="12.7159417"><ele>88.6</ele><time>2026-04-26T07:27:17.533Z</time></trkpt><trkpt lat="43.9138133" lon="12.7158533"><ele>89.0</ele><time>2026-04-26T07:27:18.534Z</time></trkpt><trkpt lat="43.91374" lon="12.7157633"><ele>89.0</ele><time>2026-04-26T07:27:19.535Z</time></trkpt><trkpt lat="43.9136567" lon="12.715675"><ele>89.0</ele><time>2026-04-26T07:27:20.534Z</time></trkpt><trkpt lat="43.91357" lon="12.715585"><ele>89.0</ele><time>2026-04-26T07:27:21.533Z</time></trkpt><trkpt lat="43.91348" lon="12.71549"><ele>89.0</ele><time>2026-04-26T07:27:22.533Z</time></trkpt><trkpt lat="43.9133883" lon="12.715395"><ele>89.0</ele><time>2026-04-26T07:27:23.533Z</time></trkpt><trkpt lat="43.9132967" lon="12.7152967"><ele>91.5</ele><time>2026-04-26T07:27:24.533Z</time></trkpt><trkpt lat="43.9132" lon="12.7151983"><ele>94.0</ele><time>2026-04-26T07:27:25.533Z</time></trkpt><trkpt lat="43.9131017" lon="12.7150983"><ele>96.5</ele><time>2026-04-26T07:27:26.534Z</time></trkpt><trkpt lat="43.912995" lon="12.714995"><ele>99.0</ele><time>2026-04-26T07:27:27.533Z</time></trkpt><trkpt lat="43.9128867" lon="12.7148867"><ele>99.0</ele><time>2026-04-26T07:27:28.537Z</time></trkpt><trkpt lat="43.9127817" lon="12.7147783"><ele>99.0</ele><time>2026-04-26T07:27:29.536Z</time></trkpt><trkpt lat="43.912685" lon="12.714675"><ele>99.0</ele><time>2026-04-26T07:27:30.537Z</time></trkpt><trkpt lat="43.9126033" lon="12.71459"><ele>99.0</ele><time>2026-04-26T07:27:31.536Z</time></trkpt><trkpt lat="43.9125333" lon="12.7145133"><ele>99.0</ele><time>2026-04-26T07:27:32.537Z</time></trkpt><trkpt lat="43.91247" lon="12.714455"><ele>100.4</ele><time>2026-04-26T07:27:33.534Z</time></trkpt><trkpt lat="43.9124133" lon="12.7144167"><ele>101.80000000000001</ele><time>2026-04-26T07:27:34.534Z</time></trkpt><trkpt lat="43.9123233" lon="12.7144017"><ele>103.19999999999999</ele><time>2026-04-26T07:27:36.534Z</time></trkpt><trkpt lat="43.912255" lon="12.7145283"><ele>104.6</ele><time>2026-04-26T07:27:38.536Z</time></trkpt><trkpt lat="43.912195" lon="12.71462"><ele>106.0</ele><time>2026-04-26T07:27:39.537Z</time></trkpt><trkpt lat="43.9121217" lon="12.7147233"><ele>106.4</ele><time>2026-04-26T07:27:40.538Z</time></trkpt><trkpt lat="43.9120467" lon="12.7148183"><ele>106.8</ele><time>2026-04-26T07:27:41.536Z</time></trkpt><trkpt lat="43.91197" lon="12.71492"><ele>107.20000000000002</ele><time>2026-04-26T07:27:42.537Z</time></trkpt><trkpt lat="43.91189" lon="12.7150317"><ele>107.60000000000001</ele><time>2026-04-26T07:27:43.536Z</time></trkpt><trkpt lat="43.911805" lon="12.7151483"><ele>108.0</ele><time>2026-04-26T07:27:44.537Z</time></trkpt><trkpt lat="43.9117167" lon="12.7152633"><ele>108.0</ele><time>2026-04-26T07:27:45.536Z</time></trkpt><trkpt lat="43.91163" lon="12.71538"><ele>108.0</ele><time>2026-04-26T07:27:46.537Z</time></trkpt><trkpt lat="43.9115433" lon="12.7154933"><ele>108.0</ele><time>2026-04-26T07:27:47.532Z</time></trkpt><trkpt lat="43.911455" lon="12.7156117"><ele>108.0</ele><time>2026-04-26T07:27:48.535Z</time></trkpt><trkpt lat="43.911365" lon="12.715735"><ele>108.0</ele><time>2026-04-26T07:27:49.535Z</time></trkpt><trkpt lat="43.9112733" lon="12.71586"><ele>108.0</ele><time>2026-04-26T07:27:50.535Z</time></trkpt><trkpt lat="43.9111783" lon="12.71599"><ele>108.0</ele><time>2026-04-26T07:27:51.534Z</time></trkpt><trkpt lat="43.9110833" lon="12.71612"><ele>108.0</ele><time>2026-04-26T07:27:52.535Z</time></trkpt><trkpt lat="43.9109867" lon="12.7162533"><ele>107.5</ele><time>2026-04-26T07:27:53.535Z</time></trkpt><trkpt lat="43.9108883" lon="12.7163883"><ele>107.0</ele><time>2026-04-26T07:27:54.536Z</time></trkpt><trkpt lat="43.9107917" lon="12.7165233"><ele>106.5</ele><time>2026-04-26T07:27:55.535Z</time></trkpt><trkpt lat="43.910695" lon="12.71665"><ele>106.0</ele><time>2026-04-26T07:27:56.536Z</time></trkpt><trkpt lat="43.9106033" lon="12.7167733"><ele>106.0</ele><time>2026-04-26T07:27:57.535Z</time></trkpt><trkpt lat="43.9105117" lon="12.7168983"><ele>106.0</ele><time>2026-04-26T07:27:58.537Z</time></trkpt><trkpt lat="43.9104167" lon="12.71703"><ele>106.0</ele><time>2026-04-26T07:27:59.537Z</time></trkpt><trkpt lat="43.9103183" lon="12.7171617"><ele>106.0</ele><time>2026-04-26T07:28:00.535Z</time></trkpt><trkpt lat="43.9102183" lon="12.717295"><ele>104.5</ele><time>2026-04-26T07:28:01.537Z</time></trkpt><trkpt lat="43.9101167" lon="12.7174333"><ele>103.0</ele><time>2026-04-26T07:28:02.533Z</time></trkpt><trkpt lat="43.9100183" lon="12.71757"><ele>101.5</ele><time>2026-04-26T07:28:03.537Z</time></trkpt><trkpt lat="43.909925" lon="12.7177"><ele>100.0</ele><time>2026-04-26T07:28:04.536Z</time></trkpt><trkpt lat="43.9098383" lon="12.717825"><ele>99.25</ele><time>2026-04-26T07:28:05.537Z</time></trkpt><trkpt lat="43.9097467" lon="12.7179483"><ele>98.5</ele><time>2026-04-26T07:28:06.538Z</time></trkpt><trkpt lat="43.9096533" lon="12.71807"><ele>97.75</ele><time>2026-04-26T07:28:07.534Z</time></trkpt><trkpt lat="43.90956" lon="12.71819"><ele>97.0</ele><time>2026-04-26T07:28:08.533Z</time></trkpt><trkpt lat="43.9094667" lon="12.7183133"><ele>97.0</ele><time>2026-04-26T07:28:09.537Z</time></trkpt><trkpt lat="43.9093733" lon="12.718445"><ele>97.0</ele><time>2026-04-26T07:28:10.538Z</time></trkpt><trkpt lat="43.9092783" lon="12.718575"><ele>97.0</ele><time>2026-04-26T07:28:11.532Z</time></trkpt><trkpt lat="43.909185" lon="12.7186967"><ele>97.0</ele><time>2026-04-26T07:28:12.537Z</time></trkpt><trkpt lat="43.909095" lon="12.7188233"><ele>97.25</ele><time>2026-04-26T07:28:13.538Z</time></trkpt><trkpt lat="43.9090017" lon="12.7189517"><ele>97.5</ele><time>2026-04-26T07:28:14.536Z</time></trkpt><trkpt lat="43.908905" lon="12.7190833"><ele>97.75</ele><time>2026-04-26T07:28:15.537Z</time></trkpt><trkpt lat="43.9088083" lon="12.719215"><ele>98.0</ele><time>2026-04-26T07:28:16.536Z</time></trkpt><trkpt lat="43.9087083" lon="12.7193517"><ele>98.5</ele><time>2026-04-26T07:28:17.533Z</time></trkpt><trkpt lat="43.9086083" lon="12.7194917"><ele>99.0</ele><time>2026-04-26T07:28:18.533Z</time></trkpt><trkpt lat="43.90851" lon="12.7196283"><ele>99.5</ele><time>2026-04-26T07:28:19.535Z</time></trkpt><trkpt lat="43.90842" lon="12.7197533"><ele>100.0</ele><time>2026-04-26T07:28:20.533Z</time></trkpt><trkpt lat="43.9083383" lon="12.719865"><ele>100.00000000000001</ele><time>2026-04-26T07:28:21.533Z</time></trkpt><trkpt lat="43.908265" lon="12.7199683"><ele>100.0</ele><time>2026-04-26T07:28:22.534Z</time></trkpt><trkpt lat="43.9081983" lon="12.7200617"><ele>100.0</ele><time>2026-04-26T07:28:23.534Z</time></trkpt><trkpt lat="43.9081433" lon="12.7201417"><ele>100.0</ele><time>2026-04-26T07:28:24.534Z</time></trkpt><trkpt lat="43.9080983" lon="12.720205"><ele>100.00000000000001</ele><time>2026-04-26T07:28:25.536Z</time></trkpt><trkpt lat="43.9080233" lon="12.7202667"><ele>100.0</ele><time>2026-04-26T07:28:27.535Z</time></trkpt><trkpt lat="43.9079383" lon="12.7202617"><ele>100.0</ele><time>2026-04-26T07:28:29.536Z</time></trkpt><trkpt lat="43.907865" lon="12.7202033"><ele>100.0</ele><time>2026-04-26T07:30:52.537Z</time></trkpt><trkpt lat="43.9077367" lon="12.72015"><ele>100.0</ele><time>2026-04-26T07:30:54.537Z</time></trkpt><trkpt lat="43.9076433" lon="12.7201117"><ele>100.0</ele><time>2026-04-26T07:30:55.54Z</time></trkpt><trkpt lat="43.9075317" lon="12.7200667"><ele>100.0</ele><time>2026-04-26T07:30:56.536Z</time></trkpt><trkpt lat="43.907405" lon="12.7200067"><ele>100.25</ele><time>2026-04-26T07:30:57.536Z</time></trkpt><trkpt lat="43.9072683" lon="12.7199417"><ele>100.5</ele><time>2026-04-26T07:30:58.534Z</time></trkpt><trkpt lat="43.90713" lon="12.7198717"><ele>100.75</ele><time>2026-04-26T07:30:59.542Z</time></trkpt><trkpt lat="43.9069933" lon="12.7198017"><ele>101.0</ele><time>2026-04-26T07:31:00.537Z</time></trkpt><trkpt lat="43.906865" lon="12.7197333"><ele>99.25</ele><time>2026-04-26T07:31:01.535Z</time></trkpt><trkpt lat="43.90674" lon="12.7196683"><ele>97.5</ele><time>2026-04-26T07:31:02.538Z</time></trkpt><trkpt lat="43.9066217" lon="12.7196067"><ele>95.75</ele><time>2026-04-26T07:31:03.534Z</time></trkpt><trkpt lat="43.90651" lon="12.7195467"><ele>94.0</ele><time>2026-04-26T07:31:04.537Z</time></trkpt><trkpt lat="43.9063933" lon="12.71949"><ele>94.0</ele><time>2026-04-26T07:31:05.533Z</time></trkpt><trkpt lat="43.9062783" lon="12.719435"><ele>94.0</ele><time>2026-04-26T07:31:06.535Z</time></trkpt><trkpt lat="43.9061667" lon="12.71938"><ele>94.0</ele><time>2026-04-26T07:31:07.535Z</time></trkpt><trkpt lat="43.906045" lon="12.719325"><ele>94.0</ele><time>2026-04-26T07:31:08.536Z</time></trkpt><trkpt lat="43.905925" lon="12.719265"><ele>92.6</ele><time>2026-04-26T07:31:09.537Z</time></trkpt><trkpt lat="43.90581" lon="12.719205"><ele>91.2</ele><time>2026-04-26T07:31:10.534Z</time></trkpt><trkpt lat="43.9057" lon="12.71915"><ele>89.8</ele><time>2026-04-26T07:31:11.538Z</time></trkpt><trkpt lat="43.9056" lon="12.719095"><ele>88.39999999999999</ele><time>2026-04-26T07:31:12.537Z</time></trkpt><trkpt lat="43.9055067" lon="12.7190533"><ele>87.0</ele><time>2026-04-26T07:31:13.537Z</time></trkpt><trkpt lat="43.9054233" lon="12.719025"><ele>87.0</ele><time>2026-04-26T07:31:14.538Z</time></trkpt><trkpt lat="43.9053333" lon="12.7190083"><ele>87.0</ele><time>2026-04-26T07:31:15.536Z</time></trkpt><trkpt lat="43.9052317" lon="12.7189917"><ele>87.0</ele><time>2026-04-26T07:31:16.538Z</time></trkpt><trkpt lat="43.9051233" lon="12.7189617"><ele>87.0</ele><time>2026-04-26T07:31:17.538Z</time></trkpt><trkpt lat="43.9050167" lon="12.7189283"><ele>87.0</ele><time>2026-04-26T07:31:18.538Z</time></trkpt><trkpt lat="43.90491" lon="12.7188917"><ele>86.0</ele><time>2026-04-26T07:31:19.538Z</time></trkpt><trkpt lat="43.904805" lon="12.71886"><ele>85.0</ele><time>2026-04-26T07:31:20.538Z</time></trkpt><trkpt lat="43.9047" lon="12.7188317"><ele>84.0</ele><time>2026-04-26T07:31:21.536Z</time></trkpt><trkpt lat="43.9045967" lon="12.7187967"><ele>83.0</ele><time>2026-04-26T07:31:22.535Z</time></trkpt><trkpt lat="43.9045033" lon="12.7187567"><ele>82.0</ele><time>2026-04-26T07:31:23.536Z</time></trkpt><trkpt lat="43.9044267" lon="12.7187217"><ele>81.99999999999999</ele><time>2026-04-26T07:31:24.536Z</time></trkpt><trkpt lat="43.9043567" lon="12.7186783"><ele>82.0</ele><time>2026-04-26T07:31:25.536Z</time></trkpt><trkpt lat="43.904285" lon="12.7186317"><ele>82.0</ele><time>2026-04-26T07:31:26.536Z</time></trkpt><trkpt lat="43.9042117" lon="12.71858"><ele>82.0</ele><time>2026-04-26T07:31:27.533Z</time></trkpt><trkpt lat="43.9041417" lon="12.7185367"><ele>82.0</ele><time>2026-04-26T07:31:28.534Z</time></trkpt><trkpt lat="43.9040833" lon="12.7184933"><ele>81.99999999999999</ele><time>2026-04-26T07:31:29.532Z</time></trkpt><trkpt lat="43.904025" lon="12.7184533"><ele>82.0</ele><time>2026-04-26T07:31:30.535Z</time></trkpt><trkpt lat="43.9039233" lon="12.7183583"><ele>78.8</ele><time>2026-04-26T07:31:32.537Z</time></trkpt><trkpt lat="43.9038483" lon="12.7182583"><ele>75.6</ele><time>2026-04-26T07:31:34.535Z</time></trkpt><trkpt lat="43.9037833" lon="12.71814"><ele>72.39999999999999</ele><time>2026-04-26T07:31:36.535Z</time></trkpt><trkpt lat="43.9037233" lon="12.7180017"><ele>69.19999999999999</ele><time>2026-04-26T07:31:38.532Z</time></trkpt><trkpt lat="43.903675" lon="12.717865"><ele>66.0</ele><time>2026-04-26T07:31:40.537Z</time></trkpt><trkpt lat="43.9036217" lon="12.7177333"><ele>63.833333333333336</ele><time>2026-04-26T07:31:42.536Z</time></trkpt><trkpt lat="43.9035583" lon="12.7175983"><ele>61.66666666666667</ele><time>2026-04-26T07:31:44.536Z</time></trkpt><trkpt lat="43.9035133" lon="12.7175333"><ele>59.5</ele><time>2026-04-26T07:31:45.533Z</time></trkpt><trkpt lat="43.90346" lon="12.71747"><ele>57.333333333333336</ele><time>2026-04-26T07:31:46.533Z</time></trkpt><trkpt lat="43.903405" lon="12.7174233"><ele>55.16666666666667</ele><time>2026-04-26T07:31:47.533Z</time></trkpt><trkpt lat="43.9033083" lon="12.7173883"><ele>53.0</ele><time>2026-04-26T07:31:49.537Z</time></trkpt><trkpt lat="43.9032333" lon="12.7173717"><ele>51.833333333333336</ele><time>2026-04-26T07:31:51.533Z</time></trkpt><trkpt lat="43.9031517" lon="12.717335"><ele>50.66666666666667</ele><time>2026-04-26T07:31:54.536Z</time></trkpt><trkpt lat="43.9030433" lon="12.7173067"><ele>49.5</ele><time>2026-04-26T07:33:17.536Z</time></trkpt><trkpt lat="43.9029767" lon="12.7172717"><ele>48.333333333333336</ele><time>2026-04-26T07:33:44.536Z</time></trkpt><trkpt lat="43.90292" lon="12.7172067"><ele>47.16666666666667</ele><time>2026-04-26T07:33:47.536Z</time></trkpt><trkpt lat="43.9028583" lon="12.717135"><ele>46.0</ele><time>2026-04-26T07:33:50.535Z</time></trkpt><trkpt lat="43.9028033" lon="12.7170767"><ele>46.0</ele><time>2026-04-26T07:33:52.536Z</time></trkpt><trkpt lat="43.90275" lon="12.71703"><ele>46.0</ele><time>2026-04-26T07:33:54.536Z</time></trkpt><trkpt lat="43.902675" lon="12.71699"><ele>46.0</ele><time>2026-04-26T07:33:58.536Z</time></trkpt><trkpt lat="43.9026033" lon="12.7169517"><ele>46.0</ele><time>2026-04-26T07:34:01.537Z</time></trkpt><trkpt lat="43.9025333" lon="12.7169283"><ele>46.0</ele><time>2026-04-26T07:34:06.536Z</time></trkpt><trkpt lat="43.90245" lon="12.7169"><ele>46.0</ele><time>2026-04-26T07:34:11.537Z</time></trkpt><trkpt lat="43.90237" lon="12.7168967"><ele>45.714285714285715</ele><time>2026-04-26T07:34:15.536Z</time></trkpt><trkpt lat="43.9022983" lon="12.716905"><ele>45.42857142857142</ele><time>2026-04-26T07:34:18.536Z</time></trkpt><trkpt lat="43.9022317" lon="12.71691"><ele>45.14285714285714</ele><time>2026-04-26T07:34:29.533Z</time></trkpt><trkpt lat="43.90216" lon="12.7168833"><ele>44.85714285714286</ele><time>2026-04-26T07:34:33.536Z</time></trkpt><trkpt lat="43.9021017" lon="12.716795"><ele>44.57142857142857</ele><time>2026-04-26T07:34:36.536Z</time></trkpt><trkpt lat="43.9020583" lon="12.7167133"><ele>44.285714285714285</ele><time>2026-04-26T07:34:38.536Z</time></trkpt><trkpt lat="43.9020183" lon="12.7166383"><ele>44.0</ele><time>2026-04-26T07:34:40.536Z</time></trkpt><trkpt lat="43.90197" lon="12.7165567"><ele>44.0</ele><time>2026-04-26T07:34:42.536Z</time></trkpt><trkpt lat="43.90193" lon="12.716465"><ele>44.0</ele><time>2026-04-26T07:34:45.536Z</time></trkpt><trkpt lat="43.9018783" lon="12.7163867"><ele>44.0</ele><time>2026-04-26T08:02:41.538Z</time></trkpt><trkpt lat="43.9018267" lon="12.71629"><ele>44.0</ele><time>2026-04-26T08:02:43.538Z</time></trkpt><trkpt lat="43.901765" lon="12.7161833"><ele>44.0</ele><time>2026-04-26T08:02:45.539Z</time></trkpt><trkpt lat="43.9016967" lon="12.7160867"><ele>44.0</ele><time>2026-04-26T08:02:47.538Z</time></trkpt><trkpt lat="43.9016233" lon="12.7160617"><ele>45.166666666666664</ele><time>2026-04-26T08:02:50.537Z</time></trkpt><trkpt lat="43.90156" lon="12.7160417"><ele>46.33333333333333</ele><time>2026-04-26T08:02:52.537Z</time></trkpt><trkpt lat="43.9014917" lon="12.7160183"><ele>47.5</ele><time>2026-04-26T08:02:54.537Z</time></trkpt><trkpt lat="43.9014217" lon="12.7160033"><ele>48.666666666666664</ele><time>2026-04-26T08:02:56.537Z</time></trkpt><trkpt lat="43.90133" lon="12.7159783"><ele>49.833333333333336</ele><time>2026-04-26T08:02:59.538Z</time></trkpt><trkpt lat="43.9012417" lon="12.7159467"><ele>51.0</ele><time>2026-04-26T08:03:01.538Z</time></trkpt><trkpt lat="43.901145" lon="12.7159017"><ele>51.0</ele><time>2026-04-26T08:03:03.538Z</time></trkpt><trkpt lat="43.9010717" lon="12.7158633"><ele>51.0</ele><time>2026-04-26T08:03:05.538Z</time></trkpt><trkpt lat="43.9009833" lon="12.7158183"><ele>51.0</ele><time>2026-04-26T08:03:07.537Z</time></trkpt><trkpt lat="43.900895" lon="12.715755"><ele>51.0</ele><time>2026-04-26T08:03:09.538Z</time></trkpt><trkpt lat="43.9008017" lon="12.7157033"><ele>51.0</ele><time>2026-04-26T08:03:11.538Z</time></trkpt><trkpt lat="43.9007017" lon="12.715655"><ele>52.166666666666664</ele><time>2026-04-26T08:03:13.538Z</time></trkpt><trkpt lat="43.900605" lon="12.7156067"><ele>53.33333333333333</ele><time>2026-04-26T08:03:15.538Z</time></trkpt><trkpt lat="43.900515" lon="12.7155533"><ele>54.5</ele><time>2026-04-26T08:03:17.536Z</time></trkpt><trkpt lat="43.9004633" lon="12.7155"><ele>55.666666666666664</ele><time>2026-04-26T08:03:19.537Z</time></trkpt><trkpt lat="43.90042" lon="12.7154317"><ele>56.83333333333333</ele><time>2026-04-26T08:04:47.537Z</time></trkpt><trkpt lat="43.900365" lon="12.7153833"><ele>58.0</ele><time>2026-04-26T08:04:51.537Z</time></trkpt><trkpt lat="43.9002883" lon="12.715305"><ele>57.99999999999999</ele><time>2026-04-26T08:04:55.537Z</time></trkpt><trkpt lat="43.900225" lon="12.7152383"><ele>58.0</ele><time>2026-04-26T08:04:57.538Z</time></trkpt><trkpt lat="43.90016" lon="12.715155"><ele>58.0</ele><time>2026-04-26T08:04:59.537Z</time></trkpt><trkpt lat="43.9000967" lon="12.715055"><ele>58.0</ele><time>2026-04-26T08:05:01.539Z</time></trkpt><trkpt lat="43.9000383" lon="12.71499"><ele>57.99999999999999</ele><time>2026-04-26T08:05:04.538Z</time></trkpt><trkpt lat="43.8999683" lon="12.714925"><ele>58.0</ele><time>2026-04-26T08:05:52.535Z</time></trkpt><trkpt lat="43.8999167" lon="12.7148517"><ele>60.4</ele><time>2026-04-26T08:05:54.537Z</time></trkpt><trkpt lat="43.89986" lon="12.714755"><ele>62.8</ele><time>2026-04-26T08:05:56.538Z</time></trkpt><trkpt lat="43.8998083" lon="12.7146483"><ele>65.2</ele><time>2026-04-26T08:05:58.537Z</time></trkpt><trkpt lat="43.8997783" lon="12.71453"><ele>67.6</ele><time>2026-04-26T08:06:00.537Z</time></trkpt><trkpt lat="43.8997633" lon="12.7144033"><ele>70.0</ele><time>2026-04-26T08:06:02.538Z</time></trkpt><trkpt lat="43.899765" lon="12.7142817"><ele>72.0</ele><time>2026-04-26T08:06:04.538Z</time></trkpt><trkpt lat="43.8997667" lon="12.7141483"><ele>74.0</ele><time>2026-04-26T08:06:06.538Z</time></trkpt><trkpt lat="43.899775" lon="12.7139967"><ele>76.0</ele><time>2026-04-26T08:06:08.537Z</time></trkpt><trkpt lat="43.899785" lon="12.7138683"><ele>78.0</ele><time>2026-04-26T08:06:10.538Z</time></trkpt><trkpt lat="43.899755" lon="12.7137683"><ele>80.0</ele><time>2026-04-26T08:06:48.536Z</time></trkpt><trkpt lat="43.89972" lon="12.713655"><ele>80.83333333333334</ele><time>2026-04-26T08:06:50.536Z</time></trkpt><trkpt lat="43.899675" lon="12.7135417"><ele>81.66666666666667</ele><time>2026-04-26T08:06:52.536Z</time></trkpt><trkpt lat="43.89963" lon="12.7134383"><ele>82.5</ele><time>2026-04-26T08:06:54.536Z</time></trkpt><trkpt lat="43.8995883" lon="12.7133267"><ele>83.33333333333333</ele><time>2026-04-26T08:06:56.534Z</time></trkpt><trkpt lat="43.8995367" lon="12.713215"><ele>84.16666666666666</ele><time>2026-04-26T08:06:58.534Z</time></trkpt><trkpt lat="43.8994917" lon="12.7131367"><ele>85.0</ele><time>2026-04-26T08:07:00.534Z</time></trkpt><trkpt lat="43.8995" lon="12.71323"><ele>85.0</ele><time>2026-04-26T08:07:09.534Z</time></trkpt><trkpt lat="43.8994417" lon="12.7131717"><ele>85.0</ele><time>2026-04-26T08:07:24.536Z</time></trkpt><trkpt lat="43.8993867" lon="12.71309"><ele>85.0</ele><time>2026-04-26T08:07:25.536Z</time></trkpt><trkpt lat="43.8993133" lon="12.7129833"><ele>85.0</ele><time>2026-04-26T08:07:26.536Z</time></trkpt><trkpt lat="43.8992083" lon="12.7128533"><ele>85.0</ele><time>2026-04-26T08:07:27.537Z</time></trkpt><trkpt lat="43.8990433" lon="12.71269"><ele>90.0</ele><time>2026-04-26T08:07:28.535Z</time></trkpt><trkpt lat="43.8988317" lon="12.7125367"><ele>95.0</ele><time>2026-04-26T08:07:29.535Z</time></trkpt><trkpt lat="43.8986383" lon="12.7124167"><ele>95.0</ele><time>2026-04-26T08:07:30.535Z</time></trkpt><trkpt lat="43.8984283" lon="12.712295"><ele>95.0</ele><time>2026-04-26T08:07:31.537Z</time></trkpt><trkpt lat="43.8982183" lon="12.7121833"><ele>98.66666666666667</ele><time>2026-04-26T08:07:32.537Z</time></trkpt><trkpt lat="43.8980167" lon="12.712075"><ele>102.33333333333334</ele><time>2026-04-26T08:07:33.536Z</time></trkpt><trkpt lat="43.8978383" lon="12.711965"><ele>106.0</ele><time>2026-04-26T08:07:34.543Z</time></trkpt><trkpt lat="43.8976817" lon="12.711865"><ele>109.5</ele><time>2026-04-26T08:07:35.536Z</time></trkpt><trkpt lat="43.8975333" lon="12.7117733"><ele>113.0</ele><time>2026-04-26T08:07:36.536Z</time></trkpt><trkpt lat="43.8974017" lon="12.7116867"><ele>116.5</ele><time>2026-04-26T08:07:37.536Z</time></trkpt><trkpt lat="43.897285" lon="12.7115883"><ele>120.0</ele><time>2026-04-26T08:07:38.536Z</time></trkpt><trkpt lat="43.8971767" lon="12.7114867"><ele>120.0</ele><time>2026-04-26T08:07:39.536Z</time></trkpt><trkpt lat="43.89708" lon="12.7113867"><ele>120.0</ele><time>2026-04-26T08:07:40.537Z</time></trkpt><trkpt lat="43.8969933" lon="12.7112817"><ele>120.0</ele><time>2026-04-26T08:07:41.538Z</time></trkpt><trkpt lat="43.8969083" lon="12.71117"><ele>120.0</ele><time>2026-04-26T08:07:42.536Z</time></trkpt><trkpt lat="43.8968317" lon="12.7110617"><ele>119.2</ele><time>2026-04-26T08:07:43.538Z</time></trkpt><trkpt lat="43.8967683" lon="12.7109667"><ele>118.4</ele><time>2026-04-26T08:07:44.536Z</time></trkpt><trkpt lat="43.896715" lon="12.7108933"><ele>117.6</ele><time>2026-04-26T08:07:45.534Z</time></trkpt><trkpt lat="43.8966433" lon="12.7107983"><ele>116.8</ele><time>2026-04-26T08:07:47.537Z</time></trkpt><trkpt lat="43.8965283" lon="12.7106983"><ele>116.0</ele><time>2026-04-26T08:07:49.538Z</time></trkpt><trkpt lat="43.8964367" lon="12.7106333"><ele>120.0</ele><time>2026-04-26T08:07:50.536Z</time></trkpt><trkpt lat="43.89632" lon="12.7105817"><ele>124.0</ele><time>2026-04-26T08:07:51.536Z</time></trkpt><trkpt lat="43.8962" lon="12.710565"><ele>128.0</ele><time>2026-04-26T08:07:52.536Z</time></trkpt><trkpt lat="43.8960717" lon="12.7105883"><ele>132.0</ele><time>2026-04-26T08:07:53.536Z</time></trkpt><trkpt lat="43.8959333" lon="12.7106333"><ele>133.75</ele><time>2026-04-26T08:07:54.533Z</time></trkpt><trkpt lat="43.895795" lon="12.7106717"><ele>135.5</ele><time>2026-04-26T08:07:55.534Z</time></trkpt><trkpt lat="43.8956533" lon="12.7107117"><ele>137.25</ele><time>2026-04-26T08:07:56.533Z</time></trkpt><trkpt lat="43.8955117" lon="12.7107517"><ele>139.0</ele><time>2026-04-26T08:07:57.539Z</time></trkpt><trkpt lat="43.895375" lon="12.7107917"><ele>139.0</ele><time>2026-04-26T08:07:58.537Z</time></trkpt><trkpt lat="43.8952533" lon="12.7108267"><ele>139.0</ele><time>2026-04-26T08:07:59.536Z</time></trkpt><trkpt lat="43.8951383" lon="12.71086"><ele>139.0</ele><time>2026-04-26T08:08:00.536Z</time></trkpt><trkpt lat="43.8950217" lon="12.7109017"><ele>139.0</ele><time>2026-04-26T08:08:01.534Z</time></trkpt><trkpt lat="43.8948983" lon="12.71095"><ele>139.75</ele><time>2026-04-26T08:08:02.537Z</time></trkpt><trkpt lat="43.89477" lon="12.7110117"><ele>140.5</ele><time>2026-04-26T08:08:03.537Z</time></trkpt><trkpt lat="43.8946383" lon="12.7110867"><ele>141.25</ele><time>2026-04-26T08:08:04.536Z</time></trkpt><trkpt lat="43.8944983" lon="12.7111783"><ele>142.0</ele><time>2026-04-26T08:08:05.537Z</time></trkpt><trkpt lat="43.8943567" lon="12.7112733"><ele>142.25</ele><time>2026-04-26T08:08:06.536Z</time></trkpt><trkpt lat="43.894225" lon="12.711365"><ele>142.5</ele><time>2026-04-26T08:08:07.536Z</time></trkpt><trkpt lat="43.8941083" lon="12.7114483"><ele>142.75</ele><time>2026-04-26T08:08:08.536Z</time></trkpt><trkpt lat="43.893995" lon="12.7115333"><ele>143.0</ele><time>2026-04-26T08:08:09.536Z</time></trkpt><trkpt lat="43.893885" lon="12.7116233"><ele>143.0</ele><time>2026-04-26T08:08:10.537Z</time></trkpt><trkpt lat="43.893785" lon="12.7117133"><ele>143.0</ele><time>2026-04-26T08:08:11.536Z</time></trkpt><trkpt lat="43.8936933" lon="12.7117917"><ele>143.0</ele><time>2026-04-26T08:08:12.536Z</time></trkpt><trkpt lat="43.8936067" lon="12.7118683"><ele>143.0</ele><time>2026-04-26T08:08:13.537Z</time></trkpt><trkpt lat="43.8935183" lon="12.711945"><ele>143.0</ele><time>2026-04-26T08:08:14.536Z</time></trkpt><trkpt lat="43.89343" lon="12.7120233"><ele>141.6</ele><time>2026-04-26T08:08:15.536Z</time></trkpt><trkpt lat="43.89334" lon="12.712105"><ele>140.20000000000002</ele><time>2026-04-26T08:08:16.536Z</time></trkpt><trkpt lat="43.893255" lon="12.7121933"><ele>138.8</ele><time>2026-04-26T08:08:17.537Z</time></trkpt><trkpt lat="43.8931733" lon="12.71229"><ele>137.4</ele><time>2026-04-26T08:08:18.534Z</time></trkpt><trkpt lat="43.8930883" lon="12.7123867"><ele>136.0</ele><time>2026-04-26T08:08:19.536Z</time></trkpt><trkpt lat="43.893005" lon="12.71248"><ele>136.0</ele><time>2026-04-26T08:08:20.536Z</time></trkpt><trkpt lat="43.8929233" lon="12.7125633"><ele>136.0</ele><time>2026-04-26T08:08:21.536Z</time></trkpt><trkpt lat="43.89284" lon="12.712625"><ele>136.0</ele><time>2026-04-26T08:08:22.536Z</time></trkpt><trkpt lat="43.8927533" lon="12.7126717"><ele>136.0</ele><time>2026-04-26T08:08:23.535Z</time></trkpt><trkpt lat="43.8926667" lon="12.7127083"><ele>136.0</ele><time>2026-04-26T08:08:24.535Z</time></trkpt><trkpt lat="43.892575" lon="12.7127283"><ele>134.8</ele><time>2026-04-26T08:08:25.537Z</time></trkpt><trkpt lat="43.8924833" lon="12.7127383"><ele>133.6</ele><time>2026-04-26T08:08:26.538Z</time></trkpt><trkpt lat="43.8923867" lon="12.712735"><ele>132.4</ele><time>2026-04-26T08:08:27.537Z</time></trkpt><trkpt lat="43.8922833" lon="12.7127233"><ele>131.2</ele><time>2026-04-26T08:08:28.536Z</time></trkpt><trkpt lat="43.8921783" lon="12.7127017"><ele>130.0</ele><time>2026-04-26T08:08:29.537Z</time></trkpt><trkpt lat="43.8920683" lon="12.7126817"><ele>130.0</ele><time>2026-04-26T08:08:30.536Z</time></trkpt><trkpt lat="43.8919617" lon="12.712665"><ele>130.0</ele><time>2026-04-26T08:08:31.538Z</time></trkpt><trkpt lat="43.8918633" lon="12.7126517"><ele>130.0</ele><time>2026-04-26T08:08:32.537Z</time></trkpt><trkpt lat="43.8917733" lon="12.7126383"><ele>130.0</ele><time>2026-04-26T08:08:33.537Z</time></trkpt><trkpt lat="43.891695" lon="12.71262"><ele>130.0</ele><time>2026-04-26T08:08:34.537Z</time></trkpt><trkpt lat="43.891625" lon="12.7126"><ele>130.0</ele><time>2026-04-26T08:08:35.536Z</time></trkpt><trkpt lat="43.8915533" lon="12.712575"><ele>129.85714285714286</ele><time>2026-04-26T08:08:36.537Z</time></trkpt><trkpt lat="43.891485" lon="12.7125483"><ele>129.71428571428572</ele><time>2026-04-26T08:08:37.538Z</time></trkpt><trkpt lat="43.891415" lon="12.7125117"><ele>129.57142857142856</ele><time>2026-04-26T08:08:38.539Z</time></trkpt><trkpt lat="43.89135" lon="12.7124633"><ele>129.42857142857144</ele><time>2026-04-26T08:08:39.536Z</time></trkpt><trkpt lat="43.89129" lon="12.7124017"><ele>129.28571428571428</ele><time>2026-04-26T08:08:40.539Z</time></trkpt><trkpt lat="43.891235" lon="12.71233"><ele>129.14285714285714</ele><time>2026-04-26T08:08:41.536Z</time></trkpt><trkpt lat="43.891185" lon="12.712245"><ele>129.0</ele><time>2026-04-26T08:08:42.536Z</time></trkpt><trkpt lat="43.8911383" lon="12.712155"><ele>129.0</ele><time>2026-04-26T08:08:43.535Z</time></trkpt><trkpt lat="43.8910933" lon="12.7120617"><ele>129.0</ele><time>2026-04-26T08:08:44.534Z</time></trkpt><trkpt lat="43.8910533" lon="12.71197"><ele>129.0</ele><time>2026-04-26T08:08:45.536Z</time></trkpt><trkpt lat="43.8910133" lon="12.71188"><ele>129.0</ele><time>2026-04-26T08:08:46.535Z</time></trkpt><trkpt lat="43.8909683" lon="12.711785"><ele>129.0</ele><time>2026-04-26T08:08:47.535Z</time></trkpt><trkpt lat="43.8909217" lon="12.71169"><ele>129.0</ele><time>2026-04-26T08:08:48.534Z</time></trkpt><trkpt lat="43.890875" lon="12.711595"><ele>127.0</ele><time>2026-04-26T08:08:49.536Z</time></trkpt><trkpt lat="43.8908317" lon="12.711505"><ele>125.0</ele><time>2026-04-26T08:08:50.536Z</time></trkpt><trkpt lat="43.8907917" lon="12.7114217"><ele>123.0</ele><time>2026-04-26T08:08:51.533Z</time></trkpt><trkpt lat="43.89075" lon="12.71134"><ele>121.0</ele><time>2026-04-26T08:08:52.536Z</time></trkpt><trkpt lat="43.890705" lon="12.711265"><ele>119.0</ele><time>2026-04-26T08:08:53.536Z</time></trkpt><trkpt lat="43.8906533" lon="12.7112017"><ele>117.0</ele><time>2026-04-26T08:08:54.639Z</time></trkpt><trkpt lat="43.8905317" lon="12.7111217"><ele>117.0</ele><time>2026-04-26T08:08:56.537Z</time></trkpt><trkpt lat="43.8904617" lon="12.7110983"><ele>117.00000000000001</ele><time>2026-04-26T08:08:57.535Z</time></trkpt><trkpt lat="43.8903817" lon="12.711085"><ele>117.0</ele><time>2026-04-26T08:08:58.535Z</time></trkpt><trkpt lat="43.8903067" lon="12.7110833"><ele>117.0</ele><time>2026-04-26T08:08:59.536Z</time></trkpt><trkpt lat="43.8902383" lon="12.7110817"><ele>117.00000000000001</ele><time>2026-04-26T08:09:00.534Z</time></trkpt><trkpt lat="43.89017" lon="12.7110767"><ele>117.0</ele><time>2026-04-26T08:09:01.533Z</time></trkpt><trkpt lat="43.8900983" lon="12.7110683"><ele>117.0</ele><time>2026-04-26T08:09:02.534Z</time></trkpt><trkpt lat="43.8900217" lon="12.7110683"><ele>115.0</ele><time>2026-04-26T08:09:03.534Z</time></trkpt><trkpt lat="43.88994" lon="12.711075"><ele>113.0</ele><time>2026-04-26T08:09:04.533Z</time></trkpt><trkpt lat="43.889855" lon="12.71109"><ele>111.0</ele><time>2026-04-26T08:09:05.537Z</time></trkpt><trkpt lat="43.8897733" lon="12.71111"><ele>109.0</ele><time>2026-04-26T08:09:06.532Z</time></trkpt><trkpt lat="43.8896933" lon="12.7111283"><ele>107.0</ele><time>2026-04-26T08:09:07.534Z</time></trkpt><trkpt lat="43.8896167" lon="12.711155"><ele>105.0</ele><time>2026-04-26T08:09:08.54Z</time></trkpt><trkpt lat="43.8895433" lon="12.7111867"><ele>105.0</ele><time>2026-04-26T08:09:09.534Z</time></trkpt><trkpt lat="43.889475" lon="12.71122"><ele>105.0</ele><time>2026-04-26T08:09:10.536Z</time></trkpt><trkpt lat="43.8894067" lon="12.7112633"><ele>105.0</ele><time>2026-04-26T08:09:11.538Z</time></trkpt><trkpt lat="43.8893367" lon="12.7113083"><ele>105.0</ele><time>2026-04-26T08:09:12.535Z</time></trkpt><trkpt lat="43.8892617" lon="12.7113467"><ele>105.0</ele><time>2026-04-26T08:09:13.535Z</time></trkpt><trkpt lat="43.8891833" lon="12.71137"><ele>105.0</ele><time>2026-04-26T08:09:14.533Z</time></trkpt><trkpt lat="43.8891" lon="12.711385"><ele>103.0</ele><time>2026-04-26T08:09:15.535Z</time></trkpt><trkpt lat="43.8890217" lon="12.7113833"><ele>101.0</ele><time>2026-04-26T08:09:16.533Z</time></trkpt><trkpt lat="43.8889317" lon="12.7113533"><ele>99.0</ele><time>2026-04-26T08:09:17.537Z</time></trkpt><trkpt lat="43.88884" lon="12.7113133"><ele>97.0</ele><time>2026-04-26T08:09:18.536Z</time></trkpt><trkpt lat="43.88875" lon="12.7112767"><ele>95.0</ele><time>2026-04-26T08:09:19.537Z</time></trkpt><trkpt lat="43.8886583" lon="12.7112433"><ele>95.0</ele><time>2026-04-26T08:09:20.536Z</time></trkpt><trkpt lat="43.8885683" lon="12.7112183"><ele>95.0</ele><time>2026-04-26T08:09:21.536Z</time></trkpt><trkpt lat="43.8884817" lon="12.7111917"><ele>95.0</ele><time>2026-04-26T08:09:22.536Z</time></trkpt><trkpt lat="43.8883983" lon="12.7111683"><ele>95.0</ele><time>2026-04-26T08:09:23.536Z</time></trkpt><trkpt lat="43.8883167" lon="12.7111467"><ele>95.0</ele><time>2026-04-26T08:09:24.537Z</time></trkpt><trkpt lat="43.8882367" lon="12.711125"><ele>95.0</ele><time>2026-04-26T08:09:25.537Z</time></trkpt><trkpt lat="43.8881567" lon="12.711105"><ele>93.0</ele><time>2026-04-26T08:09:26.536Z</time></trkpt><trkpt lat="43.8880783" lon="12.711085"><ele>91.0</ele><time>2026-04-26T08:09:27.537Z</time></trkpt><trkpt lat="43.8879983" lon="12.711075"><ele>89.0</ele><time>2026-04-26T08:09:28.535Z</time></trkpt><trkpt lat="43.8879233" lon="12.7110783"><ele>87.0</ele><time>2026-04-26T08:09:29.536Z</time></trkpt><trkpt lat="43.88785" lon="12.7110917"><ele>85.0</ele><time>2026-04-26T08:09:30.533Z</time></trkpt><trkpt lat="43.8877767" lon="12.7111217"><ele>83.0</ele><time>2026-04-26T08:09:31.538Z</time></trkpt><trkpt lat="43.8877033" lon="12.711165"><ele>83.0</ele><time>2026-04-26T08:09:32.536Z</time></trkpt><trkpt lat="43.8876333" lon="12.71122"><ele>83.0</ele><time>2026-04-26T08:09:33.536Z</time></trkpt><trkpt lat="43.8875633" lon="12.711275"><ele>83.0</ele><time>2026-04-26T08:09:34.536Z</time></trkpt><trkpt lat="43.8874933" lon="12.711325"><ele>83.0</ele><time>2026-04-26T08:09:35.532Z</time></trkpt><trkpt lat="43.8874267" lon="12.71137"><ele>83.0</ele><time>2026-04-26T08:09:36.533Z</time></trkpt><trkpt lat="43.8873667" lon="12.7114"><ele>83.0</ele><time>2026-04-26T08:09:37.536Z</time></trkpt><trkpt lat="43.8872817" lon="12.711445"><ele>82.0</ele><time>2026-04-26T08:09:39.536Z</time></trkpt><trkpt lat="43.8872233" lon="12.71154"><ele>81.0</ele><time>2026-04-26T08:09:41.536Z</time></trkpt><trkpt lat="43.8872117" lon="12.7117167"><ele>80.0</ele><time>2026-04-26T08:09:43.536Z</time></trkpt><trkpt lat="43.887215" lon="12.7118267"><ele>79.0</ele><time>2026-04-26T08:09:44.537Z</time></trkpt><trkpt lat="43.887215" lon="12.71195"><ele>78.0</ele><time>2026-04-26T08:09:45.537Z</time></trkpt><trkpt lat="43.887205" lon="12.712075"><ele>78.0</ele><time>2026-04-26T08:09:46.533Z</time></trkpt><trkpt lat="43.8871817" lon="12.7122033"><ele>78.0</ele><time>2026-04-26T08:09:47.533Z</time></trkpt><trkpt lat="43.8871483" lon="12.7123433"><ele>78.0</ele><time>2026-04-26T08:09:48.534Z</time></trkpt><trkpt lat="43.8871133" lon="12.7124917"><ele>78.0</ele><time>2026-04-26T08:09:49.533Z</time></trkpt><trkpt lat="43.887085" lon="12.71265"><ele>78.0</ele><time>2026-04-26T08:09:50.534Z</time></trkpt><trkpt lat="43.8870617" lon="12.7127933"><ele>78.66666666666667</ele><time>2026-04-26T08:09:51.533Z</time></trkpt><trkpt lat="43.8870383" lon="12.7129117"><ele>79.33333333333333</ele><time>2026-04-26T08:09:52.534Z</time></trkpt><trkpt lat="43.8870083" lon="12.7130183"><ele>80.0</ele><time>2026-04-26T08:09:53.534Z</time></trkpt><trkpt lat="43.8869867" lon="12.7131217"><ele>80.66666666666666</ele><time>2026-04-26T08:09:54.532Z</time></trkpt><trkpt lat="43.8869733" lon="12.71323"><ele>81.33333333333333</ele><time>2026-04-26T08:09:55.536Z</time></trkpt><trkpt lat="43.88696" lon="12.713355"><ele>82.0</ele><time>2026-04-26T08:09:56.533Z</time></trkpt><trkpt lat="43.88695" lon="12.713495"><ele>80.8</ele><time>2026-04-26T08:09:57.533Z</time></trkpt><trkpt lat="43.8869467" lon="12.713645"><ele>79.6</ele><time>2026-04-26T08:09:58.533Z</time></trkpt><trkpt lat="43.8869467" lon="12.713805"><ele>78.39999999999999</ele><time>2026-04-26T08:09:59.532Z</time></trkpt><trkpt lat="43.8869483" lon="12.7139567"><ele>77.19999999999999</ele><time>2026-04-26T08:10:00.536Z</time></trkpt><trkpt lat="43.88695" lon="12.7140833"><ele>76.0</ele><time>2026-04-26T08:10:01.538Z</time></trkpt><trkpt lat="43.88696" lon="12.7142083"><ele>76.0</ele><time>2026-04-26T08:10:02.537Z</time></trkpt><trkpt lat="43.8869783" lon="12.7143433"><ele>76.0</ele><time>2026-04-26T08:10:03.537Z</time></trkpt><trkpt lat="43.8870017" lon="12.7144833"><ele>76.0</ele><time>2026-04-26T08:10:04.536Z</time></trkpt><trkpt lat="43.8870283" lon="12.7146317"><ele>76.0</ele><time>2026-04-26T08:10:05.533Z</time></trkpt><trkpt lat="43.8870617" lon="12.7147833"><ele>76.0</ele><time>2026-04-26T08:10:06.533Z</time></trkpt><trkpt lat="43.887095" lon="12.714935"><ele>74.0</ele><time>2026-04-26T08:10:07.535Z</time></trkpt><trkpt lat="43.887125" lon="12.7150933"><ele>72.0</ele><time>2026-04-26T08:10:08.533Z</time></trkpt><trkpt lat="43.8871517" lon="12.7152583"><ele>70.0</ele><time>2026-04-26T08:10:09.536Z</time></trkpt><trkpt lat="43.8871683" lon="12.7154167"><ele>68.0</ele><time>2026-04-26T08:10:10.535Z</time></trkpt><trkpt lat="43.8871717" lon="12.715575"><ele>68.5</ele><time>2026-04-26T08:10:11.536Z</time></trkpt><trkpt lat="43.88716" lon="12.715735"><ele>69.0</ele><time>2026-04-26T08:10:12.535Z</time></trkpt><trkpt lat="43.88713" lon="12.7159133"><ele>69.5</ele><time>2026-04-26T08:10:13.536Z</time></trkpt><trkpt lat="43.8870867" lon="12.7161083"><ele>70.0</ele><time>2026-04-26T08:10:14.537Z</time></trkpt><trkpt lat="43.8870433" lon="12.7163067"><ele>70.0</ele><time>2026-04-26T08:10:15.533Z</time></trkpt><trkpt lat="43.8869983" lon="12.7164933"><ele>70.0</ele><time>2026-04-26T08:10:16.533Z</time></trkpt><trkpt lat="43.88696" lon="12.7166617"><ele>70.0</ele><time>2026-04-26T08:10:17.533Z</time></trkpt><trkpt lat="43.886925" lon="12.7168083"><ele>70.0</ele><time>2026-04-26T08:10:18.534Z</time></trkpt><trkpt lat="43.886895" lon="12.7169333"><ele>69.33333333333333</ele><time>2026-04-26T08:10:19.533Z</time></trkpt><trkpt lat="43.8868683" lon="12.717045"><ele>68.66666666666666</ele><time>2026-04-26T08:10:20.533Z</time></trkpt><trkpt lat="43.8868467" lon="12.7171483"><ele>68.0</ele><time>2026-04-26T08:10:21.534Z</time></trkpt><trkpt lat="43.8868267" lon="12.7172417"><ele>67.33333333333333</ele><time>2026-04-26T08:10:22.535Z</time></trkpt><trkpt lat="43.886805" lon="12.71733"><ele>66.66666666666667</ele><time>2026-04-26T08:10:23.54Z</time></trkpt><trkpt lat="43.88676" lon="12.7174767"><ele>66.0</ele><time>2026-04-26T08:10:25.533Z</time></trkpt><trkpt lat="43.8866983" lon="12.7175283"><ele>66.0</ele><time>2026-04-26T08:10:27.538Z</time></trkpt><trkpt lat="43.8866333" lon="12.7175183"><ele>66.0</ele><time>2026-04-26T08:10:29.539Z</time></trkpt><trkpt lat="43.88655" lon="12.717475"><ele>66.0</ele><time>2026-04-26T08:10:31.54Z</time></trkpt><trkpt lat="43.8864683" lon="12.7174267"><ele>66.0</ele><time>2026-04-26T08:10:33.536Z</time></trkpt><trkpt lat="43.8863917" lon="12.717385"><ele>66.0</ele><time>2026-04-26T08:10:35.536Z</time></trkpt><trkpt lat="43.8863317" lon="12.7173567"><ele>66.0</ele><time>2026-04-26T08:10:37.538Z</time></trkpt><trkpt lat="43.8862683" lon="12.7173233"><ele>66.0</ele><time>2026-04-26T08:10:39.534Z</time></trkpt><trkpt lat="43.8861883" lon="12.7172983"><ele>66.0</ele><time>2026-04-26T08:10:41.537Z</time></trkpt><trkpt lat="43.886105" lon="12.71728"><ele>66.0</ele><time>2026-04-26T08:10:43.538Z</time></trkpt><trkpt lat="43.8860217" lon="12.7172733"><ele>66.0</ele><time>2026-04-26T08:10:45.536Z</time></trkpt><trkpt lat="43.88594" lon="12.7173033"><ele>66.0</ele><time>2026-04-26T08:10:47.534Z</time></trkpt><trkpt lat="43.8858417" lon="12.7173667"><ele>66.0</ele><time>2026-04-26T08:10:49.535Z</time></trkpt><trkpt lat="43.885735" lon="12.71744"><ele>63.5</ele><time>2026-04-26T08:10:51.533Z</time></trkpt><trkpt lat="43.8856183" lon="12.7175133"><ele>61.0</ele><time>2026-04-26T08:10:53.533Z</time></trkpt><trkpt lat="43.8855083" lon="12.71759"><ele>58.5</ele><time>2026-04-26T08:10:55.538Z</time></trkpt><trkpt lat="43.8854033" lon="12.7176267"><ele>56.0</ele><time>2026-04-26T08:10:57.537Z</time></trkpt><trkpt lat="43.8852933" lon="12.7176217"><ele>56.0</ele><time>2026-04-26T08:10:59.536Z</time></trkpt><trkpt lat="43.885195" lon="12.7176267"><ele>55.99999999999999</ele><time>2026-04-26T08:11:01.536Z</time></trkpt><trkpt lat="43.8851033" lon="12.717625"><ele>55.99999999999999</ele><time>2026-04-26T08:11:03.534Z</time></trkpt><trkpt lat="43.8849917" lon="12.717605"><ele>56.0</ele><time>2026-04-26T08:11:05.532Z</time></trkpt><trkpt lat="43.88488" lon="12.7175617"><ele>56.0</ele><time>2026-04-26T08:11:07.535Z</time></trkpt><trkpt lat="43.8847733" lon="12.71751"><ele>56.00000000000001</ele><time>2026-04-26T08:11:09.533Z</time></trkpt><trkpt lat="43.8846817" lon="12.717455"><ele>56.0</ele><time>2026-04-26T08:11:11.533Z</time></trkpt><trkpt lat="43.884575" lon="12.7174067"><ele>56.0</ele><time>2026-04-26T08:11:13.538Z</time></trkpt><trkpt lat="43.88451" lon="12.7173683"><ele>56.0</ele><time>2026-04-26T08:11:14.538Z</time></trkpt><trkpt lat="43.8844433" lon="12.7173283"><ele>56.00000000000001</ele><time>2026-04-26T08:11:15.536Z</time></trkpt><trkpt lat="43.8843717" lon="12.717295"><ele>56.0</ele><time>2026-04-26T08:11:16.535Z</time></trkpt><trkpt lat="43.884295" lon="12.7172667"><ele>56.833333333333336</ele><time>2026-04-26T08:11:17.534Z</time></trkpt><trkpt lat="43.88422" lon="12.7172417"><ele>57.66666666666667</ele><time>2026-04-26T08:11:18.534Z</time></trkpt><trkpt lat="43.88414" lon="12.7172117"><ele>58.5</ele><time>2026-04-26T08:11:19.534Z</time></trkpt><trkpt lat="43.8840617" lon="12.7171817"><ele>59.33333333333333</ele><time>2026-04-26T08:11:20.533Z</time></trkpt><trkpt lat="43.883985" lon="12.71714"><ele>60.166666666666664</ele><time>2026-04-26T08:11:21.534Z</time></trkpt><trkpt lat="43.8839117" lon="12.7170967"><ele>61.0</ele><time>2026-04-26T08:11:22.534Z</time></trkpt><trkpt lat="43.88384" lon="12.717055"><ele>60.99999999999999</ele><time>2026-04-26T08:11:23.538Z</time></trkpt><trkpt lat="43.88377" lon="12.7170183"><ele>61.0</ele><time>2026-04-26T08:11:24.537Z</time></trkpt><trkpt lat="43.8836983" lon="12.7169883"><ele>61.0</ele><time>2026-04-26T08:11:25.537Z</time></trkpt><trkpt lat="43.8836233" lon="12.7169533"><ele>61.0</ele><time>2026-04-26T08:11:26.537Z</time></trkpt><trkpt lat="43.88355" lon="12.716915"><ele>60.99999999999999</ele><time>2026-04-26T08:11:27.536Z</time></trkpt><trkpt lat="43.883485" lon="12.7168883"><ele>61.0</ele><time>2026-04-26T08:11:28.542Z</time></trkpt><trkpt lat="43.8833967" lon="12.71686"><ele>63.199999999999996</ele><time>2026-04-26T08:11:30.536Z</time></trkpt><trkpt lat="43.8833283" lon="12.7167867"><ele>65.39999999999999</ele><time>2026-04-26T08:11:33.536Z</time></trkpt><trkpt lat="43.88326" lon="12.716735"><ele>67.6</ele><time>2026-04-26T08:11:36.536Z</time></trkpt><trkpt lat="43.8831633" lon="12.7167133"><ele>69.8</ele><time>2026-04-26T08:11:39.538Z</time></trkpt><trkpt lat="43.8830533" lon="12.7166983"><ele>72.0</ele><time>2026-04-26T08:11:41.537Z</time></trkpt><trkpt lat="43.8829533" lon="12.71674"><ele>72.00000000000001</ele><time>2026-04-26T08:11:43.536Z</time></trkpt><trkpt lat="43.8829033" lon="12.716795"><ele>72.0</ele><time>2026-04-26T08:11:44.537Z</time></trkpt><trkpt lat="43.88285" lon="12.716865"><ele>72.0</ele><time>2026-04-26T08:11:45.533Z</time></trkpt><trkpt lat="43.8827917" lon="12.71694"><ele>72.0</ele><time>2026-04-26T08:11:46.534Z</time></trkpt><trkpt lat="43.8827367" lon="12.7170117"><ele>72.0</ele><time>2026-04-26T08:11:47.538Z</time></trkpt><trkpt lat="43.882685" lon="12.717085"><ele>72.00000000000001</ele><time>2026-04-26T08:11:48.533Z</time></trkpt><trkpt lat="43.88263" lon="12.7171617"><ele>72.0</ele><time>2026-04-26T08:11:49.534Z</time></trkpt><trkpt lat="43.8825783" lon="12.717235"><ele>72.16666666666667</ele><time>2026-04-26T08:11:50.537Z</time></trkpt><trkpt lat="43.8825183" lon="12.71731"><ele>72.33333333333333</ele><time>2026-04-26T08:11:51.534Z</time></trkpt><trkpt lat="43.8824583" lon="12.71739"><ele>72.5</ele><time>2026-04-26T08:11:52.534Z</time></trkpt><trkpt lat="43.8823983" lon="12.7174733"><ele>72.66666666666666</ele><time>2026-04-26T08:11:53.537Z</time></trkpt><trkpt lat="43.882335" lon="12.7175567"><ele>72.83333333333333</ele><time>2026-04-26T08:11:54.538Z</time></trkpt><trkpt lat="43.8822683" lon="12.717645"><ele>73.0</ele><time>2026-04-26T08:11:55.538Z</time></trkpt><trkpt lat="43.8821967" lon="12.7177417"><ele>73.0</ele><time>2026-04-26T08:11:56.536Z</time></trkpt><trkpt lat="43.882125" lon="12.7178483"><ele>73.0</ele><time>2026-04-26T08:11:57.537Z</time></trkpt><trkpt lat="43.8820433" lon="12.7179583"><ele>73.0</ele><time>2026-04-26T08:11:58.537Z</time></trkpt><trkpt lat="43.881955" lon="12.71807"><ele>73.0</ele><time>2026-04-26T08:11:59.539Z</time></trkpt><trkpt lat="43.88187" lon="12.7181667"><ele>73.0</ele><time>2026-04-26T08:12:00.538Z</time></trkpt><trkpt lat="43.8817917" lon="12.7182333"><ele>74.71428571428571</ele><time>2026-04-26T08:12:01.536Z</time></trkpt><trkpt lat="43.88172" lon="12.71827"><ele>76.42857142857143</ele><time>2026-04-26T08:12:02.537Z</time></trkpt><trkpt lat="43.8816567" lon="12.71828"><ele>78.14285714285714</ele><time>2026-04-26T08:12:03.536Z</time></trkpt><trkpt lat="43.8815933" lon="12.7182683"><ele>79.85714285714286</ele><time>2026-04-26T08:12:04.536Z</time></trkpt><trkpt lat="43.8815283" lon="12.718235"><ele>81.57142857142857</ele><time>2026-04-26T08:12:05.536Z</time></trkpt><trkpt lat="43.8814717" lon="12.7181667"><ele>83.28571428571429</ele><time>2026-04-26T08:12:06.536Z</time></trkpt><trkpt lat="43.8814183" lon="12.718075"><ele>85.0</ele><time>2026-04-26T08:12:07.537Z</time></trkpt><trkpt lat="43.881375" lon="12.7179667"><ele>85.0</ele><time>2026-04-26T08:12:08.54Z</time></trkpt><trkpt lat="43.8813533" lon="12.7178483"><ele>85.0</ele><time>2026-04-26T08:12:09.536Z</time></trkpt><trkpt lat="43.8813433" lon="12.7177417"><ele>85.0</ele><time>2026-04-26T08:12:10.538Z</time></trkpt><trkpt lat="43.8813583" lon="12.71763"><ele>85.0</ele><time>2026-04-26T08:12:12.536Z</time></trkpt><trkpt lat="43.8813183" lon="12.717705"><ele>85.0</ele><time>2026-04-26T08:12:41.536Z</time></trkpt><trkpt lat="43.8813183" lon="12.7178833"><ele>85.0</ele><time>2026-04-26T08:12:43.537Z</time></trkpt><trkpt lat="43.8813267" lon="12.7179767"><ele>85.0</ele><time>2026-04-26T08:12:44.533Z</time></trkpt><trkpt lat="43.8813483" lon="12.7180683"><ele>85.0</ele><time>2026-04-26T08:12:45.537Z</time></trkpt><trkpt lat="43.881375" lon="12.7181583"><ele>85.0</ele><time>2026-04-26T08:12:46.533Z</time></trkpt><trkpt lat="43.8814017" lon="12.71825"><ele>85.0</ele><time>2026-04-26T08:12:47.534Z</time></trkpt><trkpt lat="43.88143" lon="12.71835"><ele>85.0</ele><time>2026-04-26T08:12:48.535Z</time></trkpt><trkpt lat="43.8814517" lon="12.7184483"><ele>85.0</ele><time>2026-04-26T08:12:49.534Z</time></trkpt><trkpt lat="43.8814583" lon="12.7185517"><ele>85.0</ele><time>2026-04-26T08:12:50.533Z</time></trkpt><trkpt lat="43.8814483" lon="12.7186567"><ele>83.5</ele><time>2026-04-26T08:12:51.536Z</time></trkpt><trkpt lat="43.881435" lon="12.7187617"><ele>82.0</ele><time>2026-04-26T08:12:52.536Z</time></trkpt><trkpt lat="43.8814167" lon="12.7188667"><ele>80.5</ele><time>2026-04-26T08:12:53.533Z</time></trkpt><trkpt lat="43.8814" lon="12.7189667"><ele>79.0</ele><time>2026-04-26T08:12:54.537Z</time></trkpt><trkpt lat="43.8813817" lon="12.719065"><ele>77.5</ele><time>2026-04-26T08:12:55.534Z</time></trkpt><trkpt lat="43.88136" lon="12.7191667"><ele>76.0</ele><time>2026-04-26T08:12:56.536Z</time></trkpt><trkpt lat="43.8813333" lon="12.7192683"><ele>76.0</ele><time>2026-04-26T08:12:57.537Z</time></trkpt><trkpt lat="43.8813033" lon="12.71937"><ele>76.0</ele><time>2026-04-26T08:12:58.536Z</time></trkpt><trkpt lat="43.881275" lon="12.719475"><ele>76.0</ele><time>2026-04-26T08:12:59.537Z</time></trkpt><trkpt lat="43.8812417" lon="12.7195667"><ele>76.0</ele><time>2026-04-26T08:13:00.536Z</time></trkpt><trkpt lat="43.881205" lon="12.7196433"><ele>76.0</ele><time>2026-04-26T08:13:01.536Z</time></trkpt><trkpt lat="43.8811117" lon="12.7197233"><ele>76.0</ele><time>2026-04-26T08:13:03.537Z</time></trkpt><trkpt lat="43.8810483" lon="12.7197217"><ele>73.25</ele><time>2026-04-26T08:13:04.536Z</time></trkpt><trkpt lat="43.8809583" lon="12.7196983"><ele>70.5</ele><time>2026-04-26T08:13:05.537Z</time></trkpt><trkpt lat="43.8808517" lon="12.7196817"><ele>67.75</ele><time>2026-04-26T08:13:06.536Z</time></trkpt><trkpt lat="43.8807267" lon="12.7196533"><ele>65.0</ele><time>2026-04-26T08:13:07.536Z</time></trkpt><trkpt lat="43.8806" lon="12.71963"><ele>64.25</ele><time>2026-04-26T08:13:08.537Z</time></trkpt><trkpt lat="43.8804717" lon="12.71961"><ele>63.5</ele><time>2026-04-26T08:13:09.537Z</time></trkpt><trkpt lat="43.880345" lon="12.7195833"><ele>62.75</ele><time>2026-04-26T08:13:10.533Z</time></trkpt><trkpt lat="43.880225" lon="12.7195333"><ele>62.0</ele><time>2026-04-26T08:13:11.536Z</time></trkpt><trkpt lat="43.88012" lon="12.7194617"><ele>63.75</ele><time>2026-04-26T08:13:12.536Z</time></trkpt><trkpt lat="43.880025" lon="12.7193717"><ele>65.5</ele><time>2026-04-26T08:13:13.537Z</time></trkpt><trkpt lat="43.87993" lon="12.719255"><ele>67.25</ele><time>2026-04-26T08:13:14.536Z</time></trkpt><trkpt lat="43.8798333" lon="12.719115"><ele>69.0</ele><time>2026-04-26T08:13:15.537Z</time></trkpt><trkpt lat="43.87974" lon="12.718975"><ele>69.0</ele><time>2026-04-26T08:13:16.535Z</time></trkpt><trkpt lat="43.8796567" lon="12.7188467"><ele>69.0</ele><time>2026-04-26T08:13:17.533Z</time></trkpt><trkpt lat="43.8795867" lon="12.71873"><ele>69.0</ele><time>2026-04-26T08:13:18.533Z</time></trkpt><trkpt lat="43.879525" lon="12.7186233"><ele>69.0</ele><time>2026-04-26T08:13:19.534Z</time></trkpt><trkpt lat="43.879465" lon="12.7185317"><ele>69.0</ele><time>2026-04-26T08:13:20.533Z</time></trkpt><trkpt lat="43.8793983" lon="12.7184517"><ele>70.4</ele><time>2026-04-26T08:13:21.534Z</time></trkpt><trkpt lat="43.8793217" lon="12.71839"><ele>71.80000000000001</ele><time>2026-04-26T08:13:22.534Z</time></trkpt><trkpt lat="43.8792367" lon="12.718365"><ele>73.19999999999999</ele><time>2026-04-26T08:13:23.537Z</time></trkpt><trkpt lat="43.879145" lon="12.71837"><ele>74.6</ele><time>2026-04-26T08:13:24.536Z</time></trkpt><trkpt lat="43.8790483" lon="12.7184067"><ele>76.0</ele><time>2026-04-26T08:13:25.536Z</time></trkpt><trkpt lat="43.87893" lon="12.7184883"><ele>72.5</ele><time>2026-04-26T08:13:26.536Z</time></trkpt><trkpt lat="43.8788183" lon="12.7185567"><ele>69.0</ele><time>2026-04-26T08:13:27.537Z</time></trkpt><trkpt lat="43.878705" lon="12.718605"><ele>65.5</ele><time>2026-04-26T08:13:28.536Z</time></trkpt><trkpt lat="43.8785817" lon="12.7186333"><ele>62.0</ele><time>2026-04-26T08:13:29.536Z</time></trkpt><trkpt lat="43.87846" lon="12.7186433"><ele>60.5</ele><time>2026-04-26T08:13:30.536Z</time></trkpt><trkpt lat="43.87834" lon="12.7186417"><ele>59.0</ele><time>2026-04-26T08:13:31.537Z</time></trkpt><trkpt lat="43.8782183" lon="12.7186233"><ele>57.5</ele><time>2026-04-26T08:13:32.536Z</time></trkpt><trkpt lat="43.8781017" lon="12.7185983"><ele>56.0</ele><time>2026-04-26T08:13:33.536Z</time></trkpt><trkpt lat="43.8779867" lon="12.71857"><ele>56.0</ele><time>2026-04-26T08:13:34.537Z</time></trkpt><trkpt lat="43.8778683" lon="12.718535"><ele>56.0</ele><time>2026-04-26T08:13:35.532Z</time></trkpt><trkpt lat="43.8777383" lon="12.7185017"><ele>56.0</ele><time>2026-04-26T08:13:36.534Z</time></trkpt><trkpt lat="43.8775983" lon="12.718485"><ele>56.0</ele><time>2026-04-26T08:13:37.536Z</time></trkpt><trkpt lat="43.8774633" lon="12.7184783"><ele>56.0</ele><time>2026-04-26T08:13:38.532Z</time></trkpt><trkpt lat="43.87734" lon="12.7184617"><ele>56.0</ele><time>2026-04-26T08:13:39.536Z</time></trkpt><trkpt lat="43.8772283" lon="12.7184317"><ele>56.0</ele><time>2026-04-26T08:13:40.535Z</time></trkpt><trkpt lat="43.8771217" lon="12.718395"><ele>56.0</ele><time>2026-04-26T08:13:41.536Z</time></trkpt><trkpt lat="43.877015" lon="12.7183433"><ele>56.0</ele><time>2026-04-26T08:13:42.536Z</time></trkpt><trkpt lat="43.87691" lon="12.718285"><ele>55.99999999999999</ele><time>2026-04-26T08:13:43.537Z</time></trkpt><trkpt lat="43.8768133" lon="12.71822"><ele>55.99999999999999</ele><time>2026-04-26T08:13:44.536Z</time></trkpt><trkpt lat="43.8767217" lon="12.7181583"><ele>56.0</ele><time>2026-04-26T08:13:45.534Z</time></trkpt><trkpt lat="43.8766317" lon="12.718105"><ele>56.0</ele><time>2026-04-26T08:13:46.537Z</time></trkpt><trkpt lat="43.8765383" lon="12.7180517"><ele>56.0</ele><time>2026-04-26T08:13:47.536Z</time></trkpt><trkpt lat="43.8764417" lon="12.7180067"><ele>56.0</ele><time>2026-04-26T08:13:48.536Z</time></trkpt><trkpt lat="43.876335" lon="12.7179733"><ele>56.0</ele><time>2026-04-26T08:13:49.534Z</time></trkpt><trkpt lat="43.87622" lon="12.7179467"><ele>56.0</ele><time>2026-04-26T08:13:50.536Z</time></trkpt><trkpt lat="43.876095" lon="12.7179217"><ele>56.0</ele><time>2026-04-26T08:13:51.536Z</time></trkpt><trkpt lat="43.8759533" lon="12.7179033"><ele>56.0</ele><time>2026-04-26T08:13:52.532Z</time></trkpt><trkpt lat="43.8757967" lon="12.717885"><ele>56.0</ele><time>2026-04-26T08:13:53.534Z</time></trkpt><trkpt lat="43.875635" lon="12.7178683"><ele>56.66666666666667</ele><time>2026-04-26T08:13:54.536Z</time></trkpt><trkpt lat="43.8754767" lon="12.7178583"><ele>57.33333333333333</ele><time>2026-04-26T08:13:55.536Z</time></trkpt><trkpt lat="43.8753267" lon="12.7178617"><ele>58.0</ele><time>2026-04-26T08:13:56.533Z</time></trkpt><trkpt lat="43.8751783" lon="12.7178783"><ele>58.75</ele><time>2026-04-26T08:13:57.533Z</time></trkpt><trkpt lat="43.8750333" lon="12.71791"><ele>59.5</ele><time>2026-04-26T08:13:58.536Z</time></trkpt><trkpt lat="43.8748883" lon="12.7179417"><ele>60.25</ele><time>2026-04-26T08:13:59.534Z</time></trkpt><trkpt lat="43.874745" lon="12.7179833"><ele>61.0</ele><time>2026-04-26T08:14:00.533Z</time></trkpt><trkpt lat="43.8746083" lon="12.7180267"><ele>61.0</ele><time>2026-04-26T08:14:01.533Z</time></trkpt><trkpt lat="43.874475" lon="12.7180783"><ele>61.0</ele><time>2026-04-26T08:14:02.535Z</time></trkpt><trkpt lat="43.8743483" lon="12.7181283"><ele>61.0</ele><time>2026-04-26T08:14:03.534Z</time></trkpt><trkpt lat="43.8742167" lon="12.71818"><ele>61.0</ele><time>2026-04-26T08:14:04.534Z</time></trkpt><trkpt lat="43.87408" lon="12.7182283"><ele>61.25</ele><time>2026-04-26T08:14:05.537Z</time></trkpt><trkpt lat="43.8739467" lon="12.718265"><ele>61.5</ele><time>2026-04-26T08:14:06.536Z</time></trkpt><trkpt lat="43.8738067" lon="12.718285"><ele>61.75</ele><time>2026-04-26T08:14:07.538Z</time></trkpt><trkpt lat="43.873655" lon="12.7182917"><ele>62.0</ele><time>2026-04-26T08:14:08.536Z</time></trkpt><trkpt lat="43.8734933" lon="12.7182933"><ele>62.333333333333336</ele><time>2026-04-26T08:14:09.537Z</time></trkpt><trkpt lat="43.8733233" lon="12.7182933"><ele>62.66666666666667</ele><time>2026-04-26T08:14:10.536Z</time></trkpt><trkpt lat="43.8731517" lon="12.7182967"><ele>63.0</ele><time>2026-04-26T08:14:11.536Z</time></trkpt><trkpt lat="43.8729883" lon="12.7182983"><ele>63.0</ele><time>2026-04-26T08:14:12.537Z</time></trkpt><trkpt lat="43.872835" lon="12.7183"><ele>63.0</ele><time>2026-04-26T08:14:13.536Z</time></trkpt><trkpt lat="43.8726817" lon="12.7183017"><ele>63.0</ele><time>2026-04-26T08:14:14.536Z</time></trkpt><trkpt lat="43.8725267" lon="12.7182983"><ele>63.0</ele><time>2026-04-26T08:14:15.538Z</time></trkpt><trkpt lat="43.872385" lon="12.718295"><ele>63.0</ele><time>2026-04-26T08:14:16.536Z</time></trkpt><trkpt lat="43.8722567" lon="12.7182917"><ele>63.0</ele><time>2026-04-26T08:14:17.537Z</time></trkpt><trkpt lat="43.8721483" lon="12.71828"><ele>63.0</ele><time>2026-04-26T08:14:18.54Z</time></trkpt><trkpt lat="43.8720483" lon="12.71826"><ele>63.0</ele><time>2026-04-26T08:14:19.541Z</time></trkpt><trkpt lat="43.871945" lon="12.7182267"><ele>63.0</ele><time>2026-04-26T08:14:20.536Z</time></trkpt><trkpt lat="43.87183" lon="12.7181717"><ele>63.0</ele><time>2026-04-26T08:14:21.536Z</time></trkpt><trkpt lat="43.8717017" lon="12.7181"><ele>63.0</ele><time>2026-04-26T08:14:22.536Z</time></trkpt><trkpt lat="43.8715633" lon="12.7180183"><ele>62.5</ele><time>2026-04-26T08:14:23.537Z</time></trkpt><trkpt lat="43.8714233" lon="12.7179317"><ele>62.0</ele><time>2026-04-26T08:14:24.536Z</time></trkpt><trkpt lat="43.8713" lon="12.7178517"><ele>61.5</ele><time>2026-04-26T08:14:25.536Z</time></trkpt><trkpt lat="43.871195" lon="12.717785"><ele>61.0</ele><time>2026-04-26T08:14:26.538Z</time></trkpt><trkpt lat="43.8711083" lon="12.71773"><ele>61.199999999999996</ele><time>2026-04-26T08:14:27.537Z</time></trkpt><trkpt lat="43.8710283" lon="12.717685"><ele>61.39999999999999</ele><time>2026-04-26T08:14:28.536Z</time></trkpt><trkpt lat="43.87095" lon="12.71766"><ele>61.6</ele><time>2026-04-26T08:14:29.536Z</time></trkpt><trkpt lat="43.870865" lon="12.7176583"><ele>61.8</ele><time>2026-04-26T08:14:30.533Z</time></trkpt><trkpt lat="43.870775" lon="12.717685"><ele>62.0</ele><time>2026-04-26T08:14:31.537Z</time></trkpt><trkpt lat="43.8706683" lon="12.71773"><ele>61.8</ele><time>2026-04-26T08:14:32.536Z</time></trkpt><trkpt lat="43.870555" lon="12.7177767"><ele>61.6</ele><time>2026-04-26T08:14:33.537Z</time></trkpt><trkpt lat="43.8704417" lon="12.71781"><ele>61.39999999999999</ele><time>2026-04-26T08:14:34.536Z</time></trkpt><trkpt lat="43.8703417" lon="12.7178317"><ele>61.199999999999996</ele><time>2026-04-26T08:14:35.536Z</time></trkpt><trkpt lat="43.8702433" lon="12.71785"><ele>61.0</ele><time>2026-04-26T08:14:36.533Z</time></trkpt><trkpt lat="43.87016" lon="12.717865"><ele>61.49999999999999</ele><time>2026-04-26T08:14:37.537Z</time></trkpt><trkpt lat="43.8700833" lon="12.717875"><ele>62.0</ele><time>2026-04-26T08:14:38.535Z</time></trkpt><trkpt lat="43.87002" lon="12.7178817"><ele>62.5</ele><time>2026-04-26T08:14:39.535Z</time></trkpt><trkpt lat="43.8699267" lon="12.7178967"><ele>63.0</ele><time>2026-04-26T08:14:41.535Z</time></trkpt><trkpt lat="43.869855" lon="12.71799"><ele>63.49999999999999</ele><time>2026-04-26T08:14:43.536Z</time></trkpt><trkpt lat="43.8698167" lon="12.7180817"><ele>64.0</ele><time>2026-04-26T08:14:44.537Z</time></trkpt><trkpt lat="43.8697867" lon="12.71819"><ele>63.99999999999999</ele><time>2026-04-26T08:14:45.536Z</time></trkpt><trkpt lat="43.8697667" lon="12.7182967"><ele>64.0</ele><time>2026-04-26T08:14:46.536Z</time></trkpt><trkpt lat="43.8697517" lon="12.7183983"><ele>64.0</ele><time>2026-04-26T08:14:47.536Z</time></trkpt><trkpt lat="43.869725" lon="12.7184967"><ele>64.0</ele><time>2026-04-26T08:14:48.536Z</time></trkpt><trkpt lat="43.8696833" lon="12.718605"><ele>63.99999999999999</ele><time>2026-04-26T08:14:49.537Z</time></trkpt><trkpt lat="43.8696067" lon="12.7186733"><ele>64.0</ele><time>2026-04-26T08:14:50.533Z</time></trkpt><trkpt lat="43.8695083" lon="12.7187067"><ele>64.0</ele><time>2026-04-26T08:14:51.533Z</time></trkpt><trkpt lat="43.8694017" lon="12.7187367"><ele>64.0</ele><time>2026-04-26T08:14:52.537Z</time></trkpt><trkpt lat="43.8692867" lon="12.7187617"><ele>64.0</ele><time>2026-04-26T08:14:53.536Z</time></trkpt><trkpt lat="43.8691683" lon="12.7187817"><ele>64.0</ele><time>2026-04-26T08:14:54.534Z</time></trkpt><trkpt lat="43.8690483" lon="12.7187783"><ele>65.75</ele><time>2026-04-26T08:14:55.536Z</time></trkpt><trkpt lat="43.868915" lon="12.7187533"><ele>67.5</ele><time>2026-04-26T08:14:56.536Z</time></trkpt><trkpt lat="43.8687783" lon="12.7187117"><ele>69.25</ele><time>2026-04-26T08:14:57.537Z</time></trkpt><trkpt lat="43.8686333" lon="12.71866"><ele>71.0</ele><time>2026-04-26T08:14:58.538Z</time></trkpt><trkpt lat="43.86849" lon="12.7186033"><ele>73.25</ele><time>2026-04-26T08:14:59.538Z</time></trkpt><trkpt lat="43.8683517" lon="12.7185367"><ele>75.5</ele><time>2026-04-26T08:15:00.536Z</time></trkpt><trkpt lat="43.8682133" lon="12.7184667"><ele>77.75</ele><time>2026-04-26T08:15:01.537Z</time></trkpt><trkpt lat="43.86807" lon="12.7184067"><ele>80.0</ele><time>2026-04-26T08:15:02.538Z</time></trkpt><trkpt lat="43.8679333" lon="12.71837"><ele>80.0</ele><time>2026-04-26T08:15:03.536Z</time></trkpt><trkpt lat="43.8678017" lon="12.7183583"><ele>80.0</ele><time>2026-04-26T08:15:04.536Z</time></trkpt><trkpt lat="43.8676633" lon="12.7183733"><ele>80.0</ele><time>2026-04-26T08:15:05.538Z</time></trkpt><trkpt lat="43.8675167" lon="12.7184133"><ele>80.0</ele><time>2026-04-26T08:15:06.537Z</time></trkpt><trkpt lat="43.867365" lon="12.7184683"><ele>82.0</ele><time>2026-04-26T08:15:07.537Z</time></trkpt><trkpt lat="43.8672067" lon="12.71853"><ele>84.0</ele><time>2026-04-26T08:15:08.536Z</time></trkpt><trkpt lat="43.8670433" lon="12.718595"><ele>86.0</ele><time>2026-04-26T08:15:09.536Z</time></trkpt><trkpt lat="43.8668767" lon="12.7186567"><ele>88.66666666666667</ele><time>2026-04-26T08:15:10.537Z</time></trkpt><trkpt lat="43.866705" lon="12.718715"><ele>91.33333333333333</ele><time>2026-04-26T08:15:11.537Z</time></trkpt><trkpt lat="43.86654" lon="12.718785"><ele>94.0</ele><time>2026-04-26T08:15:12.536Z</time></trkpt><trkpt lat="43.8663833" lon="12.71885"><ele>94.0</ele><time>2026-04-26T08:15:13.538Z</time></trkpt><trkpt lat="43.8662267" lon="12.7189117"><ele>94.0</ele><time>2026-04-26T08:15:14.537Z</time></trkpt><trkpt lat="43.8660733" lon="12.718975"><ele>94.0</ele><time>2026-04-26T08:15:15.537Z</time></trkpt><trkpt lat="43.8659167" lon="12.7190383"><ele>97.0</ele><time>2026-04-26T08:15:16.537Z</time></trkpt><trkpt lat="43.8657617" lon="12.7191067"><ele>100.0</ele><time>2026-04-26T08:15:17.533Z</time></trkpt><trkpt lat="43.8655967" lon="12.7191767"><ele>103.0</ele><time>2026-04-26T08:15:18.534Z</time></trkpt><trkpt lat="43.865425" lon="12.71925"><ele>103.0</ele><time>2026-04-26T08:15:19.534Z</time></trkpt><trkpt lat="43.8652433" lon="12.71932"><ele>103.0</ele><time>2026-04-26T08:15:20.534Z</time></trkpt><trkpt lat="43.8650717" lon="12.7193883"><ele>103.0</ele><time>2026-04-26T08:15:21.536Z</time></trkpt><trkpt lat="43.8649133" lon="12.71945"><ele>102.75</ele><time>2026-04-26T08:15:22.535Z</time></trkpt><trkpt lat="43.864765" lon="12.7195033"><ele>102.5</ele><time>2026-04-26T08:15:23.535Z</time></trkpt><trkpt lat="43.8646183" lon="12.7195417"><ele>102.25</ele><time>2026-04-26T08:15:24.535Z</time></trkpt><trkpt lat="43.8644767" lon="12.719585"><ele>102.0</ele><time>2026-04-26T08:15:25.535Z</time></trkpt><trkpt lat="43.86434" lon="12.7196567"><ele>104.25</ele><time>2026-04-26T08:15:26.533Z</time></trkpt><trkpt lat="43.864205" lon="12.71975"><ele>106.5</ele><time>2026-04-26T08:15:27.533Z</time></trkpt><trkpt lat="43.8640783" lon="12.71985"><ele>108.75</ele><time>2026-04-26T08:15:28.537Z</time></trkpt><trkpt lat="43.86395" lon="12.7199467"><ele>111.0</ele><time>2026-04-26T08:15:29.537Z</time></trkpt><trkpt lat="43.8638133" lon="12.720035"><ele>111.0</ele><time>2026-04-26T08:15:30.537Z</time></trkpt><trkpt lat="43.86366" lon="12.7201033"><ele>111.0</ele><time>2026-04-26T08:15:31.537Z</time></trkpt><trkpt lat="43.863495" lon="12.7201567"><ele>111.0</ele><time>2026-04-26T08:15:32.537Z</time></trkpt><trkpt lat="43.8633233" lon="12.720195"><ele>111.0</ele><time>2026-04-26T08:15:33.537Z</time></trkpt><trkpt lat="43.8631483" lon="12.7202133"><ele>111.0</ele><time>2026-04-26T08:15:34.537Z</time></trkpt><trkpt lat="43.8629683" lon="12.72023"><ele>111.0</ele><time>2026-04-26T08:15:35.536Z</time></trkpt><trkpt lat="43.862785" lon="12.7202517"><ele>112.0</ele><time>2026-04-26T08:15:36.533Z</time></trkpt><trkpt lat="43.8626" lon="12.7202733"><ele>113.0</ele><time>2026-04-26T08:15:37.541Z</time></trkpt><trkpt lat="43.8624217" lon="12.7203017"><ele>114.0</ele><time>2026-04-26T08:15:38.537Z</time></trkpt><trkpt lat="43.8622567" lon="12.7203267"><ele>114.0</ele><time>2026-04-26T08:15:39.536Z</time></trkpt><trkpt lat="43.86211" lon="12.7203483"><ele>114.0</ele><time>2026-04-26T08:15:40.536Z</time></trkpt><trkpt lat="43.8619833" lon="12.7203667"><ele>114.0</ele><time>2026-04-26T08:15:41.536Z</time></trkpt><trkpt lat="43.86188" lon="12.72038"><ele>114.0</ele><time>2026-04-26T08:15:42.538Z</time></trkpt><trkpt lat="43.861785" lon="12.7204033"><ele>114.83333333333333</ele><time>2026-04-26T08:15:43.536Z</time></trkpt><trkpt lat="43.861695" lon="12.7204367"><ele>115.66666666666666</ele><time>2026-04-26T08:15:44.537Z</time></trkpt><trkpt lat="43.8616133" lon="12.720475"><ele>116.5</ele><time>2026-04-26T08:15:45.536Z</time></trkpt><trkpt lat="43.8615367" lon="12.7205117"><ele>117.33333333333333</ele><time>2026-04-26T08:15:46.538Z</time></trkpt><trkpt lat="43.8614733" lon="12.7205367"><ele>118.16666666666666</ele><time>2026-04-26T08:15:47.533Z</time></trkpt><trkpt lat="43.8613817" lon="12.7205683"><ele>119.0</ele><time>2026-04-26T08:15:49.534Z</time></trkpt><trkpt lat="43.8613217" lon="12.720635"><ele>119.0</ele><time>2026-04-26T08:15:51.535Z</time></trkpt><trkpt lat="43.8612433" lon="12.72079"><ele>119.0</ele><time>2026-04-26T08:15:53.534Z</time></trkpt><trkpt lat="43.8611867" lon="12.7208817"><ele>119.0</ele><time>2026-04-26T08:15:54.534Z</time></trkpt><trkpt lat="43.8611233" lon="12.7209833"><ele>119.0</ele><time>2026-04-26T08:15:55.535Z</time></trkpt><trkpt lat="43.8610517" lon="12.721095"><ele>119.0</ele><time>2026-04-26T08:15:56.533Z</time></trkpt><trkpt lat="43.8609817" lon="12.721205"><ele>119.80000000000001</ele><time>2026-04-26T08:15:57.535Z</time></trkpt><trkpt lat="43.860915" lon="12.7213117"><ele>120.60000000000001</ele><time>2026-04-26T08:15:58.537Z</time></trkpt><trkpt lat="43.86085" lon="12.7214183"><ele>121.4</ele><time>2026-04-26T08:15:59.537Z</time></trkpt><trkpt lat="43.8607817" lon="12.7215267"><ele>122.2</ele><time>2026-04-26T08:16:00.538Z</time></trkpt><trkpt lat="43.8607133" lon="12.7216283"><ele>123.0</ele><time>2026-04-26T08:16:01.538Z</time></trkpt><trkpt lat="43.8606433" lon="12.7217383"><ele>123.0</ele><time>2026-04-26T08:16:02.537Z</time></trkpt><trkpt lat="43.8605833" lon="12.7218617"><ele>123.00000000000001</ele><time>2026-04-26T08:16:03.537Z</time></trkpt><trkpt lat="43.860535" lon="12.7219917"><ele>123.00000000000001</ele><time>2026-04-26T08:16:04.537Z</time></trkpt><trkpt lat="43.86049" lon="12.7221167"><ele>123.0</ele><time>2026-04-26T08:16:05.537Z</time></trkpt><trkpt lat="43.8604467" lon="12.72223"><ele>123.0</ele><time>2026-04-26T08:16:06.533Z</time></trkpt><trkpt lat="43.86041" lon="12.7223283"><ele>123.0</ele><time>2026-04-26T08:16:07.537Z</time></trkpt><trkpt lat="43.860375" lon="12.7224117"><ele>123.0</ele><time>2026-04-26T08:16:08.537Z</time></trkpt><trkpt lat="43.8603417" lon="12.722505"><ele>123.0</ele><time>2026-04-26T08:16:09.537Z</time></trkpt><trkpt lat="43.8603133" lon="12.7226067"><ele>123.0</ele><time>2026-04-26T08:16:10.537Z</time></trkpt><trkpt lat="43.8602883" lon="12.72272"><ele>123.0</ele><time>2026-04-26T08:16:11.537Z</time></trkpt><trkpt lat="43.8602533" lon="12.7228367"><ele>123.0</ele><time>2026-04-26T08:16:12.537Z</time></trkpt><trkpt lat="43.8602217" lon="12.7229583"><ele>123.2</ele><time>2026-04-26T08:16:13.537Z</time></trkpt><trkpt lat="43.8601833" lon="12.7230817"><ele>123.4</ele><time>2026-04-26T08:16:14.538Z</time></trkpt><trkpt lat="43.8601367" lon="12.7232117"><ele>123.60000000000001</ele><time>2026-04-26T08:16:15.537Z</time></trkpt><trkpt lat="43.860085" lon="12.7233367"><ele>123.80000000000001</ele><time>2026-04-26T08:16:16.537Z</time></trkpt><trkpt lat="43.8600233" lon="12.7234583"><ele>124.0</ele><time>2026-04-26T08:16:17.534Z</time></trkpt><trkpt lat="43.85996" lon="12.72358"><ele>122.5</ele><time>2026-04-26T08:16:18.534Z</time></trkpt><trkpt lat="43.85989" lon="12.723705"><ele>121.0</ele><time>2026-04-26T08:16:19.535Z</time></trkpt><trkpt lat="43.8598133" lon="12.72383"><ele>119.5</ele><time>2026-04-26T08:16:20.534Z</time></trkpt><trkpt lat="43.859735" lon="12.7239617"><ele>118.0</ele><time>2026-04-26T08:16:21.534Z</time></trkpt><trkpt lat="43.85966" lon="12.724095"><ele>118.0</ele><time>2026-04-26T08:16:22.534Z</time></trkpt><trkpt lat="43.8595917" lon="12.7242283"><ele>118.0</ele><time>2026-04-26T08:16:23.535Z</time></trkpt><trkpt lat="43.8595233" lon="12.72436"><ele>118.0</ele><time>2026-04-26T08:16:24.536Z</time></trkpt><trkpt lat="43.8594483" lon="12.7244967"><ele>118.0</ele><time>2026-04-26T08:16:25.534Z</time></trkpt><trkpt lat="43.8593717" lon="12.72464"><ele>118.0</ele><time>2026-04-26T08:16:26.533Z</time></trkpt><trkpt lat="43.8593017" lon="12.724785"><ele>118.0</ele><time>2026-04-26T08:16:27.533Z</time></trkpt><trkpt lat="43.8592317" lon="12.724945"><ele>118.0</ele><time>2026-04-26T08:16:28.533Z</time></trkpt><trkpt lat="43.8591733" lon="12.7251133"><ele>118.0</ele><time>2026-04-26T08:16:29.536Z</time></trkpt><trkpt lat="43.859125" lon="12.7252833"><ele>118.0</ele><time>2026-04-26T08:16:30.535Z</time></trkpt><trkpt lat="43.85909" lon="12.7254417"><ele>118.0</ele><time>2026-04-26T08:16:31.533Z</time></trkpt><trkpt lat="43.8590617" lon="12.7256"><ele>118.0</ele><time>2026-04-26T08:16:32.536Z</time></trkpt><trkpt lat="43.859035" lon="12.72577"><ele>118.0</ele><time>2026-04-26T08:16:33.536Z</time></trkpt><trkpt lat="43.8590033" lon="12.72595"><ele>118.5</ele><time>2026-04-26T08:16:34.536Z</time></trkpt><trkpt lat="43.8589683" lon="12.7261283"><ele>119.0</ele><time>2026-04-26T08:16:35.536Z</time></trkpt><trkpt lat="43.8589317" lon="12.726305"><ele>119.5</ele><time>2026-04-26T08:16:36.533Z</time></trkpt><trkpt lat="43.85889" lon="12.7264683"><ele>120.0</ele><time>2026-04-26T08:16:37.54Z</time></trkpt><trkpt lat="43.8588417" lon="12.726615"><ele>120.0</ele><time>2026-04-26T08:16:38.533Z</time></trkpt><trkpt lat="43.85879" lon="12.7267583"><ele>120.0</ele><time>2026-04-26T08:16:39.537Z</time></trkpt><trkpt lat="43.85873" lon="12.726895"><ele>120.0</ele><time>2026-04-26T08:16:40.533Z</time></trkpt><trkpt lat="43.8586683" lon="12.7270283"><ele>120.0</ele><time>2026-04-26T08:16:41.535Z</time></trkpt><trkpt lat="43.8586033" lon="12.7271583"><ele>119.25</ele><time>2026-04-26T08:16:42.536Z</time></trkpt><trkpt lat="43.8585383" lon="12.7272867"><ele>118.5</ele><time>2026-04-26T08:16:43.536Z</time></trkpt><trkpt lat="43.8584733" lon="12.727415"><ele>117.75</ele><time>2026-04-26T08:16:44.537Z</time></trkpt><trkpt lat="43.8584067" lon="12.7275467"><ele>117.0</ele><time>2026-04-26T08:16:45.538Z</time></trkpt><trkpt lat="43.85834" lon="12.7276817"><ele>118.39999999999999</ele><time>2026-04-26T08:16:46.538Z</time></trkpt><trkpt lat="43.858275" lon="12.727815"><ele>119.79999999999998</ele><time>2026-04-26T08:16:47.534Z</time></trkpt><trkpt lat="43.858215" lon="12.7279467"><ele>121.2</ele><time>2026-04-26T08:16:48.533Z</time></trkpt><trkpt lat="43.85816" lon="12.7280783"><ele>122.6</ele><time>2026-04-26T08:16:49.533Z</time></trkpt><trkpt lat="43.8581167" lon="12.7282033"><ele>124.0</ele><time>2026-04-26T08:16:50.532Z</time></trkpt><trkpt lat="43.8580817" lon="12.7283233"><ele>124.0</ele><time>2026-04-26T08:16:51.535Z</time></trkpt><trkpt lat="43.85805" lon="12.7284367"><ele>124.0</ele><time>2026-04-26T08:16:52.534Z</time></trkpt><trkpt lat="43.8580217" lon="12.7285333"><ele>124.0</ele><time>2026-04-26T08:16:53.534Z</time></trkpt><trkpt lat="43.8579717" lon="12.728645"><ele>124.0</ele><time>2026-04-26T08:16:55.535Z</time></trkpt><trkpt lat="43.8578933" lon="12.7286833"><ele>124.0</ele><time>2026-04-26T08:16:57.534Z</time></trkpt><trkpt lat="43.85777" lon="12.7286983"><ele>124.00000000000001</ele><time>2026-04-26T08:16:59.536Z</time></trkpt><trkpt lat="43.8577017" lon="12.7287017"><ele>124.0</ele><time>2026-04-26T08:17:00.536Z</time></trkpt><trkpt lat="43.857625" lon="12.7287017"><ele>124.0</ele><time>2026-04-26T08:17:01.537Z</time></trkpt><trkpt lat="43.85754" lon="12.7287017"><ele>124.0</ele><time>2026-04-26T08:17:02.536Z</time></trkpt><trkpt lat="43.8574517" lon="12.728705"><ele>124.00000000000001</ele><time>2026-04-26T08:17:03.536Z</time></trkpt><trkpt lat="43.8573667" lon="12.7287083"><ele>124.0</ele><time>2026-04-26T08:17:04.537Z</time></trkpt><trkpt lat="43.8572833" lon="12.7287117"><ele>123.83333333333334</ele><time>2026-04-26T08:17:05.536Z</time></trkpt><trkpt lat="43.8571967" lon="12.7287133"><ele>123.66666666666667</ele><time>2026-04-26T08:17:06.537Z</time></trkpt><trkpt lat="43.8571083" lon="12.7287117"><ele>123.5</ele><time>2026-04-26T08:17:07.536Z</time></trkpt><trkpt lat="43.8570167" lon="12.72871"><ele>123.33333333333334</ele><time>2026-04-26T08:17:08.536Z</time></trkpt><trkpt lat="43.85693" lon="12.7287067"><ele>123.16666666666667</ele><time>2026-04-26T08:17:09.539Z</time></trkpt><trkpt lat="43.856845" lon="12.728705"><ele>123.0</ele><time>2026-04-26T08:17:10.536Z</time></trkpt><trkpt lat="43.85676" lon="12.7287"><ele>122.66666666666667</ele><time>2026-04-26T08:17:11.536Z</time></trkpt><trkpt lat="43.8566783" lon="12.7286917"><ele>122.33333333333334</ele><time>2026-04-26T08:17:12.536Z</time></trkpt><trkpt lat="43.8565967" lon="12.72868"><ele>122.0</ele><time>2026-04-26T08:17:13.537Z</time></trkpt><trkpt lat="43.8565133" lon="12.7286617"><ele>121.66666666666667</ele><time>2026-04-26T08:17:14.536Z</time></trkpt><trkpt lat="43.8564317" lon="12.7286367"><ele>121.33333333333334</ele><time>2026-04-26T08:17:15.536Z</time></trkpt><trkpt lat="43.8563517" lon="12.7286117"><ele>121.0</ele><time>2026-04-26T08:17:16.533Z</time></trkpt><trkpt lat="43.856275" lon="12.7285883"><ele>121.0</ele><time>2026-04-26T08:17:17.534Z</time></trkpt><trkpt lat="43.856205" lon="12.7285667"><ele>120.99999999999999</ele><time>2026-04-26T08:17:18.536Z</time></trkpt><trkpt lat="43.8561383" lon="12.7285517"><ele>121.0</ele><time>2026-04-26T08:17:19.534Z</time></trkpt><trkpt lat="43.85607" lon="12.728535"><ele>121.0</ele><time>2026-04-26T08:17:20.534Z</time></trkpt><trkpt lat="43.8559983" lon="12.7285183"><ele>120.99999999999999</ele><time>2026-04-26T08:17:21.534Z</time></trkpt><trkpt lat="43.8559283" lon="12.7284967"><ele>121.0</ele><time>2026-04-26T08:17:22.534Z</time></trkpt><trkpt lat="43.8558617" lon="12.728465"><ele>121.0</ele><time>2026-04-26T08:17:23.536Z</time></trkpt><trkpt lat="43.855805" lon="12.7284217"><ele>119.50000000000001</ele><time>2026-04-26T08:17:24.536Z</time></trkpt><trkpt lat="43.8557517" lon="12.7283717"><ele>118.0</ele><time>2026-04-26T08:17:25.537Z</time></trkpt><trkpt lat="43.8556617" lon="12.7282417"><ele>116.5</ele><time>2026-04-26T08:17:27.538Z</time></trkpt><trkpt lat="43.85561" lon="12.728155"><ele>115.0</ele><time>2026-04-26T08:17:28.537Z</time></trkpt><trkpt lat="43.8555567" lon="12.728065"><ele>113.50000000000001</ele><time>2026-04-26T08:17:29.537Z</time></trkpt><trkpt lat="43.8554983" lon="12.72797"><ele>112.0</ele><time>2026-04-26T08:17:30.536Z</time></trkpt><trkpt lat="43.855445" lon="12.7278817"><ele>112.00000000000001</ele><time>2026-04-26T08:17:31.536Z</time></trkpt><trkpt lat="43.855395" lon="12.7277883"><ele>112.0</ele><time>2026-04-26T08:17:32.536Z</time></trkpt><trkpt lat="43.8553467" lon="12.7276983"><ele>112.0</ele><time>2026-04-26T08:17:33.537Z</time></trkpt><trkpt lat="43.8553" lon="12.7276167"><ele>112.0</ele><time>2026-04-26T08:17:34.533Z</time></trkpt><trkpt lat="43.855255" lon="12.7275367"><ele>112.00000000000001</ele><time>2026-04-26T08:17:35.535Z</time></trkpt><trkpt lat="43.8552133" lon="12.7274667"><ele>112.0</ele><time>2026-04-26T08:17:36.535Z</time></trkpt><trkpt lat="43.8551417" lon="12.72735"><ele>111.16666666666667</ele><time>2026-04-26T08:17:38.534Z</time></trkpt><trkpt lat="43.85508" lon="12.7272583"><ele>110.33333333333334</ele><time>2026-04-26T08:17:40.537Z</time></trkpt><trkpt lat="43.855035" lon="12.727195"><ele>109.5</ele><time>2026-04-26T08:17:42.534Z</time></trkpt><trkpt lat="43.8549767" lon="12.72714"><ele>108.66666666666666</ele><time>2026-04-26T08:17:55.537Z</time></trkpt><trkpt lat="43.8549267" lon="12.72708"><ele>107.83333333333333</ele><time>2026-04-26T08:17:57.537Z</time></trkpt><trkpt lat="43.85486" lon="12.7270017"><ele>107.0</ele><time>2026-04-26T08:18:00.537Z</time></trkpt><trkpt lat="43.8548" lon="12.7269167"><ele>106.85714285714286</ele><time>2026-04-26T08:18:03.536Z</time></trkpt><trkpt lat="43.8547583" lon="12.72684"><ele>106.71428571428572</ele><time>2026-04-26T08:18:05.536Z</time></trkpt><trkpt lat="43.8547083" lon="12.7267567"><ele>106.57142857142858</ele><time>2026-04-26T08:18:07.542Z</time></trkpt><trkpt lat="43.8546733" lon="12.726665"><ele>106.42857142857143</ele><time>2026-04-26T08:18:09.536Z</time></trkpt><trkpt lat="43.8546383" lon="12.7265683"><ele>106.28571428571428</ele><time>2026-04-26T08:18:11.536Z</time></trkpt><trkpt lat="43.8546033" lon="12.7264867"><ele>106.14285714285715</ele><time>2026-04-26T08:18:13.536Z</time></trkpt><trkpt lat="43.854565" lon="12.726415"><ele>106.0</ele><time>2026-04-26T08:18:15.537Z</time></trkpt><trkpt lat="43.8545167" lon="12.726305"><ele>106.00000000000001</ele><time>2026-04-26T08:18:18.534Z</time></trkpt><trkpt lat="43.8544867" lon="12.726225"><ele>106.0</ele><time>2026-04-26T08:18:20.533Z</time></trkpt><trkpt lat="43.854455" lon="12.72614"><ele>106.0</ele><time>2026-04-26T08:18:22.534Z</time></trkpt><trkpt lat="43.8544183" lon="12.7260517"><ele>106.0</ele><time>2026-04-26T08:18:24.536Z</time></trkpt><trkpt lat="43.8543783" lon="12.7259533"><ele>106.00000000000001</ele><time>2026-04-26T08:18:26.536Z</time></trkpt><trkpt lat="43.854325" lon="12.7258283"><ele>106.0</ele><time>2026-04-26T08:18:28.534Z</time></trkpt><trkpt lat="43.8542717" lon="12.725685"><ele>104.0</ele><time>2026-04-26T08:18:30.537Z</time></trkpt><trkpt lat="43.85422" lon="12.72554"><ele>102.0</ele><time>2026-04-26T08:18:32.536Z</time></trkpt><trkpt lat="43.854175" lon="12.7253983"><ele>100.0</ele><time>2026-04-26T08:18:34.537Z</time></trkpt><trkpt lat="43.8541317" lon="12.7252517"><ele>98.0</ele><time>2026-04-26T08:18:36.536Z</time></trkpt><trkpt lat="43.8540933" lon="12.7250917"><ele>97.28571428571429</ele><time>2026-04-26T08:18:38.536Z</time></trkpt><trkpt lat="43.8540733" lon="12.7250067"><ele>96.57142857142857</ele><time>2026-04-26T08:18:39.537Z</time></trkpt><trkpt lat="43.85405" lon="12.7249183"><ele>95.85714285714286</ele><time>2026-04-26T08:18:40.536Z</time></trkpt><trkpt lat="43.8540217" lon="12.7248283"><ele>95.14285714285714</ele><time>2026-04-26T08:18:41.537Z</time></trkpt><trkpt lat="43.853985" lon="12.72474"><ele>94.42857142857143</ele><time>2026-04-26T08:18:42.537Z</time></trkpt><trkpt lat="43.85394" lon="12.7246467"><ele>93.71428571428572</ele><time>2026-04-26T08:18:43.536Z</time></trkpt><trkpt lat="43.8538933" lon="12.7245567"><ele>93.0</ele><time>2026-04-26T08:18:44.536Z</time></trkpt><trkpt lat="43.8538433" lon="12.7244617"><ele>91.5</ele><time>2026-04-26T08:18:45.536Z</time></trkpt><trkpt lat="43.8537917" lon="12.724365"><ele>90.0</ele><time>2026-04-26T08:18:46.536Z</time></trkpt><trkpt lat="43.8537417" lon="12.724265"><ele>88.5</ele><time>2026-04-26T08:18:47.536Z</time></trkpt><trkpt lat="43.8536967" lon="12.7241633"><ele>87.0</ele><time>2026-04-26T08:18:48.536Z</time></trkpt><trkpt lat="43.853655" lon="12.7240617"><ele>85.5</ele><time>2026-04-26T08:18:49.536Z</time></trkpt><trkpt lat="43.8536133" lon="12.72396"><ele>84.0</ele><time>2026-04-26T08:18:50.536Z</time></trkpt><trkpt lat="43.8535683" lon="12.7238633"><ele>84.0</ele><time>2026-04-26T08:18:51.536Z</time></trkpt><trkpt lat="43.8535233" lon="12.7237683"><ele>84.0</ele><time>2026-04-26T08:18:52.537Z</time></trkpt><trkpt lat="43.8534767" lon="12.7236783"><ele>84.0</ele><time>2026-04-26T08:18:53.536Z</time></trkpt><trkpt lat="43.853425" lon="12.7235933"><ele>84.0</ele><time>2026-04-26T08:18:54.536Z</time></trkpt><trkpt lat="43.85337" lon="12.7235117"><ele>84.0</ele><time>2026-04-26T08:18:55.536Z</time></trkpt><trkpt lat="43.8533167" lon="12.72343"><ele>84.0</ele><time>2026-04-26T08:18:56.536Z</time></trkpt><trkpt lat="43.8532583" lon="12.7233433"><ele>82.0</ele><time>2026-04-26T08:18:57.536Z</time></trkpt><trkpt lat="43.8532017" lon="12.7232583"><ele>80.0</ele><time>2026-04-26T08:18:58.537Z</time></trkpt><trkpt lat="43.8531383" lon="12.7231717"><ele>78.0</ele><time>2026-04-26T08:18:59.536Z</time></trkpt><trkpt lat="43.85308" lon="12.7230867"><ele>76.0</ele><time>2026-04-26T08:19:00.536Z</time></trkpt><trkpt lat="43.8530217" lon="12.7230017"><ele>74.0</ele><time>2026-04-26T08:19:01.536Z</time></trkpt><trkpt lat="43.85297" lon="12.7229217"><ele>72.0</ele><time>2026-04-26T08:19:02.537Z</time></trkpt><trkpt lat="43.8529167" lon="12.72285"><ele>72.00000000000001</ele><time>2026-04-26T08:19:03.534Z</time></trkpt><trkpt lat="43.8528617" lon="12.7227767"><ele>72.0</ele><time>2026-04-26T08:19:04.538Z</time></trkpt><trkpt lat="43.8528067" lon="12.7227017"><ele>72.0</ele><time>2026-04-26T08:19:05.536Z</time></trkpt><trkpt lat="43.8527617" lon="12.72262"><ele>72.0</ele><time>2026-04-26T08:19:06.536Z</time></trkpt><trkpt lat="43.8527217" lon="12.7225383"><ele>72.0</ele><time>2026-04-26T08:19:07.537Z</time></trkpt><trkpt lat="43.8526833" lon="12.7224517"><ele>72.00000000000001</ele><time>2026-04-26T08:19:08.536Z</time></trkpt><trkpt lat="43.8526483" lon="12.7223617"><ele>72.0</ele><time>2026-04-26T08:19:09.537Z</time></trkpt><trkpt lat="43.8526183" lon="12.722255"><ele>69.25</ele><time>2026-04-26T08:19:10.536Z</time></trkpt><trkpt lat="43.85259" lon="12.722115"><ele>66.5</ele><time>2026-04-26T08:19:11.536Z</time></trkpt><trkpt lat="43.8525667" lon="12.7219467"><ele>63.75</ele><time>2026-04-26T08:19:12.536Z</time></trkpt><trkpt lat="43.852545" lon="12.72175"><ele>61.0</ele><time>2026-04-26T08:19:13.537Z</time></trkpt><trkpt lat="43.8525183" lon="12.7215383"><ele>60.75</ele><time>2026-04-26T08:19:14.537Z</time></trkpt><trkpt lat="43.8524933" lon="12.7213417"><ele>60.5</ele><time>2026-04-26T08:19:15.537Z</time></trkpt><trkpt lat="43.8524717" lon="12.72116"><ele>60.25</ele><time>2026-04-26T08:19:16.537Z</time></trkpt><trkpt lat="43.8524533" lon="12.7209867"><ele>60.0</ele><time>2026-04-26T08:19:17.536Z</time></trkpt><trkpt lat="43.8524317" lon="12.7208183"><ele>60.5</ele><time>2026-04-26T08:19:18.536Z</time></trkpt><trkpt lat="43.85241" lon="12.72064"><ele>61.0</ele><time>2026-04-26T08:19:19.537Z</time></trkpt><trkpt lat="43.8523917" lon="12.7204667"><ele>61.5</ele><time>2026-04-26T08:19:20.536Z</time></trkpt><trkpt lat="43.852375" lon="12.7203083"><ele>62.0</ele><time>2026-04-26T08:19:21.536Z</time></trkpt><trkpt lat="43.85236" lon="12.7201633"><ele>62.8</ele><time>2026-04-26T08:19:22.536Z</time></trkpt><trkpt lat="43.852345" lon="12.7200233"><ele>63.6</ele><time>2026-04-26T08:19:23.533Z</time></trkpt><trkpt lat="43.85233" lon="12.7198917"><ele>64.39999999999999</ele><time>2026-04-26T08:19:24.538Z</time></trkpt><trkpt lat="43.8523083" lon="12.7197633"><ele>65.2</ele><time>2026-04-26T08:19:25.534Z</time></trkpt><trkpt lat="43.8522867" lon="12.7196433"><ele>66.0</ele><time>2026-04-26T08:19:26.538Z</time></trkpt><trkpt lat="43.85227" lon="12.7195417"><ele>66.0</ele><time>2026-04-26T08:19:27.533Z</time></trkpt><trkpt lat="43.8522467" lon="12.7194183"><ele>66.0</ele><time>2026-04-26T08:19:29.533Z</time></trkpt><trkpt lat="43.8521517" lon="12.719405"><ele>66.0</ele><time>2026-04-26T08:19:33.533Z</time></trkpt><trkpt lat="43.8520183" lon="12.7194883"><ele>66.0</ele><time>2026-04-26T08:19:35.534Z</time></trkpt><trkpt lat="43.8519167" lon="12.7195583"><ele>66.0</ele><time>2026-04-26T08:19:36.534Z</time></trkpt><trkpt lat="43.85182" lon="12.719625"><ele>65.25</ele><time>2026-04-26T08:19:37.534Z</time></trkpt><trkpt lat="43.85171" lon="12.7196983"><ele>64.5</ele><time>2026-04-26T08:19:38.533Z</time></trkpt><trkpt lat="43.851585" lon="12.71978"><ele>63.75</ele><time>2026-04-26T08:19:39.534Z</time></trkpt><trkpt lat="43.8514467" lon="12.7198683"><ele>63.0</ele><time>2026-04-26T08:19:40.534Z</time></trkpt><trkpt lat="43.8513067" lon="12.7199633"><ele>63.0</ele><time>2026-04-26T08:19:41.533Z</time></trkpt><trkpt lat="43.8511533" lon="12.7200667"><ele>63.0</ele><time>2026-04-26T08:19:42.534Z</time></trkpt><trkpt lat="43.850995" lon="12.72018"><ele>63.0</ele><time>2026-04-26T08:19:43.535Z</time></trkpt><trkpt lat="43.8508333" lon="12.7202933"><ele>62.66666666666667</ele><time>2026-04-26T08:19:44.537Z</time></trkpt><trkpt lat="43.85067" lon="12.7204133"><ele>62.333333333333336</ele><time>2026-04-26T08:19:45.533Z</time></trkpt><trkpt lat="43.8505067" lon="12.720525"><ele>62.0</ele><time>2026-04-26T08:19:46.535Z</time></trkpt><trkpt lat="43.8503533" lon="12.720635"><ele>62.0</ele><time>2026-04-26T08:19:47.534Z</time></trkpt><trkpt lat="43.85021" lon="12.7207383"><ele>62.0</ele><time>2026-04-26T08:19:48.536Z</time></trkpt><trkpt lat="43.85007" lon="12.7208283"><ele>62.0</ele><time>2026-04-26T08:19:49.535Z</time></trkpt><trkpt lat="43.8499433" lon="12.7209133"><ele>61.6</ele><time>2026-04-26T08:19:50.538Z</time></trkpt><trkpt lat="43.84983" lon="12.7209983"><ele>61.2</ele><time>2026-04-26T08:19:51.536Z</time></trkpt><trkpt lat="43.8497417" lon="12.7210967"><ele>60.8</ele><time>2026-04-26T08:19:52.536Z</time></trkpt><trkpt lat="43.8496783" lon="12.7212117"><ele>60.4</ele><time>2026-04-26T08:19:53.536Z</time></trkpt><trkpt lat="43.8496533" lon="12.721345"><ele>60.0</ele><time>2026-04-26T08:19:54.537Z</time></trkpt><trkpt lat="43.849665" lon="12.721495"><ele>59.0</ele><time>2026-04-26T08:19:55.536Z</time></trkpt><trkpt lat="43.84972" lon="12.7216867"><ele>58.0</ele><time>2026-04-26T08:19:56.536Z</time></trkpt><trkpt lat="43.8497967" lon="12.721915"><ele>57.0</ele><time>2026-04-26T08:19:57.537Z</time></trkpt><trkpt lat="43.8498733" lon="12.72214"><ele>56.33333333333333</ele><time>2026-04-26T08:19:58.537Z</time></trkpt><trkpt lat="43.8499417" lon="12.7223583"><ele>55.666666666666664</ele><time>2026-04-26T08:19:59.533Z</time></trkpt><trkpt lat="43.8500083" lon="12.7225617"><ele>55.0</ele><time>2026-04-26T08:20:00.536Z</time></trkpt><trkpt lat="43.8500483" lon="12.7227483"><ele>55.0</ele><time>2026-04-26T08:20:01.534Z</time></trkpt><trkpt lat="43.8500633" lon="12.7229233"><ele>55.0</ele><time>2026-04-26T08:20:02.534Z</time></trkpt><trkpt lat="43.8500483" lon="12.7230917"><ele>55.0</ele><time>2026-04-26T08:20:03.534Z</time></trkpt><trkpt lat="43.849985" lon="12.7232433"><ele>55.0</ele><time>2026-04-26T08:20:04.537Z</time></trkpt><trkpt lat="43.8498783" lon="12.7233817"><ele>55.0</ele><time>2026-04-26T08:20:05.536Z</time></trkpt><trkpt lat="43.849755" lon="12.7235083"><ele>55.0</ele><time>2026-04-26T08:20:06.538Z</time></trkpt><trkpt lat="43.84964" lon="12.7236317"><ele>55.0</ele><time>2026-04-26T08:20:07.538Z</time></trkpt><trkpt lat="43.8495283" lon="12.7237467"><ele>55.0</ele><time>2026-04-26T08:20:08.537Z</time></trkpt><trkpt lat="43.8494267" lon="12.7238483"><ele>55.25</ele><time>2026-04-26T08:20:09.537Z</time></trkpt><trkpt lat="43.849325" lon="12.723925"><ele>55.5</ele><time>2026-04-26T08:20:10.537Z</time></trkpt><trkpt lat="43.8492183" lon="12.7239533"><ele>55.75</ele><time>2026-04-26T08:20:11.538Z</time></trkpt><trkpt lat="43.8491067" lon="12.72393"><ele>56.0</ele><time>2026-04-26T08:20:12.536Z</time></trkpt><trkpt lat="43.8489917" lon="12.7238483"><ele>55.0</ele><time>2026-04-26T08:20:13.537Z</time></trkpt><trkpt lat="43.8488783" lon="12.7237133"><ele>54.0</ele><time>2026-04-26T08:20:14.537Z</time></trkpt><trkpt lat="43.8487667" lon="12.7235383"><ele>53.0</ele><time>2026-04-26T08:20:15.538Z</time></trkpt><trkpt lat="43.8486483" lon="12.72334"><ele>53.0</ele><time>2026-04-26T08:20:16.537Z</time></trkpt><trkpt lat="43.848515" lon="12.72313"><ele>53.0</ele><time>2026-04-26T08:20:17.538Z</time></trkpt><trkpt lat="43.8483733" lon="12.72291"><ele>53.0</ele><time>2026-04-26T08:20:18.537Z</time></trkpt><trkpt lat="43.8482333" lon="12.7226967"><ele>54.0</ele><time>2026-04-26T08:20:19.537Z</time></trkpt><trkpt lat="43.8481067" lon="12.7224933"><ele>55.0</ele><time>2026-04-26T08:20:20.538Z</time></trkpt><trkpt lat="43.84799" lon="12.7222917"><ele>56.0</ele><time>2026-04-26T08:20:21.537Z</time></trkpt><trkpt lat="43.8478917" lon="12.7220933"><ele>55.66666666666667</ele><time>2026-04-26T08:20:22.537Z</time></trkpt><trkpt lat="43.847815" lon="12.7218983"><ele>55.33333333333333</ele><time>2026-04-26T08:20:23.536Z</time></trkpt><trkpt lat="43.8477483" lon="12.7217"><ele>55.0</ele><time>2026-04-26T08:20:24.537Z</time></trkpt><trkpt lat="43.847695" lon="12.721485"><ele>55.0</ele><time>2026-04-26T08:20:25.537Z</time></trkpt><trkpt lat="43.8476517" lon="12.721255"><ele>55.0</ele><time>2026-04-26T08:20:26.537Z</time></trkpt><trkpt lat="43.8476117" lon="12.7210367"><ele>55.0</ele><time>2026-04-26T08:20:27.537Z</time></trkpt><trkpt lat="43.8475667" lon="12.7208367"><ele>54.5</ele><time>2026-04-26T08:20:28.537Z</time></trkpt><trkpt lat="43.84751" lon="12.7206533"><ele>54.0</ele><time>2026-04-26T08:20:29.537Z</time></trkpt><trkpt lat="43.847455" lon="12.7204883"><ele>53.5</ele><time>2026-04-26T08:20:30.537Z</time></trkpt><trkpt lat="43.8474083" lon="12.7203417"><ele>53.0</ele><time>2026-04-26T08:20:31.538Z</time></trkpt><trkpt lat="43.847355" lon="12.720235"><ele>53.0</ele><time>2026-04-26T08:20:32.536Z</time></trkpt><trkpt lat="43.847285" lon="12.72017"><ele>53.0</ele><time>2026-04-26T08:20:33.536Z</time></trkpt><trkpt lat="43.8471883" lon="12.7201967"><ele>53.0</ele><time>2026-04-26T08:20:34.538Z</time></trkpt><trkpt lat="43.8470967" lon="12.7202417"><ele>53.0</ele><time>2026-04-26T08:20:35.537Z</time></trkpt><trkpt lat="43.8469867" lon="12.7203367"><ele>53.0</ele><time>2026-04-26T08:20:36.537Z</time></trkpt><trkpt lat="43.8468533" lon="12.720425"><ele>53.0</ele><time>2026-04-26T08:20:37.537Z</time></trkpt><trkpt lat="43.84669" lon="12.7205"><ele>53.0</ele><time>2026-04-26T08:20:38.537Z</time></trkpt><trkpt lat="43.84651" lon="12.7205533"><ele>53.0</ele><time>2026-04-26T08:20:39.537Z</time></trkpt><trkpt lat="43.8463267" lon="12.720585"><ele>53.0</ele><time>2026-04-26T08:20:40.536Z</time></trkpt><trkpt lat="43.8461433" lon="12.7205933"><ele>53.0</ele><time>2026-04-26T08:20:41.536Z</time></trkpt><trkpt lat="43.845955" lon="12.7205783"><ele>53.0</ele><time>2026-04-26T08:20:42.537Z</time></trkpt><trkpt lat="43.84576" lon="12.7205417"><ele>55.66666666666667</ele><time>2026-04-26T08:20:43.537Z</time></trkpt><trkpt lat="43.84555" lon="12.7204967"><ele>58.33333333333333</ele><time>2026-04-26T08:20:44.537Z</time></trkpt><trkpt lat="43.8453317" lon="12.72044"><ele>61.0</ele><time>2026-04-26T08:20:45.536Z</time></trkpt><trkpt lat="43.8451083" lon="12.7203767"><ele>61.0</ele><time>2026-04-26T08:20:46.536Z</time></trkpt><trkpt lat="43.8448783" lon="12.7203117"><ele>61.0</ele><time>2026-04-26T08:20:47.536Z</time></trkpt><trkpt lat="43.8446383" lon="12.7202367"><ele>61.0</ele><time>2026-04-26T08:20:48.536Z</time></trkpt><trkpt lat="43.8443867" lon="12.7201567"><ele>61.0</ele><time>2026-04-26T08:20:49.536Z</time></trkpt><trkpt lat="43.8441283" lon="12.7200767"><ele>61.5</ele><time>2026-04-26T08:20:50.536Z</time></trkpt><trkpt lat="43.843865" lon="12.719995"><ele>62.0</ele><time>2026-04-26T08:20:51.536Z</time></trkpt><trkpt lat="43.8436067" lon="12.719915"><ele>61.0</ele><time>2026-04-26T08:20:52.536Z</time></trkpt><trkpt lat="43.8433483" lon="12.7198333"><ele>60.0</ele><time>2026-04-26T08:20:53.537Z</time></trkpt><trkpt lat="43.843095" lon="12.7197533"><ele>60.0</ele><time>2026-04-26T08:20:54.537Z</time></trkpt><trkpt lat="43.8428433" lon="12.7196733"><ele>60.0</ele><time>2026-04-26T08:20:55.536Z</time></trkpt><trkpt lat="43.842595" lon="12.719595"><ele>61.5</ele><time>2026-04-26T08:20:56.536Z</time></trkpt><trkpt lat="43.842355" lon="12.719525"><ele>63.0</ele><time>2026-04-26T08:20:57.537Z</time></trkpt><trkpt lat="43.8421283" lon="12.7194567"><ele>63.66666666666667</ele><time>2026-04-26T08:20:58.536Z</time></trkpt><trkpt lat="43.8419117" lon="12.719385"><ele>64.33333333333334</ele><time>2026-04-26T08:20:59.536Z</time></trkpt><trkpt lat="43.8417067" lon="12.7193017"><ele>65.0</ele><time>2026-04-26T08:21:00.537Z</time></trkpt><trkpt lat="43.8415133" lon="12.7192083"><ele>65.33333333333334</ele><time>2026-04-26T08:21:01.537Z</time></trkpt><trkpt lat="43.84133" lon="12.7191067"><ele>65.66666666666667</ele><time>2026-04-26T08:21:02.537Z</time></trkpt><trkpt lat="43.8411533" lon="12.719"><ele>66.0</ele><time>2026-04-26T08:21:03.536Z</time></trkpt><trkpt lat="43.840975" lon="12.7188967"><ele>66.33333333333333</ele><time>2026-04-26T08:21:04.536Z</time></trkpt><trkpt lat="43.8407933" lon="12.7187933"><ele>66.66666666666666</ele><time>2026-04-26T08:21:05.536Z</time></trkpt><trkpt lat="43.8406083" lon="12.7186917"><ele>67.0</ele><time>2026-04-26T08:21:06.537Z</time></trkpt><trkpt lat="43.8404167" lon="12.718585"><ele>67.0</ele><time>2026-04-26T08:21:07.537Z</time></trkpt><trkpt lat="43.840215" lon="12.7184683"><ele>67.0</ele><time>2026-04-26T08:21:08.536Z</time></trkpt><trkpt lat="43.8400033" lon="12.7183483"><ele>67.0</ele><time>2026-04-26T08:21:09.536Z</time></trkpt><trkpt lat="43.8397817" lon="12.718225"><ele>67.0</ele><time>2026-04-26T08:21:10.536Z</time></trkpt><trkpt lat="43.8395517" lon="12.7180983"><ele>67.0</ele><time>2026-04-26T08:21:11.536Z</time></trkpt><trkpt lat="43.839315" lon="12.71797"><ele>67.0</ele><time>2026-04-26T08:21:12.537Z</time></trkpt><trkpt lat="43.8390817" lon="12.7178417"><ele>67.0</ele><time>2026-04-26T08:21:13.536Z</time></trkpt><trkpt lat="43.838855" lon="12.7177283"><ele>67.5</ele><time>2026-04-26T08:21:14.536Z</time></trkpt><trkpt lat="43.8386283" lon="12.7176383"><ele>68.0</ele><time>2026-04-26T08:21:15.537Z</time></trkpt><trkpt lat="43.8383983" lon="12.71758"><ele>68.0</ele><time>2026-04-26T08:21:16.536Z</time></trkpt><trkpt lat="43.8381617" lon="12.717545"><ele>68.0</ele><time>2026-04-26T08:21:17.536Z</time></trkpt><trkpt lat="43.8379217" lon="12.7175183"><ele>68.0</ele><time>2026-04-26T08:21:18.536Z</time></trkpt><trkpt lat="43.8376783" lon="12.7174917"><ele>68.0</ele><time>2026-04-26T08:21:19.537Z</time></trkpt><trkpt lat="43.8374317" lon="12.717465"><ele>68.5</ele><time>2026-04-26T08:21:20.533Z</time></trkpt><trkpt lat="43.8371817" lon="12.7174383"><ele>69.0</ele><time>2026-04-26T08:21:21.536Z</time></trkpt><trkpt lat="43.8369283" lon="12.7174083"><ele>70.5</ele><time>2026-04-26T08:21:22.537Z</time></trkpt><trkpt lat="43.8366767" lon="12.717375"><ele>72.0</ele><time>2026-04-26T08:21:23.537Z</time></trkpt><trkpt lat="43.83644" lon="12.7173383"><ele>72.0</ele><time>2026-04-26T08:21:24.536Z</time></trkpt><trkpt lat="43.83622" lon="12.717305"><ele>72.0</ele><time>2026-04-26T08:21:25.536Z</time></trkpt><trkpt lat="43.83601" lon="12.7172683"><ele>72.0</ele><time>2026-04-26T08:21:26.536Z</time></trkpt><trkpt lat="43.8358083" lon="12.7172217"><ele>72.66666666666667</ele><time>2026-04-26T08:21:27.538Z</time></trkpt><trkpt lat="43.8355983" lon="12.71717"><ele>73.33333333333334</ele><time>2026-04-26T08:21:28.536Z</time></trkpt><trkpt lat="43.835375" lon="12.717105"><ele>74.0</ele><time>2026-04-26T08:21:29.536Z</time></trkpt><trkpt lat="43.8351483" lon="12.717025"><ele>75.0</ele><time>2026-04-26T08:21:30.539Z</time></trkpt><trkpt lat="43.834935" lon="12.7169417"><ele>76.0</ele><time>2026-04-26T08:21:31.537Z</time></trkpt><trkpt lat="43.834735" lon="12.71685"><ele>77.0</ele><time>2026-04-26T08:21:32.538Z</time></trkpt><trkpt lat="43.8345433" lon="12.716745"><ele>77.66666666666667</ele><time>2026-04-26T08:21:33.536Z</time></trkpt><trkpt lat="43.83435" lon="12.7166333"><ele>78.33333333333333</ele><time>2026-04-26T08:21:34.536Z</time></trkpt><trkpt lat="43.83416" lon="12.71652"><ele>79.0</ele><time>2026-04-26T08:21:35.537Z</time></trkpt><trkpt lat="43.8339767" lon="12.716415"><ele>80.33333333333333</ele><time>2026-04-26T08:21:36.536Z</time></trkpt><trkpt lat="43.8337967" lon="12.7163083"><ele>81.66666666666667</ele><time>2026-04-26T08:21:37.537Z</time></trkpt><trkpt lat="43.833625" lon="12.7162033"><ele>83.0</ele><time>2026-04-26T08:21:38.537Z</time></trkpt><trkpt lat="43.8334583" lon="12.7161"><ele>84.66666666666667</ele><time>2026-04-26T08:21:39.536Z</time></trkpt><trkpt lat="43.83329" lon="12.7160017"><ele>86.33333333333333</ele><time>2026-04-26T08:21:40.537Z</time></trkpt><trkpt lat="43.8331217" lon="12.7158983"><ele>88.0</ele><time>2026-04-26T08:21:41.538Z</time></trkpt><trkpt lat="43.832955" lon="12.7157983"><ele>88.0</ele><time>2026-04-26T08:21:42.537Z</time></trkpt><trkpt lat="43.8327917" lon="12.715705"><ele>88.0</ele><time>2026-04-26T08:21:43.536Z</time></trkpt><trkpt lat="43.8326283" lon="12.7156133"><ele>88.0</ele><time>2026-04-26T08:21:44.536Z</time></trkpt><trkpt lat="43.8324667" lon="12.7155217"><ele>88.66666666666666</ele><time>2026-04-26T08:21:45.536Z</time></trkpt><trkpt lat="43.832305" lon="12.7154333"><ele>89.33333333333333</ele><time>2026-04-26T08:21:46.534Z</time></trkpt><trkpt lat="43.8321433" lon="12.7153417"><ele>90.0</ele><time>2026-04-26T08:21:47.534Z</time></trkpt><trkpt lat="43.8319833" lon="12.7152467"><ele>90.0</ele><time>2026-04-26T08:21:48.533Z</time></trkpt><trkpt lat="43.831825" lon="12.7151533"><ele>90.0</ele><time>2026-04-26T08:21:49.535Z</time></trkpt><trkpt lat="43.8316633" lon="12.7150567"><ele>90.0</ele><time>2026-04-26T08:21:50.535Z</time></trkpt><trkpt lat="43.8315117" lon="12.71496"><ele>90.75</ele><time>2026-04-26T08:21:51.534Z</time></trkpt><trkpt lat="43.831375" lon="12.7148583"><ele>91.5</ele><time>2026-04-26T08:21:52.534Z</time></trkpt><trkpt lat="43.8312567" lon="12.7147533"><ele>92.25</ele><time>2026-04-26T08:21:53.536Z</time></trkpt><trkpt lat="43.8311533" lon="12.7146117"><ele>93.0</ele><time>2026-04-26T08:21:54.536Z</time></trkpt><trkpt lat="43.8310733" lon="12.7144217"><ele>93.0</ele><time>2026-04-26T08:21:55.533Z</time></trkpt><trkpt lat="43.8310167" lon="12.714205"><ele>93.0</ele><time>2026-04-26T08:21:56.536Z</time></trkpt><trkpt lat="43.8309683" lon="12.71399"><ele>93.0</ele><time>2026-04-26T08:21:57.536Z</time></trkpt><trkpt lat="43.8309217" lon="12.713775"><ele>95.66666666666666</ele><time>2026-04-26T08:21:58.536Z</time></trkpt><trkpt lat="43.8308683" lon="12.713565"><ele>98.33333333333333</ele><time>2026-04-26T08:21:59.537Z</time></trkpt><trkpt lat="43.8308167" lon="12.7133633"><ele>101.0</ele><time>2026-04-26T08:22:00.536Z</time></trkpt><trkpt lat="43.8307633" lon="12.7131683"><ele>101.0</ele><time>2026-04-26T08:22:01.537Z</time></trkpt><trkpt lat="43.8307133" lon="12.7129783"><ele>101.0</ele><time>2026-04-26T08:22:02.537Z</time></trkpt><trkpt lat="43.830655" lon="12.7127867"><ele>101.0</ele><time>2026-04-26T08:22:03.536Z</time></trkpt><trkpt lat="43.83059" lon="12.7125883"><ele>101.33333333333333</ele><time>2026-04-26T08:22:04.536Z</time></trkpt><trkpt lat="43.8305167" lon="12.7123967"><ele>101.66666666666666</ele><time>2026-04-26T08:22:05.538Z</time></trkpt><trkpt lat="43.830445" lon="12.712205"><ele>102.0</ele><time>2026-04-26T08:22:06.537Z</time></trkpt><trkpt lat="43.830375" lon="12.7120133"><ele>102.5</ele><time>2026-04-26T08:22:07.536Z</time></trkpt><trkpt lat="43.83031" lon="12.71183"><ele>103.0</ele><time>2026-04-26T08:22:08.536Z</time></trkpt><trkpt lat="43.8302483" lon="12.7116617"><ele>103.5</ele><time>2026-04-26T08:22:09.536Z</time></trkpt><trkpt lat="43.8301917" lon="12.7115033"><ele>104.0</ele><time>2026-04-26T08:22:10.536Z</time></trkpt><trkpt lat="43.8301383" lon="12.711355"><ele>105.80000000000001</ele><time>2026-04-26T08:22:11.536Z</time></trkpt><trkpt lat="43.83009" lon="12.7112183"><ele>107.60000000000001</ele><time>2026-04-26T08:22:12.537Z</time></trkpt><trkpt lat="43.8300417" lon="12.7110867"><ele>109.4</ele><time>2026-04-26T08:22:13.537Z</time></trkpt><trkpt lat="43.82999" lon="12.7109667"><ele>111.2</ele><time>2026-04-26T08:22:14.537Z</time></trkpt><trkpt lat="43.829935" lon="12.710865"><ele>113.0</ele><time>2026-04-26T08:22:15.536Z</time></trkpt><trkpt lat="43.82988" lon="12.7107783"><ele>112.99999999999999</ele><time>2026-04-26T08:22:16.533Z</time></trkpt><trkpt lat="43.829835" lon="12.710715"><ele>113.0</ele><time>2026-04-26T08:22:17.535Z</time></trkpt><trkpt lat="43.8297633" lon="12.71066"><ele>113.0</ele><time>2026-04-26T08:22:19.535Z</time></trkpt><trkpt lat="43.8296867" lon="12.7105983"><ele>113.0</ele><time>2026-04-26T08:22:22.535Z</time></trkpt><trkpt lat="43.82957" lon="12.7105133"><ele>112.99999999999999</ele><time>2026-04-26T08:22:24.535Z</time></trkpt><trkpt lat="43.8294917" lon="12.7104917"><ele>113.0</ele><time>2026-04-26T08:22:25.536Z</time></trkpt><trkpt lat="43.829395" lon="12.7104883"><ele>115.60000000000001</ele><time>2026-04-26T08:22:26.534Z</time></trkpt><trkpt lat="43.82929" lon="12.7104933"><ele>118.20000000000002</ele><time>2026-04-26T08:22:27.535Z</time></trkpt><trkpt lat="43.8291933" lon="12.7105033"><ele>120.8</ele><time>2026-04-26T08:22:28.536Z</time></trkpt><trkpt lat="43.8291017" lon="12.7104933"><ele>123.4</ele><time>2026-04-26T08:22:29.535Z</time></trkpt><trkpt lat="43.82902" lon="12.71045"><ele>126.0</ele><time>2026-04-26T08:22:30.535Z</time></trkpt><trkpt lat="43.828955" lon="12.7103517"><ele>121.0</ele><time>2026-04-26T08:22:31.535Z</time></trkpt><trkpt lat="43.828875" lon="12.71024"><ele>116.0</ele><time>2026-04-26T08:22:32.534Z</time></trkpt><trkpt lat="43.8287767" lon="12.7101483"><ele>111.0</ele><time>2026-04-26T08:22:33.534Z</time></trkpt><trkpt lat="43.828675" lon="12.7100533"><ele>106.0</ele><time>2026-04-26T08:22:34.534Z</time></trkpt><trkpt lat="43.8285717" lon="12.7099583"><ele>107.6</ele><time>2026-04-26T08:22:35.535Z</time></trkpt><trkpt lat="43.82847" lon="12.709875"><ele>109.19999999999999</ele><time>2026-04-26T08:22:36.537Z</time></trkpt><trkpt lat="43.8283817" lon="12.709815"><ele>110.80000000000001</ele><time>2026-04-26T08:22:37.534Z</time></trkpt><trkpt lat="43.82828" lon="12.7097917"><ele>112.4</ele><time>2026-04-26T08:22:38.534Z</time></trkpt><trkpt lat="43.8281683" lon="12.7098"><ele>114.0</ele><time>2026-04-26T08:22:39.534Z</time></trkpt><trkpt lat="43.828055" lon="12.7098267"><ele>114.0</ele><time>2026-04-26T08:22:40.533Z</time></trkpt><trkpt lat="43.8279433" lon="12.7098783"><ele>114.0</ele><time>2026-04-26T08:22:41.534Z</time></trkpt><trkpt lat="43.82784" lon="12.7099383"><ele>114.0</ele><time>2026-04-26T08:22:42.535Z</time></trkpt><trkpt lat="43.8277333" lon="12.71"><ele>114.0</ele><time>2026-04-26T08:22:43.535Z</time></trkpt><trkpt lat="43.827625" lon="12.7100683"><ele>113.80000000000001</ele><time>2026-04-26T08:22:44.533Z</time></trkpt><trkpt lat="43.82752" lon="12.71014"><ele>113.60000000000001</ele><time>2026-04-26T08:22:45.534Z</time></trkpt><trkpt lat="43.8274183" lon="12.7102"><ele>113.4</ele><time>2026-04-26T08:22:46.533Z</time></trkpt><trkpt lat="43.8273267" lon="12.7102267"><ele>113.2</ele><time>2026-04-26T08:22:47.534Z</time></trkpt><trkpt lat="43.82725" lon="12.710235"><ele>113.0</ele><time>2026-04-26T08:22:48.535Z</time></trkpt><trkpt lat="43.8271833" lon="12.7102117"><ele>113.0</ele><time>2026-04-26T08:22:49.534Z</time></trkpt><trkpt lat="43.8271283" lon="12.7101517"><ele>113.00000000000001</ele><time>2026-04-26T08:22:50.534Z</time></trkpt><trkpt lat="43.82709" lon="12.710015"><ele>113.00000000000001</ele><time>2026-04-26T08:22:52.534Z</time></trkpt><trkpt lat="43.8271317" lon="12.7099333"><ele>113.0</ele><time>2026-04-26T08:22:53.534Z</time></trkpt><trkpt lat="43.8272333" lon="12.7097933"><ele>113.0</ele><time>2026-04-26T08:22:55.537Z</time></trkpt><trkpt lat="43.8272967" lon="12.7097067"><ele>113.0</ele><time>2026-04-26T08:22:56.533Z</time></trkpt><trkpt lat="43.8273467" lon="12.7096133"><ele>113.00000000000001</ele><time>2026-04-26T08:22:57.537Z</time></trkpt><trkpt lat="43.8273633" lon="12.7095167"><ele>113.00000000000001</ele><time>2026-04-26T08:22:58.537Z</time></trkpt><trkpt lat="43.8273583" lon="12.7093967"><ele>113.0</ele><time>2026-04-26T08:22:59.537Z</time></trkpt><trkpt lat="43.82733" lon="12.7092517"><ele>113.0</ele><time>2026-04-26T08:23:00.536Z</time></trkpt><trkpt lat="43.82727" lon="12.7091083"><ele>112.60000000000001</ele><time>2026-04-26T08:23:01.535Z</time></trkpt><trkpt lat="43.82721" lon="12.7090083"><ele>112.20000000000002</ele><time>2026-04-26T08:23:02.535Z</time></trkpt><trkpt lat="43.8271217" lon="12.7089217"><ele>111.8</ele><time>2026-04-26T08:23:03.536Z</time></trkpt><trkpt lat="43.8270617" lon="12.708825"><ele>111.4</ele><time>2026-04-26T08:23:04.535Z</time></trkpt><trkpt lat="43.82701" lon="12.7087483"><ele>111.0</ele><time>2026-04-26T08:23:05.537Z</time></trkpt><trkpt lat="43.8269583" lon="12.7086567"><ele>111.0</ele><time>2026-04-26T08:23:07.537Z</time></trkpt><trkpt lat="43.8270417" lon="12.7085867"><ele>111.0</ele><time>2026-04-26T08:23:09.533Z</time></trkpt><trkpt lat="43.82717" lon="12.7086033"><ele>111.0</ele><time>2026-04-26T08:23:10.534Z</time></trkpt><trkpt lat="43.8272733" lon="12.7085933"><ele>111.0</ele><time>2026-04-26T08:23:11.533Z</time></trkpt><trkpt lat="43.8274133" lon="12.7086017"><ele>111.0</ele><time>2026-04-26T08:23:12.535Z</time></trkpt><trkpt lat="43.827595" lon="12.70863"><ele>111.0</ele><time>2026-04-26T08:23:13.534Z</time></trkpt><trkpt lat="43.8277717" lon="12.7086633"><ele>111.0</ele><time>2026-04-26T08:23:14.533Z</time></trkpt><trkpt lat="43.8279133" lon="12.70866"><ele>110.5</ele><time>2026-04-26T08:23:15.534Z</time></trkpt><trkpt lat="43.82805" lon="12.7086733"><ele>110.0</ele><time>2026-04-26T08:23:16.534Z</time></trkpt><trkpt lat="43.8281717" lon="12.7086617"><ele>109.5</ele><time>2026-04-26T08:23:17.534Z</time></trkpt><trkpt lat="43.8282817" lon="12.7086017"><ele>109.0</ele><time>2026-04-26T08:23:18.535Z</time></trkpt><trkpt lat="43.8284" lon="12.7085017"><ele>111.75</ele><time>2026-04-26T08:23:19.536Z</time></trkpt><trkpt lat="43.8285183" lon="12.7084267"><ele>114.5</ele><time>2026-04-26T08:23:20.534Z</time></trkpt><trkpt lat="43.8286467" lon="12.7083367"><ele>117.25</ele><time>2026-04-26T08:23:21.534Z</time></trkpt><trkpt lat="43.8287633" lon="12.7082633"><ele>120.0</ele><time>2026-04-26T08:23:22.537Z</time></trkpt><trkpt lat="43.8288583" lon="12.7081983"><ele>120.0</ele><time>2026-04-26T08:23:23.533Z</time></trkpt><trkpt lat="43.8289333" lon="12.7081117"><ele>120.0</ele><time>2026-04-26T08:23:24.536Z</time></trkpt><trkpt lat="43.8289817" lon="12.7079967"><ele>120.0</ele><time>2026-04-26T08:23:25.535Z</time></trkpt><trkpt lat="43.8290033" lon="12.7078517"><ele>120.0</ele><time>2026-04-26T08:23:26.535Z</time></trkpt><trkpt lat="43.8290033" lon="12.7077117"><ele>120.0</ele><time>2026-04-26T08:23:27.537Z</time></trkpt><trkpt lat="43.8290067" lon="12.7075817"><ele>121.6</ele><time>2026-04-26T08:23:28.534Z</time></trkpt><trkpt lat="43.829015" lon="12.7074717"><ele>123.2</ele><time>2026-04-26T08:23:29.533Z</time></trkpt><trkpt lat="43.829055" lon="12.7073667"><ele>124.80000000000001</ele><time>2026-04-26T08:23:30.535Z</time></trkpt><trkpt lat="43.8291033" lon="12.707255"><ele>126.4</ele><time>2026-04-26T08:23:31.534Z</time></trkpt><trkpt lat="43.8291933" lon="12.7071867"><ele>128.0</ele><time>2026-04-26T08:23:32.533Z</time></trkpt><trkpt lat="43.829275" lon="12.7071083"><ele>124.0</ele><time>2026-04-26T08:23:33.535Z</time></trkpt><trkpt lat="43.8293767" lon="12.70707"><ele>120.0</ele><time>2026-04-26T08:23:34.538Z</time></trkpt><trkpt lat="43.8295667" lon="12.7071467"><ele>116.0</ele><time>2026-04-26T08:23:35.534Z</time></trkpt><trkpt lat="43.82973" lon="12.7071817"><ele>116.0</ele><time>2026-04-26T08:23:36.534Z</time></trkpt><trkpt lat="43.8298967" lon="12.7072467"><ele>116.0</ele><time>2026-04-26T08:23:37.535Z</time></trkpt><trkpt lat="43.83004" lon="12.70728"><ele>116.0</ele><time>2026-04-26T08:23:38.539Z</time></trkpt><trkpt lat="43.83016" lon="12.70728"><ele>116.0</ele><time>2026-04-26T08:23:39.537Z</time></trkpt><trkpt lat="43.8302583" lon="12.707265"><ele>114.4</ele><time>2026-04-26T08:23:40.537Z</time></trkpt><trkpt lat="43.8303483" lon="12.7072317"><ele>112.8</ele><time>2026-04-26T08:23:41.536Z</time></trkpt><trkpt lat="43.8304317" lon="12.707185"><ele>111.20000000000002</ele><time>2026-04-26T08:23:42.537Z</time></trkpt><trkpt lat="43.8304867" lon="12.7070983"><ele>109.60000000000001</ele><time>2026-04-26T08:23:43.536Z</time></trkpt><trkpt lat="43.8305133" lon="12.7069683"><ele>108.0</ele><time>2026-04-26T08:23:44.537Z</time></trkpt><trkpt lat="43.83054" lon="12.70682"><ele>108.0</ele><time>2026-04-26T08:23:45.536Z</time></trkpt><trkpt lat="43.8305533" lon="12.7066433"><ele>108.0</ele><time>2026-04-26T08:23:46.535Z</time></trkpt><trkpt lat="43.830575" lon="12.7064433"><ele>108.0</ele><time>2026-04-26T08:23:47.54Z</time></trkpt><trkpt lat="43.8306" lon="12.7062433"><ele>108.0</ele><time>2026-04-26T08:23:48.535Z</time></trkpt><trkpt lat="43.8306283" lon="12.7060433"><ele>108.25</ele><time>2026-04-26T08:23:49.534Z</time></trkpt><trkpt lat="43.8306617" lon="12.7058417"><ele>108.5</ele><time>2026-04-26T08:23:50.534Z</time></trkpt><trkpt lat="43.830695" lon="12.705645"><ele>108.75</ele><time>2026-04-26T08:23:51.535Z</time></trkpt><trkpt lat="43.8307233" lon="12.7054667"><ele>109.0</ele><time>2026-04-26T08:23:52.535Z</time></trkpt><trkpt lat="43.83074" lon="12.705295"><ele>108.25</ele><time>2026-04-26T08:23:53.537Z</time></trkpt><trkpt lat="43.8307433" lon="12.7051167"><ele>107.5</ele><time>2026-04-26T08:23:54.538Z</time></trkpt><trkpt lat="43.8307383" lon="12.704925"><ele>106.75</ele><time>2026-04-26T08:23:55.537Z</time></trkpt><trkpt lat="43.8307417" lon="12.7047233"><ele>106.0</ele><time>2026-04-26T08:23:56.538Z</time></trkpt><trkpt lat="43.83075" lon="12.7045117"><ele>106.33333333333334</ele><time>2026-04-26T08:23:57.537Z</time></trkpt><trkpt lat="43.8307667" lon="12.704295"><ele>106.66666666666666</ele><time>2026-04-26T08:23:58.537Z</time></trkpt><trkpt lat="43.8307767" lon="12.704085"><ele>107.0</ele><time>2026-04-26T08:23:59.538Z</time></trkpt><trkpt lat="43.830785" lon="12.7038867"><ele>107.0</ele><time>2026-04-26T08:24:00.535Z</time></trkpt><trkpt lat="43.8307933" lon="12.7037033"><ele>107.0</ele><time>2026-04-26T08:24:01.537Z</time></trkpt><trkpt lat="43.8307983" lon="12.70352"><ele>107.0</ele><time>2026-04-26T08:24:02.538Z</time></trkpt><trkpt lat="43.830795" lon="12.7033233"><ele>107.0</ele><time>2026-04-26T08:24:03.537Z</time></trkpt><trkpt lat="43.8307817" lon="12.703125"><ele>107.0</ele><time>2026-04-26T08:24:04.538Z</time></trkpt><trkpt lat="43.83077" lon="12.7029317"><ele>107.0</ele><time>2026-04-26T08:24:05.537Z</time></trkpt><trkpt lat="43.8307567" lon="12.7027417"><ele>107.0</ele><time>2026-04-26T08:24:06.535Z</time></trkpt><trkpt lat="43.8307367" lon="12.70255"><ele>107.0</ele><time>2026-04-26T08:24:07.537Z</time></trkpt><trkpt lat="43.8307183" lon="12.7023533"><ele>106.25</ele><time>2026-04-26T08:24:08.533Z</time></trkpt><trkpt lat="43.8307017" lon="12.7021617"><ele>105.5</ele><time>2026-04-26T08:24:09.537Z</time></trkpt><trkpt lat="43.830685" lon="12.7019733"><ele>104.75</ele><time>2026-04-26T08:24:10.537Z</time></trkpt><trkpt lat="43.8306633" lon="12.70179"><ele>104.0</ele><time>2026-04-26T08:24:11.536Z</time></trkpt><trkpt lat="43.8306317" lon="12.7016017"><ele>103.75</ele><time>2026-04-26T08:24:12.538Z</time></trkpt><trkpt lat="43.8305817" lon="12.70141"><ele>103.5</ele><time>2026-04-26T08:24:13.538Z</time></trkpt><trkpt lat="43.8305217" lon="12.7012217"><ele>103.25</ele><time>2026-04-26T08:24:14.537Z</time></trkpt><trkpt lat="43.8304517" lon="12.7010333"><ele>103.0</ele><time>2026-04-26T08:24:15.536Z</time></trkpt><trkpt lat="43.83038" lon="12.70084"><ele>102.0</ele><time>2026-04-26T08:24:16.534Z</time></trkpt><trkpt lat="43.830305" lon="12.7006433"><ele>101.0</ele><time>2026-04-26T08:24:17.533Z</time></trkpt><trkpt lat="43.8302283" lon="12.7004433"><ele>100.0</ele><time>2026-04-26T08:24:18.535Z</time></trkpt><trkpt lat="43.83015" lon="12.700235"><ele>100.33333333333334</ele><time>2026-04-26T08:24:19.535Z</time></trkpt><trkpt lat="43.8300733" lon="12.7000217"><ele>100.66666666666666</ele><time>2026-04-26T08:24:20.533Z</time></trkpt><trkpt lat="43.829995" lon="12.6998067"><ele>101.0</ele><time>2026-04-26T08:24:21.535Z</time></trkpt><trkpt lat="43.8299133" lon="12.6995833"><ele>99.66666666666666</ele><time>2026-04-26T08:24:22.534Z</time></trkpt><trkpt lat="43.829835" lon="12.699365"><ele>98.33333333333334</ele><time>2026-04-26T08:24:23.538Z</time></trkpt><trkpt lat="43.82976" lon="12.699145"><ele>97.0</ele><time>2026-04-26T08:24:24.537Z</time></trkpt><trkpt lat="43.8296833" lon="12.6989267"><ele>97.0</ele><time>2026-04-26T08:24:25.537Z</time></trkpt><trkpt lat="43.829605" lon="12.698715"><ele>97.0</ele><time>2026-04-26T08:24:26.537Z</time></trkpt><trkpt lat="43.8295267" lon="12.69851"><ele>97.0</ele><time>2026-04-26T08:24:27.536Z</time></trkpt><trkpt lat="43.8294433" lon="12.6983117"><ele>96.66666666666667</ele><time>2026-04-26T08:24:28.537Z</time></trkpt><trkpt lat="43.8293583" lon="12.6981167"><ele>96.33333333333334</ele><time>2026-04-26T08:24:29.537Z</time></trkpt><trkpt lat="43.8292683" lon="12.6979183"><ele>96.0</ele><time>2026-04-26T08:24:30.537Z</time></trkpt><trkpt lat="43.829175" lon="12.6977117"><ele>96.0</ele><time>2026-04-26T08:24:31.535Z</time></trkpt><trkpt lat="43.82909" lon="12.6975167"><ele>96.0</ele><time>2026-04-26T08:24:32.534Z</time></trkpt><trkpt lat="43.8290067" lon="12.6973283"><ele>96.0</ele><time>2026-04-26T08:24:33.538Z</time></trkpt><trkpt lat="43.828915" lon="12.6971483"><ele>96.0</ele><time>2026-04-26T08:24:34.537Z</time></trkpt><trkpt lat="43.82883" lon="12.6969617"><ele>96.0</ele><time>2026-04-26T08:24:35.536Z</time></trkpt><trkpt lat="43.8287417" lon="12.6967617"><ele>96.0</ele><time>2026-04-26T08:24:36.538Z</time></trkpt><trkpt lat="43.8286483" lon="12.6965683"><ele>97.0</ele><time>2026-04-26T08:24:37.535Z</time></trkpt><trkpt lat="43.828555" lon="12.6963733"><ele>98.0</ele><time>2026-04-26T08:24:38.533Z</time></trkpt><trkpt lat="43.828465" lon="12.6961767"><ele>99.0</ele><time>2026-04-26T08:24:39.533Z</time></trkpt><trkpt lat="43.8283783" lon="12.69598"><ele>99.0</ele><time>2026-04-26T08:24:40.535Z</time></trkpt><trkpt lat="43.8282917" lon="12.69579"><ele>99.0</ele><time>2026-04-26T08:24:41.538Z</time></trkpt><trkpt lat="43.828205" lon="12.6956117"><ele>99.0</ele><time>2026-04-26T08:24:42.537Z</time></trkpt><trkpt lat="43.8281233" lon="12.6954367"><ele>99.0</ele><time>2026-04-26T08:24:43.537Z</time></trkpt><trkpt lat="43.82804" lon="12.69526"><ele>99.0</ele><time>2026-04-26T08:24:44.537Z</time></trkpt><trkpt lat="43.82795" lon="12.6950933"><ele>99.0</ele><time>2026-04-26T08:24:45.537Z</time></trkpt><trkpt lat="43.827855" lon="12.6949317"><ele>98.33333333333334</ele><time>2026-04-26T08:24:46.536Z</time></trkpt><trkpt lat="43.8277417" lon="12.6947733"><ele>97.66666666666667</ele><time>2026-04-26T08:24:47.533Z</time></trkpt><trkpt lat="43.82762" lon="12.69463"><ele>97.0</ele><time>2026-04-26T08:24:48.535Z</time></trkpt><trkpt lat="43.8274917" lon="12.6944917"><ele>97.66666666666667</ele><time>2026-04-26T08:24:49.533Z</time></trkpt><trkpt lat="43.8273567" lon="12.694365"><ele>98.33333333333334</ele><time>2026-04-26T08:24:50.534Z</time></trkpt><trkpt lat="43.8272217" lon="12.6942433"><ele>99.0</ele><time>2026-04-26T08:24:51.535Z</time></trkpt><trkpt lat="43.827095" lon="12.6941267"><ele>99.0</ele><time>2026-04-26T08:24:52.536Z</time></trkpt><trkpt lat="43.8269733" lon="12.69401"><ele>99.0</ele><time>2026-04-26T08:24:53.535Z</time></trkpt><trkpt lat="43.8268617" lon="12.6938917"><ele>99.0</ele><time>2026-04-26T08:24:54.536Z</time></trkpt><trkpt lat="43.8267633" lon="12.69376"><ele>99.0</ele><time>2026-04-26T08:24:55.538Z</time></trkpt><trkpt lat="43.826675" lon="12.69362"><ele>100.0</ele><time>2026-04-26T08:24:56.537Z</time></trkpt><trkpt lat="43.8265933" lon="12.693475"><ele>101.0</ele><time>2026-04-26T08:24:57.538Z</time></trkpt><trkpt lat="43.8265117" lon="12.693325"><ele>102.0</ele><time>2026-04-26T08:24:58.537Z</time></trkpt><trkpt lat="43.8264333" lon="12.6931583"><ele>103.0</ele><time>2026-04-26T08:24:59.537Z</time></trkpt><trkpt lat="43.8263733" lon="12.6929867"><ele>103.0</ele><time>2026-04-26T08:25:00.536Z</time></trkpt><trkpt lat="43.8263267" lon="12.6928167"><ele>103.0</ele><time>2026-04-26T08:25:01.535Z</time></trkpt><trkpt lat="43.8263167" lon="12.6926583"><ele>103.0</ele><time>2026-04-26T08:25:02.535Z</time></trkpt><trkpt lat="43.826335" lon="12.69251"><ele>103.0</ele><time>2026-04-26T08:25:03.538Z</time></trkpt><trkpt lat="43.8263833" lon="12.6923783"><ele>102.75</ele><time>2026-04-26T08:25:04.538Z</time></trkpt><trkpt lat="43.8264617" lon="12.6922517"><ele>102.5</ele><time>2026-04-26T08:25:05.537Z</time></trkpt><trkpt lat="43.8265567" lon="12.6921117"><ele>102.25</ele><time>2026-04-26T08:25:06.537Z</time></trkpt><trkpt lat="43.8266533" lon="12.6919667"><ele>102.0</ele><time>2026-04-26T08:25:07.535Z</time></trkpt><trkpt lat="43.82675" lon="12.69183"><ele>100.25</ele><time>2026-04-26T08:25:08.537Z</time></trkpt><trkpt lat="43.826845" lon="12.6916783"><ele>98.5</ele><time>2026-04-26T08:25:09.535Z</time></trkpt><trkpt lat="43.826935" lon="12.6915267"><ele>96.75</ele><time>2026-04-26T08:25:10.538Z</time></trkpt><trkpt lat="43.8270083" lon="12.6913883"><ele>95.0</ele><time>2026-04-26T08:25:11.536Z</time></trkpt><trkpt lat="43.82707" lon="12.6912633"><ele>95.0</ele><time>2026-04-26T08:25:12.537Z</time></trkpt><trkpt lat="43.8271167" lon="12.6911383"><ele>95.0</ele><time>2026-04-26T08:25:13.534Z</time></trkpt><trkpt lat="43.82714" lon="12.6910167"><ele>95.0</ele><time>2026-04-26T08:25:14.538Z</time></trkpt><trkpt lat="43.8271417" lon="12.6909"><ele>95.0</ele><time>2026-04-26T08:25:15.535Z</time></trkpt><trkpt lat="43.82712" lon="12.6907867"><ele>95.0</ele><time>2026-04-26T08:25:16.536Z</time></trkpt><trkpt lat="43.8270717" lon="12.6906883"><ele>95.0</ele><time>2026-04-26T08:25:17.534Z</time></trkpt><trkpt lat="43.827" lon="12.690595"><ele>95.25</ele><time>2026-04-26T08:25:18.534Z</time></trkpt><trkpt lat="43.8269067" lon="12.6905083"><ele>95.5</ele><time>2026-04-26T08:25:19.534Z</time></trkpt><trkpt lat="43.8268" lon="12.690415"><ele>95.75</ele><time>2026-04-26T08:25:20.534Z</time></trkpt><trkpt lat="43.8267083" lon="12.6903017"><ele>96.0</ele><time>2026-04-26T08:25:21.533Z</time></trkpt><trkpt lat="43.8266367" lon="12.690165"><ele>93.75</ele><time>2026-04-26T08:25:22.534Z</time></trkpt><trkpt lat="43.82659" lon="12.690015"><ele>91.5</ele><time>2026-04-26T08:25:23.537Z</time></trkpt><trkpt lat="43.826545" lon="12.68986"><ele>89.25</ele><time>2026-04-26T08:25:24.536Z</time></trkpt><trkpt lat="43.8264833" lon="12.6897067"><ele>87.0</ele><time>2026-04-26T08:25:25.533Z</time></trkpt><trkpt lat="43.8264067" lon="12.6895517"><ele>83.0</ele><time>2026-04-26T08:25:26.533Z</time></trkpt><trkpt lat="43.8263117" lon="12.6893917"><ele>79.0</ele><time>2026-04-26T08:25:27.534Z</time></trkpt><trkpt lat="43.8261983" lon="12.6892333"><ele>75.0</ele><time>2026-04-26T08:25:28.533Z</time></trkpt><trkpt lat="43.826085" lon="12.6890817"><ele>81.0</ele><time>2026-04-26T08:25:29.533Z</time></trkpt><trkpt lat="43.8259733" lon="12.6889317"><ele>87.0</ele><time>2026-04-26T08:25:30.533Z</time></trkpt><trkpt lat="43.82586" lon="12.6887733"><ele>93.0</ele><time>2026-04-26T08:25:31.534Z</time></trkpt><trkpt lat="43.8257633" lon="12.6885967"><ele>86.66666666666667</ele><time>2026-04-26T08:25:32.533Z</time></trkpt><trkpt lat="43.8256733" lon="12.6884067"><ele>80.33333333333334</ele><time>2026-04-26T08:25:33.534Z</time></trkpt><trkpt lat="43.8256033" lon="12.688225"><ele>74.0</ele><time>2026-04-26T08:25:34.533Z</time></trkpt><trkpt lat="43.825535" lon="12.68805"><ele>74.0</ele><time>2026-04-26T08:25:35.534Z</time></trkpt><trkpt lat="43.8254733" lon="12.6878783"><ele>74.0</ele><time>2026-04-26T08:25:36.536Z</time></trkpt><trkpt lat="43.82541" lon="12.6877017"><ele>74.0</ele><time>2026-04-26T08:25:37.536Z</time></trkpt><trkpt lat="43.8253417" lon="12.68752"><ele>74.0</ele><time>2026-04-26T08:25:38.537Z</time></trkpt><trkpt lat="43.8252667" lon="12.6873367"><ele>75.0</ele><time>2026-04-26T08:25:39.533Z</time></trkpt><trkpt lat="43.825175" lon="12.6871467"><ele>76.0</ele><time>2026-04-26T08:25:40.533Z</time></trkpt><trkpt lat="43.8250767" lon="12.68695"><ele>77.0</ele><time>2026-04-26T08:25:41.534Z</time></trkpt><trkpt lat="43.8249783" lon="12.6867483"><ele>77.0</ele><time>2026-04-26T08:25:42.533Z</time></trkpt><trkpt lat="43.8248767" lon="12.6865533"><ele>77.0</ele><time>2026-04-26T08:25:43.537Z</time></trkpt><trkpt lat="43.82478" lon="12.6863583"><ele>77.0</ele><time>2026-04-26T08:25:44.532Z</time></trkpt><trkpt lat="43.82468" lon="12.68616"><ele>75.0</ele><time>2026-04-26T08:25:45.533Z</time></trkpt><trkpt lat="43.8245783" lon="12.6859583"><ele>73.0</ele><time>2026-04-26T08:25:46.538Z</time></trkpt><trkpt lat="43.82448" lon="12.6857617"><ele>71.0</ele><time>2026-04-26T08:25:47.536Z</time></trkpt><trkpt lat="43.82438" lon="12.6855767"><ele>73.33333333333334</ele><time>2026-04-26T08:25:48.533Z</time></trkpt><trkpt lat="43.8242833" lon="12.6853983"><ele>75.66666666666667</ele><time>2026-04-26T08:25:49.534Z</time></trkpt><trkpt lat="43.8241917" lon="12.6852283"><ele>78.0</ele><time>2026-04-26T08:25:50.534Z</time></trkpt><trkpt lat="43.8241067" lon="12.6850667"><ele>78.0</ele><time>2026-04-26T08:25:51.535Z</time></trkpt><trkpt lat="43.8240267" lon="12.6849133"><ele>78.0</ele><time>2026-04-26T08:25:52.534Z</time></trkpt><trkpt lat="43.8239467" lon="12.68477"><ele>78.0</ele><time>2026-04-26T08:25:53.536Z</time></trkpt><trkpt lat="43.823865" lon="12.6846317"><ele>78.0</ele><time>2026-04-26T08:25:54.533Z</time></trkpt><trkpt lat="43.8237833" lon="12.6845033"><ele>78.75</ele><time>2026-04-26T08:25:55.533Z</time></trkpt><trkpt lat="43.823705" lon="12.6843883"><ele>79.5</ele><time>2026-04-26T08:25:56.534Z</time></trkpt><trkpt lat="43.8236317" lon="12.68428"><ele>80.25</ele><time>2026-04-26T08:25:57.533Z</time></trkpt><trkpt lat="43.82355" lon="12.68416"><ele>81.0</ele><time>2026-04-26T08:25:58.533Z</time></trkpt><trkpt lat="43.8234667" lon="12.6840367"><ele>81.0</ele><time>2026-04-26T08:25:59.536Z</time></trkpt><trkpt lat="43.8233933" lon="12.68391"><ele>81.0</ele><time>2026-04-26T08:26:00.533Z</time></trkpt><trkpt lat="43.82332" lon="12.683775"><ele>81.0</ele><time>2026-04-26T08:26:01.536Z</time></trkpt><trkpt lat="43.8232583" lon="12.6836367"><ele>81.0</ele><time>2026-04-26T08:26:02.536Z</time></trkpt><trkpt lat="43.8231967" lon="12.6834967"><ele>78.75</ele><time>2026-04-26T08:26:03.536Z</time></trkpt><trkpt lat="43.82314" lon="12.683345"><ele>76.5</ele><time>2026-04-26T08:26:04.536Z</time></trkpt><trkpt lat="43.8230867" lon="12.6832033"><ele>74.25</ele><time>2026-04-26T08:26:05.537Z</time></trkpt><trkpt lat="43.8230367" lon="12.6830617"><ele>72.0</ele><time>2026-04-26T08:26:06.536Z</time></trkpt><trkpt lat="43.8229817" lon="12.682925"><ele>72.0</ele><time>2026-04-26T08:26:07.537Z</time></trkpt><trkpt lat="43.8229283" lon="12.6828083"><ele>72.0</ele><time>2026-04-26T08:26:08.534Z</time></trkpt><trkpt lat="43.8228817" lon="12.6827167"><ele>72.0</ele><time>2026-04-26T08:26:09.536Z</time></trkpt><trkpt lat="43.822835" lon="12.682645"><ele>72.0</ele><time>2026-04-26T08:26:10.536Z</time></trkpt><trkpt lat="43.82275" lon="12.68256"><ele>72.0</ele><time>2026-04-26T08:26:12.537Z</time></trkpt><trkpt lat="43.82267" lon="12.6825267"><ele>72.0</ele><time>2026-04-26T08:26:14.537Z</time></trkpt><trkpt lat="43.8225867" lon="12.6826033"><ele>73.4</ele><time>2026-04-26T08:26:16.536Z</time></trkpt><trkpt lat="43.8225467" lon="12.682675"><ele>74.80000000000001</ele><time>2026-04-26T08:26:17.537Z</time></trkpt><trkpt lat="43.8225083" lon="12.682775"><ele>76.2</ele><time>2026-04-26T08:26:18.536Z</time></trkpt><trkpt lat="43.8224717" lon="12.6829117"><ele>77.60000000000001</ele><time>2026-04-26T08:26:19.534Z</time></trkpt><trkpt lat="43.822435" lon="12.683065"><ele>79.0</ele><time>2026-04-26T08:26:20.537Z</time></trkpt><trkpt lat="43.8223933" lon="12.6832183"><ele>79.75</ele><time>2026-04-26T08:26:21.536Z</time></trkpt><trkpt lat="43.8223483" lon="12.6833833"><ele>80.5</ele><time>2026-04-26T08:26:22.536Z</time></trkpt><trkpt lat="43.8223017" lon="12.68356"><ele>81.25</ele><time>2026-04-26T08:26:23.533Z</time></trkpt><trkpt lat="43.82226" lon="12.6837367"><ele>82.0</ele><time>2026-04-26T08:26:24.533Z</time></trkpt><trkpt lat="43.8222167" lon="12.6839217"><ele>84.0</ele><time>2026-04-26T08:26:25.535Z</time></trkpt><trkpt lat="43.8221783" lon="12.684115"><ele>86.0</ele><time>2026-04-26T08:26:26.537Z</time></trkpt><trkpt lat="43.82214" lon="12.6843033"><ele>88.0</ele><time>2026-04-26T08:26:27.535Z</time></trkpt><trkpt lat="43.8221067" lon="12.6844817"><ele>90.0</ele><time>2026-04-26T08:26:28.535Z</time></trkpt><trkpt lat="43.8220733" lon="12.6846483"><ele>92.5</ele><time>2026-04-26T08:26:29.533Z</time></trkpt><trkpt lat="43.8220367" lon="12.68481"><ele>95.0</ele><time>2026-04-26T08:26:30.533Z</time></trkpt><trkpt lat="43.8219967" lon="12.6849583"><ele>97.5</ele><time>2026-04-26T08:26:31.534Z</time></trkpt><trkpt lat="43.8219617" lon="12.6851167"><ele>100.0</ele><time>2026-04-26T08:26:32.537Z</time></trkpt><trkpt lat="43.82193" lon="12.68529"><ele>101.75</ele><time>2026-04-26T08:26:33.537Z</time></trkpt><trkpt lat="43.8219117" lon="12.68548"><ele>103.5</ele><time>2026-04-26T08:26:34.536Z</time></trkpt><trkpt lat="43.8219017" lon="12.6856717"><ele>105.25</ele><time>2026-04-26T08:26:35.536Z</time></trkpt><trkpt lat="43.821905" lon="12.6858633"><ele>107.0</ele><time>2026-04-26T08:26:36.536Z</time></trkpt><trkpt lat="43.8219217" lon="12.6860567"><ele>111.5</ele><time>2026-04-26T08:26:37.537Z</time></trkpt><trkpt lat="43.8219417" lon="12.6862517"><ele>116.0</ele><time>2026-04-26T08:26:38.537Z</time></trkpt><trkpt lat="43.8219633" lon="12.686435"><ele>120.5</ele><time>2026-04-26T08:26:39.537Z</time></trkpt><trkpt lat="43.8219767" lon="12.6866117"><ele>125.0</ele><time>2026-04-26T08:26:40.536Z</time></trkpt><trkpt lat="43.8219717" lon="12.686795"><ele>129.5</ele><time>2026-04-26T08:26:41.537Z</time></trkpt><trkpt lat="43.8219533" lon="12.6869717"><ele>134.0</ele><time>2026-04-26T08:26:42.533Z</time></trkpt><trkpt lat="43.82193" lon="12.68715"><ele>138.5</ele><time>2026-04-26T08:26:43.536Z</time></trkpt><trkpt lat="43.8219" lon="12.6873233"><ele>143.0</ele><time>2026-04-26T08:26:44.534Z</time></trkpt><trkpt lat="43.82187" lon="12.6875033"><ele>143.0</ele><time>2026-04-26T08:26:45.536Z</time></trkpt><trkpt lat="43.8218367" lon="12.6876733"><ele>143.0</ele><time>2026-04-26T08:26:46.536Z</time></trkpt><trkpt lat="43.8218017" lon="12.687845"><ele>143.0</ele><time>2026-04-26T08:26:47.536Z</time></trkpt><trkpt lat="43.8217583" lon="12.6880183"><ele>143.0</ele><time>2026-04-26T08:26:48.536Z</time></trkpt><trkpt lat="43.821705" lon="12.6881883"><ele>143.0</ele><time>2026-04-26T08:26:49.536Z</time></trkpt><trkpt lat="43.8216433" lon="12.6883567"><ele>143.0</ele><time>2026-04-26T08:26:50.536Z</time></trkpt><trkpt lat="43.8215767" lon="12.6885283"><ele>143.0</ele><time>2026-04-26T08:26:51.536Z</time></trkpt><trkpt lat="43.82151" lon="12.6887017"><ele>143.0</ele><time>2026-04-26T08:26:52.536Z</time></trkpt><trkpt lat="43.8214467" lon="12.6888717"><ele>142.5</ele><time>2026-04-26T08:26:53.532Z</time></trkpt><trkpt lat="43.8213833" lon="12.689035"><ele>142.0</ele><time>2026-04-26T08:26:54.535Z</time></trkpt><trkpt lat="43.82132" lon="12.68918"><ele>141.5</ele><time>2026-04-26T08:26:55.534Z</time></trkpt><trkpt lat="43.8212533" lon="12.68931"><ele>141.0</ele><time>2026-04-26T08:26:56.533Z</time></trkpt><trkpt lat="43.8211967" lon="12.6894267"><ele>141.0</ele><time>2026-04-26T08:26:57.534Z</time></trkpt><trkpt lat="43.821145" lon="12.6895233"><ele>141.0</ele><time>2026-04-26T08:26:58.535Z</time></trkpt><trkpt lat="43.8210783" lon="12.6896"><ele>141.0</ele><time>2026-04-26T08:26:59.536Z</time></trkpt><trkpt lat="43.8210017" lon="12.6896483"><ele>141.0</ele><time>2026-04-26T08:27:00.537Z</time></trkpt><trkpt lat="43.8209083" lon="12.6896483"><ele>141.0</ele><time>2026-04-26T08:27:01.534Z</time></trkpt><trkpt lat="43.8208217" lon="12.68965"><ele>141.0</ele><time>2026-04-26T08:27:02.537Z</time></trkpt><trkpt lat="43.8207183" lon="12.6895583"><ele>144.33333333333334</ele><time>2026-04-26T08:27:03.534Z</time></trkpt><trkpt lat="43.8206333" lon="12.6893317"><ele>147.66666666666669</ele><time>2026-04-26T08:27:04.534Z</time></trkpt><trkpt lat="43.8205417" lon="12.6891633"><ele>151.0</ele><time>2026-04-26T08:27:05.534Z</time></trkpt><trkpt lat="43.8204467" lon="12.6890183"><ele>151.0</ele><time>2026-04-26T08:27:06.537Z</time></trkpt><trkpt lat="43.82035" lon="12.68887"><ele>151.0</ele><time>2026-04-26T08:27:07.536Z</time></trkpt><trkpt lat="43.8202567" lon="12.6887133"><ele>151.0</ele><time>2026-04-26T08:27:08.537Z</time></trkpt><trkpt lat="43.82016" lon="12.6885633"><ele>151.0</ele><time>2026-04-26T08:27:09.538Z</time></trkpt><trkpt lat="43.82007" lon="12.6884267"><ele>153.75</ele><time>2026-04-26T08:27:10.536Z</time></trkpt><trkpt lat="43.8199833" lon="12.68829"><ele>156.5</ele><time>2026-04-26T08:27:11.537Z</time></trkpt><trkpt lat="43.8199017" lon="12.6881617"><ele>159.25</ele><time>2026-04-26T08:27:12.537Z</time></trkpt><trkpt lat="43.8198333" lon="12.6880483"><ele>162.0</ele><time>2026-04-26T08:27:13.536Z</time></trkpt><trkpt lat="43.8197683" lon="12.687945"><ele>162.0</ele><time>2026-04-26T08:27:14.537Z</time></trkpt><trkpt lat="43.8197067" lon="12.6878533"><ele>162.0</ele><time>2026-04-26T08:27:15.536Z</time></trkpt><trkpt lat="43.819645" lon="12.6877733"><ele>162.0</ele><time>2026-04-26T08:27:16.536Z</time></trkpt><trkpt lat="43.8195767" lon="12.6877183"><ele>162.0</ele><time>2026-04-26T08:27:17.536Z</time></trkpt><trkpt lat="43.8194967" lon="12.6876817"><ele>162.0</ele><time>2026-04-26T08:27:18.536Z</time></trkpt><trkpt lat="43.8194167" lon="12.68771"><ele>162.0</ele><time>2026-04-26T08:27:19.536Z</time></trkpt><trkpt lat="43.8193517" lon="12.687795"><ele>162.25</ele><time>2026-04-26T08:27:20.533Z</time></trkpt><trkpt lat="43.8192833" lon="12.6879233"><ele>162.5</ele><time>2026-04-26T08:27:21.534Z</time></trkpt><trkpt lat="43.8192167" lon="12.6881017"><ele>162.75</ele><time>2026-04-26T08:27:22.536Z</time></trkpt><trkpt lat="43.819145" lon="12.68826"><ele>163.0</ele><time>2026-04-26T08:27:23.534Z</time></trkpt><trkpt lat="43.819075" lon="12.6884067"><ele>163.0</ele><time>2026-04-26T08:27:24.534Z</time></trkpt><trkpt lat="43.8190033" lon="12.688545"><ele>163.0</ele><time>2026-04-26T08:27:25.533Z</time></trkpt><trkpt lat="43.8189383" lon="12.6886917"><ele>163.0</ele><time>2026-04-26T08:27:26.536Z</time></trkpt><trkpt lat="43.8188667" lon="12.6888367"><ele>163.0</ele><time>2026-04-26T08:27:27.533Z</time></trkpt><trkpt lat="43.818795" lon="12.6889867"><ele>165.25</ele><time>2026-04-26T08:27:28.535Z</time></trkpt><trkpt lat="43.8187167" lon="12.68913"><ele>167.5</ele><time>2026-04-26T08:27:29.534Z</time></trkpt><trkpt lat="43.8186417" lon="12.6892683"><ele>169.75</ele><time>2026-04-26T08:27:30.534Z</time></trkpt><trkpt lat="43.81857" lon="12.6894067"><ele>172.0</ele><time>2026-04-26T08:27:31.536Z</time></trkpt><trkpt lat="43.8185033" lon="12.6895417"><ele>176.5</ele><time>2026-04-26T08:27:32.533Z</time></trkpt><trkpt lat="43.8184317" lon="12.6896717"><ele>181.0</ele><time>2026-04-26T08:27:33.534Z</time></trkpt><trkpt lat="43.8183567" lon="12.6897983"><ele>185.5</ele><time>2026-04-26T08:27:34.533Z</time></trkpt><trkpt lat="43.81828" lon="12.6899267"><ele>190.0</ele><time>2026-04-26T08:27:35.533Z</time></trkpt><trkpt lat="43.8181967" lon="12.690045"><ele>190.0</ele><time>2026-04-26T08:27:36.533Z</time></trkpt><trkpt lat="43.8181033" lon="12.6901483"><ele>190.0</ele><time>2026-04-26T08:27:37.533Z</time></trkpt><trkpt lat="43.8179967" lon="12.690235"><ele>190.0</ele><time>2026-04-26T08:27:38.537Z</time></trkpt><trkpt lat="43.8178767" lon="12.690305"><ele>190.0</ele><time>2026-04-26T08:27:39.536Z</time></trkpt><trkpt lat="43.8177533" lon="12.69036"><ele>194.25</ele><time>2026-04-26T08:27:40.533Z</time></trkpt><trkpt lat="43.8176183" lon="12.690395"><ele>198.5</ele><time>2026-04-26T08:27:41.538Z</time></trkpt><trkpt lat="43.81748" lon="12.690405"><ele>202.75</ele><time>2026-04-26T08:27:42.536Z</time></trkpt><trkpt lat="43.8173467" lon="12.6904117"><ele>207.0</ele><time>2026-04-26T08:27:43.534Z</time></trkpt><trkpt lat="43.817225" lon="12.6904083"><ele>207.0</ele><time>2026-04-26T08:27:44.534Z</time></trkpt><trkpt lat="43.8171183" lon="12.6903967"><ele>207.0</ele><time>2026-04-26T08:27:45.534Z</time></trkpt><trkpt lat="43.8170267" lon="12.6903583"><ele>207.0</ele><time>2026-04-26T08:27:46.533Z</time></trkpt><trkpt lat="43.8169417" lon="12.6902933"><ele>207.0</ele><time>2026-04-26T08:27:47.534Z</time></trkpt><trkpt lat="43.8168833" lon="12.6901917"><ele>207.0</ele><time>2026-04-26T08:27:48.534Z</time></trkpt><trkpt lat="43.8168317" lon="12.690065"><ele>205.25</ele><time>2026-04-26T08:27:49.534Z</time></trkpt><trkpt lat="43.8167833" lon="12.68991"><ele>203.5</ele><time>2026-04-26T08:27:50.533Z</time></trkpt><trkpt lat="43.8167333" lon="12.6897467"><ele>201.75</ele><time>2026-04-26T08:27:51.534Z</time></trkpt><trkpt lat="43.8166767" lon="12.6895967"><ele>200.0</ele><time>2026-04-26T08:27:52.534Z</time></trkpt><trkpt lat="43.816605" lon="12.68946"><ele>198.0</ele><time>2026-04-26T08:27:53.533Z</time></trkpt><trkpt lat="43.816515" lon="12.6893383"><ele>196.0</ele><time>2026-04-26T08:27:54.534Z</time></trkpt><trkpt lat="43.81642" lon="12.6892233"><ele>194.0</ele><time>2026-04-26T08:27:55.534Z</time></trkpt><trkpt lat="43.816325" lon="12.6891133"><ele>192.0</ele><time>2026-04-26T08:27:56.534Z</time></trkpt><trkpt lat="43.8162333" lon="12.6890067"><ele>192.0</ele><time>2026-04-26T08:27:57.536Z</time></trkpt><trkpt lat="43.816135" lon="12.68889"><ele>192.0</ele><time>2026-04-26T08:27:58.533Z</time></trkpt><trkpt lat="43.81604" lon="12.6887733"><ele>192.0</ele><time>2026-04-26T08:27:59.539Z</time></trkpt><trkpt lat="43.8159383" lon="12.6886533"><ele>192.0</ele><time>2026-04-26T08:28:00.534Z</time></trkpt><trkpt lat="43.8158383" lon="12.6885367"><ele>193.5</ele><time>2026-04-26T08:28:01.538Z</time></trkpt><trkpt lat="43.8157333" lon="12.6884167"><ele>195.0</ele><time>2026-04-26T08:28:02.536Z</time></trkpt><trkpt lat="43.8156333" lon="12.68831"><ele>196.5</ele><time>2026-04-26T08:28:03.536Z</time></trkpt><trkpt lat="43.815545" lon="12.6882183"><ele>198.0</ele><time>2026-04-26T08:28:04.534Z</time></trkpt><trkpt lat="43.8154733" lon="12.6881567"><ele>198.0</ele><time>2026-04-26T08:28:05.537Z</time></trkpt><trkpt lat="43.8153833" lon="12.6881"><ele>198.0</ele><time>2026-04-26T08:28:07.537Z</time></trkpt><trkpt lat="43.8153633" lon="12.6879883"><ele>198.0</ele><time>2026-04-26T08:28:23.534Z</time></trkpt><trkpt lat="43.815285" lon="12.6879033"><ele>198.0</ele><time>2026-04-26T08:28:26.535Z</time></trkpt><trkpt lat="43.815175" lon="12.6879"><ele>198.0</ele><time>2026-04-26T08:28:28.535Z</time></trkpt><trkpt lat="43.8151117" lon="12.6879217"><ele>198.33333333333334</ele><time>2026-04-26T08:28:29.536Z</time></trkpt><trkpt lat="43.8150367" lon="12.6879517"><ele>198.66666666666669</ele><time>2026-04-26T08:28:30.536Z</time></trkpt><trkpt lat="43.8149567" lon="12.6879867"><ele>199.0</ele><time>2026-04-26T08:28:31.534Z</time></trkpt><trkpt lat="43.8148767" lon="12.6880183"><ele>199.33333333333334</ele><time>2026-04-26T08:28:32.533Z</time></trkpt><trkpt lat="43.8147933" lon="12.688055"><ele>199.66666666666669</ele><time>2026-04-26T08:28:33.534Z</time></trkpt><trkpt lat="43.8147067" lon="12.6881"><ele>200.0</ele><time>2026-04-26T08:28:34.534Z</time></trkpt><trkpt lat="43.8146017" lon="12.688155"><ele>200.0</ele><time>2026-04-26T08:28:35.537Z</time></trkpt><trkpt lat="43.8144817" lon="12.6882233"><ele>200.0</ele><time>2026-04-26T08:28:36.533Z</time></trkpt><trkpt lat="43.814355" lon="12.6883133"><ele>200.0</ele><time>2026-04-26T08:28:37.538Z</time></trkpt><trkpt lat="43.814235" lon="12.6884033"><ele>200.0</ele><time>2026-04-26T08:28:38.539Z</time></trkpt><trkpt lat="43.8141333" lon="12.6884917"><ele>199.16666666666669</ele><time>2026-04-26T08:28:39.535Z</time></trkpt><trkpt lat="43.8140467" lon="12.6885467"><ele>198.33333333333334</ele><time>2026-04-26T08:28:40.536Z</time></trkpt><trkpt lat="43.8139733" lon="12.688585"><ele>197.5</ele><time>2026-04-26T08:28:41.538Z</time></trkpt><trkpt lat="43.8139083" lon="12.6886083"><ele>196.66666666666669</ele><time>2026-04-26T08:28:42.538Z</time></trkpt><trkpt lat="43.8138383" lon="12.6886433"><ele>195.83333333333334</ele><time>2026-04-26T08:28:45.534Z</time></trkpt><trkpt lat="43.8137417" lon="12.6887633"><ele>195.0</ele><time>2026-04-26T08:28:47.533Z</time></trkpt><trkpt lat="43.81367" lon="12.688855"><ele>195.0</ele><time>2026-04-26T08:28:48.535Z</time></trkpt><trkpt lat="43.8135617" lon="12.68898"><ele>195.0</ele><time>2026-04-26T08:28:49.535Z</time></trkpt><trkpt lat="43.8134583" lon="12.6891067"><ele>195.0</ele><time>2026-04-26T08:28:50.534Z</time></trkpt><trkpt lat="43.813365" lon="12.6892483"><ele>195.0</ele><time>2026-04-26T08:28:51.534Z</time></trkpt><trkpt lat="43.8132833" lon="12.6894083"><ele>196.0</ele><time>2026-04-26T08:28:52.535Z</time></trkpt><trkpt lat="43.8132167" lon="12.68959"><ele>197.0</ele><time>2026-04-26T08:28:53.533Z</time></trkpt><trkpt lat="43.813165" lon="12.68979"><ele>198.0</ele><time>2026-04-26T08:28:54.534Z</time></trkpt><trkpt lat="43.8131267" lon="12.69"><ele>198.0</ele><time>2026-04-26T08:28:55.537Z</time></trkpt><trkpt lat="43.8130967" lon="12.69021"><ele>198.0</ele><time>2026-04-26T08:28:56.534Z</time></trkpt><trkpt lat="43.8130667" lon="12.6904183"><ele>198.0</ele><time>2026-04-26T08:28:57.535Z</time></trkpt><trkpt lat="43.813035" lon="12.6906233"><ele>200.66666666666669</ele><time>2026-04-26T08:28:58.533Z</time></trkpt><trkpt lat="43.812985" lon="12.6908167"><ele>203.33333333333334</ele><time>2026-04-26T08:28:59.534Z</time></trkpt><trkpt lat="43.8129117" lon="12.6910133"><ele>206.0</ele><time>2026-04-26T08:29:00.538Z</time></trkpt><trkpt lat="43.8128083" lon="12.6911983"><ele>205.0</ele><time>2026-04-26T08:29:01.536Z</time></trkpt><trkpt lat="43.81269" lon="12.6913633"><ele>204.0</ele><time>2026-04-26T08:29:02.538Z</time></trkpt><trkpt lat="43.81257" lon="12.69148"><ele>203.0</ele><time>2026-04-26T08:29:03.537Z</time></trkpt><trkpt lat="43.8124383" lon="12.6915367"><ele>203.0</ele><time>2026-04-26T08:29:04.536Z</time></trkpt><trkpt lat="43.8122967" lon="12.6915383"><ele>203.0</ele><time>2026-04-26T08:29:05.537Z</time></trkpt><trkpt lat="43.81215" lon="12.69151"><ele>203.0</ele><time>2026-04-26T08:29:06.537Z</time></trkpt><trkpt lat="43.812005" lon="12.691515"><ele>203.0</ele><time>2026-04-26T08:29:07.536Z</time></trkpt><trkpt lat="43.8118633" lon="12.6915767"><ele>204.33333333333334</ele><time>2026-04-26T08:29:08.537Z</time></trkpt><trkpt lat="43.8117183" lon="12.6916817"><ele>205.66666666666669</ele><time>2026-04-26T08:29:09.536Z</time></trkpt><trkpt lat="43.8115633" lon="12.6917967"><ele>207.0</ele><time>2026-04-26T08:29:10.537Z</time></trkpt><trkpt lat="43.8114" lon="12.6918883"><ele>212.66666666666669</ele><time>2026-04-26T08:29:11.537Z</time></trkpt><trkpt lat="43.8112383" lon="12.6919483"><ele>218.33333333333334</ele><time>2026-04-26T08:29:12.537Z</time></trkpt><trkpt lat="43.8110833" lon="12.69197"><ele>224.0</ele><time>2026-04-26T08:29:13.535Z</time></trkpt><trkpt lat="43.8109167" lon="12.691925"><ele>220.0</ele><time>2026-04-26T08:29:14.535Z</time></trkpt><trkpt lat="43.8107283" lon="12.6918517"><ele>216.0</ele><time>2026-04-26T08:29:15.537Z</time></trkpt><trkpt lat="43.8105433" lon="12.6917917"><ele>212.0</ele><time>2026-04-26T08:29:16.535Z</time></trkpt><trkpt lat="43.8103767" lon="12.691735"><ele>212.0</ele><time>2026-04-26T08:29:17.536Z</time></trkpt><trkpt lat="43.8102317" lon="12.691665"><ele>212.0</ele><time>2026-04-26T08:29:18.536Z</time></trkpt><trkpt lat="43.810105" lon="12.6915533"><ele>212.0</ele><time>2026-04-26T08:29:19.536Z</time></trkpt><trkpt lat="43.810005" lon="12.691395"><ele>213.5</ele><time>2026-04-26T08:29:20.534Z</time></trkpt><trkpt lat="43.8099367" lon="12.6912117"><ele>215.0</ele><time>2026-04-26T08:29:21.535Z</time></trkpt><trkpt lat="43.8098933" lon="12.69103"><ele>216.5</ele><time>2026-04-26T08:29:22.537Z</time></trkpt><trkpt lat="43.8098433" lon="12.6908817"><ele>218.0</ele><time>2026-04-26T08:29:23.537Z</time></trkpt><trkpt lat="43.8097767" lon="12.69076"><ele>218.0</ele><time>2026-04-26T08:29:24.533Z</time></trkpt><trkpt lat="43.809685" lon="12.690685"><ele>218.0</ele><time>2026-04-26T08:29:25.538Z</time></trkpt><trkpt lat="43.8095733" lon="12.690665"><ele>218.0</ele><time>2026-04-26T08:29:26.537Z</time></trkpt><trkpt lat="43.8094283" lon="12.6906817"><ele>218.0</ele><time>2026-04-26T08:29:27.538Z</time></trkpt><trkpt lat="43.8092933" lon="12.69069"><ele>220.60000000000002</ele><time>2026-04-26T08:29:28.537Z</time></trkpt><trkpt lat="43.8091617" lon="12.690695"><ele>223.20000000000002</ele><time>2026-04-26T08:29:29.537Z</time></trkpt><trkpt lat="43.8090567" lon="12.690705"><ele>225.8</ele><time>2026-04-26T08:29:30.537Z</time></trkpt><trkpt lat="43.8089633" lon="12.6907083"><ele>228.4</ele><time>2026-04-26T08:29:31.537Z</time></trkpt><trkpt lat="43.8088933" lon="12.6906983"><ele>231.0</ele><time>2026-04-26T08:29:32.537Z</time></trkpt><trkpt lat="43.808795" lon="12.6906033"><ele>231.0</ele><time>2026-04-26T08:29:34.537Z</time></trkpt><trkpt lat="43.808755" lon="12.69052"><ele>231.0</ele><time>2026-04-26T08:29:35.537Z</time></trkpt><trkpt lat="43.8087317" lon="12.6903517"><ele>231.0</ele><time>2026-04-26T08:29:36.536Z</time></trkpt><trkpt lat="43.8087117" lon="12.6901317"><ele>231.0</ele><time>2026-04-26T08:29:37.538Z</time></trkpt><trkpt lat="43.8086767" lon="12.689905"><ele>229.66666666666669</ele><time>2026-04-26T08:29:38.537Z</time></trkpt><trkpt lat="43.808635" lon="12.6896617"><ele>228.33333333333334</ele><time>2026-04-26T08:29:39.537Z</time></trkpt><trkpt lat="43.8085833" lon="12.68942"><ele>227.0</ele><time>2026-04-26T08:29:40.536Z</time></trkpt><trkpt lat="43.8085133" lon="12.6891767"><ele>228.33333333333334</ele><time>2026-04-26T08:29:41.538Z</time></trkpt><trkpt lat="43.808435" lon="12.6889267"><ele>229.66666666666669</ele><time>2026-04-26T08:29:42.537Z</time></trkpt><trkpt lat="43.80835" lon="12.6886717"><ele>231.0</ele><time>2026-04-26T08:29:43.536Z</time></trkpt><trkpt lat="43.8082717" lon="12.68843"><ele>231.0</ele><time>2026-04-26T08:29:44.537Z</time></trkpt><trkpt lat="43.8081933" lon="12.6881983"><ele>231.0</ele><time>2026-04-26T08:29:45.538Z</time></trkpt><trkpt lat="43.808115" lon="12.6879667"><ele>231.0</ele><time>2026-04-26T08:29:46.534Z</time></trkpt><trkpt lat="43.8080417" lon="12.6877317"><ele>230.0</ele><time>2026-04-26T08:29:47.533Z</time></trkpt><trkpt lat="43.807975" lon="12.6874883"><ele>229.0</ele><time>2026-04-26T08:29:48.536Z</time></trkpt><trkpt lat="43.8079167" lon="12.6872467"><ele>228.0</ele><time>2026-04-26T08:29:49.535Z</time></trkpt><trkpt lat="43.807865" lon="12.6870133"><ele>227.66666666666669</ele><time>2026-04-26T08:29:50.534Z</time></trkpt><trkpt lat="43.807815" lon="12.6867867"><ele>227.33333333333334</ele><time>2026-04-26T08:29:51.535Z</time></trkpt><trkpt lat="43.8077583" lon="12.6865633"><ele>227.0</ele><time>2026-04-26T08:29:52.535Z</time></trkpt><trkpt lat="43.8076883" lon="12.6863517"><ele>227.0</ele><time>2026-04-26T08:29:53.533Z</time></trkpt><trkpt lat="43.807595" lon="12.6861583"><ele>227.0</ele><time>2026-04-26T08:29:54.537Z</time></trkpt><trkpt lat="43.807475" lon="12.6859783"><ele>227.0</ele><time>2026-04-26T08:29:55.537Z</time></trkpt><trkpt lat="43.807335" lon="12.685805"><ele>228.66666666666669</ele><time>2026-04-26T08:29:56.538Z</time></trkpt><trkpt lat="43.8071767" lon="12.6856267"><ele>230.33333333333331</ele><time>2026-04-26T08:29:57.534Z</time></trkpt><trkpt lat="43.8070083" lon="12.6854383"><ele>232.0</ele><time>2026-04-26T08:29:58.536Z</time></trkpt><trkpt lat="43.8068267" lon="12.6852333"><ele>226.0</ele><time>2026-04-26T08:29:59.534Z</time></trkpt><trkpt lat="43.806635" lon="12.6850117"><ele>220.0</ele><time>2026-04-26T08:30:00.536Z</time></trkpt><trkpt lat="43.80643" lon="12.6847767"><ele>220.0</ele><time>2026-04-26T08:30:01.534Z</time></trkpt><trkpt lat="43.8062217" lon="12.68455"><ele>220.0</ele><time>2026-04-26T08:30:02.533Z</time></trkpt><trkpt lat="43.80602" lon="12.6843317"><ele>215.0</ele><time>2026-04-26T08:30:03.533Z</time></trkpt><trkpt lat="43.8058267" lon="12.6841183"><ele>210.0</ele><time>2026-04-26T08:30:04.535Z</time></trkpt><trkpt lat="43.8056517" lon="12.68389"><ele>210.0</ele><time>2026-04-26T08:30:05.534Z</time></trkpt><trkpt lat="43.8054833" lon="12.6836533"><ele>210.0</ele><time>2026-04-26T08:30:06.536Z</time></trkpt><trkpt lat="43.8053133" lon="12.6834167"><ele>210.0</ele><time>2026-04-26T08:30:07.534Z</time></trkpt><trkpt lat="43.8051383" lon="12.6831867"><ele>210.0</ele><time>2026-04-26T08:30:08.533Z</time></trkpt><trkpt lat="43.8049617" lon="12.682965"><ele>211.0</ele><time>2026-04-26T08:30:09.534Z</time></trkpt><trkpt lat="43.8047867" lon="12.6827483"><ele>212.0</ele><time>2026-04-26T08:30:10.538Z</time></trkpt><trkpt lat="43.80461" lon="12.6825383"><ele>212.0</ele><time>2026-04-26T08:30:11.537Z</time></trkpt><trkpt lat="43.8044383" lon="12.682345"><ele>212.0</ele><time>2026-04-26T08:30:12.537Z</time></trkpt><trkpt lat="43.8042683" lon="12.6821733"><ele>212.0</ele><time>2026-04-26T08:30:13.537Z</time></trkpt><trkpt lat="43.8041017" lon="12.6820083"><ele>213.0</ele><time>2026-04-26T08:30:14.536Z</time></trkpt><trkpt lat="43.8039383" lon="12.681855"><ele>214.0</ele><time>2026-04-26T08:30:15.537Z</time></trkpt><trkpt lat="43.803785" lon="12.6817167"><ele>215.0</ele><time>2026-04-26T08:30:16.537Z</time></trkpt><trkpt lat="43.8036333" lon="12.6815917"><ele>214.66666666666669</ele><time>2026-04-26T08:30:17.537Z</time></trkpt><trkpt lat="43.803475" lon="12.681485"><ele>214.33333333333331</ele><time>2026-04-26T08:30:18.537Z</time></trkpt><trkpt lat="43.8033083" lon="12.6813917"><ele>214.0</ele><time>2026-04-26T08:30:19.538Z</time></trkpt><trkpt lat="43.80314" lon="12.6813133"><ele>214.0</ele><time>2026-04-26T08:30:20.538Z</time></trkpt><trkpt lat="43.8029733" lon="12.6812417"><ele>214.0</ele><time>2026-04-26T08:30:21.538Z</time></trkpt><trkpt lat="43.8028083" lon="12.6811717"><ele>214.0</ele><time>2026-04-26T08:30:22.537Z</time></trkpt><trkpt lat="43.8026433" lon="12.6811017"><ele>215.0</ele><time>2026-04-26T08:30:23.538Z</time></trkpt><trkpt lat="43.8024767" lon="12.68103"><ele>216.0</ele><time>2026-04-26T08:30:24.537Z</time></trkpt><trkpt lat="43.8023183" lon="12.6809433"><ele>217.0</ele><time>2026-04-26T08:30:25.537Z</time></trkpt><trkpt lat="43.8021667" lon="12.6808483"><ele>217.0</ele><time>2026-04-26T08:30:26.537Z</time></trkpt><trkpt lat="43.80202" lon="12.6807483"><ele>217.0</ele><time>2026-04-26T08:30:27.533Z</time></trkpt><trkpt lat="43.8018767" lon="12.68065"><ele>217.0</ele><time>2026-04-26T08:30:28.534Z</time></trkpt><trkpt lat="43.8017333" lon="12.6805617"><ele>220.0</ele><time>2026-04-26T08:30:29.534Z</time></trkpt><trkpt lat="43.8015883" lon="12.6804833"><ele>223.0</ele><time>2026-04-26T08:30:30.534Z</time></trkpt><trkpt lat="43.8014383" lon="12.6804183"><ele>226.0</ele><time>2026-04-26T08:30:31.535Z</time></trkpt><trkpt lat="43.80128" lon="12.6803733"><ele>226.0</ele><time>2026-04-26T08:30:32.534Z</time></trkpt><trkpt lat="43.8011167" lon="12.6803417"><ele>226.0</ele><time>2026-04-26T08:30:33.534Z</time></trkpt><trkpt lat="43.8009583" lon="12.68032"><ele>226.0</ele><time>2026-04-26T08:30:34.534Z</time></trkpt><trkpt lat="43.8008083" lon="12.6802983"><ele>227.75</ele><time>2026-04-26T08:30:35.534Z</time></trkpt><trkpt lat="43.80067" lon="12.6802783"><ele>229.5</ele><time>2026-04-26T08:30:36.535Z</time></trkpt><trkpt lat="43.800535" lon="12.68027"><ele>231.25</ele><time>2026-04-26T08:30:37.535Z</time></trkpt><trkpt lat="43.8004067" lon="12.680285"><ele>233.0</ele><time>2026-04-26T08:30:38.534Z</time></trkpt><trkpt lat="43.8002817" lon="12.68034"><ele>236.25</ele><time>2026-04-26T08:30:39.535Z</time></trkpt><trkpt lat="43.8001533" lon="12.6804167"><ele>239.5</ele><time>2026-04-26T08:30:40.537Z</time></trkpt><trkpt lat="43.80003" lon="12.680505"><ele>242.75</ele><time>2026-04-26T08:30:41.533Z</time></trkpt><trkpt lat="43.7999133" lon="12.6805883"><ele>246.0</ele><time>2026-04-26T08:30:42.536Z</time></trkpt><trkpt lat="43.799805" lon="12.6806683"><ele>246.0</ele><time>2026-04-26T08:30:43.535Z</time></trkpt><trkpt lat="43.7997033" lon="12.6807417"><ele>246.00000000000003</ele><time>2026-04-26T08:30:44.538Z</time></trkpt><trkpt lat="43.79961" lon="12.6808067"><ele>246.00000000000003</ele><time>2026-04-26T08:30:45.537Z</time></trkpt><trkpt lat="43.7995317" lon="12.6808633"><ele>246.0</ele><time>2026-04-26T08:30:46.534Z</time></trkpt><trkpt lat="43.7994683" lon="12.68091"><ele>246.0</ele><time>2026-04-26T08:30:47.537Z</time></trkpt><trkpt lat="43.8218367" lon="12.6876733"><ele>220.25</ele><time>2026-04-26T08:26:46.536Z</time></trkpt><trkpt lat="43.8218017" lon="12.687845"><ele>194.5</ele><time>2026-04-26T08:26:47.536Z</time></trkpt><trkpt lat="43.8217583" lon="12.6880183"><ele>168.75</ele><time>2026-04-26T08:26:48.536Z</time></trkpt><trkpt lat="43.821705" lon="12.6881883"><ele>143.0</ele><time>2026-04-26T08:26:49.536Z</time></trkpt><trkpt lat="43.8216433" lon="12.6883567"><ele>143.0</ele><time>2026-04-26T08:26:50.536Z</time></trkpt><trkpt lat="43.8215767" lon="12.6885283"><ele>143.0</ele><time>2026-04-26T08:26:51.536Z</time></trkpt><trkpt lat="43.82151" lon="12.6887017"><ele>143.0</ele><time>2026-04-26T08:26:52.536Z</time></trkpt><trkpt lat="43.8214467" lon="12.6888717"><ele>143.0</ele><time>2026-04-26T08:26:53.532Z</time></trkpt><trkpt lat="43.8213833" lon="12.689035"><ele>142.6</ele><time>2026-04-26T08:26:54.535Z</time></trkpt><trkpt lat="43.82132" lon="12.68918"><ele>142.20000000000002</ele><time>2026-04-26T08:26:55.534Z</time></trkpt><trkpt lat="43.8212533" lon="12.68931"><ele>141.8</ele><time>2026-04-26T08:26:56.533Z</time></trkpt><trkpt lat="43.8211967" lon="12.6894267"><ele>141.4</ele><time>2026-04-26T08:26:57.534Z</time></trkpt><trkpt lat="43.821145" lon="12.6895233"><ele>141.0</ele><time>2026-04-26T08:26:58.535Z</time></trkpt><trkpt lat="43.8210783" lon="12.6896"><ele>141.0</ele><time>2026-04-26T08:26:59.536Z</time></trkpt><trkpt lat="43.8210017" lon="12.6896483"><ele>141.0</ele><time>2026-04-26T08:27:00.537Z</time></trkpt><trkpt lat="43.8209083" lon="12.6896483"><ele>141.0</ele><time>2026-04-26T08:27:01.534Z</time></trkpt><trkpt lat="43.8208217" lon="12.68965"><ele>141.0</ele><time>2026-04-26T08:27:02.537Z</time></trkpt><trkpt lat="43.8207183" lon="12.6895583"><ele>141.0</ele><time>2026-04-26T08:27:03.534Z</time></trkpt><trkpt lat="43.8206333" lon="12.6893317"><ele>143.5</ele><time>2026-04-26T08:27:04.534Z</time></trkpt><trkpt lat="43.8205417" lon="12.6891633"><ele>146.0</ele><time>2026-04-26T08:27:05.534Z</time></trkpt><trkpt lat="43.8204467" lon="12.6890183"><ele>148.5</ele><time>2026-04-26T08:27:06.537Z</time></trkpt><trkpt lat="43.82035" lon="12.68887"><ele>151.0</ele><time>2026-04-26T08:27:07.536Z</time></trkpt><trkpt lat="43.8202567" lon="12.6887133"><ele>150.25</ele><time>2026-04-26T08:27:08.537Z</time></trkpt><trkpt lat="43.82016" lon="12.6885633"><ele>149.5</ele><time>2026-04-26T08:27:09.538Z</time></trkpt><trkpt lat="43.82007" lon="12.6884267"><ele>148.75</ele><time>2026-04-26T08:27:10.536Z</time></trkpt><trkpt lat="43.8199833" lon="12.68829"><ele>148.0</ele><time>2026-04-26T08:27:11.537Z</time></trkpt><trkpt lat="43.8199017" lon="12.6881617"><ele>149.8</ele><time>2026-04-26T08:27:12.537Z</time></trkpt><trkpt lat="43.8198333" lon="12.6880483"><ele>151.60000000000002</ele><time>2026-04-26T08:27:13.536Z</time></trkpt><trkpt lat="43.8197683" lon="12.687945"><ele>153.39999999999998</ele><time>2026-04-26T08:27:14.537Z</time></trkpt><trkpt lat="43.8197067" lon="12.6878533"><ele>155.2</ele><time>2026-04-26T08:27:15.536Z</time></trkpt><trkpt lat="43.819645" lon="12.6877733"><ele>157.0</ele><time>2026-04-26T08:27:16.536Z</time></trkpt><trkpt lat="43.8195767" lon="12.6877183"><ele>157.0</ele><time>2026-04-26T08:27:17.536Z</time></trkpt><trkpt lat="43.8194967" lon="12.6876817"><ele>157.0</ele><time>2026-04-26T08:27:18.536Z</time></trkpt><trkpt lat="43.8194167" lon="12.68771"><ele>157.0</ele><time>2026-04-26T08:27:19.536Z</time></trkpt><trkpt lat="43.8193517" lon="12.687795"><ele>157.0</ele><time>2026-04-26T08:27:20.533Z</time></trkpt><trkpt lat="43.8192833" lon="12.6879233"><ele>157.0</ele><time>2026-04-26T08:27:21.534Z</time></trkpt><trkpt lat="43.8192167" lon="12.6881017"><ele>158.5</ele><time>2026-04-26T08:27:22.536Z</time></trkpt><trkpt lat="43.819145" lon="12.68826"><ele>160.0</ele><time>2026-04-26T08:27:23.534Z</time></trkpt><trkpt lat="43.819075" lon="12.6884067"><ele>161.5</ele><time>2026-04-26T08:27:24.534Z</time></trkpt><trkpt lat="43.8190033" lon="12.688545"><ele>163.0</ele><time>2026-04-26T08:27:25.533Z</time></trkpt><trkpt lat="43.8189383" lon="12.6886917"><ele>165.25</ele><time>2026-04-26T08:27:26.536Z</time></trkpt><trkpt lat="43.8188667" lon="12.6888367"><ele>167.5</ele><time>2026-04-26T08:27:27.533Z</time></trkpt><trkpt lat="43.818795" lon="12.6889867"><ele>169.75</ele><time>2026-04-26T08:27:28.535Z</time></trkpt><trkpt lat="43.8187167" lon="12.68913"><ele>172.0</ele><time>2026-04-26T08:27:29.534Z</time></trkpt><trkpt lat="43.8186417" lon="12.6892683"><ele>172.0</ele><time>2026-04-26T08:27:30.534Z</time></trkpt><trkpt lat="43.81857" lon="12.6894067"><ele>172.0</ele><time>2026-04-26T08:27:31.536Z</time></trkpt><trkpt lat="43.8185033" lon="12.6895417"><ele>172.0</ele><time>2026-04-26T08:27:32.533Z</time></trkpt><trkpt lat="43.8184317" lon="12.6896717"><ele>172.0</ele><time>2026-04-26T08:27:33.534Z</time></trkpt><trkpt lat="43.8183567" lon="12.6897983"><ele>176.5</ele><time>2026-04-26T08:27:34.533Z</time></trkpt><trkpt lat="43.81828" lon="12.6899267"><ele>181.0</ele><time>2026-04-26T08:27:35.533Z</time></trkpt><trkpt lat="43.8181967" lon="12.690045"><ele>185.5</ele><time>2026-04-26T08:27:36.533Z</time></trkpt><trkpt lat="43.8181033" lon="12.6901483"><ele>190.0</ele><time>2026-04-26T08:27:37.533Z</time></trkpt><trkpt lat="43.8179967" lon="12.690235"><ele>194.0</ele><time>2026-04-26T08:27:38.537Z</time></trkpt><trkpt lat="43.8178767" lon="12.690305"><ele>198.0</ele><time>2026-04-26T08:27:39.536Z</time></trkpt><trkpt lat="43.8177533" lon="12.69036"><ele>202.0</ele><time>2026-04-26T08:27:40.533Z</time></trkpt><trkpt lat="43.8176183" lon="12.690395"><ele>206.0</ele><time>2026-04-26T08:27:41.538Z</time></trkpt><trkpt lat="43.81748" lon="12.690405"><ele>206.25</ele><time>2026-04-26T08:27:42.536Z</time></trkpt><trkpt lat="43.8173467" lon="12.6904117"><ele>206.5</ele><time>2026-04-26T08:27:43.534Z</time></trkpt><trkpt lat="43.817225" lon="12.6904083"><ele>206.75</ele><time>2026-04-26T08:27:44.534Z</time></trkpt><trkpt lat="43.8171183" lon="12.6903967"><ele>207.0</ele><time>2026-04-26T08:27:45.534Z</time></trkpt><trkpt lat="43.8170267" lon="12.6903583"><ele>207.0</ele><time>2026-04-26T08:27:46.533Z</time></trkpt><trkpt lat="43.8169417" lon="12.6902933"><ele>207.0</ele><time>2026-04-26T08:27:47.534Z</time></trkpt><trkpt lat="43.8168833" lon="12.6901917"><ele>207.0</ele><time>2026-04-26T08:27:48.534Z</time></trkpt><trkpt lat="43.8168317" lon="12.690065"><ele>207.0</ele><time>2026-04-26T08:27:49.534Z</time></trkpt><trkpt lat="43.8167833" lon="12.68991"><ele>207.0</ele><time>2026-04-26T08:27:50.533Z</time></trkpt><trkpt lat="43.8167333" lon="12.6897467"><ele>205.25</ele><time>2026-04-26T08:27:51.534Z</time></trkpt><trkpt lat="43.8166767" lon="12.6895967"><ele>203.5</ele><time>2026-04-26T08:27:52.534Z</time></trkpt><trkpt lat="43.816605" lon="12.68946"><ele>201.75</ele><time>2026-04-26T08:27:53.533Z</time></trkpt><trkpt lat="43.816515" lon="12.6893383"><ele>200.0</ele><time>2026-04-26T08:27:54.534Z</time></trkpt><trkpt lat="43.81642" lon="12.6892233"><ele>198.0</ele><time>2026-04-26T08:27:55.534Z</time></trkpt><trkpt lat="43.816325" lon="12.6891133"><ele>196.0</ele><time>2026-04-26T08:27:56.534Z</time></trkpt><trkpt lat="43.8162333" lon="12.6890067"><ele>194.0</ele><time>2026-04-26T08:27:57.536Z</time></trkpt><trkpt lat="43.816135" lon="12.68889"><ele>192.0</ele><time>2026-04-26T08:27:58.533Z</time></trkpt><trkpt lat="43.81604" lon="12.6887733"><ele>193.5</ele><time>2026-04-26T08:27:59.539Z</time></trkpt><trkpt lat="43.8159383" lon="12.6886533"><ele>195.0</ele><time>2026-04-26T08:28:00.534Z</time></trkpt><trkpt lat="43.8158383" lon="12.6885367"><ele>196.5</ele><time>2026-04-26T08:28:01.538Z</time></trkpt><trkpt lat="43.8157333" lon="12.6884167"><ele>198.0</ele><time>2026-04-26T08:28:02.536Z</time></trkpt><trkpt lat="43.8156333" lon="12.68831"><ele>198.0</ele><time>2026-04-26T08:28:03.536Z</time></trkpt><trkpt lat="43.815545" lon="12.6882183"><ele>198.0</ele><time>2026-04-26T08:28:04.534Z</time></trkpt><trkpt lat="43.8154733" lon="12.6881567"><ele>198.0</ele><time>2026-04-26T08:28:05.537Z</time></trkpt><trkpt lat="43.8153833" lon="12.6881"><ele>198.0</ele><time>2026-04-26T08:28:07.537Z</time></trkpt><trkpt lat="43.8153633" lon="12.6879883"><ele>198.0</ele><time>2026-04-26T08:28:23.534Z</time></trkpt><trkpt lat="43.815285" lon="12.6879033"><ele>198.0</ele><time>2026-04-26T08:28:26.535Z</time></trkpt><trkpt lat="43.815175" lon="12.6879"><ele>198.0</ele><time>2026-04-26T08:28:28.535Z</time></trkpt><trkpt lat="43.8151117" lon="12.6879217"><ele>198.0</ele><time>2026-04-26T08:28:29.536Z</time></trkpt><trkpt lat="43.8150367" lon="12.6879517"><ele>198.0</ele><time>2026-04-26T08:28:30.536Z</time></trkpt><trkpt lat="43.8149567" lon="12.6879867"><ele>198.0</ele><time>2026-04-26T08:28:31.534Z</time></trkpt><trkpt lat="43.8148767" lon="12.6880183"><ele>198.0</ele><time>2026-04-26T08:28:32.533Z</time></trkpt><trkpt lat="43.8147933" lon="12.688055"><ele>198.5</ele><time>2026-04-26T08:28:33.534Z</time></trkpt><trkpt lat="43.8147067" lon="12.6881"><ele>199.0</ele><time>2026-04-26T08:28:34.534Z</time></trkpt><trkpt lat="43.8146017" lon="12.688155"><ele>199.5</ele><time>2026-04-26T08:28:35.537Z</time></trkpt><trkpt lat="43.8144817" lon="12.6882233"><ele>200.0</ele><time>2026-04-26T08:28:36.533Z</time></trkpt><trkpt lat="43.814355" lon="12.6883133"><ele>199.0</ele><time>2026-04-26T08:28:37.538Z</time></trkpt><trkpt lat="43.814235" lon="12.6884033"><ele>198.0</ele><time>2026-04-26T08:28:38.539Z</time></trkpt><trkpt lat="43.8141333" lon="12.6884917"><ele>197.0</ele><time>2026-04-26T08:28:39.535Z</time></trkpt><trkpt lat="43.8140467" lon="12.6885467"><ele>196.0</ele><time>2026-04-26T08:28:40.536Z</time></trkpt><trkpt lat="43.8139733" lon="12.688585"><ele>195.0</ele><time>2026-04-26T08:28:41.538Z</time></trkpt><trkpt lat="43.8139083" lon="12.6886083"><ele>195.0</ele><time>2026-04-26T08:28:42.538Z</time></trkpt><trkpt lat="43.8138383" lon="12.6886433"><ele>195.0</ele><time>2026-04-26T08:28:45.534Z</time></trkpt><trkpt lat="43.8137417" lon="12.6887633"><ele>195.0</ele><time>2026-04-26T08:28:47.533Z</time></trkpt><trkpt lat="43.81367" lon="12.688855"><ele>195.0</ele><time>2026-04-26T08:28:48.535Z</time></trkpt><trkpt lat="43.8135617" lon="12.68898"><ele>195.0</ele><time>2026-04-26T08:28:49.535Z</time></trkpt><trkpt lat="43.8134583" lon="12.6891067"><ele>195.75</ele><time>2026-04-26T08:28:50.534Z</time></trkpt><trkpt lat="43.813365" lon="12.6892483"><ele>196.5</ele><time>2026-04-26T08:28:51.534Z</time></trkpt><trkpt lat="43.8132833" lon="12.6894083"><ele>197.25</ele><time>2026-04-26T08:28:52.535Z</time></trkpt><trkpt lat="43.8132167" lon="12.68959"><ele>198.0</ele><time>2026-04-26T08:28:53.533Z</time></trkpt><trkpt lat="43.813165" lon="12.68979"><ele>198.0</ele><time>2026-04-26T08:28:54.534Z</time></trkpt><trkpt lat="43.8131267" lon="12.69"><ele>198.0</ele><time>2026-04-26T08:28:55.537Z</time></trkpt><trkpt lat="43.8130967" lon="12.69021"><ele>198.0</ele><time>2026-04-26T08:28:56.534Z</time></trkpt><trkpt lat="43.8130667" lon="12.6904183"><ele>200.66666666666669</ele><time>2026-04-26T08:28:57.535Z</time></trkpt><trkpt lat="43.813035" lon="12.6906233"><ele>203.33333333333334</ele><time>2026-04-26T08:28:58.533Z</time></trkpt><trkpt lat="43.812985" lon="12.6908167"><ele>206.0</ele><time>2026-04-26T08:28:59.534Z</time></trkpt><trkpt lat="43.8129117" lon="12.6910133"><ele>205.0</ele><time>2026-04-26T08:29:00.538Z</time></trkpt><trkpt lat="43.8128083" lon="12.6911983"><ele>204.0</ele><time>2026-04-26T08:29:01.536Z</time></trkpt><trkpt lat="43.81269" lon="12.6913633"><ele>203.0</ele><time>2026-04-26T08:29:02.538Z</time></trkpt><trkpt lat="43.81257" lon="12.69148"><ele>203.0</ele><time>2026-04-26T08:29:03.537Z</time></trkpt><trkpt lat="43.8124383" lon="12.6915367"><ele>203.0</ele><time>2026-04-26T08:29:04.536Z</time></trkpt><trkpt lat="43.8122967" lon="12.6915383"><ele>203.0</ele><time>2026-04-26T08:29:05.537Z</time></trkpt><trkpt lat="43.81215" lon="12.69151"><ele>203.0</ele><time>2026-04-26T08:29:06.537Z</time></trkpt><trkpt lat="43.812005" lon="12.691515"><ele>203.0</ele><time>2026-04-26T08:29:07.536Z</time></trkpt><trkpt lat="43.8118633" lon="12.6915767"><ele>203.0</ele><time>2026-04-26T08:29:08.537Z</time></trkpt><trkpt lat="43.8117183" lon="12.6916817"><ele>203.0</ele><time>2026-04-26T08:29:09.536Z</time></trkpt><trkpt lat="43.8115633" lon="12.6917967"><ele>204.33333333333334</ele><time>2026-04-26T08:29:10.537Z</time></trkpt><trkpt lat="43.8114" lon="12.6918883"><ele>205.66666666666669</ele><time>2026-04-26T08:29:11.537Z</time></trkpt><trkpt lat="43.8112383" lon="12.6919483"><ele>207.0</ele><time>2026-04-26T08:29:12.537Z</time></trkpt><trkpt lat="43.8110833" lon="12.69197"><ele>208.66666666666669</ele><time>2026-04-26T08:29:13.535Z</time></trkpt><trkpt lat="43.8109167" lon="12.691925"><ele>210.33333333333334</ele><time>2026-04-26T08:29:14.535Z</time></trkpt><trkpt lat="43.8107283" lon="12.6918517"><ele>212.0</ele><time>2026-04-26T08:29:15.537Z</time></trkpt><trkpt lat="43.8105433" lon="12.6917917"><ele>212.0</ele><time>2026-04-26T08:29:16.535Z</time></trkpt><trkpt lat="43.8103767" lon="12.691735"><ele>212.0</ele><time>2026-04-26T08:29:17.536Z</time></trkpt><trkpt lat="43.8102317" lon="12.691665"><ele>212.0</ele><time>2026-04-26T08:29:18.536Z</time></trkpt><trkpt lat="43.810105" lon="12.6915533"><ele>213.5</ele><time>2026-04-26T08:29:19.536Z</time></trkpt><trkpt lat="43.810005" lon="12.691395"><ele>215.0</ele><time>2026-04-26T08:29:20.534Z</time></trkpt><trkpt lat="43.8099367" lon="12.6912117"><ele>216.5</ele><time>2026-04-26T08:29:21.535Z</time></trkpt><trkpt lat="43.8098933" lon="12.69103"><ele>218.0</ele><time>2026-04-26T08:29:22.537Z</time></trkpt><trkpt lat="43.8098433" lon="12.6908817"><ele>218.0</ele><time>2026-04-26T08:29:23.537Z</time></trkpt><trkpt lat="43.8097767" lon="12.69076"><ele>218.0</ele><time>2026-04-26T08:29:24.533Z</time></trkpt><trkpt lat="43.809685" lon="12.690685"><ele>218.0</ele><time>2026-04-26T08:29:25.538Z</time></trkpt><trkpt lat="43.8095733" lon="12.690665"><ele>218.0</ele><time>2026-04-26T08:29:26.537Z</time></trkpt><trkpt lat="43.8094283" lon="12.6906817"><ele>221.25</ele><time>2026-04-26T08:29:27.538Z</time></trkpt><trkpt lat="43.8092933" lon="12.69069"><ele>224.5</ele><time>2026-04-26T08:29:28.537Z</time></trkpt><trkpt lat="43.8091617" lon="12.690695"><ele>227.75</ele><time>2026-04-26T08:29:29.537Z</time></trkpt><trkpt lat="43.8090567" lon="12.690705"><ele>231.0</ele><time>2026-04-26T08:29:30.537Z</time></trkpt><trkpt lat="43.8089633" lon="12.6907083"><ele>231.0</ele><time>2026-04-26T08:29:31.537Z</time></trkpt><trkpt lat="43.8088933" lon="12.6906983"><ele>231.00000000000003</ele><time>2026-04-26T08:29:32.537Z</time></trkpt><trkpt lat="43.808795" lon="12.6906033"><ele>231.00000000000003</ele><time>2026-04-26T08:29:34.537Z</time></trkpt><trkpt lat="43.808755" lon="12.69052"><ele>231.0</ele><time>2026-04-26T08:29:35.537Z</time></trkpt><trkpt lat="43.8087317" lon="12.6903517"><ele>231.0</ele><time>2026-04-26T08:29:36.536Z</time></trkpt><trkpt lat="43.8087117" lon="12.6901317"><ele>229.66666666666669</ele><time>2026-04-26T08:29:37.538Z</time></trkpt><trkpt lat="43.8086767" lon="12.689905"><ele>228.33333333333334</ele><time>2026-04-26T08:29:38.537Z</time></trkpt><trkpt lat="43.808635" lon="12.6896617"><ele>227.0</ele><time>2026-04-26T08:29:39.537Z</time></trkpt><trkpt lat="43.8085833" lon="12.68942"><ele>228.33333333333334</ele><time>2026-04-26T08:29:40.536Z</time></trkpt><trkpt lat="43.8085133" lon="12.6891767"><ele>229.66666666666669</ele><time>2026-04-26T08:29:41.538Z</time></trkpt><trkpt lat="43.808435" lon="12.6889267"><ele>231.0</ele><time>2026-04-26T08:29:42.537Z</time></trkpt><trkpt lat="43.80835" lon="12.6886717"><ele>231.0</ele><time>2026-04-26T08:29:43.536Z</time></trkpt><trkpt lat="43.8082717" lon="12.68843"><ele>231.0</ele><time>2026-04-26T08:29:44.537Z</time></trkpt><trkpt lat="43.8081933" lon="12.6881983"><ele>231.0</ele><time>2026-04-26T08:29:45.538Z</time></trkpt><trkpt lat="43.808115" lon="12.6879667"><ele>230.0</ele><time>2026-04-26T08:29:46.534Z</time></trkpt><trkpt lat="43.8080417" lon="12.6877317"><ele>229.0</ele><time>2026-04-26T08:29:47.533Z</time></trkpt><trkpt lat="43.807975" lon="12.6874883"><ele>228.0</ele><time>2026-04-26T08:29:48.536Z</time></trkpt><trkpt lat="43.8079167" lon="12.6872467"><ele>228.0</ele><time>2026-04-26T08:29:49.535Z</time></trkpt><trkpt lat="43.807865" lon="12.6870133"><ele>228.0</ele><time>2026-04-26T08:29:50.534Z</time></trkpt><trkpt lat="43.807815" lon="12.6867867"><ele>228.0</ele><time>2026-04-26T08:29:51.535Z</time></trkpt><trkpt lat="43.8077583" lon="12.6865633"><ele>227.66666666666669</ele><time>2026-04-26T08:29:52.535Z</time></trkpt><trkpt lat="43.8076883" lon="12.6863517"><ele>227.33333333333334</ele><time>2026-04-26T08:29:53.533Z</time></trkpt><trkpt lat="43.807595" lon="12.6861583"><ele>227.0</ele><time>2026-04-26T08:29:54.537Z</time></trkpt><trkpt lat="43.807475" lon="12.6859783"><ele>228.66666666666669</ele><time>2026-04-26T08:29:55.537Z</time></trkpt><trkpt lat="43.807335" lon="12.685805"><ele>230.33333333333331</ele><time>2026-04-26T08:29:56.538Z</time></trkpt><trkpt lat="43.8071767" lon="12.6856267"><ele>232.0</ele><time>2026-04-26T08:29:57.534Z</time></trkpt><trkpt lat="43.8070083" lon="12.6854383"><ele>226.0</ele><time>2026-04-26T08:29:58.536Z</time></trkpt><trkpt lat="43.8068267" lon="12.6852333"><ele>220.0</ele><time>2026-04-26T08:29:59.534Z</time></trkpt><trkpt lat="43.806635" lon="12.6850117"><ele>220.0</ele><time>2026-04-26T08:30:00.536Z</time></trkpt><trkpt lat="43.80643" lon="12.6847767"><ele>220.0</ele><time>2026-04-26T08:30:01.534Z</time></trkpt><trkpt lat="43.8062217" lon="12.68455"><ele>215.0</ele><time>2026-04-26T08:30:02.533Z</time></trkpt><trkpt lat="43.80602" lon="12.6843317"><ele>210.0</ele><time>2026-04-26T08:30:03.533Z</time></trkpt><trkpt lat="43.8058267" lon="12.6841183"><ele>210.0</ele><time>2026-04-26T08:30:04.535Z</time></trkpt><trkpt lat="43.8056517" lon="12.68389"><ele>210.0</ele><time>2026-04-26T08:30:05.534Z</time></trkpt><trkpt lat="43.8054833" lon="12.6836533"><ele>210.0</ele><time>2026-04-26T08:30:06.536Z</time></trkpt><trkpt lat="43.8053133" lon="12.6834167"><ele>210.0</ele><time>2026-04-26T08:30:07.534Z</time></trkpt><trkpt lat="43.8051383" lon="12.6831867"><ele>210.0</ele><time>2026-04-26T08:30:08.533Z</time></trkpt><trkpt lat="43.8049617" lon="12.682965"><ele>210.0</ele><time>2026-04-26T08:30:09.534Z</time></trkpt><trkpt lat="43.8047867" lon="12.6827483"><ele>211.0</ele><time>2026-04-26T08:30:10.538Z</time></trkpt><trkpt lat="43.80461" lon="12.6825383"><ele>212.0</ele><time>2026-04-26T08:30:11.537Z</time></trkpt><trkpt lat="43.8044383" lon="12.682345"><ele>211.33333333333334</ele><time>2026-04-26T08:30:12.537Z</time></trkpt><trkpt lat="43.8042683" lon="12.6821733"><ele>210.66666666666669</ele><time>2026-04-26T08:30:13.537Z</time></trkpt><trkpt lat="43.8041017" lon="12.6820083"><ele>210.0</ele><time>2026-04-26T08:30:14.536Z</time></trkpt><trkpt lat="43.8039383" lon="12.681855"><ele>211.33333333333331</ele><time>2026-04-26T08:30:15.537Z</time></trkpt><trkpt lat="43.803785" lon="12.6817167"><ele>212.66666666666666</ele><time>2026-04-26T08:30:16.537Z</time></trkpt><trkpt lat="43.8036333" lon="12.6815917"><ele>214.0</ele><time>2026-04-26T08:30:17.537Z</time></trkpt><trkpt lat="43.803475" lon="12.681485"><ele>214.0</ele><time>2026-04-26T08:30:18.537Z</time></trkpt><trkpt lat="43.8033083" lon="12.6813917"><ele>214.0</ele><time>2026-04-26T08:30:19.538Z</time></trkpt><trkpt lat="43.80314" lon="12.6813133"><ele>214.0</ele><time>2026-04-26T08:30:20.538Z</time></trkpt><trkpt lat="43.8029733" lon="12.6812417"><ele>214.0</ele><time>2026-04-26T08:30:21.538Z</time></trkpt><trkpt lat="43.8028083" lon="12.6811717"><ele>214.0</ele><time>2026-04-26T08:30:22.537Z</time></trkpt><trkpt lat="43.8026433" lon="12.6811017"><ele>214.0</ele><time>2026-04-26T08:30:23.538Z</time></trkpt><trkpt lat="43.8024767" lon="12.68103"><ele>215.0</ele><time>2026-04-26T08:30:24.537Z</time></trkpt><trkpt lat="43.8023183" lon="12.6809433"><ele>216.0</ele><time>2026-04-26T08:30:25.537Z</time></trkpt><trkpt lat="43.8021667" lon="12.6808483"><ele>217.0</ele><time>2026-04-26T08:30:26.537Z</time></trkpt><trkpt lat="43.80202" lon="12.6807483"><ele>217.0</ele><time>2026-04-26T08:30:27.533Z</time></trkpt><trkpt lat="43.8018767" lon="12.68065"><ele>217.0</ele><time>2026-04-26T08:30:28.534Z</time></trkpt><trkpt lat="43.8017333" lon="12.6805617"><ele>217.0</ele><time>2026-04-26T08:30:29.534Z</time></trkpt><trkpt lat="43.8015883" lon="12.6804833"><ele>220.0</ele><time>2026-04-26T08:30:30.534Z</time></trkpt><trkpt lat="43.8014383" lon="12.6804183"><ele>223.0</ele><time>2026-04-26T08:30:31.535Z</time></trkpt><trkpt lat="43.80128" lon="12.6803733"><ele>226.0</ele><time>2026-04-26T08:30:32.534Z</time></trkpt><trkpt lat="43.8011167" lon="12.6803417"><ele>227.75</ele><time>2026-04-26T08:30:33.534Z</time></trkpt><trkpt lat="43.8009583" lon="12.68032"><ele>229.5</ele><time>2026-04-26T08:30:34.534Z</time></trkpt><trkpt lat="43.8008083" lon="12.6802983"><ele>231.25</ele><time>2026-04-26T08:30:35.534Z</time></trkpt><trkpt lat="43.80067" lon="12.6802783"><ele>233.0</ele><time>2026-04-26T08:30:36.535Z</time></trkpt><trkpt lat="43.800535" lon="12.68027"><ele>233.0</ele><time>2026-04-26T08:30:37.535Z</time></trkpt><trkpt lat="43.8004067" lon="12.680285"><ele>233.0</ele><time>2026-04-26T08:30:38.534Z</time></trkpt><trkpt lat="43.8002817" lon="12.68034"><ele>233.0</ele><time>2026-04-26T08:30:39.535Z</time></trkpt><trkpt lat="43.8001533" lon="12.6804167"><ele>233.0</ele><time>2026-04-26T08:30:40.537Z</time></trkpt><trkpt lat="43.80003" lon="12.680505"><ele>236.25</ele><time>2026-04-26T08:30:41.533Z</time></trkpt><trkpt lat="43.7999133" lon="12.6805883"><ele>239.5</ele><time>2026-04-26T08:30:42.536Z</time></trkpt><trkpt lat="43.799805" lon="12.6806683"><ele>242.75</ele><time>2026-04-26T08:30:43.535Z</time></trkpt><trkpt lat="43.7997033" lon="12.6807417"><ele>246.0</ele><time>2026-04-26T08:30:44.538Z</time></trkpt><trkpt lat="43.79961" lon="12.6808067"><ele>246.0</ele><time>2026-04-26T08:30:45.537Z</time></trkpt><trkpt lat="43.7995317" lon="12.6808633"><ele>246.00000000000003</ele><time>2026-04-26T08:30:46.534Z</time></trkpt><trkpt lat="43.7994683" lon="12.68091"><ele>246.00000000000003</ele><time>2026-04-26T08:30:47.537Z</time></trkpt><trkpt lat="43.79941" lon="12.6810067"><ele>246.0</ele><time>2026-04-26T08:30:49.537Z</time></trkpt><trkpt lat="43.799425" lon="12.681155"><ele>246.0</ele><time>2026-04-26T08:30:51.535Z</time></trkpt><trkpt lat="43.79945" lon="12.681285"><ele>246.25</ele><time>2026-04-26T08:30:52.533Z</time></trkpt><trkpt lat="43.7994617" lon="12.6814283"><ele>246.5</ele><time>2026-04-26T08:30:53.533Z</time></trkpt><trkpt lat="43.7994767" lon="12.681635"><ele>246.75</ele><time>2026-04-26T08:30:54.533Z</time></trkpt><trkpt lat="43.7994883" lon="12.6818433"><ele>247.0</ele><time>2026-04-26T08:30:55.535Z</time></trkpt><trkpt lat="43.7995017" lon="12.6820667"><ele>248.25</ele><time>2026-04-26T08:30:56.533Z</time></trkpt><trkpt lat="43.7995083" lon="12.682285"><ele>249.5</ele><time>2026-04-26T08:30:57.533Z</time></trkpt><trkpt lat="43.7995167" lon="12.6824833"><ele>250.75</ele><time>2026-04-26T08:30:58.533Z</time></trkpt><trkpt lat="43.79953" lon="12.682655"><ele>252.0</ele><time>2026-04-26T08:30:59.533Z</time></trkpt><trkpt lat="43.79953" lon="12.6828067"><ele>253.5</ele><time>2026-04-26T08:31:00.533Z</time></trkpt><trkpt lat="43.7995183" lon="12.6829667"><ele>255.0</ele><time>2026-04-26T08:31:01.534Z</time></trkpt><trkpt lat="43.799515" lon="12.6831383"><ele>256.5</ele><time>2026-04-26T08:31:02.533Z</time></trkpt><trkpt lat="43.7995317" lon="12.683335"><ele>258.0</ele><time>2026-04-26T08:31:03.533Z</time></trkpt><trkpt lat="43.799545" lon="12.683555"><ele>257.6666666666667</ele><time>2026-04-26T08:31:04.534Z</time></trkpt><trkpt lat="43.7995533" lon="12.68378"><ele>257.33333333333337</ele><time>2026-04-26T08:31:05.534Z</time></trkpt><trkpt lat="43.7995683" lon="12.68402"><ele>257.0</ele><time>2026-04-26T08:31:06.534Z</time></trkpt><trkpt lat="43.7995883" lon="12.6842733"><ele>257.6666666666667</ele><time>2026-04-26T08:31:07.533Z</time></trkpt><trkpt lat="43.7996133" lon="12.6845517"><ele>258.3333333333333</ele><time>2026-04-26T08:31:08.534Z</time></trkpt><trkpt lat="43.7996333" lon="12.6848333"><ele>259.0</ele><time>2026-04-26T08:31:09.533Z</time></trkpt><trkpt lat="43.7996617" lon="12.6851017"><ele>260.3333333333333</ele><time>2026-04-26T08:31:10.533Z</time></trkpt><trkpt lat="43.7996917" lon="12.685365"><ele>261.6666666666667</ele><time>2026-04-26T08:31:11.534Z</time></trkpt><trkpt lat="43.7997183" lon="12.68563"><ele>263.0</ele><time>2026-04-26T08:31:12.534Z</time></trkpt><trkpt lat="43.7997467" lon="12.6859017"><ele>263.33333333333337</ele><time>2026-04-26T08:31:13.533Z</time></trkpt><trkpt lat="43.7997733" lon="12.6861733"><ele>263.6666666666667</ele><time>2026-04-26T08:31:14.534Z</time></trkpt><trkpt lat="43.7998" lon="12.686445"><ele>264.0</ele><time>2026-04-26T08:31:15.533Z</time></trkpt><trkpt lat="43.7998217" lon="12.68672"><ele>263.6666666666667</ele><time>2026-04-26T08:31:16.533Z</time></trkpt><trkpt lat="43.7998333" lon="12.687"><ele>263.33333333333337</ele><time>2026-04-26T08:31:17.537Z</time></trkpt><trkpt lat="43.7998417" lon="12.6872717"><ele>263.0</ele><time>2026-04-26T08:31:18.537Z</time></trkpt><trkpt lat="43.7998483" lon="12.6875117"><ele>263.0</ele><time>2026-04-26T08:31:19.533Z</time></trkpt><trkpt lat="43.799855" lon="12.687735"><ele>263.0</ele><time>2026-04-26T08:31:20.534Z</time></trkpt><trkpt lat="43.7998533" lon="12.6879417"><ele>263.0</ele><time>2026-04-26T08:31:21.535Z</time></trkpt><trkpt lat="43.7998483" lon="12.688115"><ele>263.0</ele><time>2026-04-26T08:31:22.538Z</time></trkpt><trkpt lat="43.7998367" lon="12.6882517"><ele>262.8</ele><time>2026-04-26T08:31:23.534Z</time></trkpt><trkpt lat="43.7998167" lon="12.6883683"><ele>262.6</ele><time>2026-04-26T08:31:24.535Z</time></trkpt><trkpt lat="43.7997817" lon="12.6884783"><ele>262.4</ele><time>2026-04-26T08:31:25.535Z</time></trkpt><trkpt lat="43.79973" lon="12.6885517"><ele>262.2</ele><time>2026-04-26T08:31:26.536Z</time></trkpt><trkpt lat="43.7996567" lon="12.6885567"><ele>262.0</ele><time>2026-04-26T08:31:27.535Z</time></trkpt><trkpt lat="43.799485" lon="12.6884417"><ele>262.0</ele><time>2026-04-26T08:31:29.537Z</time></trkpt><trkpt lat="43.7993733" lon="12.6883583"><ele>262.0</ele><time>2026-04-26T08:31:30.536Z</time></trkpt><trkpt lat="43.7992333" lon="12.6882467"><ele>262.0</ele><time>2026-04-26T08:31:31.538Z</time></trkpt><trkpt lat="43.7990617" lon="12.6880867"><ele>262.5</ele><time>2026-04-26T08:31:32.534Z</time></trkpt><trkpt lat="43.7988467" lon="12.6878517"><ele>263.0</ele><time>2026-04-26T08:31:33.536Z</time></trkpt><trkpt lat="43.7986667" lon="12.6876933"><ele>264.6666666666667</ele><time>2026-04-26T08:31:34.535Z</time></trkpt><trkpt lat="43.79849" lon="12.6875367"><ele>266.3333333333333</ele><time>2026-04-26T08:31:35.535Z</time></trkpt><trkpt lat="43.798315" lon="12.6873783"><ele>268.0</ele><time>2026-04-26T08:31:36.535Z</time></trkpt><trkpt lat="43.7981433" lon="12.6872167"><ele>268.0</ele><time>2026-04-26T08:31:37.538Z</time></trkpt><trkpt lat="43.797985" lon="12.6870617"><ele>268.0</ele><time>2026-04-26T08:31:38.536Z</time></trkpt><trkpt lat="43.7978383" lon="12.686925"><ele>268.0</ele><time>2026-04-26T08:31:39.534Z</time></trkpt><trkpt lat="43.7977067" lon="12.6868017"><ele>271.0</ele><time>2026-04-26T08:31:40.535Z</time></trkpt><trkpt lat="43.7975867" lon="12.6867083"><ele>274.0</ele><time>2026-04-26T08:31:41.534Z</time></trkpt><trkpt lat="43.7974767" lon="12.686645"><ele>277.0</ele><time>2026-04-26T08:31:42.536Z</time></trkpt><trkpt lat="43.7973783" lon="12.686605"><ele>280.0</ele><time>2026-04-26T08:31:43.535Z</time></trkpt><trkpt lat="43.797285" lon="12.6865867"><ele>280.0</ele><time>2026-04-26T08:31:44.535Z</time></trkpt><trkpt lat="43.7971883" lon="12.6865883"><ele>280.0</ele><time>2026-04-26T08:31:45.534Z</time></trkpt><trkpt lat="43.797075" lon="12.6866017"><ele>280.0</ele><time>2026-04-26T08:31:46.535Z</time></trkpt><trkpt lat="43.7969467" lon="12.6866183"><ele>280.0</ele><time>2026-04-26T08:31:47.535Z</time></trkpt><trkpt lat="43.796795" lon="12.68664"><ele>280.66666666666663</ele><time>2026-04-26T08:31:48.535Z</time></trkpt><trkpt lat="43.79663" lon="12.6866617"><ele>281.3333333333333</ele><time>2026-04-26T08:31:49.536Z</time></trkpt><trkpt lat="43.7964617" lon="12.68669"><ele>282.0</ele><time>2026-04-26T08:31:50.534Z</time></trkpt><trkpt lat="43.7963" lon="12.6867183"><ele>282.0</ele><time>2026-04-26T08:31:51.535Z</time></trkpt><trkpt lat="43.7961467" lon="12.6867433"><ele>282.0</ele><time>2026-04-26T08:31:52.535Z</time></trkpt><trkpt lat="43.7960017" lon="12.68676"><ele>282.0</ele><time>2026-04-26T08:31:53.537Z</time></trkpt><trkpt lat="43.7958583" lon="12.68678"><ele>282.0</ele><time>2026-04-26T08:31:54.535Z</time></trkpt><trkpt lat="43.7957133" lon="12.6868067"><ele>282.75</ele><time>2026-04-26T08:31:55.536Z</time></trkpt><trkpt lat="43.7955717" lon="12.6868367"><ele>283.5</ele><time>2026-04-26T08:31:56.534Z</time></trkpt><trkpt lat="43.79543" lon="12.68687"><ele>284.25</ele><time>2026-04-26T08:31:57.535Z</time></trkpt><trkpt lat="43.7952883" lon="12.686905"><ele>285.0</ele><time>2026-04-26T08:31:58.538Z</time></trkpt><trkpt lat="43.7951567" lon="12.686955"><ele>283.25</ele><time>2026-04-26T08:31:59.534Z</time></trkpt><trkpt lat="43.79503" lon="12.687035"><ele>281.5</ele><time>2026-04-26T08:32:00.535Z</time></trkpt><trkpt lat="43.79491" lon="12.6871517"><ele>279.75</ele><time>2026-04-26T08:32:01.536Z</time></trkpt><trkpt lat="43.7948033" lon="12.6872967"><ele>278.0</ele><time>2026-04-26T08:32:02.535Z</time></trkpt><trkpt lat="43.7947167" lon="12.687465"><ele>278.0</ele><time>2026-04-26T08:32:03.535Z</time></trkpt><trkpt lat="43.7946517" lon="12.6876583"><ele>278.0</ele><time>2026-04-26T08:32:04.535Z</time></trkpt><trkpt lat="43.7945917" lon="12.68787"><ele>278.0</ele><time>2026-04-26T08:32:05.535Z</time></trkpt><trkpt lat="43.7945283" lon="12.6880883"><ele>274.6666666666667</ele><time>2026-04-26T08:32:06.536Z</time></trkpt><trkpt lat="43.7944583" lon="12.6882983"><ele>271.3333333333333</ele><time>2026-04-26T08:32:07.537Z</time></trkpt><trkpt lat="43.7943833" lon="12.6884983"><ele>268.0</ele><time>2026-04-26T08:32:08.535Z</time></trkpt><trkpt lat="43.7943067" lon="12.6886833"><ele>268.0</ele><time>2026-04-26T08:32:09.538Z</time></trkpt><trkpt lat="43.79423" lon="12.6888583"><ele>268.0</ele><time>2026-04-26T08:32:10.535Z</time></trkpt><trkpt lat="43.79416" lon="12.6890317"><ele>268.0</ele><time>2026-04-26T08:32:11.536Z</time></trkpt><trkpt lat="43.7941083" lon="12.6892133"><ele>268.0</ele><time>2026-04-26T08:32:12.535Z</time></trkpt><trkpt lat="43.7940767" lon="12.6894233"><ele>264.3333333333333</ele><time>2026-04-26T08:32:13.538Z</time></trkpt><trkpt lat="43.79406" lon="12.6896433"><ele>260.6666666666667</ele><time>2026-04-26T08:32:14.535Z</time></trkpt><trkpt lat="43.79405" lon="12.6898583"><ele>257.0</ele><time>2026-04-26T08:32:15.537Z</time></trkpt><trkpt lat="43.7940417" lon="12.69006"><ele>257.0</ele><time>2026-04-26T08:32:16.534Z</time></trkpt><trkpt lat="43.7940317" lon="12.6902517"><ele>257.0</ele><time>2026-04-26T08:32:17.536Z</time></trkpt><trkpt lat="43.7940167" lon="12.690435"><ele>257.0</ele><time>2026-04-26T08:32:18.535Z</time></trkpt><trkpt lat="43.7939983" lon="12.6906117"><ele>257.0</ele><time>2026-04-26T08:32:19.538Z</time></trkpt><trkpt lat="43.7939767" lon="12.69077"><ele>256.0</ele><time>2026-04-26T08:32:20.535Z</time></trkpt><trkpt lat="43.793955" lon="12.6909133"><ele>255.0</ele><time>2026-04-26T08:32:21.537Z</time></trkpt><trkpt lat="43.7939267" lon="12.6910467"><ele>254.0</ele><time>2026-04-26T08:32:22.537Z</time></trkpt><trkpt lat="43.7938933" lon="12.6911667"><ele>253.0</ele><time>2026-04-26T08:32:23.536Z</time></trkpt><trkpt lat="43.79385" lon="12.69127"><ele>252.0</ele><time>2026-04-26T08:32:24.536Z</time></trkpt><trkpt lat="43.7938" lon="12.6913667"><ele>251.5</ele><time>2026-04-26T08:32:25.536Z</time></trkpt><trkpt lat="43.7937533" lon="12.6914583"><ele>251.0</ele><time>2026-04-26T08:32:26.535Z</time></trkpt><trkpt lat="43.7937133" lon="12.6915483"><ele>250.5</ele><time>2026-04-26T08:32:27.536Z</time></trkpt><trkpt lat="43.7936783" lon="12.69164"><ele>250.0</ele><time>2026-04-26T08:32:28.535Z</time></trkpt><trkpt lat="43.7936533" lon="12.691735"><ele>249.5</ele><time>2026-04-26T08:32:29.535Z</time></trkpt><trkpt lat="43.793635" lon="12.69184"><ele>249.0</ele><time>2026-04-26T08:32:30.536Z</time></trkpt><trkpt lat="43.7936317" lon="12.691955"><ele>247.5</ele><time>2026-04-26T08:32:31.538Z</time></trkpt><trkpt lat="43.7936483" lon="12.6921"><ele>246.0</ele><time>2026-04-26T08:32:32.533Z</time></trkpt><trkpt lat="43.7936717" lon="12.6922883"><ele>244.5</ele><time>2026-04-26T08:32:33.536Z</time></trkpt><trkpt lat="43.7936967" lon="12.6924983"><ele>243.0</ele><time>2026-04-26T08:32:34.536Z</time></trkpt><trkpt lat="43.7937233" lon="12.6927267"><ele>241.0</ele><time>2026-04-26T08:32:35.532Z</time></trkpt><trkpt lat="43.7937517" lon="12.6929533"><ele>239.0</ele><time>2026-04-26T08:32:36.534Z</time></trkpt><trkpt lat="43.79378" lon="12.6931667"><ele>237.0</ele><time>2026-04-26T08:32:37.538Z</time></trkpt><trkpt lat="43.7937967" lon="12.6933767"><ele>237.0</ele><time>2026-04-26T08:32:38.533Z</time></trkpt><trkpt lat="43.7937817" lon="12.6935867"><ele>237.0</ele><time>2026-04-26T08:32:39.535Z</time></trkpt><trkpt lat="43.7937383" lon="12.6938067"><ele>237.0</ele><time>2026-04-26T08:32:40.534Z</time></trkpt><trkpt lat="43.7936883" lon="12.6940417"><ele>237.0</ele><time>2026-04-26T08:32:41.535Z</time></trkpt><trkpt lat="43.793645" lon="12.694275"><ele>237.0</ele><time>2026-04-26T08:32:42.536Z</time></trkpt><trkpt lat="43.7936083" lon="12.6944917"><ele>237.0</ele><time>2026-04-26T08:32:43.536Z</time></trkpt><trkpt lat="43.793585" lon="12.6947017"><ele>237.33333333333331</ele><time>2026-04-26T08:32:44.535Z</time></trkpt><trkpt lat="43.7935783" lon="12.6949083"><ele>237.66666666666666</ele><time>2026-04-26T08:32:45.535Z</time></trkpt><trkpt lat="43.793595" lon="12.695115"><ele>238.0</ele><time>2026-04-26T08:32:46.536Z</time></trkpt><trkpt lat="43.793635" lon="12.69532"><ele>238.5</ele><time>2026-04-26T08:32:47.535Z</time></trkpt><trkpt lat="43.793695" lon="12.6955233"><ele>239.0</ele><time>2026-04-26T08:32:48.535Z</time></trkpt><trkpt lat="43.793765" lon="12.695705"><ele>239.5</ele><time>2026-04-26T08:32:49.538Z</time></trkpt><trkpt lat="43.7938383" lon="12.6958717"><ele>240.0</ele><time>2026-04-26T08:32:50.534Z</time></trkpt><trkpt lat="43.7939117" lon="12.6960367"><ele>242.5</ele><time>2026-04-26T08:32:51.536Z</time></trkpt><trkpt lat="43.793975" lon="12.6961933"><ele>245.0</ele><time>2026-04-26T08:32:52.534Z</time></trkpt><trkpt lat="43.7940083" lon="12.6963383"><ele>247.5</ele><time>2026-04-26T08:32:53.533Z</time></trkpt><trkpt lat="43.794015" lon="12.6964917"><ele>250.0</ele><time>2026-04-26T08:32:54.534Z</time></trkpt><trkpt lat="43.7939967" lon="12.6966583"><ele>250.0</ele><time>2026-04-26T08:32:55.533Z</time></trkpt><trkpt lat="43.7939617" lon="12.6968483"><ele>250.0</ele><time>2026-04-26T08:32:56.533Z</time></trkpt><trkpt lat="43.7939067" lon="12.6970383"><ele>250.0</ele><time>2026-04-26T08:32:57.533Z</time></trkpt><trkpt lat="43.7938467" lon="12.6972067"><ele>250.0</ele><time>2026-04-26T08:32:58.533Z</time></trkpt><trkpt lat="43.7937917" lon="12.697345"><ele>250.66666666666666</ele><time>2026-04-26T08:32:59.533Z</time></trkpt><trkpt lat="43.7937467" lon="12.6974583"><ele>251.33333333333331</ele><time>2026-04-26T08:33:00.536Z</time></trkpt><trkpt lat="43.7937167" lon="12.6975633"><ele>252.0</ele><time>2026-04-26T08:33:01.536Z</time></trkpt><trkpt lat="43.793695" lon="12.6976683"><ele>252.66666666666669</ele><time>2026-04-26T08:33:02.537Z</time></trkpt><trkpt lat="43.7936867" lon="12.6977733"><ele>253.33333333333334</ele><time>2026-04-26T08:33:03.534Z</time></trkpt><trkpt lat="43.7936883" lon="12.697865"><ele>254.0</ele><time>2026-04-26T08:33:04.537Z</time></trkpt><trkpt lat="43.793695" lon="12.69799"><ele>254.0</ele><time>2026-04-26T08:33:06.537Z</time></trkpt><trkpt lat="43.793575" lon="12.69795"><ele>254.0</ele><time>2026-04-26T08:33:10.535Z</time></trkpt><trkpt lat="43.793475" lon="12.69784"><ele>254.0</ele><time>2026-04-26T08:33:11.533Z</time></trkpt><trkpt lat="43.7933633" lon="12.6977217"><ele>254.0</ele><time>2026-04-26T08:33:12.533Z</time></trkpt><trkpt lat="43.7932283" lon="12.69758"><ele>254.33333333333334</ele><time>2026-04-26T08:33:13.536Z</time></trkpt><trkpt lat="43.79308" lon="12.69743"><ele>254.66666666666669</ele><time>2026-04-26T08:33:14.533Z</time></trkpt><trkpt lat="43.7929417" lon="12.6972983"><ele>255.0</ele><time>2026-04-26T08:33:15.533Z</time></trkpt><trkpt lat="43.7928133" lon="12.6971783"><ele>255.0</ele><time>2026-04-26T08:33:16.536Z</time></trkpt><trkpt lat="43.7926933" lon="12.6970667"><ele>255.0</ele><time>2026-04-26T08:33:17.533Z</time></trkpt><trkpt lat="43.7925817" lon="12.6969633"><ele>255.0</ele><time>2026-04-26T08:33:18.535Z</time></trkpt><trkpt lat="43.7924617" lon="12.6968667"><ele>255.0</ele><time>2026-04-26T08:33:19.534Z</time></trkpt><trkpt lat="43.79234" lon="12.6967783"><ele>253.75</ele><time>2026-04-26T08:33:20.533Z</time></trkpt><trkpt lat="43.79222" lon="12.6966933"><ele>252.5</ele><time>2026-04-26T08:33:21.534Z</time></trkpt><trkpt lat="43.792105" lon="12.6966183"><ele>251.25</ele><time>2026-04-26T08:33:22.535Z</time></trkpt><trkpt lat="43.7919933" lon="12.696555"><ele>250.0</ele><time>2026-04-26T08:33:23.533Z</time></trkpt><trkpt lat="43.79188" lon="12.6965117"><ele>247.75</ele><time>2026-04-26T08:33:24.535Z</time></trkpt><trkpt lat="43.79176" lon="12.6964933"><ele>245.5</ele><time>2026-04-26T08:33:25.534Z</time></trkpt><trkpt lat="43.7916367" lon="12.6965017"><ele>243.25</ele><time>2026-04-26T08:33:26.533Z</time></trkpt><trkpt lat="43.7915117" lon="12.69653"><ele>241.0</ele><time>2026-04-26T08:33:27.534Z</time></trkpt><trkpt lat="43.7913883" lon="12.69657"><ele>241.0</ele><time>2026-04-26T08:33:28.535Z</time></trkpt><trkpt lat="43.7912683" lon="12.696615"><ele>241.0</ele><time>2026-04-26T08:33:29.538Z</time></trkpt><trkpt lat="43.7911483" lon="12.69667"><ele>241.0</ele><time>2026-04-26T08:33:30.538Z</time></trkpt><trkpt lat="43.7910283" lon="12.6967433"><ele>241.0</ele><time>2026-04-26T08:33:31.536Z</time></trkpt><trkpt lat="43.790905" lon="12.6968417"><ele>236.66666666666666</ele><time>2026-04-26T08:33:32.538Z</time></trkpt><trkpt lat="43.7907767" lon="12.6969617"><ele>232.33333333333331</ele><time>2026-04-26T08:33:33.536Z</time></trkpt><trkpt lat="43.79064" lon="12.6970933"><ele>228.0</ele><time>2026-04-26T08:33:34.533Z</time></trkpt><trkpt lat="43.790495" lon="12.697235"><ele>228.0</ele><time>2026-04-26T08:33:35.538Z</time></trkpt><trkpt lat="43.7903467" lon="12.6973833"><ele>228.0</ele><time>2026-04-26T08:33:36.536Z</time></trkpt><trkpt lat="43.7901983" lon="12.69754"><ele>228.0</ele><time>2026-04-26T08:33:37.537Z</time></trkpt><trkpt lat="43.7900567" lon="12.69769"><ele>225.66666666666669</ele><time>2026-04-26T08:33:38.533Z</time></trkpt><trkpt lat="43.78992" lon="12.6978417"><ele>223.33333333333334</ele><time>2026-04-26T08:33:39.534Z</time></trkpt><trkpt lat="43.7897833" lon="12.697995"><ele>221.0</ele><time>2026-04-26T08:33:40.534Z</time></trkpt><trkpt lat="43.789645" lon="12.6981483"><ele>221.0</ele><time>2026-04-26T08:33:41.535Z</time></trkpt><trkpt lat="43.7895017" lon="12.6983017"><ele>221.0</ele><time>2026-04-26T08:33:42.535Z</time></trkpt><trkpt lat="43.7893467" lon="12.6984633"><ele>221.0</ele><time>2026-04-26T08:33:43.536Z</time></trkpt><trkpt lat="43.7891683" lon="12.6986333"><ele>219.0</ele><time>2026-04-26T08:33:44.533Z</time></trkpt><trkpt lat="43.788975" lon="12.6988183"><ele>217.0</ele><time>2026-04-26T08:33:45.534Z</time></trkpt><trkpt lat="43.788775" lon="12.6990017"><ele>217.0</ele><time>2026-04-26T08:33:46.536Z</time></trkpt><trkpt lat="43.7885767" lon="12.6991783"><ele>217.0</ele><time>2026-04-26T08:33:47.533Z</time></trkpt><trkpt lat="43.7883883" lon="12.69934"><ele>215.33333333333331</ele><time>2026-04-26T08:33:48.537Z</time></trkpt><trkpt lat="43.7882083" lon="12.6994917"><ele>213.66666666666669</ele><time>2026-04-26T08:33:49.533Z</time></trkpt><trkpt lat="43.7880333" lon="12.6996333"><ele>212.0</ele><time>2026-04-26T08:33:50.534Z</time></trkpt><trkpt lat="43.787865" lon="12.6997717"><ele>212.0</ele><time>2026-04-26T08:33:51.538Z</time></trkpt><trkpt lat="43.7877017" lon="12.6999033"><ele>212.0</ele><time>2026-04-26T08:33:52.535Z</time></trkpt><trkpt lat="43.78754" lon="12.7000217"><ele>212.0</ele><time>2026-04-26T08:33:53.533Z</time></trkpt><trkpt lat="43.7873833" lon="12.70013"><ele>209.66666666666669</ele><time>2026-04-26T08:33:54.536Z</time></trkpt><trkpt lat="43.7872183" lon="12.7002183"><ele>207.33333333333331</ele><time>2026-04-26T08:33:55.533Z</time></trkpt><trkpt lat="43.78705" lon="12.7002783"><ele>205.0</ele><time>2026-04-26T08:33:56.533Z</time></trkpt><trkpt lat="43.786885" lon="12.700315"><ele>204.33333333333331</ele><time>2026-04-26T08:33:57.534Z</time></trkpt><trkpt lat="43.786725" lon="12.7003417"><ele>203.66666666666669</ele><time>2026-04-26T08:33:58.537Z</time></trkpt><trkpt lat="43.78658" lon="12.7003617"><ele>203.0</ele><time>2026-04-26T08:33:59.533Z</time></trkpt><trkpt lat="43.7864383" lon="12.700385"><ele>203.0</ele><time>2026-04-26T08:34:00.538Z</time></trkpt><trkpt lat="43.786305" lon="12.70042"><ele>203.0</ele><time>2026-04-26T08:34:01.536Z</time></trkpt><trkpt lat="43.7861817" lon="12.7004717"><ele>203.0</ele><time>2026-04-26T08:34:02.536Z</time></trkpt><trkpt lat="43.7860667" lon="12.7005383"><ele>203.0</ele><time>2026-04-26T08:34:03.537Z</time></trkpt><trkpt lat="43.7859583" lon="12.7006233"><ele>202.0</ele><time>2026-04-26T08:34:04.537Z</time></trkpt><trkpt lat="43.7858567" lon="12.7007267"><ele>201.0</ele><time>2026-04-26T08:34:05.536Z</time></trkpt><trkpt lat="43.7857567" lon="12.7008383"><ele>200.0</ele><time>2026-04-26T08:34:06.538Z</time></trkpt><trkpt lat="43.78566" lon="12.70094"><ele>199.0</ele><time>2026-04-26T08:34:07.537Z</time></trkpt><trkpt lat="43.7855617" lon="12.7010233"><ele>196.5</ele><time>2026-04-26T08:34:08.539Z</time></trkpt><trkpt lat="43.7854517" lon="12.7010967"><ele>194.0</ele><time>2026-04-26T08:34:09.534Z</time></trkpt><trkpt lat="43.78534" lon="12.7011817"><ele>191.5</ele><time>2026-04-26T08:34:10.535Z</time></trkpt><trkpt lat="43.78524" lon="12.7012917"><ele>189.0</ele><time>2026-04-26T08:34:11.534Z</time></trkpt><trkpt lat="43.78516" lon="12.7014283"><ele>189.0</ele><time>2026-04-26T08:34:12.535Z</time></trkpt><trkpt lat="43.7851033" lon="12.7015967"><ele>189.0</ele><time>2026-04-26T08:34:13.533Z</time></trkpt><trkpt lat="43.7850617" lon="12.701795"><ele>189.0</ele><time>2026-04-26T08:34:14.534Z</time></trkpt><trkpt lat="43.785025" lon="12.7019983"><ele>189.0</ele><time>2026-04-26T08:34:15.534Z</time></trkpt><trkpt lat="43.7849883" lon="12.7021883"><ele>187.5</ele><time>2026-04-26T08:34:16.534Z</time></trkpt><trkpt lat="43.7849533" lon="12.70237"><ele>186.0</ele><time>2026-04-26T08:34:17.535Z</time></trkpt><trkpt lat="43.7849133" lon="12.7025533"><ele>184.5</ele><time>2026-04-26T08:34:18.533Z</time></trkpt><trkpt lat="43.7848583" lon="12.7027533"><ele>183.0</ele><time>2026-04-26T08:34:19.535Z</time></trkpt><trkpt lat="43.7847933" lon="12.702965"><ele>181.0</ele><time>2026-04-26T08:34:20.533Z</time></trkpt><trkpt lat="43.7847233" lon="12.70317"><ele>179.0</ele><time>2026-04-26T08:34:21.534Z</time></trkpt><trkpt lat="43.7846517" lon="12.7033667"><ele>177.0</ele><time>2026-04-26T08:34:22.534Z</time></trkpt><trkpt lat="43.78458" lon="12.703555"><ele>175.0</ele><time>2026-04-26T08:34:23.536Z</time></trkpt><trkpt lat="43.7845083" lon="12.7037283"><ele>173.0</ele><time>2026-04-26T08:34:24.538Z</time></trkpt><trkpt lat="43.784435" lon="12.7038867"><ele>171.0</ele><time>2026-04-26T08:34:25.537Z</time></trkpt><trkpt lat="43.7843683" lon="12.7040317"><ele>169.0</ele><time>2026-04-26T08:34:26.536Z</time></trkpt><trkpt lat="43.7843117" lon="12.7041667"><ele>169.0</ele><time>2026-04-26T08:34:27.533Z</time></trkpt><trkpt lat="43.7842683" lon="12.7043017"><ele>169.0</ele><time>2026-04-26T08:34:28.533Z</time></trkpt><trkpt lat="43.7842367" lon="12.7044583"><ele>169.0</ele><time>2026-04-26T08:34:29.533Z</time></trkpt><trkpt lat="43.784215" lon="12.7046283"><ele>169.0</ele><time>2026-04-26T08:34:30.536Z</time></trkpt><trkpt lat="43.784195" lon="12.7048"><ele>168.0</ele><time>2026-04-26T08:34:31.537Z</time></trkpt><trkpt lat="43.7841783" lon="12.70497"><ele>167.0</ele><time>2026-04-26T08:34:32.536Z</time></trkpt><trkpt lat="43.784165" lon="12.70514"><ele>166.0</ele><time>2026-04-26T08:34:33.536Z</time></trkpt><trkpt lat="43.7841583" lon="12.7053267"><ele>165.0</ele><time>2026-04-26T08:34:34.533Z</time></trkpt><trkpt lat="43.7841583" lon="12.7055283"><ele>162.75</ele><time>2026-04-26T08:34:35.537Z</time></trkpt><trkpt lat="43.7841617" lon="12.70573"><ele>160.5</ele><time>2026-04-26T08:34:36.536Z</time></trkpt><trkpt lat="43.7841683" lon="12.705925"><ele>158.25</ele><time>2026-04-26T08:34:37.537Z</time></trkpt><trkpt lat="43.784175" lon="12.706105"><ele>156.0</ele><time>2026-04-26T08:34:38.536Z</time></trkpt><trkpt lat="43.78419" lon="12.706265"><ele>154.0</ele><time>2026-04-26T08:34:39.534Z</time></trkpt><trkpt lat="43.7842217" lon="12.706405"><ele>152.0</ele><time>2026-04-26T08:34:40.535Z</time></trkpt><trkpt lat="43.78426" lon="12.7065233"><ele>150.0</ele><time>2026-04-26T08:34:41.534Z</time></trkpt><trkpt lat="43.7842983" lon="12.70662"><ele>148.0</ele><time>2026-04-26T08:34:42.533Z</time></trkpt><trkpt lat="43.7843217" lon="12.7067067"><ele>146.0</ele><time>2026-04-26T08:34:43.536Z</time></trkpt><trkpt lat="43.7843117" lon="12.706805"><ele>144.0</ele><time>2026-04-26T08:34:44.533Z</time></trkpt><trkpt lat="43.7842717" lon="12.7068967"><ele>140.66666666666666</ele><time>2026-04-26T08:34:45.534Z</time></trkpt><trkpt lat="43.7842183" lon="12.70697"><ele>137.33333333333334</ele><time>2026-04-26T08:34:46.534Z</time></trkpt><trkpt lat="43.7841467" lon="12.706995"><ele>134.0</ele><time>2026-04-26T08:34:47.535Z</time></trkpt><trkpt lat="43.784045" lon="12.7069683"><ele>130.66666666666669</ele><time>2026-04-26T08:34:48.534Z</time></trkpt><trkpt lat="43.7839467" lon="12.70693"><ele>127.33333333333334</ele><time>2026-04-26T08:34:49.535Z</time></trkpt><trkpt lat="43.78386" lon="12.7069167"><ele>124.0</ele><time>2026-04-26T08:34:50.534Z</time></trkpt><trkpt lat="43.7837767" lon="12.7069283"><ele>124.0</ele><time>2026-04-26T08:34:51.534Z</time></trkpt><trkpt lat="43.7837083" lon="12.7069633"><ele>124.0</ele><time>2026-04-26T08:34:52.536Z</time></trkpt><trkpt lat="43.7836717" lon="12.707115"><ele>124.0</ele><time>2026-04-26T08:34:54.533Z</time></trkpt><trkpt lat="43.7836817" lon="12.707225"><ele>124.0</ele><time>2026-04-26T08:34:55.535Z</time></trkpt><trkpt lat="43.7837017" lon="12.707385"><ele>124.0</ele><time>2026-04-26T08:34:56.535Z</time></trkpt><trkpt lat="43.78374" lon="12.7075683"><ele>124.0</ele><time>2026-04-26T08:34:57.535Z</time></trkpt><trkpt lat="43.78375" lon="12.7077217"><ele>124.0</ele><time>2026-04-26T08:34:58.537Z</time></trkpt><trkpt lat="43.7837567" lon="12.7078783"><ele>124.0</ele><time>2026-04-26T08:34:59.537Z</time></trkpt><trkpt lat="43.7837583" lon="12.70805"><ele>124.0</ele><time>2026-04-26T08:35:00.533Z</time></trkpt><trkpt lat="43.7837567" lon="12.70822"><ele>122.4</ele><time>2026-04-26T08:35:01.536Z</time></trkpt><trkpt lat="43.7837533" lon="12.7083867"><ele>120.80000000000001</ele><time>2026-04-26T08:35:02.536Z</time></trkpt><trkpt lat="43.7837483" lon="12.70854"><ele>119.19999999999999</ele><time>2026-04-26T08:35:03.536Z</time></trkpt><trkpt lat="43.7837483" lon="12.7086733"><ele>117.6</ele><time>2026-04-26T08:35:04.533Z</time></trkpt><trkpt lat="43.783755" lon="12.7087733"><ele>116.0</ele><time>2026-04-26T08:35:05.534Z</time></trkpt><trkpt lat="43.7837533" lon="12.7089017"><ele>116.0</ele><time>2026-04-26T08:35:07.536Z</time></trkpt><trkpt lat="43.7836783" lon="12.708875"><ele>116.0</ele><time>2026-04-26T08:35:10.534Z</time></trkpt><trkpt lat="43.78361" lon="12.7087817"><ele>116.0</ele><time>2026-04-26T08:35:11.534Z</time></trkpt><trkpt lat="43.7835133" lon="12.7086317"><ele>116.0</ele><time>2026-04-26T08:35:12.535Z</time></trkpt><trkpt lat="43.78339" lon="12.7084583"><ele>115.0</ele><time>2026-04-26T08:35:13.536Z</time></trkpt><trkpt lat="43.783255" lon="12.708275"><ele>114.0</ele><time>2026-04-26T08:35:14.534Z</time></trkpt><trkpt lat="43.7831217" lon="12.7080983"><ele>113.0</ele><time>2026-04-26T08:35:15.537Z</time></trkpt><trkpt lat="43.7829817" lon="12.7079083"><ele>112.66666666666666</ele><time>2026-04-26T08:35:16.534Z</time></trkpt><trkpt lat="43.7828433" lon="12.7077017"><ele>112.33333333333334</ele><time>2026-04-26T08:35:17.534Z</time></trkpt><trkpt lat="43.7827183" lon="12.7074967"><ele>112.0</ele><time>2026-04-26T08:35:18.534Z</time></trkpt><trkpt lat="43.7826033" lon="12.7073033"><ele>112.0</ele><time>2026-04-26T08:35:19.535Z</time></trkpt><trkpt lat="43.7824933" lon="12.7071233"><ele>112.0</ele><time>2026-04-26T08:35:20.536Z</time></trkpt><trkpt lat="43.7823883" lon="12.7069417"><ele>112.0</ele><time>2026-04-26T08:35:21.535Z</time></trkpt><trkpt lat="43.7822817" lon="12.7067583"><ele>112.66666666666667</ele><time>2026-04-26T08:35:22.535Z</time></trkpt><trkpt lat="43.7821717" lon="12.7065717"><ele>113.33333333333334</ele><time>2026-04-26T08:35:23.536Z</time></trkpt><trkpt lat="43.78206" lon="12.706385"><ele>114.0</ele><time>2026-04-26T08:35:24.535Z</time></trkpt><trkpt lat="43.78195" lon="12.7062017"><ele>114.0</ele><time>2026-04-26T08:35:25.535Z</time></trkpt><trkpt lat="43.781845" lon="12.7060083"><ele>114.0</ele><time>2026-04-26T08:35:26.534Z</time></trkpt><trkpt lat="43.7817433" lon="12.705805"><ele>114.0</ele><time>2026-04-26T08:35:27.535Z</time></trkpt><trkpt lat="43.781645" lon="12.7055917"><ele>114.0</ele><time>2026-04-26T08:35:28.535Z</time></trkpt><trkpt lat="43.7815483" lon="12.7053833"><ele>114.0</ele><time>2026-04-26T08:35:29.534Z</time></trkpt><trkpt lat="43.7814517" lon="12.7051833"><ele>114.0</ele><time>2026-04-26T08:35:30.537Z</time></trkpt><trkpt lat="43.7813633" lon="12.70499"><ele>116.33333333333334</ele><time>2026-04-26T08:35:31.539Z</time></trkpt><trkpt lat="43.7812883" lon="12.704805"><ele>118.66666666666667</ele><time>2026-04-26T08:35:32.537Z</time></trkpt><trkpt lat="43.781215" lon="12.7046183"><ele>121.0</ele><time>2026-04-26T08:35:33.533Z</time></trkpt><trkpt lat="43.7811433" lon="12.70444"><ele>120.0</ele><time>2026-04-26T08:35:34.534Z</time></trkpt><trkpt lat="43.78108" lon="12.7042783"><ele>119.0</ele><time>2026-04-26T08:35:35.537Z</time></trkpt><trkpt lat="43.7810217" lon="12.704135"><ele>118.0</ele><time>2026-04-26T08:35:36.533Z</time></trkpt><trkpt lat="43.7809783" lon="12.7039983"><ele>117.0</ele><time>2026-04-26T08:35:37.537Z</time></trkpt><trkpt lat="43.7809433" lon="12.70387"><ele>117.0</ele><time>2026-04-26T08:35:38.537Z</time></trkpt><trkpt lat="43.7809067" lon="12.7037367"><ele>117.0</ele><time>2026-04-26T08:35:39.534Z</time></trkpt><trkpt lat="43.7808633" lon="12.7035817"><ele>117.0</ele><time>2026-04-26T08:35:40.533Z</time></trkpt><trkpt lat="43.7808117" lon="12.7033933"><ele>117.0</ele><time>2026-04-26T08:35:41.534Z</time></trkpt><trkpt lat="43.7807517" lon="12.7031783"><ele>118.0</ele><time>2026-04-26T08:35:42.535Z</time></trkpt><trkpt lat="43.7806983" lon="12.7029533"><ele>119.0</ele><time>2026-04-26T08:35:43.535Z</time></trkpt><trkpt lat="43.7806483" lon="12.7027217"><ele>120.0</ele><time>2026-04-26T08:35:44.534Z</time></trkpt><trkpt lat="43.7806083" lon="12.702475"><ele>120.33333333333334</ele><time>2026-04-26T08:35:45.534Z</time></trkpt><trkpt lat="43.78058" lon="12.702205"><ele>120.66666666666667</ele><time>2026-04-26T08:35:46.535Z</time></trkpt><trkpt lat="43.7805617" lon="12.70192"><ele>121.0</ele><time>2026-04-26T08:35:47.536Z</time></trkpt><trkpt lat="43.78055" lon="12.701625"><ele>121.0</ele><time>2026-04-26T08:35:48.535Z</time></trkpt><trkpt lat="43.78055" lon="12.7013317"><ele>121.0</ele><time>2026-04-26T08:35:49.536Z</time></trkpt><trkpt lat="43.7805583" lon="12.701045"><ele>121.0</ele><time>2026-04-26T08:35:50.534Z</time></trkpt><trkpt lat="43.7805767" lon="12.7007667"><ele>121.33333333333334</ele><time>2026-04-26T08:35:51.534Z</time></trkpt><trkpt lat="43.7806017" lon="12.7004917"><ele>121.66666666666666</ele><time>2026-04-26T08:35:52.535Z</time></trkpt><trkpt lat="43.78064" lon="12.700215"><ele>122.0</ele><time>2026-04-26T08:35:53.534Z</time></trkpt><trkpt lat="43.7806867" lon="12.699935"><ele>122.0</ele><time>2026-04-26T08:35:54.535Z</time></trkpt><trkpt lat="43.78074" lon="12.6996433"><ele>122.0</ele><time>2026-04-26T08:35:55.536Z</time></trkpt><trkpt lat="43.7807983" lon="12.699345"><ele>122.0</ele><time>2026-04-26T08:35:56.534Z</time></trkpt><trkpt lat="43.7808567" lon="12.699035"><ele>122.0</ele><time>2026-04-26T08:35:57.534Z</time></trkpt><trkpt lat="43.7809183" lon="12.6987183"><ele>122.0</ele><time>2026-04-26T08:35:58.538Z</time></trkpt><trkpt lat="43.78098" lon="12.6983967"><ele>123.0</ele><time>2026-04-26T08:35:59.534Z</time></trkpt><trkpt lat="43.78104" lon="12.698075"><ele>124.0</ele><time>2026-04-26T08:36:00.535Z</time></trkpt><trkpt lat="43.7811033" lon="12.6977317"><ele>124.0</ele><time>2026-04-26T08:36:01.536Z</time></trkpt><trkpt lat="43.7811683" lon="12.6973867"><ele>124.0</ele><time>2026-04-26T08:36:02.535Z</time></trkpt><trkpt lat="43.7812367" lon="12.6970417"><ele>123.0</ele><time>2026-04-26T08:36:03.534Z</time></trkpt><trkpt lat="43.781305" lon="12.696695"><ele>122.0</ele><time>2026-04-26T08:36:04.535Z</time></trkpt><trkpt lat="43.7813733" lon="12.6963567"><ele>123.0</ele><time>2026-04-26T08:36:05.537Z</time></trkpt><trkpt lat="43.7814367" lon="12.6960317"><ele>124.0</ele><time>2026-04-26T08:36:06.534Z</time></trkpt><trkpt lat="43.7815017" lon="12.69571"><ele>124.0</ele><time>2026-04-26T08:36:07.538Z</time></trkpt><trkpt lat="43.7815683" lon="12.6954017"><ele>124.0</ele><time>2026-04-26T08:36:08.534Z</time></trkpt><trkpt lat="43.78163" lon="12.6951083"><ele>124.0</ele><time>2026-04-26T08:36:09.534Z</time></trkpt><trkpt lat="43.7816883" lon="12.69483"><ele>124.0</ele><time>2026-04-26T08:36:10.536Z</time></trkpt><trkpt lat="43.7817383" lon="12.6945567"><ele>124.0</ele><time>2026-04-26T08:36:11.534Z</time></trkpt><trkpt lat="43.7817867" lon="12.6942983"><ele>124.0</ele><time>2026-04-26T08:36:12.538Z</time></trkpt><trkpt lat="43.7818333" lon="12.6940467"><ele>124.0</ele><time>2026-04-26T08:36:13.535Z</time></trkpt><trkpt lat="43.7818817" lon="12.6937983"><ele>124.0</ele><time>2026-04-26T08:36:14.533Z</time></trkpt><trkpt lat="43.7819283" lon="12.693545"><ele>126.66666666666667</ele><time>2026-04-26T08:36:15.536Z</time></trkpt><trkpt lat="43.78198" lon="12.69328"><ele>129.33333333333334</ele><time>2026-04-26T08:36:16.536Z</time></trkpt><trkpt lat="43.7820267" lon="12.6930117"><ele>132.0</ele><time>2026-04-26T08:36:17.533Z</time></trkpt><trkpt lat="43.7820633" lon="12.6927417"><ele>132.0</ele><time>2026-04-26T08:36:18.536Z</time></trkpt><trkpt lat="43.7820867" lon="12.6924733"><ele>132.0</ele><time>2026-04-26T08:36:19.536Z</time></trkpt><trkpt lat="43.7820983" lon="12.69221"><ele>132.0</ele><time>2026-04-26T08:36:20.533Z</time></trkpt><trkpt lat="43.7820967" lon="12.6919517"><ele>133.66666666666666</ele><time>2026-04-26T08:36:21.533Z</time></trkpt><trkpt lat="43.7820867" lon="12.6917017"><ele>135.33333333333331</ele><time>2026-04-26T08:36:22.533Z</time></trkpt><trkpt lat="43.782065" lon="12.691465"><ele>137.0</ele><time>2026-04-26T08:36:23.534Z</time></trkpt><trkpt lat="43.782035" lon="12.691245"><ele>137.0</ele><time>2026-04-26T08:36:24.534Z</time></trkpt><trkpt lat="43.7819983" lon="12.69104"><ele>137.0</ele><time>2026-04-26T08:36:25.535Z</time></trkpt><trkpt lat="43.7819583" lon="12.6908517"><ele>137.0</ele><time>2026-04-26T08:36:26.533Z</time></trkpt><trkpt lat="43.7819183" lon="12.6906783"><ele>137.0</ele><time>2026-04-26T08:36:27.537Z</time></trkpt><trkpt lat="43.78188" lon="12.6905167"><ele>134.79999999999998</ele><time>2026-04-26T08:36:28.533Z</time></trkpt><trkpt lat="43.7818433" lon="12.690365"><ele>132.6</ele><time>2026-04-26T08:36:29.534Z</time></trkpt><trkpt lat="43.78181" lon="12.69023"><ele>130.39999999999998</ele><time>2026-04-26T08:36:30.538Z</time></trkpt><trkpt lat="43.7817783" lon="12.6901017"><ele>128.2</ele><time>2026-04-26T08:36:31.537Z</time></trkpt><trkpt lat="43.7817433" lon="12.68998"><ele>126.0</ele><time>2026-04-26T08:36:32.537Z</time></trkpt><trkpt lat="43.7817067" lon="12.6898467"><ele>126.0</ele><time>2026-04-26T08:36:33.534Z</time></trkpt><trkpt lat="43.781665" lon="12.6896917"><ele>126.0</ele><time>2026-04-26T08:36:34.536Z</time></trkpt><trkpt lat="43.7816133" lon="12.6895133"><ele>126.0</ele><time>2026-04-26T08:36:35.538Z</time></trkpt><trkpt lat="43.7815483" lon="12.689315"><ele>126.0</ele><time>2026-04-26T08:36:36.536Z</time></trkpt><trkpt lat="43.7814667" lon="12.68911"><ele>127.33333333333334</ele><time>2026-04-26T08:36:37.535Z</time></trkpt><trkpt lat="43.7813717" lon="12.6889017"><ele>128.66666666666669</ele><time>2026-04-26T08:36:38.537Z</time></trkpt><trkpt lat="43.7812617" lon="12.68869"><ele>130.0</ele><time>2026-04-26T08:36:39.536Z</time></trkpt><trkpt lat="43.7811367" lon="12.6884783"><ele>129.33333333333334</ele><time>2026-04-26T08:36:40.536Z</time></trkpt><trkpt lat="43.7810067" lon="12.688265"><ele>128.66666666666666</ele><time>2026-04-26T08:36:41.534Z</time></trkpt><trkpt lat="43.7808767" lon="12.6880533"><ele>128.0</ele><time>2026-04-26T08:36:42.538Z</time></trkpt><trkpt lat="43.7807367" lon="12.6878533"><ele>128.66666666666666</ele><time>2026-04-26T08:36:43.535Z</time></trkpt><trkpt lat="43.78059" lon="12.6876717"><ele>129.33333333333334</ele><time>2026-04-26T08:36:44.537Z</time></trkpt><trkpt lat="43.7804383" lon="12.6875167"><ele>130.0</ele><time>2026-04-26T08:36:45.534Z</time></trkpt><trkpt lat="43.7802933" lon="12.6873917"><ele>129.75</ele><time>2026-04-26T08:36:46.534Z</time></trkpt><trkpt lat="43.78016" lon="12.6872933"><ele>129.5</ele><time>2026-04-26T08:36:47.535Z</time></trkpt><trkpt lat="43.780045" lon="12.6872117"><ele>129.25</ele><time>2026-04-26T08:36:48.535Z</time></trkpt><trkpt lat="43.7799483" lon="12.6871517"><ele>129.0</ele><time>2026-04-26T08:36:49.534Z</time></trkpt><trkpt lat="43.779865" lon="12.6871217"><ele>129.0</ele><time>2026-04-26T08:36:50.534Z</time></trkpt><trkpt lat="43.77979" lon="12.687135"><ele>129.0</ele><time>2026-04-26T08:36:51.534Z</time></trkpt><trkpt lat="43.7797267" lon="12.6871917"><ele>129.0</ele><time>2026-04-26T08:36:52.535Z</time></trkpt><trkpt lat="43.7796583" lon="12.6872633"><ele>129.0</ele><time>2026-04-26T08:36:53.537Z</time></trkpt><trkpt lat="43.7795867" lon="12.6873567"><ele>129.0</ele><time>2026-04-26T08:36:54.536Z</time></trkpt><trkpt lat="43.7795633" lon="12.6875283"><ele>129.0</ele><time>2026-04-26T08:36:55.534Z</time></trkpt><trkpt lat="43.7795383" lon="12.6876833"><ele>129.0</ele><time>2026-04-26T08:36:56.534Z</time></trkpt><trkpt lat="43.77951" lon="12.6878067"><ele>129.0</ele><time>2026-04-26T08:36:57.534Z</time></trkpt><trkpt lat="43.779485" lon="12.687905"><ele>129.0</ele><time>2026-04-26T08:36:58.534Z</time></trkpt><trkpt lat="43.7794617" lon="12.6880433"><ele>129.0</ele><time>2026-04-26T08:37:00.537Z</time></trkpt><trkpt lat="43.7795183" lon="12.6881583"><ele>129.6</ele><time>2026-04-26T08:37:02.537Z</time></trkpt><trkpt lat="43.779635" lon="12.6882283"><ele>130.2</ele><time>2026-04-26T08:37:04.537Z</time></trkpt><trkpt lat="43.7797517" lon="12.6882333"><ele>130.79999999999998</ele><time>2026-04-26T08:37:05.538Z</time></trkpt><trkpt lat="43.7798433" lon="12.6882483"><ele>131.4</ele><time>2026-04-26T08:37:06.537Z</time></trkpt><trkpt lat="43.7799317" lon="12.6882683"><ele>132.0</ele><time>2026-04-26T08:37:07.537Z</time></trkpt><trkpt lat="43.78" lon="12.6883"><ele>132.0</ele><time>2026-04-26T08:37:08.533Z</time></trkpt><trkpt lat="43.7800617" lon="12.6883417"><ele>132.0</ele><time>2026-04-26T08:37:09.535Z</time></trkpt><trkpt lat="43.7801067" lon="12.6884467"><ele>132.0</ele><time>2026-04-26T08:37:11.536Z</time></trkpt><trkpt lat="43.7800733" lon="12.6885567"><ele>132.0</ele><time>2026-04-26T08:37:13.535Z</time></trkpt><trkpt lat="43.779965" lon="12.6886217"><ele>132.0</ele><time>2026-04-26T08:37:15.535Z</time></trkpt><trkpt lat="43.7799" lon="12.6886167"><ele>132.0</ele><time>2026-04-26T08:37:16.536Z</time></trkpt><trkpt lat="43.7798367" lon="12.6885983"><ele>132.0</ele><time>2026-04-26T08:37:17.536Z</time></trkpt><trkpt lat="43.7797767" lon="12.688565"><ele>132.0</ele><time>2026-04-26T08:37:18.536Z</time></trkpt><trkpt lat="43.779715" lon="12.68853"><ele>132.0</ele><time>2026-04-26T08:37:19.536Z</time></trkpt><trkpt lat="43.779645" lon="12.6885067"><ele>132.0</ele><time>2026-04-26T08:37:20.536Z</time></trkpt><trkpt lat="43.7795633" lon="12.688495"><ele>132.0</ele><time>2026-04-26T08:37:21.534Z</time></trkpt><trkpt lat="43.7794767" lon="12.688495"><ele>132.0</ele><time>2026-04-26T08:37:22.535Z</time></trkpt><trkpt lat="43.77939" lon="12.688505"><ele>132.66666666666666</ele><time>2026-04-26T08:37:23.535Z</time></trkpt><trkpt lat="43.77931" lon="12.6885267"><ele>133.33333333333334</ele><time>2026-04-26T08:37:24.537Z</time></trkpt><trkpt lat="43.7792317" lon="12.688565"><ele>134.0</ele><time>2026-04-26T08:37:25.536Z</time></trkpt><trkpt lat="43.7791667" lon="12.6886133"><ele>134.66666666666669</ele><time>2026-04-26T08:37:26.535Z</time></trkpt><trkpt lat="43.77911" lon="12.6886867"><ele>135.33333333333334</ele><time>2026-04-26T08:37:27.535Z</time></trkpt><trkpt lat="43.7790667" lon="12.68878"><ele>136.0</ele><time>2026-04-26T08:37:28.536Z</time></trkpt><trkpt lat="43.77905" lon="12.6888833"><ele>137.83333333333334</ele><time>2026-04-26T08:37:29.536Z</time></trkpt><trkpt lat="43.7790517" lon="12.6889767"><ele>139.66666666666669</ele><time>2026-04-26T08:37:30.536Z</time></trkpt><trkpt lat="43.7790733" lon="12.6890683"><ele>141.5</ele><time>2026-04-26T08:37:31.538Z</time></trkpt><trkpt lat="43.779105" lon="12.689165"><ele>143.33333333333334</ele><time>2026-04-26T08:37:32.537Z</time></trkpt><trkpt lat="43.779145" lon="12.6892767"><ele>145.16666666666666</ele><time>2026-04-26T08:37:33.536Z</time></trkpt><trkpt lat="43.7791867" lon="12.6894017"><ele>147.0</ele><time>2026-04-26T08:37:34.537Z</time></trkpt><trkpt lat="43.7792383" lon="12.6895283"><ele>147.2</ele><time>2026-04-26T08:37:35.536Z</time></trkpt><trkpt lat="43.77929" lon="12.68965"><ele>147.39999999999998</ele><time>2026-04-26T08:37:36.537Z</time></trkpt><trkpt lat="43.7793383" lon="12.6897683"><ele>147.60000000000002</ele><time>2026-04-26T08:37:37.536Z</time></trkpt><trkpt lat="43.7793933" lon="12.68988"><ele>147.8</ele><time>2026-04-26T08:37:38.537Z</time></trkpt><trkpt lat="43.7794517" lon="12.689985"><ele>148.0</ele><time>2026-04-26T08:37:39.537Z</time></trkpt><trkpt lat="43.7795067" lon="12.6900933"><ele>148.0</ele><time>2026-04-26T08:37:40.535Z</time></trkpt><trkpt lat="43.7795633" lon="12.690205"><ele>148.0</ele><time>2026-04-26T08:37:41.535Z</time></trkpt><trkpt lat="43.77961" lon="12.69031"><ele>148.0</ele><time>2026-04-26T08:37:42.536Z</time></trkpt><trkpt lat="43.7796433" lon="12.69041"><ele>148.0</ele><time>2026-04-26T08:37:43.537Z</time></trkpt><trkpt lat="43.7796667" lon="12.6905217"><ele>148.0</ele><time>2026-04-26T08:37:44.537Z</time></trkpt><trkpt lat="43.7796817" lon="12.6906467"><ele>148.0</ele><time>2026-04-26T08:37:45.536Z</time></trkpt><trkpt lat="43.779695" lon="12.6907767"><ele>149.6</ele><time>2026-04-26T08:37:46.536Z</time></trkpt><trkpt lat="43.7797083" lon="12.6909017"><ele>151.20000000000002</ele><time>2026-04-26T08:37:47.537Z</time></trkpt><trkpt lat="43.779725" lon="12.691035"><ele>152.8</ele><time>2026-04-26T08:37:48.536Z</time></trkpt><trkpt lat="43.7797367" lon="12.6911683"><ele>154.4</ele><time>2026-04-26T08:37:49.538Z</time></trkpt><trkpt lat="43.779745" lon="12.6912967"><ele>156.0</ele><time>2026-04-26T08:37:50.533Z</time></trkpt><trkpt lat="43.779745" lon="12.691415"><ele>156.0</ele><time>2026-04-26T08:37:51.534Z</time></trkpt><trkpt lat="43.7797383" lon="12.6915333"><ele>156.0</ele><time>2026-04-26T08:37:52.533Z</time></trkpt><trkpt lat="43.7797217" lon="12.6916517"><ele>156.0</ele><time>2026-04-26T08:37:53.536Z</time></trkpt><trkpt lat="43.7796967" lon="12.6917683"><ele>156.0</ele><time>2026-04-26T08:37:54.537Z</time></trkpt><trkpt lat="43.77966" lon="12.6918783"><ele>156.0</ele><time>2026-04-26T08:37:55.536Z</time></trkpt><trkpt lat="43.779615" lon="12.691975"><ele>156.0</ele><time>2026-04-26T08:37:56.533Z</time></trkpt><trkpt lat="43.7795583" lon="12.6920583"><ele>156.0</ele><time>2026-04-26T08:37:57.538Z</time></trkpt><trkpt lat="43.7794967" lon="12.6921217"><ele>156.0</ele><time>2026-04-26T08:37:58.534Z</time></trkpt><trkpt lat="43.7794333" lon="12.6921617"><ele>156.0</ele><time>2026-04-26T08:37:59.534Z</time></trkpt><trkpt lat="43.7793667" lon="12.692185"><ele>156.0</ele><time>2026-04-26T08:38:00.536Z</time></trkpt><trkpt lat="43.7792983" lon="12.6921867"><ele>156.0</ele><time>2026-04-26T08:38:01.534Z</time></trkpt><trkpt lat="43.779225" lon="12.69218"><ele>156.0</ele><time>2026-04-26T08:38:02.537Z</time></trkpt><trkpt lat="43.779145" lon="12.6921583"><ele>156.0</ele><time>2026-04-26T08:38:03.536Z</time></trkpt><trkpt lat="43.7790517" lon="12.692115"><ele>158.8</ele><time>2026-04-26T08:38:04.536Z</time></trkpt><trkpt lat="43.7789617" lon="12.6920617"><ele>161.6</ele><time>2026-04-26T08:38:05.536Z</time></trkpt><trkpt lat="43.7788683" lon="12.6920117"><ele>164.4</ele><time>2026-04-26T08:38:06.534Z</time></trkpt><trkpt lat="43.778765" lon="12.6919683"><ele>167.2</ele><time>2026-04-26T08:38:07.539Z</time></trkpt><trkpt lat="43.7786533" lon="12.69193"><ele>170.0</ele><time>2026-04-26T08:38:08.536Z</time></trkpt><trkpt lat="43.7785367" lon="12.6918933"><ele>173.25</ele><time>2026-04-26T08:38:09.534Z</time></trkpt><trkpt lat="43.7784267" lon="12.6918567"><ele>176.5</ele><time>2026-04-26T08:38:10.533Z</time></trkpt><trkpt lat="43.778315" lon="12.691815"><ele>179.75</ele><time>2026-04-26T08:38:11.533Z</time></trkpt><trkpt lat="43.7782" lon="12.6917717"><ele>183.0</ele><time>2026-04-26T08:38:12.536Z</time></trkpt><trkpt lat="43.7780917" lon="12.6917267"><ele>183.0</ele><time>2026-04-26T08:38:13.536Z</time></trkpt><trkpt lat="43.7779867" lon="12.69168"><ele>183.0</ele><time>2026-04-26T08:38:14.533Z</time></trkpt><trkpt lat="43.7778833" lon="12.6916417"><ele>183.0</ele><time>2026-04-26T08:38:15.534Z</time></trkpt><trkpt lat="43.77778" lon="12.69161"><ele>183.0</ele><time>2026-04-26T08:38:16.534Z</time></trkpt><trkpt lat="43.7776717" lon="12.69158"><ele>183.0</ele><time>2026-04-26T08:38:17.533Z</time></trkpt><trkpt lat="43.77757" lon="12.691555"><ele>185.2</ele><time>2026-04-26T08:38:18.533Z</time></trkpt><trkpt lat="43.777465" lon="12.691525"><ele>187.4</ele><time>2026-04-26T08:38:19.537Z</time></trkpt><trkpt lat="43.7773617" lon="12.69149"><ele>189.6</ele><time>2026-04-26T08:38:20.537Z</time></trkpt><trkpt lat="43.7772517" lon="12.6914517"><ele>191.79999999999998</ele><time>2026-04-26T08:38:21.536Z</time></trkpt><trkpt lat="43.7771433" lon="12.691415"><ele>194.0</ele><time>2026-04-26T08:38:22.535Z</time></trkpt><trkpt lat="43.7770367" lon="12.6913817"><ele>194.0</ele><time>2026-04-26T08:38:23.533Z</time></trkpt><trkpt lat="43.7769333" lon="12.6913517"><ele>194.0</ele><time>2026-04-26T08:38:24.537Z</time></trkpt><trkpt lat="43.776835" lon="12.691325"><ele>194.0</ele><time>2026-04-26T08:38:25.537Z</time></trkpt><trkpt lat="43.7767383" lon="12.6913167"><ele>194.0</ele><time>2026-04-26T08:38:26.533Z</time></trkpt><trkpt lat="43.7766417" lon="12.691335"><ele>194.0</ele><time>2026-04-26T08:38:27.534Z</time></trkpt><trkpt lat="43.7765517" lon="12.6913783"><ele>196.39999999999998</ele><time>2026-04-26T08:38:28.54Z</time></trkpt><trkpt lat="43.776455" lon="12.6914333"><ele>198.8</ele><time>2026-04-26T08:38:29.536Z</time></trkpt><trkpt lat="43.7763617" lon="12.691505"><ele>201.2</ele><time>2026-04-26T08:38:30.536Z</time></trkpt><trkpt lat="43.7762667" lon="12.6915767"><ele>203.60000000000002</ele><time>2026-04-26T08:38:31.535Z</time></trkpt><trkpt lat="43.7761733" lon="12.6916433"><ele>206.0</ele><time>2026-04-26T08:38:32.534Z</time></trkpt><trkpt lat="43.776085" lon="12.6917033"><ele>207.60000000000002</ele><time>2026-04-26T08:38:33.534Z</time></trkpt><trkpt lat="43.7760033" lon="12.69176"><ele>209.2</ele><time>2026-04-26T08:38:34.538Z</time></trkpt><trkpt lat="43.775915" lon="12.6918"><ele>210.79999999999998</ele><time>2026-04-26T08:38:35.532Z</time></trkpt><trkpt lat="43.77582" lon="12.6918317"><ele>212.39999999999998</ele><time>2026-04-26T08:38:36.534Z</time></trkpt><trkpt lat="43.775725" lon="12.6918617"><ele>214.0</ele><time>2026-04-26T08:38:37.536Z</time></trkpt><trkpt lat="43.7756283" lon="12.6918883"><ele>214.0</ele><time>2026-04-26T08:38:38.533Z</time></trkpt><trkpt lat="43.7755333" lon="12.6919167"><ele>213.99999999999997</ele><time>2026-04-26T08:38:39.535Z</time></trkpt><trkpt lat="43.7754367" lon="12.69193"><ele>213.99999999999997</ele><time>2026-04-26T08:38:40.535Z</time></trkpt><trkpt lat="43.7753417" lon="12.69194"><ele>214.0</ele><time>2026-04-26T08:38:41.54Z</time></trkpt><trkpt lat="43.7752383" lon="12.6919467"><ele>214.0</ele><time>2026-04-26T08:38:42.534Z</time></trkpt><trkpt lat="43.7751333" lon="12.6919583"><ele>216.6</ele><time>2026-04-26T08:38:43.536Z</time></trkpt><trkpt lat="43.7750283" lon="12.69198"><ele>219.2</ele><time>2026-04-26T08:38:44.533Z</time></trkpt><trkpt lat="43.7749367" lon="12.6920267"><ele>221.79999999999998</ele><time>2026-04-26T08:38:45.537Z</time></trkpt><trkpt lat="43.7748667" lon="12.6920883"><ele>224.39999999999998</ele><time>2026-04-26T08:38:46.533Z</time></trkpt><trkpt lat="43.7748083" lon="12.69215"><ele>227.0</ele><time>2026-04-26T08:38:47.534Z</time></trkpt><trkpt lat="43.7747333" lon="12.69225"><ele>227.0</ele><time>2026-04-26T08:38:49.536Z</time></trkpt><trkpt lat="43.7746667" lon="12.6923267"><ele>227.0</ele><time>2026-04-26T08:38:51.533Z</time></trkpt><trkpt lat="43.77458" lon="12.6924067"><ele>227.0</ele><time>2026-04-26T08:38:53.535Z</time></trkpt><trkpt lat="43.7745067" lon="12.692475"><ele>227.0</ele><time>2026-04-26T08:38:55.536Z</time></trkpt><trkpt lat="43.77443" lon="12.6925583"><ele>227.0</ele><time>2026-04-26T08:38:57.535Z</time></trkpt><trkpt lat="43.7743733" lon="12.6926533"><ele>227.33333333333334</ele><time>2026-04-26T08:38:59.532Z</time></trkpt><trkpt lat="43.77432" lon="12.69273"><ele>227.66666666666669</ele><time>2026-04-26T08:39:01.536Z</time></trkpt><trkpt lat="43.7742583" lon="12.6928083"><ele>228.0</ele><time>2026-04-26T08:39:04.536Z</time></trkpt><trkpt lat="43.77419" lon="12.6928617"><ele>228.33333333333331</ele><time>2026-04-26T08:39:06.536Z</time></trkpt><trkpt lat="43.7741067" lon="12.6929"><ele>228.66666666666666</ele><time>2026-04-26T08:39:08.537Z</time></trkpt><trkpt lat="43.77403" lon="12.69294"><ele>229.0</ele><time>2026-04-26T08:39:11.533Z</time></trkpt><trkpt lat="43.7739717" lon="12.69298"><ele>229.0</ele><time>2026-04-26T08:39:14.533Z</time></trkpt><trkpt lat="43.7738983" lon="12.6930233"><ele>228.99999999999997</ele><time>2026-04-26T08:39:16.536Z</time></trkpt><trkpt lat="43.773805" lon="12.6930767"><ele>228.99999999999997</ele><time>2026-04-26T08:39:18.533Z</time></trkpt><trkpt lat="43.7737117" lon="12.6931433"><ele>229.0</ele><time>2026-04-26T08:39:20.534Z</time></trkpt><trkpt lat="43.7736233" lon="12.6932233"><ele>229.0</ele><time>2026-04-26T08:39:22.535Z</time></trkpt><trkpt lat="43.7735583" lon="12.6933117"><ele>229.0</ele><time>2026-04-26T08:39:24.536Z</time></trkpt><trkpt lat="43.7735" lon="12.6933833"><ele>228.99999999999997</ele><time>2026-04-26T08:39:26.534Z</time></trkpt><trkpt lat="43.7734267" lon="12.69345"><ele>228.99999999999997</ele><time>2026-04-26T08:39:28.536Z</time></trkpt><trkpt lat="43.77332" lon="12.6935"><ele>229.0</ele><time>2026-04-26T08:39:30.536Z</time></trkpt><trkpt lat="43.7732283" lon="12.69351"><ele>229.0</ele><time>2026-04-26T08:39:32.536Z</time></trkpt><trkpt lat="43.77314" lon="12.6935083"><ele>228.99999999999997</ele><time>2026-04-26T08:39:34.536Z</time></trkpt><trkpt lat="43.7730483" lon="12.6935117"><ele>229.0</ele><time>2026-04-26T08:39:36.536Z</time></trkpt><trkpt lat="43.7729517" lon="12.6935183"><ele>229.0</ele><time>2026-04-26T08:39:38.536Z</time></trkpt><trkpt lat="43.7728683" lon="12.693535"><ele>229.0</ele><time>2026-04-26T08:39:40.536Z</time></trkpt><trkpt lat="43.7727983" lon="12.69357"><ele>228.99999999999997</ele><time>2026-04-26T08:39:42.534Z</time></trkpt><trkpt lat="43.7727383" lon="12.6936167"><ele>229.0</ele><time>2026-04-26T08:39:44.533Z</time></trkpt><trkpt lat="43.7726817" lon="12.6936567"><ele>227.99999999999997</ele><time>2026-04-26T08:39:46.537Z</time></trkpt><trkpt lat="43.7726167" lon="12.6937033"><ele>227.0</ele><time>2026-04-26T08:39:48.534Z</time></trkpt><trkpt lat="43.7725333" lon="12.6937567"><ele>226.0</ele><time>2026-04-26T08:39:50.533Z</time></trkpt><trkpt lat="43.77246" lon="12.6938033"><ele>225.0</ele><time>2026-04-26T08:39:52.536Z</time></trkpt><trkpt lat="43.7723783" lon="12.6938617"><ele>223.99999999999997</ele><time>2026-04-26T08:39:54.535Z</time></trkpt><trkpt lat="43.7723033" lon="12.69391"><ele>223.0</ele><time>2026-04-26T08:39:56.533Z</time></trkpt><trkpt lat="43.7722383" lon="12.6939467"><ele>222.99999999999997</ele><time>2026-04-26T08:39:58.535Z</time></trkpt><trkpt lat="43.7721783" lon="12.693975"><ele>223.0</ele><time>2026-04-26T08:40:02.537Z</time></trkpt><trkpt lat="43.7721083" lon="12.6940083"><ele>223.0</ele><time>2026-04-26T08:40:08.537Z</time></trkpt><trkpt lat="43.772015" lon="12.694035"><ele>223.0</ele><time>2026-04-26T08:40:43.536Z</time></trkpt><trkpt lat="43.7719417" lon="12.6940617"><ele>222.99999999999997</ele><time>2026-04-26T08:40:46.534Z</time></trkpt><trkpt lat="43.7718433" lon="12.6940983"><ele>223.0</ele><time>2026-04-26T08:40:57.533Z</time></trkpt><trkpt lat="43.771775" lon="12.6941183"><ele>223.49999999999997</ele><time>2026-04-26T08:40:59.537Z</time></trkpt><trkpt lat="43.7717067" lon="12.6941383"><ele>224.0</ele><time>2026-04-26T08:41:01.536Z</time></trkpt><trkpt lat="43.7716133" lon="12.6941533"><ele>224.5</ele><time>2026-04-26T08:41:04.536Z</time></trkpt><trkpt lat="43.771535" lon="12.6941517"><ele>225.0</ele><time>2026-04-26T08:41:06.534Z</time></trkpt><trkpt lat="43.771455" lon="12.69414"><ele>225.49999999999997</ele><time>2026-04-26T08:41:08.536Z</time></trkpt><trkpt lat="43.7713767" lon="12.6941367"><ele>226.0</ele><time>2026-04-26T08:41:10.534Z</time></trkpt><trkpt lat="43.7712983" lon="12.69414"><ele>225.99999999999997</ele><time>2026-04-26T08:41:12.533Z</time></trkpt><trkpt lat="43.771225" lon="12.6941483"><ele>226.0</ele><time>2026-04-26T08:41:14.534Z</time></trkpt><trkpt lat="43.7711533" lon="12.6941567"><ele>226.0</ele><time>2026-04-26T08:41:16.536Z</time></trkpt><trkpt lat="43.7710833" lon="12.69417"><ele>226.0</ele><time>2026-04-26T08:41:18.535Z</time></trkpt><trkpt lat="43.7710067" lon="12.6941867"><ele>225.99999999999997</ele><time>2026-04-26T08:41:20.535Z</time></trkpt><trkpt lat="43.7709267" lon="12.69421"><ele>226.0</ele><time>2026-04-26T08:41:22.534Z</time></trkpt><trkpt lat="43.7708467" lon="12.6942333"><ele>225.8</ele><time>2026-04-26T08:41:24.538Z</time></trkpt><trkpt lat="43.7707733" lon="12.6942633"><ele>225.60000000000002</ele><time>2026-04-26T08:41:26.538Z</time></trkpt><trkpt lat="43.7706917" lon="12.6943017"><ele>225.4</ele><time>2026-04-26T08:41:28.54Z</time></trkpt><trkpt lat="43.7705983" lon="12.694345"><ele>225.2</ele><time>2026-04-26T08:41:30.537Z</time></trkpt><trkpt lat="43.7705017" lon="12.6943917"><ele>225.0</ele><time>2026-04-26T08:41:32.537Z</time></trkpt><trkpt lat="43.7704033" lon="12.694435"><ele>225.0</ele><time>2026-04-26T08:41:34.537Z</time></trkpt><trkpt lat="43.770305" lon="12.69449"><ele>225.0</ele><time>2026-04-26T08:41:36.537Z</time></trkpt><trkpt lat="43.7702233" lon="12.6945233"><ele>225.0</ele><time>2026-04-26T08:41:38.538Z</time></trkpt><trkpt lat="43.770135" lon="12.6945383"><ele>225.0</ele><time>2026-04-26T08:41:40.537Z</time></trkpt><trkpt lat="43.770035" lon="12.69454"><ele>225.0</ele><time>2026-04-26T08:41:42.537Z</time></trkpt><trkpt lat="43.7699367" lon="12.694535"><ele>225.16666666666666</ele><time>2026-04-26T08:41:44.533Z</time></trkpt><trkpt lat="43.7698467" lon="12.69453"><ele>225.33333333333331</ele><time>2026-04-26T08:41:46.533Z</time></trkpt><trkpt lat="43.769755" lon="12.6945317"><ele>225.5</ele><time>2026-04-26T08:41:48.534Z</time></trkpt><trkpt lat="43.7696683" lon="12.69453"><ele>225.66666666666666</ele><time>2026-04-26T08:41:50.533Z</time></trkpt><trkpt lat="43.769585" lon="12.69453"><ele>225.83333333333331</ele><time>2026-04-26T08:41:52.535Z</time></trkpt><trkpt lat="43.76951" lon="12.6945283"><ele>226.0</ele><time>2026-04-26T08:41:54.538Z</time></trkpt><trkpt lat="43.7694367" lon="12.69453"><ele>226.0</ele><time>2026-04-26T08:41:56.536Z</time></trkpt><trkpt lat="43.7693467" lon="12.694545"><ele>226.00000000000003</ele><time>2026-04-26T08:41:58.538Z</time></trkpt><trkpt lat="43.7692583" lon="12.694575"><ele>226.00000000000003</ele><time>2026-04-26T08:42:00.536Z</time></trkpt><trkpt lat="43.7691617" lon="12.69462"><ele>226.0</ele><time>2026-04-26T08:42:02.537Z</time></trkpt><trkpt lat="43.7690767" lon="12.6946733"><ele>226.0</ele><time>2026-04-26T08:42:04.537Z</time></trkpt><trkpt lat="43.7689883" lon="12.6947317"><ele>226.0</ele><time>2026-04-26T08:42:06.537Z</time></trkpt><trkpt lat="43.7689033" lon="12.6947767"><ele>226.00000000000003</ele><time>2026-04-26T08:42:08.537Z</time></trkpt><trkpt lat="43.7687933" lon="12.6947967"><ele>226.00000000000003</ele><time>2026-04-26T08:42:10.537Z</time></trkpt><trkpt lat="43.7686783" lon="12.6948167"><ele>226.0</ele><time>2026-04-26T08:42:12.536Z</time></trkpt><trkpt lat="43.76857" lon="12.6948317"><ele>226.0</ele><time>2026-04-26T08:42:14.537Z</time></trkpt><trkpt lat="43.76846" lon="12.6948467"><ele>226.60000000000002</ele><time>2026-04-26T08:42:16.537Z</time></trkpt><trkpt lat="43.7683517" lon="12.694865"><ele>227.20000000000002</ele><time>2026-04-26T08:42:18.535Z</time></trkpt><trkpt lat="43.76824" lon="12.6948783"><ele>227.79999999999998</ele><time>2026-04-26T08:42:20.537Z</time></trkpt><trkpt lat="43.7681367" lon="12.6948683"><ele>228.39999999999998</ele><time>2026-04-26T08:42:22.537Z</time></trkpt><trkpt lat="43.7680367" lon="12.69483"><ele>229.0</ele><time>2026-04-26T08:42:24.537Z</time></trkpt><trkpt lat="43.767945" lon="12.694785"><ele>228.99999999999997</ele><time>2026-04-26T08:42:26.537Z</time></trkpt><trkpt lat="43.7678733" lon="12.69474"><ele>229.0</ele><time>2026-04-26T08:42:28.538Z</time></trkpt><trkpt lat="43.7678" lon="12.6946917"><ele>229.0</ele><time>2026-04-26T08:42:30.537Z</time></trkpt><trkpt lat="43.767735" lon="12.6946333"><ele>229.0</ele><time>2026-04-26T08:42:32.537Z</time></trkpt><trkpt lat="43.767675" lon="12.6945867"><ele>228.99999999999997</ele><time>2026-04-26T08:42:34.537Z</time></trkpt><trkpt lat="43.7676117" lon="12.6945533"><ele>229.0</ele><time>2026-04-26T08:42:36.537Z</time></trkpt><trkpt lat="43.7675283" lon="12.69453"><ele>228.33333333333331</ele><time>2026-04-26T08:42:38.538Z</time></trkpt><trkpt lat="43.767445" lon="12.6945133"><ele>227.66666666666666</ele><time>2026-04-26T08:42:40.538Z</time></trkpt><trkpt lat="43.7673617" lon="12.6944967"><ele>227.0</ele><time>2026-04-26T08:42:42.537Z</time></trkpt><trkpt lat="43.76728" lon="12.6944817"><ele>226.33333333333331</ele><time>2026-04-26T08:42:44.537Z</time></trkpt><trkpt lat="43.7671817" lon="12.6944617"><ele>225.66666666666666</ele><time>2026-04-26T08:42:46.536Z</time></trkpt><trkpt lat="43.7670867" lon="12.694445"><ele>225.0</ele><time>2026-04-26T08:42:48.537Z</time></trkpt><trkpt lat="43.76699" lon="12.6944217"><ele>227.0</ele><time>2026-04-26T08:42:50.537Z</time></trkpt><trkpt lat="43.7668983" lon="12.6944017"><ele>229.0</ele><time>2026-04-26T08:42:52.538Z</time></trkpt><trkpt lat="43.766805" lon="12.694385"><ele>231.0</ele><time>2026-04-26T08:42:54.537Z</time></trkpt><trkpt lat="43.7667117" lon="12.6943683"><ele>233.0</ele><time>2026-04-26T08:42:56.537Z</time></trkpt><trkpt lat="43.76662" lon="12.69436"><ele>235.0</ele><time>2026-04-26T08:42:58.537Z</time></trkpt><trkpt lat="43.7665267" lon="12.694345"><ele>235.16666666666666</ele><time>2026-04-26T08:43:00.536Z</time></trkpt><trkpt lat="43.7664217" lon="12.6943283"><ele>235.33333333333331</ele><time>2026-04-26T08:43:02.537Z</time></trkpt><trkpt lat="43.766315" lon="12.6942967"><ele>235.5</ele><time>2026-04-26T08:43:04.536Z</time></trkpt><trkpt lat="43.76625" lon="12.6942683"><ele>235.66666666666669</ele><time>2026-04-26T08:43:05.536Z</time></trkpt><trkpt lat="43.7661833" lon="12.694235"><ele>235.83333333333334</ele><time>2026-04-26T08:43:06.536Z</time></trkpt><trkpt lat="43.766115" lon="12.6942"><ele>236.0</ele><time>2026-04-26T08:43:07.536Z</time></trkpt><trkpt lat="43.76605" lon="12.6941617"><ele>235.8</ele><time>2026-04-26T08:43:08.536Z</time></trkpt><trkpt lat="43.7659883" lon="12.6941267"><ele>235.60000000000002</ele><time>2026-04-26T08:43:09.536Z</time></trkpt><trkpt lat="43.76593" lon="12.6940933"><ele>235.4</ele><time>2026-04-26T08:43:10.536Z</time></trkpt><trkpt lat="43.76583" lon="12.6940233"><ele>235.2</ele><time>2026-04-26T08:43:12.536Z</time></trkpt><trkpt lat="43.7657283" lon="12.6939317"><ele>235.0</ele><time>2026-04-26T08:43:14.532Z</time></trkpt><trkpt lat="43.7656333" lon="12.6938417"><ele>235.0</ele><time>2026-04-26T08:43:16.536Z</time></trkpt><trkpt lat="43.7655467" lon="12.6937633"><ele>235.0</ele><time>2026-04-26T08:43:18.537Z</time></trkpt><trkpt lat="43.7654733" lon="12.6936983"><ele>235.0</ele><time>2026-04-26T08:43:20.535Z</time></trkpt><trkpt lat="43.765405" lon="12.6936467"><ele>235.0</ele><time>2026-04-26T08:43:23.538Z</time></trkpt><trkpt lat="43.7653233" lon="12.6935617"><ele>235.0</ele><time>2026-04-26T08:46:52.534Z</time></trkpt><trkpt lat="43.7652083" lon="12.6936017"><ele>235.33333333333331</ele><time>2026-04-26T08:46:54.538Z</time></trkpt><trkpt lat="43.7651333" lon="12.6936267"><ele>235.66666666666666</ele><time>2026-04-26T08:46:55.537Z</time></trkpt><trkpt lat="43.7650383" lon="12.69366"><ele>236.0</ele><time>2026-04-26T08:46:56.537Z</time></trkpt><trkpt lat="43.76495" lon="12.6936917"><ele>236.33333333333331</ele><time>2026-04-26T08:46:57.538Z</time></trkpt><trkpt lat="43.7648583" lon="12.69373"><ele>236.66666666666666</ele><time>2026-04-26T08:46:58.537Z</time></trkpt><trkpt lat="43.76478" lon="12.6937633"><ele>237.0</ele><time>2026-04-26T08:46:59.536Z</time></trkpt><trkpt lat="43.7647083" lon="12.6937933"><ele>237.0</ele><time>2026-04-26T08:47:00.536Z</time></trkpt><trkpt lat="43.7646383" lon="12.693825"><ele>237.0</ele><time>2026-04-26T08:47:01.538Z</time></trkpt><trkpt lat="43.764575" lon="12.6938533"><ele>237.0</ele><time>2026-04-26T08:47:02.537Z</time></trkpt><trkpt lat="43.7645133" lon="12.6938783"><ele>237.0</ele><time>2026-04-26T08:47:03.536Z</time></trkpt><trkpt lat="43.764395" lon="12.69392"><ele>237.0</ele><time>2026-04-26T08:47:05.538Z</time></trkpt><trkpt lat="43.7642883" lon="12.693965"><ele>237.0</ele><time>2026-04-26T08:47:07.537Z</time></trkpt><trkpt lat="43.76417" lon="12.69402"><ele>239.33333333333334</ele><time>2026-04-26T08:47:09.534Z</time></trkpt><trkpt lat="43.7641083" lon="12.6940417"><ele>241.66666666666669</ele><time>2026-04-26T08:47:10.536Z</time></trkpt><trkpt lat="43.764045" lon="12.6940717"><ele>244.0</ele><time>2026-04-26T08:47:11.535Z</time></trkpt><trkpt lat="43.76398" lon="12.6941033"><ele>246.33333333333334</ele><time>2026-04-26T08:47:12.534Z</time></trkpt><trkpt lat="43.76392" lon="12.6941367"><ele>248.66666666666669</ele><time>2026-04-26T08:47:13.535Z</time></trkpt><trkpt lat="43.76381" lon="12.6941767"><ele>251.0</ele><time>2026-04-26T08:47:15.537Z</time></trkpt><trkpt lat="43.7637067" lon="12.694195"><ele>251.00000000000003</ele><time>2026-04-26T08:47:17.533Z</time></trkpt><trkpt lat="43.7636133" lon="12.6941567"><ele>251.0</ele><time>2026-04-26T08:47:19.534Z</time></trkpt><trkpt lat="43.7635167" lon="12.694045"><ele>251.0</ele><time>2026-04-26T08:47:21.534Z</time></trkpt><trkpt lat="43.7634783" lon="12.6939617"><ele>251.0</ele><time>2026-04-26T08:47:22.535Z</time></trkpt><trkpt lat="43.7634483" lon="12.69387"><ele>251.00000000000003</ele><time>2026-04-26T08:47:23.539Z</time></trkpt><trkpt lat="43.7634267" lon="12.6937617"><ele>251.0</ele><time>2026-04-26T08:47:24.538Z</time></trkpt><trkpt lat="43.7634117" lon="12.6936533"><ele>252.16666666666669</ele><time>2026-04-26T08:47:25.539Z</time></trkpt><trkpt lat="43.763405" lon="12.6935417"><ele>253.33333333333334</ele><time>2026-04-26T08:47:26.538Z</time></trkpt><trkpt lat="43.7633933" lon="12.6934383"><ele>254.5</ele><time>2026-04-26T08:47:27.537Z</time></trkpt><trkpt lat="43.76338" lon="12.6933383"><ele>255.66666666666669</ele><time>2026-04-26T08:47:28.538Z</time></trkpt><trkpt lat="43.7633667" lon="12.6932367"><ele>256.8333333333333</ele><time>2026-04-26T08:47:29.538Z</time></trkpt><trkpt lat="43.7633567" lon="12.6931317"><ele>258.0</ele><time>2026-04-26T08:47:30.536Z</time></trkpt><trkpt lat="43.7633533" lon="12.6930317"><ele>258.0</ele><time>2026-04-26T08:47:31.54Z</time></trkpt><trkpt lat="43.763355" lon="12.6929383"><ele>258.0</ele><time>2026-04-26T08:47:32.537Z</time></trkpt><trkpt lat="43.76337" lon="12.6927733"><ele>258.0</ele><time>2026-04-26T08:47:34.537Z</time></trkpt><trkpt lat="43.7633433" lon="12.69264"><ele>258.0</ele><time>2026-04-26T08:47:36.537Z</time></trkpt><trkpt lat="43.7632567" lon="12.69254"><ele>258.0</ele><time>2026-04-26T08:47:38.537Z</time></trkpt><trkpt lat="43.763185" lon="12.6924967"><ele>257.6</ele><time>2026-04-26T08:47:39.537Z</time></trkpt><trkpt lat="43.7631033" lon="12.6924533"><ele>257.20000000000005</ele><time>2026-04-26T08:47:40.538Z</time></trkpt><trkpt lat="43.7630083" lon="12.6924233"><ele>256.8</ele><time>2026-04-26T08:47:41.537Z</time></trkpt><trkpt lat="43.7629167" lon="12.692385"><ele>256.40000000000003</ele><time>2026-04-26T08:47:42.536Z</time></trkpt><trkpt lat="43.7628317" lon="12.6923417"><ele>256.0</ele><time>2026-04-26T08:47:43.539Z</time></trkpt><trkpt lat="43.7627567" lon="12.6923033"><ele>257.16666666666663</ele><time>2026-04-26T08:47:44.537Z</time></trkpt><trkpt lat="43.7626933" lon="12.692265"><ele>258.3333333333333</ele><time>2026-04-26T08:47:45.537Z</time></trkpt><trkpt lat="43.7626267" lon="12.692225"><ele>259.5</ele><time>2026-04-26T08:47:46.534Z</time></trkpt><trkpt lat="43.7625533" lon="12.6921817"><ele>260.6666666666667</ele><time>2026-04-26T08:47:47.534Z</time></trkpt><trkpt lat="43.7624633" lon="12.692125"><ele>261.83333333333337</ele><time>2026-04-26T08:47:48.534Z</time></trkpt><trkpt lat="43.762365" lon="12.69206"><ele>263.0</ele><time>2026-04-26T08:47:49.535Z</time></trkpt><trkpt lat="43.762265" lon="12.6919917"><ele>263.6</ele><time>2026-04-26T08:47:50.534Z</time></trkpt><trkpt lat="43.76217" lon="12.6919167"><ele>264.20000000000005</ele><time>2026-04-26T08:47:51.534Z</time></trkpt><trkpt lat="43.7620817" lon="12.6918483"><ele>264.8</ele><time>2026-04-26T08:47:52.534Z</time></trkpt><trkpt lat="43.7620017" lon="12.6917833"><ele>265.40000000000003</ele><time>2026-04-26T08:47:53.538Z</time></trkpt><trkpt lat="43.7619167" lon="12.6917133"><ele>266.0</ele><time>2026-04-26T08:47:54.538Z</time></trkpt><trkpt lat="43.76183" lon="12.6916417"><ele>266.0</ele><time>2026-04-26T08:47:55.537Z</time></trkpt><trkpt lat="43.7617417" lon="12.6915683"><ele>266.0</ele><time>2026-04-26T08:47:56.538Z</time></trkpt><trkpt lat="43.7616617" lon="12.6915"><ele>266.0</ele><time>2026-04-26T08:47:57.539Z</time></trkpt><trkpt lat="43.7615933" lon="12.691435"><ele>266.0</ele><time>2026-04-26T08:47:58.537Z</time></trkpt><trkpt lat="43.76154" lon="12.6913817"><ele>266.0</ele><time>2026-04-26T08:47:59.539Z</time></trkpt><trkpt lat="43.7614417" lon="12.6913183"><ele>266.0</ele><time>2026-04-26T08:48:01.538Z</time></trkpt><trkpt lat="43.7613333" lon="12.691355"><ele>266.0</ele><time>2026-04-26T08:48:03.536Z</time></trkpt><trkpt lat="43.7612433" lon="12.6914233"><ele>266.0</ele><time>2026-04-26T08:48:05.537Z</time></trkpt><trkpt lat="43.7611583" lon="12.69151"><ele>266.0</ele><time>2026-04-26T08:48:07.535Z</time></trkpt><trkpt lat="43.7611067" lon="12.69156"><ele>266.0</ele><time>2026-04-26T08:48:08.534Z</time></trkpt><trkpt lat="43.7610433" lon="12.69161"><ele>267.1666666666667</ele><time>2026-04-26T08:48:09.538Z</time></trkpt><trkpt lat="43.7609733" lon="12.6916533"><ele>268.33333333333337</ele><time>2026-04-26T08:48:10.537Z</time></trkpt><trkpt lat="43.7608933" lon="12.6916917"><ele>269.5</ele><time>2026-04-26T08:48:11.537Z</time></trkpt><trkpt lat="43.760815" lon="12.6917183"><ele>270.6666666666667</ele><time>2026-04-26T08:48:12.537Z</time></trkpt><trkpt lat="43.760745" lon="12.691735"><ele>271.8333333333333</ele><time>2026-04-26T08:48:13.534Z</time></trkpt><trkpt lat="43.7606333" lon="12.6917133"><ele>273.0</ele><time>2026-04-26T08:48:15.538Z</time></trkpt><trkpt lat="43.760525" lon="12.6916367"><ele>273.0</ele><time>2026-04-26T08:48:17.534Z</time></trkpt><trkpt lat="43.7604333" lon="12.691525"><ele>273.0</ele><time>2026-04-26T08:48:19.535Z</time></trkpt><trkpt lat="43.7603717" lon="12.691425"><ele>273.0</ele><time>2026-04-26T08:48:21.533Z</time></trkpt><trkpt lat="43.7603133" lon="12.6913517"><ele>273.0</ele><time>2026-04-26T08:48:32.535Z</time></trkpt><trkpt lat="43.7602417" lon="12.6913417"><ele>273.0</ele><time>2026-04-26T08:48:34.536Z</time></trkpt><trkpt lat="43.7601517" lon="12.6913617"><ele>275.1666666666667</ele><time>2026-04-26T08:48:36.534Z</time></trkpt><trkpt lat="43.7600767" lon="12.6913933"><ele>277.3333333333333</ele><time>2026-04-26T08:48:38.537Z</time></trkpt><trkpt lat="43.7600017" lon="12.6913867"><ele>279.5</ele><time>2026-04-26T08:49:59.537Z</time></trkpt><trkpt lat="43.7599483" lon="12.6914367"><ele>281.66666666666663</ele><time>2026-04-26T08:50:01.537Z</time></trkpt><trkpt lat="43.75987" lon="12.6915017"><ele>283.8333333333333</ele><time>2026-04-26T08:50:03.533Z</time></trkpt><trkpt lat="43.7597767" lon="12.6915917"><ele>286.0</ele><time>2026-04-26T08:50:05.536Z</time></trkpt><trkpt lat="43.7597183" lon="12.6916367"><ele>286.0</ele><time>2026-04-26T08:50:06.533Z</time></trkpt><trkpt lat="43.7596467" lon="12.6916967"><ele>286.0</ele><time>2026-04-26T08:50:07.533Z</time></trkpt><trkpt lat="43.7595767" lon="12.691735"><ele>286.0</ele><time>2026-04-26T08:50:08.537Z</time></trkpt><trkpt lat="43.75951" lon="12.6917667"><ele>286.0</ele><time>2026-04-26T08:50:09.536Z</time></trkpt><trkpt lat="43.759435" lon="12.6917983"><ele>286.0</ele><time>2026-04-26T08:50:10.533Z</time></trkpt><trkpt lat="43.75936" lon="12.6918267"><ele>286.0</ele><time>2026-04-26T08:50:11.537Z</time></trkpt><trkpt lat="43.759295" lon="12.69185"><ele>290.0</ele><time>2026-04-26T08:50:12.533Z</time></trkpt><trkpt lat="43.7591833" lon="12.6918867"><ele>294.0</ele><time>2026-04-26T08:50:14.533Z</time></trkpt><trkpt lat="43.7590733" lon="12.6919017"><ele>298.0</ele><time>2026-04-26T08:50:16.539Z</time></trkpt><trkpt lat="43.7589733" lon="12.69188"><ele>302.0</ele><time>2026-04-26T08:50:18.534Z</time></trkpt><trkpt lat="43.7588683" lon="12.6918033"><ele>306.0</ele><time>2026-04-26T08:50:20.536Z</time></trkpt><trkpt lat="43.7587567" lon="12.691695"><ele>306.0</ele><time>2026-04-26T08:50:22.533Z</time></trkpt><trkpt lat="43.7586817" lon="12.691625"><ele>306.0</ele><time>2026-04-26T08:50:23.536Z</time></trkpt><trkpt lat="43.7586017" lon="12.6915483"><ele>306.0</ele><time>2026-04-26T08:50:24.534Z</time></trkpt><trkpt lat="43.7585317" lon="12.6914733"><ele>306.0</ele><time>2026-04-26T08:50:25.536Z</time></trkpt><trkpt lat="43.75847" lon="12.6913967"><ele>306.0</ele><time>2026-04-26T08:50:26.534Z</time></trkpt><trkpt lat="43.75841" lon="12.6913283"><ele>306.0</ele><time>2026-04-26T08:50:27.536Z</time></trkpt><trkpt lat="43.7583483" lon="12.691265"><ele>307.5</ele><time>2026-04-26T08:50:28.534Z</time></trkpt><trkpt lat="43.7582883" lon="12.6912017"><ele>309.0</ele><time>2026-04-26T08:50:29.537Z</time></trkpt><trkpt lat="43.758225" lon="12.69114"><ele>310.5</ele><time>2026-04-26T08:50:30.533Z</time></trkpt><trkpt lat="43.75816" lon="12.691075"><ele>312.0</ele><time>2026-04-26T08:50:31.537Z</time></trkpt><trkpt lat="43.7580933" lon="12.691015"><ele>313.5</ele><time>2026-04-26T08:50:32.533Z</time></trkpt><trkpt lat="43.7580233" lon="12.6909567"><ele>315.0</ele><time>2026-04-26T08:50:33.534Z</time></trkpt><trkpt lat="43.75795" lon="12.6908983"><ele>317.1666666666667</ele><time>2026-04-26T08:50:34.535Z</time></trkpt><trkpt lat="43.75788" lon="12.6908417"><ele>319.3333333333333</ele><time>2026-04-26T08:50:35.534Z</time></trkpt><trkpt lat="43.757795" lon="12.6907967"><ele>321.5</ele><time>2026-04-26T08:50:36.535Z</time></trkpt><trkpt lat="43.7577083" lon="12.6907567"><ele>323.66666666666663</ele><time>2026-04-26T08:50:37.536Z</time></trkpt><trkpt lat="43.7576167" lon="12.6907183"><ele>325.8333333333333</ele><time>2026-04-26T08:50:38.533Z</time></trkpt><trkpt lat="43.75754" lon="12.690685"><ele>328.0</ele><time>2026-04-26T08:50:39.537Z</time></trkpt><trkpt lat="43.7574467" lon="12.6906267"><ele>328.0</ele><time>2026-04-26T08:50:41.536Z</time></trkpt><trkpt lat="43.7574433" lon="12.6905233"><ele>328.0</ele><time>2026-04-26T08:50:44.536Z</time></trkpt><trkpt lat="43.75754" lon="12.6903867"><ele>328.0</ele><time>2026-04-26T08:50:46.536Z</time></trkpt><trkpt lat="43.75762" lon="12.6902817"><ele>328.0</ele><time>2026-04-26T08:50:47.533Z</time></trkpt><trkpt lat="43.7577383" lon="12.6901367"><ele>329.59999999999997</ele><time>2026-04-26T08:50:48.536Z</time></trkpt><trkpt lat="43.75783" lon="12.690005"><ele>331.2</ele><time>2026-04-26T08:50:49.534Z</time></trkpt><trkpt lat="43.7579167" lon="12.689885"><ele>332.8</ele><time>2026-04-26T08:50:50.534Z</time></trkpt><trkpt lat="43.7579833" lon="12.6898033"><ele>334.4</ele><time>2026-04-26T08:50:51.536Z</time></trkpt><trkpt lat="43.7580333" lon="12.6897367"><ele>336.0</ele><time>2026-04-26T08:50:52.536Z</time></trkpt><trkpt lat="43.7580933" lon="12.68967"><ele>336.0</ele><time>2026-04-26T08:50:54.536Z</time></trkpt><trkpt lat="43.7581567" lon="12.6896"><ele>336.0</ele><time>2026-04-26T08:55:18.536Z</time></trkpt><trkpt lat="43.7582133" lon="12.6894683"><ele>336.0</ele><time>2026-04-26T08:55:20.537Z</time></trkpt><trkpt lat="43.7582533" lon="12.6893983"><ele>336.0</ele><time>2026-04-26T08:55:21.536Z</time></trkpt><trkpt lat="43.75829" lon="12.6893117"><ele>336.0</ele><time>2026-04-26T08:55:22.536Z</time></trkpt><trkpt lat="43.7583117" lon="12.6892133"><ele>336.0</ele><time>2026-04-26T08:55:23.533Z</time></trkpt><trkpt lat="43.75832" lon="12.6891033"><ele>334.6</ele><time>2026-04-26T08:55:24.533Z</time></trkpt><trkpt lat="43.75831" lon="12.688985"><ele>333.20000000000005</ele><time>2026-04-26T08:55:25.537Z</time></trkpt><trkpt lat="43.7582883" lon="12.688855"><ele>331.79999999999995</ele><time>2026-04-26T08:55:26.537Z</time></trkpt><trkpt lat="43.75825" lon="12.6887217"><ele>330.4</ele><time>2026-04-26T08:55:27.536Z</time></trkpt><trkpt lat="43.7582067" lon="12.6885883"><ele>329.0</ele><time>2026-04-26T08:55:28.538Z</time></trkpt><trkpt lat="43.758155" lon="12.6884567"><ele>327.0</ele><time>2026-04-26T08:55:29.537Z</time></trkpt><trkpt lat="43.7581033" lon="12.68832"><ele>325.0</ele><time>2026-04-26T08:55:30.538Z</time></trkpt><trkpt lat="43.7580567" lon="12.6881733"><ele>323.0</ele><time>2026-04-26T08:55:31.536Z</time></trkpt><trkpt lat="43.7580117" lon="12.6880233"><ele>321.0</ele><time>2026-04-26T08:55:32.533Z</time></trkpt><trkpt lat="43.7579633" lon="12.687865"><ele>317.25</ele><time>2026-04-26T08:55:33.536Z</time></trkpt><trkpt lat="43.75792" lon="12.6877067"><ele>313.5</ele><time>2026-04-26T08:55:34.538Z</time></trkpt><trkpt lat="43.757875" lon="12.6875367"><ele>309.75</ele><time>2026-04-26T08:55:35.538Z</time></trkpt><trkpt lat="43.7578217" lon="12.6873633"><ele>306.0</ele><time>2026-04-26T08:55:36.536Z</time></trkpt><trkpt lat="43.7577617" lon="12.6871933"><ele>308.5</ele><time>2026-04-26T08:55:37.536Z</time></trkpt><trkpt lat="43.757695" lon="12.6870217"><ele>311.0</ele><time>2026-04-26T08:55:38.537Z</time></trkpt><trkpt lat="43.7576367" lon="12.68683"><ele>313.5</ele><time>2026-04-26T08:55:39.535Z</time></trkpt><trkpt lat="43.7575783" lon="12.6866267"><ele>316.0</ele><time>2026-04-26T08:55:40.536Z</time></trkpt><trkpt lat="43.7575333" lon="12.68641"><ele>316.0</ele><time>2026-04-26T08:55:41.537Z</time></trkpt><trkpt lat="43.7574983" lon="12.6862"><ele>316.0</ele><time>2026-04-26T08:55:42.534Z</time></trkpt><trkpt lat="43.7574683" lon="12.6860033"><ele>316.0</ele><time>2026-04-26T08:55:43.534Z</time></trkpt><trkpt lat="43.7574467" lon="12.6858167"><ele>316.0</ele><time>2026-04-26T08:55:44.538Z</time></trkpt><trkpt lat="43.7574317" lon="12.6856333"><ele>315.5</ele><time>2026-04-26T08:55:45.536Z</time></trkpt><trkpt lat="43.75744" lon="12.6854533"><ele>315.0</ele><time>2026-04-26T08:55:46.533Z</time></trkpt><trkpt lat="43.7574733" lon="12.68528"><ele>314.5</ele><time>2026-04-26T08:55:47.536Z</time></trkpt><trkpt lat="43.7575233" lon="12.6851167"><ele>314.0</ele><time>2026-04-26T08:55:48.536Z</time></trkpt><trkpt lat="43.7575883" lon="12.6849583"><ele>315.0</ele><time>2026-04-26T08:55:49.536Z</time></trkpt><trkpt lat="43.7576717" lon="12.6847967"><ele>316.0</ele><time>2026-04-26T08:55:50.537Z</time></trkpt><trkpt lat="43.75777" lon="12.684645"><ele>317.0</ele><time>2026-04-26T08:55:51.536Z</time></trkpt><trkpt lat="43.7578867" lon="12.6845067"><ele>318.0</ele><time>2026-04-26T08:55:52.536Z</time></trkpt><trkpt lat="43.758005" lon="12.6843817"><ele>318.25</ele><time>2026-04-26T08:55:53.536Z</time></trkpt><trkpt lat="43.758115" lon="12.684275"><ele>318.5</ele><time>2026-04-26T08:55:54.537Z</time></trkpt><trkpt lat="43.758215" lon="12.6841983"><ele>318.75</ele><time>2026-04-26T08:55:55.536Z</time></trkpt><trkpt lat="43.7583133" lon="12.6841567"><ele>319.0</ele><time>2026-04-26T08:55:56.537Z</time></trkpt><trkpt lat="43.758415" lon="12.684145"><ele>319.0</ele><time>2026-04-26T08:55:57.536Z</time></trkpt><trkpt lat="43.758525" lon="12.68416"><ele>319.0</ele><time>2026-04-26T08:55:58.535Z</time></trkpt><trkpt lat="43.75865" lon="12.68419"><ele>319.0</ele><time>2026-04-26T08:55:59.535Z</time></trkpt><trkpt lat="43.758785" lon="12.6842333"><ele>319.0</ele><time>2026-04-26T08:56:00.536Z</time></trkpt><trkpt lat="43.758915" lon="12.6842767"><ele>317.75</ele><time>2026-04-26T08:56:01.534Z</time></trkpt><trkpt lat="43.7590433" lon="12.6843183"><ele>316.5</ele><time>2026-04-26T08:56:02.535Z</time></trkpt><trkpt lat="43.7591683" lon="12.68436"><ele>315.25</ele><time>2026-04-26T08:56:03.538Z</time></trkpt><trkpt lat="43.7592867" lon="12.6843983"><ele>314.0</ele><time>2026-04-26T08:56:04.535Z</time></trkpt><trkpt lat="43.7594067" lon="12.68444"><ele>314.1666666666667</ele><time>2026-04-26T08:56:05.535Z</time></trkpt><trkpt lat="43.7595117" lon="12.6844767"><ele>314.33333333333337</ele><time>2026-04-26T08:56:06.535Z</time></trkpt><trkpt lat="43.7596133" lon="12.6845017"><ele>314.5</ele><time>2026-04-26T08:56:07.538Z</time></trkpt><trkpt lat="43.7596883" lon="12.684495"><ele>314.6666666666667</ele><time>2026-04-26T08:56:08.537Z</time></trkpt><trkpt lat="43.75976" lon="12.6844783"><ele>314.8333333333333</ele><time>2026-04-26T08:56:09.539Z</time></trkpt><trkpt lat="43.7598183" lon="12.68444"><ele>315.0</ele><time>2026-04-26T08:56:10.537Z</time></trkpt><trkpt lat="43.759875" lon="12.68439"><ele>315.0</ele><time>2026-04-26T08:56:11.533Z</time></trkpt><trkpt lat="43.7598917" lon="12.6843033"><ele>315.0</ele><time>2026-04-26T08:56:12.537Z</time></trkpt><trkpt lat="43.7598667" lon="12.6841917"><ele>315.0</ele><time>2026-04-26T08:56:13.54Z</time></trkpt><trkpt lat="43.7598133" lon="12.6840683"><ele>315.0</ele><time>2026-04-26T08:56:14.536Z</time></trkpt><trkpt lat="43.7597567" lon="12.6839267"><ele>315.0</ele><time>2026-04-26T08:56:15.538Z</time></trkpt><trkpt lat="43.759665" lon="12.68378"><ele>315.0</ele><time>2026-04-26T08:56:16.538Z</time></trkpt><trkpt lat="43.7595717" lon="12.6836267"><ele>315.0</ele><time>2026-04-26T08:56:17.537Z</time></trkpt><trkpt lat="43.7594667" lon="12.6834817"><ele>315.0</ele><time>2026-04-26T08:56:18.537Z</time></trkpt><trkpt lat="43.7593583" lon="12.683335"><ele>315.0</ele><time>2026-04-26T08:56:19.537Z</time></trkpt><trkpt lat="43.7592533" lon="12.6831883"><ele>312.0</ele><time>2026-04-26T08:56:20.538Z</time></trkpt><trkpt lat="43.7591467" lon="12.6830383"><ele>309.0</ele><time>2026-04-26T08:56:21.536Z</time></trkpt><trkpt lat="43.7590333" lon="12.6828817"><ele>306.0</ele><time>2026-04-26T08:56:22.536Z</time></trkpt><trkpt lat="43.7589133" lon="12.6827283"><ele>306.0</ele><time>2026-04-26T08:56:23.539Z</time></trkpt><trkpt lat="43.758785" lon="12.6825733"><ele>306.0</ele><time>2026-04-26T08:56:24.536Z</time></trkpt><trkpt lat="43.7586583" lon="12.6824133"><ele>306.0</ele><time>2026-04-26T08:56:25.538Z</time></trkpt><trkpt lat="43.7585267" lon="12.6822517"><ele>300.3333333333333</ele><time>2026-04-26T08:56:26.536Z</time></trkpt><trkpt lat="43.7584" lon="12.6820883"><ele>294.66666666666663</ele><time>2026-04-26T08:56:27.538Z</time></trkpt><trkpt lat="43.758275" lon="12.6819283"><ele>289.0</ele><time>2026-04-26T08:56:28.534Z</time></trkpt><trkpt lat="43.7581533" lon="12.6817783"><ele>287.0</ele><time>2026-04-26T08:56:29.534Z</time></trkpt><trkpt lat="43.7580317" lon="12.68164"><ele>285.0</ele><time>2026-04-26T08:56:30.534Z</time></trkpt><trkpt lat="43.757905" lon="12.68152"><ele>283.0</ele><time>2026-04-26T08:56:31.538Z</time></trkpt><trkpt lat="43.7577683" lon="12.6814167"><ele>280.3333333333333</ele><time>2026-04-26T08:56:32.534Z</time></trkpt><trkpt lat="43.7576117" lon="12.681315"><ele>277.6666666666667</ele><time>2026-04-26T08:56:33.536Z</time></trkpt><trkpt lat="43.757445" lon="12.68121"><ele>275.0</ele><time>2026-04-26T08:56:34.538Z</time></trkpt><trkpt lat="43.75728" lon="12.6811183"><ele>272.0</ele><time>2026-04-26T08:56:35.538Z</time></trkpt><trkpt lat="43.7571183" lon="12.68103"><ele>269.0</ele><time>2026-04-26T08:56:36.533Z</time></trkpt><trkpt lat="43.7569633" lon="12.6809483"><ele>266.0</ele><time>2026-04-26T08:56:37.536Z</time></trkpt><trkpt lat="43.756815" lon="12.6808633"><ele>264.5</ele><time>2026-04-26T08:56:38.533Z</time></trkpt><trkpt lat="43.7566767" lon="12.6807683"><ele>263.0</ele><time>2026-04-26T08:56:39.537Z</time></trkpt><trkpt lat="43.7565483" lon="12.680675"><ele>261.5</ele><time>2026-04-26T08:56:40.537Z</time></trkpt><trkpt lat="43.7564317" lon="12.6805817"><ele>260.0</ele><time>2026-04-26T08:56:41.537Z</time></trkpt><trkpt lat="43.7563317" lon="12.68048"><ele>260.0</ele><time>2026-04-26T08:56:42.533Z</time></trkpt><trkpt lat="43.7562467" lon="12.680355"><ele>260.0</ele><time>2026-04-26T08:56:43.536Z</time></trkpt><trkpt lat="43.7561683" lon="12.6801967"><ele>260.0</ele><time>2026-04-26T08:56:44.533Z</time></trkpt><trkpt lat="43.7560967" lon="12.6800167"><ele>260.0</ele><time>2026-04-26T08:56:45.537Z</time></trkpt><trkpt lat="43.756025" lon="12.6798333"><ele>255.33333333333334</ele><time>2026-04-26T08:56:46.537Z</time></trkpt><trkpt lat="43.7559467" lon="12.6796467"><ele>250.66666666666669</ele><time>2026-04-26T08:56:47.537Z</time></trkpt><trkpt lat="43.75587" lon="12.679465"><ele>246.0</ele><time>2026-04-26T08:56:48.538Z</time></trkpt><trkpt lat="43.7558033" lon="12.6792817"><ele>246.0</ele><time>2026-04-26T08:56:49.535Z</time></trkpt><trkpt lat="43.75576" lon="12.6790933"><ele>246.0</ele><time>2026-04-26T08:56:50.537Z</time></trkpt><trkpt lat="43.7557267" lon="12.67889"><ele>246.0</ele><time>2026-04-26T08:56:51.536Z</time></trkpt><trkpt lat="43.7556917" lon="12.6786767"><ele>245.0</ele><time>2026-04-26T08:56:52.534Z</time></trkpt><trkpt lat="43.7556533" lon="12.6784667"><ele>244.0</ele><time>2026-04-26T08:56:53.534Z</time></trkpt><trkpt lat="43.7556167" lon="12.6782633"><ele>243.0</ele><time>2026-04-26T08:56:54.536Z</time></trkpt><trkpt lat="43.755575" lon="12.67806"><ele>243.0</ele><time>2026-04-26T08:56:55.535Z</time></trkpt><trkpt lat="43.7555317" lon="12.6778617"><ele>243.0</ele><time>2026-04-26T08:56:56.534Z</time></trkpt><trkpt lat="43.755505" lon="12.67765"><ele>243.0</ele><time>2026-04-26T08:56:57.534Z</time></trkpt><trkpt lat="43.7554983" lon="12.6774367"><ele>241.33333333333331</ele><time>2026-04-26T08:56:58.536Z</time></trkpt><trkpt lat="43.755505" lon="12.677225"><ele>239.66666666666666</ele><time>2026-04-26T08:56:59.533Z</time></trkpt><trkpt lat="43.755515" lon="12.6770167"><ele>238.0</ele><time>2026-04-26T08:57:00.533Z</time></trkpt><trkpt lat="43.7555233" lon="12.676815"><ele>237.66666666666666</ele><time>2026-04-26T08:57:01.536Z</time></trkpt><trkpt lat="43.7555433" lon="12.6766017"><ele>237.33333333333331</ele><time>2026-04-26T08:57:02.534Z</time></trkpt><trkpt lat="43.7555617" lon="12.676385"><ele>237.0</ele><time>2026-04-26T08:57:03.535Z</time></trkpt><trkpt lat="43.755575" lon="12.67616"><ele>235.0</ele><time>2026-04-26T08:57:04.533Z</time></trkpt><trkpt lat="43.7555817" lon="12.67593"><ele>233.0</ele><time>2026-04-26T08:57:05.534Z</time></trkpt><trkpt lat="43.755575" lon="12.6756967"><ele>231.0</ele><time>2026-04-26T08:57:06.533Z</time></trkpt><trkpt lat="43.7555617" lon="12.6754717"><ele>231.0</ele><time>2026-04-26T08:57:07.536Z</time></trkpt><trkpt lat="43.7555433" lon="12.6752617"><ele>231.0</ele><time>2026-04-26T08:57:08.533Z</time></trkpt><trkpt lat="43.7555267" lon="12.675065"><ele>231.0</ele><time>2026-04-26T08:57:09.533Z</time></trkpt><trkpt lat="43.75551" lon="12.6748783"><ele>231.0</ele><time>2026-04-26T08:57:10.535Z</time></trkpt><trkpt lat="43.7555" lon="12.6746933"><ele>231.0</ele><time>2026-04-26T08:57:11.534Z</time></trkpt><trkpt lat="43.7554833" lon="12.6745083"><ele>231.0</ele><time>2026-04-26T08:57:12.534Z</time></trkpt><trkpt lat="43.7554517" lon="12.674325"><ele>231.0</ele><time>2026-04-26T08:57:13.536Z</time></trkpt><trkpt lat="43.7554" lon="12.6741383"><ele>231.0</ele><time>2026-04-26T08:57:14.533Z</time></trkpt><trkpt lat="43.7553183" lon="12.673965"><ele>230.25</ele><time>2026-04-26T08:57:15.537Z</time></trkpt><trkpt lat="43.7552417" lon="12.6738"><ele>229.5</ele><time>2026-04-26T08:57:16.536Z</time></trkpt><trkpt lat="43.7551833" lon="12.6736267"><ele>228.75</ele><time>2026-04-26T08:57:17.537Z</time></trkpt><trkpt lat="43.7551383" lon="12.6734383"><ele>228.0</ele><time>2026-04-26T08:57:18.533Z</time></trkpt><trkpt lat="43.7551" lon="12.6732333"><ele>221.66666666666669</ele><time>2026-04-26T08:57:19.538Z</time></trkpt><trkpt lat="43.755065" lon="12.6730133"><ele>215.33333333333334</ele><time>2026-04-26T08:57:20.536Z</time></trkpt><trkpt lat="43.7550283" lon="12.6727867"><ele>209.0</ele><time>2026-04-26T08:57:21.536Z</time></trkpt><trkpt lat="43.7549917" lon="12.6725583"><ele>208.66666666666669</ele><time>2026-04-26T08:57:22.536Z</time></trkpt><trkpt lat="43.7549517" lon="12.6723433"><ele>208.33333333333331</ele><time>2026-04-26T08:57:23.536Z</time></trkpt><trkpt lat="43.7549217" lon="12.6721367"><ele>208.0</ele><time>2026-04-26T08:57:24.532Z</time></trkpt><trkpt lat="43.7548917" lon="12.6719383"><ele>207.25</ele><time>2026-04-26T08:57:25.535Z</time></trkpt><trkpt lat="43.7548633" lon="12.6717417"><ele>206.5</ele><time>2026-04-26T08:57:26.532Z</time></trkpt><trkpt lat="43.7548483" lon="12.6715467"><ele>205.75</ele><time>2026-04-26T08:57:27.537Z</time></trkpt><trkpt lat="43.75483" lon="12.67136"><ele>205.0</ele><time>2026-04-26T08:57:28.534Z</time></trkpt><trkpt lat="43.7547983" lon="12.6711917"><ele>205.0</ele><time>2026-04-26T08:57:29.538Z</time></trkpt><trkpt lat="43.7547517" lon="12.6710433"><ele>205.0</ele><time>2026-04-26T08:57:30.534Z</time></trkpt><trkpt lat="43.7547217" lon="12.6709"><ele>205.0</ele><time>2026-04-26T08:57:31.537Z</time></trkpt><trkpt lat="43.7547033" lon="12.670755"><ele>205.0</ele><time>2026-04-26T08:57:32.536Z</time></trkpt><trkpt lat="43.7546967" lon="12.6706017"><ele>205.0</ele><time>2026-04-26T08:57:33.537Z</time></trkpt><trkpt lat="43.7547117" lon="12.6704433"><ele>205.0</ele><time>2026-04-26T08:57:34.537Z</time></trkpt><trkpt lat="43.7547383" lon="12.67028"><ele>205.0</ele><time>2026-04-26T08:57:35.535Z</time></trkpt><trkpt lat="43.754765" lon="12.670115"><ele>205.0</ele><time>2026-04-26T08:57:36.536Z</time></trkpt><trkpt lat="43.7547867" lon="12.6699533"><ele>205.0</ele><time>2026-04-26T08:57:37.536Z</time></trkpt><trkpt lat="43.7548067" lon="12.6698"><ele>203.99999999999997</ele><time>2026-04-26T08:57:38.537Z</time></trkpt><trkpt lat="43.75482" lon="12.6696533"><ele>203.0</ele><time>2026-04-26T08:57:39.536Z</time></trkpt><trkpt lat="43.7548217" lon="12.6695217"><ele>202.0</ele><time>2026-04-26T08:57:40.536Z</time></trkpt><trkpt lat="43.7548117" lon="12.6694017"><ele>201.0</ele><time>2026-04-26T08:57:41.532Z</time></trkpt><trkpt lat="43.754795" lon="12.66929"><ele>199.99999999999997</ele><time>2026-04-26T08:57:42.532Z</time></trkpt><trkpt lat="43.7547567" lon="12.6691967"><ele>199.0</ele><time>2026-04-26T08:57:43.538Z</time></trkpt><trkpt lat="43.75469" lon="12.6691217"><ele>198.33333333333331</ele><time>2026-04-26T08:57:44.536Z</time></trkpt><trkpt lat="43.75462" lon="12.6690533"><ele>197.66666666666666</ele><time>2026-04-26T08:57:45.536Z</time></trkpt><trkpt lat="43.754555" lon="12.6689817"><ele>197.0</ele><time>2026-04-26T08:57:46.533Z</time></trkpt><trkpt lat="43.7544883" lon="12.6688967"><ele>196.33333333333331</ele><time>2026-04-26T08:57:47.535Z</time></trkpt><trkpt lat="43.75444" lon="12.668795"><ele>195.66666666666666</ele><time>2026-04-26T08:57:48.533Z</time></trkpt><trkpt lat="43.7544083" lon="12.66868"><ele>195.0</ele><time>2026-04-26T08:57:49.535Z</time></trkpt><trkpt lat="43.7543917" lon="12.6685533"><ele>193.8</ele><time>2026-04-26T08:57:50.533Z</time></trkpt><trkpt lat="43.7543883" lon="12.6684183"><ele>192.6</ele><time>2026-04-26T08:57:51.533Z</time></trkpt><trkpt lat="43.754385" lon="12.6682767"><ele>191.39999999999998</ele><time>2026-04-26T08:57:52.535Z</time></trkpt><trkpt lat="43.75438" lon="12.6681333"><ele>190.2</ele><time>2026-04-26T08:57:53.534Z</time></trkpt><trkpt lat="43.7543783" lon="12.667995"><ele>189.0</ele><time>2026-04-26T08:57:54.535Z</time></trkpt><trkpt lat="43.7543933" lon="12.66787"><ele>187.42857142857142</ele><time>2026-04-26T08:57:55.534Z</time></trkpt><trkpt lat="43.7544233" lon="12.66776"><ele>185.85714285714286</ele><time>2026-04-26T08:57:56.534Z</time></trkpt><trkpt lat="43.7544617" lon="12.6676683"><ele>184.28571428571428</ele><time>2026-04-26T08:57:57.536Z</time></trkpt><trkpt lat="43.7545017" lon="12.66759"><ele>182.71428571428572</ele><time>2026-04-26T08:57:58.533Z</time></trkpt><trkpt lat="43.7545433" lon="12.6675083"><ele>181.14285714285714</ele><time>2026-04-26T08:57:59.534Z</time></trkpt><trkpt lat="43.754585" lon="12.66743"><ele>179.57142857142856</ele><time>2026-04-26T08:58:00.536Z</time></trkpt><trkpt lat="43.7546217" lon="12.667345"><ele>178.0</ele><time>2026-04-26T08:58:01.536Z</time></trkpt><trkpt lat="43.75466" lon="12.6672683"><ele>178.0</ele><time>2026-04-26T08:58:02.536Z</time></trkpt><trkpt lat="43.7547067" lon="12.667205"><ele>178.0</ele><time>2026-04-26T08:58:03.536Z</time></trkpt><trkpt lat="43.7548233" lon="12.6671583"><ele>178.0</ele><time>2026-04-26T08:58:05.536Z</time></trkpt><trkpt lat="43.7548983" lon="12.667185"><ele>178.0</ele><time>2026-04-26T08:58:06.533Z</time></trkpt><trkpt lat="43.75497" lon="12.6672117"><ele>178.0</ele><time>2026-04-26T08:58:07.536Z</time></trkpt><trkpt lat="43.7550483" lon="12.6672383"><ele>178.0</ele><time>2026-04-26T08:58:08.536Z</time></trkpt><trkpt lat="43.7551317" lon="12.6672633"><ele>177.99999999999997</ele><time>2026-04-26T08:58:09.533Z</time></trkpt><trkpt lat="43.755205" lon="12.6672817"><ele>178.0</ele><time>2026-04-26T08:58:10.534Z</time></trkpt><trkpt lat="43.7552733" lon="12.6672967"><ele>178.0</ele><time>2026-04-26T08:58:11.533Z</time></trkpt><trkpt lat="43.7553367" lon="12.6673133"><ele>178.0</ele><time>2026-04-26T08:58:12.535Z</time></trkpt><trkpt lat="43.7554" lon="12.667325"><ele>178.0</ele><time>2026-04-26T08:58:13.536Z</time></trkpt><trkpt lat="43.7554683" lon="12.667335"><ele>177.99999999999997</ele><time>2026-04-26T08:58:14.534Z</time></trkpt><trkpt lat="43.755555" lon="12.6673483"><ele>178.0</ele><time>2026-04-26T08:58:15.533Z</time></trkpt><trkpt lat="43.7556683" lon="12.667365"><ele>178.0</ele><time>2026-04-26T08:58:16.533Z</time></trkpt><trkpt lat="43.7558033" lon="12.6673867"><ele>178.0</ele><time>2026-04-26T08:58:17.534Z</time></trkpt><trkpt lat="43.7559333" lon="12.6674083"><ele>178.0</ele><time>2026-04-26T08:58:18.535Z</time></trkpt><trkpt lat="43.756055" lon="12.6674267"><ele>178.0</ele><time>2026-04-26T08:58:19.534Z</time></trkpt><trkpt lat="43.75617" lon="12.6674317"><ele>178.4</ele><time>2026-04-26T08:58:20.536Z</time></trkpt><trkpt lat="43.756275" lon="12.6674167"><ele>178.8</ele><time>2026-04-26T08:58:21.534Z</time></trkpt><trkpt lat="43.75637" lon="12.6673783"><ele>179.2</ele><time>2026-04-26T08:58:22.535Z</time></trkpt><trkpt lat="43.75645" lon="12.667325"><ele>179.6</ele><time>2026-04-26T08:58:23.537Z</time></trkpt><trkpt lat="43.7565217" lon="12.6672617"><ele>180.0</ele><time>2026-04-26T08:58:24.536Z</time></trkpt><trkpt lat="43.756595" lon="12.6671983"><ele>180.0</ele><time>2026-04-26T08:58:25.537Z</time></trkpt><trkpt lat="43.7566733" lon="12.66713"><ele>180.0</ele><time>2026-04-26T08:58:26.536Z</time></trkpt><trkpt lat="43.7567517" lon="12.66706"><ele>180.0</ele><time>2026-04-26T08:58:27.536Z</time></trkpt><trkpt lat="43.7568267" lon="12.6669933"><ele>180.0</ele><time>2026-04-26T08:58:28.537Z</time></trkpt><trkpt lat="43.7569033" lon="12.6669383"><ele>180.0</ele><time>2026-04-26T08:58:29.537Z</time></trkpt><trkpt lat="43.7569917" lon="12.6668983"><ele>178.75</ele><time>2026-04-26T08:58:30.536Z</time></trkpt><trkpt lat="43.7571067" lon="12.6668933"><ele>177.5</ele><time>2026-04-26T08:58:31.539Z</time></trkpt><trkpt lat="43.75724" lon="12.666895"><ele>176.25</ele><time>2026-04-26T08:58:32.538Z</time></trkpt><trkpt lat="43.757385" lon="12.666895"><ele>175.0</ele><time>2026-04-26T08:58:33.534Z</time></trkpt><trkpt lat="43.7575333" lon="12.6668817"><ele>175.0</ele><time>2026-04-26T08:58:34.535Z</time></trkpt><trkpt lat="43.7576733" lon="12.66687"><ele>175.0</ele><time>2026-04-26T08:58:35.534Z</time></trkpt><trkpt lat="43.7578067" lon="12.6668683"><ele>175.0</ele><time>2026-04-26T08:58:36.534Z</time></trkpt><trkpt lat="43.7579333" lon="12.6668783"><ele>175.0</ele><time>2026-04-26T08:58:37.535Z</time></trkpt><trkpt lat="43.7580533" lon="12.6669117"><ele>174.25</ele><time>2026-04-26T08:58:38.534Z</time></trkpt><trkpt lat="43.7581683" lon="12.6669733"><ele>173.5</ele><time>2026-04-26T08:58:39.537Z</time></trkpt><trkpt lat="43.75828" lon="12.667055"><ele>172.75</ele><time>2026-04-26T08:58:40.533Z</time></trkpt><trkpt lat="43.7583867" lon="12.6671583"><ele>172.0</ele><time>2026-04-26T08:58:41.534Z</time></trkpt><trkpt lat="43.7584933" lon="12.6672667"><ele>171.5</ele><time>2026-04-26T08:58:42.534Z</time></trkpt><trkpt lat="43.7586017" lon="12.6673733"><ele>171.0</ele><time>2026-04-26T08:58:43.533Z</time></trkpt><trkpt lat="43.7587233" lon="12.6674667"><ele>170.5</ele><time>2026-04-26T08:58:44.533Z</time></trkpt><trkpt lat="43.7588567" lon="12.66754"><ele>170.0</ele><time>2026-04-26T08:58:45.533Z</time></trkpt><trkpt lat="43.7590033" lon="12.6675883"><ele>170.0</ele><time>2026-04-26T08:58:46.533Z</time></trkpt><trkpt lat="43.759155" lon="12.6676167"><ele>170.0</ele><time>2026-04-26T08:58:47.534Z</time></trkpt><trkpt lat="43.759305" lon="12.667635"><ele>170.0</ele><time>2026-04-26T08:58:48.534Z</time></trkpt><trkpt lat="43.75946" lon="12.66765"><ele>172.0</ele><time>2026-04-26T08:58:49.534Z</time></trkpt><trkpt lat="43.759615" lon="12.667665"><ele>174.0</ele><time>2026-04-26T08:58:50.533Z</time></trkpt><trkpt lat="43.7597717" lon="12.6676783"><ele>176.0</ele><time>2026-04-26T08:58:51.533Z</time></trkpt><trkpt lat="43.759935" lon="12.6676933"><ele>176.0</ele><time>2026-04-26T08:58:52.539Z</time></trkpt><trkpt lat="43.760105" lon="12.6677133"><ele>176.0</ele><time>2026-04-26T08:58:53.537Z</time></trkpt><trkpt lat="43.7602817" lon="12.6677383"><ele>176.0</ele><time>2026-04-26T08:58:54.533Z</time></trkpt><trkpt lat="43.7604683" lon="12.6677717"><ele>174.0</ele><time>2026-04-26T08:58:55.534Z</time></trkpt><trkpt lat="43.7606683" lon="12.667815"><ele>172.0</ele><time>2026-04-26T08:58:56.537Z</time></trkpt><trkpt lat="43.760865" lon="12.6678767"><ele>170.0</ele><time>2026-04-26T08:58:57.536Z</time></trkpt><trkpt lat="43.7610533" lon="12.6679583"><ele>169.66666666666666</ele><time>2026-04-26T08:58:58.536Z</time></trkpt><trkpt lat="43.761235" lon="12.6680583"><ele>169.33333333333334</ele><time>2026-04-26T08:58:59.537Z</time></trkpt><trkpt lat="43.7614133" lon="12.66818"><ele>169.0</ele><time>2026-04-26T08:59:00.537Z</time></trkpt><trkpt lat="43.761585" lon="12.668315"><ele>169.0</ele><time>2026-04-26T08:59:01.536Z</time></trkpt><trkpt lat="43.7617467" lon="12.6684667"><ele>169.0</ele><time>2026-04-26T08:59:02.535Z</time></trkpt><trkpt lat="43.7618933" lon="12.668625"><ele>169.0</ele><time>2026-04-26T08:59:03.533Z</time></trkpt><trkpt lat="43.7620283" lon="12.66878"><ele>167.66666666666669</ele><time>2026-04-26T08:59:04.534Z</time></trkpt><trkpt lat="43.7621567" lon="12.6689333"><ele>166.33333333333334</ele><time>2026-04-26T08:59:05.534Z</time></trkpt><trkpt lat="43.762275" lon="12.6690717"><ele>165.0</ele><time>2026-04-26T08:59:06.533Z</time></trkpt><trkpt lat="43.7623783" lon="12.66919"><ele>165.0</ele><time>2026-04-26T08:59:07.534Z</time></trkpt><trkpt lat="43.7624633" lon="12.66929"><ele>165.0</ele><time>2026-04-26T08:59:08.534Z</time></trkpt><trkpt lat="43.7625367" lon="12.6693583"><ele>165.0</ele><time>2026-04-26T08:59:09.533Z</time></trkpt><trkpt lat="43.7625967" lon="12.669415"><ele>165.0</ele><time>2026-04-26T08:59:10.534Z</time></trkpt><trkpt lat="43.7626733" lon="12.6694667"><ele>165.0</ele><time>2026-04-26T08:59:12.533Z</time></trkpt><trkpt lat="43.7627217" lon="12.6693783"><ele>165.0</ele><time>2026-04-26T08:59:15.536Z</time></trkpt><trkpt lat="43.7627567" lon="12.669225"><ele>164.71428571428572</ele><time>2026-04-26T08:59:17.535Z</time></trkpt><trkpt lat="43.762785" lon="12.6691433"><ele>164.42857142857144</ele><time>2026-04-26T08:59:18.536Z</time></trkpt><trkpt lat="43.762815" lon="12.66905"><ele>164.14285714285717</ele><time>2026-04-26T08:59:19.535Z</time></trkpt><trkpt lat="43.7628467" lon="12.66897"><ele>163.85714285714286</ele><time>2026-04-26T08:59:20.533Z</time></trkpt><trkpt lat="43.7628767" lon="12.6688883"><ele>163.57142857142856</ele><time>2026-04-26T08:59:21.536Z</time></trkpt><trkpt lat="43.7629033" lon="12.6688017"><ele>163.2857142857143</ele><time>2026-04-26T08:59:22.537Z</time></trkpt><trkpt lat="43.76294" lon="12.6686683"><ele>163.0</ele><time>2026-04-26T08:59:24.533Z</time></trkpt><trkpt lat="43.7629267" lon="12.6685817"><ele>163.0</ele><time>2026-04-26T08:59:26.533Z</time></trkpt><trkpt lat="43.762855" lon="12.668565"><ele>163.0</ele><time>2026-04-26T08:59:29.535Z</time></trkpt><trkpt lat="43.7627833" lon="12.6686317"><ele>163.0</ele><time>2026-04-26T08:59:31.535Z</time></trkpt><trkpt lat="43.762675" lon="12.6687"><ele>163.0</ele><time>2026-04-26T08:59:33.537Z</time></trkpt><trkpt lat="43.762615" lon="12.6687267"><ele>163.0</ele><time>2026-04-26T08:59:34.537Z</time></trkpt><trkpt lat="43.7625067" lon="12.6687183"><ele>163.4</ele><time>2026-04-26T08:59:36.539Z</time></trkpt><trkpt lat="43.7624433" lon="12.668645"><ele>163.8</ele><time>2026-04-26T08:59:38.536Z</time></trkpt><trkpt lat="43.76242" lon="12.668525"><ele>164.2</ele><time>2026-04-26T08:59:40.536Z</time></trkpt><trkpt lat="43.7624067" lon="12.6683883"><ele>164.6</ele><time>2026-04-26T08:59:42.536Z</time></trkpt><trkpt lat="43.762405" lon="12.66822"><ele>165.0</ele><time>2026-04-26T08:59:44.537Z</time></trkpt><trkpt lat="43.7624017" lon="12.66812"><ele>166.66666666666666</ele><time>2026-04-26T08:59:45.536Z</time></trkpt><trkpt lat="43.762395" lon="12.6680067"><ele>168.33333333333334</ele><time>2026-04-26T08:59:46.533Z</time></trkpt><trkpt lat="43.7623883" lon="12.6678867"><ele>170.0</ele><time>2026-04-26T08:59:47.533Z</time></trkpt><trkpt lat="43.7623817" lon="12.6677667"><ele>171.66666666666669</ele><time>2026-04-26T08:59:48.536Z</time></trkpt><trkpt lat="43.76237" lon="12.6676483"><ele>173.33333333333334</ele><time>2026-04-26T08:59:49.535Z</time></trkpt><trkpt lat="43.7623533" lon="12.6675333"><ele>175.0</ele><time>2026-04-26T08:59:50.533Z</time></trkpt><trkpt lat="43.7623317" lon="12.6674183"><ele>177.16666666666669</ele><time>2026-04-26T08:59:51.535Z</time></trkpt><trkpt lat="43.7623033" lon="12.6673083"><ele>179.33333333333334</ele><time>2026-04-26T08:59:52.536Z</time></trkpt><trkpt lat="43.76227" lon="12.6672017"><ele>181.5</ele><time>2026-04-26T08:59:53.536Z</time></trkpt><trkpt lat="43.7622267" lon="12.6671033"><ele>183.66666666666666</ele><time>2026-04-26T08:59:54.537Z</time></trkpt><trkpt lat="43.7621817" lon="12.6670083"><ele>185.83333333333331</ele><time>2026-04-26T08:59:55.537Z</time></trkpt><trkpt lat="43.7621367" lon="12.66692"><ele>188.0</ele><time>2026-04-26T08:59:56.536Z</time></trkpt><trkpt lat="43.76208" lon="12.666855"><ele>191.60000000000002</ele><time>2026-04-26T08:59:57.534Z</time></trkpt><trkpt lat="43.76202" lon="12.6668067"><ele>195.20000000000002</ele><time>2026-04-26T08:59:58.535Z</time></trkpt><trkpt lat="43.76189" lon="12.66679"><ele>198.8</ele><time>2026-04-26T09:00:00.533Z</time></trkpt><trkpt lat="43.7618217" lon="12.6668017"><ele>202.4</ele><time>2026-04-26T09:00:01.533Z</time></trkpt><trkpt lat="43.7617133" lon="12.6667867"><ele>206.0</ele><time>2026-04-26T09:00:03.534Z</time></trkpt><trkpt lat="43.761675" lon="12.6666883"><ele>206.00000000000003</ele><time>2026-04-26T09:00:06.534Z</time></trkpt><trkpt lat="43.7617167" lon="12.6666033"><ele>206.0</ele><time>2026-04-26T09:00:08.533Z</time></trkpt><trkpt lat="43.7618017" lon="12.6665083"><ele>206.0</ele><time>2026-04-26T09:00:10.534Z</time></trkpt><trkpt lat="43.7618883" lon="12.6664033"><ele>206.0</ele><time>2026-04-26T09:00:12.534Z</time></trkpt><trkpt lat="43.7619267" lon="12.666315"><ele>206.00000000000003</ele><time>2026-04-26T09:00:14.536Z</time></trkpt><trkpt lat="43.7619033" lon="12.66623"><ele>206.0</ele><time>2026-04-26T09:00:16.534Z</time></trkpt><trkpt lat="43.76182" lon="12.666215"><ele>206.20000000000002</ele><time>2026-04-26T09:00:19.534Z</time></trkpt><trkpt lat="43.76174" lon="12.6662567"><ele>206.4</ele><time>2026-04-26T09:00:21.535Z</time></trkpt><trkpt lat="43.7616417" lon="12.66633"><ele>206.6</ele><time>2026-04-26T09:00:23.533Z</time></trkpt><trkpt lat="43.761535" lon="12.6663733"><ele>206.8</ele><time>2026-04-26T09:00:25.534Z</time></trkpt><trkpt lat="43.7614333" lon="12.6663533"><ele>207.0</ele><time>2026-04-26T09:00:27.533Z</time></trkpt><trkpt lat="43.7613183" lon="12.66628"><ele>207.00000000000003</ele><time>2026-04-26T09:00:29.533Z</time></trkpt><trkpt lat="43.7612583" lon="12.6662217"><ele>207.0</ele><time>2026-04-26T09:00:30.535Z</time></trkpt><trkpt lat="43.7611983" lon="12.6661617"><ele>207.0</ele><time>2026-04-26T09:00:31.534Z</time></trkpt><trkpt lat="43.7611383" lon="12.6661017"><ele>207.0</ele><time>2026-04-26T09:00:32.534Z</time></trkpt><trkpt lat="43.7610783" lon="12.6660533"><ele>207.0</ele><time>2026-04-26T09:00:33.533Z</time></trkpt><trkpt lat="43.7610167" lon="12.6660067"><ele>207.00000000000003</ele><time>2026-04-26T09:00:34.535Z</time></trkpt><trkpt lat="43.7609467" lon="12.6659617"><ele>207.0</ele><time>2026-04-26T09:00:35.534Z</time></trkpt><trkpt lat="43.7608817" lon="12.66592"><ele>211.2857142857143</ele><time>2026-04-26T09:00:36.536Z</time></trkpt><trkpt lat="43.7608183" lon="12.6658667"><ele>215.57142857142856</ele><time>2026-04-26T09:00:37.538Z</time></trkpt><trkpt lat="43.7607533" lon="12.665815"><ele>219.85714285714283</ele><time>2026-04-26T09:00:38.536Z</time></trkpt><trkpt lat="43.7606917" lon="12.6657617"><ele>224.14285714285714</ele><time>2026-04-26T09:00:39.537Z</time></trkpt><trkpt lat="43.7606317" lon="12.665705"><ele>228.42857142857142</ele><time>2026-04-26T09:00:40.533Z</time></trkpt><trkpt lat="43.76058" lon="12.6656367"><ele>232.7142857142857</ele><time>2026-04-26T09:00:41.536Z</time></trkpt><trkpt lat="43.7605267" lon="12.665565"><ele>236.99999999999997</ele><time>2026-04-26T09:00:42.535Z</time></trkpt><trkpt lat="43.7604717" lon="12.6654883"><ele>237.0</ele><time>2026-04-26T09:00:43.536Z</time></trkpt><trkpt lat="43.76042" lon="12.6654033"><ele>237.0</ele><time>2026-04-26T09:00:44.537Z</time></trkpt><trkpt lat="43.7603683" lon="12.6653183"><ele>237.0</ele><time>2026-04-26T09:00:45.537Z</time></trkpt><trkpt lat="43.7603183" lon="12.665235"><ele>237.0</ele><time>2026-04-26T09:00:46.533Z</time></trkpt><trkpt lat="43.7602733" lon="12.6651517"><ele>237.0</ele><time>2026-04-26T09:00:47.534Z</time></trkpt><trkpt lat="43.76023" lon="12.6650633"><ele>237.0</ele><time>2026-04-26T09:00:48.534Z</time></trkpt><trkpt lat="43.760195" lon="12.66497"><ele>238.0</ele><time>2026-04-26T09:00:49.534Z</time></trkpt><trkpt lat="43.7601667" lon="12.6648667"><ele>239.0</ele><time>2026-04-26T09:00:50.533Z</time></trkpt><trkpt lat="43.7601383" lon="12.66475"><ele>240.0</ele><time>2026-04-26T09:00:51.536Z</time></trkpt><trkpt lat="43.7601117" lon="12.6646233"><ele>241.0</ele><time>2026-04-26T09:00:52.533Z</time></trkpt><trkpt lat="43.7600783" lon="12.6645083"><ele>242.0</ele><time>2026-04-26T09:00:53.533Z</time></trkpt><trkpt lat="43.7600367" lon="12.6644133"><ele>243.0</ele><time>2026-04-26T09:00:54.534Z</time></trkpt><trkpt lat="43.7599883" lon="12.6643283"><ele>245.66666666666666</ele><time>2026-04-26T09:00:55.534Z</time></trkpt><trkpt lat="43.75993" lon="12.6642517"><ele>248.33333333333331</ele><time>2026-04-26T09:00:56.537Z</time></trkpt><trkpt lat="43.759865" lon="12.6641867"><ele>251.0</ele><time>2026-04-26T09:00:57.534Z</time></trkpt><trkpt lat="43.759795" lon="12.6641283"><ele>253.66666666666666</ele><time>2026-04-26T09:00:58.534Z</time></trkpt><trkpt lat="43.759715" lon="12.6640717"><ele>256.3333333333333</ele><time>2026-04-26T09:00:59.535Z</time></trkpt><trkpt lat="43.7596267" lon="12.6640233"><ele>259.0</ele><time>2026-04-26T09:01:00.534Z</time></trkpt><trkpt lat="43.7595383" lon="12.6639833"><ele>259.0</ele><time>2026-04-26T09:01:01.534Z</time></trkpt><trkpt lat="43.7594433" lon="12.66395"><ele>259.0</ele><time>2026-04-26T09:01:02.533Z</time></trkpt><trkpt lat="43.75935" lon="12.663925"><ele>259.0</ele><time>2026-04-26T09:01:03.535Z</time></trkpt><trkpt lat="43.7592583" lon="12.6639083"><ele>259.0</ele><time>2026-04-26T09:01:04.536Z</time></trkpt><trkpt lat="43.7591683" lon="12.6639"><ele>259.0</ele><time>2026-04-26T09:01:05.535Z</time></trkpt><trkpt lat="43.7590867" lon="12.6639017"><ele>258.3333333333333</ele><time>2026-04-26T09:01:06.536Z</time></trkpt><trkpt lat="43.758995" lon="12.6639133"><ele>257.66666666666663</ele><time>2026-04-26T09:01:07.534Z</time></trkpt><trkpt lat="43.7589083" lon="12.66394"><ele>257.0</ele><time>2026-04-26T09:01:08.534Z</time></trkpt><trkpt lat="43.7588317" lon="12.663975"><ele>256.3333333333333</ele><time>2026-04-26T09:01:09.534Z</time></trkpt><trkpt lat="43.7587533" lon="12.6640083"><ele>255.66666666666666</ele><time>2026-04-26T09:01:10.536Z</time></trkpt><trkpt lat="43.7586783" lon="12.6640333"><ele>255.0</ele><time>2026-04-26T09:01:11.535Z</time></trkpt><trkpt lat="43.75861" lon="12.6640483"><ele>255.0</ele><time>2026-04-26T09:01:12.534Z</time></trkpt><trkpt lat="43.7585433" lon="12.66405"><ele>255.0</ele><time>2026-04-26T09:01:13.534Z</time></trkpt><trkpt lat="43.7584533" lon="12.663955"><ele>255.0</ele><time>2026-04-26T09:01:15.537Z</time></trkpt><trkpt lat="43.7584067" lon="12.6638217"><ele>255.0</ele><time>2026-04-26T09:01:17.533Z</time></trkpt><trkpt lat="43.75841" lon="12.6636733"><ele>255.0</ele><time>2026-04-26T09:01:19.536Z</time></trkpt><trkpt lat="43.7584333" lon="12.66359"><ele>256.8571428571429</ele><time>2026-04-26T09:01:20.535Z</time></trkpt><trkpt lat="43.7584583" lon="12.663505"><ele>258.7142857142857</ele><time>2026-04-26T09:01:21.535Z</time></trkpt><trkpt lat="43.7584767" lon="12.66341"><ele>260.57142857142856</ele><time>2026-04-26T09:01:22.536Z</time></trkpt><trkpt lat="43.75849" lon="12.6633"><ele>262.42857142857144</ele><time>2026-04-26T09:01:23.534Z</time></trkpt><trkpt lat="43.7585" lon="12.66319"><ele>264.2857142857143</ele><time>2026-04-26T09:01:24.534Z</time></trkpt><trkpt lat="43.7585067" lon="12.6630833"><ele>266.14285714285717</ele><time>2026-04-26T09:01:25.534Z</time></trkpt><trkpt lat="43.7585233" lon="12.662985"><ele>268.0</ele><time>2026-04-26T09:01:26.534Z</time></trkpt><trkpt lat="43.7585467" lon="12.6629017"><ele>269.16666666666663</ele><time>2026-04-26T09:01:27.534Z</time></trkpt><trkpt lat="43.7585667" lon="12.6628133"><ele>270.3333333333333</ele><time>2026-04-26T09:01:28.536Z</time></trkpt><trkpt lat="43.7586067" lon="12.66273"><ele>271.5</ele><time>2026-04-26T09:01:29.534Z</time></trkpt><trkpt lat="43.7586633" lon="12.6626333"><ele>272.6666666666667</ele><time>2026-04-26T09:01:30.536Z</time></trkpt><trkpt lat="43.7587217" lon="12.66253"><ele>273.83333333333337</ele><time>2026-04-26T09:01:31.535Z</time></trkpt><trkpt lat="43.7587833" lon="12.6624283"><ele>275.0</ele><time>2026-04-26T09:01:32.533Z</time></trkpt><trkpt lat="43.7588433" lon="12.66233"><ele>277.0</ele><time>2026-04-26T09:01:33.534Z</time></trkpt><trkpt lat="43.7588967" lon="12.662245"><ele>279.0</ele><time>2026-04-26T09:01:34.536Z</time></trkpt><trkpt lat="43.7589467" lon="12.6621833"><ele>281.0</ele><time>2026-04-26T09:01:35.535Z</time></trkpt><trkpt lat="43.7590283" lon="12.6621433"><ele>283.0</ele><time>2026-04-26T09:01:37.535Z</time></trkpt><trkpt lat="43.7590767" lon="12.6622217"><ele>285.0</ele><time>2026-04-26T09:01:39.534Z</time></trkpt><trkpt lat="43.7591017" lon="12.6623667"><ele>287.0</ele><time>2026-04-26T09:01:41.534Z</time></trkpt><trkpt lat="43.7591567" lon="12.6624767"><ele>287.0</ele><time>2026-04-26T09:01:43.536Z</time></trkpt><trkpt lat="43.7592333" lon="12.6625033"><ele>287.0</ele><time>2026-04-26T09:01:45.534Z</time></trkpt><trkpt lat="43.7592983" lon="12.6624333"><ele>287.0</ele><time>2026-04-26T09:01:47.536Z</time></trkpt><trkpt lat="43.7593617" lon="12.6622817"><ele>287.0</ele><time>2026-04-26T09:01:49.537Z</time></trkpt><trkpt lat="43.759395" lon="12.6621933"><ele>287.0</ele><time>2026-04-26T09:01:50.537Z</time></trkpt><trkpt lat="43.7594317" lon="12.6620967"><ele>287.0</ele><time>2026-04-26T09:01:51.538Z</time></trkpt><trkpt lat="43.7594783" lon="12.661995"><ele>291.33333333333337</ele><time>2026-04-26T09:01:52.537Z</time></trkpt><trkpt lat="43.7595333" lon="12.6619017"><ele>295.6666666666667</ele><time>2026-04-26T09:01:53.538Z</time></trkpt><trkpt lat="43.7595967" lon="12.6618233"><ele>300.0</ele><time>2026-04-26T09:01:54.533Z</time></trkpt><trkpt lat="43.7596683" lon="12.6617633"><ele>304.3333333333333</ele><time>2026-04-26T09:01:55.534Z</time></trkpt><trkpt lat="43.7597517" lon="12.6617133"><ele>308.66666666666663</ele><time>2026-04-26T09:01:56.533Z</time></trkpt><trkpt lat="43.7598383" lon="12.6616517"><ele>313.0</ele><time>2026-04-26T09:01:57.533Z</time></trkpt><trkpt lat="43.75993" lon="12.6615783"><ele>313.0</ele><time>2026-04-26T09:01:58.534Z</time></trkpt><trkpt lat="43.7600133" lon="12.6614983"><ele>313.0</ele><time>2026-04-26T09:01:59.533Z</time></trkpt><trkpt lat="43.7600833" lon="12.6614283"><ele>313.0</ele><time>2026-04-26T09:02:00.534Z</time></trkpt><trkpt lat="43.7601483" lon="12.6613617"><ele>313.0</ele><time>2026-04-26T09:02:01.533Z</time></trkpt><trkpt lat="43.7602067" lon="12.6612967"><ele>313.0</ele><time>2026-04-26T09:02:02.533Z</time></trkpt><trkpt lat="43.7602583" lon="12.6612283"><ele>313.0</ele><time>2026-04-26T09:02:03.532Z</time></trkpt><trkpt lat="43.7603017" lon="12.6611483"><ele>313.0</ele><time>2026-04-26T09:02:04.534Z</time></trkpt><trkpt lat="43.7603317" lon="12.66106"><ele>313.0</ele><time>2026-04-26T09:02:05.533Z</time></trkpt><trkpt lat="43.760345" lon="12.660965"><ele>313.0</ele><time>2026-04-26T09:02:06.534Z</time></trkpt><trkpt lat="43.7603467" lon="12.6608533"><ele>313.0</ele><time>2026-04-26T09:02:07.534Z</time></trkpt><trkpt lat="43.7603417" lon="12.66073"><ele>313.0</ele><time>2026-04-26T09:02:08.532Z</time></trkpt><trkpt lat="43.7603283" lon="12.6605983"><ele>313.0</ele><time>2026-04-26T09:02:09.533Z</time></trkpt><trkpt lat="43.7603133" lon="12.66046"><ele>313.0</ele><time>2026-04-26T09:02:10.535Z</time></trkpt><trkpt lat="43.7603017" lon="12.6603133"><ele>313.0</ele><time>2026-04-26T09:02:11.533Z</time></trkpt><trkpt lat="43.760295" lon="12.66016"><ele>313.0</ele><time>2026-04-26T09:02:12.534Z</time></trkpt><trkpt lat="43.7602883" lon="12.659995"><ele>313.0</ele><time>2026-04-26T09:02:13.533Z</time></trkpt><trkpt lat="43.76028" lon="12.6598267"><ele>313.0</ele><time>2026-04-26T09:02:14.537Z</time></trkpt><trkpt lat="43.7602717" lon="12.6596533"><ele>313.0</ele><time>2026-04-26T09:02:15.537Z</time></trkpt><trkpt lat="43.76026" lon="12.6594817"><ele>313.0</ele><time>2026-04-26T09:02:16.534Z</time></trkpt><trkpt lat="43.76025" lon="12.65932"><ele>313.0</ele><time>2026-04-26T09:02:17.534Z</time></trkpt><trkpt lat="43.7602433" lon="12.6591617"><ele>314.0</ele><time>2026-04-26T09:02:18.535Z</time></trkpt><trkpt lat="43.76025" lon="12.6590033"><ele>315.0</ele><time>2026-04-26T09:02:19.534Z</time></trkpt><trkpt lat="43.7602633" lon="12.6588417"><ele>316.0</ele><time>2026-04-26T09:02:20.536Z</time></trkpt><trkpt lat="43.7602767" lon="12.65868"><ele>317.0</ele><time>2026-04-26T09:02:21.535Z</time></trkpt><trkpt lat="43.7602883" lon="12.658515"><ele>319.0</ele><time>2026-04-26T09:02:22.536Z</time></trkpt><trkpt lat="43.7603033" lon="12.658345"><ele>321.0</ele><time>2026-04-26T09:02:23.532Z</time></trkpt><trkpt lat="43.7603267" lon="12.6581667"><ele>323.0</ele><time>2026-04-26T09:02:24.536Z</time></trkpt><trkpt lat="43.7603483" lon="12.6579967"><ele>325.0</ele><time>2026-04-26T09:02:25.533Z</time></trkpt><trkpt lat="43.7603817" lon="12.6578183"><ele>327.5</ele><time>2026-04-26T09:02:26.533Z</time></trkpt><trkpt lat="43.7604083" lon="12.65764"><ele>330.0</ele><time>2026-04-26T09:02:27.533Z</time></trkpt><trkpt lat="43.760435" lon="12.65746"><ele>332.5</ele><time>2026-04-26T09:02:28.534Z</time></trkpt><trkpt lat="43.7604567" lon="12.65728"><ele>335.0</ele><time>2026-04-26T09:02:29.533Z</time></trkpt><trkpt lat="43.760475" lon="12.65711"><ele>337.4</ele><time>2026-04-26T09:02:30.533Z</time></trkpt><trkpt lat="43.76049" lon="12.6569517"><ele>339.8</ele><time>2026-04-26T09:02:31.534Z</time></trkpt><trkpt lat="43.7605033" lon="12.6568017"><ele>342.20000000000005</ele><time>2026-04-26T09:02:32.533Z</time></trkpt><trkpt lat="43.7605117" lon="12.656665"><ele>344.6</ele><time>2026-04-26T09:02:33.534Z</time></trkpt><trkpt lat="43.7605167" lon="12.65655"><ele>347.0</ele><time>2026-04-26T09:02:34.533Z</time></trkpt><trkpt lat="43.760515" lon="12.6564067"><ele>347.0</ele><time>2026-04-26T09:02:36.533Z</time></trkpt><trkpt lat="43.7604683" lon="12.6563233"><ele>347.0</ele><time>2026-04-26T09:02:39.534Z</time></trkpt><trkpt lat="43.7603967" lon="12.656255"><ele>347.0</ele><time>2026-04-26T09:02:41.534Z</time></trkpt><trkpt lat="43.76031" lon="12.6561017"><ele>347.0</ele><time>2026-04-26T09:02:43.534Z</time></trkpt><trkpt lat="43.7602633" lon="12.6559817"><ele>347.0</ele><time>2026-04-26T09:02:44.534Z</time></trkpt><trkpt lat="43.7602167" lon="12.6558267"><ele>349.40000000000003</ele><time>2026-04-26T09:02:45.536Z</time></trkpt><trkpt lat="43.7601683" lon="12.6556733"><ele>351.8</ele><time>2026-04-26T09:02:46.536Z</time></trkpt><trkpt lat="43.7601317" lon="12.6555283"><ele>354.2</ele><time>2026-04-26T09:02:47.536Z</time></trkpt><trkpt lat="43.7600967" lon="12.6554083"><ele>356.6</ele><time>2026-04-26T09:02:48.535Z</time></trkpt><trkpt lat="43.7600733" lon="12.655295"><ele>359.0</ele><time>2026-04-26T09:02:49.533Z</time></trkpt><trkpt lat="43.7600583" lon="12.655185"><ele>360.4</ele><time>2026-04-26T09:02:50.537Z</time></trkpt><trkpt lat="43.7600483" lon="12.6550717"><ele>361.79999999999995</ele><time>2026-04-26T09:02:51.534Z</time></trkpt><trkpt lat="43.7600817" lon="12.654935"><ele>363.20000000000005</ele><time>2026-04-26T09:02:52.536Z</time></trkpt><trkpt lat="43.7601417" lon="12.654785"><ele>364.6</ele><time>2026-04-26T09:02:53.533Z</time></trkpt><trkpt lat="43.7602033" lon="12.6546367"><ele>366.0</ele><time>2026-04-26T09:02:54.533Z</time></trkpt><trkpt lat="43.76028" lon="12.6544967"><ele>368.0</ele><time>2026-04-26T09:02:55.533Z</time></trkpt><trkpt lat="43.7603717" lon="12.6543667"><ele>370.0</ele><time>2026-04-26T09:02:56.534Z</time></trkpt><trkpt lat="43.7604717" lon="12.654235"><ele>372.0</ele><time>2026-04-26T09:02:57.534Z</time></trkpt><trkpt lat="43.760575" lon="12.6540933"><ele>374.0</ele><time>2026-04-26T09:02:58.533Z</time></trkpt><trkpt lat="43.7606817" lon="12.6539517"><ele>374.0</ele><time>2026-04-26T09:02:59.533Z</time></trkpt><trkpt lat="43.7607783" lon="12.653805"><ele>374.0</ele><time>2026-04-26T09:03:00.532Z</time></trkpt><trkpt lat="43.760865" lon="12.6536617"><ele>374.0</ele><time>2026-04-26T09:03:01.536Z</time></trkpt><trkpt lat="43.7609333" lon="12.6535067"><ele>374.0</ele><time>2026-04-26T09:03:02.532Z</time></trkpt><trkpt lat="43.760975" lon="12.6533383"><ele>374.0</ele><time>2026-04-26T09:03:03.534Z</time></trkpt><trkpt lat="43.7609933" lon="12.6531633"><ele>374.0</ele><time>2026-04-26T09:03:04.535Z</time></trkpt><trkpt lat="43.7609833" lon="12.65298"><ele>374.0</ele><time>2026-04-26T09:03:05.533Z</time></trkpt><trkpt lat="43.760965" lon="12.6527983"><ele>374.0</ele><time>2026-04-26T09:03:06.532Z</time></trkpt><trkpt lat="43.7609483" lon="12.6526183"><ele>374.0</ele><time>2026-04-26T09:03:07.535Z</time></trkpt><trkpt lat="43.760935" lon="12.65244"><ele>374.0</ele><time>2026-04-26T09:03:08.533Z</time></trkpt><trkpt lat="43.7609283" lon="12.6522567"><ele>374.0</ele><time>2026-04-26T09:03:09.532Z</time></trkpt><trkpt lat="43.7609217" lon="12.6520683"><ele>374.0</ele><time>2026-04-26T09:03:10.533Z</time></trkpt><trkpt lat="43.7609167" lon="12.6518733"><ele>375.33333333333337</ele><time>2026-04-26T09:03:11.534Z</time></trkpt><trkpt lat="43.7609183" lon="12.6516683"><ele>376.6666666666667</ele><time>2026-04-26T09:03:12.533Z</time></trkpt><trkpt lat="43.76092" lon="12.65146"><ele>378.0</ele><time>2026-04-26T09:03:13.533Z</time></trkpt><trkpt lat="43.760925" lon="12.6512483"><ele>377.3333333333333</ele><time>2026-04-26T09:03:14.533Z</time></trkpt><trkpt lat="43.76093" lon="12.6510367"><ele>376.66666666666663</ele><time>2026-04-26T09:03:15.534Z</time></trkpt><trkpt lat="43.7609467" lon="12.6508233"><ele>376.0</ele><time>2026-04-26T09:03:16.533Z</time></trkpt><trkpt lat="43.76098" lon="12.65061"><ele>376.0</ele><time>2026-04-26T09:03:17.534Z</time></trkpt><trkpt lat="43.7610233" lon="12.650405"><ele>376.0</ele><time>2026-04-26T09:03:18.532Z</time></trkpt><trkpt lat="43.7610917" lon="12.6501933"><ele>376.0</ele><time>2026-04-26T09:03:19.534Z</time></trkpt><trkpt lat="43.7611617" lon="12.6499817"><ele>377.3333333333333</ele><time>2026-04-26T09:03:20.534Z</time></trkpt><trkpt lat="43.7612483" lon="12.64976"><ele>378.6666666666667</ele><time>2026-04-26T09:03:21.534Z</time></trkpt><trkpt lat="43.7613333" lon="12.649535"><ele>380.0</ele><time>2026-04-26T09:03:22.535Z</time></trkpt><trkpt lat="43.7614133" lon="12.649315"><ele>380.0</ele><time>2026-04-26T09:03:23.533Z</time></trkpt><trkpt lat="43.7614967" lon="12.649095"><ele>380.0</ele><time>2026-04-26T09:03:24.533Z</time></trkpt><trkpt lat="43.7615733" lon="12.6488867"><ele>380.0</ele><time>2026-04-26T09:03:25.536Z</time></trkpt><trkpt lat="43.7616467" lon="12.6486867"><ele>382.5</ele><time>2026-04-26T09:03:26.532Z</time></trkpt><trkpt lat="43.76171" lon="12.6484917"><ele>385.0</ele><time>2026-04-26T09:03:27.533Z</time></trkpt><trkpt lat="43.761755" lon="12.6483033"><ele>387.5</ele><time>2026-04-26T09:03:28.535Z</time></trkpt><trkpt lat="43.7617767" lon="12.6481233"><ele>390.0</ele><time>2026-04-26T09:03:29.534Z</time></trkpt><trkpt lat="43.7617817" lon="12.6479483"><ele>390.0</ele><time>2026-04-26T09:03:30.535Z</time></trkpt><trkpt lat="43.7617583" lon="12.64779"><ele>390.0</ele><time>2026-04-26T09:03:31.533Z</time></trkpt><trkpt lat="43.7617083" lon="12.647645"><ele>390.0</ele><time>2026-04-26T09:03:32.532Z</time></trkpt><trkpt lat="43.7616383" lon="12.6474967"><ele>390.0</ele><time>2026-04-26T09:03:33.532Z</time></trkpt><trkpt lat="43.7615717" lon="12.6473467"><ele>390.0</ele><time>2026-04-26T09:03:34.534Z</time></trkpt><trkpt lat="43.7615167" lon="12.647205"><ele>390.0</ele><time>2026-04-26T09:03:35.534Z</time></trkpt><trkpt lat="43.76146" lon="12.6470717"><ele>390.0</ele><time>2026-04-26T09:03:36.534Z</time></trkpt><trkpt lat="43.7614183" lon="12.6469567"><ele>390.0</ele><time>2026-04-26T09:03:37.537Z</time></trkpt><trkpt lat="43.7613933" lon="12.646855"><ele>390.0</ele><time>2026-04-26T09:03:38.534Z</time></trkpt><trkpt lat="43.7613733" lon="12.6467433"><ele>388.0</ele><time>2026-04-26T09:03:40.535Z</time></trkpt><trkpt lat="43.761445" lon="12.64665"><ele>386.0</ele><time>2026-04-26T09:03:43.535Z</time></trkpt><trkpt lat="43.76154" lon="12.6466067"><ele>384.0</ele><time>2026-04-26T09:03:45.533Z</time></trkpt><trkpt lat="43.7616" lon="12.64651"><ele>382.0</ele><time>2026-04-26T09:03:47.534Z</time></trkpt><trkpt lat="43.761595" lon="12.6463817"><ele>380.0</ele><time>2026-04-26T09:03:49.534Z</time></trkpt><trkpt lat="43.761495" lon="12.6462833"><ele>380.0</ele><time>2026-04-26T09:03:51.533Z</time></trkpt><trkpt lat="43.761445" lon="12.64623"><ele>380.0</ele><time>2026-04-26T09:03:52.533Z</time></trkpt><trkpt lat="43.761395" lon="12.6461233"><ele>380.0</ele><time>2026-04-26T09:03:54.535Z</time></trkpt><trkpt lat="43.7614433" lon="12.6460267"><ele>380.0</ele><time>2026-04-26T09:03:58.533Z</time></trkpt><trkpt lat="43.7615283" lon="12.6460417"><ele>380.0</ele><time>2026-04-26T09:04:00.534Z</time></trkpt><trkpt lat="43.761625" lon="12.6460933"><ele>380.0</ele><time>2026-04-26T09:04:02.534Z</time></trkpt><trkpt lat="43.7616867" lon="12.6461217"><ele>380.0</ele><time>2026-04-26T09:04:03.533Z</time></trkpt><trkpt lat="43.7617533" lon="12.6461533"><ele>380.0</ele><time>2026-04-26T09:04:04.533Z</time></trkpt><trkpt lat="43.761835" lon="12.6462017"><ele>380.0</ele><time>2026-04-26T09:04:05.534Z</time></trkpt><trkpt lat="43.761935" lon="12.6462517"><ele>380.0</ele><time>2026-04-26T09:04:06.536Z</time></trkpt><trkpt lat="43.76204" lon="12.646285"><ele>380.0</ele><time>2026-04-26T09:04:07.534Z</time></trkpt><trkpt lat="43.762145" lon="12.64632"><ele>375.0</ele><time>2026-04-26T09:04:08.534Z</time></trkpt><trkpt lat="43.76226" lon="12.6463533"><ele>370.0</ele><time>2026-04-26T09:04:09.533Z</time></trkpt><trkpt lat="43.7623783" lon="12.6463967"><ele>365.0</ele><time>2026-04-26T09:04:10.534Z</time></trkpt><trkpt lat="43.762505" lon="12.64643"><ele>360.0</ele><time>2026-04-26T09:04:11.533Z</time></trkpt><trkpt lat="43.7626283" lon="12.6464617"><ele>357.0</ele><time>2026-04-26T09:04:12.533Z</time></trkpt><trkpt lat="43.7627567" lon="12.64648"><ele>354.0</ele><time>2026-04-26T09:04:13.534Z</time></trkpt><trkpt lat="43.7628783" lon="12.6465017"><ele>351.0</ele><time>2026-04-26T09:04:14.533Z</time></trkpt><trkpt lat="43.7629967" lon="12.64651"><ele>348.0</ele><time>2026-04-26T09:04:15.533Z</time></trkpt><trkpt lat="43.763125" lon="12.6465067"><ele>348.0</ele><time>2026-04-26T09:04:16.533Z</time></trkpt><trkpt lat="43.7632617" lon="12.6464883"><ele>348.0</ele><time>2026-04-26T09:04:17.533Z</time></trkpt><trkpt lat="43.7634033" lon="12.6464717"><ele>348.0</ele><time>2026-04-26T09:04:18.535Z</time></trkpt><trkpt lat="43.7635517" lon="12.6464417"><ele>348.0</ele><time>2026-04-26T09:04:19.536Z</time></trkpt><trkpt lat="43.7637067" lon="12.6463983"><ele>344.0</ele><time>2026-04-26T09:04:20.533Z</time></trkpt><trkpt lat="43.7638417" lon="12.6463533"><ele>340.0</ele><time>2026-04-26T09:04:21.535Z</time></trkpt><trkpt lat="43.76397" lon="12.6463067"><ele>336.0</ele><time>2026-04-26T09:04:22.533Z</time></trkpt><trkpt lat="43.7640767" lon="12.646275"><ele>332.0</ele><time>2026-04-26T09:04:23.536Z</time></trkpt><trkpt lat="43.764185" lon="12.6462467"><ele>332.0</ele><time>2026-04-26T09:04:24.533Z</time></trkpt><trkpt lat="43.7642917" lon="12.6462283"><ele>332.0</ele><time>2026-04-26T09:04:25.535Z</time></trkpt><trkpt lat="43.7643917" lon="12.646215"><ele>332.0</ele><time>2026-04-26T09:04:26.533Z</time></trkpt><trkpt lat="43.7644933" lon="12.64619"><ele>332.0</ele><time>2026-04-26T09:04:27.535Z</time></trkpt><trkpt lat="43.764585" lon="12.6461533"><ele>332.0</ele><time>2026-04-26T09:04:28.536Z</time></trkpt><trkpt lat="43.76467" lon="12.6461117"><ele>329.0</ele><time>2026-04-26T09:04:29.533Z</time></trkpt><trkpt lat="43.7647517" lon="12.64608"><ele>326.0</ele><time>2026-04-26T09:04:30.533Z</time></trkpt><trkpt lat="43.764825" lon="12.646065"><ele>323.0</ele><time>2026-04-26T09:04:31.533Z</time></trkpt><trkpt lat="43.7648983" lon="12.6460767"><ele>320.0</ele><time>2026-04-26T09:04:32.533Z</time></trkpt><trkpt lat="43.7649817" lon="12.6461317"><ele>317.0</ele><time>2026-04-26T09:04:33.534Z</time></trkpt><trkpt lat="43.76507" lon="12.6462217"><ele>314.0</ele><time>2026-04-26T09:04:34.535Z</time></trkpt><trkpt lat="43.76515" lon="12.6463433"><ele>309.0</ele><time>2026-04-26T09:04:35.533Z</time></trkpt><trkpt lat="43.765235" lon="12.6464733"><ele>304.0</ele><time>2026-04-26T09:04:36.534Z</time></trkpt><trkpt lat="43.7653217" lon="12.6466167"><ele>299.0</ele><time>2026-04-26T09:04:37.536Z</time></trkpt><trkpt lat="43.765415" lon="12.6467633"><ele>294.0</ele><time>2026-04-26T09:04:38.533Z</time></trkpt><trkpt lat="43.7655083" lon="12.6469067"><ele>296.25</ele><time>2026-04-26T09:04:39.535Z</time></trkpt><trkpt lat="43.765595" lon="12.647055"><ele>298.5</ele><time>2026-04-26T09:04:40.533Z</time></trkpt><trkpt lat="43.7656767" lon="12.6472017"><ele>300.75</ele><time>2026-04-26T09:04:41.534Z</time></trkpt><trkpt lat="43.7657483" lon="12.64735"><ele>303.0</ele><time>2026-04-26T09:04:42.534Z</time></trkpt><trkpt lat="43.7658133" lon="12.6474933"><ele>303.0</ele><time>2026-04-26T09:04:43.533Z</time></trkpt><trkpt lat="43.76586" lon="12.6476333"><ele>303.0</ele><time>2026-04-26T09:04:44.534Z</time></trkpt><trkpt lat="43.765905" lon="12.6477667"><ele>303.0</ele><time>2026-04-26T09:04:45.535Z</time></trkpt><trkpt lat="43.7659333" lon="12.647895"><ele>303.0</ele><time>2026-04-26T09:04:46.534Z</time></trkpt><trkpt lat="43.7659383" lon="12.6480183"><ele>303.0</ele><time>2026-04-26T09:04:47.533Z</time></trkpt><trkpt lat="43.7659433" lon="12.6481383"><ele>303.6666666666667</ele><time>2026-04-26T09:04:48.537Z</time></trkpt><trkpt lat="43.765945" lon="12.6482517"><ele>304.3333333333333</ele><time>2026-04-26T09:04:49.536Z</time></trkpt><trkpt lat="43.765945" lon="12.6483633"><ele>305.0</ele><time>2026-04-26T09:04:50.534Z</time></trkpt><trkpt lat="43.7659433" lon="12.64846"><ele>305.66666666666663</ele><time>2026-04-26T09:04:51.534Z</time></trkpt><trkpt lat="43.765925" lon="12.6485683"><ele>306.3333333333333</ele><time>2026-04-26T09:04:53.533Z</time></trkpt><trkpt lat="43.7659033" lon="12.6487"><ele>307.0</ele><time>2026-04-26T09:07:28.537Z</time></trkpt><trkpt lat="43.7658583" lon="12.6488017"><ele>304.4</ele><time>2026-04-26T09:07:29.533Z</time></trkpt><trkpt lat="43.76581" lon="12.6489033"><ele>301.79999999999995</ele><time>2026-04-26T09:07:30.533Z</time></trkpt><trkpt lat="43.765755" lon="12.6490017"><ele>299.2</ele><time>2026-04-26T09:07:31.534Z</time></trkpt><trkpt lat="43.7656917" lon="12.6490983"><ele>296.59999999999997</ele><time>2026-04-26T09:07:32.534Z</time></trkpt><trkpt lat="43.765625" lon="12.6491917"><ele>294.0</ele><time>2026-04-26T09:07:33.535Z</time></trkpt><trkpt lat="43.7655467" lon="12.649285"><ele>294.0</ele><time>2026-04-26T09:07:34.533Z</time></trkpt><trkpt lat="43.76544" lon="12.64938"><ele>294.0</ele><time>2026-04-26T09:07:35.532Z</time></trkpt><trkpt lat="43.7653483" lon="12.6494633"><ele>294.0</ele><time>2026-04-26T09:07:36.533Z</time></trkpt><trkpt lat="43.765265" lon="12.6495517"><ele>294.0</ele><time>2026-04-26T09:07:37.535Z</time></trkpt><trkpt lat="43.7651867" lon="12.6496383"><ele>294.0</ele><time>2026-04-26T09:07:38.532Z</time></trkpt><trkpt lat="43.765115" lon="12.6497467"><ele>294.0</ele><time>2026-04-26T09:07:39.532Z</time></trkpt><trkpt lat="43.7650267" lon="12.64987"><ele>294.0</ele><time>2026-04-26T09:07:40.534Z</time></trkpt><trkpt lat="43.7649933" lon="12.6499917"><ele>294.0</ele><time>2026-04-26T09:07:41.532Z</time></trkpt><trkpt lat="43.764975" lon="12.6501117"><ele>294.0</ele><time>2026-04-26T09:07:42.536Z</time></trkpt><trkpt lat="43.76497" lon="12.6502133"><ele>294.0</ele><time>2026-04-26T09:07:43.534Z</time></trkpt><trkpt lat="43.7649683" lon="12.650365"><ele>290.5</ele><time>2026-04-26T09:07:45.532Z</time></trkpt><trkpt lat="43.765065" lon="12.65037"><ele>287.0</ele><time>2026-04-26T09:07:48.534Z</time></trkpt><trkpt lat="43.7651983" lon="12.6503317"><ele>283.5</ele><time>2026-04-26T09:07:50.534Z</time></trkpt><trkpt lat="43.7653483" lon="12.6502767"><ele>280.0</ele><time>2026-04-26T09:07:51.532Z</time></trkpt><trkpt lat="43.7655317" lon="12.6502083"><ele>278.0</ele><time>2026-04-26T09:07:52.536Z</time></trkpt><trkpt lat="43.7657583" lon="12.6501267"><ele>276.0</ele><time>2026-04-26T09:07:53.537Z</time></trkpt><trkpt lat="43.7660067" lon="12.650025"><ele>271.0</ele><time>2026-04-26T09:07:54.535Z</time></trkpt><trkpt lat="43.7662217" lon="12.6499317"><ele>266.0</ele><time>2026-04-26T09:07:55.537Z</time></trkpt><trkpt lat="43.7664217" lon="12.6498533"><ele>261.0</ele><time>2026-04-26T09:07:56.534Z</time></trkpt><trkpt lat="43.7666083" lon="12.6497833"><ele>261.0</ele><time>2026-04-26T09:07:57.537Z</time></trkpt><trkpt lat="43.7667767" lon="12.6497233"><ele>261.0</ele><time>2026-04-26T09:07:58.536Z</time></trkpt><trkpt lat="43.766935" lon="12.649665"><ele>261.0</ele><time>2026-04-26T09:07:59.534Z</time></trkpt><trkpt lat="43.767085" lon="12.64961"><ele>260.5</ele><time>2026-04-26T09:08:00.534Z</time></trkpt><trkpt lat="43.7672233" lon="12.64955"><ele>260.0</ele><time>2026-04-26T09:08:01.533Z</time></trkpt><trkpt lat="43.76735" lon="12.649485"><ele>259.5</ele><time>2026-04-26T09:08:02.534Z</time></trkpt><trkpt lat="43.76747" lon="12.6494083"><ele>259.0</ele><time>2026-04-26T09:08:03.534Z</time></trkpt><trkpt lat="43.7675967" lon="12.64931"><ele>253.75</ele><time>2026-04-26T09:08:04.534Z</time></trkpt><trkpt lat="43.767725" lon="12.6491933"><ele>248.5</ele><time>2026-04-26T09:08:05.534Z</time></trkpt><trkpt lat="43.7678433" lon="12.6490783"><ele>243.25</ele><time>2026-04-26T09:08:06.534Z</time></trkpt><trkpt lat="43.767945" lon="12.6489733"><ele>238.0</ele><time>2026-04-26T09:08:07.533Z</time></trkpt><trkpt lat="43.7680333" lon="12.6488717"><ele>238.0</ele><time>2026-04-26T09:08:08.533Z</time></trkpt><trkpt lat="43.7681033" lon="12.6487683"><ele>238.0</ele><time>2026-04-26T09:08:09.533Z</time></trkpt><trkpt lat="43.768155" lon="12.6486467"><ele>238.0</ele><time>2026-04-26T09:08:10.535Z</time></trkpt><trkpt lat="43.7681917" lon="12.6485067"><ele>238.0</ele><time>2026-04-26T09:08:11.533Z</time></trkpt><trkpt lat="43.76822" lon="12.6483667"><ele>238.0</ele><time>2026-04-26T09:08:12.534Z</time></trkpt><trkpt lat="43.7682483" lon="12.6482433"><ele>239.60000000000002</ele><time>2026-04-26T09:08:13.536Z</time></trkpt><trkpt lat="43.7682917" lon="12.64814"><ele>241.20000000000002</ele><time>2026-04-26T09:08:14.532Z</time></trkpt><trkpt lat="43.7683517" lon="12.6480633"><ele>242.8</ele><time>2026-04-26T09:08:15.533Z</time></trkpt><trkpt lat="43.7684317" lon="12.6480233"><ele>244.4</ele><time>2026-04-26T09:08:16.534Z</time></trkpt><trkpt lat="43.76852" lon="12.6479967"><ele>246.0</ele><time>2026-04-26T09:08:17.536Z</time></trkpt><trkpt lat="43.7686167" lon="12.6480583"><ele>241.5</ele><time>2026-04-26T09:08:18.534Z</time></trkpt><trkpt lat="43.7687167" lon="12.6481933"><ele>237.0</ele><time>2026-04-26T09:08:19.535Z</time></trkpt><trkpt lat="43.768825" lon="12.6482983"><ele>232.5</ele><time>2026-04-26T09:08:20.536Z</time></trkpt><trkpt lat="43.7689417" lon="12.6484167"><ele>228.0</ele><time>2026-04-26T09:08:21.536Z</time></trkpt><trkpt lat="43.7690717" lon="12.6485233"><ele>228.0</ele><time>2026-04-26T09:08:22.537Z</time></trkpt><trkpt lat="43.769225" lon="12.6486233"><ele>228.0</ele><time>2026-04-26T09:08:23.534Z</time></trkpt><trkpt lat="43.769385" lon="12.6487167"><ele>228.0</ele><time>2026-04-26T09:08:24.535Z</time></trkpt><trkpt lat="43.7695417" lon="12.64881"><ele>225.0</ele><time>2026-04-26T09:08:25.533Z</time></trkpt><trkpt lat="43.7696933" lon="12.6489067"><ele>222.0</ele><time>2026-04-26T09:08:26.533Z</time></trkpt><trkpt lat="43.76984" lon="12.6490133"><ele>219.0</ele><time>2026-04-26T09:08:27.533Z</time></trkpt><trkpt lat="43.7699833" lon="12.64913"><ele>219.0</ele><time>2026-04-26T09:08:28.535Z</time></trkpt><trkpt lat="43.770125" lon="12.64925"><ele>219.0</ele><time>2026-04-26T09:08:29.533Z</time></trkpt><trkpt lat="43.77026" lon="12.6493617"><ele>219.0</ele><time>2026-04-26T09:08:30.533Z</time></trkpt><trkpt lat="43.770395" lon="12.6494583"><ele>214.66666666666669</ele><time>2026-04-26T09:08:31.533Z</time></trkpt><trkpt lat="43.7705367" lon="12.6495267"><ele>210.33333333333334</ele><time>2026-04-26T09:08:32.532Z</time></trkpt><trkpt lat="43.7706883" lon="12.649555"><ele>206.0</ele><time>2026-04-26T09:08:33.534Z</time></trkpt><trkpt lat="43.7708483" lon="12.6495467"><ele>206.0</ele><time>2026-04-26T09:08:34.534Z</time></trkpt><trkpt lat="43.7710167" lon="12.64951"><ele>206.0</ele><time>2026-04-26T09:08:35.533Z</time></trkpt><trkpt lat="43.7711817" lon="12.64946"><ele>206.0</ele><time>2026-04-26T09:08:36.533Z</time></trkpt><trkpt lat="43.77134" lon="12.64941"><ele>205.66666666666669</ele><time>2026-04-26T09:08:37.534Z</time></trkpt><trkpt lat="43.7715033" lon="12.6493617"><ele>205.33333333333331</ele><time>2026-04-26T09:08:38.533Z</time></trkpt><trkpt lat="43.7716717" lon="12.6493267"><ele>205.0</ele><time>2026-04-26T09:08:39.533Z</time></trkpt><trkpt lat="43.7718333" lon="12.6493033"><ele>203.0</ele><time>2026-04-26T09:08:40.535Z</time></trkpt><trkpt lat="43.7719783" lon="12.6492883"><ele>201.0</ele><time>2026-04-26T09:08:41.534Z</time></trkpt><trkpt lat="43.77211" lon="12.6492767"><ele>199.0</ele><time>2026-04-26T09:08:42.534Z</time></trkpt><trkpt lat="43.7722333" lon="12.64927"><ele>197.0</ele><time>2026-04-26T09:08:43.534Z</time></trkpt><trkpt lat="43.7723583" lon="12.64926"><ele>197.0</ele><time>2026-04-26T09:08:44.533Z</time></trkpt><trkpt lat="43.7724933" lon="12.649245"><ele>197.0</ele><time>2026-04-26T09:08:45.533Z</time></trkpt><trkpt lat="43.77264" lon="12.6492217"><ele>197.0</ele><time>2026-04-26T09:08:46.535Z</time></trkpt><trkpt lat="43.7727967" lon="12.6491967"><ele>197.0</ele><time>2026-04-26T09:08:47.534Z</time></trkpt><trkpt lat="43.772965" lon="12.6491733"><ele>197.0</ele><time>2026-04-26T09:08:48.536Z</time></trkpt><trkpt lat="43.7731433" lon="12.6491583"><ele>197.0</ele><time>2026-04-26T09:08:49.536Z</time></trkpt><trkpt lat="43.7733383" lon="12.6491417"><ele>197.0</ele><time>2026-04-26T09:08:50.536Z</time></trkpt><trkpt lat="43.7735483" lon="12.6491217"><ele>196.66666666666669</ele><time>2026-04-26T09:08:51.536Z</time></trkpt><trkpt lat="43.7737717" lon="12.6490917"><ele>196.33333333333331</ele><time>2026-04-26T09:08:52.536Z</time></trkpt><trkpt lat="43.7739883" lon="12.6490617"><ele>196.0</ele><time>2026-04-26T09:08:53.533Z</time></trkpt><trkpt lat="43.7741967" lon="12.6490367"><ele>199.0</ele><time>2026-04-26T09:08:54.535Z</time></trkpt><trkpt lat="43.7744017" lon="12.649015"><ele>202.0</ele><time>2026-04-26T09:08:55.533Z</time></trkpt><trkpt lat="43.7746083" lon="12.6489967"><ele>205.0</ele><time>2026-04-26T09:08:56.533Z</time></trkpt><trkpt lat="43.7748167" lon="12.6489733"><ele>205.0</ele><time>2026-04-26T09:08:57.534Z</time></trkpt><trkpt lat="43.77501" lon="12.6489467"><ele>205.0</ele><time>2026-04-26T09:08:58.535Z</time></trkpt><trkpt lat="43.7751917" lon="12.6489217"><ele>205.0</ele><time>2026-04-26T09:08:59.533Z</time></trkpt><trkpt lat="43.77536" lon="12.6488917"><ele>204.66666666666666</ele><time>2026-04-26T09:09:00.533Z</time></trkpt><trkpt lat="43.7755217" lon="12.6488533"><ele>204.33333333333331</ele><time>2026-04-26T09:09:01.535Z</time></trkpt><trkpt lat="43.7756883" lon="12.6488133"><ele>204.0</ele><time>2026-04-26T09:09:02.534Z</time></trkpt><trkpt lat="43.7758517" lon="12.6487717"><ele>204.0</ele><time>2026-04-26T09:09:03.535Z</time></trkpt><trkpt lat="43.7760083" lon="12.6487317"><ele>204.0</ele><time>2026-04-26T09:09:04.533Z</time></trkpt><trkpt lat="43.7761617" lon="12.6487017"><ele>204.0</ele><time>2026-04-26T09:09:05.533Z</time></trkpt><trkpt lat="43.7763317" lon="12.64868"><ele>200.33333333333331</ele><time>2026-04-26T09:09:06.533Z</time></trkpt><trkpt lat="43.776515" lon="12.6486633"><ele>196.66666666666666</ele><time>2026-04-26T09:09:07.536Z</time></trkpt><trkpt lat="43.7767033" lon="12.6486433"><ele>193.0</ele><time>2026-04-26T09:09:08.534Z</time></trkpt><trkpt lat="43.7768933" lon="12.648625"><ele>191.0</ele><time>2026-04-26T09:09:09.535Z</time></trkpt><trkpt lat="43.77708" lon="12.64861"><ele>189.0</ele><time>2026-04-26T09:09:10.533Z</time></trkpt><trkpt lat="43.7772583" lon="12.6486"><ele>187.0</ele><time>2026-04-26T09:09:11.533Z</time></trkpt><trkpt lat="43.7774233" lon="12.64859"><ele>187.0</ele><time>2026-04-26T09:09:12.533Z</time></trkpt><trkpt lat="43.7775783" lon="12.64858"><ele>187.0</ele><time>2026-04-26T09:09:13.535Z</time></trkpt><trkpt lat="43.7777217" lon="12.6485683"><ele>187.0</ele><time>2026-04-26T09:09:14.533Z</time></trkpt><trkpt lat="43.7778567" lon="12.6485567"><ele>187.0</ele><time>2026-04-26T09:09:15.535Z</time></trkpt><trkpt lat="43.7779833" lon="12.6485433"><ele>187.39999999999998</ele><time>2026-04-26T09:09:16.533Z</time></trkpt><trkpt lat="43.7781033" lon="12.6485217"><ele>187.79999999999998</ele><time>2026-04-26T09:09:17.538Z</time></trkpt><trkpt lat="43.77821" lon="12.6484967"><ele>188.2</ele><time>2026-04-26T09:09:18.536Z</time></trkpt><trkpt lat="43.77831" lon="12.6484617"><ele>188.6</ele><time>2026-04-26T09:09:19.538Z</time></trkpt><trkpt lat="43.7784117" lon="12.64841"><ele>189.0</ele><time>2026-04-26T09:09:20.536Z</time></trkpt><trkpt lat="43.7785117" lon="12.6483467"><ele>188.0</ele><time>2026-04-26T09:09:21.534Z</time></trkpt><trkpt lat="43.778605" lon="12.6482717"><ele>187.0</ele><time>2026-04-26T09:09:22.533Z</time></trkpt><trkpt lat="43.778695" lon="12.6481883"><ele>186.0</ele><time>2026-04-26T09:09:23.533Z</time></trkpt><trkpt lat="43.77879" lon="12.6481083"><ele>185.0</ele><time>2026-04-26T09:09:24.536Z</time></trkpt><trkpt lat="43.778885" lon="12.6480267"><ele>184.0</ele><time>2026-04-26T09:09:25.537Z</time></trkpt><trkpt lat="43.7789817" lon="12.6479467"><ele>184.0</ele><time>2026-04-26T09:09:26.536Z</time></trkpt><trkpt lat="43.7790767" lon="12.64787"><ele>184.0</ele><time>2026-04-26T09:09:27.536Z</time></trkpt><trkpt lat="43.7791683" lon="12.6478"><ele>184.0</ele><time>2026-04-26T09:09:28.538Z</time></trkpt><trkpt lat="43.77926" lon="12.6477483"><ele>184.0</ele><time>2026-04-26T09:09:29.535Z</time></trkpt><trkpt lat="43.77935" lon="12.6477"><ele>184.0</ele><time>2026-04-26T09:09:30.533Z</time></trkpt><trkpt lat="43.7794383" lon="12.6476633"><ele>180.0</ele><time>2026-04-26T09:09:31.534Z</time></trkpt><trkpt lat="43.7795283" lon="12.6476417"><ele>176.0</ele><time>2026-04-26T09:09:32.534Z</time></trkpt><trkpt lat="43.7796217" lon="12.647645"><ele>172.0</ele><time>2026-04-26T09:09:33.535Z</time></trkpt><trkpt lat="43.7797167" lon="12.6476683"><ele>168.0</ele><time>2026-04-26T09:09:34.535Z</time></trkpt><trkpt lat="43.7798117" lon="12.64772"><ele>164.0</ele><time>2026-04-26T09:09:35.534Z</time></trkpt><trkpt lat="43.7799133" lon="12.6477917"><ele>164.66666666666666</ele><time>2026-04-26T09:09:36.535Z</time></trkpt><trkpt lat="43.7800083" lon="12.6478633"><ele>165.33333333333331</ele><time>2026-04-26T09:09:37.536Z</time></trkpt><trkpt lat="43.7800933" lon="12.6479233"><ele>166.0</ele><time>2026-04-26T09:09:38.533Z</time></trkpt><trkpt lat="43.78016" lon="12.6479717"><ele>166.66666666666666</ele><time>2026-04-26T09:09:39.533Z</time></trkpt><trkpt lat="43.7802283" lon="12.6479917"><ele>167.33333333333334</ele><time>2026-04-26T09:09:40.534Z</time></trkpt><trkpt lat="43.7802967" lon="12.647985"><ele>168.0</ele><time>2026-04-26T09:09:41.534Z</time></trkpt><trkpt lat="43.7803683" lon="12.6479383"><ele>164.75</ele><time>2026-04-26T09:09:42.533Z</time></trkpt><trkpt lat="43.780455" lon="12.6478567"><ele>161.5</ele><time>2026-04-26T09:09:43.536Z</time></trkpt><trkpt lat="43.7805567" lon="12.6477283"><ele>158.25</ele><time>2026-04-26T09:09:44.536Z</time></trkpt><trkpt lat="43.7806583" lon="12.6475883"><ele>155.0</ele><time>2026-04-26T09:09:45.535Z</time></trkpt><trkpt lat="43.780765" lon="12.6474433"><ele>154.5</ele><time>2026-04-26T09:09:46.536Z</time></trkpt><trkpt lat="43.7808717" lon="12.6472933"><ele>154.0</ele><time>2026-04-26T09:09:47.536Z</time></trkpt><trkpt lat="43.7809767" lon="12.6471483"><ele>153.5</ele><time>2026-04-26T09:09:48.537Z</time></trkpt><trkpt lat="43.7810717" lon="12.6470117"><ele>153.0</ele><time>2026-04-26T09:09:49.535Z</time></trkpt><trkpt lat="43.7811533" lon="12.6468867"><ele>149.0</ele><time>2026-04-26T09:09:50.533Z</time></trkpt><trkpt lat="43.7812367" lon="12.6467883"><ele>145.0</ele><time>2026-04-26T09:09:51.533Z</time></trkpt><trkpt lat="43.78133" lon="12.64674"><ele>141.0</ele><time>2026-04-26T09:09:52.533Z</time></trkpt><trkpt lat="43.7814217" lon="12.6467317"><ele>137.0</ele><time>2026-04-26T09:09:53.539Z</time></trkpt><trkpt lat="43.7815067" lon="12.646765"><ele>133.0</ele><time>2026-04-26T09:09:54.536Z</time></trkpt><trkpt lat="43.7815767" lon="12.64685"><ele>134.66666666666669</ele><time>2026-04-26T09:09:55.536Z</time></trkpt><trkpt lat="43.7816417" lon="12.6469883"><ele>136.33333333333334</ele><time>2026-04-26T09:09:56.533Z</time></trkpt><trkpt lat="43.78171" lon="12.6471917"><ele>138.0</ele><time>2026-04-26T09:09:57.535Z</time></trkpt><trkpt lat="43.78178" lon="12.647445"><ele>138.0</ele><time>2026-04-26T09:09:58.535Z</time></trkpt><trkpt lat="43.7818383" lon="12.6476617"><ele>138.0</ele><time>2026-04-26T09:09:59.533Z</time></trkpt><trkpt lat="43.7818817" lon="12.6478683"><ele>138.0</ele><time>2026-04-26T09:10:00.536Z</time></trkpt><trkpt lat="43.781925" lon="12.6480883"><ele>130.66666666666666</ele><time>2026-04-26T09:10:01.534Z</time></trkpt><trkpt lat="43.7819667" lon="12.648315"><ele>123.33333333333333</ele><time>2026-04-26T09:10:02.533Z</time></trkpt><trkpt lat="43.7819983" lon="12.6485367"><ele>116.0</ele><time>2026-04-26T09:10:03.534Z</time></trkpt><trkpt lat="43.78202" lon="12.6487483"><ele>115.75</ele><time>2026-04-26T09:10:04.533Z</time></trkpt><trkpt lat="43.78204" lon="12.6489483"><ele>115.5</ele><time>2026-04-26T09:10:05.536Z</time></trkpt><trkpt lat="43.7820583" lon="12.6491217"><ele>115.25</ele><time>2026-04-26T09:10:06.536Z</time></trkpt><trkpt lat="43.7820717" lon="12.64927"><ele>115.0</ele><time>2026-04-26T09:10:07.536Z</time></trkpt><trkpt lat="43.7820817" lon="12.64939"><ele>115.0</ele><time>2026-04-26T09:10:08.533Z</time></trkpt><trkpt lat="43.7820967" lon="12.6494817"><ele>115.0</ele><time>2026-04-26T09:10:09.535Z</time></trkpt><trkpt lat="43.7821317" lon="12.64961"><ele>115.0</ele><time>2026-04-26T09:10:11.533Z</time></trkpt><trkpt lat="43.7822017" lon="12.6495933"><ele>115.0</ele><time>2026-04-26T09:10:13.535Z</time></trkpt><trkpt lat="43.7822633" lon="12.6494633"><ele>115.0</ele><time>2026-04-26T09:10:15.535Z</time></trkpt><trkpt lat="43.7823317" lon="12.6491917"><ele>115.0</ele><time>2026-04-26T09:10:16.537Z</time></trkpt><trkpt lat="43.7824183" lon="12.6489617"><ele>115.0</ele><time>2026-04-26T09:10:17.533Z</time></trkpt><trkpt lat="43.7824833" lon="12.64875"><ele>115.0</ele><time>2026-04-26T09:10:18.536Z</time></trkpt><trkpt lat="43.7825617" lon="12.648525"><ele>115.33333333333334</ele><time>2026-04-26T09:10:19.538Z</time></trkpt><trkpt lat="43.7826467" lon="12.6482933"><ele>115.66666666666666</ele><time>2026-04-26T09:10:20.533Z</time></trkpt><trkpt lat="43.78273" lon="12.6480567"><ele>116.0</ele><time>2026-04-26T09:10:21.537Z</time></trkpt><trkpt lat="43.7828083" lon="12.6478117"><ele>111.0</ele><time>2026-04-26T09:10:22.536Z</time></trkpt><trkpt lat="43.78289" lon="12.647565"><ele>106.0</ele><time>2026-04-26T09:10:23.538Z</time></trkpt><trkpt lat="43.7829717" lon="12.6473283"><ele>101.0</ele><time>2026-04-26T09:10:24.536Z</time></trkpt><trkpt lat="43.7830517" lon="12.6471"><ele>101.66666666666666</ele><time>2026-04-26T09:10:25.54Z</time></trkpt><trkpt lat="43.78313" lon="12.6468783"><ele>102.33333333333334</ele><time>2026-04-26T09:10:26.536Z</time></trkpt><trkpt lat="43.7831983" lon="12.6466767"><ele>103.0</ele><time>2026-04-26T09:10:27.534Z</time></trkpt><trkpt lat="43.7832617" lon="12.646505"><ele>103.0</ele><time>2026-04-26T09:10:28.533Z</time></trkpt><trkpt lat="43.78335" lon="12.646365"><ele>103.0</ele><time>2026-04-26T09:10:29.533Z</time></trkpt><trkpt lat="43.783465" lon="12.646245"><ele>103.0</ele><time>2026-04-26T09:10:30.533Z</time></trkpt><trkpt lat="43.7836033" lon="12.6461183"><ele>103.0</ele><time>2026-04-26T09:10:31.534Z</time></trkpt><trkpt lat="43.7837467" lon="12.6459767"><ele>100.66666666666667</ele><time>2026-04-26T09:10:32.537Z</time></trkpt><trkpt lat="43.7838867" lon="12.6458267"><ele>98.33333333333334</ele><time>2026-04-26T09:10:33.538Z</time></trkpt><trkpt lat="43.78401" lon="12.645685"><ele>96.0</ele><time>2026-04-26T09:10:34.536Z</time></trkpt><trkpt lat="43.784115" lon="12.6455583"><ele>96.0</ele><time>2026-04-26T09:10:35.534Z</time></trkpt><trkpt lat="43.7841933" lon="12.6454433"><ele>96.0</ele><time>2026-04-26T09:10:36.533Z</time></trkpt><trkpt lat="43.7842433" lon="12.645315"><ele>96.0</ele><time>2026-04-26T09:10:37.534Z</time></trkpt><trkpt lat="43.784285" lon="12.64516"><ele>96.0</ele><time>2026-04-26T09:10:38.537Z</time></trkpt><trkpt lat="43.7843167" lon="12.6449883"><ele>96.0</ele><time>2026-04-26T09:10:39.537Z</time></trkpt><trkpt lat="43.7843517" lon="12.644785"><ele>96.0</ele><time>2026-04-26T09:10:40.536Z</time></trkpt><trkpt lat="43.7843883" lon="12.6445767"><ele>96.0</ele><time>2026-04-26T09:10:41.536Z</time></trkpt><trkpt lat="43.7844333" lon="12.6443733"><ele>96.0</ele><time>2026-04-26T09:10:42.534Z</time></trkpt><trkpt lat="43.7844833" lon="12.6441667"><ele>96.0</ele><time>2026-04-26T09:10:43.539Z</time></trkpt><trkpt lat="43.78453" lon="12.6439667"><ele>96.0</ele><time>2026-04-26T09:10:44.534Z</time></trkpt><trkpt lat="43.7845767" lon="12.6437717"><ele>97.19999999999999</ele><time>2026-04-26T09:10:45.534Z</time></trkpt><trkpt lat="43.7846017" lon="12.6435917"><ele>98.39999999999999</ele><time>2026-04-26T09:10:46.534Z</time></trkpt><trkpt lat="43.78462" lon="12.64343"><ele>99.6</ele><time>2026-04-26T09:10:47.533Z</time></trkpt><trkpt lat="43.78462" lon="12.64329"><ele>100.8</ele><time>2026-04-26T09:10:48.533Z</time></trkpt><trkpt lat="43.78459" lon="12.6431683"><ele>102.0</ele><time>2026-04-26T09:10:49.536Z</time></trkpt><trkpt lat="43.7845333" lon="12.6430633"><ele>102.0</ele><time>2026-04-26T09:10:50.534Z</time></trkpt><trkpt lat="43.78445" lon="12.6429767"><ele>102.0</ele><time>2026-04-26T09:10:51.535Z</time></trkpt><trkpt lat="43.7843483" lon="12.6428967"><ele>102.0</ele><time>2026-04-26T09:10:52.533Z</time></trkpt><trkpt lat="43.7842383" lon="12.64281"><ele>102.0</ele><time>2026-04-26T09:10:53.539Z</time></trkpt><trkpt lat="43.784135" lon="12.64271"><ele>101.6</ele><time>2026-04-26T09:10:54.536Z</time></trkpt><trkpt lat="43.7840483" lon="12.642605"><ele>101.19999999999999</ele><time>2026-04-26T09:10:55.537Z</time></trkpt><trkpt lat="43.7839883" lon="12.642495"><ele>100.8</ele><time>2026-04-26T09:10:56.536Z</time></trkpt><trkpt lat="43.7839567" lon="12.6423833"><ele>100.4</ele><time>2026-04-26T09:10:57.536Z</time></trkpt><trkpt lat="43.7839483" lon="12.64227"><ele>100.0</ele><time>2026-04-26T09:10:58.537Z</time></trkpt><trkpt lat="43.7839667" lon="12.6421667"><ele>100.0</ele><time>2026-04-26T09:10:59.533Z</time></trkpt><trkpt lat="43.7839933" lon="12.6420617"><ele>100.0</ele><time>2026-04-26T09:11:00.533Z</time></trkpt><trkpt lat="43.7840583" lon="12.641955"><ele>100.0</ele><time>2026-04-26T09:11:01.536Z</time></trkpt><trkpt lat="43.7841483" lon="12.6418283"><ele>100.0</ele><time>2026-04-26T09:11:02.533Z</time></trkpt><trkpt lat="43.784265" lon="12.6416717"><ele>103.33333333333334</ele><time>2026-04-26T09:11:03.537Z</time></trkpt><trkpt lat="43.7843717" lon="12.641515"><ele>106.66666666666666</ele><time>2026-04-26T09:11:04.533Z</time></trkpt><trkpt lat="43.7844917" lon="12.6413517"><ele>110.0</ele><time>2026-04-26T09:11:05.538Z</time></trkpt><trkpt lat="43.7845983" lon="12.641185"><ele>109.75</ele><time>2026-04-26T09:11:06.536Z</time></trkpt><trkpt lat="43.784695" lon="12.64103"><ele>109.5</ele><time>2026-04-26T09:11:07.538Z</time></trkpt><trkpt lat="43.78478" lon="12.6408917"><ele>109.25</ele><time>2026-04-26T09:11:08.537Z</time></trkpt><trkpt lat="43.784855" lon="12.6407733"><ele>109.0</ele><time>2026-04-26T09:11:09.535Z</time></trkpt><trkpt lat="43.7849283" lon="12.6406717"><ele>109.0</ele><time>2026-04-26T09:11:10.537Z</time></trkpt><trkpt lat="43.7850067" lon="12.6406067"><ele>109.0</ele><time>2026-04-26T09:11:11.536Z</time></trkpt><trkpt lat="43.7850883" lon="12.6405833"><ele>109.0</ele><time>2026-04-26T09:11:12.534Z</time></trkpt><trkpt lat="43.7851667" lon="12.6406083"><ele>109.0</ele><time>2026-04-26T09:11:13.536Z</time></trkpt><trkpt lat="43.7852483" lon="12.6406817"><ele>109.0</ele><time>2026-04-26T09:11:14.537Z</time></trkpt><trkpt lat="43.785335" lon="12.640795"><ele>109.25</ele><time>2026-04-26T09:11:15.538Z</time></trkpt><trkpt lat="43.78544" lon="12.6409317"><ele>109.5</ele><time>2026-04-26T09:11:16.534Z</time></trkpt><trkpt lat="43.785545" lon="12.6410767"><ele>109.75</ele><time>2026-04-26T09:11:17.533Z</time></trkpt><trkpt lat="43.7856517" lon="12.6412117"><ele>110.0</ele><time>2026-04-26T09:11:18.534Z</time></trkpt><trkpt lat="43.7857567" lon="12.6413483"><ele>110.0</ele><time>2026-04-26T09:11:19.535Z</time></trkpt><trkpt lat="43.7858583" lon="12.641475"><ele>110.0</ele><time>2026-04-26T09:11:20.534Z</time></trkpt><trkpt lat="43.7859567" lon="12.6415983"><ele>110.0</ele><time>2026-04-26T09:11:21.534Z</time></trkpt><trkpt lat="43.7860533" lon="12.6417233"><ele>110.0</ele><time>2026-04-26T09:11:22.534Z</time></trkpt><trkpt lat="43.786155" lon="12.6418483"><ele>109.75</ele><time>2026-04-26T09:11:23.538Z</time></trkpt><trkpt lat="43.7862583" lon="12.641975"><ele>109.5</ele><time>2026-04-26T09:11:24.536Z</time></trkpt><trkpt lat="43.78636" lon="12.6420983"><ele>109.25</ele><time>2026-04-26T09:11:25.538Z</time></trkpt><trkpt lat="43.7864567" lon="12.6422183"><ele>109.0</ele><time>2026-04-26T09:11:26.537Z</time></trkpt><trkpt lat="43.78654" lon="12.6423283"><ele>109.00000000000001</ele><time>2026-04-26T09:11:27.536Z</time></trkpt><trkpt lat="43.7866117" lon="12.6424183"><ele>109.0</ele><time>2026-04-26T09:11:28.536Z</time></trkpt><trkpt lat="43.78667" lon="12.6424867"><ele>109.0</ele><time>2026-04-26T09:11:29.533Z</time></trkpt><trkpt lat="43.7867433" lon="12.6425783"><ele>109.0</ele><time>2026-04-26T09:11:31.535Z</time></trkpt><trkpt lat="43.78679" lon="12.6425"><ele>109.00000000000001</ele><time>2026-04-26T09:12:06.532Z</time></trkpt><trkpt lat="43.78684" lon="12.64238"><ele>109.0</ele><time>2026-04-26T09:15:50.533Z</time></trkpt><trkpt lat="43.7868883" lon="12.6423183"><ele>108.80000000000001</ele><time>2026-04-26T09:15:51.534Z</time></trkpt><trkpt lat="43.7869467" lon="12.642235"><ele>108.60000000000001</ele><time>2026-04-26T09:15:52.534Z</time></trkpt><trkpt lat="43.787015" lon="12.6421367"><ele>108.4</ele><time>2026-04-26T09:15:53.535Z</time></trkpt><trkpt lat="43.7870867" lon="12.6420283"><ele>108.2</ele><time>2026-04-26T09:15:54.534Z</time></trkpt><trkpt lat="43.7871617" lon="12.6419167"><ele>108.0</ele><time>2026-04-26T09:15:55.534Z</time></trkpt><trkpt lat="43.7872333" lon="12.6417983"><ele>108.0</ele><time>2026-04-26T09:15:56.535Z</time></trkpt><trkpt lat="43.78731" lon="12.6416733"><ele>108.00000000000001</ele><time>2026-04-26T09:15:57.534Z</time></trkpt><trkpt lat="43.7873817" lon="12.6415633"><ele>108.00000000000001</ele><time>2026-04-26T09:15:58.538Z</time></trkpt><trkpt lat="43.7874383" lon="12.64147"><ele>108.0</ele><time>2026-04-26T09:15:59.537Z</time></trkpt><trkpt lat="43.7874883" lon="12.6413967"><ele>108.0</ele><time>2026-04-26T09:16:00.536Z</time></trkpt><trkpt lat="43.7875367" lon="12.64133"><ele>108.0</ele><time>2026-04-26T09:16:01.534Z</time></trkpt><trkpt lat="43.7876217" lon="12.6411933"><ele>108.0</ele><time>2026-04-26T09:16:03.536Z</time></trkpt><trkpt lat="43.7876633" lon="12.6411183"><ele>108.0</ele><time>2026-04-26T09:16:04.536Z</time></trkpt><trkpt lat="43.7877083" lon="12.6410483"><ele>108.0</ele><time>2026-04-26T09:16:05.536Z</time></trkpt><trkpt lat="43.787765" lon="12.6409983"><ele>108.0</ele><time>2026-04-26T09:16:06.537Z</time></trkpt><trkpt lat="43.787835" lon="12.6409633"><ele>108.0</ele><time>2026-04-26T09:16:07.539Z</time></trkpt><trkpt lat="43.78794" lon="12.6409433"><ele>108.0</ele><time>2026-04-26T09:16:08.537Z</time></trkpt><trkpt lat="43.7880667" lon="12.6409333"><ele>108.0</ele><time>2026-04-26T09:16:09.536Z</time></trkpt><trkpt lat="43.7882117" lon="12.64093"><ele>108.0</ele><time>2026-04-26T09:16:10.537Z</time></trkpt><trkpt lat="43.7883733" lon="12.6409217"><ele>108.0</ele><time>2026-04-26T09:16:11.537Z</time></trkpt><trkpt lat="43.7885383" lon="12.6409133"><ele>109.33333333333334</ele><time>2026-04-26T09:16:12.537Z</time></trkpt><trkpt lat="43.7887" lon="12.6409033"><ele>110.66666666666667</ele><time>2026-04-26T09:16:13.538Z</time></trkpt><trkpt lat="43.7888583" lon="12.64089"><ele>112.0</ele><time>2026-04-26T09:16:14.537Z</time></trkpt><trkpt lat="43.7890067" lon="12.6408717"><ele>112.0</ele><time>2026-04-26T09:16:15.534Z</time></trkpt><trkpt lat="43.789155" lon="12.64085"><ele>112.0</ele><time>2026-04-26T09:16:16.537Z</time></trkpt><trkpt lat="43.7892917" lon="12.6408217"><ele>112.0</ele><time>2026-04-26T09:16:17.533Z</time></trkpt><trkpt lat="43.7894217" lon="12.64078"><ele>112.0</ele><time>2026-04-26T09:16:18.534Z</time></trkpt><trkpt lat="43.7895433" lon="12.6407283"><ele>112.6</ele><time>2026-04-26T09:16:19.534Z</time></trkpt><trkpt lat="43.7896567" lon="12.6406833"><ele>113.19999999999999</ele><time>2026-04-26T09:16:20.533Z</time></trkpt><trkpt lat="43.789755" lon="12.6406367"><ele>113.8</ele><time>2026-04-26T09:16:21.535Z</time></trkpt><trkpt lat="43.789845" lon="12.6405883"><ele>114.4</ele><time>2026-04-26T09:16:22.535Z</time></trkpt><trkpt lat="43.7899217" lon="12.640545"><ele>115.0</ele><time>2026-04-26T09:16:23.535Z</time></trkpt><trkpt lat="43.7899833" lon="12.6405083"><ele>115.00000000000001</ele><time>2026-04-26T09:16:24.534Z</time></trkpt><trkpt lat="43.7900717" lon="12.640465"><ele>115.0</ele><time>2026-04-26T09:16:26.535Z</time></trkpt><trkpt lat="43.7901433" lon="12.6404633"><ele>115.0</ele><time>2026-04-26T09:16:28.537Z</time></trkpt><trkpt lat="43.790205" lon="12.64049"><ele>115.0</ele><time>2026-04-26T09:16:30.536Z</time></trkpt><trkpt lat="43.7902767" lon="12.640555"><ele>115.00000000000001</ele><time>2026-04-26T09:16:32.537Z</time></trkpt><trkpt lat="43.7903467" lon="12.6406433"><ele>115.0</ele><time>2026-04-26T09:16:34.535Z</time></trkpt><trkpt lat="43.790415" lon="12.6406617"><ele>114.8</ele><time>2026-04-26T09:16:36.538Z</time></trkpt><trkpt lat="43.7904867" lon="12.6405733"><ele>114.6</ele><time>2026-04-26T09:16:38.533Z</time></trkpt><trkpt lat="43.7905217" lon="12.6404667"><ele>114.4</ele><time>2026-04-26T09:16:39.536Z</time></trkpt><trkpt lat="43.790565" lon="12.6403283"><ele>114.2</ele><time>2026-04-26T09:16:40.537Z</time></trkpt><trkpt lat="43.7906167" lon="12.6401917"><ele>114.0</ele><time>2026-04-26T09:16:41.536Z</time></trkpt><trkpt lat="43.7906733" lon="12.6400617"><ele>114.0</ele><time>2026-04-26T09:16:42.537Z</time></trkpt><trkpt lat="43.790735" lon="12.6399333"><ele>114.0</ele><time>2026-04-26T09:16:43.534Z</time></trkpt><trkpt lat="43.7908017" lon="12.6397983"><ele>114.0</ele><time>2026-04-26T09:16:44.538Z</time></trkpt><trkpt lat="43.79087" lon="12.6396633"><ele>114.0</ele><time>2026-04-26T09:16:45.536Z</time></trkpt><trkpt lat="43.7909317" lon="12.6395367"><ele>115.80000000000001</ele><time>2026-04-26T09:16:46.535Z</time></trkpt><trkpt lat="43.7909933" lon="12.63941"><ele>117.60000000000001</ele><time>2026-04-26T09:16:47.533Z</time></trkpt><trkpt lat="43.7910517" lon="12.6392917"><ele>119.4</ele><time>2026-04-26T09:16:48.534Z</time></trkpt><trkpt lat="43.79111" lon="12.63917"><ele>121.2</ele><time>2026-04-26T09:16:49.534Z</time></trkpt><trkpt lat="43.7911667" lon="12.63904"><ele>123.0</ele><time>2026-04-26T09:16:50.533Z</time></trkpt><trkpt lat="43.7912233" lon="12.6388983"><ele>123.0</ele><time>2026-04-26T09:16:51.534Z</time></trkpt><trkpt lat="43.7912733" lon="12.6387467"><ele>123.0</ele><time>2026-04-26T09:16:52.533Z</time></trkpt><trkpt lat="43.7913133" lon="12.638595"><ele>123.0</ele><time>2026-04-26T09:16:53.533Z</time></trkpt><trkpt lat="43.7913483" lon="12.6384367"><ele>123.0</ele><time>2026-04-26T09:16:54.533Z</time></trkpt><trkpt lat="43.791375" lon="12.638265"><ele>121.25</ele><time>2026-04-26T09:16:55.534Z</time></trkpt><trkpt lat="43.791395" lon="12.63808"><ele>119.5</ele><time>2026-04-26T09:16:56.533Z</time></trkpt><trkpt lat="43.791405" lon="12.637885"><ele>117.75</ele><time>2026-04-26T09:16:57.534Z</time></trkpt><trkpt lat="43.7914067" lon="12.6376817"><ele>116.0</ele><time>2026-04-26T09:16:58.538Z</time></trkpt><trkpt lat="43.7913983" lon="12.6374767"><ele>114.0</ele><time>2026-04-26T09:16:59.536Z</time></trkpt><trkpt lat="43.7913833" lon="12.63728"><ele>112.0</ele><time>2026-04-26T09:17:00.536Z</time></trkpt><trkpt lat="43.7913667" lon="12.637095"><ele>110.0</ele><time>2026-04-26T09:17:01.537Z</time></trkpt><trkpt lat="43.7913467" lon="12.6369217"><ele>108.0</ele><time>2026-04-26T09:17:02.532Z</time></trkpt><trkpt lat="43.79133" lon="12.63676"><ele>107.2</ele><time>2026-04-26T09:17:03.537Z</time></trkpt><trkpt lat="43.7913183" lon="12.6366083"><ele>106.4</ele><time>2026-04-26T09:17:04.537Z</time></trkpt><trkpt lat="43.7913067" lon="12.6364633"><ele>105.60000000000001</ele><time>2026-04-26T09:17:05.536Z</time></trkpt><trkpt lat="43.791295" lon="12.636325"><ele>104.80000000000001</ele><time>2026-04-26T09:17:06.536Z</time></trkpt><trkpt lat="43.7912833" lon="12.6362"><ele>104.0</ele><time>2026-04-26T09:17:07.536Z</time></trkpt><trkpt lat="43.7912733" lon="12.6360817"><ele>103.66666666666666</ele><time>2026-04-26T09:17:08.532Z</time></trkpt><trkpt lat="43.7912683" lon="12.6359717"><ele>103.33333333333333</ele><time>2026-04-26T09:17:09.536Z</time></trkpt><trkpt lat="43.7912683" lon="12.635875"><ele>103.0</ele><time>2026-04-26T09:17:10.537Z</time></trkpt><trkpt lat="43.7912767" lon="12.6357883"><ele>102.66666666666666</ele><time>2026-04-26T09:17:11.538Z</time></trkpt><trkpt lat="43.7913217" lon="12.6356683"><ele>102.33333333333333</ele><time>2026-04-26T09:17:13.536Z</time></trkpt><trkpt lat="43.791385" lon="12.635625"><ele>102.0</ele><time>2026-04-26T09:17:16.534Z</time></trkpt><trkpt lat="43.7913433" lon="12.63549"><ele>102.0</ele><time>2026-04-26T09:20:05.537Z</time></trkpt><trkpt lat="43.791325" lon="12.6354"><ele>102.0</ele><time>2026-04-26T09:20:06.537Z</time></trkpt><trkpt lat="43.7912983" lon="12.63528"><ele>102.0</ele><time>2026-04-26T09:20:07.534Z</time></trkpt><trkpt lat="43.7912517" lon="12.6351167"><ele>102.0</ele><time>2026-04-26T09:20:08.536Z</time></trkpt><trkpt lat="43.79121" lon="12.6349483"><ele>102.0</ele><time>2026-04-26T09:20:09.536Z</time></trkpt><trkpt lat="43.7911567" lon="12.6347233"><ele>102.0</ele><time>2026-04-26T09:20:10.538Z</time></trkpt><trkpt lat="43.7911183" lon="12.634485"><ele>102.0</ele><time>2026-04-26T09:20:11.537Z</time></trkpt><trkpt lat="43.7910867" lon="12.6342083"><ele>102.0</ele><time>2026-04-26T09:20:12.536Z</time></trkpt><trkpt lat="43.7910583" lon="12.6339167"><ele>101.5</ele><time>2026-04-26T09:20:13.536Z</time></trkpt><trkpt lat="43.79103" lon="12.6336133"><ele>101.0</ele><time>2026-04-26T09:20:14.536Z</time></trkpt><trkpt lat="43.790995" lon="12.6332867"><ele>100.0</ele><time>2026-04-26T09:20:15.536Z</time></trkpt><trkpt lat="43.79096" lon="12.6329467"><ele>99.0</ele><time>2026-04-26T09:20:16.536Z</time></trkpt><trkpt lat="43.79093" lon="12.6325933"><ele>98.0</ele><time>2026-04-26T09:20:17.536Z</time></trkpt><trkpt lat="43.7909117" lon="12.6322333"><ele>97.0</ele><time>2026-04-26T09:20:18.536Z</time></trkpt><trkpt lat="43.7909083" lon="12.63187"><ele>97.0</ele><time>2026-04-26T09:20:19.536Z</time></trkpt><trkpt lat="43.7909283" lon="12.6315083"><ele>97.0</ele><time>2026-04-26T09:20:20.537Z</time></trkpt><trkpt lat="43.7909683" lon="12.6311533"><ele>99.5</ele><time>2026-04-26T09:20:21.536Z</time></trkpt><trkpt lat="43.791025" lon="12.6308"><ele>102.0</ele><time>2026-04-26T09:20:22.534Z</time></trkpt><trkpt lat="43.7911017" lon="12.63045"><ele>104.0</ele><time>2026-04-26T09:20:23.536Z</time></trkpt><trkpt lat="43.7912017" lon="12.630105"><ele>106.0</ele><time>2026-04-26T09:20:24.538Z</time></trkpt><trkpt lat="43.7913233" lon="12.629775"><ele>104.0</ele><time>2026-04-26T09:20:25.536Z</time></trkpt><trkpt lat="43.7914617" lon="12.6294533"><ele>102.0</ele><time>2026-04-26T09:20:26.534Z</time></trkpt><trkpt lat="43.79161" lon="12.6291317"><ele>102.0</ele><time>2026-04-26T09:20:27.534Z</time></trkpt><trkpt lat="43.791765" lon="12.628815"><ele>102.0</ele><time>2026-04-26T09:20:28.533Z</time></trkpt><trkpt lat="43.7919217" lon="12.6285"><ele>101.0</ele><time>2026-04-26T09:20:29.537Z</time></trkpt><trkpt lat="43.7920783" lon="12.62818"><ele>100.0</ele><time>2026-04-26T09:20:30.534Z</time></trkpt><trkpt lat="43.79223" lon="12.6278583"><ele>100.0</ele><time>2026-04-26T09:20:31.536Z</time></trkpt><trkpt lat="43.7923833" lon="12.6275417"><ele>100.0</ele><time>2026-04-26T09:20:32.536Z</time></trkpt><trkpt lat="43.792535" lon="12.62723"><ele>101.5</ele><time>2026-04-26T09:20:33.537Z</time></trkpt><trkpt lat="43.7926867" lon="12.62692"><ele>103.0</ele><time>2026-04-26T09:20:34.537Z</time></trkpt><trkpt lat="43.792835" lon="12.6266083"><ele>103.0</ele><time>2026-04-26T09:20:35.536Z</time></trkpt><trkpt lat="43.792985" lon="12.626295"><ele>103.0</ele><time>2026-04-26T09:20:36.534Z</time></trkpt><trkpt lat="43.7931333" lon="12.62598"><ele>102.5</ele><time>2026-04-26T09:20:37.537Z</time></trkpt><trkpt lat="43.7932833" lon="12.625665"><ele>102.0</ele><time>2026-04-26T09:20:38.533Z</time></trkpt><trkpt lat="43.79343" lon="12.62535"><ele>102.0</ele><time>2026-04-26T09:20:39.534Z</time></trkpt><trkpt lat="43.793565" lon="12.6250483"><ele>102.0</ele><time>2026-04-26T09:20:40.534Z</time></trkpt><trkpt lat="43.793685" lon="12.62477"><ele>102.0</ele><time>2026-04-26T09:20:41.533Z</time></trkpt><trkpt lat="43.79379" lon="12.6245217"><ele>102.0</ele><time>2026-04-26T09:20:42.535Z</time></trkpt><trkpt lat="43.7938767" lon="12.624305"><ele>102.0</ele><time>2026-04-26T09:20:43.536Z</time></trkpt><trkpt lat="43.7939533" lon="12.624115"><ele>102.0</ele><time>2026-04-26T09:20:44.537Z</time></trkpt><trkpt lat="43.794025" lon="12.6239533"><ele>102.0</ele><time>2026-04-26T09:20:45.536Z</time></trkpt><trkpt lat="43.794095" lon="12.6238133"><ele>102.0</ele><time>2026-04-26T09:20:46.536Z</time></trkpt><trkpt lat="43.7941533" lon="12.6236733"><ele>102.0</ele><time>2026-04-26T09:20:47.539Z</time></trkpt><trkpt lat="43.794185" lon="12.6235033"><ele>102.33333333333334</ele><time>2026-04-26T09:20:48.534Z</time></trkpt><trkpt lat="43.7942083" lon="12.6232983"><ele>102.66666666666667</ele><time>2026-04-26T09:20:49.537Z</time></trkpt><trkpt lat="43.7942467" lon="12.6230617"><ele>103.0</ele><time>2026-04-26T09:20:50.537Z</time></trkpt><trkpt lat="43.7943017" lon="12.622805"><ele>103.0</ele><time>2026-04-26T09:20:51.536Z</time></trkpt><trkpt lat="43.7943683" lon="12.6225317"><ele>103.0</ele><time>2026-04-26T09:20:52.538Z</time></trkpt><trkpt lat="43.7944467" lon="12.6222367"><ele>103.0</ele><time>2026-04-26T09:20:53.537Z</time></trkpt><trkpt lat="43.79453" lon="12.6219317"><ele>103.0</ele><time>2026-04-26T09:20:54.533Z</time></trkpt><trkpt lat="43.7946133" lon="12.62163"><ele>103.0</ele><time>2026-04-26T09:20:55.537Z</time></trkpt><trkpt lat="43.7946917" lon="12.62133"><ele>103.0</ele><time>2026-04-26T09:20:56.536Z</time></trkpt><trkpt lat="43.794775" lon="12.621025"><ele>103.0</ele><time>2026-04-26T09:20:57.534Z</time></trkpt><trkpt lat="43.7948683" lon="12.620725"><ele>103.0</ele><time>2026-04-26T09:20:58.533Z</time></trkpt><trkpt lat="43.7949683" lon="12.62045"><ele>103.0</ele><time>2026-04-26T09:20:59.533Z</time></trkpt><trkpt lat="43.7950733" lon="12.6202017"><ele>103.0</ele><time>2026-04-26T09:21:00.534Z</time></trkpt><trkpt lat="43.7951833" lon="12.6199767"><ele>104.0</ele><time>2026-04-26T09:21:01.535Z</time></trkpt><trkpt lat="43.7953017" lon="12.6197717"><ele>105.0</ele><time>2026-04-26T09:21:02.535Z</time></trkpt><trkpt lat="43.79543" lon="12.61959"><ele>106.0</ele><time>2026-04-26T09:21:03.538Z</time></trkpt><trkpt lat="43.795565" lon="12.6194517"><ele>106.33333333333334</ele><time>2026-04-26T09:21:04.537Z</time></trkpt><trkpt lat="43.7957183" lon="12.6193567"><ele>106.66666666666666</ele><time>2026-04-26T09:21:05.535Z</time></trkpt><trkpt lat="43.7958683" lon="12.6192967"><ele>107.0</ele><time>2026-04-26T09:21:06.537Z</time></trkpt><trkpt lat="43.796005" lon="12.6192567"><ele>107.16666666666666</ele><time>2026-04-26T09:21:07.537Z</time></trkpt><trkpt lat="43.79612" lon="12.619205"><ele>107.33333333333333</ele><time>2026-04-26T09:21:08.537Z</time></trkpt><trkpt lat="43.796195" lon="12.6191367"><ele>107.5</ele><time>2026-04-26T09:21:09.537Z</time></trkpt><trkpt lat="43.7962483" lon="12.6190467"><ele>107.66666666666666</ele><time>2026-04-26T09:21:10.537Z</time></trkpt><trkpt lat="43.7962717" lon="12.61894"><ele>107.83333333333333</ele><time>2026-04-26T09:21:11.537Z</time></trkpt><trkpt lat="43.7962833" lon="12.61884"><ele>108.0</ele><time>2026-04-26T09:21:12.537Z</time></trkpt><trkpt lat="43.7962017" lon="12.6187067"><ele>108.0</ele><time>2026-04-26T09:21:14.536Z</time></trkpt><trkpt lat="43.796095" lon="12.6186767"><ele>108.0</ele><time>2026-04-26T09:21:15.537Z</time></trkpt><trkpt lat="43.7959567" lon="12.6186767"><ele>108.0</ele><time>2026-04-26T09:21:16.537Z</time></trkpt><trkpt lat="43.79581" lon="12.6186733"><ele>108.0</ele><time>2026-04-26T09:21:17.536Z</time></trkpt><trkpt lat="43.7956283" lon="12.6186917"><ele>107.66666666666666</ele><time>2026-04-26T09:21:18.536Z</time></trkpt><trkpt lat="43.7954283" lon="12.61871"><ele>107.33333333333333</ele><time>2026-04-26T09:21:19.539Z</time></trkpt><trkpt lat="43.7952267" lon="12.61872"><ele>107.0</ele><time>2026-04-26T09:21:20.537Z</time></trkpt><trkpt lat="43.7950217" lon="12.6187333"><ele>106.66666666666666</ele><time>2026-04-26T09:21:21.537Z</time></trkpt><trkpt lat="43.7948117" lon="12.6187517"><ele>106.33333333333334</ele><time>2026-04-26T09:21:22.537Z</time></trkpt><trkpt lat="43.794605" lon="12.61877"><ele>106.0</ele><time>2026-04-26T09:21:23.536Z</time></trkpt><trkpt lat="43.7944067" lon="12.6187817"><ele>105.66666666666667</ele><time>2026-04-26T09:21:24.537Z</time></trkpt><trkpt lat="43.7942133" lon="12.6187933"><ele>105.33333333333334</ele><time>2026-04-26T09:21:25.538Z</time></trkpt><trkpt lat="43.7940367" lon="12.6188"><ele>105.0</ele><time>2026-04-26T09:21:26.537Z</time></trkpt><trkpt lat="43.7938767" lon="12.6188067"><ele>105.0</ele><time>2026-04-26T09:21:27.535Z</time></trkpt><trkpt lat="43.7937233" lon="12.6188017"><ele>105.0</ele><time>2026-04-26T09:21:28.535Z</time></trkpt><trkpt lat="43.7935767" lon="12.6187817"><ele>105.0</ele><time>2026-04-26T09:21:29.536Z</time></trkpt><trkpt lat="43.79343" lon="12.6187333"><ele>106.5</ele><time>2026-04-26T09:21:30.535Z</time></trkpt><trkpt lat="43.793285" lon="12.6186633"><ele>108.0</ele><time>2026-04-26T09:21:31.536Z</time></trkpt><trkpt lat="43.7931467" lon="12.6186283"><ele>109.5</ele><time>2026-04-26T09:21:32.535Z</time></trkpt><trkpt lat="43.79301" lon="12.6186567"><ele>111.0</ele><time>2026-04-26T09:21:33.536Z</time></trkpt><trkpt lat="43.792875" lon="12.61873"><ele>111.0</ele><time>2026-04-26T09:21:34.535Z</time></trkpt><trkpt lat="43.7927483" lon="12.6188233"><ele>111.0</ele><time>2026-04-26T09:21:35.536Z</time></trkpt><trkpt lat="43.7926367" lon="12.6189067"><ele>111.0</ele><time>2026-04-26T09:21:36.533Z</time></trkpt><trkpt lat="43.7925317" lon="12.6189417"><ele>111.0</ele><time>2026-04-26T09:21:37.533Z</time></trkpt><trkpt lat="43.7924467" lon="12.618915"><ele>111.6</ele><time>2026-04-26T09:21:38.536Z</time></trkpt><trkpt lat="43.792375" lon="12.618865"><ele>112.19999999999999</ele><time>2026-04-26T09:21:39.536Z</time></trkpt><trkpt lat="43.7923617" lon="12.61876"><ele>112.80000000000001</ele><time>2026-04-26T09:21:40.533Z</time></trkpt><trkpt lat="43.792455" lon="12.6186517"><ele>113.4</ele><time>2026-04-26T09:21:41.533Z</time></trkpt><trkpt lat="43.79258" lon="12.6185267"><ele>114.0</ele><time>2026-04-26T09:21:42.533Z</time></trkpt><trkpt lat="43.7926683" lon="12.6184267"><ele>114.75</ele><time>2026-04-26T09:21:43.536Z</time></trkpt><trkpt lat="43.7927567" lon="12.6183"><ele>115.5</ele><time>2026-04-26T09:21:44.537Z</time></trkpt><trkpt lat="43.7927667" lon="12.61815"><ele>116.25</ele><time>2026-04-26T09:21:45.535Z</time></trkpt><trkpt lat="43.792735" lon="12.6179767"><ele>117.0</ele><time>2026-04-26T09:21:46.532Z</time></trkpt><trkpt lat="43.7926833" lon="12.6177867"><ele>118.0</ele><time>2026-04-26T09:21:47.533Z</time></trkpt><trkpt lat="43.79264" lon="12.6176183"><ele>118.99999999999999</ele><time>2026-04-26T09:21:48.534Z</time></trkpt><trkpt lat="43.792595" lon="12.6174783"><ele>119.99999999999999</ele><time>2026-04-26T09:21:49.533Z</time></trkpt><trkpt lat="43.792575" lon="12.61739"><ele>121.0</ele><time>2026-04-26T09:21:50.532Z</time></trkpt><trkpt lat="43.7926317" lon="12.617325"><ele>122.0</ele><time>2026-04-26T09:21:53.537Z</time></trkpt><trkpt lat="43.792705" lon="12.6173417"><ele>122.0</ele><time>2026-04-26T09:21:54.535Z</time></trkpt><trkpt lat="43.7927983" lon="12.6173333"><ele>121.99999999999999</ele><time>2026-04-26T09:21:55.536Z</time></trkpt><trkpt lat="43.7929017" lon="12.6173067"><ele>121.99999999999999</ele><time>2026-04-26T09:21:56.536Z</time></trkpt><trkpt lat="43.7930133" lon="12.61726"><ele>122.0</ele><time>2026-04-26T09:21:57.532Z</time></trkpt><trkpt lat="43.7930967" lon="12.6172"><ele>122.0</ele><time>2026-04-26T09:21:58.535Z</time></trkpt><trkpt lat="43.7931667" lon="12.617125"><ele>122.0</ele><time>2026-04-26T09:21:59.534Z</time></trkpt><trkpt lat="43.7932233" lon="12.6170167"><ele>122.0</ele><time>2026-04-26T09:22:00.534Z</time></trkpt><trkpt lat="43.7932583" lon="12.616875"><ele>122.0</ele><time>2026-04-26T09:22:01.534Z</time></trkpt><trkpt lat="43.7932783" lon="12.6166767"><ele>122.0</ele><time>2026-04-26T09:22:02.532Z</time></trkpt><trkpt lat="43.7932967" lon="12.6164567"><ele>122.75</ele><time>2026-04-26T09:22:03.536Z</time></trkpt><trkpt lat="43.793315" lon="12.61624"><ele>123.5</ele><time>2026-04-26T09:22:04.534Z</time></trkpt><trkpt lat="43.7933317" lon="12.6160533"><ele>124.25</ele><time>2026-04-26T09:22:05.533Z</time></trkpt><trkpt lat="43.79334" lon="12.6158917"><ele>125.0</ele><time>2026-04-26T09:22:06.533Z</time></trkpt><trkpt lat="43.7933467" lon="12.6157583"><ele>126.0</ele><time>2026-04-26T09:22:07.533Z</time></trkpt><trkpt lat="43.793365" lon="12.6156417"><ele>127.0</ele><time>2026-04-26T09:22:08.535Z</time></trkpt><trkpt lat="43.7934017" lon="12.6155183"><ele>128.0</ele><time>2026-04-26T09:22:09.534Z</time></trkpt><trkpt lat="43.7934783" lon="12.6153717"><ele>129.0</ele><time>2026-04-26T09:22:10.534Z</time></trkpt><trkpt lat="43.7935767" lon="12.6151933"><ele>125.66666666666666</ele><time>2026-04-26T09:22:11.536Z</time></trkpt><trkpt lat="43.793665" lon="12.6149933"><ele>122.33333333333333</ele><time>2026-04-26T09:22:12.533Z</time></trkpt><trkpt lat="43.7937383" lon="12.614785"><ele>119.0</ele><time>2026-04-26T09:22:13.535Z</time></trkpt><trkpt lat="43.7937917" lon="12.6145883"><ele>120.66666666666666</ele><time>2026-04-26T09:22:14.537Z</time></trkpt><trkpt lat="43.79384" lon="12.6143933"><ele>122.33333333333334</ele><time>2026-04-26T09:22:15.532Z</time></trkpt><trkpt lat="43.7938883" lon="12.614195"><ele>124.0</ele><time>2026-04-26T09:22:16.536Z</time></trkpt><trkpt lat="43.7939483" lon="12.61398"><ele>124.0</ele><time>2026-04-26T09:22:17.532Z</time></trkpt><trkpt lat="43.794015" lon="12.613745"><ele>124.0</ele><time>2026-04-26T09:22:18.533Z</time></trkpt><trkpt lat="43.7940833" lon="12.6135"><ele>124.0</ele><time>2026-04-26T09:22:19.536Z</time></trkpt><trkpt lat="43.7941517" lon="12.613255"><ele>126.33333333333334</ele><time>2026-04-26T09:22:20.533Z</time></trkpt><trkpt lat="43.79421" lon="12.613025"><ele>128.66666666666666</ele><time>2026-04-26T09:22:21.533Z</time></trkpt><trkpt lat="43.7942617" lon="12.612815"><ele>131.0</ele><time>2026-04-26T09:22:22.535Z</time></trkpt><trkpt lat="43.794315" lon="12.6126183"><ele>130.66666666666666</ele><time>2026-04-26T09:22:23.536Z</time></trkpt><trkpt lat="43.7943783" lon="12.61243"><ele>130.33333333333334</ele><time>2026-04-26T09:22:24.536Z</time></trkpt><trkpt lat="43.7944617" lon="12.6122333"><ele>130.0</ele><time>2026-04-26T09:22:25.537Z</time></trkpt><trkpt lat="43.794565" lon="12.6120267"><ele>130.66666666666669</ele><time>2026-04-26T09:22:26.536Z</time></trkpt><trkpt lat="43.7946767" lon="12.6118217"><ele>131.33333333333334</ele><time>2026-04-26T09:22:27.532Z</time></trkpt><trkpt lat="43.794795" lon="12.6116167"><ele>132.0</ele><time>2026-04-26T09:22:28.534Z</time></trkpt><trkpt lat="43.794925" lon="12.6114183"><ele>132.0</ele><time>2026-04-26T09:22:29.537Z</time></trkpt><trkpt lat="43.7950633" lon="12.6112267"><ele>132.0</ele><time>2026-04-26T09:22:30.536Z</time></trkpt><trkpt lat="43.795205" lon="12.6110433"><ele>132.0</ele><time>2026-04-26T09:22:31.534Z</time></trkpt><trkpt lat="43.7953517" lon="12.6108717"><ele>130.0</ele><time>2026-04-26T09:22:32.536Z</time></trkpt><trkpt lat="43.7955083" lon="12.6107167"><ele>128.0</ele><time>2026-04-26T09:22:33.533Z</time></trkpt><trkpt lat="43.795655" lon="12.6105667"><ele>126.0</ele><time>2026-04-26T09:22:34.534Z</time></trkpt><trkpt lat="43.7957917" lon="12.6104217"><ele>126.5</ele><time>2026-04-26T09:22:35.533Z</time></trkpt><trkpt lat="43.7959217" lon="12.6102817"><ele>127.0</ele><time>2026-04-26T09:22:36.533Z</time></trkpt><trkpt lat="43.796035" lon="12.6101467"><ele>127.5</ele><time>2026-04-26T09:22:37.539Z</time></trkpt><trkpt lat="43.796135" lon="12.6100333"><ele>128.0</ele><time>2026-04-26T09:22:38.534Z</time></trkpt><trkpt lat="43.79623" lon="12.6099533"><ele>128.4</ele><time>2026-04-26T09:22:39.536Z</time></trkpt><trkpt lat="43.7963333" lon="12.609915"><ele>128.8</ele><time>2026-04-26T09:22:40.536Z</time></trkpt><trkpt lat="43.7964433" lon="12.6099067"><ele>129.2</ele><time>2026-04-26T09:22:41.536Z</time></trkpt><trkpt lat="43.79655" lon="12.6099133"><ele>129.6</ele><time>2026-04-26T09:22:42.537Z</time></trkpt><trkpt lat="43.7966567" lon="12.609935"><ele>130.0</ele><time>2026-04-26T09:22:43.534Z</time></trkpt><trkpt lat="43.7967567" lon="12.609945"><ele>129.0</ele><time>2026-04-26T09:22:44.533Z</time></trkpt><trkpt lat="43.7968567" lon="12.6099217"><ele>128.0</ele><time>2026-04-26T09:22:45.533Z</time></trkpt><trkpt lat="43.7969617" lon="12.60987"><ele>127.0</ele><time>2026-04-26T09:22:46.534Z</time></trkpt><trkpt lat="43.7970783" lon="12.6098233"><ele>126.0</ele><time>2026-04-26T09:22:47.533Z</time></trkpt><trkpt lat="43.797195" lon="12.6097583"><ele>126.0</ele><time>2026-04-26T09:22:48.534Z</time></trkpt><trkpt lat="43.797305" lon="12.6096733"><ele>126.0</ele><time>2026-04-26T09:22:49.533Z</time></trkpt><trkpt lat="43.797405" lon="12.609565"><ele>126.0</ele><time>2026-04-26T09:22:50.534Z</time></trkpt><trkpt lat="43.7974933" lon="12.6094367"><ele>126.0</ele><time>2026-04-26T09:22:51.533Z</time></trkpt><trkpt lat="43.7975667" lon="12.609275"><ele>129.0</ele><time>2026-04-26T09:22:52.533Z</time></trkpt><trkpt lat="43.7976333" lon="12.6090683"><ele>132.0</ele><time>2026-04-26T09:22:53.537Z</time></trkpt><trkpt lat="43.7977" lon="12.6088333"><ele>135.0</ele><time>2026-04-26T09:22:54.536Z</time></trkpt><trkpt lat="43.7977633" lon="12.6085983"><ele>140.0</ele><time>2026-04-26T09:22:55.537Z</time></trkpt><trkpt lat="43.79783" lon="12.6083883"><ele>145.0</ele><time>2026-04-26T09:22:56.536Z</time></trkpt><trkpt lat="43.7978983" lon="12.6082"><ele>150.0</ele><time>2026-04-26T09:22:57.537Z</time></trkpt><trkpt lat="43.7979783" lon="12.60803"><ele>150.0</ele><time>2026-04-26T09:22:58.536Z</time></trkpt><trkpt lat="43.7980683" lon="12.607875"><ele>150.0</ele><time>2026-04-26T09:22:59.536Z</time></trkpt><trkpt lat="43.7981717" lon="12.6077217"><ele>150.0</ele><time>2026-04-26T09:23:00.537Z</time></trkpt><trkpt lat="43.7982867" lon="12.6075767"><ele>150.66666666666666</ele><time>2026-04-26T09:23:01.537Z</time></trkpt><trkpt lat="43.7984133" lon="12.6074433"><ele>151.33333333333331</ele><time>2026-04-26T09:23:02.536Z</time></trkpt><trkpt lat="43.7985483" lon="12.6073267"><ele>152.0</ele><time>2026-04-26T09:23:03.536Z</time></trkpt><trkpt lat="43.7986917" lon="12.60721"><ele>152.75</ele><time>2026-04-26T09:23:04.536Z</time></trkpt><trkpt lat="43.79883" lon="12.6070917"><ele>153.5</ele><time>2026-04-26T09:23:05.536Z</time></trkpt><trkpt lat="43.79895" lon="12.6069717"><ele>154.25</ele><time>2026-04-26T09:23:06.536Z</time></trkpt><trkpt lat="43.7990467" lon="12.606835"><ele>155.0</ele><time>2026-04-26T09:23:07.536Z</time></trkpt><trkpt lat="43.7991267" lon="12.606665"><ele>157.0</ele><time>2026-04-26T09:23:08.536Z</time></trkpt><trkpt lat="43.7991933" lon="12.6064683"><ele>159.0</ele><time>2026-04-26T09:23:09.537Z</time></trkpt><trkpt lat="43.7992567" lon="12.6062483"><ele>161.0</ele><time>2026-04-26T09:23:10.536Z</time></trkpt><trkpt lat="43.7993283" lon="12.6060167"><ele>158.66666666666666</ele><time>2026-04-26T09:23:11.539Z</time></trkpt><trkpt lat="43.7994083" lon="12.6057767"><ele>156.33333333333334</ele><time>2026-04-26T09:23:12.536Z</time></trkpt><trkpt lat="43.7994867" lon="12.605545"><ele>154.0</ele><time>2026-04-26T09:23:13.538Z</time></trkpt><trkpt lat="43.7995567" lon="12.60535"><ele>156.66666666666669</ele><time>2026-04-26T09:23:14.537Z</time></trkpt><trkpt lat="43.799635" lon="12.60519"><ele>159.33333333333334</ele><time>2026-04-26T09:23:15.536Z</time></trkpt><trkpt lat="43.7997383" lon="12.6050333"><ele>162.0</ele><time>2026-04-26T09:23:16.535Z</time></trkpt><trkpt lat="43.79987" lon="12.6048633"><ele>162.0</ele><time>2026-04-26T09:23:17.534Z</time></trkpt><trkpt lat="43.8000217" lon="12.60468"><ele>162.0</ele><time>2026-04-26T09:23:18.534Z</time></trkpt><trkpt lat="43.800185" lon="12.60448"><ele>162.0</ele><time>2026-04-26T09:23:19.63Z</time></trkpt><trkpt lat="43.8003583" lon="12.6042583"><ele>163.0</ele><time>2026-04-26T09:23:20.534Z</time></trkpt><trkpt lat="43.800525" lon="12.6040333"><ele>164.0</ele><time>2026-04-26T09:23:21.537Z</time></trkpt><trkpt lat="43.8006733" lon="12.603815"><ele>165.0</ele><time>2026-04-26T09:23:22.536Z</time></trkpt><trkpt lat="43.800805" lon="12.6036133"><ele>165.0</ele><time>2026-04-26T09:23:23.536Z</time></trkpt><trkpt lat="43.8009167" lon="12.6034267"><ele>165.0</ele><time>2026-04-26T09:23:24.537Z</time></trkpt><trkpt lat="43.801005" lon="12.603255"><ele>165.0</ele><time>2026-04-26T09:23:25.536Z</time></trkpt><trkpt lat="43.80107" lon="12.6030867"><ele>164.25</ele><time>2026-04-26T09:23:26.537Z</time></trkpt><trkpt lat="43.801115" lon="12.602915"><ele>163.5</ele><time>2026-04-26T09:23:27.537Z</time></trkpt><trkpt lat="43.80113" lon="12.602735"><ele>162.75</ele><time>2026-04-26T09:23:28.536Z</time></trkpt><trkpt lat="43.801115" lon="12.60255"><ele>162.0</ele><time>2026-04-26T09:23:29.537Z</time></trkpt><trkpt lat="43.8010833" lon="12.6023567"><ele>166.0</ele><time>2026-04-26T09:23:30.533Z</time></trkpt><trkpt lat="43.8010417" lon="12.60217"><ele>170.0</ele><time>2026-04-26T09:23:31.539Z</time></trkpt><trkpt lat="43.8010133" lon="12.6020117"><ele>174.0</ele><time>2026-04-26T09:23:32.537Z</time></trkpt><trkpt lat="43.801015" lon="12.6018667"><ele>178.0</ele><time>2026-04-26T09:23:33.536Z</time></trkpt><trkpt lat="43.801045" lon="12.6017417"><ele>180.8</ele><time>2026-04-26T09:23:34.537Z</time></trkpt><trkpt lat="43.8011083" lon="12.6016383"><ele>183.60000000000002</ele><time>2026-04-26T09:23:35.537Z</time></trkpt><trkpt lat="43.8011933" lon="12.6015567"><ele>186.39999999999998</ele><time>2026-04-26T09:23:36.536Z</time></trkpt><trkpt lat="43.8012833" lon="12.601475"><ele>189.2</ele><time>2026-04-26T09:23:37.536Z</time></trkpt><trkpt lat="43.801365" lon="12.6013817"><ele>192.0</ele><time>2026-04-26T09:23:38.537Z</time></trkpt><trkpt lat="43.8014233" lon="12.60127"><ele>192.39999999999998</ele><time>2026-04-26T09:23:39.537Z</time></trkpt><trkpt lat="43.8014683" lon="12.6011283"><ele>192.79999999999998</ele><time>2026-04-26T09:23:40.537Z</time></trkpt><trkpt lat="43.80151" lon="12.600975"><ele>193.2</ele><time>2026-04-26T09:23:41.536Z</time></trkpt><trkpt lat="43.8015617" lon="12.6008417"><ele>193.6</ele><time>2026-04-26T09:23:42.536Z</time></trkpt><trkpt lat="43.80163" lon="12.6007367"><ele>194.0</ele><time>2026-04-26T09:23:43.537Z</time></trkpt><trkpt lat="43.8017233" lon="12.60066"><ele>198.25</ele><time>2026-04-26T09:23:44.536Z</time></trkpt><trkpt lat="43.801835" lon="12.6006017"><ele>202.5</ele><time>2026-04-26T09:23:45.536Z</time></trkpt><trkpt lat="43.8019683" lon="12.6005533"><ele>206.75</ele><time>2026-04-26T09:23:46.537Z</time></trkpt><trkpt lat="43.8021233" lon="12.6005033"><ele>211.0</ele><time>2026-04-26T09:23:47.536Z</time></trkpt><trkpt lat="43.80229" lon="12.6004483"><ele>211.0</ele><time>2026-04-26T09:23:48.537Z</time></trkpt><trkpt lat="43.802455" lon="12.6003833"><ele>211.0</ele><time>2026-04-26T09:23:49.536Z</time></trkpt><trkpt lat="43.8026117" lon="12.60031"><ele>211.0</ele><time>2026-04-26T09:23:50.536Z</time></trkpt><trkpt lat="43.8027617" lon="12.6002167"><ele>212.0</ele><time>2026-04-26T09:23:51.536Z</time></trkpt><trkpt lat="43.8029033" lon="12.6001083"><ele>213.0</ele><time>2026-04-26T09:23:52.536Z</time></trkpt><trkpt lat="43.8030333" lon="12.5999933"><ele>214.0</ele><time>2026-04-26T09:23:53.537Z</time></trkpt><trkpt lat="43.803155" lon="12.599885"><ele>214.0</ele><time>2026-04-26T09:23:54.537Z</time></trkpt><trkpt lat="43.8032767" lon="12.599785"><ele>214.0</ele><time>2026-04-26T09:23:55.537Z</time></trkpt><trkpt lat="43.803405" lon="12.5996733"><ele>214.0</ele><time>2026-04-26T09:23:56.537Z</time></trkpt><trkpt lat="43.8035367" lon="12.5995367"><ele>212.0</ele><time>2026-04-26T09:23:57.536Z</time></trkpt><trkpt lat="43.8036617" lon="12.5993583"><ele>210.0</ele><time>2026-04-26T09:23:58.536Z</time></trkpt><trkpt lat="43.8037917" lon="12.59915"><ele>208.0</ele><time>2026-04-26T09:23:59.536Z</time></trkpt><trkpt lat="43.8039183" lon="12.59893"><ele>208.0</ele><time>2026-04-26T09:24:00.537Z</time></trkpt><trkpt lat="43.8040367" lon="12.5987133"><ele>208.0</ele><time>2026-04-26T09:24:01.534Z</time></trkpt><trkpt lat="43.8041467" lon="12.59851"><ele>208.0</ele><time>2026-04-26T09:24:02.535Z</time></trkpt><trkpt lat="43.80425" lon="12.598315"><ele>202.0</ele><time>2026-04-26T09:24:03.534Z</time></trkpt><trkpt lat="43.80434" lon="12.5981133"><ele>196.0</ele><time>2026-04-26T09:24:04.534Z</time></trkpt><trkpt lat="43.8044083" lon="12.5978967"><ele>190.0</ele><time>2026-04-26T09:24:05.537Z</time></trkpt><trkpt lat="43.8044533" lon="12.5976483"><ele>190.0</ele><time>2026-04-26T09:24:06.537Z</time></trkpt><trkpt lat="43.8044783" lon="12.5973683"><ele>190.0</ele><time>2026-04-26T09:24:07.536Z</time></trkpt><trkpt lat="43.8044917" lon="12.597075"><ele>190.0</ele><time>2026-04-26T09:24:08.537Z</time></trkpt><trkpt lat="43.8044967" lon="12.596785"><ele>193.66666666666669</ele><time>2026-04-26T09:24:09.534Z</time></trkpt><trkpt lat="43.804485" lon="12.5965267"><ele>197.33333333333334</ele><time>2026-04-26T09:24:10.537Z</time></trkpt><trkpt lat="43.8044683" lon="12.5963033"><ele>201.0</ele><time>2026-04-26T09:24:11.538Z</time></trkpt><trkpt lat="43.8044567" lon="12.596115"><ele>204.20000000000002</ele><time>2026-04-26T09:24:12.536Z</time></trkpt><trkpt lat="43.80446" lon="12.595955"><ele>207.4</ele><time>2026-04-26T09:24:13.537Z</time></trkpt><trkpt lat="43.8044867" lon="12.595815"><ele>210.6</ele><time>2026-04-26T09:24:14.537Z</time></trkpt><trkpt lat="43.8045433" lon="12.595705"><ele>213.8</ele><time>2026-04-26T09:24:15.537Z</time></trkpt><trkpt lat="43.8046233" lon="12.5956267"><ele>217.0</ele><time>2026-04-26T09:24:16.536Z</time></trkpt><trkpt lat="43.8047083" lon="12.595585"><ele>216.99999999999997</ele><time>2026-04-26T09:24:17.537Z</time></trkpt><trkpt lat="43.804785" lon="12.59555"><ele>217.0</ele><time>2026-04-26T09:24:18.537Z</time></trkpt><trkpt lat="43.80485" lon="12.595505"><ele>217.0</ele><time>2026-04-26T09:24:19.536Z</time></trkpt><trkpt lat="43.8049067" lon="12.5954367"><ele>217.0</ele><time>2026-04-26T09:24:20.536Z</time></trkpt><trkpt lat="43.804955" lon="12.59533"><ele>216.99999999999997</ele><time>2026-04-26T09:24:21.537Z</time></trkpt><trkpt lat="43.805005" lon="12.5951683"><ele>217.0</ele><time>2026-04-26T09:24:22.536Z</time></trkpt><trkpt lat="43.8050417" lon="12.5949833"><ele>217.75</ele><time>2026-04-26T09:24:23.537Z</time></trkpt><trkpt lat="43.805075" lon="12.5947817"><ele>218.5</ele><time>2026-04-26T09:24:24.536Z</time></trkpt><trkpt lat="43.8051" lon="12.5945967"><ele>219.25</ele><time>2026-04-26T09:24:25.627Z</time></trkpt><trkpt lat="43.8051183" lon="12.5944167"><ele>220.0</ele><time>2026-04-26T09:24:26.534Z</time></trkpt><trkpt lat="43.80514" lon="12.594235"><ele>219.5</ele><time>2026-04-26T09:24:27.533Z</time></trkpt><trkpt lat="43.8051717" lon="12.5940617"><ele>219.0</ele><time>2026-04-26T09:24:28.536Z</time></trkpt><trkpt lat="43.8052167" lon="12.5938917"><ele>218.5</ele><time>2026-04-26T09:24:29.536Z</time></trkpt><trkpt lat="43.8052783" lon="12.5937133"><ele>218.0</ele><time>2026-04-26T09:24:30.536Z</time></trkpt><trkpt lat="43.8053483" lon="12.5935317"><ele>218.0</ele><time>2026-04-26T09:24:31.537Z</time></trkpt><trkpt lat="43.80542" lon="12.5933417"><ele>218.0</ele><time>2026-04-26T09:24:32.535Z</time></trkpt><trkpt lat="43.80549" lon="12.593135"><ele>218.0</ele><time>2026-04-26T09:24:33.538Z</time></trkpt><trkpt lat="43.8055483" lon="12.5929183"><ele>219.33333333333334</ele><time>2026-04-26T09:24:34.537Z</time></trkpt><trkpt lat="43.8055967" lon="12.59267"><ele>220.66666666666669</ele><time>2026-04-26T09:24:35.537Z</time></trkpt><trkpt lat="43.80564" lon="12.5923967"><ele>222.0</ele><time>2026-04-26T09:24:36.536Z</time></trkpt><trkpt lat="43.8056783" lon="12.5921"><ele>222.5</ele><time>2026-04-26T09:24:37.538Z</time></trkpt><trkpt lat="43.80571" lon="12.5917867"><ele>223.0</ele><time>2026-04-26T09:24:38.537Z</time></trkpt><trkpt lat="43.8057333" lon="12.5914583"><ele>222.5</ele><time>2026-04-26T09:24:39.536Z</time></trkpt><trkpt lat="43.8057517" lon="12.5911183"><ele>222.0</ele><time>2026-04-26T09:24:40.536Z</time></trkpt><trkpt lat="43.8057617" lon="12.5907867"><ele>222.0</ele><time>2026-04-26T09:24:41.536Z</time></trkpt><trkpt lat="43.805765" lon="12.59048"><ele>222.0</ele><time>2026-04-26T09:24:42.537Z</time></trkpt><trkpt lat="43.8057617" lon="12.59019"><ele>222.0</ele><time>2026-04-26T09:24:43.538Z</time></trkpt><trkpt lat="43.805765" lon="12.58992"><ele>222.33333333333331</ele><time>2026-04-26T09:24:44.537Z</time></trkpt><trkpt lat="43.8057733" lon="12.5896717"><ele>222.66666666666666</ele><time>2026-04-26T09:24:45.537Z</time></trkpt><trkpt lat="43.8057783" lon="12.5894483"><ele>223.0</ele><time>2026-04-26T09:24:46.536Z</time></trkpt><trkpt lat="43.8057717" lon="12.5892433"><ele>224.0</ele><time>2026-04-26T09:24:47.536Z</time></trkpt><trkpt lat="43.8057467" lon="12.5890517"><ele>225.0</ele><time>2026-04-26T09:24:48.537Z</time></trkpt><trkpt lat="43.8057133" lon="12.5888733"><ele>226.0</ele><time>2026-04-26T09:24:49.537Z</time></trkpt><trkpt lat="43.80568" lon="12.5887183"><ele>227.0</ele><time>2026-04-26T09:24:50.536Z</time></trkpt><trkpt lat="43.8056483" lon="12.5885833"><ele>228.25</ele><time>2026-04-26T09:24:51.536Z</time></trkpt><trkpt lat="43.8056183" lon="12.5884433"><ele>229.5</ele><time>2026-04-26T09:24:52.536Z</time></trkpt><trkpt lat="43.80559" lon="12.5882883"><ele>230.75</ele><time>2026-04-26T09:24:53.536Z</time></trkpt><trkpt lat="43.8055667" lon="12.5881083"><ele>232.0</ele><time>2026-04-26T09:24:54.537Z</time></trkpt><trkpt lat="43.8055533" lon="12.5879267"><ele>234.5</ele><time>2026-04-26T09:24:55.536Z</time></trkpt><trkpt lat="43.8055567" lon="12.5877583"><ele>237.0</ele><time>2026-04-26T09:24:56.536Z</time></trkpt><trkpt lat="43.80558" lon="12.5876017"><ele>239.5</ele><time>2026-04-26T09:24:57.534Z</time></trkpt><trkpt lat="43.8056167" lon="12.587455"><ele>242.0</ele><time>2026-04-26T09:24:58.536Z</time></trkpt><trkpt lat="43.8056533" lon="12.587315"><ele>242.0</ele><time>2026-04-26T09:24:59.536Z</time></trkpt><trkpt lat="43.8056733" lon="12.587175"><ele>242.0</ele><time>2026-04-26T09:25:00.536Z</time></trkpt><trkpt lat="43.80567" lon="12.5870317"><ele>242.0</ele><time>2026-04-26T09:25:01.535Z</time></trkpt><trkpt lat="43.8056533" lon="12.586895"><ele>242.0</ele><time>2026-04-26T09:25:02.533Z</time></trkpt><trkpt lat="43.805635" lon="12.58676"><ele>242.0</ele><time>2026-04-26T09:25:03.535Z</time></trkpt><trkpt lat="43.8056267" lon="12.5866267"><ele>242.0</ele><time>2026-04-26T09:25:04.536Z</time></trkpt><trkpt lat="43.8056317" lon="12.5864917"><ele>242.0</ele><time>2026-04-26T09:25:05.537Z</time></trkpt><trkpt lat="43.805665" lon="12.5863417"><ele>242.0</ele><time>2026-04-26T09:25:06.536Z</time></trkpt><trkpt lat="43.8057133" lon="12.5861917"><ele>242.0</ele><time>2026-04-26T09:25:07.538Z</time></trkpt><trkpt lat="43.80576" lon="12.5860433"><ele>242.0</ele><time>2026-04-26T09:25:08.537Z</time></trkpt><trkpt lat="43.805805" lon="12.5858917"><ele>242.0</ele><time>2026-04-26T09:25:09.536Z</time></trkpt><trkpt lat="43.8058483" lon="12.58574"><ele>242.0</ele><time>2026-04-26T09:25:10.536Z</time></trkpt><trkpt lat="43.805895" lon="12.5855967"><ele>242.0</ele><time>2026-04-26T09:25:11.533Z</time></trkpt><trkpt lat="43.805935" lon="12.5854667"><ele>242.0</ele><time>2026-04-26T09:25:12.535Z</time></trkpt><trkpt lat="43.8059767" lon="12.5853483"><ele>242.0</ele><time>2026-04-26T09:25:13.534Z</time></trkpt><trkpt lat="43.8060133" lon="12.5852283"><ele>238.0</ele><time>2026-04-26T09:25:14.533Z</time></trkpt><trkpt lat="43.8060483" lon="12.5850983"><ele>234.0</ele><time>2026-04-26T09:25:15.535Z</time></trkpt><trkpt lat="43.8060783" lon="12.58496"><ele>230.0</ele><time>2026-04-26T09:25:16.534Z</time></trkpt><trkpt lat="43.8061017" lon="12.5848117"><ele>226.0</ele><time>2026-04-26T09:25:17.534Z</time></trkpt><trkpt lat="43.806115" lon="12.58466"><ele>222.0</ele><time>2026-04-26T09:25:18.537Z</time></trkpt><trkpt lat="43.8061167" lon="12.5845183"><ele>221.75</ele><time>2026-04-26T09:25:19.538Z</time></trkpt><trkpt lat="43.8061083" lon="12.584375"><ele>221.5</ele><time>2026-04-26T09:25:20.536Z</time></trkpt><trkpt lat="43.80609" lon="12.58421"><ele>221.25</ele><time>2026-04-26T09:25:21.536Z</time></trkpt><trkpt lat="43.8060717" lon="12.5840383"><ele>221.0</ele><time>2026-04-26T09:25:22.536Z</time></trkpt><trkpt lat="43.8060483" lon="12.5838783"><ele>221.0</ele><time>2026-04-26T09:25:23.537Z</time></trkpt><trkpt lat="43.806025" lon="12.5837067"><ele>221.0</ele><time>2026-04-26T09:25:24.536Z</time></trkpt><trkpt lat="43.8060017" lon="12.5835283"><ele>221.0</ele><time>2026-04-26T09:25:25.537Z</time></trkpt><trkpt lat="43.80598" lon="12.58336"><ele>221.0</ele><time>2026-04-26T09:25:26.536Z</time></trkpt><trkpt lat="43.8059517" lon="12.58319"><ele>224.4</ele><time>2026-04-26T09:25:27.537Z</time></trkpt><trkpt lat="43.805925" lon="12.58303"><ele>227.8</ele><time>2026-04-26T09:25:28.537Z</time></trkpt><trkpt lat="43.8059033" lon="12.5828817"><ele>231.20000000000002</ele><time>2026-04-26T09:25:29.537Z</time></trkpt><trkpt lat="43.8058817" lon="12.582745"><ele>234.60000000000002</ele><time>2026-04-26T09:25:30.536Z</time></trkpt><trkpt lat="43.805865" lon="12.5826217"><ele>238.0</ele><time>2026-04-26T09:25:31.537Z</time></trkpt><trkpt lat="43.805855" lon="12.5825"><ele>237.99999999999997</ele><time>2026-04-26T09:25:32.536Z</time></trkpt><trkpt lat="43.8058417" lon="12.582375"><ele>238.0</ele><time>2026-04-26T09:25:33.537Z</time></trkpt><trkpt lat="43.8058167" lon="12.5822483"><ele>238.0</ele><time>2026-04-26T09:25:34.537Z</time></trkpt><trkpt lat="43.8057817" lon="12.5821183"><ele>238.0</ele><time>2026-04-26T09:25:35.537Z</time></trkpt><trkpt lat="43.8057467" lon="12.5820067"><ele>237.99999999999997</ele><time>2026-04-26T09:25:36.536Z</time></trkpt><trkpt lat="43.805715" lon="12.5819117"><ele>238.0</ele><time>2026-04-26T09:25:37.537Z</time></trkpt><trkpt lat="43.80568" lon="12.5818183"><ele>237.16666666666666</ele><time>2026-04-26T09:25:38.536Z</time></trkpt><trkpt lat="43.8056467" lon="12.58172"><ele>236.33333333333331</ele><time>2026-04-26T09:25:39.537Z</time></trkpt><trkpt lat="43.805615" lon="12.5816217"><ele>235.5</ele><time>2026-04-26T09:25:40.536Z</time></trkpt><trkpt lat="43.8055883" lon="12.5815233"><ele>234.66666666666669</ele><time>2026-04-26T09:25:41.536Z</time></trkpt><trkpt lat="43.8055583" lon="12.5814217"><ele>233.83333333333334</ele><time>2026-04-26T09:25:42.536Z</time></trkpt><trkpt lat="43.8055317" lon="12.5813183"><ele>233.0</ele><time>2026-04-26T09:25:43.537Z</time></trkpt><trkpt lat="43.8055033" lon="12.5812067"><ele>232.2</ele><time>2026-04-26T09:25:44.538Z</time></trkpt><trkpt lat="43.805475" lon="12.5810833"><ele>231.4</ele><time>2026-04-26T09:25:45.537Z</time></trkpt><trkpt lat="43.8054517" lon="12.5809483"><ele>230.59999999999997</ele><time>2026-04-26T09:25:46.536Z</time></trkpt><trkpt lat="43.8054317" lon="12.5808033"><ele>229.79999999999998</ele><time>2026-04-26T09:25:47.537Z</time></trkpt><trkpt lat="43.80542" lon="12.5806567"><ele>229.0</ele><time>2026-04-26T09:25:48.536Z</time></trkpt><trkpt lat="43.8054217" lon="12.5805133"><ele>228.99999999999997</ele><time>2026-04-26T09:25:49.538Z</time></trkpt><trkpt lat="43.8054317" lon="12.5803783"><ele>229.0</ele><time>2026-04-26T09:25:50.537Z</time></trkpt><trkpt lat="43.80545" lon="12.5802483"><ele>229.0</ele><time>2026-04-26T09:25:51.536Z</time></trkpt><trkpt lat="43.8054683" lon="12.5801267"><ele>229.0</ele><time>2026-04-26T09:25:52.536Z</time></trkpt><trkpt lat="43.8054783" lon="12.5800117"><ele>228.99999999999997</ele><time>2026-04-26T09:25:53.536Z</time></trkpt><trkpt lat="43.8054783" lon="12.5799117"><ele>229.0</ele><time>2026-04-26T09:25:54.536Z</time></trkpt><trkpt lat="43.8054667" lon="12.5798217"><ele>228.79999999999998</ele><time>2026-04-26T09:25:55.537Z</time></trkpt><trkpt lat="43.805435" lon="12.5797283"><ele>228.59999999999997</ele><time>2026-04-26T09:25:56.537Z</time></trkpt><trkpt lat="43.8053633" lon="12.5796167"><ele>228.4</ele><time>2026-04-26T09:25:57.535Z</time></trkpt><trkpt lat="43.8052867" lon="12.5794983"><ele>228.2</ele><time>2026-04-26T09:25:58.534Z</time></trkpt><trkpt lat="43.8052217" lon="12.57938"><ele>228.0</ele><time>2026-04-26T09:25:59.536Z</time></trkpt><trkpt lat="43.8051633" lon="12.5792433"><ele>228.5</ele><time>2026-04-26T09:26:00.535Z</time></trkpt><trkpt lat="43.8051167" lon="12.57908"><ele>229.0</ele><time>2026-04-26T09:26:01.535Z</time></trkpt><trkpt lat="43.805085" lon="12.578895"><ele>229.5</ele><time>2026-04-26T09:26:02.536Z</time></trkpt><trkpt lat="43.80507" lon="12.5787"><ele>230.0</ele><time>2026-04-26T09:26:03.535Z</time></trkpt><trkpt lat="43.8050617" lon="12.5785017"><ele>230.0</ele><time>2026-04-26T09:26:04.535Z</time></trkpt><trkpt lat="43.8050533" lon="12.5783"><ele>230.0</ele><time>2026-04-26T09:26:05.535Z</time></trkpt><trkpt lat="43.8050417" lon="12.5781017"><ele>230.0</ele><time>2026-04-26T09:26:06.539Z</time></trkpt><trkpt lat="43.80502" lon="12.5779083"><ele>230.0</ele><time>2026-04-26T09:26:07.536Z</time></trkpt><trkpt lat="43.8049883" lon="12.5777183"><ele>229.75</ele><time>2026-04-26T09:26:08.535Z</time></trkpt><trkpt lat="43.8049533" lon="12.5775383"><ele>229.5</ele><time>2026-04-26T09:26:09.535Z</time></trkpt><trkpt lat="43.8049133" lon="12.5773683"><ele>229.25</ele><time>2026-04-26T09:26:10.537Z</time></trkpt><trkpt lat="43.8048683" lon="12.5772033"><ele>229.0</ele><time>2026-04-26T09:26:11.536Z</time></trkpt><trkpt lat="43.8048283" lon="12.5770417"><ele>229.5</ele><time>2026-04-26T09:26:12.536Z</time></trkpt><trkpt lat="43.8047867" lon="12.5768767"><ele>230.0</ele><time>2026-04-26T09:26:13.537Z</time></trkpt><trkpt lat="43.804745" lon="12.57671"><ele>230.5</ele><time>2026-04-26T09:26:14.537Z</time></trkpt><trkpt lat="43.8047067" lon="12.576545"><ele>231.0</ele><time>2026-04-26T09:26:15.535Z</time></trkpt><trkpt lat="43.80467" lon="12.5763867"><ele>231.0</ele><time>2026-04-26T09:26:16.535Z</time></trkpt><trkpt lat="43.8046367" lon="12.5762367"><ele>231.00000000000003</ele><time>2026-04-26T09:26:17.536Z</time></trkpt><trkpt lat="43.8046033" lon="12.57609"><ele>231.00000000000003</ele><time>2026-04-26T09:26:18.535Z</time></trkpt><trkpt lat="43.8045683" lon="12.57594"><ele>231.0</ele><time>2026-04-26T09:26:19.536Z</time></trkpt><trkpt lat="43.8045317" lon="12.575795"><ele>231.0</ele><time>2026-04-26T09:26:20.535Z</time></trkpt><trkpt lat="43.804495" lon="12.5756533"><ele>232.5</ele><time>2026-04-26T09:26:21.536Z</time></trkpt><trkpt lat="43.804465" lon="12.57553"><ele>234.0</ele><time>2026-04-26T09:26:22.536Z</time></trkpt><trkpt lat="43.804445" lon="12.575415"><ele>235.5</ele><time>2026-04-26T09:26:23.535Z</time></trkpt><trkpt lat="43.8044367" lon="12.575305"><ele>237.0</ele><time>2026-04-26T09:26:24.536Z</time></trkpt><trkpt lat="43.8044367" lon="12.5751967"><ele>238.5</ele><time>2026-04-26T09:26:25.536Z</time></trkpt><trkpt lat="43.8044433" lon="12.5750833"><ele>240.0</ele><time>2026-04-26T09:26:26.535Z</time></trkpt><trkpt lat="43.8044533" lon="12.5749667"><ele>240.4</ele><time>2026-04-26T09:26:27.535Z</time></trkpt><trkpt lat="43.8044633" lon="12.5748467"><ele>240.8</ele><time>2026-04-26T09:26:28.536Z</time></trkpt><trkpt lat="43.8044667" lon="12.5747217"><ele>241.2</ele><time>2026-04-26T09:26:29.536Z</time></trkpt><trkpt lat="43.8044567" lon="12.5745933"><ele>241.6</ele><time>2026-04-26T09:26:30.536Z</time></trkpt><trkpt lat="43.804435" lon="12.5744617"><ele>242.0</ele><time>2026-04-26T09:26:31.537Z</time></trkpt><trkpt lat="43.80441" lon="12.57433"><ele>242.0</ele><time>2026-04-26T09:26:32.537Z</time></trkpt><trkpt lat="43.8043833" lon="12.5742017"><ele>242.0</ele><time>2026-04-26T09:26:33.535Z</time></trkpt><trkpt lat="43.8043583" lon="12.5740683"><ele>242.0</ele><time>2026-04-26T09:26:34.537Z</time></trkpt><trkpt lat="43.804335" lon="12.5739317"><ele>242.0</ele><time>2026-04-26T09:26:35.535Z</time></trkpt><trkpt lat="43.8043117" lon="12.5737917"><ele>242.0</ele><time>2026-04-26T09:26:36.536Z</time></trkpt><trkpt lat="43.804295" lon="12.5736517"><ele>242.2</ele><time>2026-04-26T09:26:37.538Z</time></trkpt><trkpt lat="43.8042767" lon="12.5735133"><ele>242.39999999999998</ele><time>2026-04-26T09:26:38.535Z</time></trkpt><trkpt lat="43.80426" lon="12.5733817"><ele>242.60000000000002</ele><time>2026-04-26T09:26:39.535Z</time></trkpt><trkpt lat="43.8042467" lon="12.5732517"><ele>242.8</ele><time>2026-04-26T09:26:40.533Z</time></trkpt><trkpt lat="43.8042383" lon="12.5731283"><ele>243.0</ele><time>2026-04-26T09:26:41.536Z</time></trkpt><trkpt lat="43.8042317" lon="12.5730083"><ele>243.0</ele><time>2026-04-26T09:26:42.537Z</time></trkpt><trkpt lat="43.8042283" lon="12.572895"><ele>243.0</ele><time>2026-04-26T09:26:43.536Z</time></trkpt><trkpt lat="43.8042267" lon="12.57279"><ele>243.0</ele><time>2026-04-26T09:26:44.538Z</time></trkpt><trkpt lat="43.8042233" lon="12.5726983"><ele>243.0</ele><time>2026-04-26T09:26:45.536Z</time></trkpt><trkpt lat="43.8042" lon="12.572545"><ele>243.0</ele><time>2026-04-26T09:26:47.537Z</time></trkpt><trkpt lat="43.8041483" lon="12.5723667"><ele>243.25</ele><time>2026-04-26T09:26:49.536Z</time></trkpt><trkpt lat="43.8041017" lon="12.5722483"><ele>243.5</ele><time>2026-04-26T09:26:50.536Z</time></trkpt><trkpt lat="43.80404" lon="12.572105"><ele>243.75</ele><time>2026-04-26T09:26:51.536Z</time></trkpt><trkpt lat="43.80398" lon="12.571955"><ele>244.0</ele><time>2026-04-26T09:26:52.535Z</time></trkpt><trkpt lat="43.8039217" lon="12.571805"><ele>245.0</ele><time>2026-04-26T09:26:53.537Z</time></trkpt><trkpt lat="43.8038667" lon="12.5716517"><ele>246.0</ele><time>2026-04-26T09:26:54.537Z</time></trkpt><trkpt lat="43.8038133" lon="12.5714867"><ele>247.0</ele><time>2026-04-26T09:26:55.536Z</time></trkpt><trkpt lat="43.8037733" lon="12.57132"><ele>248.0</ele><time>2026-04-26T09:26:56.535Z</time></trkpt><trkpt lat="43.8037517" lon="12.571165"><ele>248.2</ele><time>2026-04-26T09:26:57.536Z</time></trkpt><trkpt lat="43.8037533" lon="12.5710233"><ele>248.4</ele><time>2026-04-26T09:26:58.536Z</time></trkpt><trkpt lat="43.803775" lon="12.570895"><ele>248.59999999999997</ele><time>2026-04-26T09:26:59.536Z</time></trkpt><trkpt lat="43.8038067" lon="12.5707767"><ele>248.79999999999998</ele><time>2026-04-26T09:27:00.536Z</time></trkpt><trkpt lat="43.803825" lon="12.57066"><ele>249.0</ele><time>2026-04-26T09:27:01.536Z</time></trkpt><trkpt lat="43.803825" lon="12.5705433"><ele>249.0</ele><time>2026-04-26T09:27:02.536Z</time></trkpt><trkpt lat="43.8037933" lon="12.570435"><ele>248.99999999999997</ele><time>2026-04-26T09:27:03.536Z</time></trkpt><trkpt lat="43.80372" lon="12.5703417"><ele>248.99999999999997</ele><time>2026-04-26T09:27:04.535Z</time></trkpt><trkpt lat="43.8036233" lon="12.570255"><ele>249.0</ele><time>2026-04-26T09:27:05.536Z</time></trkpt><trkpt lat="43.80351" lon="12.5701567"><ele>249.0</ele><time>2026-04-26T09:27:06.535Z</time></trkpt><trkpt lat="43.8033883" lon="12.570045"><ele>253.0</ele><time>2026-04-26T09:27:07.536Z</time></trkpt><trkpt lat="43.8032733" lon="12.5699233"><ele>257.0</ele><time>2026-04-26T09:27:08.535Z</time></trkpt><trkpt lat="43.8031683" lon="12.5698017"><ele>261.0</ele><time>2026-04-26T09:27:09.537Z</time></trkpt><trkpt lat="43.8030667" lon="12.569685"><ele>265.0</ele><time>2026-04-26T09:27:10.535Z</time></trkpt><trkpt lat="43.8029667" lon="12.5695717"><ele>266.75</ele><time>2026-04-26T09:27:11.536Z</time></trkpt><trkpt lat="43.8028683" lon="12.5694617"><ele>268.5</ele><time>2026-04-26T09:27:12.533Z</time></trkpt><trkpt lat="43.8027733" lon="12.5693567"><ele>270.25</ele><time>2026-04-26T09:27:13.535Z</time></trkpt><trkpt lat="43.802685" lon="12.5692483"><ele>272.0</ele><time>2026-04-26T09:27:14.535Z</time></trkpt><trkpt lat="43.802605" lon="12.5691283"><ele>272.25</ele><time>2026-04-26T09:27:15.535Z</time></trkpt><trkpt lat="43.802535" lon="12.5689933"><ele>272.5</ele><time>2026-04-26T09:27:16.535Z</time></trkpt><trkpt lat="43.802465" lon="12.5688483"><ele>272.75</ele><time>2026-04-26T09:27:17.534Z</time></trkpt><trkpt lat="43.8024033" lon="12.5687"><ele>273.0</ele><time>2026-04-26T09:27:18.533Z</time></trkpt><trkpt lat="43.802345" lon="12.5685533"><ele>274.25</ele><time>2026-04-26T09:27:19.532Z</time></trkpt><trkpt lat="43.802285" lon="12.56841"><ele>275.5</ele><time>2026-04-26T09:27:20.533Z</time></trkpt><trkpt lat="43.8022167" lon="12.5682733"><ele>276.75</ele><time>2026-04-26T09:27:21.534Z</time></trkpt><trkpt lat="43.8021483" lon="12.568145"><ele>278.0</ele><time>2026-04-26T09:27:22.533Z</time></trkpt><trkpt lat="43.8020817" lon="12.5680133"><ele>278.0</ele><time>2026-04-26T09:27:23.535Z</time></trkpt><trkpt lat="43.802025" lon="12.5678767"><ele>278.0</ele><time>2026-04-26T09:27:24.535Z</time></trkpt><trkpt lat="43.801985" lon="12.5677267"><ele>278.0</ele><time>2026-04-26T09:27:25.533Z</time></trkpt><trkpt lat="43.80195" lon="12.56757"><ele>278.0</ele><time>2026-04-26T09:27:26.532Z</time></trkpt><trkpt lat="43.8019133" lon="12.5674167"><ele>277.25</ele><time>2026-04-26T09:27:27.532Z</time></trkpt><trkpt lat="43.8018533" lon="12.5672783"><ele>276.5</ele><time>2026-04-26T09:27:28.537Z</time></trkpt><trkpt lat="43.8017733" lon="12.5671517"><ele>275.75</ele><time>2026-04-26T09:27:29.536Z</time></trkpt><trkpt lat="43.801675" lon="12.5670383"><ele>275.0</ele><time>2026-04-26T09:27:30.534Z</time></trkpt><trkpt lat="43.8015733" lon="12.566925"><ele>277.25</ele><time>2026-04-26T09:27:31.534Z</time></trkpt><trkpt lat="43.8014783" lon="12.5667967"><ele>279.5</ele><time>2026-04-26T09:27:32.536Z</time></trkpt><trkpt lat="43.80139" lon="12.56666"><ele>281.75</ele><time>2026-04-26T09:27:33.533Z</time></trkpt><trkpt lat="43.8013083" lon="12.5665267"><ele>284.0</ele><time>2026-04-26T09:27:34.534Z</time></trkpt><trkpt lat="43.80123" lon="12.5664"><ele>284.0</ele><time>2026-04-26T09:27:35.534Z</time></trkpt><trkpt lat="43.8011433" lon="12.5662917"><ele>284.0</ele><time>2026-04-26T09:27:36.534Z</time></trkpt><trkpt lat="43.8010467" lon="12.5662067"><ele>284.0</ele><time>2026-04-26T09:27:37.537Z</time></trkpt><trkpt lat="43.8009317" lon="12.5661533"><ele>284.0</ele><time>2026-04-26T09:27:38.537Z</time></trkpt><trkpt lat="43.800795" lon="12.566135"><ele>282.0</ele><time>2026-04-26T09:27:39.537Z</time></trkpt><trkpt lat="43.80065" lon="12.5661433"><ele>280.0</ele><time>2026-04-26T09:27:40.536Z</time></trkpt><trkpt lat="43.800515" lon="12.566175"><ele>278.0</ele><time>2026-04-26T09:27:41.536Z</time></trkpt><trkpt lat="43.8003933" lon="12.5662217"><ele>276.0</ele><time>2026-04-26T09:27:42.533Z</time></trkpt><trkpt lat="43.8002883" lon="12.566275"><ele>276.0</ele><time>2026-04-26T09:27:43.536Z</time></trkpt><trkpt lat="43.8001967" lon="12.5663283"><ele>276.0</ele><time>2026-04-26T09:27:44.534Z</time></trkpt><trkpt lat="43.8001133" lon="12.5663733"><ele>276.0</ele><time>2026-04-26T09:27:45.537Z</time></trkpt><trkpt lat="43.8000333" lon="12.566395"><ele>276.0</ele><time>2026-04-26T09:27:46.536Z</time></trkpt><trkpt lat="43.79996" lon="12.5663767"><ele>276.0</ele><time>2026-04-26T09:27:47.533Z</time></trkpt><trkpt lat="43.7999417" lon="12.5662767"><ele>276.0</ele><time>2026-04-26T09:27:48.534Z</time></trkpt><trkpt lat="43.799935" lon="12.5661717"><ele>277.8333333333333</ele><time>2026-04-26T09:27:49.533Z</time></trkpt><trkpt lat="43.7999467" lon="12.5660567"><ele>279.6666666666667</ele><time>2026-04-26T09:27:50.535Z</time></trkpt><trkpt lat="43.7999683" lon="12.56594"><ele>281.5</ele><time>2026-04-26T09:27:51.532Z</time></trkpt><trkpt lat="43.79999" lon="12.5658267"><ele>283.33333333333337</ele><time>2026-04-26T09:27:52.534Z</time></trkpt><trkpt lat="43.8000033" lon="12.5657133"><ele>285.1666666666667</ele><time>2026-04-26T09:27:53.535Z</time></trkpt><trkpt lat="43.800005" lon="12.5655967"><ele>287.0</ele><time>2026-04-26T09:27:54.534Z</time></trkpt><trkpt lat="43.79999" lon="12.5654783"><ele>287.0</ele><time>2026-04-26T09:27:55.534Z</time></trkpt><trkpt lat="43.7999483" lon="12.5653683"><ele>287.0</ele><time>2026-04-26T09:27:56.534Z</time></trkpt><trkpt lat="43.7998783" lon="12.5652683"><ele>287.0</ele><time>2026-04-26T09:27:57.532Z</time></trkpt><trkpt lat="43.7997817" lon="12.56518"><ele>287.0</ele><time>2026-04-26T09:27:58.537Z</time></trkpt><trkpt lat="43.7996817" lon="12.5651083"><ele>287.0</ele><time>2026-04-26T09:27:59.536Z</time></trkpt><trkpt lat="43.799585" lon="12.5650583"><ele>287.0</ele><time>2026-04-26T09:28:00.536Z</time></trkpt><trkpt lat="43.7994933" lon="12.565025"><ele>287.0</ele><time>2026-04-26T09:28:01.537Z</time></trkpt><trkpt lat="43.7993983" lon="12.5650167"><ele>287.0</ele><time>2026-04-26T09:28:02.537Z</time></trkpt><trkpt lat="43.7992983" lon="12.565035"><ele>287.0</ele><time>2026-04-26T09:28:03.536Z</time></trkpt><trkpt lat="43.7992067" lon="12.5650783"><ele>287.0</ele><time>2026-04-26T09:28:04.537Z</time></trkpt><trkpt lat="43.799125" lon="12.56514"><ele>288.83333333333337</ele><time>2026-04-26T09:28:05.536Z</time></trkpt><trkpt lat="43.7990517" lon="12.565215"><ele>290.6666666666667</ele><time>2026-04-26T09:28:06.536Z</time></trkpt><trkpt lat="43.7989883" lon="12.565295"><ele>292.5</ele><time>2026-04-26T09:28:07.536Z</time></trkpt><trkpt lat="43.7989333" lon="12.565375"><ele>294.3333333333333</ele><time>2026-04-26T09:28:08.536Z</time></trkpt><trkpt lat="43.7988717" lon="12.5654617"><ele>296.16666666666663</ele><time>2026-04-26T09:28:09.536Z</time></trkpt><trkpt lat="43.7988017" lon="12.5655567"><ele>298.0</ele><time>2026-04-26T09:28:10.535Z</time></trkpt><trkpt lat="43.7987317" lon="12.5656483"><ele>298.0</ele><time>2026-04-26T09:28:11.533Z</time></trkpt><trkpt lat="43.7986533" lon="12.5657333"><ele>298.0</ele><time>2026-04-26T09:28:12.537Z</time></trkpt><trkpt lat="43.798565" lon="12.5658"><ele>298.0</ele><time>2026-04-26T09:28:13.537Z</time></trkpt><trkpt lat="43.7984633" lon="12.5658333"><ele>298.0</ele><time>2026-04-26T09:28:14.536Z</time></trkpt><trkpt lat="43.798355" lon="12.5658183"><ele>298.0</ele><time>2026-04-26T09:28:15.536Z</time></trkpt><trkpt lat="43.79824" lon="12.565745"><ele>300.0</ele><time>2026-04-26T09:28:16.537Z</time></trkpt><trkpt lat="43.798125" lon="12.56565"><ele>302.0</ele><time>2026-04-26T09:28:17.533Z</time></trkpt><trkpt lat="43.798025" lon="12.5655533"><ele>304.0</ele><time>2026-04-26T09:28:18.533Z</time></trkpt><trkpt lat="43.7979333" lon="12.5654533"><ele>306.0</ele><time>2026-04-26T09:28:19.535Z</time></trkpt><trkpt lat="43.7978467" lon="12.56534"><ele>307.25</ele><time>2026-04-26T09:28:20.534Z</time></trkpt><trkpt lat="43.79777" lon="12.56521"><ele>308.5</ele><time>2026-04-26T09:28:21.533Z</time></trkpt><trkpt lat="43.7977033" lon="12.5650667"><ele>309.75</ele><time>2026-04-26T09:28:22.534Z</time></trkpt><trkpt lat="43.797645" lon="12.56492"><ele>311.0</ele><time>2026-04-26T09:28:23.534Z</time></trkpt><trkpt lat="43.79759" lon="12.56477"><ele>310.25</ele><time>2026-04-26T09:28:24.535Z</time></trkpt><trkpt lat="43.7975383" lon="12.5646133"><ele>309.5</ele><time>2026-04-26T09:28:25.534Z</time></trkpt><trkpt lat="43.7974917" lon="12.564455"><ele>308.75</ele><time>2026-04-26T09:28:26.533Z</time></trkpt><trkpt lat="43.7974433" lon="12.5643"><ele>308.0</ele><time>2026-04-26T09:28:27.534Z</time></trkpt><trkpt lat="43.7974" lon="12.5641517"><ele>308.0</ele><time>2026-04-26T09:28:28.537Z</time></trkpt><trkpt lat="43.7973667" lon="12.5640067"><ele>308.0</ele><time>2026-04-26T09:28:29.536Z</time></trkpt><trkpt lat="43.79736" lon="12.5638567"><ele>308.0</ele><time>2026-04-26T09:28:30.536Z</time></trkpt><trkpt lat="43.7973783" lon="12.56371"><ele>308.0</ele><time>2026-04-26T09:28:31.536Z</time></trkpt><trkpt lat="43.7974283" lon="12.5635567"><ele>308.0</ele><time>2026-04-26T09:28:32.536Z</time></trkpt><trkpt lat="43.7975017" lon="12.5633933"><ele>308.0</ele><time>2026-04-26T09:28:33.537Z</time></trkpt><trkpt lat="43.7975817" lon="12.5632083"><ele>308.0</ele><time>2026-04-26T09:28:34.536Z</time></trkpt><trkpt lat="43.7976533" lon="12.563005"><ele>308.0</ele><time>2026-04-26T09:28:35.532Z</time></trkpt><trkpt lat="43.7977183" lon="12.5628017"><ele>306.5</ele><time>2026-04-26T09:28:36.534Z</time></trkpt><trkpt lat="43.7977783" lon="12.5626083"><ele>305.0</ele><time>2026-04-26T09:28:37.534Z</time></trkpt><trkpt lat="43.7978383" lon="12.5624267"><ele>303.5</ele><time>2026-04-26T09:28:38.534Z</time></trkpt><trkpt lat="43.797895" lon="12.5622683"><ele>302.0</ele><time>2026-04-26T09:28:39.534Z</time></trkpt><trkpt lat="43.797945" lon="12.5621283"><ele>301.25</ele><time>2026-04-26T09:28:40.533Z</time></trkpt><trkpt lat="43.7979983" lon="12.56199"><ele>300.5</ele><time>2026-04-26T09:28:41.534Z</time></trkpt><trkpt lat="43.798055" lon="12.5618367"><ele>299.75</ele><time>2026-04-26T09:28:42.533Z</time></trkpt><trkpt lat="43.798095" lon="12.56167"><ele>299.0</ele><time>2026-04-26T09:28:43.539Z</time></trkpt><trkpt lat="43.798105" lon="12.5614883"><ele>299.0</ele><time>2026-04-26T09:28:44.536Z</time></trkpt><trkpt lat="43.79808" lon="12.561285"><ele>299.0</ele><time>2026-04-26T09:28:45.536Z</time></trkpt><trkpt lat="43.79802" lon="12.5610833"><ele>299.0</ele><time>2026-04-26T09:28:46.534Z</time></trkpt><trkpt lat="43.797935" lon="12.56088"><ele>299.0</ele><time>2026-04-26T09:28:47.533Z</time></trkpt><trkpt lat="43.7978433" lon="12.56068"><ele>299.0</ele><time>2026-04-26T09:28:48.535Z</time></trkpt><trkpt lat="43.79777" lon="12.5604883"><ele>299.0</ele><time>2026-04-26T09:28:49.537Z</time></trkpt><trkpt lat="43.79773" lon="12.5602967"><ele>299.0</ele><time>2026-04-26T09:28:50.535Z</time></trkpt><trkpt lat="43.7977317" lon="12.5601033"><ele>299.0</ele><time>2026-04-26T09:28:51.535Z</time></trkpt><trkpt lat="43.7977467" lon="12.5599233"><ele>299.0</ele><time>2026-04-26T09:28:52.534Z</time></trkpt><trkpt lat="43.7977683" lon="12.5597483"><ele>299.0</ele><time>2026-04-26T09:28:53.533Z</time></trkpt><trkpt lat="43.7977783" lon="12.55959"><ele>300.75</ele><time>2026-04-26T09:28:54.534Z</time></trkpt><trkpt lat="43.7977667" lon="12.5594417"><ele>302.5</ele><time>2026-04-26T09:28:55.535Z</time></trkpt><trkpt lat="43.7977317" lon="12.5592967"><ele>304.25</ele><time>2026-04-26T09:28:56.534Z</time></trkpt><trkpt lat="43.79767" lon="12.5591583"><ele>306.0</ele><time>2026-04-26T09:28:57.534Z</time></trkpt><trkpt lat="43.7975883" lon="12.5590283"><ele>309.75</ele><time>2026-04-26T09:28:58.536Z</time></trkpt><trkpt lat="43.7974967" lon="12.5589183"><ele>313.5</ele><time>2026-04-26T09:28:59.536Z</time></trkpt><trkpt lat="43.7974267" lon="12.5588067"><ele>317.25</ele><time>2026-04-26T09:29:00.537Z</time></trkpt><trkpt lat="43.7973833" lon="12.5586633"><ele>321.0</ele><time>2026-04-26T09:29:01.537Z</time></trkpt><trkpt lat="43.7973617" lon="12.5585033"><ele>321.75</ele><time>2026-04-26T09:29:02.537Z</time></trkpt><trkpt lat="43.7973583" lon="12.5583433"><ele>322.5</ele><time>2026-04-26T09:29:03.537Z</time></trkpt><trkpt lat="43.797365" lon="12.558185"><ele>323.25</ele><time>2026-04-26T09:29:04.536Z</time></trkpt><trkpt lat="43.7973683" lon="12.558025"><ele>324.0</ele><time>2026-04-26T09:29:05.536Z</time></trkpt><trkpt lat="43.7973567" lon="12.557865"><ele>324.75</ele><time>2026-04-26T09:29:06.534Z</time></trkpt><trkpt lat="43.7973267" lon="12.5577017"><ele>325.5</ele><time>2026-04-26T09:29:07.537Z</time></trkpt><trkpt lat="43.797285" lon="12.55754"><ele>326.25</ele><time>2026-04-26T09:29:08.537Z</time></trkpt><trkpt lat="43.797235" lon="12.5573833"><ele>327.0</ele><time>2026-04-26T09:29:09.534Z</time></trkpt><trkpt lat="43.79718" lon="12.5572283"><ele>327.0</ele><time>2026-04-26T09:29:10.536Z</time></trkpt><trkpt lat="43.7971317" lon="12.5570783"><ele>327.0</ele><time>2026-04-26T09:29:11.536Z</time></trkpt><trkpt lat="43.797075" lon="12.5569367"><ele>327.0</ele><time>2026-04-26T09:29:12.536Z</time></trkpt><trkpt lat="43.7970067" lon="12.5568117"><ele>327.0</ele><time>2026-04-26T09:29:13.536Z</time></trkpt><trkpt lat="43.7969183" lon="12.5566967"><ele>330.5</ele><time>2026-04-26T09:29:14.533Z</time></trkpt><trkpt lat="43.79682" lon="12.5565867"><ele>334.0</ele><time>2026-04-26T09:29:15.537Z</time></trkpt><trkpt lat="43.7967183" lon="12.5564817"><ele>337.5</ele><time>2026-04-26T09:29:16.534Z</time></trkpt><trkpt lat="43.7966183" lon="12.556385"><ele>341.0</ele><time>2026-04-26T09:29:17.533Z</time></trkpt><trkpt lat="43.7965267" lon="12.55628"><ele>339.4</ele><time>2026-04-26T09:29:18.533Z</time></trkpt><trkpt lat="43.7964317" lon="12.556185"><ele>337.8</ele><time>2026-04-26T09:29:19.535Z</time></trkpt><trkpt lat="43.7963517" lon="12.55609"><ele>336.2</ele><time>2026-04-26T09:29:20.534Z</time></trkpt><trkpt lat="43.7962867" lon="12.5559933"><ele>334.59999999999997</ele><time>2026-04-26T09:29:21.533Z</time></trkpt><trkpt lat="43.796245" lon="12.5558867"><ele>333.0</ele><time>2026-04-26T09:29:22.534Z</time></trkpt><trkpt lat="43.7962267" lon="12.55576"><ele>333.0</ele><time>2026-04-26T09:29:23.537Z</time></trkpt><trkpt lat="43.7962383" lon="12.555585"><ele>333.0</ele><time>2026-04-26T09:29:24.536Z</time></trkpt><trkpt lat="43.7962733" lon="12.5553617"><ele>333.0</ele><time>2026-04-26T09:29:25.538Z</time></trkpt><trkpt lat="43.7963217" lon="12.5551083"><ele>331.6666666666667</ele><time>2026-04-26T09:29:26.536Z</time></trkpt><trkpt lat="43.7963867" lon="12.5548433"><ele>330.33333333333337</ele><time>2026-04-26T09:29:27.536Z</time></trkpt><trkpt lat="43.7964533" lon="12.5545783"><ele>329.0</ele><time>2026-04-26T09:29:28.536Z</time></trkpt><trkpt lat="43.7965067" lon="12.5543233"><ele>332.0</ele><time>2026-04-26T09:29:29.536Z</time></trkpt><trkpt lat="43.7965433" lon="12.5540967"><ele>335.0</ele><time>2026-04-26T09:29:30.536Z</time></trkpt><trkpt lat="43.7965617" lon="12.5539"><ele>338.0</ele><time>2026-04-26T09:29:31.536Z</time></trkpt><trkpt lat="43.79656" lon="12.5537067"><ele>339.33333333333337</ele><time>2026-04-26T09:29:32.537Z</time></trkpt><trkpt lat="43.7965517" lon="12.5535067"><ele>340.6666666666667</ele><time>2026-04-26T09:29:33.537Z</time></trkpt><trkpt lat="43.7965367" lon="12.5532983"><ele>342.0</ele><time>2026-04-26T09:29:34.535Z</time></trkpt><trkpt lat="43.7965417" lon="12.5530783"><ele>343.0</ele><time>2026-04-26T09:29:35.537Z</time></trkpt><trkpt lat="43.7965767" lon="12.5528467"><ele>344.0</ele><time>2026-04-26T09:29:36.536Z</time></trkpt><trkpt lat="43.7966367" lon="12.5525983"><ele>345.0</ele><time>2026-04-26T09:29:37.536Z</time></trkpt><trkpt lat="43.7967017" lon="12.5523417"><ele>345.0</ele><time>2026-04-26T09:29:38.534Z</time></trkpt><trkpt lat="43.7967633" lon="12.55209"><ele>345.0</ele><time>2026-04-26T09:29:39.535Z</time></trkpt><trkpt lat="43.7968133" lon="12.5518467"><ele>345.0</ele><time>2026-04-26T09:29:40.536Z</time></trkpt><trkpt lat="43.796865" lon="12.5515983"><ele>344.6666666666667</ele><time>2026-04-26T09:29:41.536Z</time></trkpt><trkpt lat="43.7969317" lon="12.5513417"><ele>344.33333333333337</ele><time>2026-04-26T09:29:42.539Z</time></trkpt><trkpt lat="43.797" lon="12.5510767"><ele>344.0</ele><time>2026-04-26T09:29:43.538Z</time></trkpt><trkpt lat="43.79705" lon="12.5508033"><ele>344.0</ele><time>2026-04-26T09:29:44.537Z</time></trkpt><trkpt lat="43.7970767" lon="12.550515"><ele>344.0</ele><time>2026-04-26T09:29:45.536Z</time></trkpt><trkpt lat="43.797085" lon="12.5502283"><ele>344.0</ele><time>2026-04-26T09:29:46.534Z</time></trkpt><trkpt lat="43.7970817" lon="12.5499567"><ele>346.0</ele><time>2026-04-26T09:29:47.533Z</time></trkpt><trkpt lat="43.7970817" lon="12.54972"><ele>348.0</ele><time>2026-04-26T09:29:48.534Z</time></trkpt><trkpt lat="43.7970933" lon="12.5495283"><ele>350.0</ele><time>2026-04-26T09:29:49.535Z</time></trkpt><trkpt lat="43.7971233" lon="12.549385"><ele>352.0</ele><time>2026-04-26T09:29:50.533Z</time></trkpt><trkpt lat="43.79718" lon="12.549285"><ele>352.0</ele><time>2026-04-26T09:29:51.533Z</time></trkpt><trkpt lat="43.79727" lon="12.5491967"><ele>352.0</ele><time>2026-04-26T09:29:52.535Z</time></trkpt><trkpt lat="43.79739" lon="12.549115"><ele>352.0</ele><time>2026-04-26T09:29:53.533Z</time></trkpt><trkpt lat="43.7975133" lon="12.5490217"><ele>352.0</ele><time>2026-04-26T09:29:54.538Z</time></trkpt><trkpt lat="43.7976267" lon="12.5489067"><ele>349.3333333333333</ele><time>2026-04-26T09:29:55.537Z</time></trkpt><trkpt lat="43.7977383" lon="12.5487683"><ele>346.6666666666667</ele><time>2026-04-26T09:29:56.537Z</time></trkpt><trkpt lat="43.797845" lon="12.5485933"><ele>344.0</ele><time>2026-04-26T09:29:57.534Z</time></trkpt><trkpt lat="43.7979483" lon="12.54837"><ele>341.6666666666667</ele><time>2026-04-26T09:29:58.534Z</time></trkpt><trkpt lat="43.79805" lon="12.5481217"><ele>339.3333333333333</ele><time>2026-04-26T09:29:59.533Z</time></trkpt><trkpt lat="43.7981433" lon="12.5478717"><ele>337.0</ele><time>2026-04-26T09:30:00.534Z</time></trkpt><trkpt lat="43.7982283" lon="12.547625"><ele>337.0</ele><time>2026-04-26T09:30:01.534Z</time></trkpt><trkpt lat="43.79829" lon="12.5473633"><ele>337.0</ele><time>2026-04-26T09:30:02.533Z</time></trkpt><trkpt lat="43.7983333" lon="12.5470867"><ele>337.0</ele><time>2026-04-26T09:30:03.534Z</time></trkpt><trkpt lat="43.798355" lon="12.5468133"><ele>337.0</ele><time>2026-04-26T09:30:04.535Z</time></trkpt><trkpt lat="43.7983517" lon="12.5465517"><ele>337.0</ele><time>2026-04-26T09:30:05.534Z</time></trkpt><trkpt lat="43.7983117" lon="12.5462917"><ele>337.0</ele><time>2026-04-26T09:30:06.535Z</time></trkpt><trkpt lat="43.79826" lon="12.54604"><ele>339.3333333333333</ele><time>2026-04-26T09:30:07.534Z</time></trkpt><trkpt lat="43.7982267" lon="12.545795"><ele>341.6666666666667</ele><time>2026-04-26T09:30:08.533Z</time></trkpt><trkpt lat="43.7982167" lon="12.54554"><ele>344.0</ele><time>2026-04-26T09:30:09.533Z</time></trkpt><trkpt lat="43.7982133" lon="12.5452883"><ele>346.33333333333337</ele><time>2026-04-26T09:30:10.536Z</time></trkpt><trkpt lat="43.7981883" lon="12.5450467"><ele>348.6666666666667</ele><time>2026-04-26T09:30:11.537Z</time></trkpt><trkpt lat="43.7981383" lon="12.5448"><ele>351.0</ele><time>2026-04-26T09:30:12.536Z</time></trkpt><trkpt lat="43.7980817" lon="12.5445483"><ele>352.3333333333333</ele><time>2026-04-26T09:30:13.535Z</time></trkpt><trkpt lat="43.7980367" lon="12.5442917"><ele>353.66666666666663</ele><time>2026-04-26T09:30:14.534Z</time></trkpt><trkpt lat="43.7980067" lon="12.5440233"><ele>355.0</ele><time>2026-04-26T09:30:15.536Z</time></trkpt><trkpt lat="43.797985" lon="12.54374"><ele>352.66666666666663</ele><time>2026-04-26T09:30:16.538Z</time></trkpt><trkpt lat="43.7979667" lon="12.543445"><ele>350.3333333333333</ele><time>2026-04-26T09:30:17.536Z</time></trkpt><trkpt lat="43.7979567" lon="12.5431467"><ele>348.0</ele><time>2026-04-26T09:30:18.537Z</time></trkpt><trkpt lat="43.79795" lon="12.5428383"><ele>348.0</ele><time>2026-04-26T09:30:19.534Z</time></trkpt><trkpt lat="43.7979333" lon="12.542525"><ele>348.0</ele><time>2026-04-26T09:30:20.536Z</time></trkpt><trkpt lat="43.7978983" lon="12.542225"><ele>348.0</ele><time>2026-04-26T09:30:21.536Z</time></trkpt><trkpt lat="43.797825" lon="12.5419533"><ele>348.6666666666667</ele><time>2026-04-26T09:30:22.537Z</time></trkpt><trkpt lat="43.7977183" lon="12.5417067"><ele>349.33333333333337</ele><time>2026-04-26T09:30:23.536Z</time></trkpt><trkpt lat="43.7976133" lon="12.5414767"><ele>350.0</ele><time>2026-04-26T09:30:24.536Z</time></trkpt><trkpt lat="43.7975317" lon="12.5412567"><ele>354.0</ele><time>2026-04-26T09:30:25.537Z</time></trkpt><trkpt lat="43.79748" lon="12.5410317"><ele>358.0</ele><time>2026-04-26T09:30:26.537Z</time></trkpt><trkpt lat="43.7974467" lon="12.5407817"><ele>362.0</ele><time>2026-04-26T09:30:27.534Z</time></trkpt><trkpt lat="43.7974067" lon="12.5405183"><ele>363.6666666666667</ele><time>2026-04-26T09:30:28.534Z</time></trkpt><trkpt lat="43.7973483" lon="12.540265"><ele>365.3333333333333</ele><time>2026-04-26T09:30:29.533Z</time></trkpt><trkpt lat="43.7972683" lon="12.54003"><ele>367.0</ele><time>2026-04-26T09:30:30.535Z</time></trkpt><trkpt lat="43.7971667" lon="12.5398133"><ele>367.0</ele><time>2026-04-26T09:30:31.534Z</time></trkpt><trkpt lat="43.7970383" lon="12.539625"><ele>367.0</ele><time>2026-04-26T09:30:32.533Z</time></trkpt><trkpt lat="43.7969017" lon="12.5394633"><ele>367.0</ele><time>2026-04-26T09:30:33.534Z</time></trkpt><trkpt lat="43.79676" lon="12.539315"><ele>369.0</ele><time>2026-04-26T09:30:34.536Z</time></trkpt><trkpt lat="43.7966267" lon="12.53916"><ele>371.0</ele><time>2026-04-26T09:30:35.536Z</time></trkpt><trkpt lat="43.79651" lon="12.5389833"><ele>373.0</ele><time>2026-04-26T09:30:36.537Z</time></trkpt><trkpt lat="43.7964" lon="12.5388133"><ele>373.0</ele><time>2026-04-26T09:30:37.538Z</time></trkpt><trkpt lat="43.7962883" lon="12.53867"><ele>373.0</ele><time>2026-04-26T09:30:38.533Z</time></trkpt><trkpt lat="43.7961517" lon="12.5385617"><ele>373.0</ele><time>2026-04-26T09:30:39.534Z</time></trkpt><trkpt lat="43.7959917" lon="12.5384717"><ele>373.0</ele><time>2026-04-26T09:30:40.536Z</time></trkpt><trkpt lat="43.795805" lon="12.5383883"><ele>373.0</ele><time>2026-04-26T09:30:41.536Z</time></trkpt><trkpt lat="43.795605" lon="12.5383067"><ele>373.0</ele><time>2026-04-26T09:30:42.536Z</time></trkpt><trkpt lat="43.79542" lon="12.538225"><ele>373.0</ele><time>2026-04-26T09:30:43.536Z</time></trkpt><trkpt lat="43.7952583" lon="12.5381533"><ele>373.0</ele><time>2026-04-26T09:30:44.536Z</time></trkpt><trkpt lat="43.7951333" lon="12.538075"><ele>373.0</ele><time>2026-04-26T09:30:45.535Z</time></trkpt><trkpt lat="43.7950383" lon="12.5379733"><ele>373.0</ele><time>2026-04-26T09:30:46.536Z</time></trkpt><trkpt lat="43.794965" lon="12.537845"><ele>372.3333333333333</ele><time>2026-04-26T09:30:47.535Z</time></trkpt><trkpt lat="43.794925" lon="12.5376583"><ele>371.6666666666667</ele><time>2026-04-26T09:30:48.535Z</time></trkpt><trkpt lat="43.79489" lon="12.5374283"><ele>371.0</ele><time>2026-04-26T09:30:49.536Z</time></trkpt><trkpt lat="43.7948583" lon="12.5371733"><ele>370.33333333333337</ele><time>2026-04-26T09:30:50.536Z</time></trkpt><trkpt lat="43.79483" lon="12.5369167"><ele>369.6666666666667</ele><time>2026-04-26T09:30:51.535Z</time></trkpt><trkpt lat="43.7948033" lon="12.5366683"><ele>369.0</ele><time>2026-04-26T09:30:52.535Z</time></trkpt><trkpt lat="43.7947733" lon="12.5364367"><ele>369.0</ele><time>2026-04-26T09:30:53.536Z</time></trkpt><trkpt lat="43.7947267" lon="12.5362217"><ele>369.0</ele><time>2026-04-26T09:30:54.536Z</time></trkpt><trkpt lat="43.794665" lon="12.53602"><ele>369.0</ele><time>2026-04-26T09:30:55.537Z</time></trkpt><trkpt lat="43.79458" lon="12.5358333"><ele>367.3333333333333</ele><time>2026-04-26T09:30:56.537Z</time></trkpt><trkpt lat="43.7944667" lon="12.5356617"><ele>365.66666666666663</ele><time>2026-04-26T09:30:57.535Z</time></trkpt><trkpt lat="43.7943267" lon="12.5354933"><ele>364.0</ele><time>2026-04-26T09:30:58.534Z</time></trkpt><trkpt lat="43.7941533" lon="12.5353317"><ele>363.0</ele><time>2026-04-26T09:30:59.534Z</time></trkpt><trkpt lat="43.7939617" lon="12.5351683"><ele>362.0</ele><time>2026-04-26T09:31:00.536Z</time></trkpt><trkpt lat="43.793765" lon="12.5350133"><ele>362.0</ele><time>2026-04-26T09:31:01.536Z</time></trkpt><trkpt lat="43.79358" lon="12.5348767"><ele>362.0</ele><time>2026-04-26T09:31:02.532Z</time></trkpt><trkpt lat="43.7934183" lon="12.5347567"><ele>362.0</ele><time>2026-04-26T09:31:03.536Z</time></trkpt><trkpt lat="43.7932867" lon="12.5346383"><ele>363.0</ele><time>2026-04-26T09:31:04.533Z</time></trkpt><trkpt lat="43.7931833" lon="12.5345183"><ele>364.0</ele><time>2026-04-26T09:31:05.537Z</time></trkpt><trkpt lat="43.7931067" lon="12.53438"><ele>365.0</ele><time>2026-04-26T09:31:06.535Z</time></trkpt><trkpt lat="43.7930317" lon="12.5342167"><ele>366.0</ele><time>2026-04-26T09:31:07.536Z</time></trkpt><trkpt lat="43.792945" lon="12.5340383"><ele>366.0</ele><time>2026-04-26T09:31:08.535Z</time></trkpt><trkpt lat="43.7928367" lon="12.53387"><ele>366.0</ele><time>2026-04-26T09:31:09.533Z</time></trkpt><trkpt lat="43.792705" lon="12.5337133"><ele>366.0</ele><time>2026-04-26T09:31:10.537Z</time></trkpt><trkpt lat="43.792565" lon="12.53358"><ele>364.0</ele><time>2026-04-26T09:31:11.536Z</time></trkpt><trkpt lat="43.7924117" lon="12.5334567"><ele>362.0</ele><time>2026-04-26T09:31:12.535Z</time></trkpt><trkpt lat="43.7922483" lon="12.5333433"><ele>360.0</ele><time>2026-04-26T09:31:13.537Z</time></trkpt><trkpt lat="43.79208" lon="12.5332583"><ele>360.0</ele><time>2026-04-26T09:31:14.537Z</time></trkpt><trkpt lat="43.7919133" lon="12.5332117"><ele>360.0</ele><time>2026-04-26T09:31:15.535Z</time></trkpt><trkpt lat="43.7917433" lon="12.5332033"><ele>360.0</ele><time>2026-04-26T09:31:16.535Z</time></trkpt><trkpt lat="43.7915833" lon="12.5331983"><ele>359.25</ele><time>2026-04-26T09:31:17.536Z</time></trkpt><trkpt lat="43.7914417" lon="12.5331733"><ele>358.5</ele><time>2026-04-26T09:31:18.535Z</time></trkpt><trkpt lat="43.7913183" lon="12.53311"><ele>357.75</ele><time>2026-04-26T09:31:19.536Z</time></trkpt><trkpt lat="43.7912183" lon="12.533005"><ele>357.0</ele><time>2026-04-26T09:31:20.536Z</time></trkpt><trkpt lat="43.7911283" lon="12.532855"><ele>357.6666666666667</ele><time>2026-04-26T09:31:21.536Z</time></trkpt><trkpt lat="43.7910267" lon="12.5326683"><ele>358.33333333333337</ele><time>2026-04-26T09:31:22.535Z</time></trkpt><trkpt lat="43.7909133" lon="12.532455"><ele>359.0</ele><time>2026-04-26T09:31:23.536Z</time></trkpt><trkpt lat="43.79079" lon="12.5322183"><ele>362.5</ele><time>2026-04-26T09:31:24.535Z</time></trkpt><trkpt lat="43.7906517" lon="12.5319683"><ele>366.0</ele><time>2026-04-26T09:31:25.536Z</time></trkpt><trkpt lat="43.7905033" lon="12.5317117"><ele>366.0</ele><time>2026-04-26T09:31:26.533Z</time></trkpt><trkpt lat="43.790355" lon="12.53145"><ele>366.0</ele><time>2026-04-26T09:31:27.534Z</time></trkpt><trkpt lat="43.790205" lon="12.5311767"><ele>360.5</ele><time>2026-04-26T09:31:28.536Z</time></trkpt><trkpt lat="43.7900567" lon="12.530885"><ele>355.0</ele><time>2026-04-26T09:31:29.535Z</time></trkpt><trkpt lat="43.7899083" lon="12.5305833"><ele>351.0</ele><time>2026-04-26T09:31:30.536Z</time></trkpt><trkpt lat="43.7897717" lon="12.5302917"><ele>347.0</ele><time>2026-04-26T09:31:31.534Z</time></trkpt><trkpt lat="43.789655" lon="12.5300317"><ele>347.0</ele><time>2026-04-26T09:31:32.533Z</time></trkpt><trkpt lat="43.78956" lon="12.529825"><ele>347.0</ele><time>2026-04-26T09:31:33.536Z</time></trkpt><trkpt lat="43.78949" lon="12.529685"><ele>347.0</ele><time>2026-04-26T09:31:34.536Z</time></trkpt><trkpt lat="43.789415" lon="12.5296"><ele>347.0</ele><time>2026-04-26T09:31:35.533Z</time></trkpt><trkpt lat="43.7893283" lon="12.5295633"><ele>349.25</ele><time>2026-04-26T09:31:36.533Z</time></trkpt><trkpt lat="43.7892383" lon="12.529555"><ele>351.5</ele><time>2026-04-26T09:31:37.534Z</time></trkpt><trkpt lat="43.78913" lon="12.52955"><ele>353.75</ele><time>2026-04-26T09:31:38.533Z</time></trkpt><trkpt lat="43.7889983" lon="12.529525"><ele>356.0</ele><time>2026-04-26T09:31:39.536Z</time></trkpt><trkpt lat="43.78885" lon="12.52949"><ele>356.0</ele><time>2026-04-26T09:31:40.537Z</time></trkpt><trkpt lat="43.7886733" lon="12.529465"><ele>356.0</ele><time>2026-04-26T09:31:41.535Z</time></trkpt><trkpt lat="43.7885" lon="12.52945"><ele>356.0</ele><time>2026-04-26T09:31:42.536Z</time></trkpt><trkpt lat="43.788345" lon="12.5294233"><ele>359.5</ele><time>2026-04-26T09:31:43.536Z</time></trkpt><trkpt lat="43.7882233" lon="12.5293517"><ele>363.0</ele><time>2026-04-26T09:31:44.533Z</time></trkpt><trkpt lat="43.7881117" lon="12.5292333"><ele>366.5</ele><time>2026-04-26T09:31:45.535Z</time></trkpt><trkpt lat="43.788" lon="12.5290833"><ele>370.0</ele><time>2026-04-26T09:31:46.536Z</time></trkpt><trkpt lat="43.7878817" lon="12.528915"><ele>370.0</ele><time>2026-04-26T09:31:47.536Z</time></trkpt><trkpt lat="43.7877633" lon="12.5287417"><ele>370.0</ele><time>2026-04-26T09:31:48.534Z</time></trkpt><trkpt lat="43.78766" lon="12.5285633"><ele>370.0</ele><time>2026-04-26T09:31:49.536Z</time></trkpt><trkpt lat="43.78758" lon="12.5283667"><ele>373.66666666666663</ele><time>2026-04-26T09:31:50.535Z</time></trkpt><trkpt lat="43.787525" lon="12.5281433"><ele>377.3333333333333</ele><time>2026-04-26T09:31:51.535Z</time></trkpt><trkpt lat="43.78749" lon="12.5279283"><ele>381.0</ele><time>2026-04-26T09:31:52.538Z</time></trkpt><trkpt lat="43.7874333" lon="12.5277333"><ele>383.33333333333337</ele><time>2026-04-26T09:31:53.535Z</time></trkpt><trkpt lat="43.7873533" lon="12.5275417"><ele>385.6666666666667</ele><time>2026-04-26T09:31:54.535Z</time></trkpt><trkpt lat="43.7872483" lon="12.5273567"><ele>388.0</ele><time>2026-04-26T09:31:55.537Z</time></trkpt><trkpt lat="43.787135" lon="12.5271667"><ele>385.0</ele><time>2026-04-26T09:31:56.536Z</time></trkpt><trkpt lat="43.7870233" lon="12.526985"><ele>382.0</ele><time>2026-04-26T09:31:57.624Z</time></trkpt><trkpt lat="43.7869133" lon="12.5268367"><ele>379.0</ele><time>2026-04-26T09:31:58.533Z</time></trkpt><trkpt lat="43.7868083" lon="12.5267217"><ele>384.75</ele><time>2026-04-26T09:31:59.533Z</time></trkpt><trkpt lat="43.786705" lon="12.5266517"><ele>390.5</ele><time>2026-04-26T09:32:00.533Z</time></trkpt><trkpt lat="43.7865867" lon="12.52663"><ele>396.25</ele><time>2026-04-26T09:32:01.534Z</time></trkpt><trkpt lat="43.7864483" lon="12.5266317"><ele>402.0</ele><time>2026-04-26T09:32:02.533Z</time></trkpt><trkpt lat="43.7863183" lon="12.52665"><ele>402.0</ele><time>2026-04-26T09:32:03.533Z</time></trkpt><trkpt lat="43.7862083" lon="12.5267"><ele>402.0</ele><time>2026-04-26T09:32:04.533Z</time></trkpt><trkpt lat="43.7861167" lon="12.526785"><ele>402.0</ele><time>2026-04-26T09:32:05.534Z</time></trkpt><trkpt lat="43.78603" lon="12.5269117"><ele>402.0</ele><time>2026-04-26T09:32:06.536Z</time></trkpt><trkpt lat="43.7859433" lon="12.5270733"><ele>406.66666666666663</ele><time>2026-04-26T09:32:07.536Z</time></trkpt><trkpt lat="43.7858517" lon="12.5272617"><ele>411.3333333333333</ele><time>2026-04-26T09:32:08.537Z</time></trkpt><trkpt lat="43.78576" lon="12.5274617"><ele>416.0</ele><time>2026-04-26T09:32:09.533Z</time></trkpt><trkpt lat="43.7856667" lon="12.5276583"><ele>416.0</ele><time>2026-04-26T09:32:10.536Z</time></trkpt><trkpt lat="43.7855733" lon="12.5278233"><ele>416.0</ele><time>2026-04-26T09:32:11.535Z</time></trkpt><trkpt lat="43.785475" lon="12.5279433"><ele>416.0</ele><time>2026-04-26T09:32:12.536Z</time></trkpt><trkpt lat="43.78537" lon="12.528005"><ele>416.0</ele><time>2026-04-26T09:32:13.536Z</time></trkpt><trkpt lat="43.785255" lon="12.528015"><ele>416.5</ele><time>2026-04-26T09:32:14.535Z</time></trkpt><trkpt lat="43.7851233" lon="12.5279883"><ele>417.0</ele><time>2026-04-26T09:32:15.536Z</time></trkpt><trkpt lat="43.7849817" lon="12.5279617"><ele>417.5</ele><time>2026-04-26T09:32:16.536Z</time></trkpt><trkpt lat="43.7848317" lon="12.527965"><ele>418.0</ele><time>2026-04-26T09:32:17.537Z</time></trkpt><trkpt lat="43.7846767" lon="12.5279933"><ele>418.0</ele><time>2026-04-26T09:32:18.537Z</time></trkpt><trkpt lat="43.7845067" lon="12.52801"><ele>418.0</ele><time>2026-04-26T09:32:19.537Z</time></trkpt><trkpt lat="43.7843317" lon="12.5279933"><ele>418.0</ele><time>2026-04-26T09:32:20.536Z</time></trkpt><trkpt lat="43.784165" lon="12.527945"><ele>419.25</ele><time>2026-04-26T09:32:21.537Z</time></trkpt><trkpt lat="43.784025" lon="12.527865"><ele>420.5</ele><time>2026-04-26T09:32:22.539Z</time></trkpt><trkpt lat="43.7839117" lon="12.5277767"><ele>421.75</ele><time>2026-04-26T09:32:23.536Z</time></trkpt><trkpt lat="43.7838067" lon="12.527705"><ele>423.0</ele><time>2026-04-26T09:32:24.532Z</time></trkpt><trkpt lat="43.7837" lon="12.527675"><ele>423.0</ele><time>2026-04-26T09:32:25.533Z</time></trkpt><trkpt lat="43.7835867" lon="12.5277017"><ele>423.0</ele><time>2026-04-26T09:32:26.532Z</time></trkpt><trkpt lat="43.78346" lon="12.5277717"><ele>423.0</ele><time>2026-04-26T09:32:27.54Z</time></trkpt><trkpt lat="43.7833117" lon="12.5278617"><ele>423.0</ele><time>2026-04-26T09:32:28.536Z</time></trkpt><trkpt lat="43.78316" lon="12.5279383"><ele>427.33333333333337</ele><time>2026-04-26T09:32:29.535Z</time></trkpt><trkpt lat="43.783" lon="12.5279733"><ele>431.6666666666667</ele><time>2026-04-26T09:32:30.533Z</time></trkpt><trkpt lat="43.7828267" lon="12.527975"><ele>436.0</ele><time>2026-04-26T09:32:31.535Z</time></trkpt><trkpt lat="43.7826483" lon="12.5279583"><ele>439.6666666666667</ele><time>2026-04-26T09:32:32.535Z</time></trkpt><trkpt lat="43.7824667" lon="12.52795"><ele>443.33333333333337</ele><time>2026-04-26T09:32:33.536Z</time></trkpt><trkpt lat="43.7822717" lon="12.5279617"><ele>447.0</ele><time>2026-04-26T09:32:34.533Z</time></trkpt><trkpt lat="43.78207" lon="12.5279933"><ele>447.0</ele><time>2026-04-26T09:32:35.532Z</time></trkpt><trkpt lat="43.781865" lon="12.5280417"><ele>447.0</ele><time>2026-04-26T09:32:36.536Z</time></trkpt><trkpt lat="43.781665" lon="12.5281033"><ele>447.0</ele><time>2026-04-26T09:32:37.536Z</time></trkpt><trkpt lat="43.78147" lon="12.5281667"><ele>447.0</ele><time>2026-04-26T09:32:38.534Z</time></trkpt><trkpt lat="43.7812867" lon="12.5282517"><ele>447.0</ele><time>2026-04-26T09:32:39.536Z</time></trkpt><trkpt lat="43.7810983" lon="12.5283567"><ele>447.0</ele><time>2026-04-26T09:32:40.535Z</time></trkpt><trkpt lat="43.780915" lon="12.5284667"><ele>447.33333333333337</ele><time>2026-04-26T09:32:41.534Z</time></trkpt><trkpt lat="43.7807417" lon="12.5285667"><ele>447.6666666666667</ele><time>2026-04-26T09:32:42.533Z</time></trkpt><trkpt lat="43.7805983" lon="12.5286517"><ele>448.0</ele><time>2026-04-26T09:32:43.534Z</time></trkpt><trkpt lat="43.7804883" lon="12.5287267"><ele>448.0</ele><time>2026-04-26T09:32:44.533Z</time></trkpt><trkpt lat="43.7804017" lon="12.5288017"><ele>447.99999999999994</ele><time>2026-04-26T09:32:45.533Z</time></trkpt><trkpt lat="43.780325" lon="12.528895"><ele>447.99999999999994</ele><time>2026-04-26T09:32:46.534Z</time></trkpt><trkpt lat="43.780265" lon="12.5289983"><ele>448.0</ele><time>2026-04-26T09:32:47.533Z</time></trkpt><trkpt lat="43.7802183" lon="12.5290917"><ele>448.0</ele><time>2026-04-26T09:32:48.536Z</time></trkpt><trkpt lat="43.7801867" lon="12.52918"><ele>445.83333333333337</ele><time>2026-04-26T09:32:49.534Z</time></trkpt><trkpt lat="43.78017" lon="12.52927"><ele>443.6666666666667</ele><time>2026-04-26T09:32:50.623Z</time></trkpt><trkpt lat="43.7801583" lon="12.5293633"><ele>441.5</ele><time>2026-04-26T09:32:51.533Z</time></trkpt><trkpt lat="43.7801417" lon="12.5294567"><ele>439.33333333333337</ele><time>2026-04-26T09:32:52.537Z</time></trkpt><trkpt lat="43.7801117" lon="12.5295417"><ele>437.1666666666667</ele><time>2026-04-26T09:32:53.532Z</time></trkpt><trkpt lat="43.7800033" lon="12.5295867"><ele>435.0</ele><time>2026-04-26T09:32:55.533Z</time></trkpt><trkpt lat="43.7799033" lon="12.5295483"><ele>435.0</ele><time>2026-04-26T09:32:56.532Z</time></trkpt><trkpt lat="43.7797833" lon="12.52949"><ele>435.0</ele><time>2026-04-26T09:32:57.537Z</time></trkpt><trkpt lat="43.77961" lon="12.5294117"><ele>435.0</ele><time>2026-04-26T09:32:58.533Z</time></trkpt><trkpt lat="43.7794367" lon="12.52932"><ele>431.0</ele><time>2026-04-26T09:32:59.533Z</time></trkpt><trkpt lat="43.7792633" lon="12.5291967"><ele>427.0</ele><time>2026-04-26T09:33:00.534Z</time></trkpt><trkpt lat="43.7791033" lon="12.529075"><ele>423.0</ele><time>2026-04-26T09:33:01.534Z</time></trkpt><trkpt lat="43.778955" lon="12.5289583"><ele>423.0</ele><time>2026-04-26T09:33:02.534Z</time></trkpt><trkpt lat="43.7788067" lon="12.528865"><ele>423.0</ele><time>2026-04-26T09:33:03.533Z</time></trkpt><trkpt lat="43.7786617" lon="12.5287767"><ele>423.0</ele><time>2026-04-26T09:33:04.533Z</time></trkpt><trkpt lat="43.7785267" lon="12.5286933"><ele>427.0</ele><time>2026-04-26T09:33:05.536Z</time></trkpt><trkpt lat="43.778405" lon="12.5286"><ele>431.0</ele><time>2026-04-26T09:33:06.536Z</time></trkpt><trkpt lat="43.7782867" lon="12.5285133"><ele>435.0</ele><time>2026-04-26T09:33:07.533Z</time></trkpt><trkpt lat="43.778175" lon="12.528435"><ele>439.0</ele><time>2026-04-26T09:33:08.533Z</time></trkpt><trkpt lat="43.7780733" lon="12.5283517"><ele>439.0</ele><time>2026-04-26T09:33:09.536Z</time></trkpt><trkpt lat="43.7779733" lon="12.5282567"><ele>439.0</ele><time>2026-04-26T09:33:10.536Z</time></trkpt><trkpt lat="43.7778917" lon="12.528145"><ele>439.0</ele><time>2026-04-26T09:33:11.536Z</time></trkpt><trkpt lat="43.7778283" lon="12.5279917"><ele>439.0</ele><time>2026-04-26T09:33:12.537Z</time></trkpt><trkpt lat="43.7777733" lon="12.527805"><ele>439.25</ele><time>2026-04-26T09:33:13.534Z</time></trkpt><trkpt lat="43.7777317" lon="12.52761"><ele>439.5</ele><time>2026-04-26T09:33:14.533Z</time></trkpt><trkpt lat="43.77768" lon="12.527435"><ele>439.75</ele><time>2026-04-26T09:33:15.534Z</time></trkpt><trkpt lat="43.777605" lon="12.52729"><ele>440.0</ele><time>2026-04-26T09:33:16.533Z</time></trkpt><trkpt lat="43.7775" lon="12.527175"><ele>439.3333333333333</ele><time>2026-04-26T09:33:17.534Z</time></trkpt><trkpt lat="43.77737" lon="12.5270717"><ele>438.66666666666663</ele><time>2026-04-26T09:33:18.534Z</time></trkpt><trkpt lat="43.7772333" lon="12.52697"><ele>438.0</ele><time>2026-04-26T09:33:19.535Z</time></trkpt><trkpt lat="43.7770917" lon="12.5268883"><ele>438.0</ele><time>2026-04-26T09:33:20.533Z</time></trkpt><trkpt lat="43.77694" lon="12.5268367"><ele>438.0</ele><time>2026-04-26T09:33:21.534Z</time></trkpt><trkpt lat="43.776785" lon="12.5268117"><ele>438.0</ele><time>2026-04-26T09:33:22.533Z</time></trkpt><trkpt lat="43.7766433" lon="12.5267967"><ele>435.0</ele><time>2026-04-26T09:33:23.533Z</time></trkpt><trkpt lat="43.776515" lon="12.52678"><ele>432.0</ele><time>2026-04-26T09:33:24.533Z</time></trkpt><trkpt lat="43.7763967" lon="12.52673"><ele>429.0</ele><time>2026-04-26T09:33:25.537Z</time></trkpt><trkpt lat="43.7762833" lon="12.526625"><ele>426.0</ele><time>2026-04-26T09:33:26.536Z</time></trkpt><trkpt lat="43.77617" lon="12.52647"><ele>426.0</ele><time>2026-04-26T09:33:27.533Z</time></trkpt><trkpt lat="43.77603" lon="12.5263083"><ele>426.0</ele><time>2026-04-26T09:33:28.537Z</time></trkpt><trkpt lat="43.7758783" lon="12.526155"><ele>426.0</ele><time>2026-04-26T09:33:29.533Z</time></trkpt><trkpt lat="43.77573" lon="12.525995"><ele>424.33333333333337</ele><time>2026-04-26T09:33:30.536Z</time></trkpt><trkpt lat="43.7755967" lon="12.525825"><ele>422.6666666666667</ele><time>2026-04-26T09:33:31.537Z</time></trkpt><trkpt lat="43.7754667" lon="12.5256583"><ele>421.0</ele><time>2026-04-26T09:33:32.536Z</time></trkpt><trkpt lat="43.775335" lon="12.525525"><ele>421.0</ele><time>2026-04-26T09:33:33.534Z</time></trkpt><trkpt lat="43.7751983" lon="12.52543"><ele>421.0</ele><time>2026-04-26T09:33:34.536Z</time></trkpt><trkpt lat="43.7750617" lon="12.5253633"><ele>421.0</ele><time>2026-04-26T09:33:35.534Z</time></trkpt><trkpt lat="43.7749317" lon="12.5252917"><ele>421.0</ele><time>2026-04-26T09:33:36.536Z</time></trkpt><trkpt lat="43.7748133" lon="12.5251967"><ele>417.33333333333337</ele><time>2026-04-26T09:33:37.536Z</time></trkpt><trkpt lat="43.7747" lon="12.525075"><ele>413.66666666666663</ele><time>2026-04-26T09:33:38.534Z</time></trkpt><trkpt lat="43.7745767" lon="12.524965"><ele>410.0</ele><time>2026-04-26T09:33:39.535Z</time></trkpt><trkpt lat="43.7744283" lon="12.524875"><ele>407.66666666666663</ele><time>2026-04-26T09:33:40.534Z</time></trkpt><trkpt lat="43.7742767" lon="12.5247983"><ele>405.33333333333337</ele><time>2026-04-26T09:33:41.533Z</time></trkpt><trkpt lat="43.77413" lon="12.5247067"><ele>403.0</ele><time>2026-04-26T09:33:42.536Z</time></trkpt><trkpt lat="43.7740017" lon="12.5245817"><ele>402.0</ele><time>2026-04-26T09:33:43.537Z</time></trkpt><trkpt lat="43.7738933" lon="12.5244217"><ele>401.0</ele><time>2026-04-26T09:33:44.533Z</time></trkpt><trkpt lat="43.773805" lon="12.524265"><ele>400.0</ele><time>2026-04-26T09:33:45.533Z</time></trkpt><trkpt lat="43.7737067" lon="12.5241333"><ele>399.0</ele><time>2026-04-26T09:33:46.534Z</time></trkpt><trkpt lat="43.7736" lon="12.524025"><ele>399.0</ele><time>2026-04-26T09:33:47.534Z</time></trkpt><trkpt lat="43.7734867" lon="12.5239183"><ele>399.0</ele><time>2026-04-26T09:33:48.534Z</time></trkpt><trkpt lat="43.7733833" lon="12.5238067"><ele>399.0</ele><time>2026-04-26T09:33:49.534Z</time></trkpt><trkpt lat="43.7732767" lon="12.5237133"><ele>399.0</ele><time>2026-04-26T09:33:50.534Z</time></trkpt><trkpt lat="43.7731567" lon="12.52365"><ele>399.0</ele><time>2026-04-26T09:33:51.534Z</time></trkpt><trkpt lat="43.7730267" lon="12.5236033"><ele>399.0</ele><time>2026-04-26T09:33:52.535Z</time></trkpt><trkpt lat="43.7728917" lon="12.5235633"><ele>399.0</ele><time>2026-04-26T09:33:53.534Z</time></trkpt><trkpt lat="43.7727683" lon="12.5235083"><ele>399.0</ele><time>2026-04-26T09:33:54.536Z</time></trkpt><trkpt lat="43.7726617" lon="12.523425"><ele>404.25</ele><time>2026-04-26T09:33:55.535Z</time></trkpt><trkpt lat="43.7725733" lon="12.5233"><ele>409.5</ele><time>2026-04-26T09:33:56.536Z</time></trkpt><trkpt lat="43.7724983" lon="12.5231367"><ele>414.75</ele><time>2026-04-26T09:33:57.534Z</time></trkpt><trkpt lat="43.7724483" lon="12.522945"><ele>420.0</ele><time>2026-04-26T09:33:58.534Z</time></trkpt><trkpt lat="43.7724283" lon="12.52274"><ele>420.0</ele><time>2026-04-26T09:33:59.534Z</time></trkpt><trkpt lat="43.7724333" lon="12.5225383"><ele>420.0</ele><time>2026-04-26T09:34:00.536Z</time></trkpt><trkpt lat="43.7724667" lon="12.5223367"><ele>420.0</ele><time>2026-04-26T09:34:01.538Z</time></trkpt><trkpt lat="43.7725317" lon="12.522125"><ele>424.0</ele><time>2026-04-26T09:34:02.533Z</time></trkpt><trkpt lat="43.772605" lon="12.52191"><ele>428.0</ele><time>2026-04-26T09:34:03.536Z</time></trkpt><trkpt lat="43.772675" lon="12.5216933"><ele>432.0</ele><time>2026-04-26T09:34:04.536Z</time></trkpt><trkpt lat="43.7727517" lon="12.521485"><ele>422.25</ele><time>2026-04-26T09:34:05.533Z</time></trkpt><trkpt lat="43.7728483" lon="12.52132"><ele>412.5</ele><time>2026-04-26T09:34:06.536Z</time></trkpt><trkpt lat="43.7729483" lon="12.5211867"><ele>402.75</ele><time>2026-04-26T09:34:07.538Z</time></trkpt><trkpt lat="43.7730133" lon="12.5210617"><ele>393.0</ele><time>2026-04-26T09:34:08.537Z</time></trkpt><trkpt lat="43.773035" lon="12.5209367"><ele>393.0</ele><time>2026-04-26T09:34:09.536Z</time></trkpt><trkpt lat="43.77302" lon="12.5208167"><ele>393.0</ele><time>2026-04-26T09:34:10.537Z</time></trkpt><trkpt lat="43.7729683" lon="12.5206783"><ele>393.0</ele><time>2026-04-26T09:34:11.536Z</time></trkpt><trkpt lat="43.7728933" lon="12.5205233"><ele>393.0</ele><time>2026-04-26T09:34:12.539Z</time></trkpt><trkpt lat="43.772835" lon="12.5203517"><ele>392.75</ele><time>2026-04-26T09:34:13.537Z</time></trkpt><trkpt lat="43.7727667" lon="12.5202033"><ele>392.5</ele><time>2026-04-26T09:34:14.537Z</time></trkpt><trkpt lat="43.77267" lon="12.5200783"><ele>392.25</ele><time>2026-04-26T09:34:15.535Z</time></trkpt><trkpt lat="43.7725533" lon="12.519985"><ele>392.0</ele><time>2026-04-26T09:34:16.534Z</time></trkpt><trkpt lat="43.7724167" lon="12.519935"><ele>397.5</ele><time>2026-04-26T09:34:17.534Z</time></trkpt><trkpt lat="43.77228" lon="12.5198983"><ele>403.0</ele><time>2026-04-26T09:34:18.534Z</time></trkpt><trkpt lat="43.772145" lon="12.5198517"><ele>408.5</ele><time>2026-04-26T09:34:19.535Z</time></trkpt><trkpt lat="43.7720233" lon="12.5197683"><ele>414.0</ele><time>2026-04-26T09:34:20.534Z</time></trkpt><trkpt lat="43.771915" lon="12.5196533"><ele>414.33333333333337</ele><time>2026-04-26T09:34:21.534Z</time></trkpt><trkpt lat="43.7718267" lon="12.5195067"><ele>414.6666666666667</ele><time>2026-04-26T09:34:22.535Z</time></trkpt><trkpt lat="43.771765" lon="12.5193167"><ele>415.0</ele><time>2026-04-26T09:34:23.533Z</time></trkpt><trkpt lat="43.77172" lon="12.51909"><ele>415.0</ele><time>2026-04-26T09:34:24.537Z</time></trkpt><trkpt lat="43.771685" lon="12.5188967"><ele>415.0</ele><time>2026-04-26T09:34:25.537Z</time></trkpt><trkpt lat="43.7716633" lon="12.5187067"><ele>415.0</ele><time>2026-04-26T09:34:26.533Z</time></trkpt><trkpt lat="43.771635" lon="12.5185417"><ele>415.0</ele><time>2026-04-26T09:34:27.534Z</time></trkpt><trkpt lat="43.7715817" lon="12.5184117"><ele>412.25</ele><time>2026-04-26T09:34:28.536Z</time></trkpt><trkpt lat="43.7714917" lon="12.5183233"><ele>409.5</ele><time>2026-04-26T09:34:29.533Z</time></trkpt><trkpt lat="43.771375" lon="12.5182433"><ele>406.75</ele><time>2026-04-26T09:34:30.534Z</time></trkpt><trkpt lat="43.7712617" lon="12.5181417"><ele>404.0</ele><time>2026-04-26T09:34:31.534Z</time></trkpt><trkpt lat="43.7711533" lon="12.5180367"><ele>404.0</ele><time>2026-04-26T09:34:32.533Z</time></trkpt><trkpt lat="43.7710517" lon="12.5179367"><ele>404.0</ele><time>2026-04-26T09:34:33.533Z</time></trkpt><trkpt lat="43.7709433" lon="12.5178783"><ele>404.0</ele><time>2026-04-26T09:34:34.533Z</time></trkpt><trkpt lat="43.7708267" lon="12.5178633"><ele>404.0</ele><time>2026-04-26T09:34:35.533Z</time></trkpt><trkpt lat="43.7707267" lon="12.517845"><ele>404.2</ele><time>2026-04-26T09:34:36.534Z</time></trkpt><trkpt lat="43.7706283" lon="12.5178117"><ele>404.4</ele><time>2026-04-26T09:34:37.535Z</time></trkpt><trkpt lat="43.7705683" lon="12.51773"><ele>404.6</ele><time>2026-04-26T09:34:38.533Z</time></trkpt><trkpt lat="43.7705317" lon="12.5175883"><ele>404.8</ele><time>2026-04-26T09:34:39.534Z</time></trkpt><trkpt lat="43.7704967" lon="12.51741"><ele>405.0</ele><time>2026-04-26T09:34:40.538Z</time></trkpt><trkpt lat="43.7704733" lon="12.5172033"><ele>401.25</ele><time>2026-04-26T09:34:41.535Z</time></trkpt><trkpt lat="43.770445" lon="12.51701"><ele>397.5</ele><time>2026-04-26T09:34:42.533Z</time></trkpt><trkpt lat="43.7704183" lon="12.51684"><ele>393.75</ele><time>2026-04-26T09:34:43.535Z</time></trkpt><trkpt lat="43.770385" lon="12.5166983"><ele>390.0</ele><time>2026-04-26T09:34:44.534Z</time></trkpt><trkpt lat="43.770335" lon="12.51657"><ele>390.0</ele><time>2026-04-26T09:34:45.534Z</time></trkpt><trkpt lat="43.7702617" lon="12.516435"><ele>390.0</ele><time>2026-04-26T09:34:46.535Z</time></trkpt><trkpt lat="43.7701717" lon="12.5162683"><ele>390.0</ele><time>2026-04-26T09:34:47.534Z</time></trkpt><trkpt lat="43.770075" lon="12.516085"><ele>390.0</ele><time>2026-04-26T09:34:48.534Z</time></trkpt><trkpt lat="43.7699717" lon="12.5158717"><ele>395.0</ele><time>2026-04-26T09:34:49.535Z</time></trkpt><trkpt lat="43.7698667" lon="12.5156333"><ele>400.0</ele><time>2026-04-26T09:34:50.534Z</time></trkpt><trkpt lat="43.7697517" lon="12.5153817"><ele>405.0</ele><time>2026-04-26T09:34:51.533Z</time></trkpt><trkpt lat="43.7696433" lon="12.5151383"><ele>405.0</ele><time>2026-04-26T09:34:52.533Z</time></trkpt><trkpt lat="43.7695533" lon="12.5149133"><ele>405.0</ele><time>2026-04-26T09:34:53.537Z</time></trkpt><trkpt lat="43.769485" lon="12.51471"><ele>405.0</ele><time>2026-04-26T09:34:54.534Z</time></trkpt><trkpt lat="43.7694383" lon="12.5145133"><ele>405.25</ele><time>2026-04-26T09:34:55.535Z</time></trkpt><trkpt lat="43.76941" lon="12.514305"><ele>405.5</ele><time>2026-04-26T09:34:56.534Z</time></trkpt><trkpt lat="43.769385" lon="12.5141167"><ele>405.75</ele><time>2026-04-26T09:34:57.533Z</time></trkpt><trkpt lat="43.7693467" lon="12.5139467"><ele>406.0</ele><time>2026-04-26T09:34:58.533Z</time></trkpt><trkpt lat="43.7692917" lon="12.51378"><ele>409.5</ele><time>2026-04-26T09:34:59.537Z</time></trkpt><trkpt lat="43.7692033" lon="12.513635"><ele>413.0</ele><time>2026-04-26T09:35:00.534Z</time></trkpt><trkpt lat="43.7691067" lon="12.5134933"><ele>416.5</ele><time>2026-04-26T09:35:01.534Z</time></trkpt><trkpt lat="43.7690333" lon="12.51335"><ele>420.0</ele><time>2026-04-26T09:35:02.533Z</time></trkpt><trkpt lat="43.768995" lon="12.513195"><ele>420.0</ele><time>2026-04-26T09:35:03.533Z</time></trkpt><trkpt lat="43.7690133" lon="12.5130267"><ele>420.0</ele><time>2026-04-26T09:35:04.534Z</time></trkpt><trkpt lat="43.769065" lon="12.512855"><ele>420.0</ele><time>2026-04-26T09:35:05.535Z</time></trkpt><trkpt lat="43.76912" lon="12.5126867"><ele>420.0</ele><time>2026-04-26T09:35:06.534Z</time></trkpt><trkpt lat="43.769165" lon="12.5125333"><ele>421.2</ele><time>2026-04-26T09:35:07.534Z</time></trkpt><trkpt lat="43.7691867" lon="12.5123933"><ele>422.4</ele><time>2026-04-26T09:35:08.535Z</time></trkpt><trkpt lat="43.7691817" lon="12.5122583"><ele>423.6</ele><time>2026-04-26T09:35:09.534Z</time></trkpt><trkpt lat="43.7691317" lon="12.5121283"><ele>424.8</ele><time>2026-04-26T09:35:10.535Z</time></trkpt><trkpt lat="43.7690383" lon="12.512015"><ele>426.0</ele><time>2026-04-26T09:35:11.538Z</time></trkpt><trkpt lat="43.7689133" lon="12.5119117"><ele>430.66666666666663</ele><time>2026-04-26T09:35:12.534Z</time></trkpt><trkpt lat="43.7687567" lon="12.5118333"><ele>435.3333333333333</ele><time>2026-04-26T09:35:13.536Z</time></trkpt><trkpt lat="43.7685883" lon="12.5117783"><ele>440.0</ele><time>2026-04-26T09:35:14.534Z</time></trkpt><trkpt lat="43.7684067" lon="12.511765"><ele>441.25</ele><time>2026-04-26T09:35:15.534Z</time></trkpt><trkpt lat="43.76825" lon="12.5117517"><ele>442.5</ele><time>2026-04-26T09:35:16.534Z</time></trkpt><trkpt lat="43.768115" lon="12.5117333"><ele>443.75</ele><time>2026-04-26T09:35:17.533Z</time></trkpt><trkpt lat="43.7680033" lon="12.5116983"><ele>445.0</ele><time>2026-04-26T09:35:18.535Z</time></trkpt><trkpt lat="43.7679167" lon="12.5116367"><ele>445.0</ele><time>2026-04-26T09:35:19.534Z</time></trkpt><trkpt lat="43.7678717" lon="12.5115317"><ele>445.0</ele><time>2026-04-26T09:35:20.533Z</time></trkpt><trkpt lat="43.7678533" lon="12.5114"><ele>445.0</ele><time>2026-04-26T09:35:21.533Z</time></trkpt><trkpt lat="43.76787" lon="12.5112383"><ele>445.0</ele><time>2026-04-26T09:35:22.535Z</time></trkpt><trkpt lat="43.7678683" lon="12.5111017"><ele>445.0</ele><time>2026-04-26T09:35:23.535Z</time></trkpt><trkpt lat="43.767855" lon="12.510975"><ele>443.75</ele><time>2026-04-26T09:35:24.534Z</time></trkpt><trkpt lat="43.7678233" lon="12.5108517"><ele>442.5</ele><time>2026-04-26T09:35:25.537Z</time></trkpt><trkpt lat="43.767735" lon="12.5107733"><ele>441.25</ele><time>2026-04-26T09:35:26.535Z</time></trkpt><trkpt lat="43.7676117" lon="12.5106933"><ele>440.0</ele><time>2026-04-26T09:35:27.534Z</time></trkpt><trkpt lat="43.7674983" lon="12.5106067"><ele>440.0</ele><time>2026-04-26T09:35:28.536Z</time></trkpt><trkpt lat="43.76742" lon="12.5104983"><ele>440.0</ele><time>2026-04-26T09:35:29.536Z</time></trkpt><trkpt lat="43.767365" lon="12.5103633"><ele>440.0</ele><time>2026-04-26T09:35:30.537Z</time></trkpt><trkpt lat="43.767355" lon="12.51019"><ele>440.0</ele><time>2026-04-26T09:35:31.534Z</time></trkpt><trkpt lat="43.7673567" lon="12.51"><ele>442.75</ele><time>2026-04-26T09:35:32.535Z</time></trkpt><trkpt lat="43.7673583" lon="12.5098033"><ele>445.5</ele><time>2026-04-26T09:35:33.533Z</time></trkpt><trkpt lat="43.7673567" lon="12.5096"><ele>448.25</ele><time>2026-04-26T09:35:34.535Z</time></trkpt><trkpt lat="43.7673383" lon="12.50941"><ele>451.0</ele><time>2026-04-26T09:35:35.534Z</time></trkpt><trkpt lat="43.7673067" lon="12.50923"><ele>453.33333333333337</ele><time>2026-04-26T09:35:36.534Z</time></trkpt><trkpt lat="43.7672867" lon="12.509045"><ele>455.66666666666663</ele><time>2026-04-26T09:35:37.536Z</time></trkpt><trkpt lat="43.7672967" lon="12.5088333"><ele>458.0</ele><time>2026-04-26T09:35:38.532Z</time></trkpt><trkpt lat="43.76731" lon="12.5086017"><ele>459.0</ele><time>2026-04-26T09:35:39.534Z</time></trkpt><trkpt lat="43.7673233" lon="12.5083533"><ele>460.0</ele><time>2026-04-26T09:35:40.533Z</time></trkpt><trkpt lat="43.767335" lon="12.5081"><ele>461.0</ele><time>2026-04-26T09:35:41.533Z</time></trkpt><trkpt lat="43.76736" lon="12.50785"><ele>458.66666666666663</ele><time>2026-04-26T09:35:42.536Z</time></trkpt><trkpt lat="43.7673917" lon="12.507615"><ele>456.33333333333337</ele><time>2026-04-26T09:35:43.533Z</time></trkpt><trkpt lat="43.7674183" lon="12.5073867"><ele>454.0</ele><time>2026-04-26T09:35:44.535Z</time></trkpt><trkpt lat="43.7674267" lon="12.507145"><ele>453.6666666666667</ele><time>2026-04-26T09:35:45.535Z</time></trkpt><trkpt lat="43.7674167" lon="12.5068867"><ele>453.33333333333337</ele><time>2026-04-26T09:35:46.535Z</time></trkpt><trkpt lat="43.7674067" lon="12.506625"><ele>453.0</ele><time>2026-04-26T09:35:47.535Z</time></trkpt><trkpt lat="43.76741" lon="12.5063717"><ele>452.0</ele><time>2026-04-26T09:35:48.535Z</time></trkpt><trkpt lat="43.7674367" lon="12.5061283"><ele>451.0</ele><time>2026-04-26T09:35:49.536Z</time></trkpt><trkpt lat="43.7674833" lon="12.505905"><ele>450.0</ele><time>2026-04-26T09:35:50.535Z</time></trkpt><trkpt lat="43.76754" lon="12.505695"><ele>450.0</ele><time>2026-04-26T09:35:51.533Z</time></trkpt><trkpt lat="43.767615" lon="12.505495"><ele>450.0</ele><time>2026-04-26T09:35:52.537Z</time></trkpt><trkpt lat="43.767705" lon="12.505295"><ele>450.0</ele><time>2026-04-26T09:35:53.533Z</time></trkpt><trkpt lat="43.7678067" lon="12.505095"><ele>450.33333333333337</ele><time>2026-04-26T09:35:54.534Z</time></trkpt><trkpt lat="43.7678983" lon="12.504895"><ele>450.6666666666667</ele><time>2026-04-26T09:35:55.536Z</time></trkpt><trkpt lat="43.7680067" lon="12.5047233"><ele>451.0</ele><time>2026-04-26T09:35:56.536Z</time></trkpt><trkpt lat="43.7681283" lon="12.504585"><ele>456.0</ele><time>2026-04-26T09:35:57.532Z</time></trkpt><trkpt lat="43.768265" lon="12.5044933"><ele>461.0</ele><time>2026-04-26T09:35:58.534Z</time></trkpt><trkpt lat="43.7684167" lon="12.5044733"><ele>466.0</ele><time>2026-04-26T09:35:59.536Z</time></trkpt><trkpt lat="43.7685767" lon="12.5045033"><ele>462.6666666666667</ele><time>2026-04-26T09:36:00.536Z</time></trkpt><trkpt lat="43.7687483" lon="12.5045583"><ele>459.33333333333337</ele><time>2026-04-26T09:36:01.536Z</time></trkpt><trkpt lat="43.768935" lon="12.50463"><ele>456.0</ele><time>2026-04-26T09:36:02.532Z</time></trkpt><trkpt lat="43.76913" lon="12.5047167"><ele>456.0</ele><time>2026-04-26T09:36:03.533Z</time></trkpt><trkpt lat="43.7693283" lon="12.50481"><ele>456.0</ele><time>2026-04-26T09:36:04.534Z</time></trkpt><trkpt lat="43.7695267" lon="12.504905"><ele>456.0</ele><time>2026-04-26T09:36:05.536Z</time></trkpt><trkpt lat="43.76971" lon="12.5049967"><ele>453.66666666666663</ele><time>2026-04-26T09:36:06.532Z</time></trkpt><trkpt lat="43.7698717" lon="12.5051133"><ele>451.3333333333333</ele><time>2026-04-26T09:36:07.533Z</time></trkpt><trkpt lat="43.7699867" lon="12.505275"><ele>449.0</ele><time>2026-04-26T09:36:08.537Z</time></trkpt><trkpt lat="43.770065" lon="12.5054483"><ele>449.0</ele><time>2026-04-26T09:36:09.532Z</time></trkpt><trkpt lat="43.7701483" lon="12.5055883"><ele>449.0</ele><time>2026-04-26T09:36:10.533Z</time></trkpt><trkpt lat="43.7702433" lon="12.5057033"><ele>449.0</ele><time>2026-04-26T09:36:11.533Z</time></trkpt><trkpt lat="43.7703667" lon="12.5057833"><ele>449.0</ele><time>2026-04-26T09:36:12.536Z</time></trkpt><trkpt lat="43.7705183" lon="12.5058233"><ele>453.0</ele><time>2026-04-26T09:36:13.534Z</time></trkpt><trkpt lat="43.7706933" lon="12.50583"><ele>457.0</ele><time>2026-04-26T09:36:14.536Z</time></trkpt><trkpt lat="43.77089" lon="12.5058167"><ele>461.0</ele><time>2026-04-26T09:36:15.533Z</time></trkpt><trkpt lat="43.771095" lon="12.505815"><ele>462.0</ele><time>2026-04-26T09:36:16.533Z</time></trkpt><trkpt lat="43.77131" lon="12.50584"><ele>463.0</ele><time>2026-04-26T09:36:17.533Z</time></trkpt><trkpt lat="43.7715233" lon="12.505905"><ele>464.0</ele><time>2026-04-26T09:36:18.534Z</time></trkpt><trkpt lat="43.7717233" lon="12.5059883"><ele>469.0</ele><time>2026-04-26T09:36:19.535Z</time></trkpt><trkpt lat="43.77192" lon="12.5060767"><ele>474.0</ele><time>2026-04-26T09:36:20.535Z</time></trkpt><trkpt lat="43.7721067" lon="12.5061683"><ele>479.0</ele><time>2026-04-26T09:36:21.533Z</time></trkpt><trkpt lat="43.772295" lon="12.5062367"><ele>469.66666666666663</ele><time>2026-04-26T09:36:22.535Z</time></trkpt><trkpt lat="43.7724767" lon="12.5062933"><ele>460.33333333333337</ele><time>2026-04-26T09:36:23.535Z</time></trkpt><trkpt lat="43.7726467" lon="12.50634"><ele>451.0</ele><time>2026-04-26T09:36:24.536Z</time></trkpt><trkpt lat="43.7728067" lon="12.5063667"><ele>451.0</ele><time>2026-04-26T09:36:25.534Z</time></trkpt><trkpt lat="43.7729683" lon="12.5063533"><ele>451.0</ele><time>2026-04-26T09:36:26.533Z</time></trkpt><trkpt lat="43.7731467" lon="12.5062917"><ele>451.0</ele><time>2026-04-26T09:36:27.534Z</time></trkpt><trkpt lat="43.7733333" lon="12.5062217"><ele>459.6666666666667</ele><time>2026-04-26T09:36:28.535Z</time></trkpt><trkpt lat="43.7735183" lon="12.5061533"><ele>468.33333333333337</ele><time>2026-04-26T09:36:29.534Z</time></trkpt><trkpt lat="43.773695" lon="12.5061117"><ele>477.0</ele><time>2026-04-26T09:36:30.534Z</time></trkpt><trkpt lat="43.7738683" lon="12.5060983"><ele>477.0</ele><time>2026-04-26T09:36:31.534Z</time></trkpt><trkpt lat="43.7740567" lon="12.5061017"><ele>477.0</ele><time>2026-04-26T09:36:32.535Z</time></trkpt><trkpt lat="43.7742183" lon="12.5061317"><ele>477.0</ele><time>2026-04-26T09:36:33.535Z</time></trkpt><trkpt lat="43.7743517" lon="12.5062017"><ele>478.66666666666663</ele><time>2026-04-26T09:36:34.536Z</time></trkpt><trkpt lat="43.774445" lon="12.506345"><ele>480.3333333333333</ele><time>2026-04-26T09:36:35.536Z</time></trkpt><trkpt lat="43.7745383" lon="12.5065283"><ele>482.0</ele><time>2026-04-26T09:36:36.533Z</time></trkpt><trkpt lat="43.774625" lon="12.5067533"><ele>482.0</ele><time>2026-04-26T09:36:37.535Z</time></trkpt><trkpt lat="43.7747083" lon="12.5069933"><ele>482.0</ele><time>2026-04-26T09:36:38.533Z</time></trkpt><trkpt lat="43.77479" lon="12.5072117"><ele>482.0</ele><time>2026-04-26T09:36:39.535Z</time></trkpt><trkpt lat="43.77488" lon="12.5074017"><ele>480.66666666666663</ele><time>2026-04-26T09:36:40.533Z</time></trkpt><trkpt lat="43.7749817" lon="12.5075583"><ele>479.33333333333337</ele><time>2026-04-26T09:36:41.534Z</time></trkpt><trkpt lat="43.7751" lon="12.5076833"><ele>478.0</ele><time>2026-04-26T09:36:42.536Z</time></trkpt><trkpt lat="43.7752483" lon="12.50778"><ele>478.0</ele><time>2026-04-26T09:36:43.536Z</time></trkpt><trkpt lat="43.7754133" lon="12.50786"><ele>478.0</ele><time>2026-04-26T09:36:44.536Z</time></trkpt><trkpt lat="43.7755733" lon="12.507915"><ele>478.0</ele><time>2026-04-26T09:36:45.535Z</time></trkpt><trkpt lat="43.7757117" lon="12.507945"><ele>474.75</ele><time>2026-04-26T09:36:46.536Z</time></trkpt><trkpt lat="43.7758317" lon="12.507945"><ele>471.5</ele><time>2026-04-26T09:36:47.532Z</time></trkpt><trkpt lat="43.7759467" lon="12.5079117"><ele>468.25</ele><time>2026-04-26T09:36:48.536Z</time></trkpt><trkpt lat="43.7760867" lon="12.50785"><ele>465.0</ele><time>2026-04-26T09:36:49.534Z</time></trkpt><trkpt lat="43.7762483" lon="12.5078"><ele>465.0</ele><time>2026-04-26T09:36:50.535Z</time></trkpt><trkpt lat="43.776415" lon="12.507785"><ele>465.0</ele><time>2026-04-26T09:36:51.535Z</time></trkpt><trkpt lat="43.7765667" lon="12.507795"><ele>465.0</ele><time>2026-04-26T09:36:52.536Z</time></trkpt><trkpt lat="43.7766983" lon="12.5078283"><ele>465.0</ele><time>2026-04-26T09:36:53.533Z</time></trkpt><trkpt lat="43.7768167" lon="12.5078967"><ele>465.0</ele><time>2026-04-26T09:36:54.536Z</time></trkpt><trkpt lat="43.77691" lon="12.50802"><ele>465.0</ele><time>2026-04-26T09:36:55.536Z</time></trkpt><trkpt lat="43.776985" lon="12.50817"><ele>465.0</ele><time>2026-04-26T09:36:56.535Z</time></trkpt><trkpt lat="43.777055" lon="12.5082983"><ele>458.4</ele><time>2026-04-26T09:36:57.534Z</time></trkpt><trkpt lat="43.77713" lon="12.5083967"><ele>451.8</ele><time>2026-04-26T09:36:58.533Z</time></trkpt><trkpt lat="43.777215" lon="12.5084617"><ele>445.20000000000005</ele><time>2026-04-26T09:36:59.533Z</time></trkpt><trkpt lat="43.7773083" lon="12.5084817"><ele>438.6</ele><time>2026-04-26T09:37:00.533Z</time></trkpt><trkpt lat="43.777395" lon="12.5084467"><ele>432.0</ele><time>2026-04-26T09:37:01.534Z</time></trkpt><trkpt lat="43.7774717" lon="12.5083533"><ele>432.0</ele><time>2026-04-26T09:37:02.533Z</time></trkpt><trkpt lat="43.7775233" lon="12.5081833"><ele>432.0</ele><time>2026-04-26T09:37:03.536Z</time></trkpt><trkpt lat="43.7775433" lon="12.5079933"><ele>432.0</ele><time>2026-04-26T09:37:04.536Z</time></trkpt><trkpt lat="43.7775233" lon="12.5077767"><ele>432.0</ele><time>2026-04-26T09:37:05.532Z</time></trkpt><trkpt lat="43.7774917" lon="12.507555"><ele>432.33333333333337</ele><time>2026-04-26T09:37:06.534Z</time></trkpt><trkpt lat="43.777475" lon="12.5073367"><ele>432.6666666666667</ele><time>2026-04-26T09:37:07.535Z</time></trkpt><trkpt lat="43.777475" lon="12.5071183"><ele>433.0</ele><time>2026-04-26T09:37:08.535Z</time></trkpt><trkpt lat="43.7774867" lon="12.5069133"><ele>433.25</ele><time>2026-04-26T09:37:09.535Z</time></trkpt><trkpt lat="43.7775167" lon="12.506725"><ele>433.5</ele><time>2026-04-26T09:37:10.535Z</time></trkpt><trkpt lat="43.777555" lon="12.5065683"><ele>433.75</ele><time>2026-04-26T09:37:11.532Z</time></trkpt><trkpt lat="43.7776017" lon="12.5064383"><ele>434.0</ele><time>2026-04-26T09:37:12.536Z</time></trkpt><trkpt lat="43.7776683" lon="12.5063467"><ele>428.25</ele><time>2026-04-26T09:37:13.536Z</time></trkpt><trkpt lat="43.7777583" lon="12.5062867"><ele>422.5</ele><time>2026-04-26T09:37:14.535Z</time></trkpt><trkpt lat="43.7778733" lon="12.5062617"><ele>416.75</ele><time>2026-04-26T09:37:15.536Z</time></trkpt><trkpt lat="43.7780067" lon="12.5062733"><ele>411.0</ele><time>2026-04-26T09:37:16.533Z</time></trkpt><trkpt lat="43.7781333" lon="12.50629"><ele>411.0</ele><time>2026-04-26T09:37:17.536Z</time></trkpt><trkpt lat="43.7782417" lon="12.50631"><ele>411.0</ele><time>2026-04-26T09:37:18.535Z</time></trkpt><trkpt lat="43.7783367" lon="12.5063117"><ele>411.0</ele><time>2026-04-26T09:37:19.534Z</time></trkpt><trkpt lat="43.7784083" lon="12.50627"><ele>411.0</ele><time>2026-04-26T09:37:20.534Z</time></trkpt><trkpt lat="43.7784767" lon="12.5062017"><ele>411.0</ele><time>2026-04-26T09:37:21.534Z</time></trkpt><trkpt lat="43.778505" lon="12.5060567"><ele>411.0</ele><time>2026-04-26T09:37:22.533Z</time></trkpt><trkpt lat="43.7785033" lon="12.505835"><ele>411.0</ele><time>2026-04-26T09:37:23.534Z</time></trkpt><trkpt lat="43.7785517" lon="12.5056633"><ele>411.0</ele><time>2026-04-26T09:37:24.536Z</time></trkpt><trkpt lat="43.77861" lon="12.50549"><ele>411.0</ele><time>2026-04-26T09:37:25.536Z</time></trkpt><trkpt lat="43.77871" lon="12.5053467"><ele>411.0</ele><time>2026-04-26T09:37:26.536Z</time></trkpt><trkpt lat="43.7788467" lon="12.5052183"><ele>411.0</ele><time>2026-04-26T09:37:27.533Z</time></trkpt><trkpt lat="43.7790117" lon="12.505085"><ele>411.0</ele><time>2026-04-26T09:37:28.535Z</time></trkpt><trkpt lat="43.77919" lon="12.50495"><ele>410.66666666666663</ele><time>2026-04-26T09:37:29.535Z</time></trkpt><trkpt lat="43.7793783" lon="12.5048017"><ele>410.3333333333333</ele><time>2026-04-26T09:37:30.535Z</time></trkpt><trkpt lat="43.77957" lon="12.5046533"><ele>410.0</ele><time>2026-04-26T09:37:31.534Z</time></trkpt><trkpt lat="43.7797467" lon="12.5045067"><ele>408.0</ele><time>2026-04-26T09:37:32.536Z</time></trkpt><trkpt lat="43.7799017" lon="12.5043367"><ele>406.0</ele><time>2026-04-26T09:37:33.533Z</time></trkpt><trkpt lat="43.7800367" lon="12.5041267"><ele>404.0</ele><time>2026-04-26T09:37:34.535Z</time></trkpt><trkpt lat="43.780165" lon="12.50389"><ele>404.3333333333333</ele><time>2026-04-26T09:37:35.533Z</time></trkpt><trkpt lat="43.780295" lon="12.5036383"><ele>404.66666666666663</ele><time>2026-04-26T09:37:36.536Z</time></trkpt><trkpt lat="43.780415" lon="12.5033933"><ele>405.0</ele><time>2026-04-26T09:37:37.533Z</time></trkpt><trkpt lat="43.7805267" lon="12.5031717"><ele>405.0</ele><time>2026-04-26T09:37:38.534Z</time></trkpt><trkpt lat="43.780625" lon="12.5029717"><ele>405.0</ele><time>2026-04-26T09:37:39.533Z</time></trkpt><trkpt lat="43.7807083" lon="12.5027917"><ele>405.0</ele><time>2026-04-26T09:37:40.537Z</time></trkpt><trkpt lat="43.780775" lon="12.50264"><ele>403.6</ele><time>2026-04-26T09:37:41.535Z</time></trkpt><trkpt lat="43.7808217" lon="12.502495"><ele>402.2</ele><time>2026-04-26T09:37:42.536Z</time></trkpt><trkpt lat="43.7808367" lon="12.5023583"><ele>400.79999999999995</ele><time>2026-04-26T09:37:43.536Z</time></trkpt><trkpt lat="43.7808133" lon="12.5022183"><ele>399.4</ele><time>2026-04-26T09:37:44.536Z</time></trkpt><trkpt lat="43.7807483" lon="12.5020817"><ele>398.0</ele><time>2026-04-26T09:37:45.537Z</time></trkpt><trkpt lat="43.78063" lon="12.5019467"><ele>397.75</ele><time>2026-04-26T09:37:46.537Z</time></trkpt><trkpt lat="43.7805017" lon="12.5018117"><ele>397.5</ele><time>2026-04-26T09:37:47.536Z</time></trkpt><trkpt lat="43.7803833" lon="12.5016883"><ele>397.25</ele><time>2026-04-26T09:37:48.536Z</time></trkpt><trkpt lat="43.780285" lon="12.5015717"><ele>397.0</ele><time>2026-04-26T09:37:49.536Z</time></trkpt><trkpt lat="43.7802" lon="12.5014567"><ele>394.8</ele><time>2026-04-26T09:37:50.537Z</time></trkpt><trkpt lat="43.7801383" lon="12.501335"><ele>392.6</ele><time>2026-04-26T09:37:51.536Z</time></trkpt><trkpt lat="43.780105" lon="12.50121"><ele>390.40000000000003</ele><time>2026-04-26T09:37:52.537Z</time></trkpt><trkpt lat="43.7801033" lon="12.5010967"><ele>388.20000000000005</ele><time>2026-04-26T09:37:53.537Z</time></trkpt><trkpt lat="43.7801317" lon="12.50099"><ele>386.0</ele><time>2026-04-26T09:37:54.537Z</time></trkpt><trkpt lat="43.7801833" lon="12.5008817"><ele>386.0</ele><time>2026-04-26T09:37:55.537Z</time></trkpt><trkpt lat="43.7802883" lon="12.5007683"><ele>386.0</ele><time>2026-04-26T09:37:56.533Z</time></trkpt><trkpt lat="43.7804517" lon="12.50064"><ele>386.0</ele><time>2026-04-26T09:37:57.533Z</time></trkpt><trkpt lat="43.7806167" lon="12.5005233"><ele>386.0</ele><time>2026-04-26T09:37:58.535Z</time></trkpt><trkpt lat="43.7807733" lon="12.5004317"><ele>386.0</ele><time>2026-04-26T09:37:59.533Z</time></trkpt><trkpt lat="43.78093" lon="12.5003683"><ele>386.0</ele><time>2026-04-26T09:38:00.534Z</time></trkpt><trkpt lat="43.7811017" lon="12.50032"><ele>380.0</ele><time>2026-04-26T09:38:01.535Z</time></trkpt><trkpt lat="43.7812633" lon="12.5002867"><ele>374.0</ele><time>2026-04-26T09:38:02.533Z</time></trkpt><trkpt lat="43.781425" lon="12.5002633"><ele>368.0</ele><time>2026-04-26T09:38:03.534Z</time></trkpt><trkpt lat="43.78157" lon="12.500255"><ele>368.0</ele><time>2026-04-26T09:38:04.533Z</time></trkpt><trkpt lat="43.781705" lon="12.5002783"><ele>368.0</ele><time>2026-04-26T09:38:05.536Z</time></trkpt><trkpt lat="43.7818267" lon="12.5003483"><ele>368.0</ele><time>2026-04-26T09:38:06.533Z</time></trkpt><trkpt lat="43.7819317" lon="12.5004717"><ele>368.0</ele><time>2026-04-26T09:38:07.533Z</time></trkpt><trkpt lat="43.7820183" lon="12.5006233"><ele>366.0</ele><time>2026-04-26T09:38:08.537Z</time></trkpt><trkpt lat="43.7821" lon="12.5007733"><ele>364.0</ele><time>2026-04-26T09:38:09.533Z</time></trkpt><trkpt lat="43.7822" lon="12.500905"><ele>362.0</ele><time>2026-04-26T09:38:10.536Z</time></trkpt><trkpt lat="43.7823133" lon="12.5010167"><ele>360.0</ele><time>2026-04-26T09:38:11.533Z</time></trkpt><trkpt lat="43.7824417" lon="12.5010933"><ele>360.0</ele><time>2026-04-26T09:38:12.533Z</time></trkpt><trkpt lat="43.782575" lon="12.501145"><ele>360.0</ele><time>2026-04-26T09:38:13.534Z</time></trkpt><trkpt lat="43.7827033" lon="12.5011867"><ele>360.0</ele><time>2026-04-26T09:38:14.533Z</time></trkpt><trkpt lat="43.7828217" lon="12.50125"><ele>360.0</ele><time>2026-04-26T09:38:15.533Z</time></trkpt><trkpt lat="43.7829233" lon="12.501345"><ele>358.5</ele><time>2026-04-26T09:38:16.533Z</time></trkpt><trkpt lat="43.7830217" lon="12.5014767"><ele>357.0</ele><time>2026-04-26T09:38:17.534Z</time></trkpt><trkpt lat="43.7830967" lon="12.5016583"><ele>355.5</ele><time>2026-04-26T09:38:18.533Z</time></trkpt><trkpt lat="43.78315" lon="12.5018483"><ele>354.0</ele><time>2026-04-26T09:38:19.535Z</time></trkpt><trkpt lat="43.7831933" lon="12.5020233"><ele>356.3333333333333</ele><time>2026-04-26T09:38:20.534Z</time></trkpt><trkpt lat="43.783245" lon="12.5021567"><ele>358.6666666666667</ele><time>2026-04-26T09:38:21.534Z</time></trkpt><trkpt lat="43.78331" lon="12.5022433"><ele>361.0</ele><time>2026-04-26T09:38:22.533Z</time></trkpt><trkpt lat="43.7833733" lon="12.502315"><ele>363.33333333333337</ele><time>2026-04-26T09:38:23.534Z</time></trkpt><trkpt lat="43.7834417" lon="12.5023617"><ele>365.6666666666667</ele><time>2026-04-26T09:38:24.533Z</time></trkpt><trkpt lat="43.78349" lon="12.502295"><ele>368.0</ele><time>2026-04-26T09:38:25.534Z</time></trkpt><trkpt lat="43.7834783" lon="12.5021617"><ele>364.5</ele><time>2026-04-26T09:38:26.533Z</time></trkpt><trkpt lat="43.7835117" lon="12.502035"><ele>361.0</ele><time>2026-04-26T09:38:27.533Z</time></trkpt><trkpt lat="43.7834733" lon="12.5018833"><ele>357.5</ele><time>2026-04-26T09:38:28.537Z</time></trkpt><trkpt lat="43.783415" lon="12.5017133"><ele>354.0</ele><time>2026-04-26T09:38:29.533Z</time></trkpt><trkpt lat="43.7832817" lon="12.5014717"><ele>349.6666666666667</ele><time>2026-04-26T09:38:30.535Z</time></trkpt><trkpt lat="43.78316" lon="12.5012333"><ele>345.33333333333337</ele><time>2026-04-26T09:38:31.534Z</time></trkpt><trkpt lat="43.7830517" lon="12.5010083"><ele>341.0</ele><time>2026-04-26T09:38:32.537Z</time></trkpt><trkpt lat="43.78295" lon="12.500785"><ele>341.0</ele><time>2026-04-26T09:38:33.534Z</time></trkpt><trkpt lat="43.7828533" lon="12.5005717"><ele>341.0</ele><time>2026-04-26T09:38:34.536Z</time></trkpt><trkpt lat="43.7827633" lon="12.5003717"><ele>341.0</ele><time>2026-04-26T09:38:35.537Z</time></trkpt><trkpt lat="43.7826867" lon="12.5001833"><ele>341.25</ele><time>2026-04-26T09:38:36.537Z</time></trkpt><trkpt lat="43.7826233" lon="12.5000033"><ele>341.5</ele><time>2026-04-26T09:38:37.539Z</time></trkpt><trkpt lat="43.7825783" lon="12.499825"><ele>341.75</ele><time>2026-04-26T09:38:38.533Z</time></trkpt><trkpt lat="43.7825433" lon="12.4996267"><ele>342.0</ele><time>2026-04-26T09:38:39.536Z</time></trkpt><trkpt lat="43.782565" lon="12.499435"><ele>342.0</ele><time>2026-04-26T09:38:40.537Z</time></trkpt><trkpt lat="43.7825967" lon="12.4992533"><ele>342.0</ele><time>2026-04-26T09:38:41.536Z</time></trkpt><trkpt lat="43.7826067" lon="12.4990717"><ele>342.0</ele><time>2026-04-26T09:38:42.536Z</time></trkpt><trkpt lat="43.7825983" lon="12.4989"><ele>342.0</ele><time>2026-04-26T09:38:43.536Z</time></trkpt><trkpt lat="43.78255" lon="12.4987517"><ele>338.25</ele><time>2026-04-26T09:38:44.536Z</time></trkpt><trkpt lat="43.7824767" lon="12.4986317"><ele>334.5</ele><time>2026-04-26T09:38:45.536Z</time></trkpt><trkpt lat="43.78238" lon="12.4985367"><ele>330.75</ele><time>2026-04-26T09:38:46.536Z</time></trkpt><trkpt lat="43.7822767" lon="12.4984483"><ele>327.0</ele><time>2026-04-26T09:38:47.535Z</time></trkpt><trkpt lat="43.7821533" lon="12.49838"><ele>327.0</ele><time>2026-04-26T09:38:48.533Z</time></trkpt><trkpt lat="43.7820183" lon="12.4983383"><ele>327.0</ele><time>2026-04-26T09:38:49.534Z</time></trkpt><trkpt lat="43.7818833" lon="12.498305"><ele>327.0</ele><time>2026-04-26T09:38:50.534Z</time></trkpt><trkpt lat="43.7817567" lon="12.49826"><ele>327.0</ele><time>2026-04-26T09:38:51.536Z</time></trkpt><trkpt lat="43.7816383" lon="12.49819"><ele>329.25</ele><time>2026-04-26T09:38:52.533Z</time></trkpt><trkpt lat="43.7815233" lon="12.4980933"><ele>331.5</ele><time>2026-04-26T09:38:53.533Z</time></trkpt><trkpt lat="43.78141" lon="12.49797"><ele>333.75</ele><time>2026-04-26T09:38:54.536Z</time></trkpt><trkpt lat="43.7812967" lon="12.4978433"><ele>336.0</ele><time>2026-04-26T09:38:55.534Z</time></trkpt><trkpt lat="43.781185" lon="12.49772"><ele>334.8</ele><time>2026-04-26T09:38:56.533Z</time></trkpt><trkpt lat="43.7810767" lon="12.4976083"><ele>333.6</ele><time>2026-04-26T09:38:57.537Z</time></trkpt><trkpt lat="43.7809767" lon="12.4975317"><ele>332.4</ele><time>2026-04-26T09:38:58.533Z</time></trkpt><trkpt lat="43.7808883" lon="12.497495"><ele>331.2</ele><time>2026-04-26T09:38:59.533Z</time></trkpt><trkpt lat="43.7808017" lon="12.4974733"><ele>330.0</ele><time>2026-04-26T09:39:00.533Z</time></trkpt><trkpt lat="43.7807433" lon="12.4974233"><ele>330.0</ele><time>2026-04-26T09:39:01.535Z</time></trkpt><trkpt lat="43.7806933" lon="12.497345"><ele>330.0</ele><time>2026-04-26T09:39:02.534Z</time></trkpt><trkpt lat="43.7806617" lon="12.4972233"><ele>330.0</ele><time>2026-04-26T09:39:03.535Z</time></trkpt><trkpt lat="43.7806433" lon="12.4970783"><ele>330.0</ele><time>2026-04-26T09:39:04.534Z</time></trkpt><trkpt lat="43.7806683" lon="12.4968917"><ele>330.0</ele><time>2026-04-26T09:39:05.536Z</time></trkpt><trkpt lat="43.7806817" lon="12.49674"><ele>329.5</ele><time>2026-04-26T09:39:06.536Z</time></trkpt><trkpt lat="43.78069" lon="12.496615"><ele>329.0</ele><time>2026-04-26T09:39:07.535Z</time></trkpt><trkpt lat="43.7807083" lon="12.4964983"><ele>328.5</ele><time>2026-04-26T09:39:08.533Z</time></trkpt><trkpt lat="43.78071" lon="12.49636"><ele>328.0</ele><time>2026-04-26T09:39:10.537Z</time></trkpt><trkpt lat="43.7807067" lon="12.4962583"><ele>327.5</ele><time>2026-04-26T09:39:13.536Z</time></trkpt><trkpt lat="43.7807233" lon="12.4961733"><ele>327.0</ele><time>2026-04-26T09:39:15.537Z</time></trkpt><trkpt lat="43.7807733" lon="12.4960917"><ele>327.0</ele><time>2026-04-26T09:39:17.533Z</time></trkpt><trkpt lat="43.7808533" lon="12.4960383"><ele>327.0</ele><time>2026-04-26T09:39:19.536Z</time></trkpt><trkpt lat="43.780965" lon="12.4959683"><ele>327.0</ele><time>2026-04-26T09:39:21.534Z</time></trkpt><trkpt lat="43.7810333" lon="12.49592"><ele>327.0</ele><time>2026-04-26T09:39:22.534Z</time></trkpt><trkpt lat="43.7811083" lon="12.49587"><ele>327.0</ele><time>2026-04-26T09:39:23.533Z</time></trkpt><trkpt lat="43.78119" lon="12.4958233"><ele>325.0</ele><time>2026-04-26T09:39:24.535Z</time></trkpt><trkpt lat="43.7812817" lon="12.4957667"><ele>323.0</ele><time>2026-04-26T09:39:25.534Z</time></trkpt><trkpt lat="43.7813817" lon="12.4957183"><ele>321.0</ele><time>2026-04-26T09:39:26.534Z</time></trkpt><trkpt lat="43.7814833" lon="12.4956733"><ele>319.0</ele><time>2026-04-26T09:39:27.535Z</time></trkpt><trkpt lat="43.7815917" lon="12.49563"><ele>317.0</ele><time>2026-04-26T09:39:28.533Z</time></trkpt><trkpt lat="43.7817033" lon="12.4956083"><ele>317.0</ele><time>2026-04-26T09:39:29.533Z</time></trkpt><trkpt lat="43.7818267" lon="12.4956"><ele>317.0</ele><time>2026-04-26T09:39:30.533Z</time></trkpt><trkpt lat="43.7819533" lon="12.4955917"><ele>317.0</ele><time>2026-04-26T09:39:31.535Z</time></trkpt><trkpt lat="43.782085" lon="12.49558"><ele>317.0</ele><time>2026-04-26T09:39:32.533Z</time></trkpt><trkpt lat="43.7822217" lon="12.4955767"><ele>315.8</ele><time>2026-04-26T09:39:33.534Z</time></trkpt><trkpt lat="43.7823483" lon="12.495575"><ele>314.6</ele><time>2026-04-26T09:39:34.534Z</time></trkpt><trkpt lat="43.782465" lon="12.4955667"><ele>313.40000000000003</ele><time>2026-04-26T09:39:35.533Z</time></trkpt><trkpt lat="43.782565" lon="12.4955767"><ele>312.2</ele><time>2026-04-26T09:39:36.533Z</time></trkpt><trkpt lat="43.782655" lon="12.4955967"><ele>311.0</ele><time>2026-04-26T09:39:37.537Z</time></trkpt><trkpt lat="43.7827383" lon="12.4956333"><ele>309.1666666666667</ele><time>2026-04-26T09:39:38.533Z</time></trkpt><trkpt lat="43.7828367" lon="12.49567"><ele>307.33333333333337</ele><time>2026-04-26T09:39:39.534Z</time></trkpt><trkpt lat="43.78293" lon="12.4957283"><ele>305.5</ele><time>2026-04-26T09:39:40.533Z</time></trkpt><trkpt lat="43.7830117" lon="12.4957633"><ele>303.6666666666667</ele><time>2026-04-26T09:39:41.533Z</time></trkpt><trkpt lat="43.78309" lon="12.4957867"><ele>301.8333333333333</ele><time>2026-04-26T09:39:42.534Z</time></trkpt><trkpt lat="43.7831617" lon="12.4958117"><ele>300.0</ele><time>2026-04-26T09:39:43.535Z</time></trkpt><trkpt lat="43.7832233" lon="12.4958383"><ele>300.0</ele><time>2026-04-26T09:39:44.534Z</time></trkpt><trkpt lat="43.783285" lon="12.4958583"><ele>300.0</ele><time>2026-04-26T09:39:45.534Z</time></trkpt><trkpt lat="43.783385" lon="12.4958933"><ele>300.0</ele><time>2026-04-26T09:39:47.533Z</time></trkpt><trkpt lat="43.7834733" lon="12.495875"><ele>300.0</ele><time>2026-04-26T09:39:49.536Z</time></trkpt><trkpt lat="43.7835633" lon="12.4959083"><ele>300.0</ele><time>2026-04-26T09:39:51.534Z</time></trkpt><trkpt lat="43.78367" lon="12.4960033"><ele>296.1666666666667</ele><time>2026-04-26T09:39:53.534Z</time></trkpt><trkpt lat="43.7837167" lon="12.4960917"><ele>292.3333333333333</ele><time>2026-04-26T09:39:54.535Z</time></trkpt><trkpt lat="43.7837683" lon="12.496175"><ele>288.5</ele><time>2026-04-26T09:39:55.534Z</time></trkpt><trkpt lat="43.7838167" lon="12.4962517"><ele>284.66666666666663</ele><time>2026-04-26T09:39:56.534Z</time></trkpt><trkpt lat="43.78387" lon="12.4963283"><ele>280.8333333333333</ele><time>2026-04-26T09:39:57.535Z</time></trkpt><trkpt lat="43.78393" lon="12.4964033"><ele>277.0</ele><time>2026-04-26T09:39:58.534Z</time></trkpt><trkpt lat="43.78399" lon="12.4964767"><ele>277.0</ele><time>2026-04-26T09:39:59.534Z</time></trkpt><trkpt lat="43.7840583" lon="12.49655"><ele>277.0</ele><time>2026-04-26T09:40:00.533Z</time></trkpt><trkpt lat="43.7841367" lon="12.4966217"><ele>277.0</ele><time>2026-04-26T09:40:01.535Z</time></trkpt><trkpt lat="43.7842167" lon="12.4966917"><ele>277.0</ele><time>2026-04-26T09:40:02.533Z</time></trkpt><trkpt lat="43.7842967" lon="12.49676"><ele>277.0</ele><time>2026-04-26T09:40:03.534Z</time></trkpt><trkpt lat="43.784395" lon="12.4968167"><ele>275.8333333333333</ele><time>2026-04-26T09:40:04.533Z</time></trkpt><trkpt lat="43.7844833" lon="12.4968633"><ele>274.66666666666663</ele><time>2026-04-26T09:40:05.535Z</time></trkpt><trkpt lat="43.7845633" lon="12.49691"><ele>273.5</ele><time>2026-04-26T09:40:06.534Z</time></trkpt><trkpt lat="43.7846467" lon="12.4969567"><ele>272.3333333333333</ele><time>2026-04-26T09:40:07.534Z</time></trkpt><trkpt lat="43.7847233" lon="12.4969967"><ele>271.1666666666667</ele><time>2026-04-26T09:40:08.534Z</time></trkpt><trkpt lat="43.784795" lon="12.4970433"><ele>270.0</ele><time>2026-04-26T09:40:09.534Z</time></trkpt><trkpt lat="43.7848617" lon="12.4970817"><ele>270.0</ele><time>2026-04-26T09:40:10.534Z</time></trkpt><trkpt lat="43.78493" lon="12.4971133"><ele>270.0</ele><time>2026-04-26T09:40:11.533Z</time></trkpt><trkpt lat="43.784995" lon="12.4971183"><ele>270.0</ele><time>2026-04-26T09:40:12.535Z</time></trkpt><trkpt lat="43.7850583" lon="12.4971183"><ele>270.0</ele><time>2026-04-26T09:40:13.535Z</time></trkpt><trkpt lat="43.7851333" lon="12.497085"><ele>270.0</ele><time>2026-04-26T09:40:14.534Z</time></trkpt><trkpt lat="43.7852033" lon="12.497025"><ele>270.0</ele><time>2026-04-26T09:40:15.533Z</time></trkpt><trkpt lat="43.7852683" lon="12.496975"><ele>270.0</ele><time>2026-04-26T09:40:16.534Z</time></trkpt><trkpt lat="43.7853333" lon="12.4969167"><ele>266.8</ele><time>2026-04-26T09:40:17.535Z</time></trkpt><trkpt lat="43.7854" lon="12.496865"><ele>263.6</ele><time>2026-04-26T09:40:18.535Z</time></trkpt><trkpt lat="43.7855117" lon="12.4967917"><ele>260.4</ele><time>2026-04-26T09:40:20.534Z</time></trkpt><trkpt lat="43.78558" lon="12.4967667"><ele>257.2</ele><time>2026-04-26T09:40:21.536Z</time></trkpt><trkpt lat="43.78567" lon="12.4967567"><ele>254.0</ele><time>2026-04-26T09:40:22.534Z</time></trkpt><trkpt lat="43.7857767" lon="12.4967467"><ele>254.0</ele><time>2026-04-26T09:40:23.534Z</time></trkpt><trkpt lat="43.7858717" lon="12.496725"><ele>253.99999999999997</ele><time>2026-04-26T09:40:24.534Z</time></trkpt><trkpt lat="43.7859833" lon="12.496705"><ele>253.99999999999997</ele><time>2026-04-26T09:40:25.535Z</time></trkpt><trkpt lat="43.7861017" lon="12.4967"><ele>254.0</ele><time>2026-04-26T09:40:26.536Z</time></trkpt><trkpt lat="43.7862083" lon="12.4967117"><ele>254.0</ele><time>2026-04-26T09:40:27.535Z</time></trkpt><trkpt lat="43.7863167" lon="12.496735"><ele>252.0</ele><time>2026-04-26T09:40:28.537Z</time></trkpt><trkpt lat="43.7864133" lon="12.49676"><ele>249.99999999999997</ele><time>2026-04-26T09:40:29.536Z</time></trkpt><trkpt lat="43.786495" lon="12.49678"><ele>247.99999999999997</ele><time>2026-04-26T09:40:30.537Z</time></trkpt><trkpt lat="43.7865617" lon="12.4967917"><ele>246.0</ele><time>2026-04-26T09:40:31.538Z</time></trkpt><trkpt lat="43.786665" lon="12.496775"><ele>244.0</ele><time>2026-04-26T09:40:33.537Z</time></trkpt><trkpt lat="43.7867467" lon="12.4966717"><ele>243.99999999999997</ele><time>2026-04-26T09:40:35.537Z</time></trkpt><trkpt lat="43.786785" lon="12.4965817"><ele>244.0</ele><time>2026-04-26T09:40:36.534Z</time></trkpt><trkpt lat="43.78682" lon="12.496485"><ele>243.99999999999997</ele><time>2026-04-26T09:40:37.535Z</time></trkpt><trkpt lat="43.78686" lon="12.49641"><ele>243.99999999999997</ele><time>2026-04-26T09:40:38.537Z</time></trkpt><trkpt lat="43.7869083" lon="12.4963483"><ele>244.0</ele><time>2026-04-26T09:40:39.534Z</time></trkpt><trkpt lat="43.7869617" lon="12.4963"><ele>243.99999999999997</ele><time>2026-04-26T09:40:40.533Z</time></trkpt><trkpt lat="43.7870233" lon="12.4962733"><ele>243.99999999999997</ele><time>2026-04-26T09:40:41.534Z</time></trkpt><trkpt lat="43.7870867" lon="12.4962567"><ele>238.99999999999997</ele><time>2026-04-26T09:40:42.533Z</time></trkpt><trkpt lat="43.7871533" lon="12.4962433"><ele>234.0</ele><time>2026-04-26T09:40:43.536Z</time></trkpt><trkpt lat="43.7872233" lon="12.4962333"><ele>229.0</ele><time>2026-04-26T09:40:44.536Z</time></trkpt><trkpt lat="43.7872983" lon="12.4962267"><ele>224.0</ele><time>2026-04-26T09:40:45.533Z</time></trkpt><trkpt lat="43.787375" lon="12.49623"><ele>218.99999999999997</ele><time>2026-04-26T09:40:46.534Z</time></trkpt><trkpt lat="43.7874583" lon="12.49624"><ele>214.0</ele><time>2026-04-26T09:40:47.534Z</time></trkpt><trkpt lat="43.7875533" lon="12.4962467"><ele>214.0</ele><time>2026-04-26T09:40:48.533Z</time></trkpt><trkpt lat="43.7876533" lon="12.4962517"><ele>213.99999999999997</ele><time>2026-04-26T09:40:49.534Z</time></trkpt><trkpt lat="43.7877483" lon="12.4962467"><ele>213.99999999999997</ele><time>2026-04-26T09:40:50.533Z</time></trkpt><trkpt lat="43.7878467" lon="12.496245"><ele>214.0</ele><time>2026-04-26T09:40:51.534Z</time></trkpt><trkpt lat="43.7879433" lon="12.49624"><ele>214.0</ele><time>2026-04-26T09:40:52.537Z</time></trkpt><trkpt lat="43.78804" lon="12.4962383"><ele>212.79999999999998</ele><time>2026-04-26T09:40:53.534Z</time></trkpt><trkpt lat="43.7881333" lon="12.4962333"><ele>211.59999999999997</ele><time>2026-04-26T09:40:54.535Z</time></trkpt><trkpt lat="43.7882167" lon="12.49624"><ele>210.4</ele><time>2026-04-26T09:40:55.534Z</time></trkpt><trkpt lat="43.7882967" lon="12.496225"><ele>209.2</ele><time>2026-04-26T09:40:56.533Z</time></trkpt><trkpt lat="43.7883683" lon="12.496195"><ele>208.0</ele><time>2026-04-26T09:40:57.534Z</time></trkpt><trkpt lat="43.7884683" lon="12.496095"><ele>207.33333333333331</ele><time>2026-04-26T09:40:59.534Z</time></trkpt><trkpt lat="43.7885217" lon="12.4960117"><ele>206.66666666666666</ele><time>2026-04-26T09:41:00.533Z</time></trkpt><trkpt lat="43.7885767" lon="12.4959217"><ele>206.0</ele><time>2026-04-26T09:41:01.534Z</time></trkpt><trkpt lat="43.788625" lon="12.4958333"><ele>205.33333333333331</ele><time>2026-04-26T09:41:02.537Z</time></trkpt><trkpt lat="43.788675" lon="12.4957517"><ele>204.66666666666666</ele><time>2026-04-26T09:41:03.536Z</time></trkpt><trkpt lat="43.7887233" lon="12.495675"><ele>204.0</ele><time>2026-04-26T09:41:04.537Z</time></trkpt><trkpt lat="43.7887833" lon="12.4955983"><ele>204.0</ele><time>2026-04-26T09:41:05.533Z</time></trkpt><trkpt lat="43.7888483" lon="12.495545"><ele>204.0</ele><time>2026-04-26T09:41:06.533Z</time></trkpt><trkpt lat="43.7889117" lon="12.49552"><ele>204.0</ele><time>2026-04-26T09:41:07.535Z</time></trkpt><trkpt lat="43.788975" lon="12.4955133"><ele>204.0</ele><time>2026-04-26T09:41:08.533Z</time></trkpt><trkpt lat="43.7890433" lon="12.4955367"><ele>204.0</ele><time>2026-04-26T09:41:09.533Z</time></trkpt><trkpt lat="43.7891183" lon="12.49558"><ele>204.0</ele><time>2026-04-26T09:41:10.533Z</time></trkpt><trkpt lat="43.789185" lon="12.495635"><ele>204.0</ele><time>2026-04-26T09:41:11.534Z</time></trkpt><trkpt lat="43.7893083" lon="12.4957383"><ele>202.25</ele><time>2026-04-26T09:41:12.533Z</time></trkpt><trkpt lat="43.7894467" lon="12.495835"><ele>200.5</ele><time>2026-04-26T09:41:13.533Z</time></trkpt><trkpt lat="43.7895683" lon="12.4959117"><ele>198.75</ele><time>2026-04-26T09:41:14.533Z</time></trkpt><trkpt lat="43.7896917" lon="12.4959867"><ele>197.0</ele><time>2026-04-26T09:41:15.533Z</time></trkpt><trkpt lat="43.7897867" lon="12.4960433"><ele>197.0</ele><time>2026-04-26T09:41:16.532Z</time></trkpt><trkpt lat="43.789875" lon="12.4961017"><ele>197.0</ele><time>2026-04-26T09:41:17.533Z</time></trkpt><trkpt lat="43.789945" lon="12.4961617"><ele>197.0</ele><time>2026-04-26T09:41:18.533Z</time></trkpt><trkpt lat="43.790015" lon="12.496235"><ele>197.0</ele><time>2026-04-26T09:41:19.536Z</time></trkpt><trkpt lat="43.7901033" lon="12.4963217"><ele>197.0</ele><time>2026-04-26T09:41:20.533Z</time></trkpt><trkpt lat="43.790185" lon="12.4963567"><ele>196.66666666666669</ele><time>2026-04-26T09:41:21.535Z</time></trkpt><trkpt lat="43.7902733" lon="12.4963667"><ele>196.33333333333334</ele><time>2026-04-26T09:41:22.534Z</time></trkpt><trkpt lat="43.79035" lon="12.4963717"><ele>196.0</ele><time>2026-04-26T09:41:23.534Z</time></trkpt><trkpt lat="43.7904233" lon="12.496385"><ele>195.66666666666669</ele><time>2026-04-26T09:41:24.533Z</time></trkpt><trkpt lat="43.7905" lon="12.49641"><ele>195.33333333333334</ele><time>2026-04-26T09:41:25.533Z</time></trkpt><trkpt lat="43.79058" lon="12.496455"><ele>195.0</ele><time>2026-04-26T09:41:26.533Z</time></trkpt><trkpt lat="43.7906467" lon="12.4965333"><ele>195.0</ele><time>2026-04-26T09:41:27.534Z</time></trkpt><trkpt lat="43.7907" lon="12.4966133"><ele>195.0</ele><time>2026-04-26T09:41:28.533Z</time></trkpt><trkpt lat="43.790735" lon="12.4966917"><ele>195.0</ele><time>2026-04-26T09:41:29.534Z</time></trkpt><trkpt lat="43.7907883" lon="12.496795"><ele>195.0</ele><time>2026-04-26T09:41:31.532Z</time></trkpt><trkpt lat="43.7908683" lon="12.4967333"><ele>195.0</ele><time>2026-04-26T09:41:34.533Z</time></trkpt><trkpt lat="43.7908967" lon="12.49665"><ele>195.0</ele><time>2026-04-26T09:41:35.535Z</time></trkpt><trkpt lat="43.7909267" lon="12.4965683"><ele>195.0</ele><time>2026-04-26T09:41:36.537Z</time></trkpt><trkpt lat="43.79095" lon="12.4964583"><ele>195.0</ele><time>2026-04-26T09:41:37.536Z</time></trkpt><trkpt lat="43.7909883" lon="12.496315"><ele>195.0</ele><time>2026-04-26T09:41:38.533Z</time></trkpt><trkpt lat="43.7910417" lon="12.4961483"><ele>195.0</ele><time>2026-04-26T09:41:39.537Z</time></trkpt><trkpt lat="43.791095" lon="12.4959883"><ele>195.5</ele><time>2026-04-26T09:41:40.536Z</time></trkpt><trkpt lat="43.7911567" lon="12.4958183"><ele>196.0</ele><time>2026-04-26T09:41:41.536Z</time></trkpt><trkpt lat="43.7912117" lon="12.4956433"><ele>196.5</ele><time>2026-04-26T09:41:42.536Z</time></trkpt><trkpt lat="43.7912483" lon="12.495485"><ele>197.0</ele><time>2026-04-26T09:41:43.536Z</time></trkpt><trkpt lat="43.79127" lon="12.4953283"><ele>197.0</ele><time>2026-04-26T09:41:44.537Z</time></trkpt><trkpt lat="43.7912683" lon="12.495175"><ele>197.0</ele><time>2026-04-26T09:41:45.536Z</time></trkpt><trkpt lat="43.79124" lon="12.4950333"><ele>197.0</ele><time>2026-04-26T09:41:46.534Z</time></trkpt><trkpt lat="43.7912017" lon="12.494895"><ele>197.0</ele><time>2026-04-26T09:41:47.534Z</time></trkpt><trkpt lat="43.7911733" lon="12.4947533"><ele>197.0</ele><time>2026-04-26T09:41:48.538Z</time></trkpt><trkpt lat="43.791165" lon="12.4946067"><ele>199.2</ele><time>2026-04-26T09:41:49.534Z</time></trkpt><trkpt lat="43.7911783" lon="12.4944633"><ele>201.39999999999998</ele><time>2026-04-26T09:41:50.533Z</time></trkpt><trkpt lat="43.79121" lon="12.4943217"><ele>203.60000000000002</ele><time>2026-04-26T09:41:51.533Z</time></trkpt><trkpt lat="43.7912383" lon="12.49418"><ele>205.8</ele><time>2026-04-26T09:41:52.532Z</time></trkpt><trkpt lat="43.7912583" lon="12.4940317"><ele>208.0</ele><time>2026-04-26T09:41:53.536Z</time></trkpt><trkpt lat="43.79128" lon="12.4938833"><ele>209.4</ele><time>2026-04-26T09:41:54.537Z</time></trkpt><trkpt lat="43.7913" lon="12.4937317"><ele>210.8</ele><time>2026-04-26T09:41:55.537Z</time></trkpt><trkpt lat="43.7913167" lon="12.4935883"><ele>212.2</ele><time>2026-04-26T09:41:56.536Z</time></trkpt><trkpt lat="43.791335" lon="12.4934567"><ele>213.6</ele><time>2026-04-26T09:41:57.533Z</time></trkpt><trkpt lat="43.7913483" lon="12.49335"><ele>215.0</ele><time>2026-04-26T09:41:58.534Z</time></trkpt><trkpt lat="43.79136" lon="12.4932633"><ele>215.00000000000003</ele><time>2026-04-26T09:41:59.535Z</time></trkpt><trkpt lat="43.7914183" lon="12.493215"><ele>215.0</ele><time>2026-04-26T09:42:01.534Z</time></trkpt><trkpt lat="43.7914833" lon="12.49328"><ele>215.0</ele><time>2026-04-26T09:42:03.532Z</time></trkpt><trkpt lat="43.7915833" lon="12.493375"><ele>215.0</ele><time>2026-04-26T09:42:05.534Z</time></trkpt><trkpt lat="43.79165" lon="12.493415"><ele>215.00000000000003</ele><time>2026-04-26T09:42:06.536Z</time></trkpt><trkpt lat="43.7917233" lon="12.493435"><ele>215.0</ele><time>2026-04-26T09:42:07.536Z</time></trkpt><trkpt lat="43.7917933" lon="12.4934367"><ele>215.00000000000003</ele><time>2026-04-26T09:42:08.533Z</time></trkpt><trkpt lat="43.7918583" lon="12.4934133"><ele>215.0</ele><time>2026-04-26T09:42:09.536Z</time></trkpt><trkpt lat="43.791925" lon="12.4932867"><ele>215.0</ele><time>2026-04-26T09:42:11.537Z</time></trkpt><trkpt lat="43.7919183" lon="12.4931833"><ele>215.0</ele><time>2026-04-26T09:42:12.537Z</time></trkpt><trkpt lat="43.791885" lon="12.493065"><ele>215.00000000000003</ele><time>2026-04-26T09:42:13.536Z</time></trkpt><trkpt lat="43.7918367" lon="12.492945"><ele>215.0</ele><time>2026-04-26T09:42:14.536Z</time></trkpt><trkpt lat="43.7918017" lon="12.4928333"><ele>215.57142857142856</ele><time>2026-04-26T09:42:15.536Z</time></trkpt><trkpt lat="43.7917783" lon="12.49273"><ele>216.14285714285717</ele><time>2026-04-26T09:42:16.536Z</time></trkpt><trkpt lat="43.7917817" lon="12.492635"><ele>216.71428571428572</ele><time>2026-04-26T09:42:17.536Z</time></trkpt><trkpt lat="43.7918033" lon="12.4925467"><ele>217.28571428571428</ele><time>2026-04-26T09:42:18.538Z</time></trkpt><trkpt lat="43.7918367" lon="12.49247"><ele>217.85714285714283</ele><time>2026-04-26T09:42:19.537Z</time></trkpt><trkpt lat="43.7918783" lon="12.4924017"><ele>218.42857142857144</ele><time>2026-04-26T09:42:20.536Z</time></trkpt><trkpt lat="43.7919383" lon="12.4923633"><ele>219.0</ele><time>2026-04-26T09:42:21.538Z</time></trkpt><trkpt lat="43.792005" lon="12.4923617"><ele>219.0</ele><time>2026-04-26T09:42:22.536Z</time></trkpt><trkpt lat="43.7921167" lon="12.4924033"><ele>219.0</ele><time>2026-04-26T09:42:24.537Z</time></trkpt><trkpt lat="43.7921983" lon="12.4924233"><ele>219.0</ele><time>2026-04-26T09:42:26.536Z</time></trkpt><trkpt lat="43.79228" lon="12.4924583"><ele>219.0</ele><time>2026-04-26T09:42:47.537Z</time></trkpt><trkpt lat="43.792285" lon="12.4925683"><ele>219.0</ele><time>2026-04-26T09:42:50.538Z</time></trkpt><trkpt lat="43.79226" lon="12.4926717"><ele>219.0</ele><time>2026-04-26T09:42:53.533Z</time></trkpt><trkpt lat="43.79227" lon="12.4927717"><ele>219.0</ele><time>2026-04-26T09:42:56.536Z</time></trkpt><trkpt lat="43.7922217" lon="12.4928383"><ele>219.0</ele><time>2026-04-26T09:48:42.534Z</time></trkpt><trkpt lat="43.7922233" lon="12.4927"><ele>219.0</ele><time>2026-04-26T09:50:11.537Z</time></trkpt><trkpt lat="43.79226" lon="12.49258"><ele>219.0</ele><time>2026-04-26T09:50:13.537Z</time></trkpt><trkpt lat="43.7923017" lon="12.49247"><ele>219.0</ele><time>2026-04-26T09:50:15.536Z</time></trkpt><trkpt lat="43.792355" lon="12.492415"><ele>219.0</ele><time>2026-04-26T09:50:23.536Z</time></trkpt><trkpt lat="43.792425" lon="12.4924117"><ele>219.0</ele><time>2026-04-26T09:50:24.537Z</time></trkpt><trkpt lat="43.792515" lon="12.4924183"><ele>219.0</ele><time>2026-04-26T09:50:25.536Z</time></trkpt><trkpt lat="43.7926333" lon="12.49243"><ele>219.0</ele><time>2026-04-26T09:50:26.537Z</time></trkpt><trkpt lat="43.7928033" lon="12.4924617"><ele>219.0</ele><time>2026-04-26T09:50:27.537Z</time></trkpt><trkpt lat="43.7929867" lon="12.4924967"><ele>217.66666666666669</ele><time>2026-04-26T09:50:28.536Z</time></trkpt><trkpt lat="43.7931733" lon="12.49253"><ele>216.33333333333334</ele><time>2026-04-26T09:50:29.537Z</time></trkpt><trkpt lat="43.793355" lon="12.4925617"><ele>215.0</ele><time>2026-04-26T09:50:30.537Z</time></trkpt><trkpt lat="43.7935417" lon="12.49259"><ele>213.66666666666669</ele><time>2026-04-26T09:50:31.537Z</time></trkpt><trkpt lat="43.7937283" lon="12.49262"><ele>212.33333333333331</ele><time>2026-04-26T09:50:32.537Z</time></trkpt><trkpt lat="43.7939117" lon="12.49265"><ele>211.0</ele><time>2026-04-26T09:50:33.537Z</time></trkpt><trkpt lat="43.794085" lon="12.49268"><ele>211.0</ele><time>2026-04-26T09:50:34.54Z</time></trkpt><trkpt lat="43.7942417" lon="12.4927117"><ele>211.0</ele><time>2026-04-26T09:50:35.536Z</time></trkpt><trkpt lat="43.7943967" lon="12.49274"><ele>211.0</ele><time>2026-04-26T09:50:36.536Z</time></trkpt><trkpt lat="43.794555" lon="12.4927633"><ele>211.0</ele><time>2026-04-26T09:50:37.537Z</time></trkpt><trkpt lat="43.794715" lon="12.49279"><ele>211.0</ele><time>2026-04-26T09:50:38.536Z</time></trkpt><trkpt lat="43.794875" lon="12.4928167"><ele>211.0</ele><time>2026-04-26T09:50:39.536Z</time></trkpt><trkpt lat="43.79503" lon="12.4928433"><ele>210.0</ele><time>2026-04-26T09:50:40.537Z</time></trkpt><trkpt lat="43.795175" lon="12.4928683"><ele>209.0</ele><time>2026-04-26T09:50:41.537Z</time></trkpt><trkpt lat="43.7953067" lon="12.4928933"><ele>208.0</ele><time>2026-04-26T09:50:42.536Z</time></trkpt><trkpt lat="43.7954267" lon="12.4929183"><ele>207.0</ele><time>2026-04-26T09:50:43.537Z</time></trkpt><trkpt lat="43.7955383" lon="12.492945"><ele>207.0</ele><time>2026-04-26T09:50:44.538Z</time></trkpt><trkpt lat="43.7956433" lon="12.4929717"><ele>207.0</ele><time>2026-04-26T09:50:45.536Z</time></trkpt><trkpt lat="43.7957433" lon="12.4929967"><ele>207.0</ele><time>2026-04-26T09:50:46.536Z</time></trkpt><trkpt lat="43.7958467" lon="12.49301"><ele>207.0</ele><time>2026-04-26T09:50:47.533Z</time></trkpt><trkpt lat="43.7959533" lon="12.49299"><ele>207.0</ele><time>2026-04-26T09:50:48.534Z</time></trkpt><trkpt lat="43.79606" lon="12.492935"><ele>211.0</ele><time>2026-04-26T09:50:49.536Z</time></trkpt><trkpt lat="43.7961617" lon="12.49284"><ele>215.0</ele><time>2026-04-26T09:50:50.537Z</time></trkpt><trkpt lat="43.79627" lon="12.4927083"><ele>219.0</ele><time>2026-04-26T09:50:51.536Z</time></trkpt><trkpt lat="43.7963717" lon="12.4925633"><ele>223.0</ele><time>2026-04-26T09:50:52.537Z</time></trkpt><trkpt lat="43.7964717" lon="12.4924283"><ele>223.0</ele><time>2026-04-26T09:50:53.534Z</time></trkpt><trkpt lat="43.796575" lon="12.492305"><ele>223.0</ele><time>2026-04-26T09:50:54.536Z</time></trkpt><trkpt lat="43.7966883" lon="12.4921983"><ele>223.0</ele><time>2026-04-26T09:50:55.541Z</time></trkpt><trkpt lat="43.7968083" lon="12.4921067"><ele>223.0</ele><time>2026-04-26T09:50:56.532Z</time></trkpt><trkpt lat="43.7969417" lon="12.492015"><ele>232.33333333333331</ele><time>2026-04-26T09:50:57.534Z</time></trkpt><trkpt lat="43.7970883" lon="12.4919267"><ele>241.66666666666669</ele><time>2026-04-26T09:50:58.537Z</time></trkpt><trkpt lat="43.7972483" lon="12.4918183"><ele>251.0</ele><time>2026-04-26T09:50:59.536Z</time></trkpt><trkpt lat="43.7973983" lon="12.4917217"><ele>251.0</ele><time>2026-04-26T09:51:00.54Z</time></trkpt><trkpt lat="43.79753" lon="12.4916317"><ele>251.0</ele><time>2026-04-26T09:51:01.534Z</time></trkpt><trkpt lat="43.7976483" lon="12.4915667"><ele>251.0</ele><time>2026-04-26T09:51:02.536Z</time></trkpt><trkpt lat="43.7977583" lon="12.4915483"><ele>251.0</ele><time>2026-04-26T09:51:03.536Z</time></trkpt><trkpt lat="43.79785" lon="12.4915817"><ele>252.4</ele><time>2026-04-26T09:51:04.536Z</time></trkpt><trkpt lat="43.79794" lon="12.4916467"><ele>253.8</ele><time>2026-04-26T09:51:05.537Z</time></trkpt><trkpt lat="43.79801" lon="12.49176"><ele>255.20000000000002</ele><time>2026-04-26T09:51:06.535Z</time></trkpt><trkpt lat="43.79804" lon="12.4918917"><ele>256.6</ele><time>2026-04-26T09:51:07.534Z</time></trkpt><trkpt lat="43.7980917" lon="12.491985"><ele>258.0</ele><time>2026-04-26T09:51:08.534Z</time></trkpt><trkpt lat="43.798135" lon="12.49208"><ele>258.0</ele><time>2026-04-26T09:51:09.535Z</time></trkpt><trkpt lat="43.7981917" lon="12.4921533"><ele>258.0</ele><time>2026-04-26T09:51:10.537Z</time></trkpt><trkpt lat="43.7982617" lon="12.49218"><ele>258.0</ele><time>2026-04-26T09:51:11.533Z</time></trkpt><trkpt lat="43.79835" lon="12.4921533"><ele>258.0</ele><time>2026-04-26T09:51:12.536Z</time></trkpt><trkpt lat="43.7984467" lon="12.4920533"><ele>258.0</ele><time>2026-04-26T09:51:13.537Z</time></trkpt><trkpt lat="43.7985483" lon="12.4919183"><ele>260.0</ele><time>2026-04-26T09:51:14.534Z</time></trkpt><trkpt lat="43.7986583" lon="12.4917183"><ele>262.0</ele><time>2026-04-26T09:51:15.535Z</time></trkpt><trkpt lat="43.798785" lon="12.49151"><ele>264.0</ele><time>2026-04-26T09:51:16.535Z</time></trkpt><trkpt lat="43.7988917" lon="12.491315"><ele>266.5</ele><time>2026-04-26T09:51:17.534Z</time></trkpt><trkpt lat="43.79898" lon="12.4911367"><ele>269.0</ele><time>2026-04-26T09:51:18.534Z</time></trkpt><trkpt lat="43.79906" lon="12.4909767"><ele>271.5</ele><time>2026-04-26T09:51:19.536Z</time></trkpt><trkpt lat="43.7991317" lon="12.4908333"><ele>274.0</ele><time>2026-04-26T09:51:20.534Z</time></trkpt><trkpt lat="43.7991933" lon="12.49071"><ele>274.0</ele><time>2026-04-26T09:51:21.534Z</time></trkpt><trkpt lat="43.7992717" lon="12.4906083"><ele>274.0</ele><time>2026-04-26T09:51:22.536Z</time></trkpt><trkpt lat="43.79936" lon="12.4905117"><ele>274.0</ele><time>2026-04-26T09:51:23.534Z</time></trkpt><trkpt lat="43.79946" lon="12.4904117"><ele>274.0</ele><time>2026-04-26T09:51:24.536Z</time></trkpt><trkpt lat="43.7995733" lon="12.4903083"><ele>276.5</ele><time>2026-04-26T09:51:25.535Z</time></trkpt><trkpt lat="43.7996967" lon="12.490195"><ele>279.0</ele><time>2026-04-26T09:51:26.535Z</time></trkpt><trkpt lat="43.7998167" lon="12.490085"><ele>281.5</ele><time>2026-04-26T09:51:27.534Z</time></trkpt><trkpt lat="43.7999133" lon="12.4899967"><ele>284.0</ele><time>2026-04-26T09:51:28.536Z</time></trkpt><trkpt lat="43.799985" lon="12.4899233"><ele>284.0</ele><time>2026-04-26T09:51:29.536Z</time></trkpt><trkpt lat="43.8000517" lon="12.489835"><ele>284.0</ele><time>2026-04-26T09:51:31.536Z</time></trkpt><trkpt lat="43.8000483" lon="12.4896767"><ele>284.0</ele><time>2026-04-26T09:51:47.533Z</time></trkpt><trkpt lat="43.800065" lon="12.48957"><ele>284.0</ele><time>2026-04-26T09:51:48.534Z</time></trkpt><trkpt lat="43.8000767" lon="12.4894417"><ele>284.0</ele><time>2026-04-26T09:51:49.535Z</time></trkpt><trkpt lat="43.8000767" lon="12.4893033"><ele>285.59999999999997</ele><time>2026-04-26T09:51:50.533Z</time></trkpt><trkpt lat="43.8000667" lon="12.4891683"><ele>287.2</ele><time>2026-04-26T09:51:51.533Z</time></trkpt><trkpt lat="43.8000483" lon="12.4890367"><ele>288.79999999999995</ele><time>2026-04-26T09:51:52.534Z</time></trkpt><trkpt lat="43.800025" lon="12.4889117"><ele>290.4</ele><time>2026-04-26T09:51:53.533Z</time></trkpt><trkpt lat="43.799985" lon="12.4887917"><ele>292.0</ele><time>2026-04-26T09:51:54.533Z</time></trkpt><trkpt lat="43.7999367" lon="12.488665"><ele>294.4</ele><time>2026-04-26T09:51:55.537Z</time></trkpt><trkpt lat="43.7999033" lon="12.4885267"><ele>296.79999999999995</ele><time>2026-04-26T09:51:56.533Z</time></trkpt><trkpt lat="43.7998817" lon="12.4883833"><ele>299.2</ele><time>2026-04-26T09:51:57.532Z</time></trkpt><trkpt lat="43.7998633" lon="12.4882683"><ele>301.59999999999997</ele><time>2026-04-26T09:51:58.537Z</time></trkpt><trkpt lat="43.7998517" lon="12.4881767"><ele>304.0</ele><time>2026-04-26T09:51:59.536Z</time></trkpt><trkpt lat="43.799825" lon="12.4880433"><ele>304.0</ele><time>2026-04-26T09:52:01.537Z</time></trkpt><trkpt lat="43.7997" lon="12.4879767"><ele>304.0</ele><time>2026-04-26T09:52:03.536Z</time></trkpt><trkpt lat="43.7996183" lon="12.4879267"><ele>304.0</ele><time>2026-04-26T09:52:04.536Z</time></trkpt><trkpt lat="43.799545" lon="12.48788"><ele>304.0</ele><time>2026-04-26T09:52:05.533Z</time></trkpt><trkpt lat="43.799485" lon="12.4878183"><ele>304.0</ele><time>2026-04-26T09:52:06.536Z</time></trkpt><trkpt lat="43.799435" lon="12.4877483"><ele>307.16666666666663</ele><time>2026-04-26T09:52:07.536Z</time></trkpt><trkpt lat="43.7994017" lon="12.4876633"><ele>310.3333333333333</ele><time>2026-04-26T09:52:08.534Z</time></trkpt><trkpt lat="43.7993917" lon="12.4875667"><ele>313.5</ele><time>2026-04-26T09:52:09.534Z</time></trkpt><trkpt lat="43.7993867" lon="12.4874717"><ele>316.6666666666667</ele><time>2026-04-26T09:52:10.535Z</time></trkpt><trkpt lat="43.7994517" lon="12.4873733"><ele>319.83333333333337</ele><time>2026-04-26T09:52:11.537Z</time></trkpt><trkpt lat="43.79951" lon="12.4872783"><ele>323.0</ele><time>2026-04-26T09:52:12.534Z</time></trkpt><trkpt lat="43.7996433" lon="12.487185"><ele>323.0</ele><time>2026-04-26T09:52:13.534Z</time></trkpt><trkpt lat="43.79977" lon="12.4871183"><ele>323.0</ele><time>2026-04-26T09:52:14.533Z</time></trkpt><trkpt lat="43.7998533" lon="12.487075"><ele>323.0</ele><time>2026-04-26T09:52:15.536Z</time></trkpt><trkpt lat="43.7999583" lon="12.4870583"><ele>323.0</ele><time>2026-04-26T09:52:16.536Z</time></trkpt><trkpt lat="43.8000483" lon="12.4870833"><ele>323.0</ele><time>2026-04-26T09:52:17.534Z</time></trkpt><trkpt lat="43.8001433" lon="12.4871383"><ele>323.83333333333337</ele><time>2026-04-26T09:52:18.537Z</time></trkpt><trkpt lat="43.8002283" lon="12.4871917"><ele>324.6666666666667</ele><time>2026-04-26T09:52:19.536Z</time></trkpt><trkpt lat="43.8003067" lon="12.4872333"><ele>325.5</ele><time>2026-04-26T09:52:20.535Z</time></trkpt><trkpt lat="43.8003717" lon="12.48725"><ele>326.3333333333333</ele><time>2026-04-26T09:52:21.535Z</time></trkpt><trkpt lat="43.800435" lon="12.4872467"><ele>327.16666666666663</ele><time>2026-04-26T09:52:22.536Z</time></trkpt><trkpt lat="43.8004883" lon="12.487175"><ele>328.0</ele><time>2026-04-26T09:52:24.535Z</time></trkpt><trkpt lat="43.8004767" lon="12.48704"><ele>328.0</ele><time>2026-04-26T09:52:26.535Z</time></trkpt><trkpt lat="43.800455" lon="12.4869433"><ele>328.0</ele><time>2026-04-26T09:52:27.535Z</time></trkpt><trkpt lat="43.8004233" lon="12.4868267"><ele>328.0</ele><time>2026-04-26T09:52:28.537Z</time></trkpt><trkpt lat="43.8003767" lon="12.4866983"><ele>328.0</ele><time>2026-04-26T09:52:29.537Z</time></trkpt><trkpt lat="43.80033" lon="12.4865617"><ele>328.0</ele><time>2026-04-26T09:52:30.537Z</time></trkpt><trkpt lat="43.8003017" lon="12.48642"><ele>328.0</ele><time>2026-04-26T09:52:31.537Z</time></trkpt><trkpt lat="43.800285" lon="12.4862683"><ele>328.0</ele><time>2026-04-26T09:52:32.537Z</time></trkpt><trkpt lat="43.8002667" lon="12.48611"><ele>328.0</ele><time>2026-04-26T09:52:33.536Z</time></trkpt><trkpt lat="43.8002483" lon="12.4859383"><ele>328.0</ele><time>2026-04-26T09:52:34.537Z</time></trkpt><trkpt lat="43.8002217" lon="12.4857567"><ele>329.25</ele><time>2026-04-26T09:52:35.537Z</time></trkpt><trkpt lat="43.8001933" lon="12.4855667"><ele>330.5</ele><time>2026-04-26T09:52:36.536Z</time></trkpt><trkpt lat="43.800165" lon="12.4853833"><ele>331.75</ele><time>2026-04-26T09:52:37.537Z</time></trkpt><trkpt lat="43.80015" lon="12.48521"><ele>333.0</ele><time>2026-04-26T09:52:38.537Z</time></trkpt><trkpt lat="43.80014" lon="12.48505"><ele>338.8333333333333</ele><time>2026-04-26T09:52:39.537Z</time></trkpt><trkpt lat="43.8001333" lon="12.4849167"><ele>344.6666666666667</ele><time>2026-04-26T09:52:40.534Z</time></trkpt><trkpt lat="43.8001233" lon="12.4848133"><ele>350.5</ele><time>2026-04-26T09:52:41.536Z</time></trkpt><trkpt lat="43.8000733" lon="12.4846667"><ele>356.33333333333337</ele><time>2026-04-26T09:52:43.536Z</time></trkpt><trkpt lat="43.80004" lon="12.4845867"><ele>362.1666666666667</ele><time>2026-04-26T09:52:44.537Z</time></trkpt><trkpt lat="43.8000067" lon="12.4844867"><ele>368.0</ele><time>2026-04-26T09:52:45.537Z</time></trkpt><trkpt lat="43.7999767" lon="12.4843767"><ele>370.4</ele><time>2026-04-26T09:52:46.535Z</time></trkpt><trkpt lat="43.799945" lon="12.48426"><ele>372.79999999999995</ele><time>2026-04-26T09:52:47.536Z</time></trkpt><trkpt lat="43.7999217" lon="12.48413"><ele>375.2</ele><time>2026-04-26T09:52:48.534Z</time></trkpt><trkpt lat="43.7999017" lon="12.4839833"><ele>377.6</ele><time>2026-04-26T09:52:49.536Z</time></trkpt><trkpt lat="43.7998883" lon="12.4838267"><ele>380.0</ele><time>2026-04-26T09:52:50.533Z</time></trkpt><trkpt lat="43.7998767" lon="12.483665"><ele>383.6</ele><time>2026-04-26T09:52:51.535Z</time></trkpt><trkpt lat="43.7998667" lon="12.4835017"><ele>387.2</ele><time>2026-04-26T09:52:52.535Z</time></trkpt><trkpt lat="43.7998617" lon="12.4833367"><ele>390.79999999999995</ele><time>2026-04-26T09:52:53.536Z</time></trkpt><trkpt lat="43.7998667" lon="12.4831867"><ele>394.4</ele><time>2026-04-26T09:52:54.535Z</time></trkpt><trkpt lat="43.7998833" lon="12.4830683"><ele>398.0</ele><time>2026-04-26T09:52:55.535Z</time></trkpt><trkpt lat="43.799905" lon="12.48297"><ele>399.8333333333333</ele><time>2026-04-26T09:52:56.534Z</time></trkpt><trkpt lat="43.7999217" lon="12.48288"><ele>401.66666666666663</ele><time>2026-04-26T09:52:57.536Z</time></trkpt><trkpt lat="43.799935" lon="12.4827867"><ele>403.5</ele><time>2026-04-26T09:52:58.538Z</time></trkpt><trkpt lat="43.79994" lon="12.48268"><ele>405.33333333333337</ele><time>2026-04-26T09:52:59.537Z</time></trkpt><trkpt lat="43.7999317" lon="12.48256"><ele>407.1666666666667</ele><time>2026-04-26T09:53:00.537Z</time></trkpt><trkpt lat="43.7999133" lon="12.48242"><ele>409.0</ele><time>2026-04-26T09:53:01.536Z</time></trkpt><trkpt lat="43.7998833" lon="12.4822833"><ele>409.00000000000006</ele><time>2026-04-26T09:53:02.537Z</time></trkpt><trkpt lat="43.7998517" lon="12.4821483"><ele>409.0</ele><time>2026-04-26T09:53:03.536Z</time></trkpt><trkpt lat="43.79981" lon="12.4820233"><ele>409.0</ele><time>2026-04-26T09:53:04.536Z</time></trkpt><trkpt lat="43.7997617" lon="12.4819117"><ele>409.0</ele><time>2026-04-26T09:53:05.536Z</time></trkpt><trkpt lat="43.7997233" lon="12.4818167"><ele>409.00000000000006</ele><time>2026-04-26T09:53:06.536Z</time></trkpt><trkpt lat="43.7997" lon="12.48172"><ele>409.0</ele><time>2026-04-26T09:53:07.536Z</time></trkpt><trkpt lat="43.79969" lon="12.48161"><ele>410.83333333333337</ele><time>2026-04-26T09:53:08.536Z</time></trkpt><trkpt lat="43.7996833" lon="12.4814933"><ele>412.6666666666667</ele><time>2026-04-26T09:53:09.536Z</time></trkpt><trkpt lat="43.7996867" lon="12.4813867"><ele>414.5</ele><time>2026-04-26T09:53:10.537Z</time></trkpt><trkpt lat="43.7997" lon="12.4812783"><ele>416.33333333333337</ele><time>2026-04-26T09:53:11.535Z</time></trkpt><trkpt lat="43.7997167" lon="12.4811617"><ele>418.1666666666667</ele><time>2026-04-26T09:53:12.536Z</time></trkpt><trkpt lat="43.799735" lon="12.48105"><ele>420.0</ele><time>2026-04-26T09:53:13.536Z</time></trkpt><trkpt lat="43.7997333" lon="12.4809417"><ele>422.0</ele><time>2026-04-26T09:53:14.533Z</time></trkpt><trkpt lat="43.79972" lon="12.480845"><ele>424.0</ele><time>2026-04-26T09:53:15.534Z</time></trkpt><trkpt lat="43.799685" lon="12.4807517"><ele>426.0</ele><time>2026-04-26T09:53:16.534Z</time></trkpt><trkpt lat="43.7996333" lon="12.48065"><ele>428.0</ele><time>2026-04-26T09:53:17.534Z</time></trkpt><trkpt lat="43.7995683" lon="12.4805383"><ele>430.0</ele><time>2026-04-26T09:53:18.533Z</time></trkpt><trkpt lat="43.799505" lon="12.4804267"><ele>432.0</ele><time>2026-04-26T09:53:19.533Z</time></trkpt><trkpt lat="43.7994183" lon="12.4803267"><ele>428.75</ele><time>2026-04-26T09:53:20.533Z</time></trkpt><trkpt lat="43.7993483" lon="12.48022"><ele>425.5</ele><time>2026-04-26T09:53:21.533Z</time></trkpt><trkpt lat="43.7992867" lon="12.4801"><ele>422.25</ele><time>2026-04-26T09:53:22.533Z</time></trkpt><trkpt lat="43.7992117" lon="12.4799667"><ele>419.0</ele><time>2026-04-26T09:53:23.536Z</time></trkpt><trkpt lat="43.79913" lon="12.47983"><ele>419.0</ele><time>2026-04-26T09:53:24.535Z</time></trkpt><trkpt lat="43.7990433" lon="12.4797017"><ele>419.0</ele><time>2026-04-26T09:53:25.534Z</time></trkpt><trkpt lat="43.7989583" lon="12.4795783"><ele>419.0</ele><time>2026-04-26T09:53:26.533Z</time></trkpt><trkpt lat="43.798865" lon="12.47948"><ele>419.0</ele><time>2026-04-26T09:53:27.534Z</time></trkpt><trkpt lat="43.7987717" lon="12.4794"><ele>423.6</ele><time>2026-04-26T09:53:28.538Z</time></trkpt><trkpt lat="43.798695" lon="12.4793283"><ele>428.2</ele><time>2026-04-26T09:53:29.536Z</time></trkpt><trkpt lat="43.798635" lon="12.47924"><ele>432.80000000000007</ele><time>2026-04-26T09:53:30.536Z</time></trkpt><trkpt lat="43.7985883" lon="12.4791233"><ele>437.40000000000003</ele><time>2026-04-26T09:53:31.536Z</time></trkpt><trkpt lat="43.7985567" lon="12.4789767"><ele>442.0</ele><time>2026-04-26T09:53:32.536Z</time></trkpt><trkpt lat="43.7985267" lon="12.4788233"><ele>442.1666666666667</ele><time>2026-04-26T09:53:33.536Z</time></trkpt><trkpt lat="43.7985033" lon="12.4786783"><ele>442.33333333333337</ele><time>2026-04-26T09:53:34.537Z</time></trkpt><trkpt lat="43.7984833" lon="12.478555"><ele>442.5</ele><time>2026-04-26T09:53:35.538Z</time></trkpt><trkpt lat="43.7984833" lon="12.4784433"><ele>442.66666666666663</ele><time>2026-04-26T09:53:36.536Z</time></trkpt><trkpt lat="43.7984933" lon="12.478335"><ele>442.8333333333333</ele><time>2026-04-26T09:53:37.536Z</time></trkpt><trkpt lat="43.7985217" lon="12.47823"><ele>443.0</ele><time>2026-04-26T09:53:38.536Z</time></trkpt><trkpt lat="43.7985683" lon="12.47812"><ele>442.99999999999994</ele><time>2026-04-26T09:53:39.536Z</time></trkpt><trkpt lat="43.7986217" lon="12.4780167"><ele>443.0</ele><time>2026-04-26T09:53:40.536Z</time></trkpt><trkpt lat="43.7986733" lon="12.4779333"><ele>443.0</ele><time>2026-04-26T09:53:41.536Z</time></trkpt><trkpt lat="43.7987217" lon="12.4778633"><ele>443.0</ele><time>2026-04-26T09:53:42.536Z</time></trkpt><trkpt lat="43.7988267" lon="12.477785"><ele>442.99999999999994</ele><time>2026-04-26T09:53:44.536Z</time></trkpt><trkpt lat="43.798895" lon="12.477745"><ele>443.0</ele><time>2026-04-26T09:53:45.536Z</time></trkpt><trkpt lat="43.798985" lon="12.4777167"><ele>441.4</ele><time>2026-04-26T09:53:46.535Z</time></trkpt><trkpt lat="43.7991" lon="12.4776967"><ele>439.79999999999995</ele><time>2026-04-26T09:53:47.537Z</time></trkpt><trkpt lat="43.79921" lon="12.4776717"><ele>438.2</ele><time>2026-04-26T09:53:48.534Z</time></trkpt><trkpt lat="43.7993083" lon="12.4776417"><ele>436.6</ele><time>2026-04-26T09:53:49.535Z</time></trkpt><trkpt lat="43.7993967" lon="12.4776133"><ele>435.0</ele><time>2026-04-26T09:53:50.534Z</time></trkpt><trkpt lat="43.7994717" lon="12.47758"><ele>439.6</ele><time>2026-04-26T09:53:51.538Z</time></trkpt><trkpt lat="43.79955" lon="12.477485"><ele>444.2</ele><time>2026-04-26T09:53:53.536Z</time></trkpt><trkpt lat="43.7995517" lon="12.4773333"><ele>448.79999999999995</ele><time>2026-04-26T09:53:55.536Z</time></trkpt><trkpt lat="43.7995483" lon="12.477235"><ele>453.4</ele><time>2026-04-26T09:53:56.538Z</time></trkpt><trkpt lat="43.7995383" lon="12.477085"><ele>458.0</ele><time>2026-04-26T09:53:57.536Z</time></trkpt><trkpt lat="43.7995417" lon="12.4769217"><ele>459.79999999999995</ele><time>2026-04-26T09:53:58.541Z</time></trkpt><trkpt lat="43.7995483" lon="12.47677"><ele>461.59999999999997</ele><time>2026-04-26T09:53:59.536Z</time></trkpt><trkpt lat="43.7995617" lon="12.4766317"><ele>463.40000000000003</ele><time>2026-04-26T09:54:00.537Z</time></trkpt><trkpt lat="43.7995867" lon="12.4765017"><ele>465.20000000000005</ele><time>2026-04-26T09:54:01.536Z</time></trkpt><trkpt lat="43.799615" lon="12.476375"><ele>467.0</ele><time>2026-04-26T09:54:02.536Z</time></trkpt><trkpt lat="43.7996533" lon="12.4762517"><ele>468.40000000000003</ele><time>2026-04-26T09:54:03.537Z</time></trkpt><trkpt lat="43.7997" lon="12.4761333"><ele>469.80000000000007</ele><time>2026-04-26T09:54:04.536Z</time></trkpt><trkpt lat="43.79975" lon="12.476025"><ele>471.2</ele><time>2026-04-26T09:54:05.536Z</time></trkpt><trkpt lat="43.7997967" lon="12.4759333"><ele>472.6</ele><time>2026-04-26T09:54:06.538Z</time></trkpt><trkpt lat="43.7998333" lon="12.4758417"><ele>474.0</ele><time>2026-04-26T09:54:07.537Z</time></trkpt><trkpt lat="43.7998317" lon="12.4756783"><ele>474.0</ele><time>2026-04-26T09:54:09.536Z</time></trkpt><trkpt lat="43.79979" lon="12.4755883"><ele>474.0</ele><time>2026-04-26T09:54:10.537Z</time></trkpt><trkpt lat="43.799725" lon="12.47549"><ele>474.0</ele><time>2026-04-26T09:54:11.538Z</time></trkpt><trkpt lat="43.799635" lon="12.4753683"><ele>474.0</ele><time>2026-04-26T09:54:12.537Z</time></trkpt><trkpt lat="43.79952" lon="12.47521"><ele>473.0</ele><time>2026-04-26T09:54:13.536Z</time></trkpt><trkpt lat="43.79942" lon="12.475065"><ele>472.0</ele><time>2026-04-26T09:54:14.536Z</time></trkpt><trkpt lat="43.7993433" lon="12.47495"><ele>471.0</ele><time>2026-04-26T09:54:15.536Z</time></trkpt><trkpt lat="43.7992717" lon="12.4748617"><ele>470.0</ele><time>2026-04-26T09:54:16.533Z</time></trkpt><trkpt lat="43.799215" lon="12.4747783"><ele>469.0</ele><time>2026-04-26T09:54:17.536Z</time></trkpt><trkpt lat="43.79917" lon="12.4746933"><ele>469.00000000000006</ele><time>2026-04-26T09:54:18.537Z</time></trkpt><trkpt lat="43.7991383" lon="12.4746117"><ele>469.0</ele><time>2026-04-26T09:54:19.536Z</time></trkpt><trkpt lat="43.7990983" lon="12.4744867"><ele>469.0</ele><time>2026-04-26T09:54:21.538Z</time></trkpt><trkpt lat="43.7991417" lon="12.474405"><ele>469.0</ele><time>2026-04-26T09:54:24.536Z</time></trkpt><trkpt lat="43.7992367" lon="12.474365"><ele>469.00000000000006</ele><time>2026-04-26T09:54:26.537Z</time></trkpt><trkpt lat="43.7993067" lon="12.4743383"><ele>469.0</ele><time>2026-04-26T09:54:27.534Z</time></trkpt><trkpt lat="43.7993917" lon="12.4743083"><ele>475.0</ele><time>2026-04-26T09:54:28.533Z</time></trkpt><trkpt lat="43.7994783" lon="12.47428"><ele>481.0</ele><time>2026-04-26T09:54:29.533Z</time></trkpt><trkpt lat="43.7996133" lon="12.47422"><ele>487.0</ele><time>2026-04-26T09:54:30.536Z</time></trkpt><trkpt lat="43.7997633" lon="12.47415"><ele>493.0</ele><time>2026-04-26T09:54:31.538Z</time></trkpt><trkpt lat="43.79991" lon="12.4740717"><ele>493.0</ele><time>2026-04-26T09:54:32.537Z</time></trkpt><trkpt lat="43.8000633" lon="12.4739933"><ele>493.0</ele><time>2026-04-26T09:54:33.537Z</time></trkpt><trkpt lat="43.80022" lon="12.4739217"><ele>493.0</ele><time>2026-04-26T09:54:34.534Z</time></trkpt><trkpt lat="43.80035" lon="12.4738517"><ele>493.50000000000006</ele><time>2026-04-26T09:54:35.533Z</time></trkpt><trkpt lat="43.800465" lon="12.4738"><ele>494.0</ele><time>2026-04-26T09:54:36.536Z</time></trkpt><trkpt lat="43.80055" lon="12.4737533"><ele>494.5</ele><time>2026-04-26T09:54:37.537Z</time></trkpt><trkpt lat="43.8006183" lon="12.4737117"><ele>495.0</ele><time>2026-04-26T09:54:38.536Z</time></trkpt><trkpt lat="43.8007017" lon="12.4736517"><ele>495.50000000000006</ele><time>2026-04-26T09:54:40.536Z</time></trkpt><trkpt lat="43.8007317" lon="12.4735667"><ele>496.0</ele><time>2026-04-26T09:54:42.537Z</time></trkpt><trkpt lat="43.8007283" lon="12.4733767"><ele>496.75</ele><time>2026-04-26T09:54:44.535Z</time></trkpt><trkpt lat="43.800725" lon="12.4732483"><ele>497.5</ele><time>2026-04-26T09:54:45.537Z</time></trkpt><trkpt lat="43.800715" lon="12.4730567"><ele>498.25</ele><time>2026-04-26T09:54:46.538Z</time></trkpt><trkpt lat="43.8007083" lon="12.4728183"><ele>499.0</ele><time>2026-04-26T09:54:47.537Z</time></trkpt><trkpt lat="43.8007033" lon="12.4726117"><ele>502.0</ele><time>2026-04-26T09:54:48.537Z</time></trkpt><trkpt lat="43.800705" lon="12.4724433"><ele>505.0</ele><time>2026-04-26T09:54:49.534Z</time></trkpt><trkpt lat="43.80071" lon="12.4723"><ele>508.0</ele><time>2026-04-26T09:54:50.534Z</time></trkpt><trkpt lat="43.8007117" lon="12.4721817"><ele>511.0</ele><time>2026-04-26T09:54:51.537Z</time></trkpt><trkpt lat="43.8007033" lon="12.4720633"><ele>514.0</ele><time>2026-04-26T09:54:52.536Z</time></trkpt><trkpt lat="43.8006867" lon="12.4719233"><ele>514.75</ele><time>2026-04-26T09:54:53.536Z</time></trkpt><trkpt lat="43.8006767" lon="12.4717617"><ele>515.5</ele><time>2026-04-26T09:54:54.533Z</time></trkpt><trkpt lat="43.800675" lon="12.4715767"><ele>516.25</ele><time>2026-04-26T09:54:55.536Z</time></trkpt><trkpt lat="43.80068" lon="12.4713683"><ele>517.0</ele><time>2026-04-26T09:54:56.537Z</time></trkpt><trkpt lat="43.8006917" lon="12.4711467"><ele>515.5</ele><time>2026-04-26T09:54:57.536Z</time></trkpt><trkpt lat="43.8007033" lon="12.47093"><ele>514.0</ele><time>2026-04-26T09:54:58.537Z</time></trkpt><trkpt lat="43.80072" lon="12.47073"><ele>512.5</ele><time>2026-04-26T09:54:59.536Z</time></trkpt><trkpt lat="43.8007433" lon="12.4705433"><ele>511.0</ele><time>2026-04-26T09:55:00.537Z</time></trkpt><trkpt lat="43.8007817" lon="12.4703717"><ele>512.5</ele><time>2026-04-26T09:55:01.539Z</time></trkpt><trkpt lat="43.80084" lon="12.4702133"><ele>514.0</ele><time>2026-04-26T09:55:02.536Z</time></trkpt><trkpt lat="43.8009217" lon="12.470055"><ele>515.5</ele><time>2026-04-26T09:55:03.537Z</time></trkpt><trkpt lat="43.8010183" lon="12.4699"><ele>517.0</ele><time>2026-04-26T09:55:04.537Z</time></trkpt><trkpt lat="43.80111" lon="12.46975"><ele>512.3333333333334</ele><time>2026-04-26T09:55:05.534Z</time></trkpt><trkpt lat="43.8011833" lon="12.46959"><ele>507.66666666666663</ele><time>2026-04-26T09:55:06.537Z</time></trkpt><trkpt lat="43.80124" lon="12.4693983"><ele>503.0</ele><time>2026-04-26T09:55:07.537Z</time></trkpt><trkpt lat="43.801285" lon="12.469175"><ele>503.0</ele><time>2026-04-26T09:55:08.536Z</time></trkpt><trkpt lat="43.801325" lon="12.4689333"><ele>503.0</ele><time>2026-04-26T09:55:09.535Z</time></trkpt><trkpt lat="43.8013533" lon="12.4686817"><ele>503.0</ele><time>2026-04-26T09:55:10.537Z</time></trkpt><trkpt lat="43.8013717" lon="12.4684333"><ele>500.66666666666663</ele><time>2026-04-26T09:55:11.537Z</time></trkpt><trkpt lat="43.8013833" lon="12.4681867"><ele>498.33333333333337</ele><time>2026-04-26T09:55:12.538Z</time></trkpt><trkpt lat="43.8013917" lon="12.4679383"><ele>496.0</ele><time>2026-04-26T09:55:13.537Z</time></trkpt><trkpt lat="43.801405" lon="12.4676833"><ele>494.0</ele><time>2026-04-26T09:55:14.537Z</time></trkpt><trkpt lat="43.8014117" lon="12.46743"><ele>492.0</ele><time>2026-04-26T09:55:15.536Z</time></trkpt><trkpt lat="43.8014183" lon="12.4671867"><ele>490.0</ele><time>2026-04-26T09:55:16.536Z</time></trkpt><trkpt lat="43.8014217" lon="12.4669567"><ele>487.33333333333337</ele><time>2026-04-26T09:55:17.537Z</time></trkpt><trkpt lat="43.80142" lon="12.4667317"><ele>484.66666666666663</ele><time>2026-04-26T09:55:18.534Z</time></trkpt><trkpt lat="43.8014067" lon="12.4665133"><ele>482.0</ele><time>2026-04-26T09:55:19.535Z</time></trkpt><trkpt lat="43.80139" lon="12.4662583"><ele>479.0</ele><time>2026-04-26T09:55:20.537Z</time></trkpt><trkpt lat="43.801365" lon="12.4659667"><ele>476.0</ele><time>2026-04-26T09:55:21.536Z</time></trkpt><trkpt lat="43.8013317" lon="12.4656767"><ele>473.0</ele><time>2026-04-26T09:55:22.533Z</time></trkpt><trkpt lat="43.8013" lon="12.4653967"><ele>472.0</ele><time>2026-04-26T09:55:23.533Z</time></trkpt><trkpt lat="43.801265" lon="12.4651133"><ele>471.0</ele><time>2026-04-26T09:55:24.536Z</time></trkpt><trkpt lat="43.8012517" lon="12.464815"><ele>470.0</ele><time>2026-04-26T09:55:25.535Z</time></trkpt><trkpt lat="43.80125" lon="12.4645083"><ele>470.0</ele><time>2026-04-26T09:55:26.534Z</time></trkpt><trkpt lat="43.8012683" lon="12.4641917"><ele>470.0</ele><time>2026-04-26T09:55:27.537Z</time></trkpt><trkpt lat="43.8012983" lon="12.4638667"><ele>474.0</ele><time>2026-04-26T09:55:28.537Z</time></trkpt><trkpt lat="43.8013383" lon="12.4635467"><ele>478.0</ele><time>2026-04-26T09:55:29.537Z</time></trkpt><trkpt lat="43.8013717" lon="12.4632483"><ele>478.0</ele><time>2026-04-26T09:55:30.536Z</time></trkpt><trkpt lat="43.8013917" lon="12.4629917"><ele>478.0</ele><time>2026-04-26T09:55:31.537Z</time></trkpt><trkpt lat="43.8013867" lon="12.4627683"><ele>478.0</ele><time>2026-04-26T09:55:32.538Z</time></trkpt><trkpt lat="43.80135" lon="12.4625617"><ele>478.6666666666667</ele><time>2026-04-26T09:55:33.537Z</time></trkpt><trkpt lat="43.8013133" lon="12.4623517"><ele>479.33333333333337</ele><time>2026-04-26T09:55:34.537Z</time></trkpt><trkpt lat="43.8012783" lon="12.4621417"><ele>480.0</ele><time>2026-04-26T09:55:35.533Z</time></trkpt><trkpt lat="43.8012733" lon="12.4619233"><ele>483.0</ele><time>2026-04-26T09:55:36.534Z</time></trkpt><trkpt lat="43.801305" lon="12.4616983"><ele>486.0</ele><time>2026-04-26T09:55:37.536Z</time></trkpt><trkpt lat="43.8013583" lon="12.46148"><ele>489.0</ele><time>2026-04-26T09:55:38.537Z</time></trkpt><trkpt lat="43.8014233" lon="12.4612733"><ele>490.66666666666663</ele><time>2026-04-26T09:55:39.534Z</time></trkpt><trkpt lat="43.801495" lon="12.461075"><ele>492.3333333333333</ele><time>2026-04-26T09:55:40.537Z</time></trkpt><trkpt lat="43.801575" lon="12.4608767"><ele>494.0</ele><time>2026-04-26T09:55:41.537Z</time></trkpt><trkpt lat="43.8016517" lon="12.460685"><ele>494.0</ele><time>2026-04-26T09:55:42.537Z</time></trkpt><trkpt lat="43.80172" lon="12.4605067"><ele>494.0</ele><time>2026-04-26T09:55:43.535Z</time></trkpt><trkpt lat="43.8017933" lon="12.4603383"><ele>494.0</ele><time>2026-04-26T09:55:44.537Z</time></trkpt><trkpt lat="43.801875" lon="12.4601967"><ele>494.0</ele><time>2026-04-26T09:55:45.536Z</time></trkpt><trkpt lat="43.8019733" lon="12.4600733"><ele>490.75</ele><time>2026-04-26T09:55:46.538Z</time></trkpt><trkpt lat="43.8020833" lon="12.4599533"><ele>487.5</ele><time>2026-04-26T09:55:47.537Z</time></trkpt><trkpt lat="43.8022" lon="12.4598383"><ele>484.25</ele><time>2026-04-26T09:55:48.537Z</time></trkpt><trkpt lat="43.8023133" lon="12.4597083"><ele>481.0</ele><time>2026-04-26T09:55:49.544Z</time></trkpt><trkpt lat="43.8024183" lon="12.4595533"><ele>479.6666666666667</ele><time>2026-04-26T09:55:50.536Z</time></trkpt><trkpt lat="43.8025217" lon="12.45937"><ele>478.33333333333337</ele><time>2026-04-26T09:55:51.533Z</time></trkpt><trkpt lat="43.80261" lon="12.459165"><ele>477.0</ele><time>2026-04-26T09:55:52.534Z</time></trkpt><trkpt lat="43.8026817" lon="12.4589567"><ele>477.66666666666663</ele><time>2026-04-26T09:55:53.535Z</time></trkpt><trkpt lat="43.802735" lon="12.4587517"><ele>478.3333333333333</ele><time>2026-04-26T09:55:54.534Z</time></trkpt><trkpt lat="43.8027583" lon="12.45853"><ele>479.0</ele><time>2026-04-26T09:55:55.534Z</time></trkpt><trkpt lat="43.8027583" lon="12.4582833"><ele>479.0</ele><time>2026-04-26T09:55:56.533Z</time></trkpt><trkpt lat="43.8027367" lon="12.458025"><ele>479.0</ele><time>2026-04-26T09:55:57.533Z</time></trkpt><trkpt lat="43.8027117" lon="12.4577767"><ele>479.0</ele><time>2026-04-26T09:55:58.535Z</time></trkpt><trkpt lat="43.8026917" lon="12.4575283"><ele>482.3333333333333</ele><time>2026-04-26T09:55:59.533Z</time></trkpt><trkpt lat="43.802675" lon="12.45729"><ele>485.66666666666663</ele><time>2026-04-26T09:56:00.534Z</time></trkpt><trkpt lat="43.80265" lon="12.45706"><ele>489.0</ele><time>2026-04-26T09:56:01.534Z</time></trkpt><trkpt lat="43.8026067" lon="12.4568333"><ele>483.75</ele><time>2026-04-26T09:56:02.534Z</time></trkpt><trkpt lat="43.8025467" lon="12.456625"><ele>478.5</ele><time>2026-04-26T09:56:03.533Z</time></trkpt><trkpt lat="43.8024833" lon="12.4564417"><ele>473.25</ele><time>2026-04-26T09:56:04.539Z</time></trkpt><trkpt lat="43.8024233" lon="12.4562883"><ele>468.0</ele><time>2026-04-26T09:56:05.533Z</time></trkpt><trkpt lat="43.8023867" lon="12.4561583"><ele>466.0</ele><time>2026-04-26T09:56:06.539Z</time></trkpt><trkpt lat="43.8023767" lon="12.4560517"><ele>464.0</ele><time>2026-04-26T09:56:07.536Z</time></trkpt><trkpt lat="43.802385" lon="12.45595"><ele>462.0</ele><time>2026-04-26T09:56:08.534Z</time></trkpt><trkpt lat="43.8024217" lon="12.4558717"><ele>460.0</ele><time>2026-04-26T09:56:09.536Z</time></trkpt><trkpt lat="43.8024883" lon="12.4558233"><ele>458.0</ele><time>2026-04-26T09:56:10.537Z</time></trkpt><trkpt lat="43.8025917" lon="12.4558167"><ele>456.0</ele><time>2026-04-26T09:56:11.533Z</time></trkpt><trkpt lat="43.8027167" lon="12.4558217"><ele>455.66666666666663</ele><time>2026-04-26T09:56:12.534Z</time></trkpt><trkpt lat="43.8028767" lon="12.4558283"><ele>455.3333333333333</ele><time>2026-04-26T09:56:13.534Z</time></trkpt><trkpt lat="43.80309" lon="12.455815"><ele>455.0</ele><time>2026-04-26T09:56:14.535Z</time></trkpt><trkpt lat="43.80326" lon="12.4557883"><ele>455.0</ele><time>2026-04-26T09:56:15.534Z</time></trkpt><trkpt lat="43.8034533" lon="12.45574"><ele>455.0</ele><time>2026-04-26T09:56:16.536Z</time></trkpt><trkpt lat="43.803605" lon="12.4556833"><ele>455.0</ele><time>2026-04-26T09:56:17.536Z</time></trkpt><trkpt lat="43.8037583" lon="12.4555933"><ele>456.66666666666663</ele><time>2026-04-26T09:56:18.532Z</time></trkpt><trkpt lat="43.8038783" lon="12.4554783"><ele>458.33333333333337</ele><time>2026-04-26T09:56:19.535Z</time></trkpt><trkpt lat="43.8040067" lon="12.455325"><ele>460.0</ele><time>2026-04-26T09:56:20.533Z</time></trkpt><trkpt lat="43.8041117" lon="12.4551267"><ele>454.6666666666667</ele><time>2026-04-26T09:56:21.536Z</time></trkpt><trkpt lat="43.8041967" lon="12.4549033"><ele>449.33333333333337</ele><time>2026-04-26T09:56:22.535Z</time></trkpt><trkpt lat="43.8042617" lon="12.45467"><ele>444.0</ele><time>2026-04-26T09:56:23.536Z</time></trkpt><trkpt lat="43.80432" lon="12.4544367"><ele>440.0</ele><time>2026-04-26T09:56:24.532Z</time></trkpt><trkpt lat="43.80438" lon="12.4542117"><ele>436.0</ele><time>2026-04-26T09:56:25.536Z</time></trkpt><trkpt lat="43.8044317" lon="12.4539967"><ele>432.0</ele><time>2026-04-26T09:56:26.536Z</time></trkpt><trkpt lat="43.8044883" lon="12.4537867"><ele>428.0</ele><time>2026-04-26T09:56:27.536Z</time></trkpt><trkpt lat="43.8045467" lon="12.4535783"><ele>424.0</ele><time>2026-04-26T09:56:28.536Z</time></trkpt><trkpt lat="43.8046" lon="12.453385"><ele>420.0</ele><time>2026-04-26T09:56:29.536Z</time></trkpt><trkpt lat="43.8046567" lon="12.4532033"><ele>420.0</ele><time>2026-04-26T09:56:30.535Z</time></trkpt><trkpt lat="43.8047317" lon="12.4530283"><ele>420.0</ele><time>2026-04-26T09:56:31.536Z</time></trkpt><trkpt lat="43.8048133" lon="12.4528583"><ele>420.0</ele><time>2026-04-26T09:56:32.533Z</time></trkpt><trkpt lat="43.8048967" lon="12.4526867"><ele>420.0</ele><time>2026-04-26T09:56:33.537Z</time></trkpt><trkpt lat="43.8049783" lon="12.452525"><ele>418.8</ele><time>2026-04-26T09:56:34.537Z</time></trkpt><trkpt lat="43.80506" lon="12.4523867"><ele>417.6</ele><time>2026-04-26T09:56:35.536Z</time></trkpt><trkpt lat="43.8051417" lon="12.4522883"><ele>416.4</ele><time>2026-04-26T09:56:36.536Z</time></trkpt><trkpt lat="43.805225" lon="12.4522417"><ele>415.2</ele><time>2026-04-26T09:56:37.537Z</time></trkpt><trkpt lat="43.8053117" lon="12.4522467"><ele>414.0</ele><time>2026-04-26T09:56:38.533Z</time></trkpt><trkpt lat="43.8053933" lon="12.4523133"><ele>410.0</ele><time>2026-04-26T09:56:39.536Z</time></trkpt><trkpt lat="43.805485" lon="12.45242"><ele>406.0</ele><time>2026-04-26T09:56:40.537Z</time></trkpt><trkpt lat="43.8055883" lon="12.4525517"><ele>402.0</ele><time>2026-04-26T09:56:41.536Z</time></trkpt><trkpt lat="43.8056917" lon="12.45267"><ele>398.0</ele><time>2026-04-26T09:56:42.534Z</time></trkpt><trkpt lat="43.8058067" lon="12.4527667"><ele>398.0</ele><time>2026-04-26T09:56:43.535Z</time></trkpt><trkpt lat="43.8059417" lon="12.4528417"><ele>398.0</ele><time>2026-04-26T09:56:44.536Z</time></trkpt><trkpt lat="43.806085" lon="12.4529067"><ele>398.0</ele><time>2026-04-26T09:56:45.537Z</time></trkpt><trkpt lat="43.806225" lon="12.4529717"><ele>398.0</ele><time>2026-04-26T09:56:46.536Z</time></trkpt><trkpt lat="43.80635" lon="12.4530267"><ele>397.59999999999997</ele><time>2026-04-26T09:56:47.536Z</time></trkpt><trkpt lat="43.8064533" lon="12.4530717"><ele>397.2</ele><time>2026-04-26T09:56:48.534Z</time></trkpt><trkpt lat="43.8065483" lon="12.4531"><ele>396.8</ele><time>2026-04-26T09:56:49.537Z</time></trkpt><trkpt lat="43.8066467" lon="12.453095"><ele>396.4</ele><time>2026-04-26T09:56:50.536Z</time></trkpt><trkpt lat="43.8067383" lon="12.4530667"><ele>396.0</ele><time>2026-04-26T09:56:51.534Z</time></trkpt><trkpt lat="43.8068283" lon="12.4530033"><ele>394.0</ele><time>2026-04-26T09:56:52.533Z</time></trkpt><trkpt lat="43.806915" lon="12.452905"><ele>392.0</ele><time>2026-04-26T09:56:53.533Z</time></trkpt><trkpt lat="43.8069883" lon="12.4527583"><ele>390.0</ele><time>2026-04-26T09:56:54.534Z</time></trkpt><trkpt lat="43.80708" lon="12.4525583"><ele>388.0</ele><time>2026-04-26T09:56:55.536Z</time></trkpt><trkpt lat="43.8071733" lon="12.4523517"><ele>388.0</ele><time>2026-04-26T09:56:56.537Z</time></trkpt><trkpt lat="43.8072683" lon="12.4521417"><ele>388.0</ele><time>2026-04-26T09:56:57.538Z</time></trkpt><trkpt lat="43.8073383" lon="12.45194"><ele>388.0</ele><time>2026-04-26T09:56:58.536Z</time></trkpt><trkpt lat="43.8073933" lon="12.4517433"><ele>385.0</ele><time>2026-04-26T09:56:59.533Z</time></trkpt><trkpt lat="43.8074317" lon="12.451535"><ele>382.0</ele><time>2026-04-26T09:57:00.534Z</time></trkpt><trkpt lat="43.807455" lon="12.4513267"><ele>379.0</ele><time>2026-04-26T09:57:01.537Z</time></trkpt><trkpt lat="43.80747" lon="12.4511133"><ele>374.66666666666663</ele><time>2026-04-26T09:57:02.534Z</time></trkpt><trkpt lat="43.80749" lon="12.4509083"><ele>370.3333333333333</ele><time>2026-04-26T09:57:03.535Z</time></trkpt><trkpt lat="43.8075233" lon="12.4507017"><ele>366.0</ele><time>2026-04-26T09:57:04.534Z</time></trkpt><trkpt lat="43.8075717" lon="12.4504983"><ele>364.3333333333333</ele><time>2026-04-26T09:57:05.534Z</time></trkpt><trkpt lat="43.8076233" lon="12.4503033"><ele>362.66666666666663</ele><time>2026-04-26T09:57:06.536Z</time></trkpt><trkpt lat="43.807665" lon="12.450105"><ele>361.0</ele><time>2026-04-26T09:57:07.533Z</time></trkpt><trkpt lat="43.80768" lon="12.449895"><ele>361.0</ele><time>2026-04-26T09:57:08.536Z</time></trkpt><trkpt lat="43.8076583" lon="12.4496817"><ele>361.0</ele><time>2026-04-26T09:57:09.534Z</time></trkpt><trkpt lat="43.807625" lon="12.4494667"><ele>361.0</ele><time>2026-04-26T09:57:10.537Z</time></trkpt><trkpt lat="43.8075633" lon="12.449275"><ele>362.25</ele><time>2026-04-26T09:57:11.535Z</time></trkpt><trkpt lat="43.80748" lon="12.4490983"><ele>363.5</ele><time>2026-04-26T09:57:12.536Z</time></trkpt><trkpt lat="43.8073817" lon="12.4489633"><ele>364.75</ele><time>2026-04-26T09:57:13.535Z</time></trkpt><trkpt lat="43.80726" lon="12.4488483"><ele>366.0</ele><time>2026-04-26T09:57:14.535Z</time></trkpt><trkpt lat="43.8071417" lon="12.4487417"><ele>366.25</ele><time>2026-04-26T09:57:15.536Z</time></trkpt><trkpt lat="43.8070267" lon="12.4486433"><ele>366.5</ele><time>2026-04-26T09:57:16.537Z</time></trkpt><trkpt lat="43.8069233" lon="12.4485367"><ele>366.75</ele><time>2026-04-26T09:57:17.535Z</time></trkpt><trkpt lat="43.806835" lon="12.4484133"><ele>367.0</ele><time>2026-04-26T09:57:18.534Z</time></trkpt><trkpt lat="43.806755" lon="12.4482767"><ele>367.0</ele><time>2026-04-26T09:57:19.535Z</time></trkpt><trkpt lat="43.8066817" lon="12.448145"><ele>367.0</ele><time>2026-04-26T09:57:20.534Z</time></trkpt><trkpt lat="43.8066117" lon="12.4480133"><ele>367.0</ele><time>2026-04-26T09:57:21.537Z</time></trkpt><trkpt lat="43.8065417" lon="12.447885"><ele>367.0</ele><time>2026-04-26T09:57:22.533Z</time></trkpt><trkpt lat="43.806485" lon="12.4477533"><ele>370.25</ele><time>2026-04-26T09:57:23.535Z</time></trkpt><trkpt lat="43.8064317" lon="12.447615"><ele>373.5</ele><time>2026-04-26T09:57:24.535Z</time></trkpt><trkpt lat="43.80638" lon="12.4474733"><ele>376.75</ele><time>2026-04-26T09:57:25.539Z</time></trkpt><trkpt lat="43.806325" lon="12.4473333"><ele>380.0</ele><time>2026-04-26T09:57:26.533Z</time></trkpt><trkpt lat="43.8062683" lon="12.4471817"><ele>381.0</ele><time>2026-04-26T09:57:27.535Z</time></trkpt><trkpt lat="43.80621" lon="12.447025"><ele>382.0</ele><time>2026-04-26T09:57:28.536Z</time></trkpt><trkpt lat="43.80615" lon="12.4468667"><ele>383.0</ele><time>2026-04-26T09:57:29.536Z</time></trkpt><trkpt lat="43.806085" lon="12.4467183"><ele>384.0</ele><time>2026-04-26T09:57:30.536Z</time></trkpt><trkpt lat="43.8060267" lon="12.4465733"><ele>379.4</ele><time>2026-04-26T09:57:31.536Z</time></trkpt><trkpt lat="43.8059667" lon="12.4464283"><ele>374.79999999999995</ele><time>2026-04-26T09:57:32.534Z</time></trkpt><trkpt lat="43.80591" lon="12.4462883"><ele>370.20000000000005</ele><time>2026-04-26T09:57:33.537Z</time></trkpt><trkpt lat="43.8058483" lon="12.4461617"><ele>365.6</ele><time>2026-04-26T09:57:34.533Z</time></trkpt><trkpt lat="43.8057933" lon="12.4460433"><ele>361.0</ele><time>2026-04-26T09:57:35.537Z</time></trkpt><trkpt lat="43.8057467" lon="12.4459317"><ele>361.0</ele><time>2026-04-26T09:57:36.534Z</time></trkpt><trkpt lat="43.8057117" lon="12.4458217"><ele>361.0</ele><time>2026-04-26T09:57:37.535Z</time></trkpt><trkpt lat="43.805685" lon="12.4457067"><ele>361.0</ele><time>2026-04-26T09:57:38.536Z</time></trkpt><trkpt lat="43.8056617" lon="12.4455933"><ele>361.0</ele><time>2026-04-26T09:57:39.536Z</time></trkpt><trkpt lat="43.80564" lon="12.445485"><ele>361.0</ele><time>2026-04-26T09:57:40.537Z</time></trkpt><trkpt lat="43.8056217" lon="12.4453767"><ele>361.0</ele><time>2026-04-26T09:57:41.535Z</time></trkpt><trkpt lat="43.8056083" lon="12.4452817"><ele>359.6</ele><time>2026-04-26T09:57:42.533Z</time></trkpt><trkpt lat="43.8056033" lon="12.4451367"><ele>358.20000000000005</ele><time>2026-04-26T09:57:44.533Z</time></trkpt><trkpt lat="43.8056183" lon="12.44498"><ele>356.79999999999995</ele><time>2026-04-26T09:57:46.534Z</time></trkpt><trkpt lat="43.8056417" lon="12.4448783"><ele>355.4</ele><time>2026-04-26T09:57:47.534Z</time></trkpt><trkpt lat="43.80568" lon="12.4447717"><ele>354.0</ele><time>2026-04-26T09:57:48.533Z</time></trkpt><trkpt lat="43.8057383" lon="12.4446633"><ele>353.0</ele><time>2026-04-26T09:57:49.534Z</time></trkpt><trkpt lat="43.8058017" lon="12.4445667"><ele>352.0</ele><time>2026-04-26T09:57:50.534Z</time></trkpt><trkpt lat="43.80587" lon="12.444475"><ele>351.0</ele><time>2026-04-26T09:57:51.534Z</time></trkpt><trkpt lat="43.8059433" lon="12.44439"><ele>350.0</ele><time>2026-04-26T09:57:52.533Z</time></trkpt><trkpt lat="43.8060183" lon="12.4443117"><ele>349.0</ele><time>2026-04-26T09:57:53.534Z</time></trkpt><trkpt lat="43.80609" lon="12.4442483"><ele>349.0</ele><time>2026-04-26T09:57:54.533Z</time></trkpt><trkpt lat="43.8061483" lon="12.4442117"><ele>349.0</ele><time>2026-04-26T09:57:55.535Z</time></trkpt><trkpt lat="43.80624" lon="12.44421"><ele>349.0</ele><time>2026-04-26T09:57:57.536Z</time></trkpt><trkpt lat="43.80635" lon="12.4441733"><ele>349.0</ele><time>2026-04-26T09:57:59.533Z</time></trkpt><trkpt lat="43.8064133" lon="12.4441383"><ele>349.0</ele><time>2026-04-26T09:58:00.536Z</time></trkpt><trkpt lat="43.80648" lon="12.4440967"><ele>349.0</ele><time>2026-04-26T09:58:01.536Z</time></trkpt><trkpt lat="43.8065483" lon="12.4440617"><ele>349.0</ele><time>2026-04-26T09:58:02.535Z</time></trkpt><trkpt lat="43.8066217" lon="12.4440383"><ele>349.0</ele><time>2026-04-26T09:58:03.536Z</time></trkpt><trkpt lat="43.8067017" lon="12.444025"><ele>349.0</ele><time>2026-04-26T09:58:04.536Z</time></trkpt><trkpt lat="43.8067883" lon="12.44402"><ele>349.0</ele><time>2026-04-26T09:58:05.535Z</time></trkpt><trkpt lat="43.8068717" lon="12.4440183"><ele>349.0</ele><time>2026-04-26T09:58:06.535Z</time></trkpt><trkpt lat="43.8069567" lon="12.4440233"><ele>349.0</ele><time>2026-04-26T09:58:07.536Z</time></trkpt><trkpt lat="43.8070367" lon="12.444015"><ele>349.16666666666663</ele><time>2026-04-26T09:58:08.537Z</time></trkpt><trkpt lat="43.8071083" lon="12.4440017"><ele>349.3333333333333</ele><time>2026-04-26T09:58:09.535Z</time></trkpt><trkpt lat="43.8072283" lon="12.4439283"><ele>349.5</ele><time>2026-04-26T09:58:11.536Z</time></trkpt><trkpt lat="43.8072883" lon="12.44387"><ele>349.6666666666667</ele><time>2026-04-26T09:58:12.533Z</time></trkpt><trkpt lat="43.80734" lon="12.4438017"><ele>349.83333333333337</ele><time>2026-04-26T09:58:13.533Z</time></trkpt><trkpt lat="43.8073983" lon="12.4437317"><ele>350.0</ele><time>2026-04-26T09:58:14.533Z</time></trkpt><trkpt lat="43.8074517" lon="12.44367"><ele>347.83333333333337</ele><time>2026-04-26T09:58:15.536Z</time></trkpt><trkpt lat="43.8075067" lon="12.4436117"><ele>345.6666666666667</ele><time>2026-04-26T09:58:16.534Z</time></trkpt><trkpt lat="43.8075683" lon="12.4435633"><ele>343.5</ele><time>2026-04-26T09:58:17.533Z</time></trkpt><trkpt lat="43.8076333" lon="12.4435233"><ele>341.3333333333333</ele><time>2026-04-26T09:58:18.534Z</time></trkpt><trkpt lat="43.8077067" lon="12.4434917"><ele>339.16666666666663</ele><time>2026-04-26T09:58:19.535Z</time></trkpt><trkpt lat="43.8077983" lon="12.4434667"><ele>337.0</ele><time>2026-04-26T09:58:20.533Z</time></trkpt><trkpt lat="43.8079217" lon="12.4434517"><ele>336.0</ele><time>2026-04-26T09:58:21.534Z</time></trkpt><trkpt lat="43.80807" lon="12.4434417"><ele>335.0</ele><time>2026-04-26T09:58:22.534Z</time></trkpt><trkpt lat="43.80825" lon="12.4434333"><ele>334.0</ele><time>2026-04-26T09:58:23.537Z</time></trkpt><trkpt lat="43.8084483" lon="12.44343"><ele>334.0</ele><time>2026-04-26T09:58:24.534Z</time></trkpt><trkpt lat="43.80864" lon="12.4434317"><ele>334.0</ele><time>2026-04-26T09:58:25.534Z</time></trkpt><trkpt lat="43.8088167" lon="12.4434333"><ele>334.0</ele><time>2026-04-26T09:58:26.538Z</time></trkpt><trkpt lat="43.8089833" lon="12.443435"><ele>334.0</ele><time>2026-04-26T09:58:27.536Z</time></trkpt><trkpt lat="43.809125" lon="12.4434267"><ele>334.0</ele><time>2026-04-26T09:58:28.536Z</time></trkpt><trkpt lat="43.80924" lon="12.4434067"><ele>334.0</ele><time>2026-04-26T09:58:29.536Z</time></trkpt><trkpt lat="43.8093117" lon="12.4433583"><ele>334.0</ele><time>2026-04-26T09:58:30.534Z</time></trkpt><trkpt lat="43.80936" lon="12.4432933"><ele>334.0</ele><time>2026-04-26T09:58:31.534Z</time></trkpt><trkpt lat="43.8094617" lon="12.4432133"><ele>335.75</ele><time>2026-04-26T09:58:33.536Z</time></trkpt><trkpt lat="43.8095983" lon="12.4431633"><ele>337.5</ele><time>2026-04-26T09:58:35.533Z</time></trkpt><trkpt lat="43.8097117" lon="12.4431483"><ele>339.25</ele><time>2026-04-26T09:58:36.537Z</time></trkpt><trkpt lat="43.80988" lon="12.4431483"><ele>341.0</ele><time>2026-04-26T09:58:37.536Z</time></trkpt><trkpt lat="43.8100717" lon="12.443155"><ele>341.6666666666667</ele><time>2026-04-26T09:58:38.537Z</time></trkpt><trkpt lat="43.8102583" lon="12.443195"><ele>342.3333333333333</ele><time>2026-04-26T09:58:39.536Z</time></trkpt><trkpt lat="43.8104617" lon="12.4432583"><ele>343.0</ele><time>2026-04-26T09:58:40.533Z</time></trkpt><trkpt lat="43.8106683" lon="12.4433383"><ele>343.0</ele><time>2026-04-26T09:58:41.535Z</time></trkpt><trkpt lat="43.81088" lon="12.443415"><ele>343.0</ele><time>2026-04-26T09:58:42.537Z</time></trkpt><trkpt lat="43.8110883" lon="12.4434833"><ele>343.0</ele><time>2026-04-26T09:58:43.536Z</time></trkpt><trkpt lat="43.81128" lon="12.44357"><ele>340.3333333333333</ele><time>2026-04-26T09:58:44.534Z</time></trkpt><trkpt lat="43.8114683" lon="12.4436617"><ele>337.6666666666667</ele><time>2026-04-26T09:58:45.538Z</time></trkpt><trkpt lat="43.81166" lon="12.4437283"><ele>335.0</ele><time>2026-04-26T09:58:46.535Z</time></trkpt><trkpt lat="43.8118583" lon="12.44377"><ele>338.33333333333337</ele><time>2026-04-26T09:58:47.537Z</time></trkpt><trkpt lat="43.8120617" lon="12.4437983"><ele>341.6666666666667</ele><time>2026-04-26T09:58:48.534Z</time></trkpt><trkpt lat="43.8122683" lon="12.4438233"><ele>345.0</ele><time>2026-04-26T09:58:49.535Z</time></trkpt><trkpt lat="43.8124567" lon="12.443855"><ele>345.0</ele><time>2026-04-26T09:58:50.534Z</time></trkpt><trkpt lat="43.8126333" lon="12.443895"><ele>345.0</ele><time>2026-04-26T09:58:51.534Z</time></trkpt><trkpt lat="43.8128033" lon="12.44394"><ele>345.0</ele><time>2026-04-26T09:58:52.537Z</time></trkpt><trkpt lat="43.8129583" lon="12.443995"><ele>343.75</ele><time>2026-04-26T09:58:53.536Z</time></trkpt><trkpt lat="43.8130983" lon="12.4440633"><ele>342.5</ele><time>2026-04-26T09:58:54.534Z</time></trkpt><trkpt lat="43.813215" lon="12.44415"><ele>341.25</ele><time>2026-04-26T09:58:55.536Z</time></trkpt><trkpt lat="43.8133467" lon="12.4442383"><ele>340.0</ele><time>2026-04-26T09:58:56.534Z</time></trkpt><trkpt lat="43.8134817" lon="12.4443317"><ele>341.25</ele><time>2026-04-26T09:58:57.535Z</time></trkpt><trkpt lat="43.81361" lon="12.4444283"><ele>342.5</ele><time>2026-04-26T09:58:58.536Z</time></trkpt><trkpt lat="43.81374" lon="12.444525"><ele>343.75</ele><time>2026-04-26T09:58:59.537Z</time></trkpt><trkpt lat="43.813865" lon="12.444625"><ele>345.0</ele><time>2026-04-26T09:59:00.536Z</time></trkpt><trkpt lat="43.8139783" lon="12.4447383"><ele>345.0</ele><time>2026-04-26T09:59:01.536Z</time></trkpt><trkpt lat="43.8140867" lon="12.44486"><ele>345.0</ele><time>2026-04-26T09:59:02.535Z</time></trkpt><trkpt lat="43.81419" lon="12.4449883"><ele>345.0</ele><time>2026-04-26T09:59:03.537Z</time></trkpt><trkpt lat="43.8142967" lon="12.44513"><ele>345.0</ele><time>2026-04-26T09:59:04.534Z</time></trkpt><trkpt lat="43.8144017" lon="12.4452733"><ele>346.6</ele><time>2026-04-26T09:59:05.536Z</time></trkpt><trkpt lat="43.8144983" lon="12.445405"><ele>348.2</ele><time>2026-04-26T09:59:06.537Z</time></trkpt><trkpt lat="43.81457" lon="12.4455117"><ele>349.79999999999995</ele><time>2026-04-26T09:59:07.537Z</time></trkpt><trkpt lat="43.8146333" lon="12.4455783"><ele>351.4</ele><time>2026-04-26T09:59:08.537Z</time></trkpt><trkpt lat="43.8146967" lon="12.4456133"><ele>353.0</ele><time>2026-04-26T09:59:09.536Z</time></trkpt><trkpt lat="43.8147783" lon="12.4456183"><ele>353.0</ele><time>2026-04-26T09:59:10.536Z</time></trkpt><trkpt lat="43.8148567" lon="12.44562"><ele>353.0</ele><time>2026-04-26T09:59:11.538Z</time></trkpt><trkpt lat="43.8149833" lon="12.4455333"><ele>353.0</ele><time>2026-04-26T09:59:12.534Z</time></trkpt><trkpt lat="43.815145" lon="12.4454533"><ele>353.0</ele><time>2026-04-26T09:59:13.537Z</time></trkpt><trkpt lat="43.8153217" lon="12.4453733"><ele>356.6666666666667</ele><time>2026-04-26T09:59:14.536Z</time></trkpt><trkpt lat="43.8155283" lon="12.44528"><ele>360.3333333333333</ele><time>2026-04-26T09:59:15.535Z</time></trkpt><trkpt lat="43.81573" lon="12.44519"><ele>364.0</ele><time>2026-04-26T09:59:16.535Z</time></trkpt><trkpt lat="43.81591" lon="12.4451"><ele>373.3333333333333</ele><time>2026-04-26T09:59:17.534Z</time></trkpt><trkpt lat="43.8160817" lon="12.4449833"><ele>382.66666666666663</ele><time>2026-04-26T09:59:18.534Z</time></trkpt><trkpt lat="43.816225" lon="12.4448433"><ele>392.0</ele><time>2026-04-26T09:59:19.535Z</time></trkpt><trkpt lat="43.8163417" lon="12.444645"><ele>388.3333333333333</ele><time>2026-04-26T09:59:20.533Z</time></trkpt><trkpt lat="43.8164383" lon="12.4444167"><ele>384.66666666666663</ele><time>2026-04-26T09:59:21.533Z</time></trkpt><trkpt lat="43.8165283" lon="12.4441933"><ele>381.0</ele><time>2026-04-26T09:59:22.534Z</time></trkpt><trkpt lat="43.8165967" lon="12.4439967"><ele>381.0</ele><time>2026-04-26T09:59:23.539Z</time></trkpt><trkpt lat="43.8166817" lon="12.4438433"><ele>381.0</ele><time>2026-04-26T09:59:24.537Z</time></trkpt><trkpt lat="43.8167917" lon="12.44372"><ele>381.0</ele><time>2026-04-26T09:59:25.534Z</time></trkpt><trkpt lat="43.816915" lon="12.4436083"><ele>381.0</ele><time>2026-04-26T09:59:26.534Z</time></trkpt><trkpt lat="43.8170633" lon="12.4435117"><ele>381.6666666666667</ele><time>2026-04-26T09:59:27.537Z</time></trkpt><trkpt lat="43.8172183" lon="12.4434383"><ele>382.33333333333337</ele><time>2026-04-26T09:59:28.537Z</time></trkpt><trkpt lat="43.8173933" lon="12.4433833"><ele>383.0</ele><time>2026-04-26T09:59:29.536Z</time></trkpt><trkpt lat="43.81757" lon="12.4433483"><ele>383.33333333333337</ele><time>2026-04-26T09:59:30.537Z</time></trkpt><trkpt lat="43.8177433" lon="12.4433317"><ele>383.6666666666667</ele><time>2026-04-26T09:59:31.536Z</time></trkpt><trkpt lat="43.8179083" lon="12.44334"><ele>384.0</ele><time>2026-04-26T09:59:32.536Z</time></trkpt><trkpt lat="43.81807" lon="12.4433617"><ele>384.0</ele><time>2026-04-26T09:59:33.536Z</time></trkpt><trkpt lat="43.818215" lon="12.44341"><ele>384.0</ele><time>2026-04-26T09:59:34.536Z</time></trkpt><trkpt lat="43.8183667" lon="12.44348"><ele>384.0</ele><time>2026-04-26T09:59:35.537Z</time></trkpt><trkpt lat="43.8185283" lon="12.44354"><ele>385.66666666666663</ele><time>2026-04-26T09:59:36.535Z</time></trkpt><trkpt lat="43.8186967" lon="12.443595"><ele>387.3333333333333</ele><time>2026-04-26T09:59:37.536Z</time></trkpt><trkpt lat="43.8188433" lon="12.4436667"><ele>389.0</ele><time>2026-04-26T09:59:38.535Z</time></trkpt><trkpt lat="43.818975" lon="12.4437717"><ele>391.66666666666663</ele><time>2026-04-26T09:59:39.536Z</time></trkpt><trkpt lat="43.819115" lon="12.4439033"><ele>394.33333333333337</ele><time>2026-04-26T09:59:40.536Z</time></trkpt><trkpt lat="43.8192683" lon="12.4440417"><ele>397.0</ele><time>2026-04-26T09:59:41.535Z</time></trkpt><trkpt lat="43.819435" lon="12.444135"><ele>398.33333333333337</ele><time>2026-04-26T09:59:42.536Z</time></trkpt><trkpt lat="43.81962" lon="12.4441817"><ele>399.66666666666663</ele><time>2026-04-26T09:59:43.536Z</time></trkpt><trkpt lat="43.8198183" lon="12.444175"><ele>401.0</ele><time>2026-04-26T09:59:44.537Z</time></trkpt><trkpt lat="43.8200267" lon="12.44413"><ele>404.66666666666663</ele><time>2026-04-26T09:59:45.536Z</time></trkpt><trkpt lat="43.8202383" lon="12.4440533"><ele>408.33333333333337</ele><time>2026-04-26T09:59:46.538Z</time></trkpt><trkpt lat="43.820455" lon="12.443965"><ele>412.0</ele><time>2026-04-26T09:59:47.538Z</time></trkpt><trkpt lat="43.82068" lon="12.44387"><ele>414.33333333333337</ele><time>2026-04-26T09:59:48.537Z</time></trkpt><trkpt lat="43.8208983" lon="12.4437817"><ele>416.66666666666663</ele><time>2026-04-26T09:59:49.537Z</time></trkpt><trkpt lat="43.82109" lon="12.4437067"><ele>419.0</ele><time>2026-04-26T09:59:50.537Z</time></trkpt><trkpt lat="43.8212533" lon="12.443665"><ele>420.25</ele><time>2026-04-26T09:59:51.537Z</time></trkpt><trkpt lat="43.821385" lon="12.4436733"><ele>421.5</ele><time>2026-04-26T09:59:52.537Z</time></trkpt><trkpt lat="43.821495" lon="12.44373"><ele>422.75</ele><time>2026-04-26T09:59:53.536Z</time></trkpt><trkpt lat="43.82159" lon="12.443825"><ele>424.0</ele><time>2026-04-26T09:59:54.536Z</time></trkpt><trkpt lat="43.821665" lon="12.4439467"><ele>424.0</ele><time>2026-04-26T09:59:55.538Z</time></trkpt><trkpt lat="43.821715" lon="12.444075"><ele>424.0</ele><time>2026-04-26T09:59:56.537Z</time></trkpt><trkpt lat="43.8217483" lon="12.4441983"><ele>424.0</ele><time>2026-04-26T09:59:57.534Z</time></trkpt><trkpt lat="43.821775" lon="12.4443283"><ele>424.0</ele><time>2026-04-26T09:59:58.537Z</time></trkpt><trkpt lat="43.8218017" lon="12.44448"><ele>424.0</ele><time>2026-04-26T09:59:59.538Z</time></trkpt><trkpt lat="43.821805" lon="12.4446533"><ele>425.0</ele><time>2026-04-26T10:00:00.534Z</time></trkpt><trkpt lat="43.8217933" lon="12.4448433"><ele>426.0</ele><time>2026-04-26T10:00:01.537Z</time></trkpt><trkpt lat="43.8217717" lon="12.4450333"><ele>427.0</ele><time>2026-04-26T10:00:02.534Z</time></trkpt><trkpt lat="43.821755" lon="12.4452083"><ele>428.0</ele><time>2026-04-26T10:00:03.536Z</time></trkpt><trkpt lat="43.8217517" lon="12.4453333"><ele>428.0</ele><time>2026-04-26T10:00:04.536Z</time></trkpt><trkpt lat="43.82176" lon="12.4454283"><ele>427.99999999999994</ele><time>2026-04-26T10:00:05.534Z</time></trkpt><trkpt lat="43.8218317" lon="12.4455533"><ele>427.99999999999994</ele><time>2026-04-26T10:00:07.539Z</time></trkpt><trkpt lat="43.8219117" lon="12.4455667"><ele>428.0</ele><time>2026-04-26T10:00:08.538Z</time></trkpt><trkpt lat="43.8219933" lon="12.4455683"><ele>428.0</ele><time>2026-04-26T10:00:09.537Z</time></trkpt><trkpt lat="43.822115" lon="12.4455"><ele>433.3333333333333</ele><time>2026-04-26T10:00:10.537Z</time></trkpt><trkpt lat="43.82225" lon="12.4453967"><ele>438.66666666666663</ele><time>2026-04-26T10:00:11.533Z</time></trkpt><trkpt lat="43.8224083" lon="12.445265"><ele>444.0</ele><time>2026-04-26T10:00:12.543Z</time></trkpt><trkpt lat="43.82254" lon="12.4451617"><ele>450.66666666666663</ele><time>2026-04-26T10:00:13.538Z</time></trkpt><trkpt lat="43.8226817" lon="12.445055"><ele>457.3333333333333</ele><time>2026-04-26T10:00:14.537Z</time></trkpt><trkpt lat="43.8228333" lon="12.4449433"><ele>464.0</ele><time>2026-04-26T10:00:15.536Z</time></trkpt><trkpt lat="43.8229917" lon="12.4448233"><ele>464.0</ele><time>2026-04-26T10:00:16.537Z</time></trkpt><trkpt lat="43.8231567" lon="12.4447033"><ele>464.0</ele><time>2026-04-26T10:00:17.537Z</time></trkpt><trkpt lat="43.82332" lon="12.4445833"><ele>464.0</ele><time>2026-04-26T10:00:18.536Z</time></trkpt><trkpt lat="43.82348" lon="12.44445"><ele>467.0</ele><time>2026-04-26T10:00:19.536Z</time></trkpt><trkpt lat="43.823645" lon="12.4443133"><ele>470.0</ele><time>2026-04-26T10:00:20.536Z</time></trkpt><trkpt lat="43.8238117" lon="12.4441733"><ele>473.0</ele><time>2026-04-26T10:00:21.537Z</time></trkpt><trkpt lat="43.82397" lon="12.4440483"><ele>473.0</ele><time>2026-04-26T10:00:22.537Z</time></trkpt><trkpt lat="43.82411" lon="12.4439333"><ele>473.0</ele><time>2026-04-26T10:00:23.536Z</time></trkpt><trkpt lat="43.8242267" lon="12.443815"><ele>473.0</ele><time>2026-04-26T10:00:24.538Z</time></trkpt><trkpt lat="43.824325" lon="12.4436833"><ele>473.0</ele><time>2026-04-26T10:00:25.538Z</time></trkpt><trkpt lat="43.82441" lon="12.4435517"><ele>474.79999999999995</ele><time>2026-04-26T10:00:26.538Z</time></trkpt><trkpt lat="43.8244867" lon="12.4434267"><ele>476.59999999999997</ele><time>2026-04-26T10:00:27.534Z</time></trkpt><trkpt lat="43.8245583" lon="12.4433133"><ele>478.40000000000003</ele><time>2026-04-26T10:00:28.536Z</time></trkpt><trkpt lat="43.8246283" lon="12.44323"><ele>480.20000000000005</ele><time>2026-04-26T10:00:29.537Z</time></trkpt><trkpt lat="43.8247033" lon="12.44317"><ele>482.0</ele><time>2026-04-26T10:00:30.539Z</time></trkpt><trkpt lat="43.8247867" lon="12.443135"><ele>482.0</ele><time>2026-04-26T10:00:31.536Z</time></trkpt><trkpt lat="43.824885" lon="12.44314"><ele>482.00000000000006</ele><time>2026-04-26T10:00:32.538Z</time></trkpt><trkpt lat="43.8249817" lon="12.44319"><ele>482.00000000000006</ele><time>2026-04-26T10:00:33.538Z</time></trkpt><trkpt lat="43.8251033" lon="12.4432617"><ele>482.0</ele><time>2026-04-26T10:00:34.534Z</time></trkpt><trkpt lat="43.825205" lon="12.4433067"><ele>482.0</ele><time>2026-04-26T10:00:35.538Z</time></trkpt><trkpt lat="43.8252883" lon="12.4433533"><ele>483.16666666666663</ele><time>2026-04-26T10:00:36.537Z</time></trkpt><trkpt lat="43.82536" lon="12.4434"><ele>484.3333333333333</ele><time>2026-04-26T10:00:37.537Z</time></trkpt><trkpt lat="43.825425" lon="12.4434317"><ele>485.5</ele><time>2026-04-26T10:00:38.536Z</time></trkpt><trkpt lat="43.825485" lon="12.4434"><ele>486.66666666666663</ele><time>2026-04-26T10:00:40.537Z</time></trkpt><trkpt lat="43.825485" lon="12.4432633"><ele>487.8333333333333</ele><time>2026-04-26T10:00:42.535Z</time></trkpt><trkpt lat="43.8254967" lon="12.4431617"><ele>489.0</ele><time>2026-04-26T10:00:43.533Z</time></trkpt><trkpt lat="43.82551" lon="12.44295"><ele>489.66666666666663</ele><time>2026-04-26T10:00:44.535Z</time></trkpt><trkpt lat="43.8255533" lon="12.4427167"><ele>490.3333333333333</ele><time>2026-04-26T10:00:45.535Z</time></trkpt><trkpt lat="43.825645" lon="12.4425133"><ele>491.0</ele><time>2026-04-26T10:00:46.534Z</time></trkpt><trkpt lat="43.8257617" lon="12.4423067"><ele>491.0</ele><time>2026-04-26T10:00:47.535Z</time></trkpt><trkpt lat="43.8259033" lon="12.4421467"><ele>491.0</ele><time>2026-04-26T10:00:48.535Z</time></trkpt><trkpt lat="43.82608" lon="12.4420117"><ele>491.0</ele><time>2026-04-26T10:00:49.537Z</time></trkpt><trkpt lat="43.8262633" lon="12.4419033"><ele>494.3333333333333</ele><time>2026-04-26T10:00:50.535Z</time></trkpt><trkpt lat="43.82646" lon="12.4418033"><ele>497.66666666666663</ele><time>2026-04-26T10:00:51.534Z</time></trkpt><trkpt lat="43.8266417" lon="12.4416833"><ele>501.0</ele><time>2026-04-26T10:00:52.537Z</time></trkpt><trkpt lat="43.8268083" lon="12.441545"><ele>506.0</ele><time>2026-04-26T10:00:53.537Z</time></trkpt><trkpt lat="43.82696" lon="12.4413883"><ele>511.0</ele><time>2026-04-26T10:00:54.537Z</time></trkpt><trkpt lat="43.827105" lon="12.4412267"><ele>516.0</ele><time>2026-04-26T10:00:55.538Z</time></trkpt><trkpt lat="43.8272317" lon="12.4410583"><ele>516.0</ele><time>2026-04-26T10:00:56.533Z</time></trkpt><trkpt lat="43.8273383" lon="12.4408867"><ele>516.0</ele><time>2026-04-26T10:00:57.536Z</time></trkpt><trkpt lat="43.82743" lon="12.4406933"><ele>516.0</ele><time>2026-04-26T10:00:58.536Z</time></trkpt><trkpt lat="43.8275067" lon="12.4404717"><ele>514.6666666666666</ele><time>2026-04-26T10:00:59.532Z</time></trkpt><trkpt lat="43.82757" lon="12.4402267"><ele>513.3333333333333</ele><time>2026-04-26T10:01:00.533Z</time></trkpt><trkpt lat="43.8276233" lon="12.4399733"><ele>512.0</ele><time>2026-04-26T10:01:01.533Z</time></trkpt><trkpt lat="43.8276667" lon="12.439725"><ele>522.3333333333333</ele><time>2026-04-26T10:01:02.533Z</time></trkpt><trkpt lat="43.82771" lon="12.4394833"><ele>532.6666666666666</ele><time>2026-04-26T10:01:03.536Z</time></trkpt><trkpt lat="43.827745" lon="12.4392633"><ele>543.0</ele><time>2026-04-26T10:01:04.533Z</time></trkpt><trkpt lat="43.82776" lon="12.43905"><ele>543.0</ele><time>2026-04-26T10:01:05.534Z</time></trkpt><trkpt lat="43.8277433" lon="12.4388483"><ele>543.0</ele><time>2026-04-26T10:01:06.534Z</time></trkpt><trkpt lat="43.827685" lon="12.43865"><ele>543.0</ele><time>2026-04-26T10:01:07.535Z</time></trkpt><trkpt lat="43.8275783" lon="12.4384667"><ele>540.6666666666666</ele><time>2026-04-26T10:01:08.533Z</time></trkpt><trkpt lat="43.82744" lon="12.4382967"><ele>538.3333333333333</ele><time>2026-04-26T10:01:09.533Z</time></trkpt><trkpt lat="43.827285" lon="12.438155"><ele>536.0</ele><time>2026-04-26T10:01:10.534Z</time></trkpt><trkpt lat="43.82714" lon="12.4380267"><ele>536.25</ele><time>2026-04-26T10:01:11.536Z</time></trkpt><trkpt lat="43.8270067" lon="12.437915"><ele>536.5</ele><time>2026-04-26T10:01:12.537Z</time></trkpt><trkpt lat="43.8268883" lon="12.4378133"><ele>536.75</ele><time>2026-04-26T10:01:13.537Z</time></trkpt><trkpt lat="43.8267767" lon="12.4377167"><ele>537.0</ele><time>2026-04-26T10:01:14.535Z</time></trkpt><trkpt lat="43.8266733" lon="12.43761"><ele>537.0</ele><time>2026-04-26T10:01:15.535Z</time></trkpt><trkpt lat="43.82658" lon="12.4375017"><ele>537.0</ele><time>2026-04-26T10:01:16.534Z</time></trkpt><trkpt lat="43.8264967" lon="12.4373917"><ele>537.0</ele><time>2026-04-26T10:01:17.535Z</time></trkpt><trkpt lat="43.8264317" lon="12.43728"><ele>537.0</ele><time>2026-04-26T10:01:18.536Z</time></trkpt><trkpt lat="43.8263817" lon="12.43716"><ele>537.0</ele><time>2026-04-26T10:01:19.536Z</time></trkpt><trkpt lat="43.8263667" lon="12.4370217"><ele>536.6</ele><time>2026-04-26T10:01:20.535Z</time></trkpt><trkpt lat="43.8263817" lon="12.4368767"><ele>536.2</ele><time>2026-04-26T10:01:21.535Z</time></trkpt><trkpt lat="43.8264183" lon="12.4367433"><ele>535.8</ele><time>2026-04-26T10:01:22.538Z</time></trkpt><trkpt lat="43.826485" lon="12.436645"><ele>535.4</ele><time>2026-04-26T10:01:23.534Z</time></trkpt><trkpt lat="43.8265883" lon="12.436585"><ele>535.0</ele><time>2026-04-26T10:01:24.537Z</time></trkpt><trkpt lat="43.8267383" lon="12.4365617"><ele>539.6666666666667</ele><time>2026-04-26T10:01:25.536Z</time></trkpt><trkpt lat="43.8268867" lon="12.4365683"><ele>544.3333333333334</ele><time>2026-04-26T10:01:26.537Z</time></trkpt><trkpt lat="43.8270417" lon="12.4365767"><ele>549.0</ele><time>2026-04-26T10:01:27.537Z</time></trkpt><trkpt lat="43.8271917" lon="12.4365917"><ele>549.0</ele><time>2026-04-26T10:01:28.536Z</time></trkpt><trkpt lat="43.82734" lon="12.4366"><ele>549.0</ele><time>2026-04-26T10:01:29.536Z</time></trkpt><trkpt lat="43.8274733" lon="12.4365967"><ele>549.0</ele><time>2026-04-26T10:01:30.536Z</time></trkpt><trkpt lat="43.827605" lon="12.4365667"><ele>549.0</ele><time>2026-04-26T10:01:31.538Z</time></trkpt><trkpt lat="43.8277267" lon="12.4365"><ele>552.75</ele><time>2026-04-26T10:01:32.536Z</time></trkpt><trkpt lat="43.8278167" lon="12.436385"><ele>556.5</ele><time>2026-04-26T10:01:33.533Z</time></trkpt><trkpt lat="43.8278733" lon="12.436235"><ele>560.25</ele><time>2026-04-26T10:01:34.536Z</time></trkpt><trkpt lat="43.827915" lon="12.4360667"><ele>564.0</ele><time>2026-04-26T10:01:35.537Z</time></trkpt><trkpt lat="43.8279433" lon="12.4359"><ele>564.0</ele><time>2026-04-26T10:01:36.535Z</time></trkpt><trkpt lat="43.8279667" lon="12.4357533"><ele>564.0</ele><time>2026-04-26T10:01:37.535Z</time></trkpt><trkpt lat="43.8280083" lon="12.4356217"><ele>564.0</ele><time>2026-04-26T10:01:38.534Z</time></trkpt><trkpt lat="43.8280683" lon="12.4354983"><ele>564.0</ele><time>2026-04-26T10:01:39.535Z</time></trkpt><trkpt lat="43.828145" lon="12.435385"><ele>564.0</ele><time>2026-04-26T10:01:40.534Z</time></trkpt><trkpt lat="43.8282383" lon="12.4352883"><ele>566.25</ele><time>2026-04-26T10:01:41.535Z</time></trkpt><trkpt lat="43.8283433" lon="12.4352117"><ele>568.5</ele><time>2026-04-26T10:01:42.534Z</time></trkpt><trkpt lat="43.82847" lon="12.4351483"><ele>570.75</ele><time>2026-04-26T10:01:43.535Z</time></trkpt><trkpt lat="43.8285933" lon="12.4350983"><ele>573.0</ele><time>2026-04-26T10:01:44.537Z</time></trkpt><trkpt lat="43.8286967" lon="12.43505"><ele>573.0</ele><time>2026-04-26T10:01:45.536Z</time></trkpt><trkpt lat="43.8287867" lon="12.4349817"><ele>573.0</ele><time>2026-04-26T10:01:46.533Z</time></trkpt><trkpt lat="43.828855" lon="12.4348783"><ele>573.0</ele><time>2026-04-26T10:01:47.535Z</time></trkpt><trkpt lat="43.828885" lon="12.43472"><ele>573.0</ele><time>2026-04-26T10:01:48.534Z</time></trkpt><trkpt lat="43.828895" lon="12.4345383"><ele>572.5</ele><time>2026-04-26T10:01:49.537Z</time></trkpt><trkpt lat="43.8288967" lon="12.4343433"><ele>572.0</ele><time>2026-04-26T10:01:50.536Z</time></trkpt><trkpt lat="43.8289" lon="12.4341533"><ele>571.5</ele><time>2026-04-26T10:01:51.536Z</time></trkpt><trkpt lat="43.8289083" lon="12.4339617"><ele>571.0</ele><time>2026-04-26T10:01:52.535Z</time></trkpt><trkpt lat="43.8289117" lon="12.4337783"><ele>572.25</ele><time>2026-04-26T10:01:53.534Z</time></trkpt><trkpt lat="43.82892" lon="12.4336017"><ele>573.5</ele><time>2026-04-26T10:01:54.537Z</time></trkpt><trkpt lat="43.82893" lon="12.4334333"><ele>574.75</ele><time>2026-04-26T10:01:55.535Z</time></trkpt><trkpt lat="43.82894" lon="12.4332683"><ele>576.0</ele><time>2026-04-26T10:01:56.533Z</time></trkpt><trkpt lat="43.828945" lon="12.433105"><ele>576.8</ele><time>2026-04-26T10:01:57.534Z</time></trkpt><trkpt lat="43.82895" lon="12.4329417"><ele>577.6</ele><time>2026-04-26T10:01:58.535Z</time></trkpt><trkpt lat="43.8289617" lon="12.4327867"><ele>578.4</ele><time>2026-04-26T10:01:59.536Z</time></trkpt><trkpt lat="43.8289917" lon="12.4326583"><ele>579.2</ele><time>2026-04-26T10:02:00.536Z</time></trkpt><trkpt lat="43.8290367" lon="12.4325617"><ele>580.0</ele><time>2026-04-26T10:02:01.533Z</time></trkpt><trkpt lat="43.8290983" lon="12.432505"><ele>580.0</ele><time>2026-04-26T10:02:02.533Z</time></trkpt><trkpt lat="43.8291833" lon="12.4325183"><ele>580.0</ele><time>2026-04-26T10:02:03.533Z</time></trkpt><trkpt lat="43.8292833" lon="12.4326017"><ele>580.0</ele><time>2026-04-26T10:02:04.537Z</time></trkpt><trkpt lat="43.829365" lon="12.4327733"><ele>580.0</ele><time>2026-04-26T10:02:05.536Z</time></trkpt><trkpt lat="43.8294217" lon="12.4329217"><ele>582.25</ele><time>2026-04-26T10:02:06.533Z</time></trkpt><trkpt lat="43.8294833" lon="12.433075"><ele>584.5</ele><time>2026-04-26T10:02:07.537Z</time></trkpt><trkpt lat="43.8295367" lon="12.4332267"><ele>586.75</ele><time>2026-04-26T10:02:08.533Z</time></trkpt><trkpt lat="43.829585" lon="12.433355"><ele>589.0</ele><time>2026-04-26T10:02:09.533Z</time></trkpt><trkpt lat="43.8296383" lon="12.4334783"><ele>589.0</ele><time>2026-04-26T10:02:10.536Z</time></trkpt><trkpt lat="43.8296983" lon="12.4335883"><ele>589.0</ele><time>2026-04-26T10:02:11.536Z</time></trkpt><trkpt lat="43.8297633" lon="12.4336917"><ele>589.0</ele><time>2026-04-26T10:02:12.535Z</time></trkpt><trkpt lat="43.829825" lon="12.4338033"><ele>589.0</ele><time>2026-04-26T10:02:13.538Z</time></trkpt><trkpt lat="43.8298817" lon="12.4339133"><ele>589.0</ele><time>2026-04-26T10:02:14.539Z</time></trkpt><trkpt lat="43.8299433" lon="12.4340117"><ele>588.3333333333334</ele><time>2026-04-26T10:02:15.536Z</time></trkpt><trkpt lat="43.8299983" lon="12.4340933"><ele>587.6666666666667</ele><time>2026-04-26T10:02:16.538Z</time></trkpt><trkpt lat="43.8300533" lon="12.4341567"><ele>587.0</ele><time>2026-04-26T10:02:17.532Z</time></trkpt><trkpt lat="43.8301483" lon="12.43421"><ele>586.3333333333334</ele><time>2026-04-26T10:02:19.534Z</time></trkpt><trkpt lat="43.8302583" lon="12.434185"><ele>585.6666666666666</ele><time>2026-04-26T10:02:21.537Z</time></trkpt><trkpt lat="43.8303133" lon="12.434135"><ele>585.0</ele><time>2026-04-26T10:02:22.537Z</time></trkpt><trkpt lat="43.8303833" lon="12.4340067"><ele>583.6</ele><time>2026-04-26T10:02:24.537Z</time></trkpt><trkpt lat="43.8304333" lon="12.4339167"><ele>582.2</ele><time>2026-04-26T10:02:26.532Z</time></trkpt><trkpt lat="43.8304983" lon="12.4339133"><ele>580.8</ele><time>2026-04-26T10:02:28.535Z</time></trkpt><trkpt lat="43.8306" lon="12.4340183"><ele>579.4</ele><time>2026-04-26T10:02:30.537Z</time></trkpt><trkpt lat="43.8306717" lon="12.4341133"><ele>578.0</ele><time>2026-04-26T10:02:31.536Z</time></trkpt><trkpt lat="43.8307433" lon="12.4342033"><ele>578.0</ele><time>2026-04-26T10:02:32.537Z</time></trkpt><trkpt lat="43.8308167" lon="12.43429"><ele>578.0</ele><time>2026-04-26T10:02:33.536Z</time></trkpt><trkpt lat="43.83089" lon="12.4343783"><ele>578.0</ele><time>2026-04-26T10:02:34.536Z</time></trkpt><trkpt lat="43.8309583" lon="12.434475"><ele>578.0</ele><time>2026-04-26T10:02:35.536Z</time></trkpt><trkpt lat="43.8310217" lon="12.4345667"><ele>578.0</ele><time>2026-04-26T10:02:36.537Z</time></trkpt><trkpt lat="43.8310883" lon="12.4346517"><ele>575.0</ele><time>2026-04-26T10:02:37.538Z</time></trkpt><trkpt lat="43.8311617" lon="12.4347367"><ele>572.0</ele><time>2026-04-26T10:02:38.536Z</time></trkpt><trkpt lat="43.8312433" lon="12.434815"><ele>569.0</ele><time>2026-04-26T10:02:39.536Z</time></trkpt><trkpt lat="43.8313317" lon="12.4348917"><ele>566.0</ele><time>2026-04-26T10:02:40.537Z</time></trkpt><trkpt lat="43.83143" lon="12.434955"><ele>563.0</ele><time>2026-04-26T10:02:41.536Z</time></trkpt><trkpt lat="43.8315333" lon="12.4350067"><ele>563.0</ele><time>2026-04-26T10:02:42.537Z</time></trkpt><trkpt lat="43.83164" lon="12.43506"><ele>563.0</ele><time>2026-04-26T10:02:43.537Z</time></trkpt><trkpt lat="43.8317483" lon="12.4351233"><ele>563.0</ele><time>2026-04-26T10:02:44.536Z</time></trkpt><trkpt lat="43.8318583" lon="12.4351983"><ele>563.0</ele><time>2026-04-26T10:02:45.536Z</time></trkpt><trkpt lat="43.83195" lon="12.435275"><ele>562.4</ele><time>2026-04-26T10:02:46.536Z</time></trkpt><trkpt lat="43.8320233" lon="12.435355"><ele>561.8</ele><time>2026-04-26T10:02:47.537Z</time></trkpt><trkpt lat="43.8320817" lon="12.4354483"><ele>561.2</ele><time>2026-04-26T10:02:48.537Z</time></trkpt><trkpt lat="43.832125" lon="12.4355633"><ele>560.6</ele><time>2026-04-26T10:02:49.536Z</time></trkpt><trkpt lat="43.8321567" lon="12.4357133"><ele>560.0</ele><time>2026-04-26T10:02:50.536Z</time></trkpt><trkpt lat="43.83218" lon="12.4358717"><ele>560.0</ele><time>2026-04-26T10:02:51.539Z</time></trkpt><trkpt lat="43.832205" lon="12.43603"><ele>560.0</ele><time>2026-04-26T10:02:52.536Z</time></trkpt><trkpt lat="43.832235" lon="12.436185"><ele>560.0</ele><time>2026-04-26T10:02:53.536Z</time></trkpt><trkpt lat="43.8322683" lon="12.4363333"><ele>560.0</ele><time>2026-04-26T10:02:54.537Z</time></trkpt><trkpt lat="43.8323083" lon="12.43648"><ele>559.4</ele><time>2026-04-26T10:02:55.536Z</time></trkpt><trkpt lat="43.8323567" lon="12.436615"><ele>558.8</ele><time>2026-04-26T10:02:56.537Z</time></trkpt><trkpt lat="43.832405" lon="12.43674"><ele>558.2</ele><time>2026-04-26T10:02:57.533Z</time></trkpt><trkpt lat="43.83245" lon="12.4368383"><ele>557.6</ele><time>2026-04-26T10:02:58.533Z</time></trkpt><trkpt lat="43.8325017" lon="12.4369367"><ele>557.0</ele><time>2026-04-26T10:03:00.534Z</time></trkpt><trkpt lat="43.83259" lon="12.4369833"><ele>555.8000000000001</ele><time>2026-04-26T10:03:09.537Z</time></trkpt><trkpt lat="43.83267" lon="12.437065"><ele>554.6</ele><time>2026-04-26T10:03:11.536Z</time></trkpt><trkpt lat="43.8327417" lon="12.4371483"><ele>553.4000000000001</ele><time>2026-04-26T10:03:13.537Z</time></trkpt><trkpt lat="43.832805" lon="12.43723"><ele>552.2</ele><time>2026-04-26T10:03:15.537Z</time></trkpt><trkpt lat="43.8328717" lon="12.4373183"><ele>551.0</ele><time>2026-04-26T10:03:17.535Z</time></trkpt><trkpt lat="43.83294" lon="12.43742"><ele>549.6666666666666</ele><time>2026-04-26T10:03:19.537Z</time></trkpt><trkpt lat="43.833015" lon="12.43752"><ele>548.3333333333333</ele><time>2026-04-26T10:03:21.534Z</time></trkpt><trkpt lat="43.8330983" lon="12.43759"><ele>547.0</ele><time>2026-04-26T10:03:23.535Z</time></trkpt><trkpt lat="43.8331783" lon="12.4376433"><ele>545.6666666666666</ele><time>2026-04-26T10:03:25.538Z</time></trkpt><trkpt lat="43.8332433" lon="12.4377133"><ele>544.3333333333334</ele><time>2026-04-26T10:03:27.535Z</time></trkpt><trkpt lat="43.8333" lon="12.43778"><ele>543.0</ele><time>2026-04-26T10:03:30.536Z</time></trkpt><trkpt lat="43.833365" lon="12.4378167"><ele>543.0</ele><time>2026-04-26T10:03:39.533Z</time></trkpt><trkpt lat="43.8334217" lon="12.437915"><ele>543.0</ele><time>2026-04-26T10:03:42.537Z</time></trkpt><trkpt lat="43.8334717" lon="12.4379783"><ele>543.0</ele><time>2026-04-26T10:03:45.536Z</time></trkpt><trkpt lat="43.8335333" lon="12.4380233"><ele>543.0</ele><time>2026-04-26T10:03:55.537Z</time></trkpt><trkpt lat="43.8336067" lon="12.4380783"><ele>543.0</ele><time>2026-04-26T10:03:59.538Z</time></trkpt><trkpt lat="43.833675" lon="12.4381617"><ele>543.0</ele><time>2026-04-26T10:04:02.536Z</time></trkpt><trkpt lat="43.8337483" lon="12.4382717"><ele>539.6</ele><time>2026-04-26T10:04:04.535Z</time></trkpt><trkpt lat="43.83381" lon="12.4383933"><ele>536.1999999999999</ele><time>2026-04-26T10:04:06.536Z</time></trkpt><trkpt lat="43.8338417" lon="12.438545"><ele>532.8</ele><time>2026-04-26T10:04:08.537Z</time></trkpt><trkpt lat="43.8338467" lon="12.4386367"><ele>529.4</ele><time>2026-04-26T10:04:09.536Z</time></trkpt><trkpt lat="43.8338433" lon="12.4387333"><ele>526.0</ele><time>2026-04-26T10:04:10.538Z</time></trkpt><trkpt lat="43.833815" lon="12.4388933"><ele>524.8</ele><time>2026-04-26T10:04:12.534Z</time></trkpt><trkpt lat="43.83374" lon="12.439035"><ele>523.6</ele><time>2026-04-26T10:04:14.536Z</time></trkpt><trkpt lat="43.83365" lon="12.4391317"><ele>522.4</ele><time>2026-04-26T10:04:16.536Z</time></trkpt><trkpt lat="43.8335933" lon="12.4392033"><ele>521.2</ele><time>2026-04-26T10:04:18.537Z</time></trkpt><trkpt lat="43.833565" lon="12.439315"><ele>520.0</ele><time>2026-04-26T10:04:21.536Z</time></trkpt><trkpt lat="43.8336017" lon="12.439465"><ele>520.0</ele><time>2026-04-26T10:04:23.536Z</time></trkpt><trkpt lat="43.8336533" lon="12.4395667"><ele>520.0</ele><time>2026-04-26T10:04:24.537Z</time></trkpt><trkpt lat="43.8337017" lon="12.4396633"><ele>520.0</ele><time>2026-04-26T10:04:25.536Z</time></trkpt><trkpt lat="43.8337417" lon="12.4397667"><ele>520.0</ele><time>2026-04-26T10:04:26.535Z</time></trkpt><trkpt lat="43.8337817" lon="12.439885"><ele>520.0</ele><time>2026-04-26T10:04:27.536Z</time></trkpt><trkpt lat="43.833815" lon="12.440005"><ele>520.0</ele><time>2026-04-26T10:04:28.537Z</time></trkpt><trkpt lat="43.8338417" lon="12.440115"><ele>517.2</ele><time>2026-04-26T10:04:29.534Z</time></trkpt><trkpt lat="43.8338767" lon="12.440215"><ele>514.4</ele><time>2026-04-26T10:04:30.537Z</time></trkpt><trkpt lat="43.83392" lon="12.4403133"><ele>511.6</ele><time>2026-04-26T10:04:31.535Z</time></trkpt><trkpt lat="43.8339883" lon="12.4404167"><ele>508.8</ele><time>2026-04-26T10:04:32.534Z</time></trkpt><trkpt lat="43.8340733" lon="12.4405217"><ele>506.0</ele><time>2026-04-26T10:04:33.536Z</time></trkpt><trkpt lat="43.8341567" lon="12.4406183"><ele>504.6</ele><time>2026-04-26T10:04:34.537Z</time></trkpt><trkpt lat="43.834245" lon="12.4407033"><ele>503.20000000000005</ele><time>2026-04-26T10:04:35.537Z</time></trkpt><trkpt lat="43.8343317" lon="12.4407783"><ele>501.79999999999995</ele><time>2026-04-26T10:04:36.538Z</time></trkpt><trkpt lat="43.8344133" lon="12.4408467"><ele>500.4</ele><time>2026-04-26T10:04:37.538Z</time></trkpt><trkpt lat="43.8344883" lon="12.44093"><ele>499.0</ele><time>2026-04-26T10:04:38.537Z</time></trkpt><trkpt lat="43.8345567" lon="12.4410283"><ele>497.4</ele><time>2026-04-26T10:04:39.537Z</time></trkpt><trkpt lat="43.8346217" lon="12.441135"><ele>495.79999999999995</ele><time>2026-04-26T10:04:40.535Z</time></trkpt><trkpt lat="43.834685" lon="12.441245"><ele>494.20000000000005</ele><time>2026-04-26T10:04:41.535Z</time></trkpt><trkpt lat="43.8347467" lon="12.4413483"><ele>492.6</ele><time>2026-04-26T10:04:42.534Z</time></trkpt><trkpt lat="43.834815" lon="12.441435"><ele>491.0</ele><time>2026-04-26T10:04:43.538Z</time></trkpt><trkpt lat="43.83488" lon="12.4415217"><ele>491.0</ele><time>2026-04-26T10:04:44.535Z</time></trkpt><trkpt lat="43.83494" lon="12.44161"><ele>490.99999999999994</ele><time>2026-04-26T10:04:45.536Z</time></trkpt><trkpt lat="43.8349917" lon="12.4416967"><ele>491.0</ele><time>2026-04-26T10:04:46.536Z</time></trkpt><trkpt lat="43.8350317" lon="12.4417867"><ele>491.0</ele><time>2026-04-26T10:04:47.536Z</time></trkpt><trkpt lat="43.8350483" lon="12.4418817"><ele>490.99999999999994</ele><time>2026-04-26T10:04:48.537Z</time></trkpt><trkpt lat="43.83506" lon="12.4419683"><ele>491.0</ele><time>2026-04-26T10:04:49.537Z</time></trkpt><trkpt lat="43.8350933" lon="12.442045"><ele>491.0</ele><time>2026-04-26T10:04:50.535Z</time></trkpt><trkpt lat="43.8351383" lon="12.442125"><ele>488.71428571428567</ele><time>2026-04-26T10:04:51.537Z</time></trkpt><trkpt lat="43.835185" lon="12.442205"><ele>486.4285714285714</ele><time>2026-04-26T10:04:52.537Z</time></trkpt><trkpt lat="43.8352233" lon="12.44229"><ele>484.1428571428571</ele><time>2026-04-26T10:04:53.538Z</time></trkpt><trkpt lat="43.8352417" lon="12.4423867"><ele>481.8571428571429</ele><time>2026-04-26T10:04:54.536Z</time></trkpt><trkpt lat="43.8352517" lon="12.4424883"><ele>479.5714285714286</ele><time>2026-04-26T10:04:55.537Z</time></trkpt><trkpt lat="43.8352483" lon="12.442595"><ele>477.28571428571433</ele><time>2026-04-26T10:04:56.537Z</time></trkpt><trkpt lat="43.8352367" lon="12.4426933"><ele>475.0</ele><time>2026-04-26T10:04:57.536Z</time></trkpt><trkpt lat="43.8352317" lon="12.44287"><ele>473.83333333333337</ele><time>2026-04-26T10:04:59.536Z</time></trkpt><trkpt lat="43.8352467" lon="12.4429783"><ele>472.6666666666667</ele><time>2026-04-26T10:05:00.536Z</time></trkpt><trkpt lat="43.8352733" lon="12.44311"><ele>471.5</ele><time>2026-04-26T10:05:01.539Z</time></trkpt><trkpt lat="43.8353033" lon="12.4432417"><ele>470.33333333333337</ele><time>2026-04-26T10:05:02.537Z</time></trkpt><trkpt lat="43.8353267" lon="12.4433567"><ele>469.1666666666667</ele><time>2026-04-26T10:05:03.537Z</time></trkpt><trkpt lat="43.83534" lon="12.44347"><ele>468.0</ele><time>2026-04-26T10:05:04.537Z</time></trkpt><trkpt lat="43.8353333" lon="12.4435767"><ele>468.0</ele><time>2026-04-26T10:05:05.537Z</time></trkpt><trkpt lat="43.835315" lon="12.44368"><ele>468.0</ele><time>2026-04-26T10:05:06.537Z</time></trkpt><trkpt lat="43.835305" lon="12.4437783"><ele>468.0</ele><time>2026-04-26T10:05:07.536Z</time></trkpt><trkpt lat="43.8353083" lon="12.4438817"><ele>468.0</ele><time>2026-04-26T10:05:08.539Z</time></trkpt><trkpt lat="43.83532" lon="12.443985"><ele>468.0</ele><time>2026-04-26T10:05:09.538Z</time></trkpt><trkpt lat="43.8353417" lon="12.4440917"><ele>468.0</ele><time>2026-04-26T10:05:10.538Z</time></trkpt><trkpt lat="43.8353683" lon="12.4442"><ele>466.4</ele><time>2026-04-26T10:05:11.536Z</time></trkpt><trkpt lat="43.8354033" lon="12.4443067"><ele>464.79999999999995</ele><time>2026-04-26T10:05:12.538Z</time></trkpt><trkpt lat="43.8354483" lon="12.4444183"><ele>463.2</ele><time>2026-04-26T10:05:13.539Z</time></trkpt><trkpt lat="43.8354967" lon="12.4445383"><ele>461.6</ele><time>2026-04-26T10:05:14.54Z</time></trkpt><trkpt lat="43.8355467" lon="12.4446633"><ele>460.0</ele><time>2026-04-26T10:05:15.537Z</time></trkpt><trkpt lat="43.8355983" lon="12.4447917"><ele>458.0</ele><time>2026-04-26T10:05:16.534Z</time></trkpt><trkpt lat="43.835665" lon="12.4449217"><ele>456.0</ele><time>2026-04-26T10:05:17.536Z</time></trkpt><trkpt lat="43.835735" lon="12.4450383"><ele>454.0</ele><time>2026-04-26T10:05:18.535Z</time></trkpt><trkpt lat="43.8358117" lon="12.4451483"><ele>452.0</ele><time>2026-04-26T10:05:19.535Z</time></trkpt><trkpt lat="43.835875" lon="12.4452517"><ele>450.0</ele><time>2026-04-26T10:05:20.536Z</time></trkpt><trkpt lat="43.835925" lon="12.4453567"><ele>449.4</ele><time>2026-04-26T10:05:21.535Z</time></trkpt><trkpt lat="43.8359517" lon="12.445485"><ele>448.8</ele><time>2026-04-26T10:05:22.534Z</time></trkpt><trkpt lat="43.8359683" lon="12.445635"><ele>448.20000000000005</ele><time>2026-04-26T10:05:23.538Z</time></trkpt><trkpt lat="43.8359717" lon="12.4457833"><ele>447.6</ele><time>2026-04-26T10:05:24.537Z</time></trkpt><trkpt lat="43.8359633" lon="12.445915"><ele>447.0</ele><time>2026-04-26T10:05:25.537Z</time></trkpt><trkpt lat="43.8359417" lon="12.44603"><ele>447.0</ele><time>2026-04-26T10:05:26.534Z</time></trkpt><trkpt lat="43.835915" lon="12.4461367"><ele>447.0</ele><time>2026-04-26T10:05:27.536Z</time></trkpt><trkpt lat="43.8358933" lon="12.4462417"><ele>447.0</ele><time>2026-04-26T10:05:28.537Z</time></trkpt><trkpt lat="43.8358833" lon="12.44634"><ele>447.0</ele><time>2026-04-26T10:05:29.537Z</time></trkpt><trkpt lat="43.8358933" lon="12.446435"><ele>447.0</ele><time>2026-04-26T10:05:30.537Z</time></trkpt><trkpt lat="43.8359233" lon="12.44653"><ele>447.0</ele><time>2026-04-26T10:05:31.537Z</time></trkpt><trkpt lat="43.83597" lon="12.4466467"><ele>446.20000000000005</ele><time>2026-04-26T10:05:32.537Z</time></trkpt><trkpt lat="43.836025" lon="12.446775"><ele>445.40000000000003</ele><time>2026-04-26T10:05:33.534Z</time></trkpt><trkpt lat="43.83609" lon="12.44691"><ele>444.59999999999997</ele><time>2026-04-26T10:05:34.535Z</time></trkpt><trkpt lat="43.836145" lon="12.447045"><ele>443.79999999999995</ele><time>2026-04-26T10:05:35.537Z</time></trkpt><trkpt lat="43.8361983" lon="12.4471767"><ele>443.0</ele><time>2026-04-26T10:05:36.538Z</time></trkpt><trkpt lat="43.8362367" lon="12.4472983"><ele>443.0</ele><time>2026-04-26T10:05:37.537Z</time></trkpt><trkpt lat="43.8362667" lon="12.4474167"><ele>442.99999999999994</ele><time>2026-04-26T10:05:38.538Z</time></trkpt><trkpt lat="43.83629" lon="12.4475267"><ele>442.99999999999994</ele><time>2026-04-26T10:05:39.537Z</time></trkpt><trkpt lat="43.8362983" lon="12.4476417"><ele>443.0</ele><time>2026-04-26T10:05:40.537Z</time></trkpt><trkpt lat="43.83629" lon="12.4477767"><ele>443.0</ele><time>2026-04-26T10:05:41.538Z</time></trkpt><trkpt lat="43.8362783" lon="12.44791"><ele>442.59999999999997</ele><time>2026-04-26T10:05:42.537Z</time></trkpt><trkpt lat="43.8362733" lon="12.4480367"><ele>442.19999999999993</ele><time>2026-04-26T10:05:43.536Z</time></trkpt><trkpt lat="43.8362667" lon="12.4481667"><ele>441.8</ele><time>2026-04-26T10:05:44.534Z</time></trkpt><trkpt lat="43.8362667" lon="12.4482983"><ele>441.4</ele><time>2026-04-26T10:05:45.538Z</time></trkpt><trkpt lat="43.8362817" lon="12.4484267"><ele>441.0</ele><time>2026-04-26T10:05:46.534Z</time></trkpt><trkpt lat="43.8362983" lon="12.4485567"><ele>441.0</ele><time>2026-04-26T10:05:47.536Z</time></trkpt><trkpt lat="43.8363167" lon="12.448685"><ele>441.0</ele><time>2026-04-26T10:05:48.536Z</time></trkpt><trkpt lat="43.836335" lon="12.448815"><ele>441.0</ele><time>2026-04-26T10:05:49.536Z</time></trkpt><trkpt lat="43.83635" lon="12.4489433"><ele>441.0</ele><time>2026-04-26T10:05:50.535Z</time></trkpt><trkpt lat="43.83637" lon="12.4490733"><ele>441.0</ele><time>2026-04-26T10:05:51.537Z</time></trkpt><trkpt lat="43.8363983" lon="12.4492067"><ele>440.4</ele><time>2026-04-26T10:05:52.536Z</time></trkpt><trkpt lat="43.8364267" lon="12.4493367"><ele>439.8</ele><time>2026-04-26T10:05:53.537Z</time></trkpt><trkpt lat="43.836455" lon="12.4494733"><ele>439.19999999999993</ele><time>2026-04-26T10:05:54.537Z</time></trkpt><trkpt lat="43.8364783" lon="12.4496117"><ele>438.59999999999997</ele><time>2026-04-26T10:05:55.537Z</time></trkpt><trkpt lat="43.8364917" lon="12.4497433"><ele>438.0</ele><time>2026-04-26T10:05:56.537Z</time></trkpt><trkpt lat="43.8365067" lon="12.4498833"><ele>436.0</ele><time>2026-04-26T10:05:57.537Z</time></trkpt><trkpt lat="43.8365183" lon="12.4500283"><ele>433.99999999999994</ele><time>2026-04-26T10:05:58.536Z</time></trkpt><trkpt lat="43.83653" lon="12.45017"><ele>431.99999999999994</ele><time>2026-04-26T10:05:59.535Z</time></trkpt><trkpt lat="43.8365417" lon="12.4503033"><ele>430.0</ele><time>2026-04-26T10:06:00.536Z</time></trkpt><trkpt lat="43.8365517" lon="12.4504317"><ele>428.0</ele><time>2026-04-26T10:06:01.536Z</time></trkpt><trkpt lat="43.8365683" lon="12.4505583"><ele>426.0</ele><time>2026-04-26T10:06:02.533Z</time></trkpt><trkpt lat="43.8365983" lon="12.4506867"><ele>423.99999999999994</ele><time>2026-04-26T10:06:03.533Z</time></trkpt><trkpt lat="43.83664" lon="12.4508083"><ele>422.0</ele><time>2026-04-26T10:06:04.533Z</time></trkpt><trkpt lat="43.83669" lon="12.4509217"><ele>420.0</ele><time>2026-04-26T10:06:05.536Z</time></trkpt><trkpt lat="43.8367467" lon="12.4510167"><ele>418.0</ele><time>2026-04-26T10:06:06.534Z</time></trkpt><trkpt lat="43.836805" lon="12.451095"><ele>418.00000000000006</ele><time>2026-04-26T10:06:07.535Z</time></trkpt><trkpt lat="43.8368567" lon="12.45116"><ele>418.0</ele><time>2026-04-26T10:06:08.533Z</time></trkpt><trkpt lat="43.8369417" lon="12.451235"><ele>418.0</ele><time>2026-04-26T10:06:10.533Z</time></trkpt><trkpt lat="43.837015" lon="12.4512667"><ele>418.0</ele><time>2026-04-26T10:06:12.536Z</time></trkpt><trkpt lat="43.8370983" lon="12.4512933"><ele>418.00000000000006</ele><time>2026-04-26T10:06:14.537Z</time></trkpt><trkpt lat="43.8371633" lon="12.4513483"><ele>418.0</ele><time>2026-04-26T10:06:16.536Z</time></trkpt><trkpt lat="43.8371867" lon="12.4514567"><ele>416.00000000000006</ele><time>2026-04-26T10:06:18.536Z</time></trkpt><trkpt lat="43.837165" lon="12.451595"><ele>414.0</ele><time>2026-04-26T10:06:20.536Z</time></trkpt><trkpt lat="43.8371467" lon="12.4516817"><ele>412.0</ele><time>2026-04-26T10:06:21.537Z</time></trkpt><trkpt lat="43.83713" lon="12.451785"><ele>410.0</ele><time>2026-04-26T10:06:22.536Z</time></trkpt><trkpt lat="43.8371167" lon="12.4519"><ele>408.00000000000006</ele><time>2026-04-26T10:06:23.536Z</time></trkpt><trkpt lat="43.8370983" lon="12.452035"><ele>406.0</ele><time>2026-04-26T10:06:24.536Z</time></trkpt><trkpt lat="43.8370717" lon="12.4521917"><ele>405.0</ele><time>2026-04-26T10:06:25.537Z</time></trkpt><trkpt lat="43.8370417" lon="12.4523517"><ele>404.0</ele><time>2026-04-26T10:06:26.537Z</time></trkpt><trkpt lat="43.837005" lon="12.45251"><ele>403.0</ele><time>2026-04-26T10:06:27.533Z</time></trkpt><trkpt lat="43.8369783" lon="12.4526533"><ele>402.0</ele><time>2026-04-26T10:06:28.533Z</time></trkpt><trkpt lat="43.8369733" lon="12.452775"><ele>401.0</ele><time>2026-04-26T10:06:29.537Z</time></trkpt><trkpt lat="43.8369883" lon="12.4528833"><ele>400.0</ele><time>2026-04-26T10:06:30.536Z</time></trkpt><trkpt lat="43.8370183" lon="12.452995"><ele>399.0</ele><time>2026-04-26T10:06:31.536Z</time></trkpt><trkpt lat="43.837065" lon="12.45312"><ele>398.0</ele><time>2026-04-26T10:06:32.536Z</time></trkpt><trkpt lat="43.8371217" lon="12.45325"><ele>397.0</ele><time>2026-04-26T10:06:33.536Z</time></trkpt><trkpt lat="43.8371767" lon="12.453385"><ele>396.0</ele><time>2026-04-26T10:06:34.536Z</time></trkpt><trkpt lat="43.8372217" lon="12.4535167"><ele>396.0</ele><time>2026-04-26T10:06:35.537Z</time></trkpt><trkpt lat="43.83727" lon="12.453635"><ele>396.0</ele><time>2026-04-26T10:06:36.535Z</time></trkpt><trkpt lat="43.8373167" lon="12.4537433"><ele>396.0</ele><time>2026-04-26T10:06:37.534Z</time></trkpt><trkpt lat="43.8373683" lon="12.4538367"><ele>396.0</ele><time>2026-04-26T10:06:38.536Z</time></trkpt><trkpt lat="43.83742" lon="12.4539183"><ele>396.0</ele><time>2026-04-26T10:06:39.536Z</time></trkpt><trkpt lat="43.837465" lon="12.4539933"><ele>396.0</ele><time>2026-04-26T10:06:40.536Z</time></trkpt><trkpt lat="43.8375217" lon="12.454115"><ele>395.8</ele><time>2026-04-26T10:06:42.537Z</time></trkpt><trkpt lat="43.837555" lon="12.4542017"><ele>395.6</ele><time>2026-04-26T10:06:44.536Z</time></trkpt><trkpt lat="43.83764" lon="12.4544167"><ele>395.4</ele><time>2026-04-26T10:11:45.534Z</time></trkpt><trkpt lat="43.8376833" lon="12.4545583"><ele>395.2</ele><time>2026-04-26T10:11:55.535Z</time></trkpt><trkpt lat="43.837715" lon="12.4546583"><ele>395.0</ele><time>2026-04-26T10:11:57.535Z</time></trkpt><trkpt lat="43.8377433" lon="12.4547533"><ele>391.8</ele><time>2026-04-26T10:11:59.534Z</time></trkpt><trkpt lat="43.8377733" lon="12.4548333"><ele>388.6</ele><time>2026-04-26T10:12:01.535Z</time></trkpt><trkpt lat="43.837805" lon="12.454975"><ele>385.4</ele><time>2026-04-26T10:12:17.537Z</time></trkpt><trkpt lat="43.83783" lon="12.45508"><ele>382.2</ele><time>2026-04-26T10:12:18.536Z</time></trkpt><trkpt lat="43.83786" lon="12.455205"><ele>379.0</ele><time>2026-04-26T10:12:19.536Z</time></trkpt><trkpt lat="43.8379033" lon="12.4553467"><ele>380.25</ele><time>2026-04-26T10:12:20.536Z</time></trkpt><trkpt lat="43.8379533" lon="12.45549"><ele>381.5</ele><time>2026-04-26T10:12:21.537Z</time></trkpt><trkpt lat="43.8380133" lon="12.4556317"><ele>382.75</ele><time>2026-04-26T10:12:22.537Z</time></trkpt><trkpt lat="43.83808" lon="12.4557683"><ele>384.0</ele><time>2026-04-26T10:12:23.537Z</time></trkpt><trkpt lat="43.8381467" lon="12.4559067"><ele>384.0</ele><time>2026-04-26T10:12:24.536Z</time></trkpt><trkpt lat="43.8382117" lon="12.4560467"><ele>384.0</ele><time>2026-04-26T10:12:25.538Z</time></trkpt><trkpt lat="43.8382717" lon="12.45617"><ele>384.0</ele><time>2026-04-26T10:12:26.536Z</time></trkpt><trkpt lat="43.8383317" lon="12.456285"><ele>384.0</ele><time>2026-04-26T10:12:27.536Z</time></trkpt><trkpt lat="43.8383867" lon="12.456405"><ele>384.0</ele><time>2026-04-26T10:12:28.536Z</time></trkpt><trkpt lat="43.8384333" lon="12.4565267"><ele>384.8333333333333</ele><time>2026-04-26T10:12:29.538Z</time></trkpt><trkpt lat="43.838465" lon="12.456645"><ele>385.66666666666663</ele><time>2026-04-26T10:12:30.536Z</time></trkpt><trkpt lat="43.8384833" lon="12.4567683"><ele>386.5</ele><time>2026-04-26T10:12:31.538Z</time></trkpt><trkpt lat="43.8384967" lon="12.4568817"><ele>387.3333333333333</ele><time>2026-04-26T10:12:32.536Z</time></trkpt><trkpt lat="43.8385067" lon="12.45698"><ele>388.16666666666663</ele><time>2026-04-26T10:12:33.536Z</time></trkpt><trkpt lat="43.8385217" lon="12.4570917"><ele>389.0</ele><time>2026-04-26T10:12:34.537Z</time></trkpt><trkpt lat="43.8385333" lon="12.4572217"><ele>389.0</ele><time>2026-04-26T10:12:35.536Z</time></trkpt><trkpt lat="43.8385283" lon="12.4573617"><ele>389.0</ele><time>2026-04-26T10:12:36.536Z</time></trkpt><trkpt lat="43.8385167" lon="12.4574983"><ele>389.0</ele><time>2026-04-26T10:12:37.536Z</time></trkpt><trkpt lat="43.8385" lon="12.4576317"><ele>389.0</ele><time>2026-04-26T10:12:38.537Z</time></trkpt><trkpt lat="43.8384783" lon="12.4577683"><ele>389.0</ele><time>2026-04-26T10:12:39.537Z</time></trkpt><trkpt lat="43.8384633" lon="12.4578933"><ele>391.49999999999994</ele><time>2026-04-26T10:12:40.537Z</time></trkpt><trkpt lat="43.83844" lon="12.4580083"><ele>394.0</ele><time>2026-04-26T10:12:41.537Z</time></trkpt><trkpt lat="43.8384133" lon="12.45813"><ele>396.5</ele><time>2026-04-26T10:12:42.536Z</time></trkpt><trkpt lat="43.8383933" lon="12.4582383"><ele>399.0</ele><time>2026-04-26T10:12:43.536Z</time></trkpt><trkpt lat="43.8383783" lon="12.45834"><ele>401.49999999999994</ele><time>2026-04-26T10:12:44.539Z</time></trkpt><trkpt lat="43.838375" lon="12.458435"><ele>404.0</ele><time>2026-04-26T10:12:45.536Z</time></trkpt><trkpt lat="43.8383817" lon="12.4585333"><ele>403.99999999999994</ele><time>2026-04-26T10:12:46.534Z</time></trkpt><trkpt lat="43.8383933" lon="12.4586433"><ele>404.0</ele><time>2026-04-26T10:12:47.537Z</time></trkpt><trkpt lat="43.8384" lon="12.45876"><ele>404.0</ele><time>2026-04-26T10:12:48.536Z</time></trkpt><trkpt lat="43.838405" lon="12.4588783"><ele>404.0</ele><time>2026-04-26T10:12:49.536Z</time></trkpt><trkpt lat="43.8384183" lon="12.4589767"><ele>403.99999999999994</ele><time>2026-04-26T10:12:50.536Z</time></trkpt><trkpt lat="43.83844" lon="12.4590617"><ele>404.0</ele><time>2026-04-26T10:12:51.537Z</time></trkpt><trkpt lat="43.83847" lon="12.4591433"><ele>404.16666666666663</ele><time>2026-04-26T10:12:52.535Z</time></trkpt><trkpt lat="43.8385067" lon="12.4592283"><ele>404.3333333333333</ele><time>2026-04-26T10:12:53.538Z</time></trkpt><trkpt lat="43.8385367" lon="12.45932"><ele>404.5</ele><time>2026-04-26T10:12:54.537Z</time></trkpt><trkpt lat="43.8385617" lon="12.4594267"><ele>404.66666666666663</ele><time>2026-04-26T10:12:55.536Z</time></trkpt><trkpt lat="43.8385867" lon="12.4595283"><ele>404.8333333333333</ele><time>2026-04-26T10:12:56.535Z</time></trkpt><trkpt lat="43.8386017" lon="12.45962"><ele>405.0</ele><time>2026-04-26T10:12:57.536Z</time></trkpt><trkpt lat="43.8386167" lon="12.45979"><ele>405.6666666666667</ele><time>2026-04-26T10:12:59.536Z</time></trkpt><trkpt lat="43.8386383" lon="12.4599517"><ele>406.33333333333337</ele><time>2026-04-26T10:13:01.536Z</time></trkpt><trkpt lat="43.8386583" lon="12.4600433"><ele>407.0</ele><time>2026-04-26T10:13:02.533Z</time></trkpt><trkpt lat="43.8386767" lon="12.4601417"><ele>407.6666666666667</ele><time>2026-04-26T10:13:03.537Z</time></trkpt><trkpt lat="43.838705" lon="12.4602633"><ele>408.33333333333337</ele><time>2026-04-26T10:13:04.537Z</time></trkpt><trkpt lat="43.8387233" lon="12.4603933"><ele>409.0</ele><time>2026-04-26T10:13:05.537Z</time></trkpt><trkpt lat="43.8387283" lon="12.46052"><ele>410.33333333333337</ele><time>2026-04-26T10:13:06.536Z</time></trkpt><trkpt lat="43.8387317" lon="12.4606383"><ele>411.6666666666667</ele><time>2026-04-26T10:13:07.536Z</time></trkpt><trkpt lat="43.8387383" lon="12.4607383"><ele>413.0</ele><time>2026-04-26T10:13:08.536Z</time></trkpt><trkpt lat="43.83876" lon="12.4608283"><ele>414.33333333333337</ele><time>2026-04-26T10:13:09.537Z</time></trkpt><trkpt lat="43.8387833" lon="12.4609283"><ele>415.6666666666667</ele><time>2026-04-26T10:13:10.536Z</time></trkpt><trkpt lat="43.83881" lon="12.46104"><ele>417.0</ele><time>2026-04-26T10:13:11.536Z</time></trkpt><trkpt lat="43.8388383" lon="12.4611533"><ele>417.0</ele><time>2026-04-26T10:13:12.537Z</time></trkpt><trkpt lat="43.838875" lon="12.4612567"><ele>417.0</ele><time>2026-04-26T10:13:13.536Z</time></trkpt><trkpt lat="43.83892" lon="12.4613483"><ele>417.0</ele><time>2026-04-26T10:13:14.539Z</time></trkpt><trkpt lat="43.83896" lon="12.4614367"><ele>417.0</ele><time>2026-04-26T10:13:15.536Z</time></trkpt><trkpt lat="43.838995" lon="12.4615333"><ele>417.0</ele><time>2026-04-26T10:13:16.534Z</time></trkpt><trkpt lat="43.839015" lon="12.4616383"><ele>417.0</ele><time>2026-04-26T10:13:17.534Z</time></trkpt><trkpt lat="43.839025" lon="12.461735"><ele>418.2857142857143</ele><time>2026-04-26T10:13:18.534Z</time></trkpt><trkpt lat="43.8390383" lon="12.461825"><ele>419.57142857142856</ele><time>2026-04-26T10:13:19.536Z</time></trkpt><trkpt lat="43.8390583" lon="12.461915"><ele>420.85714285714283</ele><time>2026-04-26T10:13:20.533Z</time></trkpt><trkpt lat="43.83909" lon="12.462"><ele>422.1428571428571</ele><time>2026-04-26T10:13:21.534Z</time></trkpt><trkpt lat="43.8391267" lon="12.4620767"><ele>423.42857142857144</ele><time>2026-04-26T10:13:22.534Z</time></trkpt><trkpt lat="43.8391667" lon="12.4621533"><ele>424.71428571428567</ele><time>2026-04-26T10:13:23.536Z</time></trkpt><trkpt lat="43.8392217" lon="12.4622317"><ele>426.0</ele><time>2026-04-26T10:13:24.537Z</time></trkpt><trkpt lat="43.839275" lon="12.4623117"><ele>426.0</ele><time>2026-04-26T10:13:25.536Z</time></trkpt><trkpt lat="43.8393217" lon="12.4623783"><ele>426.0</ele><time>2026-04-26T10:13:26.537Z</time></trkpt><trkpt lat="43.8394" lon="12.46249"><ele>426.0</ele><time>2026-04-26T10:13:28.536Z</time></trkpt><trkpt lat="43.8394467" lon="12.462635"><ele>426.0</ele><time>2026-04-26T10:13:30.536Z</time></trkpt><trkpt lat="43.8394717" lon="12.46273"><ele>426.0</ele><time>2026-04-26T10:13:31.538Z</time></trkpt><trkpt lat="43.8394967" lon="12.46284"><ele>427.1666666666667</ele><time>2026-04-26T10:13:32.537Z</time></trkpt><trkpt lat="43.8395217" lon="12.4629567"><ele>428.33333333333337</ele><time>2026-04-26T10:13:33.536Z</time></trkpt><trkpt lat="43.839555" lon="12.46307"><ele>429.5</ele><time>2026-04-26T10:13:34.536Z</time></trkpt><trkpt lat="43.8395817" lon="12.46317"><ele>430.6666666666667</ele><time>2026-04-26T10:13:35.538Z</time></trkpt><trkpt lat="43.839595" lon="12.4632667"><ele>431.83333333333337</ele><time>2026-04-26T10:13:36.537Z</time></trkpt><trkpt lat="43.8396083" lon="12.4633583"><ele>433.0</ele><time>2026-04-26T10:13:37.534Z</time></trkpt><trkpt lat="43.8396133" lon="12.4634467"><ele>433.00000000000006</ele><time>2026-04-26T10:13:38.534Z</time></trkpt><trkpt lat="43.8396133" lon="12.463605"><ele>433.0</ele><time>2026-04-26T10:13:40.534Z</time></trkpt><trkpt lat="43.8395867" lon="12.4637717"><ele>433.0</ele><time>2026-04-26T10:13:42.534Z</time></trkpt><trkpt lat="43.8395733" lon="12.4638633"><ele>433.0</ele><time>2026-04-26T10:13:43.534Z</time></trkpt><trkpt lat="43.8395783" lon="12.4639517"><ele>433.00000000000006</ele><time>2026-04-26T10:13:44.534Z</time></trkpt><trkpt lat="43.8395967" lon="12.4640383"><ele>433.0</ele><time>2026-04-26T10:13:45.536Z</time></trkpt><trkpt lat="43.8396367" lon="12.4641317"><ele>433.00000000000006</ele><time>2026-04-26T10:13:46.537Z</time></trkpt><trkpt lat="43.83968" lon="12.46424"><ele>433.0</ele><time>2026-04-26T10:13:47.537Z</time></trkpt><trkpt lat="43.8397217" lon="12.46436"><ele>433.0</ele><time>2026-04-26T10:13:48.536Z</time></trkpt><trkpt lat="43.8397483" lon="12.4644883"><ele>433.0</ele><time>2026-04-26T10:13:49.535Z</time></trkpt><trkpt lat="43.8397717" lon="12.46461"><ele>433.00000000000006</ele><time>2026-04-26T10:13:50.533Z</time></trkpt><trkpt lat="43.8397817" lon="12.46471"><ele>433.0</ele><time>2026-04-26T10:13:51.536Z</time></trkpt><trkpt lat="43.8397933" lon="12.464835"><ele>433.0</ele><time>2026-04-26T10:13:53.537Z</time></trkpt><trkpt lat="43.8398583" lon="12.4649967"><ele>432.99999999999994</ele><time>2026-04-26T10:14:32.537Z</time></trkpt><trkpt lat="43.8398983" lon="12.46512"><ele>432.99999999999994</ele><time>2026-04-26T10:14:33.537Z</time></trkpt><trkpt lat="43.8399433" lon="12.4652483"><ele>433.0</ele><time>2026-04-26T10:14:34.537Z</time></trkpt><trkpt lat="43.83999" lon="12.4653783"><ele>433.0</ele><time>2026-04-26T10:14:35.538Z</time></trkpt><trkpt lat="43.8400267" lon="12.4655167"><ele>433.0</ele><time>2026-04-26T10:14:36.538Z</time></trkpt><trkpt lat="43.84005" lon="12.465655"><ele>432.99999999999994</ele><time>2026-04-26T10:14:37.537Z</time></trkpt><trkpt lat="43.840065" lon="12.4657917"><ele>432.99999999999994</ele><time>2026-04-26T10:14:38.537Z</time></trkpt><trkpt lat="43.8400767" lon="12.4659233"><ele>433.0</ele><time>2026-04-26T10:14:39.536Z</time></trkpt><trkpt lat="43.84009" lon="12.4660367"><ele>433.0</ele><time>2026-04-26T10:14:40.538Z</time></trkpt><trkpt lat="43.8401117" lon="12.4661467"><ele>433.2</ele><time>2026-04-26T10:14:41.537Z</time></trkpt><trkpt lat="43.8401467" lon="12.4662783"><ele>433.4</ele><time>2026-04-26T10:14:42.535Z</time></trkpt><trkpt lat="43.8401867" lon="12.466415"><ele>433.59999999999997</ele><time>2026-04-26T10:14:43.537Z</time></trkpt><trkpt lat="43.8402333" lon="12.4665667"><ele>433.79999999999995</ele><time>2026-04-26T10:14:44.536Z</time></trkpt><trkpt lat="43.8402867" lon="12.466715"><ele>434.0</ele><time>2026-04-26T10:14:45.537Z</time></trkpt><trkpt lat="43.84034" lon="12.4668567"><ele>434.0</ele><time>2026-04-26T10:14:46.536Z</time></trkpt><trkpt lat="43.8403767" lon="12.4669917"><ele>434.0</ele><time>2026-04-26T10:14:47.538Z</time></trkpt><trkpt lat="43.8404133" lon="12.4671117"><ele>434.0</ele><time>2026-04-26T10:14:48.538Z</time></trkpt><trkpt lat="43.840455" lon="12.4672233"><ele>434.0</ele><time>2026-04-26T10:14:49.534Z</time></trkpt><trkpt lat="43.840515" lon="12.467335"><ele>434.0</ele><time>2026-04-26T10:14:50.535Z</time></trkpt><trkpt lat="43.8405833" lon="12.46744"><ele>433.79999999999995</ele><time>2026-04-26T10:14:51.537Z</time></trkpt><trkpt lat="43.84066" lon="12.4675283"><ele>433.59999999999997</ele><time>2026-04-26T10:14:52.537Z</time></trkpt><trkpt lat="43.84074" lon="12.4676217"><ele>433.4</ele><time>2026-04-26T10:14:53.537Z</time></trkpt><trkpt lat="43.840815" lon="12.4677267"><ele>433.2</ele><time>2026-04-26T10:14:54.537Z</time></trkpt><trkpt lat="43.840895" lon="12.467825"><ele>433.0</ele><time>2026-04-26T10:14:55.536Z</time></trkpt><trkpt lat="43.8409733" lon="12.4679133"><ele>434.4</ele><time>2026-04-26T10:14:56.536Z</time></trkpt><trkpt lat="43.8410667" lon="12.4679867"><ele>435.79999999999995</ele><time>2026-04-26T10:14:57.537Z</time></trkpt><trkpt lat="43.8411583" lon="12.46804"><ele>437.2</ele><time>2026-04-26T10:14:58.536Z</time></trkpt><trkpt lat="43.8412433" lon="12.4680817"><ele>438.6</ele><time>2026-04-26T10:14:59.536Z</time></trkpt><trkpt lat="43.8413267" lon="12.4681367"><ele>440.0</ele><time>2026-04-26T10:15:00.534Z</time></trkpt><trkpt lat="43.84141" lon="12.468215"><ele>439.99999999999994</ele><time>2026-04-26T10:15:01.536Z</time></trkpt><trkpt lat="43.84149" lon="12.4683017"><ele>440.0</ele><time>2026-04-26T10:15:02.535Z</time></trkpt><trkpt lat="43.8415567" lon="12.46838"><ele>440.0</ele><time>2026-04-26T10:15:03.536Z</time></trkpt><trkpt lat="43.8416217" lon="12.468445"><ele>440.0</ele><time>2026-04-26T10:15:04.533Z</time></trkpt><trkpt lat="43.8416917" lon="12.4685"><ele>439.99999999999994</ele><time>2026-04-26T10:15:05.538Z</time></trkpt><trkpt lat="43.8417683" lon="12.46855"><ele>440.0</ele><time>2026-04-26T10:15:06.537Z</time></trkpt><trkpt lat="43.8418583" lon="12.468605"><ele>439.4</ele><time>2026-04-26T10:15:07.536Z</time></trkpt><trkpt lat="43.841955" lon="12.4686717"><ele>438.8</ele><time>2026-04-26T10:15:08.536Z</time></trkpt><trkpt lat="43.8420467" lon="12.46875"><ele>438.20000000000005</ele><time>2026-04-26T10:15:09.537Z</time></trkpt><trkpt lat="43.8421233" lon="12.4688317"><ele>437.6</ele><time>2026-04-26T10:15:10.536Z</time></trkpt><trkpt lat="43.842195" lon="12.468895"><ele>437.0</ele><time>2026-04-26T10:15:11.536Z</time></trkpt><trkpt lat="43.84227" lon="12.4689317"><ele>436.99999999999994</ele><time>2026-04-26T10:15:12.537Z</time></trkpt><trkpt lat="43.8423533" lon="12.4689517"><ele>437.0</ele><time>2026-04-26T10:15:13.536Z</time></trkpt><trkpt lat="43.8424433" lon="12.4689667"><ele>437.0</ele><time>2026-04-26T10:15:14.539Z</time></trkpt><trkpt lat="43.8425267" lon="12.4690017"><ele>437.0</ele><time>2026-04-26T10:15:15.537Z</time></trkpt><trkpt lat="43.842605" lon="12.4690767"><ele>436.99999999999994</ele><time>2026-04-26T10:15:16.536Z</time></trkpt><trkpt lat="43.8426733" lon="12.46916"><ele>437.0</ele><time>2026-04-26T10:15:17.533Z</time></trkpt><trkpt lat="43.8427417" lon="12.4692383"><ele>437.16666666666663</ele><time>2026-04-26T10:15:18.536Z</time></trkpt><trkpt lat="43.84281" lon="12.4693117"><ele>437.3333333333333</ele><time>2026-04-26T10:15:19.533Z</time></trkpt><trkpt lat="43.8428717" lon="12.4693817"><ele>437.5</ele><time>2026-04-26T10:15:20.532Z</time></trkpt><trkpt lat="43.842935" lon="12.469455"><ele>437.66666666666663</ele><time>2026-04-26T10:15:21.534Z</time></trkpt><trkpt lat="43.843" lon="12.469525"><ele>437.8333333333333</ele><time>2026-04-26T10:15:22.533Z</time></trkpt><trkpt lat="43.8430583" lon="12.469595"><ele>438.0</ele><time>2026-04-26T10:15:23.534Z</time></trkpt><trkpt lat="43.8431117" lon="12.46966"><ele>438.3333333333333</ele><time>2026-04-26T10:15:24.533Z</time></trkpt><trkpt lat="43.8431633" lon="12.4697167"><ele>438.66666666666663</ele><time>2026-04-26T10:15:25.534Z</time></trkpt><trkpt lat="43.84325" lon="12.4697883"><ele>439.0</ele><time>2026-04-26T10:15:27.534Z</time></trkpt><trkpt lat="43.843295" lon="12.4698517"><ele>439.3333333333333</ele><time>2026-04-26T10:15:29.534Z</time></trkpt><trkpt lat="43.8433167" lon="12.4699567"><ele>439.66666666666663</ele><time>2026-04-26T10:15:31.534Z</time></trkpt><trkpt lat="43.8433317" lon="12.4700683"><ele>440.0</ele><time>2026-04-26T10:15:34.534Z</time></trkpt><trkpt lat="43.843365" lon="12.470205"><ele>440.0</ele><time>2026-04-26T10:15:36.534Z</time></trkpt><trkpt lat="43.84339" lon="12.470295"><ele>440.0</ele><time>2026-04-26T10:15:37.534Z</time></trkpt><trkpt lat="43.8434183" lon="12.470415"><ele>440.0</ele><time>2026-04-26T10:15:38.536Z</time></trkpt><trkpt lat="43.843455" lon="12.47056"><ele>440.0</ele><time>2026-04-26T10:15:39.537Z</time></trkpt><trkpt lat="43.8435083" lon="12.4707167"><ele>440.0</ele><time>2026-04-26T10:15:40.536Z</time></trkpt><trkpt lat="43.8435883" lon="12.4708717"><ele>444.0</ele><time>2026-04-26T10:15:41.536Z</time></trkpt><trkpt lat="43.8436917" lon="12.4710067"><ele>448.0</ele><time>2026-04-26T10:15:42.537Z</time></trkpt><trkpt lat="43.843805" lon="12.4711167"><ele>452.0</ele><time>2026-04-26T10:15:43.536Z</time></trkpt><trkpt lat="43.8439167" lon="12.47119"><ele>456.0</ele><time>2026-04-26T10:15:44.536Z</time></trkpt><trkpt lat="43.8440233" lon="12.4712183"><ele>456.0</ele><time>2026-04-26T10:15:45.537Z</time></trkpt><trkpt lat="43.8441367" lon="12.4712"><ele>456.0</ele><time>2026-04-26T10:15:46.537Z</time></trkpt><trkpt lat="43.8442567" lon="12.4711417"><ele>456.0</ele><time>2026-04-26T10:15:47.535Z</time></trkpt><trkpt lat="43.8443717" lon="12.4710617"><ele>456.0</ele><time>2026-04-26T10:15:48.534Z</time></trkpt><trkpt lat="43.84448" lon="12.470975"><ele>456.6</ele><time>2026-04-26T10:15:49.534Z</time></trkpt><trkpt lat="43.84458" lon="12.470895"><ele>457.20000000000005</ele><time>2026-04-26T10:15:50.538Z</time></trkpt><trkpt lat="43.84467" lon="12.47084"><ele>457.79999999999995</ele><time>2026-04-26T10:15:51.535Z</time></trkpt><trkpt lat="43.8447567" lon="12.470825"><ele>458.4</ele><time>2026-04-26T10:15:52.534Z</time></trkpt><trkpt lat="43.8448367" lon="12.4708583"><ele>459.0</ele><time>2026-04-26T10:15:53.534Z</time></trkpt><trkpt lat="43.8449" lon="12.470965"><ele>459.0</ele><time>2026-04-26T10:15:54.536Z</time></trkpt><trkpt lat="43.8449567" lon="12.4710933"><ele>459.0</ele><time>2026-04-26T10:15:55.538Z</time></trkpt><trkpt lat="43.845015" lon="12.4712517"><ele>459.0</ele><time>2026-04-26T10:15:56.536Z</time></trkpt><trkpt lat="43.845095" lon="12.4713783"><ele>459.0</ele><time>2026-04-26T10:15:57.535Z</time></trkpt><trkpt lat="43.8451817" lon="12.4715067"><ele>462.0</ele><time>2026-04-26T10:15:58.534Z</time></trkpt><trkpt lat="43.8453017" lon="12.471615"><ele>465.0</ele><time>2026-04-26T10:15:59.535Z</time></trkpt><trkpt lat="43.8454183" lon="12.4717217"><ele>468.0</ele><time>2026-04-26T10:16:00.534Z</time></trkpt><trkpt lat="43.84554" lon="12.4718267"><ele>471.0</ele><time>2026-04-26T10:16:01.534Z</time></trkpt><trkpt lat="43.84566" lon="12.4719167"><ele>471.0</ele><time>2026-04-26T10:16:02.534Z</time></trkpt><trkpt lat="43.845785" lon="12.4719833"><ele>471.0</ele><time>2026-04-26T10:16:03.534Z</time></trkpt><trkpt lat="43.8458983" lon="12.472015"><ele>471.0</ele><time>2026-04-26T10:16:04.534Z</time></trkpt><trkpt lat="43.8460033" lon="12.4720633"><ele>471.0</ele><time>2026-04-26T10:16:05.535Z</time></trkpt><trkpt lat="43.8460967" lon="12.4721383"><ele>470.5</ele><time>2026-04-26T10:16:06.535Z</time></trkpt><trkpt lat="43.8461733" lon="12.4722683"><ele>470.0</ele><time>2026-04-26T10:16:07.535Z</time></trkpt><trkpt lat="43.846215" lon="12.4724383"><ele>469.5</ele><time>2026-04-26T10:16:08.534Z</time></trkpt><trkpt lat="43.84624" lon="12.4726383"><ele>469.0</ele><time>2026-04-26T10:16:09.533Z</time></trkpt><trkpt lat="43.8462667" lon="12.47285"><ele>474.0</ele><time>2026-04-26T10:16:10.536Z</time></trkpt><trkpt lat="43.8463133" lon="12.473065"><ele>479.0</ele><time>2026-04-26T10:16:11.536Z</time></trkpt><trkpt lat="43.846395" lon="12.4732633"><ele>484.0</ele><time>2026-04-26T10:16:12.536Z</time></trkpt><trkpt lat="43.8464883" lon="12.4734467"><ele>484.0</ele><time>2026-04-26T10:16:13.536Z</time></trkpt><trkpt lat="43.84658" lon="12.4736183"><ele>484.0</ele><time>2026-04-26T10:16:14.536Z</time></trkpt><trkpt lat="43.846645" lon="12.4738083"><ele>484.0</ele><time>2026-04-26T10:16:15.537Z</time></trkpt><trkpt lat="43.8466867" lon="12.4740117"><ele>485.75</ele><time>2026-04-26T10:16:16.537Z</time></trkpt><trkpt lat="43.8467083" lon="12.4742167"><ele>487.5</ele><time>2026-04-26T10:16:17.533Z</time></trkpt><trkpt lat="43.84671" lon="12.47441"><ele>489.25</ele><time>2026-04-26T10:16:18.534Z</time></trkpt><trkpt lat="43.8466767" lon="12.4745833"><ele>491.0</ele><time>2026-04-26T10:16:19.533Z</time></trkpt><trkpt lat="43.8466" lon="12.4747217"><ele>491.0</ele><time>2026-04-26T10:16:20.533Z</time></trkpt><trkpt lat="43.8464933" lon="12.4748267"><ele>491.0</ele><time>2026-04-26T10:16:21.533Z</time></trkpt><trkpt lat="43.8463583" lon="12.4749117"><ele>491.0</ele><time>2026-04-26T10:16:22.534Z</time></trkpt><trkpt lat="43.8462217" lon="12.47498"><ele>491.0</ele><time>2026-04-26T10:16:23.533Z</time></trkpt><trkpt lat="43.84609" lon="12.4750317"><ele>491.0</ele><time>2026-04-26T10:16:24.533Z</time></trkpt><trkpt lat="43.8459783" lon="12.4750733"><ele>491.0</ele><time>2026-04-26T10:16:25.534Z</time></trkpt><trkpt lat="43.84588" lon="12.4751133"><ele>491.0</ele><time>2026-04-26T10:16:26.533Z</time></trkpt><trkpt lat="43.8457967" lon="12.4751467"><ele>491.0</ele><time>2026-04-26T10:16:27.533Z</time></trkpt><trkpt lat="43.8457217" lon="12.475175"><ele>491.0</ele><time>2026-04-26T10:16:28.533Z</time></trkpt><trkpt lat="43.8456233" lon="12.4752533"><ele>492.6</ele><time>2026-04-26T10:16:30.537Z</time></trkpt><trkpt lat="43.8456117" lon="12.475405"><ele>494.20000000000005</ele><time>2026-04-26T10:16:32.533Z</time></trkpt><trkpt lat="43.8456483" lon="12.4755017"><ele>495.79999999999995</ele><time>2026-04-26T10:16:33.533Z</time></trkpt><trkpt lat="43.84571" lon="12.47559"><ele>497.4</ele><time>2026-04-26T10:16:34.534Z</time></trkpt><trkpt lat="43.8457817" lon="12.4756633"><ele>499.0</ele><time>2026-04-26T10:16:35.533Z</time></trkpt><trkpt lat="43.84586" lon="12.4757267"><ele>498.4</ele><time>2026-04-26T10:16:36.535Z</time></trkpt><trkpt lat="43.8459267" lon="12.4758033"><ele>497.79999999999995</ele><time>2026-04-26T10:16:37.534Z</time></trkpt><trkpt lat="43.8459867" lon="12.4758917"><ele>497.20000000000005</ele><time>2026-04-26T10:16:38.533Z</time></trkpt><trkpt lat="43.8460417" lon="12.4759933"><ele>496.6</ele><time>2026-04-26T10:16:39.534Z</time></trkpt><trkpt lat="43.8460933" lon="12.47611"><ele>496.0</ele><time>2026-04-26T10:16:40.533Z</time></trkpt><trkpt lat="43.846135" lon="12.4762383"><ele>498.6</ele><time>2026-04-26T10:16:41.537Z</time></trkpt><trkpt lat="43.8461767" lon="12.476375"><ele>501.20000000000005</ele><time>2026-04-26T10:16:42.536Z</time></trkpt><trkpt lat="43.8462183" lon="12.4765117"><ele>503.79999999999995</ele><time>2026-04-26T10:16:43.538Z</time></trkpt><trkpt lat="43.8462433" lon="12.4766533"><ele>506.4</ele><time>2026-04-26T10:16:44.536Z</time></trkpt><trkpt lat="43.8462517" lon="12.4768033"><ele>509.0</ele><time>2026-04-26T10:16:45.538Z</time></trkpt><trkpt lat="43.8462567" lon="12.476945"><ele>508.99999999999994</ele><time>2026-04-26T10:16:46.533Z</time></trkpt><trkpt lat="43.8462617" lon="12.4770733"><ele>509.0</ele><time>2026-04-26T10:16:47.534Z</time></trkpt><trkpt lat="43.846275" lon="12.4771883"><ele>509.0</ele><time>2026-04-26T10:16:48.534Z</time></trkpt><trkpt lat="43.8463033" lon="12.47729"><ele>509.0</ele><time>2026-04-26T10:16:49.534Z</time></trkpt><trkpt lat="43.8463533" lon="12.4773833"><ele>508.99999999999994</ele><time>2026-04-26T10:16:50.533Z</time></trkpt><trkpt lat="43.846435" lon="12.4774567"><ele>509.0</ele><time>2026-04-26T10:16:51.533Z</time></trkpt><trkpt lat="43.8465367" lon="12.4775183"><ele>511.0</ele><time>2026-04-26T10:16:52.533Z</time></trkpt><trkpt lat="43.846655" lon="12.4775583"><ele>513.0</ele><time>2026-04-26T10:16:53.533Z</time></trkpt><trkpt lat="43.8467733" lon="12.47759"><ele>515.0</ele><time>2026-04-26T10:16:54.535Z</time></trkpt><trkpt lat="43.846895" lon="12.4776117"><ele>517.0</ele><time>2026-04-26T10:16:55.534Z</time></trkpt><trkpt lat="43.8470167" lon="12.4776233"><ele>517.8000000000001</ele><time>2026-04-26T10:16:56.533Z</time></trkpt><trkpt lat="43.847145" lon="12.4776267"><ele>518.6</ele><time>2026-04-26T10:16:57.533Z</time></trkpt><trkpt lat="43.8472583" lon="12.47763"><ele>519.4000000000001</ele><time>2026-04-26T10:16:58.537Z</time></trkpt><trkpt lat="43.8473483" lon="12.477655"><ele>520.2</ele><time>2026-04-26T10:16:59.534Z</time></trkpt><trkpt lat="43.8474183" lon="12.4777033"><ele>521.0</ele><time>2026-04-26T10:17:00.535Z</time></trkpt><trkpt lat="43.847475" lon="12.47777"><ele>521.0</ele><time>2026-04-26T10:17:01.536Z</time></trkpt><trkpt lat="43.8475167" lon="12.4778733"><ele>521.0</ele><time>2026-04-26T10:17:02.534Z</time></trkpt><trkpt lat="43.8475383" lon="12.4780017"><ele>521.0</ele><time>2026-04-26T10:17:03.533Z</time></trkpt><trkpt lat="43.847575" lon="12.478125"><ele>521.0</ele><time>2026-04-26T10:17:04.534Z</time></trkpt><trkpt lat="43.8476367" lon="12.4782483"><ele>521.0</ele><time>2026-04-26T10:17:05.534Z</time></trkpt><trkpt lat="43.8476983" lon="12.4783617"><ele>522.8</ele><time>2026-04-26T10:17:06.534Z</time></trkpt><trkpt lat="43.847765" lon="12.4784683"><ele>524.6</ele><time>2026-04-26T10:17:07.534Z</time></trkpt><trkpt lat="43.8478433" lon="12.4785717"><ele>526.4</ele><time>2026-04-26T10:17:08.533Z</time></trkpt><trkpt lat="43.8479317" lon="12.478665"><ele>528.2</ele><time>2026-04-26T10:17:09.533Z</time></trkpt><trkpt lat="43.8480167" lon="12.4787583"><ele>530.0</ele><time>2026-04-26T10:17:10.537Z</time></trkpt><trkpt lat="43.8481033" lon="12.47886"><ele>531.4</ele><time>2026-04-26T10:17:11.536Z</time></trkpt><trkpt lat="43.84819" lon="12.4789667"><ele>532.8</ele><time>2026-04-26T10:17:12.535Z</time></trkpt><trkpt lat="43.848265" lon="12.4790767"><ele>534.2</ele><time>2026-04-26T10:17:13.533Z</time></trkpt><trkpt lat="43.848345" lon="12.4791817"><ele>535.6</ele><time>2026-04-26T10:17:14.536Z</time></trkpt><trkpt lat="43.8484367" lon="12.47927"><ele>537.0</ele><time>2026-04-26T10:17:15.536Z</time></trkpt><trkpt lat="43.84852" lon="12.4793483"><ele>538.6</ele><time>2026-04-26T10:17:16.534Z</time></trkpt><trkpt lat="43.8485967" lon="12.4794267"><ele>540.2</ele><time>2026-04-26T10:17:17.535Z</time></trkpt><trkpt lat="43.8486683" lon="12.4795133"><ele>541.8</ele><time>2026-04-26T10:17:18.537Z</time></trkpt><trkpt lat="43.84874" lon="12.4796083"><ele>543.4</ele><time>2026-04-26T10:17:19.533Z</time></trkpt><trkpt lat="43.848805" lon="12.4797033"><ele>545.0</ele><time>2026-04-26T10:17:20.534Z</time></trkpt><trkpt lat="43.8488733" lon="12.4798"><ele>545.0</ele><time>2026-04-26T10:17:21.534Z</time></trkpt><trkpt lat="43.8489533" lon="12.4798967"><ele>545.0</ele><time>2026-04-26T10:17:22.535Z</time></trkpt><trkpt lat="43.8490367" lon="12.479995"><ele>545.0</ele><time>2026-04-26T10:17:23.534Z</time></trkpt><trkpt lat="43.8491133" lon="12.4800917"><ele>545.0</ele><time>2026-04-26T10:17:24.536Z</time></trkpt><trkpt lat="43.8491783" lon="12.4801817"><ele>545.0</ele><time>2026-04-26T10:17:25.535Z</time></trkpt><trkpt lat="43.8492467" lon="12.480265"><ele>546.8333333333333</ele><time>2026-04-26T10:17:26.535Z</time></trkpt><trkpt lat="43.8493183" lon="12.480345"><ele>548.6666666666666</ele><time>2026-04-26T10:17:27.535Z</time></trkpt><trkpt lat="43.8493883" lon="12.48043"><ele>550.5</ele><time>2026-04-26T10:17:28.537Z</time></trkpt><trkpt lat="43.8494483" lon="12.4805267"><ele>552.3333333333334</ele><time>2026-04-26T10:17:29.535Z</time></trkpt><trkpt lat="43.849485" lon="12.4806117"><ele>554.1666666666667</ele><time>2026-04-26T10:17:30.534Z</time></trkpt><trkpt lat="43.849525" lon="12.4806817"><ele>556.0</ele><time>2026-04-26T10:17:31.534Z</time></trkpt><trkpt lat="43.8495783" lon="12.4807433"><ele>556.0</ele><time>2026-04-26T10:17:32.537Z</time></trkpt><trkpt lat="43.8496483" lon="12.480805"><ele>556.0</ele><time>2026-04-26T10:17:33.533Z</time></trkpt><trkpt lat="43.8497283" lon="12.480865"><ele>556.0</ele><time>2026-04-26T10:17:34.534Z</time></trkpt><trkpt lat="43.8498" lon="12.4809233"><ele>556.0</ele><time>2026-04-26T10:17:35.534Z</time></trkpt><trkpt lat="43.8498683" lon="12.480985"><ele>556.0</ele><time>2026-04-26T10:17:36.538Z</time></trkpt><trkpt lat="43.8499333" lon="12.48106"><ele>556.0</ele><time>2026-04-26T10:17:37.534Z</time></trkpt><trkpt lat="43.8499867" lon="12.48116"><ele>555.8333333333334</ele><time>2026-04-26T10:17:38.534Z</time></trkpt><trkpt lat="43.850005" lon="12.481275"><ele>555.6666666666667</ele><time>2026-04-26T10:17:39.533Z</time></trkpt><trkpt lat="43.8500317" lon="12.481385"><ele>555.5</ele><time>2026-04-26T10:17:40.536Z</time></trkpt><trkpt lat="43.8500517" lon="12.4814883"><ele>555.3333333333334</ele><time>2026-04-26T10:17:41.534Z</time></trkpt><trkpt lat="43.8500883" lon="12.4815683"><ele>555.1666666666666</ele><time>2026-04-26T10:17:42.537Z</time></trkpt><trkpt lat="43.850145" lon="12.4816233"><ele>555.0</ele><time>2026-04-26T10:17:43.535Z</time></trkpt><trkpt lat="43.850215" lon="12.4816783"><ele>555.0</ele><time>2026-04-26T10:17:44.534Z</time></trkpt><trkpt lat="43.8502883" lon="12.4817467"><ele>555.0</ele><time>2026-04-26T10:17:45.533Z</time></trkpt><trkpt lat="43.8503617" lon="12.4818167"><ele>555.0</ele><time>2026-04-26T10:17:46.534Z</time></trkpt><trkpt lat="43.8504283" lon="12.4818817"><ele>555.0</ele><time>2026-04-26T10:17:47.533Z</time></trkpt><trkpt lat="43.8504817" lon="12.48193"><ele>555.0</ele><time>2026-04-26T10:17:48.535Z</time></trkpt><trkpt lat="43.85056" lon="12.4820283"><ele>555.0</ele><time>2026-04-26T10:17:50.533Z</time></trkpt><trkpt lat="43.8505667" lon="12.4821733"><ele>550.6</ele><time>2026-04-26T10:17:52.536Z</time></trkpt><trkpt lat="43.8505433" lon="12.4822567"><ele>546.2</ele><time>2026-04-26T10:17:53.538Z</time></trkpt><trkpt lat="43.8504817" lon="12.4823867"><ele>541.8</ele><time>2026-04-26T10:17:54.534Z</time></trkpt><trkpt lat="43.85042" lon="12.4825133"><ele>537.4</ele><time>2026-04-26T10:17:55.536Z</time></trkpt><trkpt lat="43.8503517" lon="12.4826667"><ele>533.0</ele><time>2026-04-26T10:17:56.535Z</time></trkpt><trkpt lat="43.8502917" lon="12.48281"><ele>530.75</ele><time>2026-04-26T10:17:57.534Z</time></trkpt><trkpt lat="43.8502383" lon="12.4829617"><ele>528.5</ele><time>2026-04-26T10:17:58.535Z</time></trkpt><trkpt lat="43.850195" lon="12.4831117"><ele>526.25</ele><time>2026-04-26T10:17:59.536Z</time></trkpt><trkpt lat="43.850155" lon="12.483255"><ele>524.0</ele><time>2026-04-26T10:18:00.534Z</time></trkpt><trkpt lat="43.85011" lon="12.4833933"><ele>524.0</ele><time>2026-04-26T10:18:01.536Z</time></trkpt><trkpt lat="43.8500633" lon="12.4835267"><ele>524.0</ele><time>2026-04-26T10:18:02.534Z</time></trkpt><trkpt lat="43.85001" lon="12.4836517"><ele>524.0</ele><time>2026-04-26T10:18:03.537Z</time></trkpt><trkpt lat="43.8499567" lon="12.4837783"><ele>524.0</ele><time>2026-04-26T10:18:04.541Z</time></trkpt><trkpt lat="43.8499133" lon="12.4839067"><ele>524.0</ele><time>2026-04-26T10:18:05.538Z</time></trkpt><trkpt lat="43.8498867" lon="12.4840317"><ele>523.8</ele><time>2026-04-26T10:18:06.54Z</time></trkpt><trkpt lat="43.8498717" lon="12.4841533"><ele>523.5999999999999</ele><time>2026-04-26T10:18:07.537Z</time></trkpt><trkpt lat="43.8498633" lon="12.4842783"><ele>523.4</ele><time>2026-04-26T10:18:08.537Z</time></trkpt><trkpt lat="43.8498567" lon="12.4844083"><ele>523.1999999999999</ele><time>2026-04-26T10:18:09.537Z</time></trkpt><trkpt lat="43.84985" lon="12.4845417"><ele>523.0</ele><time>2026-04-26T10:18:10.537Z</time></trkpt><trkpt lat="43.8498467" lon="12.4846783"><ele>521.4</ele><time>2026-04-26T10:18:11.537Z</time></trkpt><trkpt lat="43.84984" lon="12.4848167"><ele>519.8</ele><time>2026-04-26T10:18:12.537Z</time></trkpt><trkpt lat="43.8498267" lon="12.48495"><ele>518.2</ele><time>2026-04-26T10:18:13.538Z</time></trkpt><trkpt lat="43.8498183" lon="12.4850767"><ele>516.6</ele><time>2026-04-26T10:18:14.537Z</time></trkpt><trkpt lat="43.849825" lon="12.4851983"><ele>515.0</ele><time>2026-04-26T10:18:15.537Z</time></trkpt><trkpt lat="43.8498367" lon="12.4853183"><ele>513.1666666666666</ele><time>2026-04-26T10:18:16.537Z</time></trkpt><trkpt lat="43.849845" lon="12.48543"><ele>511.3333333333333</ele><time>2026-04-26T10:18:17.537Z</time></trkpt><trkpt lat="43.84985" lon="12.4855267"><ele>509.5</ele><time>2026-04-26T10:18:18.537Z</time></trkpt><trkpt lat="43.8498583" lon="12.48562"><ele>507.66666666666663</ele><time>2026-04-26T10:18:19.537Z</time></trkpt><trkpt lat="43.8498817" lon="12.4857317"><ele>505.8333333333333</ele><time>2026-04-26T10:18:20.537Z</time></trkpt><trkpt lat="43.8499033" lon="12.485865"><ele>504.0</ele><time>2026-04-26T10:18:21.537Z</time></trkpt><trkpt lat="43.8499233" lon="12.486005"><ele>504.0</ele><time>2026-04-26T10:18:22.538Z</time></trkpt><trkpt lat="43.849945" lon="12.48615"><ele>504.0</ele><time>2026-04-26T10:18:23.537Z</time></trkpt><trkpt lat="43.8499683" lon="12.4863017"><ele>504.0</ele><time>2026-04-26T10:18:24.537Z</time></trkpt><trkpt lat="43.8499867" lon="12.486445"><ele>504.0</ele><time>2026-04-26T10:18:25.537Z</time></trkpt><trkpt lat="43.85" lon="12.4865833"><ele>504.0</ele><time>2026-04-26T10:18:26.536Z</time></trkpt><trkpt lat="43.8500083" lon="12.4867067"><ele>502.3333333333333</ele><time>2026-04-26T10:18:27.537Z</time></trkpt><trkpt lat="43.8500117" lon="12.4868217"><ele>500.66666666666663</ele><time>2026-04-26T10:18:28.537Z</time></trkpt><trkpt lat="43.8500167" lon="12.4869417"><ele>499.0</ele><time>2026-04-26T10:18:29.537Z</time></trkpt><trkpt lat="43.8500283" lon="12.4870617"><ele>497.3333333333333</ele><time>2026-04-26T10:18:30.538Z</time></trkpt><trkpt lat="43.8500317" lon="12.4871683"><ele>495.66666666666663</ele><time>2026-04-26T10:18:31.536Z</time></trkpt><trkpt lat="43.8500233" lon="12.48728"><ele>494.0</ele><time>2026-04-26T10:18:32.537Z</time></trkpt><trkpt lat="43.85" lon="12.4873917"><ele>492.3333333333333</ele><time>2026-04-26T10:18:33.537Z</time></trkpt><trkpt lat="43.849965" lon="12.487485"><ele>490.66666666666663</ele><time>2026-04-26T10:18:34.538Z</time></trkpt><trkpt lat="43.84992" lon="12.4875533"><ele>489.0</ele><time>2026-04-26T10:18:35.538Z</time></trkpt><trkpt lat="43.849865" lon="12.48761"><ele>487.33333333333337</ele><time>2026-04-26T10:18:36.537Z</time></trkpt><trkpt lat="43.849805" lon="12.48766"><ele>485.6666666666667</ele><time>2026-04-26T10:18:37.538Z</time></trkpt><trkpt lat="43.8497133" lon="12.48774"><ele>484.0</ele><time>2026-04-26T10:18:39.537Z</time></trkpt><trkpt lat="43.84965" lon="12.487805"><ele>484.00000000000006</ele><time>2026-04-26T10:18:41.537Z</time></trkpt><trkpt lat="43.8496233" lon="12.487895"><ele>484.0</ele><time>2026-04-26T10:19:04.536Z</time></trkpt><trkpt lat="43.8496" lon="12.4880333"><ele>484.0</ele><time>2026-04-26T10:19:06.537Z</time></trkpt><trkpt lat="43.84959" lon="12.4881283"><ele>484.0</ele><time>2026-04-26T10:19:07.536Z</time></trkpt><trkpt lat="43.8495883" lon="12.48823"><ele>484.00000000000006</ele><time>2026-04-26T10:19:08.536Z</time></trkpt><trkpt lat="43.8495967" lon="12.4883317"><ele>484.0</ele><time>2026-04-26T10:19:09.537Z</time></trkpt><trkpt lat="43.849615" lon="12.488435"><ele>484.1666666666667</ele><time>2026-04-26T10:19:10.536Z</time></trkpt><trkpt lat="43.849645" lon="12.48854"><ele>484.33333333333337</ele><time>2026-04-26T10:19:11.536Z</time></trkpt><trkpt lat="43.8496783" lon="12.488645"><ele>484.5</ele><time>2026-04-26T10:19:12.537Z</time></trkpt><trkpt lat="43.8497033" lon="12.4887567"><ele>484.66666666666663</ele><time>2026-04-26T10:19:13.536Z</time></trkpt><trkpt lat="43.849725" lon="12.48886"><ele>484.8333333333333</ele><time>2026-04-26T10:19:14.536Z</time></trkpt><trkpt lat="43.849755" lon="12.4889483"><ele>485.0</ele><time>2026-04-26T10:19:15.536Z</time></trkpt><trkpt lat="43.8498" lon="12.4890333"><ele>485.0</ele><time>2026-04-26T10:19:16.536Z</time></trkpt><trkpt lat="43.8498383" lon="12.4891033"><ele>485.0</ele><time>2026-04-26T10:19:17.537Z</time></trkpt><trkpt lat="43.8498867" lon="12.489205"><ele>485.0</ele><time>2026-04-26T10:19:19.536Z</time></trkpt><trkpt lat="43.8499183" lon="12.4893183"><ele>485.0</ele><time>2026-04-26T10:19:21.536Z</time></trkpt><trkpt lat="43.8499533" lon="12.4894867"><ele>485.0</ele><time>2026-04-26T10:19:23.538Z</time></trkpt><trkpt lat="43.8499783" lon="12.489605"><ele>484.4</ele><time>2026-04-26T10:19:24.536Z</time></trkpt><trkpt lat="43.8500083" lon="12.48973"><ele>483.8</ele><time>2026-04-26T10:19:25.536Z</time></trkpt><trkpt lat="43.850045" lon="12.4898533"><ele>483.20000000000005</ele><time>2026-04-26T10:19:26.536Z</time></trkpt><trkpt lat="43.8500817" lon="12.4899733"><ele>482.6</ele><time>2026-04-26T10:19:27.536Z</time></trkpt><trkpt lat="43.85012" lon="12.490105"><ele>482.0</ele><time>2026-04-26T10:19:28.537Z</time></trkpt><trkpt lat="43.8501533" lon="12.49024"><ele>481.16666666666663</ele><time>2026-04-26T10:19:29.537Z</time></trkpt><trkpt lat="43.8501833" lon="12.4903717"><ele>480.3333333333333</ele><time>2026-04-26T10:19:30.533Z</time></trkpt><trkpt lat="43.8502117" lon="12.49049"><ele>479.5</ele><time>2026-04-26T10:19:31.538Z</time></trkpt><trkpt lat="43.8502417" lon="12.49059"><ele>478.66666666666663</ele><time>2026-04-26T10:19:32.537Z</time></trkpt><trkpt lat="43.8502817" lon="12.4906917"><ele>477.8333333333333</ele><time>2026-04-26T10:19:33.533Z</time></trkpt><trkpt lat="43.850325" lon="12.4907983"><ele>477.0</ele><time>2026-04-26T10:19:34.536Z</time></trkpt><trkpt lat="43.8503583" lon="12.4909167"><ele>477.0</ele><time>2026-04-26T10:19:35.537Z</time></trkpt><trkpt lat="43.8503717" lon="12.4910533"><ele>477.00000000000006</ele><time>2026-04-26T10:19:36.536Z</time></trkpt><trkpt lat="43.8503867" lon="12.4912017"><ele>477.00000000000006</ele><time>2026-04-26T10:19:37.536Z</time></trkpt><trkpt lat="43.8504083" lon="12.49136"><ele>477.0</ele><time>2026-04-26T10:19:38.541Z</time></trkpt><trkpt lat="43.850435" lon="12.4915167"><ele>477.0</ele><time>2026-04-26T10:19:39.537Z</time></trkpt><trkpt lat="43.8504583" lon="12.4916617"><ele>477.1666666666667</ele><time>2026-04-26T10:19:40.536Z</time></trkpt><trkpt lat="43.85047" lon="12.491785"><ele>477.33333333333337</ele><time>2026-04-26T10:19:41.536Z</time></trkpt><trkpt lat="43.8504783" lon="12.4918933"><ele>477.5</ele><time>2026-04-26T10:19:42.537Z</time></trkpt><trkpt lat="43.8504983" lon="12.4919833"><ele>477.6666666666667</ele><time>2026-04-26T10:19:43.537Z</time></trkpt><trkpt lat="43.8505333" lon="12.492075"><ele>477.83333333333337</ele><time>2026-04-26T10:19:44.537Z</time></trkpt><trkpt lat="43.8505767" lon="12.4921683"><ele>478.0</ele><time>2026-04-26T10:19:45.536Z</time></trkpt><trkpt lat="43.85061" lon="12.4922633"><ele>478.6666666666667</ele><time>2026-04-26T10:19:46.536Z</time></trkpt><trkpt lat="43.8506317" lon="12.4923583"><ele>479.33333333333337</ele><time>2026-04-26T10:19:47.536Z</time></trkpt><trkpt lat="43.85065" lon="12.4924583"><ele>480.0</ele><time>2026-04-26T10:19:48.536Z</time></trkpt><trkpt lat="43.8506717" lon="12.4925717"><ele>480.66666666666663</ele><time>2026-04-26T10:19:49.537Z</time></trkpt><trkpt lat="43.8507" lon="12.492685"><ele>481.3333333333333</ele><time>2026-04-26T10:19:50.537Z</time></trkpt><trkpt lat="43.8507367" lon="12.49279"><ele>482.0</ele><time>2026-04-26T10:19:51.537Z</time></trkpt><trkpt lat="43.850785" lon="12.4928833"><ele>482.6</ele><time>2026-04-26T10:19:52.536Z</time></trkpt><trkpt lat="43.8508383" lon="12.4929767"><ele>483.20000000000005</ele><time>2026-04-26T10:19:53.537Z</time></trkpt><trkpt lat="43.8508983" lon="12.4930767"><ele>483.8</ele><time>2026-04-26T10:19:54.536Z</time></trkpt><trkpt lat="43.8509517" lon="12.4931883"><ele>484.4</ele><time>2026-04-26T10:19:55.539Z</time></trkpt><trkpt lat="43.850985" lon="12.4933067"><ele>485.0</ele><time>2026-04-26T10:19:56.536Z</time></trkpt><trkpt lat="43.8510017" lon="12.4934283"><ele>483.99999999999994</ele><time>2026-04-26T10:19:57.536Z</time></trkpt><trkpt lat="43.8510183" lon="12.4935467"><ele>483.0</ele><time>2026-04-26T10:19:58.536Z</time></trkpt><trkpt lat="43.8510433" lon="12.4936617"><ele>482.0</ele><time>2026-04-26T10:19:59.536Z</time></trkpt><trkpt lat="43.8510717" lon="12.4937767"><ele>481.0</ele><time>2026-04-26T10:20:00.536Z</time></trkpt><trkpt lat="43.8510983" lon="12.4938867"><ele>479.99999999999994</ele><time>2026-04-26T10:20:01.536Z</time></trkpt><trkpt lat="43.85112" lon="12.4939933"><ele>479.0</ele><time>2026-04-26T10:20:02.537Z</time></trkpt><trkpt lat="43.8511367" lon="12.4940917"><ele>478.99999999999994</ele><time>2026-04-26T10:20:03.536Z</time></trkpt><trkpt lat="43.8511533" lon="12.4941867"><ele>479.0</ele><time>2026-04-26T10:20:04.536Z</time></trkpt><trkpt lat="43.8511617" lon="12.4942917"><ele>479.0</ele><time>2026-04-26T10:20:05.536Z</time></trkpt><trkpt lat="43.8511733" lon="12.49442"><ele>479.0</ele><time>2026-04-26T10:20:06.537Z</time></trkpt><trkpt lat="43.851185" lon="12.49456"><ele>478.99999999999994</ele><time>2026-04-26T10:20:07.536Z</time></trkpt><trkpt lat="43.8511917" lon="12.4947067"><ele>479.0</ele><time>2026-04-26T10:20:08.536Z</time></trkpt><trkpt lat="43.851195" lon="12.4948533"><ele>480.6</ele><time>2026-04-26T10:20:09.536Z</time></trkpt><trkpt lat="43.851205" lon="12.4949967"><ele>482.2</ele><time>2026-04-26T10:20:10.537Z</time></trkpt><trkpt lat="43.85123" lon="12.4951283"><ele>483.80000000000007</ele><time>2026-04-26T10:20:11.537Z</time></trkpt><trkpt lat="43.851265" lon="12.49526"><ele>485.40000000000003</ele><time>2026-04-26T10:20:12.536Z</time></trkpt><trkpt lat="43.851315" lon="12.4953867"><ele>487.0</ele><time>2026-04-26T10:20:13.536Z</time></trkpt><trkpt lat="43.851365" lon="12.4955133"><ele>488.50000000000006</ele><time>2026-04-26T10:20:14.536Z</time></trkpt><trkpt lat="43.8514083" lon="12.4956383"><ele>490.0</ele><time>2026-04-26T10:20:15.537Z</time></trkpt><trkpt lat="43.8514383" lon="12.4957517"><ele>491.5</ele><time>2026-04-26T10:20:16.536Z</time></trkpt><trkpt lat="43.851465" lon="12.495865"><ele>493.0</ele><time>2026-04-26T10:20:17.532Z</time></trkpt><trkpt lat="43.8514867" lon="12.4959717"><ele>494.50000000000006</ele><time>2026-04-26T10:20:18.536Z</time></trkpt><trkpt lat="43.851505" lon="12.49606"><ele>496.0</ele><time>2026-04-26T10:20:19.536Z</time></trkpt><trkpt lat="43.8515367" lon="12.4962083"><ele>497.50000000000006</ele><time>2026-04-26T10:20:21.536Z</time></trkpt><trkpt lat="43.8515233" lon="12.4963567"><ele>499.0</ele><time>2026-04-26T10:20:23.536Z</time></trkpt><trkpt lat="43.8515067" lon="12.4964417"><ele>500.5</ele><time>2026-04-26T10:20:24.536Z</time></trkpt><trkpt lat="43.8514933" lon="12.496535"><ele>502.0</ele><time>2026-04-26T10:20:25.536Z</time></trkpt><trkpt lat="43.8514883" lon="12.4966483"><ele>503.50000000000006</ele><time>2026-04-26T10:20:26.537Z</time></trkpt><trkpt lat="43.8514917" lon="12.49678"><ele>505.0</ele><time>2026-04-26T10:20:27.533Z</time></trkpt><trkpt lat="43.8514933" lon="12.4969167"><ele>505.0</ele><time>2026-04-26T10:20:28.535Z</time></trkpt><trkpt lat="43.8514867" lon="12.4970583"><ele>505.0</ele><time>2026-04-26T10:20:29.535Z</time></trkpt><trkpt lat="43.851475" lon="12.4971983"><ele>505.0</ele><time>2026-04-26T10:20:30.534Z</time></trkpt><trkpt lat="43.8514517" lon="12.4973333"><ele>505.0</ele><time>2026-04-26T10:20:31.536Z</time></trkpt><trkpt lat="43.8514267" lon="12.4974633"><ele>505.0</ele><time>2026-04-26T10:20:32.532Z</time></trkpt><trkpt lat="43.8514067" lon="12.4975917"><ele>506.2</ele><time>2026-04-26T10:20:33.533Z</time></trkpt><trkpt lat="43.8514017" lon="12.49772"><ele>507.4</ele><time>2026-04-26T10:20:34.533Z</time></trkpt><trkpt lat="43.8514167" lon="12.4978567"><ele>508.6</ele><time>2026-04-26T10:20:35.533Z</time></trkpt><trkpt lat="43.8514467" lon="12.4980017"><ele>509.8</ele><time>2026-04-26T10:20:36.534Z</time></trkpt><trkpt lat="43.8514767" lon="12.4981533"><ele>511.0</ele><time>2026-04-26T10:20:37.534Z</time></trkpt><trkpt lat="43.8514883" lon="12.4983017"><ele>513.4</ele><time>2026-04-26T10:20:38.533Z</time></trkpt><trkpt lat="43.8514983" lon="12.4984567"><ele>515.8</ele><time>2026-04-26T10:20:39.533Z</time></trkpt><trkpt lat="43.8515117" lon="12.498605"><ele>518.1999999999999</ele><time>2026-04-26T10:20:40.534Z</time></trkpt><trkpt lat="43.85153" lon="12.4987383"><ele>520.6</ele><time>2026-04-26T10:20:41.534Z</time></trkpt><trkpt lat="43.8515583" lon="12.4988667"><ele>523.0</ele><time>2026-04-26T10:20:42.534Z</time></trkpt><trkpt lat="43.8516033" lon="12.49899"><ele>525.6</ele><time>2026-04-26T10:20:43.535Z</time></trkpt><trkpt lat="43.8516433" lon="12.499115"><ele>528.1999999999999</ele><time>2026-04-26T10:20:44.534Z</time></trkpt><trkpt lat="43.8516767" lon="12.4992367"><ele>530.8</ele><time>2026-04-26T10:20:45.533Z</time></trkpt><trkpt lat="43.8516833" lon="12.4993633"><ele>533.4</ele><time>2026-04-26T10:20:46.536Z</time></trkpt><trkpt lat="43.8516717" lon="12.4994983"><ele>536.0</ele><time>2026-04-26T10:20:47.537Z</time></trkpt><trkpt lat="43.851655" lon="12.499645"><ele>538.0</ele><time>2026-04-26T10:20:48.534Z</time></trkpt><trkpt lat="43.8516433" lon="12.499805"><ele>540.0</ele><time>2026-04-26T10:20:49.534Z</time></trkpt><trkpt lat="43.8516417" lon="12.4999783"><ele>542.0</ele><time>2026-04-26T10:20:50.534Z</time></trkpt><trkpt lat="43.8516517" lon="12.5001333"><ele>544.0</ele><time>2026-04-26T10:20:51.534Z</time></trkpt><trkpt lat="43.85166" lon="12.5002783"><ele>543.6666666666667</ele><time>2026-04-26T10:20:52.536Z</time></trkpt><trkpt lat="43.851675" lon="12.5004167"><ele>543.3333333333334</ele><time>2026-04-26T10:20:53.534Z</time></trkpt><trkpt lat="43.85169" lon="12.500545"><ele>543.0</ele><time>2026-04-26T10:20:54.536Z</time></trkpt><trkpt lat="43.8517133" lon="12.5006617"><ele>542.6666666666666</ele><time>2026-04-26T10:20:55.535Z</time></trkpt><trkpt lat="43.8517433" lon="12.50077"><ele>542.3333333333333</ele><time>2026-04-26T10:20:56.534Z</time></trkpt><trkpt lat="43.8517883" lon="12.5008633"><ele>542.0</ele><time>2026-04-26T10:20:57.533Z</time></trkpt><trkpt lat="43.8518683" lon="12.5009567"><ele>541.5</ele><time>2026-04-26T10:20:58.536Z</time></trkpt><trkpt lat="43.851955" lon="12.5010567"><ele>541.0</ele><time>2026-04-26T10:20:59.536Z</time></trkpt><trkpt lat="43.8520333" lon="12.5011833"><ele>540.5</ele><time>2026-04-26T10:21:00.537Z</time></trkpt><trkpt lat="43.8520933" lon="12.5013283"><ele>540.0</ele><time>2026-04-26T10:21:01.534Z</time></trkpt><trkpt lat="43.8521533" lon="12.50148"><ele>541.25</ele><time>2026-04-26T10:21:02.536Z</time></trkpt><trkpt lat="43.8522067" lon="12.501635"><ele>542.5</ele><time>2026-04-26T10:21:03.536Z</time></trkpt><trkpt lat="43.8522683" lon="12.501785"><ele>543.75</ele><time>2026-04-26T10:21:04.537Z</time></trkpt><trkpt lat="43.852335" lon="12.5019267"><ele>545.0</ele><time>2026-04-26T10:21:05.537Z</time></trkpt><trkpt lat="43.852415" lon="12.50205"><ele>545.75</ele><time>2026-04-26T10:21:06.536Z</time></trkpt><trkpt lat="43.8525" lon="12.5021617"><ele>546.5</ele><time>2026-04-26T10:21:07.533Z</time></trkpt><trkpt lat="43.8525917" lon="12.5022633"><ele>547.25</ele><time>2026-04-26T10:21:08.534Z</time></trkpt><trkpt lat="43.852695" lon="12.5023617"><ele>548.0</ele><time>2026-04-26T10:21:09.535Z</time></trkpt><trkpt lat="43.8528067" lon="12.5024617"><ele>550.0</ele><time>2026-04-26T10:21:10.535Z</time></trkpt><trkpt lat="43.8529183" lon="12.5025633"><ele>552.0</ele><time>2026-04-26T10:21:11.535Z</time></trkpt><trkpt lat="43.853025" lon="12.5026717"><ele>554.0</ele><time>2026-04-26T10:21:12.536Z</time></trkpt><trkpt lat="43.8531267" lon="12.5027783"><ele>556.0</ele><time>2026-04-26T10:21:13.536Z</time></trkpt><trkpt lat="43.8532167" lon="12.5028917"><ele>556.4</ele><time>2026-04-26T10:21:14.54Z</time></trkpt><trkpt lat="43.8532933" lon="12.5030117"><ele>556.8</ele><time>2026-04-26T10:21:15.536Z</time></trkpt><trkpt lat="43.8533667" lon="12.5031217"><ele>557.1999999999999</ele><time>2026-04-26T10:21:16.537Z</time></trkpt><trkpt lat="43.85344" lon="12.5032117"><ele>557.6</ele><time>2026-04-26T10:21:17.533Z</time></trkpt><trkpt lat="43.853515" lon="12.5032767"><ele>558.0</ele><time>2026-04-26T10:21:18.534Z</time></trkpt><trkpt lat="43.8535817" lon="12.503315"><ele>559.8</ele><time>2026-04-26T10:21:19.536Z</time></trkpt><trkpt lat="43.8536833" lon="12.503355"><ele>561.5999999999999</ele><time>2026-04-26T10:21:21.534Z</time></trkpt><trkpt lat="43.85377" lon="12.50332"><ele>563.4000000000001</ele><time>2026-04-26T10:21:23.537Z</time></trkpt><trkpt lat="43.8538633" lon="12.50324"><ele>565.2</ele><time>2026-04-26T10:21:25.534Z</time></trkpt><trkpt lat="43.8539567" lon="12.5032217"><ele>567.0</ele><time>2026-04-26T10:21:27.539Z</time></trkpt><trkpt lat="43.854025" lon="12.5032533"><ele>567.0</ele><time>2026-04-26T10:21:30.537Z</time></trkpt><trkpt lat="43.8539567" lon="12.5031883"><ele>567.0</ele><time>2026-04-26T10:21:33.536Z</time></trkpt><trkpt lat="43.8538833" lon="12.50319"><ele>567.0</ele><time>2026-04-26T10:21:34.536Z</time></trkpt><trkpt lat="43.8538133" lon="12.503215"><ele>567.0</ele><time>2026-04-26T10:21:35.536Z</time></trkpt><trkpt lat="43.85375" lon="12.503265"><ele>567.0</ele><time>2026-04-26T10:21:36.536Z</time></trkpt><trkpt lat="43.8536833" lon="12.50333"><ele>567.0</ele><time>2026-04-26T10:21:37.537Z</time></trkpt><trkpt lat="43.8536383" lon="12.5034667"><ele>567.0</ele><time>2026-04-26T10:21:38.536Z</time></trkpt><trkpt lat="43.8536267" lon="12.5036517"><ele>567.0</ele><time>2026-04-26T10:21:39.537Z</time></trkpt><trkpt lat="43.8536433" lon="12.5038483"><ele>567.0</ele><time>2026-04-26T10:21:40.536Z</time></trkpt><trkpt lat="43.8536683" lon="12.5040267"><ele>567.0</ele><time>2026-04-26T10:21:41.534Z</time></trkpt><trkpt lat="43.853725" lon="12.504205"><ele>567.75</ele><time>2026-04-26T10:21:42.534Z</time></trkpt><trkpt lat="43.8537917" lon="12.5043617"><ele>568.5</ele><time>2026-04-26T10:21:43.535Z</time></trkpt><trkpt lat="43.8538467" lon="12.504505"><ele>569.25</ele><time>2026-04-26T10:21:44.537Z</time></trkpt><trkpt lat="43.8538967" lon="12.50464"><ele>570.0</ele><time>2026-04-26T10:21:45.534Z</time></trkpt><trkpt lat="43.85395" lon="12.5047717"><ele>566.5</ele><time>2026-04-26T10:21:46.534Z</time></trkpt><trkpt lat="43.854005" lon="12.5049117"><ele>563.0</ele><time>2026-04-26T10:21:47.536Z</time></trkpt><trkpt lat="43.85407" lon="12.505055"><ele>559.5</ele><time>2026-04-26T10:21:48.536Z</time></trkpt><trkpt lat="43.8541383" lon="12.5052017"><ele>556.0</ele><time>2026-04-26T10:21:49.535Z</time></trkpt><trkpt lat="43.85421" lon="12.5053483"><ele>554.5</ele><time>2026-04-26T10:21:50.534Z</time></trkpt><trkpt lat="43.8543" lon="12.5054833"><ele>553.0</ele><time>2026-04-26T10:21:51.534Z</time></trkpt><trkpt lat="43.854415" lon="12.505595"><ele>551.5</ele><time>2026-04-26T10:21:52.534Z</time></trkpt><trkpt lat="43.854545" lon="12.5056817"><ele>550.0</ele><time>2026-04-26T10:21:53.535Z</time></trkpt><trkpt lat="43.8546833" lon="12.5057433"><ele>550.0</ele><time>2026-04-26T10:21:54.534Z</time></trkpt><trkpt lat="43.8548367" lon="12.5057883"><ele>550.0</ele><time>2026-04-26T10:21:55.539Z</time></trkpt><trkpt lat="43.854995" lon="12.5058383"><ele>550.0</ele><time>2026-04-26T10:21:56.533Z</time></trkpt><trkpt lat="43.8551467" lon="12.50591"><ele>548.5</ele><time>2026-04-26T10:21:57.538Z</time></trkpt><trkpt lat="43.8552917" lon="12.5059967"><ele>547.0</ele><time>2026-04-26T10:21:58.535Z</time></trkpt><trkpt lat="43.85542" lon="12.5061033"><ele>545.5</ele><time>2026-04-26T10:21:59.534Z</time></trkpt><trkpt lat="43.8555217" lon="12.5062367"><ele>544.0</ele><time>2026-04-26T10:22:00.536Z</time></trkpt><trkpt lat="43.855595" lon="12.506395"><ele>544.0</ele><time>2026-04-26T10:22:01.536Z</time></trkpt><trkpt lat="43.8556433" lon="12.5065683"><ele>544.0</ele><time>2026-04-26T10:22:02.537Z</time></trkpt><trkpt lat="43.8556767" lon="12.5067433"><ele>544.0</ele><time>2026-04-26T10:22:03.534Z</time></trkpt><trkpt lat="43.855705" lon="12.50692"><ele>544.0</ele><time>2026-04-26T10:22:04.535Z</time></trkpt><trkpt lat="43.85574" lon="12.507095"><ele>541.5</ele><time>2026-04-26T10:22:05.537Z</time></trkpt><trkpt lat="43.8557767" lon="12.5072683"><ele>539.0</ele><time>2026-04-26T10:22:06.535Z</time></trkpt><trkpt lat="43.8558117" lon="12.50744"><ele>536.5</ele><time>2026-04-26T10:22:07.535Z</time></trkpt><trkpt lat="43.8558433" lon="12.5076133"><ele>534.0</ele><time>2026-04-26T10:22:08.534Z</time></trkpt><trkpt lat="43.8558733" lon="12.50779"><ele>532.4</ele><time>2026-04-26T10:22:09.535Z</time></trkpt><trkpt lat="43.8559" lon="12.5079583"><ele>530.8</ele><time>2026-04-26T10:22:10.537Z</time></trkpt><trkpt lat="43.8559267" lon="12.5081083"><ele>529.2</ele><time>2026-04-26T10:22:11.539Z</time></trkpt><trkpt lat="43.8559617" lon="12.5082283"><ele>527.6</ele><time>2026-04-26T10:22:12.536Z</time></trkpt><trkpt lat="43.85598" lon="12.5083317"><ele>526.0</ele><time>2026-04-26T10:22:13.537Z</time></trkpt><trkpt lat="43.8559983" lon="12.508515"><ele>526.0</ele><time>2026-04-26T10:22:15.534Z</time></trkpt><trkpt lat="43.85602" lon="12.50863"><ele>526.0</ele><time>2026-04-26T10:22:16.534Z</time></trkpt><trkpt lat="43.8560817" lon="12.50877"><ele>526.0</ele><time>2026-04-26T10:22:17.534Z</time></trkpt><trkpt lat="43.8561667" lon="12.508895"><ele>526.0</ele><time>2026-04-26T10:22:18.535Z</time></trkpt><trkpt lat="43.8562633" lon="12.5090083"><ele>526.0</ele><time>2026-04-26T10:22:19.534Z</time></trkpt><trkpt lat="43.8563633" lon="12.5090983"><ele>526.0</ele><time>2026-04-26T10:22:20.534Z</time></trkpt><trkpt lat="43.85646" lon="12.5091533"><ele>526.0</ele><time>2026-04-26T10:22:21.533Z</time></trkpt><trkpt lat="43.8565683" lon="12.5091617"><ele>526.0</ele><time>2026-04-26T10:22:22.534Z</time></trkpt><trkpt lat="43.8566833" lon="12.5091383"><ele>526.0</ele><time>2026-04-26T10:22:23.537Z</time></trkpt><trkpt lat="43.8568" lon="12.5090917"><ele>522.25</ele><time>2026-04-26T10:22:24.536Z</time></trkpt><trkpt lat="43.8569067" lon="12.5090283"><ele>518.5</ele><time>2026-04-26T10:22:25.536Z</time></trkpt><trkpt lat="43.8569983" lon="12.5089367"><ele>514.75</ele><time>2026-04-26T10:22:26.536Z</time></trkpt><trkpt lat="43.8570633" lon="12.5088067"><ele>511.0</ele><time>2026-04-26T10:22:27.537Z</time></trkpt><trkpt lat="43.8570983" lon="12.5086383"><ele>511.0</ele><time>2026-04-26T10:22:28.535Z</time></trkpt><trkpt lat="43.8571067" lon="12.5084433"><ele>511.0</ele><time>2026-04-26T10:22:29.534Z</time></trkpt><trkpt lat="43.8571067" lon="12.50824"><ele>511.0</ele><time>2026-04-26T10:22:30.538Z</time></trkpt><trkpt lat="43.8571183" lon="12.5080417"><ele>511.0</ele><time>2026-04-26T10:22:31.534Z</time></trkpt><trkpt lat="43.8571583" lon="12.5078483"><ele>511.6666666666667</ele><time>2026-04-26T10:22:32.536Z</time></trkpt><trkpt lat="43.857235" lon="12.5076633"><ele>512.3333333333334</ele><time>2026-04-26T10:22:33.534Z</time></trkpt><trkpt lat="43.85733" lon="12.5074883"><ele>513.0</ele><time>2026-04-26T10:22:34.537Z</time></trkpt><trkpt lat="43.85744" lon="12.507315"><ele>513.0</ele><time>2026-04-26T10:22:35.533Z</time></trkpt><trkpt lat="43.8575533" lon="12.5071517"><ele>513.0</ele><time>2026-04-26T10:22:36.538Z</time></trkpt><trkpt lat="43.8576667" lon="12.5069967"><ele>513.0</ele><time>2026-04-26T10:22:37.536Z</time></trkpt><trkpt lat="43.8577817" lon="12.5068583"><ele>511.25</ele><time>2026-04-26T10:22:38.536Z</time></trkpt><trkpt lat="43.8579" lon="12.5067683"><ele>509.5</ele><time>2026-04-26T10:22:39.537Z</time></trkpt><trkpt lat="43.8580283" lon="12.5067183"><ele>507.75</ele><time>2026-04-26T10:22:40.537Z</time></trkpt><trkpt lat="43.8581717" lon="12.5067183"><ele>506.0</ele><time>2026-04-26T10:22:41.533Z</time></trkpt><trkpt lat="43.85833" lon="12.5067483"><ele>500.0</ele><time>2026-04-26T10:22:42.538Z</time></trkpt><trkpt lat="43.8584883" lon="12.5067867"><ele>494.0</ele><time>2026-04-26T10:22:43.538Z</time></trkpt><trkpt lat="43.8586417" lon="12.5068033"><ele>488.0</ele><time>2026-04-26T10:22:44.538Z</time></trkpt><trkpt lat="43.8587883" lon="12.50679"><ele>488.0</ele><time>2026-04-26T10:22:45.534Z</time></trkpt><trkpt lat="43.8589317" lon="12.506735"><ele>488.0</ele><time>2026-04-26T10:22:46.534Z</time></trkpt><trkpt lat="43.8590817" lon="12.5066383"><ele>488.0</ele><time>2026-04-26T10:22:47.534Z</time></trkpt><trkpt lat="43.8592317" lon="12.5065283"><ele>485.66666666666663</ele><time>2026-04-26T10:22:48.534Z</time></trkpt><trkpt lat="43.859385" lon="12.5064183"><ele>483.33333333333337</ele><time>2026-04-26T10:22:49.535Z</time></trkpt><trkpt lat="43.8595367" lon="12.5063067"><ele>481.0</ele><time>2026-04-26T10:22:50.534Z</time></trkpt><trkpt lat="43.8596917" lon="12.506195"><ele>481.0</ele><time>2026-04-26T10:22:51.533Z</time></trkpt><trkpt lat="43.859845" lon="12.5060867"><ele>481.0</ele><time>2026-04-26T10:22:52.534Z</time></trkpt><trkpt lat="43.8600033" lon="12.5059867"><ele>481.0</ele><time>2026-04-26T10:22:53.537Z</time></trkpt><trkpt lat="43.8601733" lon="12.5059167"><ele>476.6666666666667</ele><time>2026-04-26T10:22:54.537Z</time></trkpt><trkpt lat="43.860355" lon="12.5058767"><ele>472.33333333333337</ele><time>2026-04-26T10:22:55.538Z</time></trkpt><trkpt lat="43.8605467" lon="12.5058533"><ele>468.0</ele><time>2026-04-26T10:22:56.537Z</time></trkpt><trkpt lat="43.86074" lon="12.5058533"><ele>468.0</ele><time>2026-04-26T10:22:57.537Z</time></trkpt><trkpt lat="43.8609383" lon="12.5058717"><ele>468.0</ele><time>2026-04-26T10:22:58.537Z</time></trkpt><trkpt lat="43.8611333" lon="12.5058917"><ele>468.0</ele><time>2026-04-26T10:22:59.533Z</time></trkpt><trkpt lat="43.861325" lon="12.50591"><ele>465.33333333333337</ele><time>2026-04-26T10:23:00.537Z</time></trkpt><trkpt lat="43.8615133" lon="12.505915"><ele>462.6666666666667</ele><time>2026-04-26T10:23:01.539Z</time></trkpt><trkpt lat="43.8617" lon="12.5059067"><ele>460.0</ele><time>2026-04-26T10:23:02.538Z</time></trkpt><trkpt lat="43.8618833" lon="12.5058867"><ele>458.33333333333337</ele><time>2026-04-26T10:23:03.537Z</time></trkpt><trkpt lat="43.8620633" lon="12.5058817"><ele>456.66666666666663</ele><time>2026-04-26T10:23:04.537Z</time></trkpt><trkpt lat="43.8622317" lon="12.5059083"><ele>455.0</ele><time>2026-04-26T10:23:05.537Z</time></trkpt><trkpt lat="43.862385" lon="12.505965"><ele>455.0</ele><time>2026-04-26T10:23:06.537Z</time></trkpt><trkpt lat="43.8625133" lon="12.506045"><ele>455.0</ele><time>2026-04-26T10:23:07.538Z</time></trkpt><trkpt lat="43.862625" lon="12.50612"><ele>455.0</ele><time>2026-04-26T10:23:08.537Z</time></trkpt><trkpt lat="43.8627317" lon="12.5061617"><ele>455.0</ele><time>2026-04-26T10:23:09.538Z</time></trkpt><trkpt lat="43.8628283" lon="12.5061567"><ele>452.5</ele><time>2026-04-26T10:23:10.537Z</time></trkpt><trkpt lat="43.8629167" lon="12.5060967"><ele>450.0</ele><time>2026-04-26T10:23:11.537Z</time></trkpt><trkpt lat="43.8629983" lon="12.5059867"><ele>447.5</ele><time>2026-04-26T10:23:12.537Z</time></trkpt><trkpt lat="43.86307" lon="12.50584"><ele>445.0</ele><time>2026-04-26T10:23:13.537Z</time></trkpt><trkpt lat="43.8631433" lon="12.5056817"><ele>445.0</ele><time>2026-04-26T10:23:14.537Z</time></trkpt><trkpt lat="43.8632317" lon="12.50554"><ele>445.0</ele><time>2026-04-26T10:23:15.537Z</time></trkpt><trkpt lat="43.8633333" lon="12.5054217"><ele>445.0</ele><time>2026-04-26T10:23:16.535Z</time></trkpt><trkpt lat="43.8634517" lon="12.5053283"><ele>445.0</ele><time>2026-04-26T10:23:17.533Z</time></trkpt><trkpt lat="43.8635767" lon="12.5052717"><ele>440.33333333333337</ele><time>2026-04-26T10:23:18.533Z</time></trkpt><trkpt lat="43.8637183" lon="12.505265"><ele>435.66666666666663</ele><time>2026-04-26T10:23:19.533Z</time></trkpt><trkpt lat="43.8638717" lon="12.5052867"><ele>431.0</ele><time>2026-04-26T10:23:20.535Z</time></trkpt><trkpt lat="43.8640317" lon="12.5053233"><ele>431.0</ele><time>2026-04-26T10:23:21.533Z</time></trkpt><trkpt lat="43.8642017" lon="12.5053667"><ele>431.0</ele><time>2026-04-26T10:23:22.533Z</time></trkpt><trkpt lat="43.8643817" lon="12.5054167"><ele>431.0</ele><time>2026-04-26T10:23:23.534Z</time></trkpt><trkpt lat="43.864565" lon="12.505465"><ele>429.66666666666663</ele><time>2026-04-26T10:23:24.534Z</time></trkpt><trkpt lat="43.8647533" lon="12.5055117"><ele>428.33333333333337</ele><time>2026-04-26T10:23:25.534Z</time></trkpt><trkpt lat="43.86494" lon="12.5055567"><ele>427.0</ele><time>2026-04-26T10:23:26.537Z</time></trkpt><trkpt lat="43.86512" lon="12.5055967"><ele>425.0</ele><time>2026-04-26T10:23:27.536Z</time></trkpt><trkpt lat="43.8652917" lon="12.505635"><ele>423.0</ele><time>2026-04-26T10:23:28.537Z</time></trkpt><trkpt lat="43.86544" lon="12.5056767"><ele>421.0</ele><time>2026-04-26T10:23:29.536Z</time></trkpt><trkpt lat="43.86556" lon="12.50573"><ele>421.0</ele><time>2026-04-26T10:23:30.536Z</time></trkpt><trkpt lat="43.8656517" lon="12.5058267"><ele>421.0</ele><time>2026-04-26T10:23:31.536Z</time></trkpt><trkpt lat="43.8657217" lon="12.5059567"><ele>421.0</ele><time>2026-04-26T10:23:32.536Z</time></trkpt><trkpt lat="43.86575" lon="12.5061083"><ele>421.0</ele><time>2026-04-26T10:23:33.536Z</time></trkpt><trkpt lat="43.8657483" lon="12.5062683"><ele>419.75</ele><time>2026-04-26T10:23:34.536Z</time></trkpt><trkpt lat="43.8657067" lon="12.5064367"><ele>418.5</ele><time>2026-04-26T10:23:35.536Z</time></trkpt><trkpt lat="43.8656317" lon="12.5066033"><ele>417.25</ele><time>2026-04-26T10:23:36.536Z</time></trkpt><trkpt lat="43.8655617" lon="12.5067617"><ele>416.0</ele><time>2026-04-26T10:23:37.536Z</time></trkpt><trkpt lat="43.8655167" lon="12.5069167"><ele>416.0</ele><time>2026-04-26T10:23:38.536Z</time></trkpt><trkpt lat="43.8655017" lon="12.5070633"><ele>416.0</ele><time>2026-04-26T10:23:39.537Z</time></trkpt><trkpt lat="43.8655267" lon="12.5071883"><ele>416.0</ele><time>2026-04-26T10:23:40.536Z</time></trkpt><trkpt lat="43.86558" lon="12.5072917"><ele>416.0</ele><time>2026-04-26T10:23:41.537Z</time></trkpt><trkpt lat="43.8656583" lon="12.507355"><ele>416.0</ele><time>2026-04-26T10:23:42.536Z</time></trkpt><trkpt lat="43.865775" lon="12.507375"><ele>412.0</ele><time>2026-04-26T10:23:43.536Z</time></trkpt><trkpt lat="43.8659017" lon="12.5073417"><ele>408.0</ele><time>2026-04-26T10:23:44.536Z</time></trkpt><trkpt lat="43.86604" lon="12.5072333"><ele>404.0</ele><time>2026-04-26T10:23:45.538Z</time></trkpt><trkpt lat="43.8661683" lon="12.5070717"><ele>404.0</ele><time>2026-04-26T10:23:46.536Z</time></trkpt><trkpt lat="43.8663117" lon="12.50684"><ele>404.0</ele><time>2026-04-26T10:23:47.537Z</time></trkpt><trkpt lat="43.866445" lon="12.5066417"><ele>404.0</ele><time>2026-04-26T10:23:48.536Z</time></trkpt><trkpt lat="43.8665683" lon="12.5064533"><ele>404.0</ele><time>2026-04-26T10:23:49.537Z</time></trkpt><trkpt lat="43.86668" lon="12.5062883"><ele>404.0</ele><time>2026-04-26T10:23:50.537Z</time></trkpt><trkpt lat="43.8668" lon="12.50616"><ele>404.0</ele><time>2026-04-26T10:23:51.536Z</time></trkpt><trkpt lat="43.8669417" lon="12.50607"><ele>402.75</ele><time>2026-04-26T10:23:52.536Z</time></trkpt><trkpt lat="43.8670833" lon="12.50605"><ele>401.5</ele><time>2026-04-26T10:23:53.536Z</time></trkpt><trkpt lat="43.8672233" lon="12.506115"><ele>400.25</ele><time>2026-04-26T10:23:54.536Z</time></trkpt><trkpt lat="43.86736" lon="12.5061883"><ele>399.0</ele><time>2026-04-26T10:23:55.537Z</time></trkpt><trkpt lat="43.8674883" lon="12.50626"><ele>397.6</ele><time>2026-04-26T10:23:56.536Z</time></trkpt><trkpt lat="43.8676033" lon="12.5063033"><ele>396.2</ele><time>2026-04-26T10:23:57.536Z</time></trkpt><trkpt lat="43.8677067" lon="12.5062983"><ele>394.8</ele><time>2026-04-26T10:23:58.537Z</time></trkpt><trkpt lat="43.867795" lon="12.5062417"><ele>393.40000000000003</ele><time>2026-04-26T10:23:59.536Z</time></trkpt><trkpt lat="43.8678667" lon="12.50614"><ele>392.0</ele><time>2026-04-26T10:24:00.537Z</time></trkpt><trkpt lat="43.867915" lon="12.5059933"><ele>389.3333333333333</ele><time>2026-04-26T10:24:01.537Z</time></trkpt><trkpt lat="43.8679417" lon="12.505795"><ele>386.66666666666663</ele><time>2026-04-26T10:24:02.537Z</time></trkpt><trkpt lat="43.8679483" lon="12.5055767"><ele>384.0</ele><time>2026-04-26T10:24:03.536Z</time></trkpt><trkpt lat="43.867965" lon="12.50537"><ele>383.0</ele><time>2026-04-26T10:24:04.536Z</time></trkpt><trkpt lat="43.8679967" lon="12.505175"><ele>382.0</ele><time>2026-04-26T10:24:05.536Z</time></trkpt><trkpt lat="43.8680467" lon="12.5049817"><ele>381.0</ele><time>2026-04-26T10:24:06.536Z</time></trkpt><trkpt lat="43.86812" lon="12.504795"><ele>380.0</ele><time>2026-04-26T10:24:07.536Z</time></trkpt><trkpt lat="43.86821" lon="12.5046167"><ele>380.25</ele><time>2026-04-26T10:24:08.537Z</time></trkpt><trkpt lat="43.8682983" lon="12.50445"><ele>380.5</ele><time>2026-04-26T10:24:09.536Z</time></trkpt><trkpt lat="43.8683783" lon="12.5042933"><ele>380.75</ele><time>2026-04-26T10:24:10.537Z</time></trkpt><trkpt lat="43.868435" lon="12.5041467"><ele>381.0</ele><time>2026-04-26T10:24:11.536Z</time></trkpt><trkpt lat="43.868465" lon="12.504005"><ele>381.0</ele><time>2026-04-26T10:24:12.536Z</time></trkpt><trkpt lat="43.8684633" lon="12.5038717"><ele>381.0</ele><time>2026-04-26T10:24:13.536Z</time></trkpt><trkpt lat="43.8684233" lon="12.5037633"><ele>381.0</ele><time>2026-04-26T10:24:14.536Z</time></trkpt><trkpt lat="43.8683533" lon="12.5036717"><ele>381.0</ele><time>2026-04-26T10:24:15.537Z</time></trkpt><trkpt lat="43.8682233" lon="12.5036217"><ele>381.0</ele><time>2026-04-26T10:24:16.536Z</time></trkpt><trkpt lat="43.8680617" lon="12.503585"><ele>379.0</ele><time>2026-04-26T10:24:17.537Z</time></trkpt><trkpt lat="43.867885" lon="12.5035633"><ele>377.0</ele><time>2026-04-26T10:24:18.536Z</time></trkpt><trkpt lat="43.867705" lon="12.503535"><ele>375.0</ele><time>2026-04-26T10:24:19.536Z</time></trkpt><trkpt lat="43.8675383" lon="12.5035067"><ele>375.0</ele><time>2026-04-26T10:24:20.536Z</time></trkpt><trkpt lat="43.8673967" lon="12.5034717"><ele>375.0</ele><time>2026-04-26T10:24:21.537Z</time></trkpt><trkpt lat="43.8672767" lon="12.5034183"><ele>375.0</ele><time>2026-04-26T10:24:22.536Z</time></trkpt><trkpt lat="43.867175" lon="12.5033383"><ele>375.0</ele><time>2026-04-26T10:24:23.537Z</time></trkpt><trkpt lat="43.867105" lon="12.5032233"><ele>375.0</ele><time>2026-04-26T10:24:24.536Z</time></trkpt><trkpt lat="43.8670667" lon="12.5030667"><ele>375.0</ele><time>2026-04-26T10:24:25.537Z</time></trkpt><trkpt lat="43.86706" lon="12.502895"><ele>375.0</ele><time>2026-04-26T10:24:26.536Z</time></trkpt><trkpt lat="43.8670783" lon="12.5027183"><ele>375.0</ele><time>2026-04-26T10:24:27.533Z</time></trkpt><trkpt lat="43.8671233" lon="12.5025417"><ele>372.5</ele><time>2026-04-26T10:24:28.533Z</time></trkpt><trkpt lat="43.8671867" lon="12.5023883"><ele>370.0</ele><time>2026-04-26T10:24:29.534Z</time></trkpt><trkpt lat="43.8672933" lon="12.5022617"><ele>367.5</ele><time>2026-04-26T10:24:30.533Z</time></trkpt><trkpt lat="43.8674283" lon="12.502195"><ele>365.0</ele><time>2026-04-26T10:24:31.533Z</time></trkpt><trkpt lat="43.8675733" lon="12.5021333"><ele>361.0</ele><time>2026-04-26T10:24:32.534Z</time></trkpt><trkpt lat="43.8677317" lon="12.50207"><ele>357.0</ele><time>2026-04-26T10:24:33.533Z</time></trkpt><trkpt lat="43.867905" lon="12.5019933"><ele>353.0</ele><time>2026-04-26T10:24:34.535Z</time></trkpt><trkpt lat="43.8680833" lon="12.5019167"><ele>353.0</ele><time>2026-04-26T10:24:35.534Z</time></trkpt><trkpt lat="43.86826" lon="12.5018467"><ele>353.0</ele><time>2026-04-26T10:24:36.534Z</time></trkpt><trkpt lat="43.86844" lon="12.50178"><ele>353.0</ele><time>2026-04-26T10:24:37.535Z</time></trkpt><trkpt lat="43.8686217" lon="12.5017083"><ele>351.33333333333337</ele><time>2026-04-26T10:24:38.535Z</time></trkpt><trkpt lat="43.8687983" lon="12.5016233"><ele>349.6666666666667</ele><time>2026-04-26T10:24:39.533Z</time></trkpt><trkpt lat="43.868965" lon="12.5015317"><ele>348.0</ele><time>2026-04-26T10:24:40.533Z</time></trkpt><trkpt lat="43.86913" lon="12.5014367"><ele>343.3333333333333</ele><time>2026-04-26T10:24:41.533Z</time></trkpt><trkpt lat="43.869285" lon="12.50135"><ele>338.66666666666663</ele><time>2026-04-26T10:24:42.533Z</time></trkpt><trkpt lat="43.8694317" lon="12.5012833"><ele>334.0</ele><time>2026-04-26T10:24:43.535Z</time></trkpt><trkpt lat="43.869565" lon="12.5012567"><ele>334.0</ele><time>2026-04-26T10:24:44.536Z</time></trkpt><trkpt lat="43.86969" lon="12.5012733"><ele>334.0</ele><time>2026-04-26T10:24:45.537Z</time></trkpt><trkpt lat="43.8698067" lon="12.5013517"><ele>334.0</ele><time>2026-04-26T10:24:46.537Z</time></trkpt><trkpt lat="43.8699033" lon="12.5014833"><ele>334.0</ele><time>2026-04-26T10:24:47.536Z</time></trkpt><trkpt lat="43.8699817" lon="12.5016683"><ele>334.0</ele><time>2026-04-26T10:24:48.536Z</time></trkpt><trkpt lat="43.87005" lon="12.501895"><ele>334.0</ele><time>2026-04-26T10:24:49.536Z</time></trkpt><trkpt lat="43.8701217" lon="12.5021267"><ele>334.0</ele><time>2026-04-26T10:24:50.537Z</time></trkpt><trkpt lat="43.8702" lon="12.502345"><ele>329.66666666666663</ele><time>2026-04-26T10:24:51.534Z</time></trkpt><trkpt lat="43.8702933" lon="12.5025433"><ele>325.3333333333333</ele><time>2026-04-26T10:24:52.536Z</time></trkpt><trkpt lat="43.87041" lon="12.5027133"><ele>321.0</ele><time>2026-04-26T10:24:53.536Z</time></trkpt><trkpt lat="43.8705417" lon="12.5028517"><ele>321.5</ele><time>2026-04-26T10:24:54.537Z</time></trkpt><trkpt lat="43.8706733" lon="12.502965"><ele>322.0</ele><time>2026-04-26T10:24:55.534Z</time></trkpt><trkpt lat="43.87079" lon="12.50305"><ele>322.5</ele><time>2026-04-26T10:24:56.536Z</time></trkpt><trkpt lat="43.8708933" lon="12.5031067"><ele>323.0</ele><time>2026-04-26T10:24:57.533Z</time></trkpt><trkpt lat="43.870975" lon="12.503115"><ele>319.0</ele><time>2026-04-26T10:24:58.537Z</time></trkpt><trkpt lat="43.871045" lon="12.5030833"><ele>315.0</ele><time>2026-04-26T10:24:59.537Z</time></trkpt><trkpt lat="43.8710933" lon="12.5030033"><ele>311.0</ele><time>2026-04-26T10:25:00.536Z</time></trkpt><trkpt lat="43.87111" lon="12.5028667"><ele>307.0</ele><time>2026-04-26T10:25:01.537Z</time></trkpt><trkpt lat="43.8710717" lon="12.50272"><ele>303.0</ele><time>2026-04-26T10:25:02.536Z</time></trkpt><trkpt lat="43.8710167" lon="12.5025917"><ele>305.5</ele><time>2026-04-26T10:25:03.536Z</time></trkpt><trkpt lat="43.8709367" lon="12.5024583"><ele>308.0</ele><time>2026-04-26T10:25:04.536Z</time></trkpt><trkpt lat="43.8708617" lon="12.5023083"><ele>310.5</ele><time>2026-04-26T10:25:05.536Z</time></trkpt><trkpt lat="43.8708217" lon="12.502125"><ele>313.0</ele><time>2026-04-26T10:25:06.536Z</time></trkpt><trkpt lat="43.8708083" lon="12.50192"><ele>313.0</ele><time>2026-04-26T10:25:07.536Z</time></trkpt><trkpt lat="43.87083" lon="12.5017017"><ele>313.0</ele><time>2026-04-26T10:25:08.537Z</time></trkpt><trkpt lat="43.8708717" lon="12.50149"><ele>313.0</ele><time>2026-04-26T10:25:09.537Z</time></trkpt><trkpt lat="43.87092" lon="12.5012867"><ele>311.66666666666663</ele><time>2026-04-26T10:25:10.534Z</time></trkpt><trkpt lat="43.870945" lon="12.5010817"><ele>310.3333333333333</ele><time>2026-04-26T10:25:11.533Z</time></trkpt><trkpt lat="43.87094" lon="12.5008667"><ele>309.0</ele><time>2026-04-26T10:25:12.536Z</time></trkpt><trkpt lat="43.870915" lon="12.5006233"><ele>305.6666666666667</ele><time>2026-04-26T10:25:13.536Z</time></trkpt><trkpt lat="43.870875" lon="12.500365"><ele>302.33333333333337</ele><time>2026-04-26T10:25:14.536Z</time></trkpt><trkpt lat="43.870835" lon="12.5001083"><ele>299.0</ele><time>2026-04-26T10:25:15.536Z</time></trkpt><trkpt lat="43.8707983" lon="12.4998617"><ele>299.0</ele><time>2026-04-26T10:25:16.533Z</time></trkpt><trkpt lat="43.87077" lon="12.4996217"><ele>299.0</ele><time>2026-04-26T10:25:17.534Z</time></trkpt><trkpt lat="43.8707467" lon="12.4993933"><ele>299.0</ele><time>2026-04-26T10:25:18.534Z</time></trkpt><trkpt lat="43.8707483" lon="12.49918"><ele>298.0</ele><time>2026-04-26T10:25:19.534Z</time></trkpt><trkpt lat="43.8707817" lon="12.4989833"><ele>297.0</ele><time>2026-04-26T10:25:20.534Z</time></trkpt><trkpt lat="43.8708433" lon="12.4988017"><ele>296.0</ele><time>2026-04-26T10:25:21.533Z</time></trkpt><trkpt lat="43.8709133" lon="12.4986317"><ele>295.0</ele><time>2026-04-26T10:25:22.533Z</time></trkpt><trkpt lat="43.87096" lon="12.4984517"><ele>292.0</ele><time>2026-04-26T10:25:23.536Z</time></trkpt><trkpt lat="43.87098" lon="12.4982583"><ele>289.0</ele><time>2026-04-26T10:25:24.535Z</time></trkpt><trkpt lat="43.87097" lon="12.49806"><ele>286.0</ele><time>2026-04-26T10:25:25.538Z</time></trkpt><trkpt lat="43.8709367" lon="12.4978533"><ele>283.0</ele><time>2026-04-26T10:25:26.537Z</time></trkpt><trkpt lat="43.8708783" lon="12.49764"><ele>283.0</ele><time>2026-04-26T10:25:27.537Z</time></trkpt><trkpt lat="43.8708083" lon="12.497435"><ele>283.0</ele><time>2026-04-26T10:25:28.534Z</time></trkpt><trkpt lat="43.87074" lon="12.4972333"><ele>283.0</ele><time>2026-04-26T10:25:29.536Z</time></trkpt><trkpt lat="43.870675" lon="12.49704"><ele>281.0</ele><time>2026-04-26T10:25:30.533Z</time></trkpt><trkpt lat="43.870625" lon="12.4968683"><ele>279.0</ele><time>2026-04-26T10:25:31.534Z</time></trkpt><trkpt lat="43.8705867" lon="12.4967083"><ele>277.0</ele><time>2026-04-26T10:25:32.534Z</time></trkpt><trkpt lat="43.8705767" lon="12.4965483"><ele>275.0</ele><time>2026-04-26T10:25:33.537Z</time></trkpt><trkpt lat="43.87061" lon="12.49639"><ele>273.5</ele><time>2026-04-26T10:25:34.541Z</time></trkpt><trkpt lat="43.8706633" lon="12.4962367"><ele>272.0</ele><time>2026-04-26T10:25:35.536Z</time></trkpt><trkpt lat="43.8707417" lon="12.4960883"><ele>270.5</ele><time>2026-04-26T10:25:36.536Z</time></trkpt><trkpt lat="43.870825" lon="12.495935"><ele>269.0</ele><time>2026-04-26T10:25:37.534Z</time></trkpt><trkpt lat="43.8709117" lon="12.4957917"><ele>269.0</ele><time>2026-04-26T10:25:38.537Z</time></trkpt><trkpt lat="43.8709983" lon="12.495645"><ele>269.0</ele><time>2026-04-26T10:25:39.536Z</time></trkpt><trkpt lat="43.8710833" lon="12.4954967"><ele>269.0</ele><time>2026-04-26T10:25:40.537Z</time></trkpt><trkpt lat="43.871165" lon="12.4953483"><ele>269.0</ele><time>2026-04-26T10:25:41.536Z</time></trkpt><trkpt lat="43.8712483" lon="12.4952017"><ele>269.0</ele><time>2026-04-26T10:25:42.537Z</time></trkpt><trkpt lat="43.8713283" lon="12.49505"><ele>269.0</ele><time>2026-04-26T10:25:43.534Z</time></trkpt><trkpt lat="43.8714133" lon="12.4948917"><ele>269.0</ele><time>2026-04-26T10:25:44.534Z</time></trkpt><trkpt lat="43.8714917" lon="12.4947283"><ele>269.0</ele><time>2026-04-26T10:25:45.533Z</time></trkpt><trkpt lat="43.8715567" lon="12.494565"><ele>269.59999999999997</ele><time>2026-04-26T10:25:46.535Z</time></trkpt><trkpt lat="43.8716117" lon="12.494405"><ele>270.2</ele><time>2026-04-26T10:25:47.533Z</time></trkpt><trkpt lat="43.8716567" lon="12.4942517"><ele>270.79999999999995</ele><time>2026-04-26T10:25:48.536Z</time></trkpt><trkpt lat="43.8716917" lon="12.4941133"><ele>271.4</ele><time>2026-04-26T10:25:49.536Z</time></trkpt><trkpt lat="43.87172" lon="12.4939983"><ele>272.0</ele><time>2026-04-26T10:25:50.533Z</time></trkpt><trkpt lat="43.87174" lon="12.4939083"><ele>272.0</ele><time>2026-04-26T10:25:51.533Z</time></trkpt><trkpt lat="43.8717717" lon="12.49379"><ele>272.0</ele><time>2026-04-26T10:25:53.534Z</time></trkpt><trkpt lat="43.87187" lon="12.4937583"><ele>272.0</ele><time>2026-04-26T10:26:11.535Z</time></trkpt><trkpt lat="43.8719417" lon="12.493795"><ele>272.0</ele><time>2026-04-26T10:26:12.534Z</time></trkpt><trkpt lat="43.87204" lon="12.4938483"><ele>272.0</ele><time>2026-04-26T10:26:13.537Z</time></trkpt><trkpt lat="43.8721633" lon="12.4939017"><ele>272.0</ele><time>2026-04-26T10:26:14.534Z</time></trkpt><trkpt lat="43.8723233" lon="12.4939667"><ele>272.0</ele><time>2026-04-26T10:26:15.537Z</time></trkpt><trkpt lat="43.8724633" lon="12.49404"><ele>272.0</ele><time>2026-04-26T10:26:16.535Z</time></trkpt><trkpt lat="43.8726083" lon="12.4941283"><ele>276.33333333333337</ele><time>2026-04-26T10:26:17.536Z</time></trkpt><trkpt lat="43.8727467" lon="12.4942233"><ele>280.6666666666667</ele><time>2026-04-26T10:26:18.535Z</time></trkpt><trkpt lat="43.8728967" lon="12.4943233"><ele>285.0</ele><time>2026-04-26T10:26:19.537Z</time></trkpt><trkpt lat="43.87305" lon="12.4944317"><ele>285.0</ele><time>2026-04-26T10:26:20.537Z</time></trkpt><trkpt lat="43.8731933" lon="12.49455"><ele>285.0</ele><time>2026-04-26T10:26:21.537Z</time></trkpt><trkpt lat="43.8733383" lon="12.49467"><ele>285.0</ele><time>2026-04-26T10:26:22.535Z</time></trkpt><trkpt lat="43.8734883" lon="12.4948017"><ele>284.6666666666667</ele><time>2026-04-26T10:26:23.534Z</time></trkpt><trkpt lat="43.8736333" lon="12.4949267"><ele>284.33333333333337</ele><time>2026-04-26T10:26:24.535Z</time></trkpt><trkpt lat="43.8737717" lon="12.4950533"><ele>284.0</ele><time>2026-04-26T10:26:25.536Z</time></trkpt><trkpt lat="43.8738983" lon="12.49519"><ele>284.0</ele><time>2026-04-26T10:26:26.538Z</time></trkpt><trkpt lat="43.8740133" lon="12.4953383"><ele>284.0</ele><time>2026-04-26T10:26:27.536Z</time></trkpt><trkpt lat="43.8741217" lon="12.4954867"><ele>284.0</ele><time>2026-04-26T10:26:28.536Z</time></trkpt><trkpt lat="43.8742267" lon="12.4956233"><ele>282.0</ele><time>2026-04-26T10:26:29.536Z</time></trkpt><trkpt lat="43.8743383" lon="12.49574"><ele>280.0</ele><time>2026-04-26T10:26:30.533Z</time></trkpt><trkpt lat="43.8744633" lon="12.495835"><ele>278.0</ele><time>2026-04-26T10:26:31.535Z</time></trkpt><trkpt lat="43.87459" lon="12.495905"><ele>276.0</ele><time>2026-04-26T10:26:32.538Z</time></trkpt><trkpt lat="43.8747067" lon="12.49595"><ele>276.0</ele><time>2026-04-26T10:26:33.536Z</time></trkpt><trkpt lat="43.87481" lon="12.4959817"><ele>276.0</ele><time>2026-04-26T10:26:34.537Z</time></trkpt><trkpt lat="43.8749167" lon="12.4959883"><ele>276.0</ele><time>2026-04-26T10:26:35.537Z</time></trkpt><trkpt lat="43.8750333" lon="12.49598"><ele>276.0</ele><time>2026-04-26T10:26:36.536Z</time></trkpt><trkpt lat="43.8751533" lon="12.49599"><ele>276.5</ele><time>2026-04-26T10:26:37.536Z</time></trkpt><trkpt lat="43.8752633" lon="12.4960383"><ele>277.0</ele><time>2026-04-26T10:26:38.536Z</time></trkpt><trkpt lat="43.8753533" lon="12.496135"><ele>277.5</ele><time>2026-04-26T10:26:39.536Z</time></trkpt><trkpt lat="43.8754417" lon="12.4962333"><ele>278.0</ele><time>2026-04-26T10:26:40.537Z</time></trkpt><trkpt lat="43.875525" lon="12.49634"><ele>276.8</ele><time>2026-04-26T10:26:41.537Z</time></trkpt><trkpt lat="43.875605" lon="12.4964533"><ele>275.6</ele><time>2026-04-26T10:26:42.537Z</time></trkpt><trkpt lat="43.8756767" lon="12.4965767"><ele>274.4</ele><time>2026-04-26T10:26:43.534Z</time></trkpt><trkpt lat="43.8757433" lon="12.4966967"><ele>273.2</ele><time>2026-04-26T10:26:44.534Z</time></trkpt><trkpt lat="43.8758017" lon="12.496805"><ele>272.0</ele><time>2026-04-26T10:26:45.536Z</time></trkpt><trkpt lat="43.875855" lon="12.4969033"><ele>272.0</ele><time>2026-04-26T10:26:46.535Z</time></trkpt><trkpt lat="43.8759117" lon="12.4969867"><ele>272.0</ele><time>2026-04-26T10:26:47.534Z</time></trkpt><trkpt lat="43.8759633" lon="12.497055"><ele>272.0</ele><time>2026-04-26T10:26:48.536Z</time></trkpt><trkpt lat="43.87602" lon="12.497155"><ele>272.0</ele><time>2026-04-26T10:26:50.533Z</time></trkpt><trkpt lat="43.8760283" lon="12.4972433"><ele>272.0</ele><time>2026-04-26T10:33:25.533Z</time></trkpt><trkpt lat="43.8760683" lon="12.497165"><ele>272.0</ele><time>2026-04-26T10:33:30.534Z</time></trkpt><trkpt lat="43.8760517" lon="12.4970667"><ele>274.6666666666667</ele><time>2026-04-26T10:33:54.535Z</time></trkpt><trkpt lat="43.876" lon="12.4969917"><ele>277.33333333333337</ele><time>2026-04-26T10:33:56.536Z</time></trkpt><trkpt lat="43.8759683" lon="12.4969"><ele>280.0</ele><time>2026-04-26T10:33:58.533Z</time></trkpt><trkpt lat="43.8760167" lon="12.4968083"><ele>282.6666666666667</ele><time>2026-04-26T10:34:01.536Z</time></trkpt><trkpt lat="43.8761133" lon="12.4967917"><ele>285.3333333333333</ele><time>2026-04-26T10:34:03.533Z</time></trkpt><trkpt lat="43.8761817" lon="12.49677"><ele>288.0</ele><time>2026-04-26T10:34:04.535Z</time></trkpt><trkpt lat="43.8762617" lon="12.49672"><ele>288.0</ele><time>2026-04-26T10:34:05.534Z</time></trkpt><trkpt lat="43.8763517" lon="12.4966517"><ele>288.0</ele><time>2026-04-26T10:34:06.533Z</time></trkpt><trkpt lat="43.8764417" lon="12.4965733"><ele>288.0</ele><time>2026-04-26T10:34:07.534Z</time></trkpt><trkpt lat="43.876515" lon="12.4965083"><ele>288.0</ele><time>2026-04-26T10:34:08.532Z</time></trkpt><trkpt lat="43.87658" lon="12.4964417"><ele>288.0</ele><time>2026-04-26T10:34:09.533Z</time></trkpt><trkpt lat="43.8766567" lon="12.4963967"><ele>288.0</ele><time>2026-04-26T10:34:10.536Z</time></trkpt><trkpt lat="43.876725" lon="12.4963967"><ele>288.0</ele><time>2026-04-26T10:34:11.534Z</time></trkpt><trkpt lat="43.87681" lon="12.4964117"><ele>288.0</ele><time>2026-04-26T10:34:12.534Z</time></trkpt><trkpt lat="43.8769033" lon="12.4964267"><ele>288.0</ele><time>2026-04-26T10:34:13.537Z</time></trkpt><trkpt lat="43.87703" lon="12.4964933"><ele>288.0</ele><time>2026-04-26T10:34:14.535Z</time></trkpt><trkpt lat="43.8771633" lon="12.49655"><ele>290.6</ele><time>2026-04-26T10:34:15.534Z</time></trkpt><trkpt lat="43.87728" lon="12.4965783"><ele>293.20000000000005</ele><time>2026-04-26T10:34:16.533Z</time></trkpt><trkpt lat="43.8773933" lon="12.4965817"><ele>295.8</ele><time>2026-04-26T10:34:17.533Z</time></trkpt><trkpt lat="43.8775017" lon="12.496555"><ele>298.40000000000003</ele><time>2026-04-26T10:34:18.533Z</time></trkpt><trkpt lat="43.8775983" lon="12.4965067"><ele>301.0</ele><time>2026-04-26T10:34:19.534Z</time></trkpt><trkpt lat="43.8776817" lon="12.4964617"><ele>303.16666666666663</ele><time>2026-04-26T10:34:20.533Z</time></trkpt><trkpt lat="43.877745" lon="12.4964183"><ele>305.3333333333333</ele><time>2026-04-26T10:34:21.534Z</time></trkpt><trkpt lat="43.877845" lon="12.4963483"><ele>307.5</ele><time>2026-04-26T10:34:23.536Z</time></trkpt><trkpt lat="43.8779183" lon="12.4963033"><ele>309.6666666666667</ele><time>2026-04-26T10:34:25.533Z</time></trkpt><trkpt lat="43.8779817" lon="12.4962617"><ele>311.83333333333337</ele><time>2026-04-26T10:34:28.536Z</time></trkpt><trkpt lat="43.8780383" lon="12.4962167"><ele>314.0</ele><time>2026-04-26T10:34:31.537Z</time></trkpt><trkpt lat="43.8781017" lon="12.496195"><ele>314.0</ele><time>2026-04-26T10:34:43.539Z</time></trkpt><trkpt lat="43.87817" lon="12.4961583"><ele>314.0</ele><time>2026-04-26T10:35:03.537Z</time></trkpt><trkpt lat="43.8782467" lon="12.4961117"><ele>314.0</ele><time>2026-04-26T10:35:06.536Z</time></trkpt><trkpt lat="43.8783433" lon="12.496055"><ele>314.0</ele><time>2026-04-26T10:35:08.536Z</time></trkpt><trkpt lat="43.878415" lon="12.4960183"><ele>314.0</ele><time>2026-04-26T10:35:09.536Z</time></trkpt><trkpt lat="43.8784933" lon="12.49599"><ele>314.0</ele><time>2026-04-26T10:35:10.537Z</time></trkpt><trkpt lat="43.8785783" lon="12.4959717"><ele>316.79999999999995</ele><time>2026-04-26T10:35:11.537Z</time></trkpt><trkpt lat="43.8786733" lon="12.4959667"><ele>319.59999999999997</ele><time>2026-04-26T10:35:12.536Z</time></trkpt><trkpt lat="43.8787667" lon="12.4959717"><ele>322.4</ele><time>2026-04-26T10:35:13.536Z</time></trkpt><trkpt lat="43.8788617" lon="12.4959833"><ele>325.2</ele><time>2026-04-26T10:35:14.536Z</time></trkpt><trkpt lat="43.8789517" lon="12.4959933"><ele>328.0</ele><time>2026-04-26T10:35:15.533Z</time></trkpt><trkpt lat="43.8790517" lon="12.4959967"><ele>328.0</ele><time>2026-04-26T10:35:16.533Z</time></trkpt><trkpt lat="43.8791467" lon="12.4959967"><ele>328.0</ele><time>2026-04-26T10:35:17.533Z</time></trkpt><trkpt lat="43.8792383" lon="12.4959933"><ele>328.0</ele><time>2026-04-26T10:35:18.534Z</time></trkpt><trkpt lat="43.8793333" lon="12.495985"><ele>328.0</ele><time>2026-04-26T10:35:19.535Z</time></trkpt><trkpt lat="43.8794367" lon="12.49598"><ele>328.0</ele><time>2026-04-26T10:35:20.534Z</time></trkpt><trkpt lat="43.8795333" lon="12.495965"><ele>330.0</ele><time>2026-04-26T10:35:21.534Z</time></trkpt><trkpt lat="43.8796183" lon="12.4959633"><ele>332.0</ele><time>2026-04-26T10:35:22.535Z</time></trkpt><trkpt lat="43.879695" lon="12.495975"><ele>334.0</ele><time>2026-04-26T10:35:23.533Z</time></trkpt><trkpt lat="43.8797683" lon="12.4960133"><ele>336.0</ele><time>2026-04-26T10:35:24.535Z</time></trkpt><trkpt lat="43.8798417" lon="12.4960817"><ele>338.0</ele><time>2026-04-26T10:35:25.536Z</time></trkpt><trkpt lat="43.8799033" lon="12.4961717"><ele>340.0</ele><time>2026-04-26T10:35:26.537Z</time></trkpt><trkpt lat="43.8799683" lon="12.4962583"><ele>340.2</ele><time>2026-04-26T10:35:27.536Z</time></trkpt><trkpt lat="43.8800433" lon="12.4963283"><ele>340.4</ele><time>2026-04-26T10:35:28.537Z</time></trkpt><trkpt lat="43.8801333" lon="12.49638"><ele>340.6</ele><time>2026-04-26T10:35:29.537Z</time></trkpt><trkpt lat="43.8802417" lon="12.4964233"><ele>340.8</ele><time>2026-04-26T10:35:30.537Z</time></trkpt><trkpt lat="43.8803583" lon="12.4964533"><ele>341.0</ele><time>2026-04-26T10:35:31.537Z</time></trkpt><trkpt lat="43.8804817" lon="12.4964783"><ele>342.8</ele><time>2026-04-26T10:35:32.537Z</time></trkpt><trkpt lat="43.8806067" lon="12.4964917"><ele>344.6</ele><time>2026-04-26T10:35:33.538Z</time></trkpt><trkpt lat="43.8807217" lon="12.49651"><ele>346.4</ele><time>2026-04-26T10:35:34.537Z</time></trkpt><trkpt lat="43.8808167" lon="12.4965333"><ele>348.2</ele><time>2026-04-26T10:35:35.536Z</time></trkpt><trkpt lat="43.8809017" lon="12.496555"><ele>350.0</ele><time>2026-04-26T10:35:36.533Z</time></trkpt><trkpt lat="43.8809717" lon="12.4965683"><ele>352.1666666666667</ele><time>2026-04-26T10:35:37.534Z</time></trkpt><trkpt lat="43.8810483" lon="12.496525"><ele>354.33333333333337</ele><time>2026-04-26T10:35:39.538Z</time></trkpt><trkpt lat="43.8810733" lon="12.49639"><ele>356.5</ele><time>2026-04-26T10:35:41.536Z</time></trkpt><trkpt lat="43.8811117" lon="12.49623"><ele>358.6666666666667</ele><time>2026-04-26T10:35:43.535Z</time></trkpt><trkpt lat="43.88114" lon="12.4961483"><ele>360.8333333333333</ele><time>2026-04-26T10:35:44.535Z</time></trkpt><trkpt lat="43.8811867" lon="12.4960617"><ele>363.0</ele><time>2026-04-26T10:35:45.536Z</time></trkpt><trkpt lat="43.8812433" lon="12.4959783"><ele>365.2</ele><time>2026-04-26T10:35:46.535Z</time></trkpt><trkpt lat="43.8812983" lon="12.4959"><ele>367.4</ele><time>2026-04-26T10:35:47.535Z</time></trkpt><trkpt lat="43.8813567" lon="12.49582"><ele>369.59999999999997</ele><time>2026-04-26T10:35:48.535Z</time></trkpt><trkpt lat="43.8813933" lon="12.4957367"><ele>371.79999999999995</ele><time>2026-04-26T10:35:49.537Z</time></trkpt><trkpt lat="43.88144" lon="12.4955717"><ele>374.0</ele><time>2026-04-26T10:35:51.534Z</time></trkpt><trkpt lat="43.88152" lon="12.4954633"><ele>374.0</ele><time>2026-04-26T10:35:53.542Z</time></trkpt><trkpt lat="43.8816367" lon="12.4954317"><ele>374.0</ele><time>2026-04-26T10:35:55.534Z</time></trkpt><trkpt lat="43.8817" lon="12.495415"><ele>374.0</ele><time>2026-04-26T10:35:56.534Z</time></trkpt><trkpt lat="43.881765" lon="12.4954067"><ele>374.0</ele><time>2026-04-26T10:35:57.538Z</time></trkpt><trkpt lat="43.8818583" lon="12.49536"><ele>374.0</ele><time>2026-04-26T10:35:59.534Z</time></trkpt><trkpt lat="43.881955" lon="12.495325"><ele>374.0</ele><time>2026-04-26T10:36:01.534Z</time></trkpt><trkpt lat="43.88205" lon="12.49528"><ele>377.33333333333337</ele><time>2026-04-26T10:36:03.536Z</time></trkpt><trkpt lat="43.8821433" lon="12.4952317"><ele>380.6666666666667</ele><time>2026-04-26T10:36:05.534Z</time></trkpt><trkpt lat="43.88222" lon="12.4952117"><ele>384.0</ele><time>2026-04-26T10:36:07.537Z</time></trkpt><trkpt lat="43.882295" lon="12.495235"><ele>387.33333333333337</ele><time>2026-04-26T10:36:09.533Z</time></trkpt><trkpt lat="43.8823867" lon="12.4952583"><ele>390.6666666666667</ele><time>2026-04-26T10:36:11.537Z</time></trkpt><trkpt lat="43.8824533" lon="12.4952617"><ele>394.0</ele><time>2026-04-26T10:36:12.537Z</time></trkpt><trkpt lat="43.882535" lon="12.495265"><ele>396.1666666666667</ele><time>2026-04-26T10:36:13.536Z</time></trkpt><trkpt lat="43.8826133" lon="12.4952733"><ele>398.33333333333337</ele><time>2026-04-26T10:36:14.536Z</time></trkpt><trkpt lat="43.8826833" lon="12.495285"><ele>400.5</ele><time>2026-04-26T10:36:15.534Z</time></trkpt><trkpt lat="43.8827983" lon="12.4952833"><ele>402.66666666666663</ele><time>2026-04-26T10:36:17.534Z</time></trkpt><trkpt lat="43.8829167" lon="12.4952533"><ele>404.8333333333333</ele><time>2026-04-26T10:36:19.535Z</time></trkpt><trkpt lat="43.88298" lon="12.49525"><ele>407.0</ele><time>2026-04-26T10:36:20.537Z</time></trkpt><trkpt lat="43.8830517" lon="12.4952633"><ele>406.99999999999994</ele><time>2026-04-26T10:36:21.535Z</time></trkpt><trkpt lat="43.8831317" lon="12.495285"><ele>407.0</ele><time>2026-04-26T10:36:22.537Z</time></trkpt><trkpt lat="43.8832167" lon="12.495315"><ele>407.0</ele><time>2026-04-26T10:36:23.536Z</time></trkpt><trkpt lat="43.8832983" lon="12.495345"><ele>407.0</ele><time>2026-04-26T10:36:24.536Z</time></trkpt><trkpt lat="43.883375" lon="12.495365"><ele>406.99999999999994</ele><time>2026-04-26T10:36:25.538Z</time></trkpt><trkpt lat="43.8834467" lon="12.495385"><ele>407.0</ele><time>2026-04-26T10:36:26.533Z</time></trkpt><trkpt lat="43.8835183" lon="12.4954133"><ele>410.40000000000003</ele><time>2026-04-26T10:36:27.535Z</time></trkpt><trkpt lat="43.8835883" lon="12.4954533"><ele>413.8</ele><time>2026-04-26T10:36:28.536Z</time></trkpt><trkpt lat="43.8836567" lon="12.495495"><ele>417.2</ele><time>2026-04-26T10:36:29.537Z</time></trkpt><trkpt lat="43.8837167" lon="12.495535"><ele>420.6</ele><time>2026-04-26T10:36:30.537Z</time></trkpt><trkpt lat="43.8838133" lon="12.4956283"><ele>424.0</ele><time>2026-04-26T10:36:32.536Z</time></trkpt><trkpt lat="43.8838833" lon="12.495765"><ele>424.00000000000006</ele><time>2026-04-26T10:36:34.538Z</time></trkpt><trkpt lat="43.8839083" lon="12.4958483"><ele>424.0</ele><time>2026-04-26T10:36:35.537Z</time></trkpt><trkpt lat="43.8839683" lon="12.4959833"><ele>424.0</ele><time>2026-04-26T10:36:37.538Z</time></trkpt><trkpt lat="43.88407" lon="12.4960833"><ele>424.0</ele><time>2026-04-26T10:36:39.534Z</time></trkpt><trkpt lat="43.884135" lon="12.4961233"><ele>424.00000000000006</ele><time>2026-04-26T10:36:40.537Z</time></trkpt><trkpt lat="43.8841983" lon="12.4961633"><ele>424.0</ele><time>2026-04-26T10:36:41.533Z</time></trkpt><trkpt lat="43.884255" lon="12.49621"><ele>427.6</ele><time>2026-04-26T10:36:42.537Z</time></trkpt><trkpt lat="43.884315" lon="12.49635"><ele>431.2</ele><time>2026-04-26T10:36:44.535Z</time></trkpt><trkpt lat="43.8843317" lon="12.4964467"><ele>434.80000000000007</ele><time>2026-04-26T10:36:45.535Z</time></trkpt><trkpt lat="43.884345" lon="12.4965333"><ele>438.40000000000003</ele><time>2026-04-26T10:36:46.535Z</time></trkpt><trkpt lat="43.8843967" lon="12.496685"><ele>442.0</ele><time>2026-04-26T10:36:48.534Z</time></trkpt><trkpt lat="43.884465" lon="12.4967483"><ele>442.00000000000006</ele><time>2026-04-26T10:36:50.535Z</time></trkpt><trkpt lat="43.8845583" lon="12.4967033"><ele>442.0</ele><time>2026-04-26T10:36:52.534Z</time></trkpt><trkpt lat="43.8846183" lon="12.4966767"><ele>442.0</ele><time>2026-04-26T10:36:53.533Z</time></trkpt><trkpt lat="43.8846867" lon="12.4966483"><ele>442.0</ele><time>2026-04-26T10:36:54.534Z</time></trkpt><trkpt lat="43.884765" lon="12.49662"><ele>442.00000000000006</ele><time>2026-04-26T10:36:55.533Z</time></trkpt><trkpt lat="43.88486" lon="12.496585"><ele>442.0</ele><time>2026-04-26T10:36:56.535Z</time></trkpt><trkpt lat="43.8849583" lon="12.4965483"><ele>442.0</ele><time>2026-04-26T10:36:57.533Z</time></trkpt><trkpt lat="43.8850533" lon="12.4965183"><ele>442.00000000000006</ele><time>2026-04-26T10:36:58.534Z</time></trkpt><trkpt lat="43.8851483" lon="12.4964983"><ele>442.00000000000006</ele><time>2026-04-26T10:36:59.535Z</time></trkpt><trkpt lat="43.8852383" lon="12.4964933"><ele>442.0</ele><time>2026-04-26T10:37:00.534Z</time></trkpt><trkpt lat="43.8853333" lon="12.4964917"><ele>442.0</ele><time>2026-04-26T10:37:01.535Z</time></trkpt><trkpt lat="43.8854433" lon="12.49649"><ele>444.40000000000003</ele><time>2026-04-26T10:37:02.534Z</time></trkpt><trkpt lat="43.8855467" lon="12.496485"><ele>446.80000000000007</ele><time>2026-04-26T10:37:03.534Z</time></trkpt><trkpt lat="43.88565" lon="12.4964733"><ele>449.2</ele><time>2026-04-26T10:37:04.533Z</time></trkpt><trkpt lat="43.8857483" lon="12.4964617"><ele>451.6</ele><time>2026-04-26T10:37:05.534Z</time></trkpt><trkpt lat="43.8858417" lon="12.4964583"><ele>454.0</ele><time>2026-04-26T10:37:06.535Z</time></trkpt><trkpt lat="43.8859267" lon="12.4964633"><ele>456.33333333333337</ele><time>2026-04-26T10:37:07.534Z</time></trkpt><trkpt lat="43.8860133" lon="12.496475"><ele>458.6666666666667</ele><time>2026-04-26T10:37:08.533Z</time></trkpt><trkpt lat="43.8861017" lon="12.4964983"><ele>461.0</ele><time>2026-04-26T10:37:09.533Z</time></trkpt><trkpt lat="43.886185" lon="12.4965333"><ele>463.33333333333337</ele><time>2026-04-26T10:37:10.535Z</time></trkpt><trkpt lat="43.8862567" lon="12.4965733"><ele>465.6666666666667</ele><time>2026-04-26T10:37:11.534Z</time></trkpt><trkpt lat="43.8863283" lon="12.4966083"><ele>468.0</ele><time>2026-04-26T10:37:12.535Z</time></trkpt><trkpt lat="43.8864" lon="12.496635"><ele>468.0</ele><time>2026-04-26T10:37:13.534Z</time></trkpt><trkpt lat="43.8864667" lon="12.4966633"><ele>468.0</ele><time>2026-04-26T10:37:14.535Z</time></trkpt><trkpt lat="43.8865367" lon="12.49669"><ele>468.0</ele><time>2026-04-26T10:37:15.534Z</time></trkpt><trkpt lat="43.8866067" lon="12.4967083"><ele>468.0</ele><time>2026-04-26T10:37:16.533Z</time></trkpt><trkpt lat="43.8867283" lon="12.496705"><ele>468.0</ele><time>2026-04-26T10:37:18.534Z</time></trkpt><trkpt lat="43.8867917" lon="12.4966633"><ele>468.0</ele><time>2026-04-26T10:37:19.534Z</time></trkpt><trkpt lat="43.8868667" lon="12.4966333"><ele>469.8333333333333</ele><time>2026-04-26T10:37:20.533Z</time></trkpt><trkpt lat="43.88695" lon="12.496595"><ele>471.66666666666663</ele><time>2026-04-26T10:37:21.533Z</time></trkpt><trkpt lat="43.8870383" lon="12.4965633"><ele>473.5</ele><time>2026-04-26T10:37:22.535Z</time></trkpt><trkpt lat="43.887125" lon="12.4965383"><ele>475.3333333333333</ele><time>2026-04-26T10:37:23.538Z</time></trkpt><trkpt lat="43.887215" lon="12.49653"><ele>477.16666666666663</ele><time>2026-04-26T10:37:24.536Z</time></trkpt><trkpt lat="43.887305" lon="12.4965283"><ele>479.0</ele><time>2026-04-26T10:37:25.533Z</time></trkpt><trkpt lat="43.887405" lon="12.4965283"><ele>479.0</ele><time>2026-04-26T10:37:26.534Z</time></trkpt><trkpt lat="43.8875067" lon="12.4965283"><ele>479.0</ele><time>2026-04-26T10:37:27.533Z</time></trkpt><trkpt lat="43.887595" lon="12.49652"><ele>479.0</ele><time>2026-04-26T10:37:28.534Z</time></trkpt><trkpt lat="43.8876817" lon="12.4964933"><ele>479.0</ele><time>2026-04-26T10:37:29.533Z</time></trkpt><trkpt lat="43.88776" lon="12.4964533"><ele>479.0</ele><time>2026-04-26T10:37:30.535Z</time></trkpt><trkpt lat="43.88784" lon="12.4964033"><ele>479.3333333333333</ele><time>2026-04-26T10:37:31.534Z</time></trkpt><trkpt lat="43.8879133" lon="12.49635"><ele>479.66666666666663</ele><time>2026-04-26T10:37:32.537Z</time></trkpt><trkpt lat="43.8879817" lon="12.4963017"><ele>480.0</ele><time>2026-04-26T10:37:33.536Z</time></trkpt><trkpt lat="43.8880517" lon="12.4962667"><ele>480.33333333333337</ele><time>2026-04-26T10:37:34.533Z</time></trkpt><trkpt lat="43.8881233" lon="12.496255"><ele>480.6666666666667</ele><time>2026-04-26T10:37:35.536Z</time></trkpt><trkpt lat="43.8881967" lon="12.4962583"><ele>481.0</ele><time>2026-04-26T10:37:36.533Z</time></trkpt><trkpt lat="43.8882833" lon="12.4962633"><ele>481.0</ele><time>2026-04-26T10:37:37.534Z</time></trkpt><trkpt lat="43.8883717" lon="12.4962583"><ele>481.0</ele><time>2026-04-26T10:37:38.536Z</time></trkpt><trkpt lat="43.888465" lon="12.4962483"><ele>481.0</ele><time>2026-04-26T10:37:39.535Z</time></trkpt><trkpt lat="43.88856" lon="12.4962317"><ele>481.0</ele><time>2026-04-26T10:37:40.537Z</time></trkpt><trkpt lat="43.8886483" lon="12.4961883"><ele>481.0</ele><time>2026-04-26T10:37:41.536Z</time></trkpt><trkpt lat="43.88873" lon="12.496125"><ele>483.00000000000006</ele><time>2026-04-26T10:37:42.537Z</time></trkpt><trkpt lat="43.888815" lon="12.4960667"><ele>485.0</ele><time>2026-04-26T10:37:43.537Z</time></trkpt><trkpt lat="43.888895" lon="12.496015"><ele>487.0</ele><time>2026-04-26T10:37:44.536Z</time></trkpt><trkpt lat="43.888965" lon="12.495975"><ele>489.0</ele><time>2026-04-26T10:37:45.537Z</time></trkpt><trkpt lat="43.88903" lon="12.49593"><ele>491.00000000000006</ele><time>2026-04-26T10:37:46.535Z</time></trkpt><trkpt lat="43.8891367" lon="12.4958617"><ele>493.0</ele><time>2026-04-26T10:37:48.535Z</time></trkpt><trkpt lat="43.889215" lon="12.4958167"><ele>494.79999999999995</ele><time>2026-04-26T10:37:50.535Z</time></trkpt><trkpt lat="43.889295" lon="12.4957717"><ele>496.59999999999997</ele><time>2026-04-26T10:37:52.537Z</time></trkpt><trkpt lat="43.889385" lon="12.4957583"><ele>498.40000000000003</ele><time>2026-04-26T10:37:54.533Z</time></trkpt><trkpt lat="43.88948" lon="12.4957967"><ele>500.20000000000005</ele><time>2026-04-26T10:37:56.535Z</time></trkpt><trkpt lat="43.8895517" lon="12.4958667"><ele>502.0</ele><time>2026-04-26T10:37:58.536Z</time></trkpt><trkpt lat="43.889625" lon="12.4959633"><ele>502.0</ele><time>2026-04-26T10:38:00.537Z</time></trkpt><trkpt lat="43.8897017" lon="12.496075"><ele>502.00000000000006</ele><time>2026-04-26T10:38:02.536Z</time></trkpt><trkpt lat="43.8898" lon="12.496165"><ele>502.00000000000006</ele><time>2026-04-26T10:38:04.536Z</time></trkpt><trkpt lat="43.8898567" lon="12.4962067"><ele>502.0</ele><time>2026-04-26T10:38:05.533Z</time></trkpt><trkpt lat="43.88996" lon="12.4962933"><ele>502.0</ele><time>2026-04-26T10:38:07.537Z</time></trkpt><trkpt lat="43.89007" lon="12.4963733"><ele>499.1666666666667</ele><time>2026-04-26T10:38:09.533Z</time></trkpt><trkpt lat="43.8901317" lon="12.4964067"><ele>496.33333333333337</ele><time>2026-04-26T10:38:10.538Z</time></trkpt><trkpt lat="43.8901883" lon="12.496445"><ele>493.5</ele><time>2026-04-26T10:38:11.534Z</time></trkpt><trkpt lat="43.890295" lon="12.4965267"><ele>490.66666666666663</ele><time>2026-04-26T10:38:13.533Z</time></trkpt><trkpt lat="43.8903533" lon="12.4965733"><ele>487.8333333333333</ele><time>2026-04-26T10:38:14.532Z</time></trkpt><trkpt lat="43.8904117" lon="12.4966133"><ele>485.0</ele><time>2026-04-26T10:38:15.532Z</time></trkpt><trkpt lat="43.8904817" lon="12.4966533"><ele>485.00000000000006</ele><time>2026-04-26T10:38:16.533Z</time></trkpt><trkpt lat="43.8905533" lon="12.4966817"><ele>485.0</ele><time>2026-04-26T10:38:17.536Z</time></trkpt><trkpt lat="43.8906317" lon="12.496705"><ele>485.00000000000006</ele><time>2026-04-26T10:38:18.536Z</time></trkpt><trkpt lat="43.8907067" lon="12.4967333"><ele>485.00000000000006</ele><time>2026-04-26T10:38:19.534Z</time></trkpt><trkpt lat="43.8907783" lon="12.496765"><ele>485.0</ele><time>2026-04-26T10:38:20.537Z</time></trkpt><trkpt lat="43.8908433" lon="12.4967933"><ele>485.00000000000006</ele><time>2026-04-26T10:38:21.533Z</time></trkpt><trkpt lat="43.8909033" lon="12.4968217"><ele>485.00000000000006</ele><time>2026-04-26T10:38:22.534Z</time></trkpt><trkpt lat="43.8909917" lon="12.49685"><ele>482.3333333333333</ele><time>2026-04-26T10:38:24.536Z</time></trkpt><trkpt lat="43.8910833" lon="12.4968283"><ele>479.66666666666663</ele><time>2026-04-26T10:38:27.54Z</time></trkpt><trkpt lat="43.8911467" lon="12.496865"><ele>477.0</ele><time>2026-04-26T10:38:29.533Z</time></trkpt><trkpt lat="43.8911933" lon="12.496985"><ele>474.33333333333337</ele><time>2026-04-26T10:38:31.533Z</time></trkpt><trkpt lat="43.8912117" lon="12.49707"><ele>471.6666666666667</ele><time>2026-04-26T10:38:32.533Z</time></trkpt><trkpt lat="43.8912317" lon="12.4971667"><ele>469.0</ele><time>2026-04-26T10:38:33.536Z</time></trkpt><trkpt lat="43.89125" lon="12.4972783"><ele>468.6666666666667</ele><time>2026-04-26T10:38:34.536Z</time></trkpt><trkpt lat="43.8912583" lon="12.497405"><ele>468.33333333333337</ele><time>2026-04-26T10:38:35.535Z</time></trkpt><trkpt lat="43.891265" lon="12.4975317"><ele>468.0</ele><time>2026-04-26T10:38:36.536Z</time></trkpt><trkpt lat="43.8912733" lon="12.497655"><ele>467.66666666666663</ele><time>2026-04-26T10:38:37.535Z</time></trkpt><trkpt lat="43.89128" lon="12.4977767"><ele>467.3333333333333</ele><time>2026-04-26T10:38:38.535Z</time></trkpt><trkpt lat="43.8912883" lon="12.4978967"><ele>467.0</ele><time>2026-04-26T10:38:39.536Z</time></trkpt><trkpt lat="43.8912967" lon="12.4980167"><ele>466.20000000000005</ele><time>2026-04-26T10:38:40.536Z</time></trkpt><trkpt lat="43.8913033" lon="12.4981467"><ele>465.40000000000003</ele><time>2026-04-26T10:38:41.536Z</time></trkpt><trkpt lat="43.89131" lon="12.49829"><ele>464.59999999999997</ele><time>2026-04-26T10:38:42.538Z</time></trkpt><trkpt lat="43.8913167" lon="12.4984433"><ele>463.79999999999995</ele><time>2026-04-26T10:38:43.536Z</time></trkpt><trkpt lat="43.8913283" lon="12.498605"><ele>463.0</ele><time>2026-04-26T10:38:44.536Z</time></trkpt><trkpt lat="43.89134" lon="12.4987717"><ele>461.25</ele><time>2026-04-26T10:38:45.536Z</time></trkpt><trkpt lat="43.8913533" lon="12.4989383"><ele>459.5</ele><time>2026-04-26T10:38:46.536Z</time></trkpt><trkpt lat="43.8913667" lon="12.4991083"><ele>457.75</ele><time>2026-04-26T10:38:47.537Z</time></trkpt><trkpt lat="43.8913817" lon="12.4992817"><ele>456.0</ele><time>2026-04-26T10:38:48.536Z</time></trkpt><trkpt lat="43.8913983" lon="12.49946"><ele>455.0</ele><time>2026-04-26T10:38:49.534Z</time></trkpt><trkpt lat="43.8914133" lon="12.499635"><ele>454.0</ele><time>2026-04-26T10:38:50.534Z</time></trkpt><trkpt lat="43.89143" lon="12.4998067"><ele>453.0</ele><time>2026-04-26T10:38:51.534Z</time></trkpt><trkpt lat="43.8914417" lon="12.4999767"><ele>452.0</ele><time>2026-04-26T10:38:52.535Z</time></trkpt><trkpt lat="43.8914483" lon="12.5001517"><ele>452.0</ele><time>2026-04-26T10:38:53.534Z</time></trkpt><trkpt lat="43.89145" lon="12.5003333"><ele>452.0</ele><time>2026-04-26T10:38:54.536Z</time></trkpt><trkpt lat="43.8914417" lon="12.5005167"><ele>452.0</ele><time>2026-04-26T10:38:55.534Z</time></trkpt><trkpt lat="43.89141" lon="12.500695"><ele>452.0</ele><time>2026-04-26T10:38:56.536Z</time></trkpt><trkpt lat="43.8913667" lon="12.500865"><ele>452.0</ele><time>2026-04-26T10:38:57.534Z</time></trkpt><trkpt lat="43.8913067" lon="12.5010183"><ele>452.0</ele><time>2026-04-26T10:38:58.536Z</time></trkpt><trkpt lat="43.8912367" lon="12.501155"><ele>452.0</ele><time>2026-04-26T10:38:59.535Z</time></trkpt><trkpt lat="43.8911567" lon="12.501275"><ele>452.0</ele><time>2026-04-26T10:39:00.535Z</time></trkpt><trkpt lat="43.8910617" lon="12.5013783"><ele>452.25</ele><time>2026-04-26T10:39:01.535Z</time></trkpt><trkpt lat="43.8909617" lon="12.50147"><ele>452.5</ele><time>2026-04-26T10:39:02.537Z</time></trkpt><trkpt lat="43.890875" lon="12.5015767"><ele>452.75</ele><time>2026-04-26T10:39:03.536Z</time></trkpt><trkpt lat="43.890815" lon="12.50171"><ele>453.0</ele><time>2026-04-26T10:39:04.536Z</time></trkpt><trkpt lat="43.8907833" lon="12.5018667"><ele>452.5</ele><time>2026-04-26T10:39:05.536Z</time></trkpt><trkpt lat="43.8907867" lon="12.5020383"><ele>452.0</ele><time>2026-04-26T10:39:06.534Z</time></trkpt><trkpt lat="43.890815" lon="12.5022133"><ele>451.5</ele><time>2026-04-26T10:39:07.537Z</time></trkpt><trkpt lat="43.89086" lon="12.5023933"><ele>451.0</ele><time>2026-04-26T10:39:08.538Z</time></trkpt><trkpt lat="43.8909" lon="12.5025817"><ele>449.75</ele><time>2026-04-26T10:39:09.533Z</time></trkpt><trkpt lat="43.8909167" lon="12.50278"><ele>448.5</ele><time>2026-04-26T10:39:10.536Z</time></trkpt><trkpt lat="43.8909267" lon="12.5029783"><ele>447.25</ele><time>2026-04-26T10:39:11.538Z</time></trkpt><trkpt lat="43.890945" lon="12.5031717"><ele>446.0</ele><time>2026-04-26T10:39:12.536Z</time></trkpt><trkpt lat="43.8909733" lon="12.5033633"><ele>442.5</ele><time>2026-04-26T10:39:13.537Z</time></trkpt><trkpt lat="43.891005" lon="12.5035533"><ele>439.0</ele><time>2026-04-26T10:39:14.536Z</time></trkpt><trkpt lat="43.8910367" lon="12.503745"><ele>435.5</ele><time>2026-04-26T10:39:15.535Z</time></trkpt><trkpt lat="43.8910667" lon="12.5039433"><ele>432.0</ele><time>2026-04-26T10:39:16.535Z</time></trkpt><trkpt lat="43.8910967" lon="12.50414"><ele>431.75</ele><time>2026-04-26T10:39:17.535Z</time></trkpt><trkpt lat="43.8911267" lon="12.504335"><ele>431.5</ele><time>2026-04-26T10:39:18.535Z</time></trkpt><trkpt lat="43.8911583" lon="12.5045217"><ele>431.25</ele><time>2026-04-26T10:39:19.536Z</time></trkpt><trkpt lat="43.891195" lon="12.5047"><ele>431.0</ele><time>2026-04-26T10:39:20.535Z</time></trkpt><trkpt lat="43.89125" lon="12.5048667"><ele>431.0</ele><time>2026-04-26T10:39:21.536Z</time></trkpt><trkpt lat="43.8913317" lon="12.5050217"><ele>431.0</ele><time>2026-04-26T10:39:22.535Z</time></trkpt><trkpt lat="43.8914283" lon="12.505165"><ele>431.0</ele><time>2026-04-26T10:39:23.535Z</time></trkpt><trkpt lat="43.8915283" lon="12.50529"><ele>431.0</ele><time>2026-04-26T10:39:24.536Z</time></trkpt><trkpt lat="43.8916133" lon="12.50541"><ele>431.0</ele><time>2026-04-26T10:39:25.536Z</time></trkpt><trkpt lat="43.89168" lon="12.5055483"><ele>431.0</ele><time>2026-04-26T10:39:26.535Z</time></trkpt><trkpt lat="43.8917283" lon="12.5057117"><ele>431.0</ele><time>2026-04-26T10:39:27.536Z</time></trkpt><trkpt lat="43.891755" lon="12.5058933"><ele>431.0</ele><time>2026-04-26T10:39:28.535Z</time></trkpt><trkpt lat="43.8917767" lon="12.50608"><ele>430.0</ele><time>2026-04-26T10:39:29.536Z</time></trkpt><trkpt lat="43.8917933" lon="12.5062717"><ele>429.0</ele><time>2026-04-26T10:39:30.535Z</time></trkpt><trkpt lat="43.8918083" lon="12.5064633"><ele>428.0</ele><time>2026-04-26T10:39:31.536Z</time></trkpt><trkpt lat="43.8918233" lon="12.5066633"><ele>427.0</ele><time>2026-04-26T10:39:32.54Z</time></trkpt><trkpt lat="43.8918383" lon="12.5068617"><ele>427.0</ele><time>2026-04-26T10:39:33.534Z</time></trkpt><trkpt lat="43.8918567" lon="12.507055"><ele>427.0</ele><time>2026-04-26T10:39:34.535Z</time></trkpt><trkpt lat="43.891875" lon="12.5072433"><ele>427.0</ele><time>2026-04-26T10:39:35.535Z</time></trkpt><trkpt lat="43.89189" lon="12.5074283"><ele>427.0</ele><time>2026-04-26T10:39:36.536Z</time></trkpt><trkpt lat="43.8919033" lon="12.507605"><ele>431.5</ele><time>2026-04-26T10:39:37.537Z</time></trkpt><trkpt lat="43.8919017" lon="12.50777"><ele>436.0</ele><time>2026-04-26T10:39:38.534Z</time></trkpt><trkpt lat="43.8918867" lon="12.5079283"><ele>440.5</ele><time>2026-04-26T10:39:39.534Z</time></trkpt><trkpt lat="43.8918567" lon="12.5080767"><ele>445.0</ele><time>2026-04-26T10:39:40.538Z</time></trkpt><trkpt lat="43.8918083" lon="12.5082217"><ele>445.25</ele><time>2026-04-26T10:39:41.536Z</time></trkpt><trkpt lat="43.8917417" lon="12.5083517"><ele>445.5</ele><time>2026-04-26T10:39:42.536Z</time></trkpt><trkpt lat="43.8916617" lon="12.5084783"><ele>445.75</ele><time>2026-04-26T10:39:43.537Z</time></trkpt><trkpt lat="43.891585" lon="12.5085917"><ele>446.0</ele><time>2026-04-26T10:39:44.536Z</time></trkpt><trkpt lat="43.8915233" lon="12.5087083"><ele>448.25</ele><time>2026-04-26T10:39:45.537Z</time></trkpt><trkpt lat="43.8914667" lon="12.5088333"><ele>450.5</ele><time>2026-04-26T10:39:46.536Z</time></trkpt><trkpt lat="43.8914083" lon="12.5089867"><ele>452.75</ele><time>2026-04-26T10:39:47.533Z</time></trkpt><trkpt lat="43.89135" lon="12.50916"><ele>455.0</ele><time>2026-04-26T10:39:48.535Z</time></trkpt><trkpt lat="43.8912933" lon="12.5093467"><ele>455.0</ele><time>2026-04-26T10:39:49.534Z</time></trkpt><trkpt lat="43.8912517" lon="12.5095467"><ele>455.0</ele><time>2026-04-26T10:39:50.537Z</time></trkpt><trkpt lat="43.89123" lon="12.5097533"><ele>455.0</ele><time>2026-04-26T10:39:51.535Z</time></trkpt><trkpt lat="43.8912333" lon="12.5099633"><ele>455.0</ele><time>2026-04-26T10:39:52.535Z</time></trkpt><trkpt lat="43.89125" lon="12.51017"><ele>455.0</ele><time>2026-04-26T10:39:53.535Z</time></trkpt><trkpt lat="43.89128" lon="12.5103683"><ele>455.0</ele><time>2026-04-26T10:39:54.534Z</time></trkpt><trkpt lat="43.8913167" lon="12.5105583"><ele>455.0</ele><time>2026-04-26T10:39:55.536Z</time></trkpt><trkpt lat="43.8913583" lon="12.5107367"><ele>454.2</ele><time>2026-04-26T10:39:56.535Z</time></trkpt><trkpt lat="43.8913933" lon="12.5109017"><ele>453.4</ele><time>2026-04-26T10:39:57.536Z</time></trkpt><trkpt lat="43.8914083" lon="12.5110517"><ele>452.6</ele><time>2026-04-26T10:39:58.536Z</time></trkpt><trkpt lat="43.8913967" lon="12.5111817"><ele>451.8</ele><time>2026-04-26T10:39:59.535Z</time></trkpt><trkpt lat="43.8913567" lon="12.5112833"><ele>451.0</ele><time>2026-04-26T10:40:00.536Z</time></trkpt><trkpt lat="43.8913" lon="12.5113483"><ele>451.0</ele><time>2026-04-26T10:40:01.536Z</time></trkpt><trkpt lat="43.8912367" lon="12.5113317"><ele>451.0</ele><time>2026-04-26T10:40:02.537Z</time></trkpt><trkpt lat="43.89117" lon="12.5112917"><ele>451.0</ele><time>2026-04-26T10:40:03.534Z</time></trkpt><trkpt lat="43.8910517" lon="12.5110933"><ele>451.0</ele><time>2026-04-26T10:40:04.536Z</time></trkpt><trkpt lat="43.8910317" lon="12.51085"><ele>450.33333333333337</ele><time>2026-04-26T10:40:05.535Z</time></trkpt><trkpt lat="43.8909983" lon="12.5106367"><ele>449.66666666666663</ele><time>2026-04-26T10:40:06.537Z</time></trkpt><trkpt lat="43.890965" lon="12.5104183"><ele>449.0</ele><time>2026-04-26T10:40:07.536Z</time></trkpt><trkpt lat="43.89093" lon="12.51021"><ele>445.4</ele><time>2026-04-26T10:40:08.536Z</time></trkpt><trkpt lat="43.8908883" lon="12.5100283"><ele>441.79999999999995</ele><time>2026-04-26T10:40:09.536Z</time></trkpt><trkpt lat="43.8908283" lon="12.5098967"><ele>438.20000000000005</ele><time>2026-04-26T10:40:10.536Z</time></trkpt><trkpt lat="43.89075" lon="12.5098183"><ele>434.6</ele><time>2026-04-26T10:40:11.537Z</time></trkpt><trkpt lat="43.89067" lon="12.5097933"><ele>431.0</ele><time>2026-04-26T10:40:12.537Z</time></trkpt><trkpt lat="43.8905817" lon="12.5098417"><ele>431.0</ele><time>2026-04-26T10:40:13.538Z</time></trkpt><trkpt lat="43.8905383" lon="12.5099867"><ele>431.0</ele><time>2026-04-26T10:40:14.536Z</time></trkpt><trkpt lat="43.8905233" lon="12.5102183"><ele>431.0</ele><time>2026-04-26T10:40:15.536Z</time></trkpt><trkpt lat="43.8905333" lon="12.5104317"><ele>431.0</ele><time>2026-04-26T10:40:16.538Z</time></trkpt><trkpt lat="43.8905833" lon="12.5106967"><ele>428.66666666666663</ele><time>2026-04-26T10:40:17.535Z</time></trkpt><trkpt lat="43.89062" lon="12.5109467"><ele>426.33333333333337</ele><time>2026-04-26T10:40:18.534Z</time></trkpt><trkpt lat="43.8906567" lon="12.5111933"><ele>424.0</ele><time>2026-04-26T10:40:19.534Z</time></trkpt><trkpt lat="43.8906883" lon="12.511435"><ele>422.0</ele><time>2026-04-26T10:40:20.533Z</time></trkpt><trkpt lat="43.8907383" lon="12.511675"><ele>420.0</ele><time>2026-04-26T10:40:21.534Z</time></trkpt><trkpt lat="43.8908" lon="12.5119133"><ele>418.0</ele><time>2026-04-26T10:40:22.534Z</time></trkpt><trkpt lat="43.8908683" lon="12.5121467"><ele>427.0</ele><time>2026-04-26T10:40:23.534Z</time></trkpt><trkpt lat="43.89094" lon="12.5123717"><ele>436.0</ele><time>2026-04-26T10:40:24.534Z</time></trkpt><trkpt lat="43.8910083" lon="12.5125933"><ele>445.0</ele><time>2026-04-26T10:40:25.534Z</time></trkpt><trkpt lat="43.8910767" lon="12.5128133"><ele>438.33333333333337</ele><time>2026-04-26T10:40:26.533Z</time></trkpt><trkpt lat="43.8911383" lon="12.5130317"><ele>431.66666666666663</ele><time>2026-04-26T10:40:27.533Z</time></trkpt><trkpt lat="43.891205" lon="12.51325"><ele>425.0</ele><time>2026-04-26T10:40:28.54Z</time></trkpt><trkpt lat="43.8912733" lon="12.5134717"><ele>425.0</ele><time>2026-04-26T10:40:29.536Z</time></trkpt><trkpt lat="43.8913417" lon="12.5136917"><ele>425.0</ele><time>2026-04-26T10:40:30.537Z</time></trkpt><trkpt lat="43.8914067" lon="12.5139083"><ele>425.0</ele><time>2026-04-26T10:40:31.534Z</time></trkpt><trkpt lat="43.891475" lon="12.5141267"><ele>415.66666666666663</ele><time>2026-04-26T10:40:32.534Z</time></trkpt><trkpt lat="43.89154" lon="12.51434"><ele>406.33333333333337</ele><time>2026-04-26T10:40:33.536Z</time></trkpt><trkpt lat="43.8916067" lon="12.514545"><ele>397.0</ele><time>2026-04-26T10:40:34.535Z</time></trkpt><trkpt lat="43.89166" lon="12.5147317"><ele>394.6</ele><time>2026-04-26T10:40:35.536Z</time></trkpt><trkpt lat="43.8916933" lon="12.5148867"><ele>392.20000000000005</ele><time>2026-04-26T10:40:36.535Z</time></trkpt><trkpt lat="43.8916967" lon="12.5150217"><ele>389.8</ele><time>2026-04-26T10:40:37.536Z</time></trkpt><trkpt lat="43.8916733" lon="12.51513"><ele>387.4</ele><time>2026-04-26T10:40:38.535Z</time></trkpt><trkpt lat="43.891575" lon="12.5152"><ele>385.0</ele><time>2026-04-26T10:40:40.536Z</time></trkpt><trkpt lat="43.8914833" lon="12.5150917"><ele>385.0</ele><time>2026-04-26T10:40:41.537Z</time></trkpt><trkpt lat="43.89143" lon="12.5149817"><ele>385.0</ele><time>2026-04-26T10:40:42.533Z</time></trkpt><trkpt lat="43.8914083" lon="12.51482"><ele>385.0</ele><time>2026-04-26T10:40:43.537Z</time></trkpt><trkpt lat="43.89138" lon="12.51467"><ele>385.0</ele><time>2026-04-26T10:40:44.537Z</time></trkpt><trkpt lat="43.8913233" lon="12.5145533"><ele>385.0</ele><time>2026-04-26T10:40:45.537Z</time></trkpt><trkpt lat="43.8912683" lon="12.5144867"><ele>385.0</ele><time>2026-04-26T10:40:46.533Z</time></trkpt><trkpt lat="43.8912067" lon="12.514465"><ele>385.0</ele><time>2026-04-26T10:40:47.536Z</time></trkpt><trkpt lat="43.8911417" lon="12.5145"><ele>385.0</ele><time>2026-04-26T10:40:48.537Z</time></trkpt><trkpt lat="43.8911133" lon="12.5146333"><ele>385.0</ele><time>2026-04-26T10:40:49.537Z</time></trkpt><trkpt lat="43.8911133" lon="12.5148533"><ele>385.0</ele><time>2026-04-26T10:40:50.535Z</time></trkpt><trkpt lat="43.8911383" lon="12.5150183"><ele>385.0</ele><time>2026-04-26T10:40:51.534Z</time></trkpt><trkpt lat="43.89122" lon="12.515305"><ele>385.0</ele><time>2026-04-26T10:40:52.537Z</time></trkpt><trkpt lat="43.8912767" lon="12.5155617"><ele>385.0</ele><time>2026-04-26T10:40:53.534Z</time></trkpt><trkpt lat="43.8913317" lon="12.515825"><ele>382.6666666666667</ele><time>2026-04-26T10:40:54.535Z</time></trkpt><trkpt lat="43.89139" lon="12.5160883"><ele>380.33333333333337</ele><time>2026-04-26T10:40:55.535Z</time></trkpt><trkpt lat="43.89145" lon="12.5163483"><ele>378.0</ele><time>2026-04-26T10:40:56.536Z</time></trkpt><trkpt lat="43.89151" lon="12.5166067"><ele>374.3333333333333</ele><time>2026-04-26T10:40:57.536Z</time></trkpt><trkpt lat="43.89157" lon="12.516855"><ele>370.66666666666663</ele><time>2026-04-26T10:40:58.536Z</time></trkpt><trkpt lat="43.8916183" lon="12.5170983"><ele>367.0</ele><time>2026-04-26T10:40:59.536Z</time></trkpt><trkpt lat="43.8916583" lon="12.517335"><ele>364.66666666666663</ele><time>2026-04-26T10:41:00.536Z</time></trkpt><trkpt lat="43.891685" lon="12.5175633"><ele>362.3333333333333</ele><time>2026-04-26T10:41:01.537Z</time></trkpt><trkpt lat="43.8917" lon="12.517785"><ele>360.0</ele><time>2026-04-26T10:41:02.534Z</time></trkpt><trkpt lat="43.8917017" lon="12.5180033"><ele>360.0</ele><time>2026-04-26T10:41:03.537Z</time></trkpt><trkpt lat="43.891695" lon="12.5182183"><ele>360.0</ele><time>2026-04-26T10:41:04.537Z</time></trkpt><trkpt lat="43.89168" lon="12.5184283"><ele>360.0</ele><time>2026-04-26T10:41:05.538Z</time></trkpt><trkpt lat="43.8916483" lon="12.5186383"><ele>359.3333333333333</ele><time>2026-04-26T10:41:06.536Z</time></trkpt><trkpt lat="43.891595" lon="12.5188417"><ele>358.66666666666663</ele><time>2026-04-26T10:41:07.537Z</time></trkpt><trkpt lat="43.891515" lon="12.5190433"><ele>358.0</ele><time>2026-04-26T10:41:08.534Z</time></trkpt><trkpt lat="43.8914167" lon="12.5192483"><ele>358.0</ele><time>2026-04-26T10:41:09.536Z</time></trkpt><trkpt lat="43.8913117" lon="12.51945"><ele>358.0</ele><time>2026-04-26T10:41:10.537Z</time></trkpt><trkpt lat="43.89121" lon="12.5196467"><ele>358.0</ele><time>2026-04-26T10:41:11.537Z</time></trkpt><trkpt lat="43.8911133" lon="12.51984"><ele>359.0</ele><time>2026-04-26T10:41:12.533Z</time></trkpt><trkpt lat="43.8910217" lon="12.5200233"><ele>360.0</ele><time>2026-04-26T10:41:13.536Z</time></trkpt><trkpt lat="43.8909333" lon="12.5201983"><ele>361.0</ele><time>2026-04-26T10:41:14.537Z</time></trkpt><trkpt lat="43.89085" lon="12.5203667"><ele>359.0</ele><time>2026-04-26T10:41:15.536Z</time></trkpt><trkpt lat="43.8907683" lon="12.5205317"><ele>357.0</ele><time>2026-04-26T10:41:16.533Z</time></trkpt><trkpt lat="43.890685" lon="12.5206983"><ele>355.0</ele><time>2026-04-26T10:41:17.534Z</time></trkpt><trkpt lat="43.890605" lon="12.52087"><ele>353.0</ele><time>2026-04-26T10:41:18.534Z</time></trkpt><trkpt lat="43.8905367" lon="12.52105"><ele>351.75</ele><time>2026-04-26T10:41:19.534Z</time></trkpt><trkpt lat="43.8904867" lon="12.5212417"><ele>350.5</ele><time>2026-04-26T10:41:20.534Z</time></trkpt><trkpt lat="43.8904583" lon="12.5214417"><ele>349.25</ele><time>2026-04-26T10:41:21.533Z</time></trkpt><trkpt lat="43.8904617" lon="12.5216333"><ele>348.0</ele><time>2026-04-26T10:41:22.533Z</time></trkpt><trkpt lat="43.890495" lon="12.5218017"><ele>348.0</ele><time>2026-04-26T10:41:23.537Z</time></trkpt><trkpt lat="43.89056" lon="12.521935"><ele>348.0</ele><time>2026-04-26T10:41:24.537Z</time></trkpt><trkpt lat="43.890655" lon="12.522025"><ele>348.0</ele><time>2026-04-26T10:41:25.536Z</time></trkpt><trkpt lat="43.89077" lon="12.5220767"><ele>348.0</ele><time>2026-04-26T10:41:26.537Z</time></trkpt><trkpt lat="43.8908867" lon="12.52212"><ele>347.0</ele><time>2026-04-26T10:41:27.536Z</time></trkpt><trkpt lat="43.8909833" lon="12.522185"><ele>346.0</ele><time>2026-04-26T10:41:28.536Z</time></trkpt><trkpt lat="43.8910517" lon="12.5222667"><ele>345.0</ele><time>2026-04-26T10:41:29.536Z</time></trkpt><trkpt lat="43.891085" lon="12.5223683"><ele>344.0</ele><time>2026-04-26T10:41:30.535Z</time></trkpt><trkpt lat="43.8910717" lon="12.5224567"><ele>343.0</ele><time>2026-04-26T10:41:31.536Z</time></trkpt><trkpt lat="43.8910083" lon="12.5225083"><ele>342.0</ele><time>2026-04-26T10:41:32.537Z</time></trkpt><trkpt lat="43.890875" lon="12.5225083"><ele>339.6666666666667</ele><time>2026-04-26T10:41:33.534Z</time></trkpt><trkpt lat="43.890745" lon="12.522485"><ele>337.33333333333337</ele><time>2026-04-26T10:41:34.534Z</time></trkpt><trkpt lat="43.8905667" lon="12.52242"><ele>335.0</ele><time>2026-04-26T10:41:35.537Z</time></trkpt><trkpt lat="43.8904017" lon="12.5223633"><ele>335.0</ele><time>2026-04-26T10:41:36.536Z</time></trkpt><trkpt lat="43.8902467" lon="12.52231"><ele>335.0</ele><time>2026-04-26T10:41:37.535Z</time></trkpt><trkpt lat="43.890095" lon="12.5222683"><ele>335.0</ele><time>2026-04-26T10:41:38.537Z</time></trkpt><trkpt lat="43.8899617" lon="12.5222183"><ele>333.5</ele><time>2026-04-26T10:41:39.532Z</time></trkpt><trkpt lat="43.889855" lon="12.5221333"><ele>332.0</ele><time>2026-04-26T10:41:40.539Z</time></trkpt><trkpt lat="43.8897767" lon="12.5219983"><ele>330.5</ele><time>2026-04-26T10:41:41.536Z</time></trkpt><trkpt lat="43.8897383" lon="12.5218267"><ele>329.0</ele><time>2026-04-26T10:41:42.537Z</time></trkpt><trkpt lat="43.88972" lon="12.5216383"><ele>329.0</ele><time>2026-04-26T10:41:43.536Z</time></trkpt><trkpt lat="43.8896967" lon="12.5214367"><ele>329.0</ele><time>2026-04-26T10:41:44.536Z</time></trkpt><trkpt lat="43.88965" lon="12.5212433"><ele>329.0</ele><time>2026-04-26T10:41:45.536Z</time></trkpt><trkpt lat="43.889575" lon="12.52107"><ele>329.0</ele><time>2026-04-26T10:41:46.533Z</time></trkpt><trkpt lat="43.8894783" lon="12.5209217"><ele>329.25</ele><time>2026-04-26T10:41:47.533Z</time></trkpt><trkpt lat="43.889365" lon="12.5208067"><ele>329.5</ele><time>2026-04-26T10:41:48.534Z</time></trkpt><trkpt lat="43.889235" lon="12.520735"><ele>329.75</ele><time>2026-04-26T10:41:49.533Z</time></trkpt><trkpt lat="43.8891017" lon="12.5207067"><ele>330.0</ele><time>2026-04-26T10:41:50.534Z</time></trkpt><trkpt lat="43.8889617" lon="12.5207267"><ele>325.0</ele><time>2026-04-26T10:41:51.535Z</time></trkpt><trkpt lat="43.8888167" lon="12.520775"><ele>320.0</ele><time>2026-04-26T10:41:52.534Z</time></trkpt><trkpt lat="43.88867" lon="12.5208283"><ele>315.0</ele><time>2026-04-26T10:41:53.537Z</time></trkpt><trkpt lat="43.8885233" lon="12.5208767"><ele>312.25</ele><time>2026-04-26T10:41:54.537Z</time></trkpt><trkpt lat="43.8883817" lon="12.520925"><ele>309.5</ele><time>2026-04-26T10:41:55.536Z</time></trkpt><trkpt lat="43.8882467" lon="12.5209717"><ele>306.75</ele><time>2026-04-26T10:41:56.535Z</time></trkpt><trkpt lat="43.888115" lon="12.5210083"><ele>304.0</ele><time>2026-04-26T10:41:57.533Z</time></trkpt><trkpt lat="43.8879867" lon="12.5210417"><ele>304.0</ele><time>2026-04-26T10:41:58.535Z</time></trkpt><trkpt lat="43.8878667" lon="12.52108"><ele>304.0</ele><time>2026-04-26T10:41:59.537Z</time></trkpt><trkpt lat="43.887755" lon="12.5211367"><ele>304.0</ele><time>2026-04-26T10:42:00.535Z</time></trkpt><trkpt lat="43.8876583" lon="12.5212217"><ele>304.0</ele><time>2026-04-26T10:42:01.536Z</time></trkpt><trkpt lat="43.887585" lon="12.52133"><ele>301.59999999999997</ele><time>2026-04-26T10:42:02.535Z</time></trkpt><trkpt lat="43.88753" lon="12.5214567"><ele>299.2</ele><time>2026-04-26T10:42:03.535Z</time></trkpt><trkpt lat="43.887485" lon="12.5215917"><ele>296.79999999999995</ele><time>2026-04-26T10:42:04.535Z</time></trkpt><trkpt lat="43.88745" lon="12.5217317"><ele>294.4</ele><time>2026-04-26T10:42:05.535Z</time></trkpt><trkpt lat="43.88742" lon="12.5218783"><ele>292.0</ele><time>2026-04-26T10:42:06.536Z</time></trkpt><trkpt lat="43.8873817" lon="12.5220333"><ele>289.5</ele><time>2026-04-26T10:42:07.539Z</time></trkpt><trkpt lat="43.8873233" lon="12.5221767"><ele>287.0</ele><time>2026-04-26T10:42:08.534Z</time></trkpt><trkpt lat="43.887245" lon="12.5222967"><ele>284.5</ele><time>2026-04-26T10:42:09.535Z</time></trkpt><trkpt lat="43.8871517" lon="12.522395"><ele>282.0</ele><time>2026-04-26T10:42:10.537Z</time></trkpt><trkpt lat="43.887045" lon="12.5224517"><ele>282.0</ele><time>2026-04-26T10:42:11.537Z</time></trkpt><trkpt lat="43.8869183" lon="12.5224633"><ele>282.0</ele><time>2026-04-26T10:42:12.536Z</time></trkpt><trkpt lat="43.8867867" lon="12.5224267"><ele>282.0</ele><time>2026-04-26T10:42:13.536Z</time></trkpt><trkpt lat="43.886655" lon="12.5223417"><ele>282.0</ele><time>2026-04-26T10:42:14.538Z</time></trkpt><trkpt lat="43.88652" lon="12.522235"><ele>282.0</ele><time>2026-04-26T10:42:15.537Z</time></trkpt><trkpt lat="43.8863833" lon="12.5221333"><ele>282.0</ele><time>2026-04-26T10:42:16.533Z</time></trkpt><trkpt lat="43.886255" lon="12.52204"><ele>282.0</ele><time>2026-04-26T10:42:17.537Z</time></trkpt><trkpt lat="43.8861433" lon="12.521945"><ele>282.0</ele><time>2026-04-26T10:42:18.534Z</time></trkpt><trkpt lat="43.886065" lon="12.5218283"><ele>282.75</ele><time>2026-04-26T10:42:19.537Z</time></trkpt><trkpt lat="43.8860283" lon="12.5216783"><ele>283.5</ele><time>2026-04-26T10:42:20.537Z</time></trkpt><trkpt lat="43.8860333" lon="12.5215067"><ele>284.25</ele><time>2026-04-26T10:42:21.535Z</time></trkpt><trkpt lat="43.8860717" lon="12.5213183"><ele>285.0</ele><time>2026-04-26T10:42:22.536Z</time></trkpt><trkpt lat="43.886125" lon="12.52113"><ele>283.5</ele><time>2026-04-26T10:42:23.536Z</time></trkpt><trkpt lat="43.8861783" lon="12.5209467"><ele>282.0</ele><time>2026-04-26T10:42:24.537Z</time></trkpt><trkpt lat="43.8862283" lon="12.5207717"><ele>280.5</ele><time>2026-04-26T10:42:25.536Z</time></trkpt><trkpt lat="43.8862733" lon="12.520605"><ele>279.0</ele><time>2026-04-26T10:42:26.537Z</time></trkpt><trkpt lat="43.8862983" lon="12.5204567"><ele>277.4</ele><time>2026-04-26T10:42:27.536Z</time></trkpt><trkpt lat="43.8862933" lon="12.5203167"><ele>275.79999999999995</ele><time>2026-04-26T10:42:28.536Z</time></trkpt><trkpt lat="43.8862467" lon="12.5202083"><ele>274.20000000000005</ele><time>2026-04-26T10:42:29.536Z</time></trkpt><trkpt lat="43.8861567" lon="12.520155"><ele>272.6</ele><time>2026-04-26T10:42:30.536Z</time></trkpt><trkpt lat="43.8860483" lon="12.520145"><ele>271.0</ele><time>2026-04-26T10:42:31.533Z</time></trkpt><trkpt lat="43.88591" lon="12.5202017"><ele>270.0</ele><time>2026-04-26T10:42:32.532Z</time></trkpt><trkpt lat="43.8857667" lon="12.5202833"><ele>269.0</ele><time>2026-04-26T10:42:33.534Z</time></trkpt><trkpt lat="43.885615" lon="12.5203683"><ele>268.0</ele><time>2026-04-26T10:42:34.534Z</time></trkpt><trkpt lat="43.8854567" lon="12.520445"><ele>268.0</ele><time>2026-04-26T10:42:35.532Z</time></trkpt><trkpt lat="43.8853" lon="12.520515"><ele>268.0</ele><time>2026-04-26T10:42:36.533Z</time></trkpt><trkpt lat="43.8851417" lon="12.5205867"><ele>268.0</ele><time>2026-04-26T10:42:37.533Z</time></trkpt><trkpt lat="43.8849983" lon="12.5206617"><ele>263.3333333333333</ele><time>2026-04-26T10:42:38.536Z</time></trkpt><trkpt lat="43.8848633" lon="12.5207583"><ele>258.6666666666667</ele><time>2026-04-26T10:42:39.534Z</time></trkpt><trkpt lat="43.8847417" lon="12.5208817"><ele>254.0</ele><time>2026-04-26T10:42:40.536Z</time></trkpt><trkpt lat="43.88463" lon="12.5210283"><ele>254.0</ele><time>2026-04-26T10:42:41.539Z</time></trkpt><trkpt lat="43.884515" lon="12.5211883"><ele>254.0</ele><time>2026-04-26T10:42:42.536Z</time></trkpt><trkpt lat="43.8843967" lon="12.5213433"><ele>254.0</ele><time>2026-04-26T10:42:43.537Z</time></trkpt><trkpt lat="43.8842817" lon="12.5214917"><ele>251.25</ele><time>2026-04-26T10:42:44.536Z</time></trkpt><trkpt lat="43.8841733" lon="12.52163"><ele>248.5</ele><time>2026-04-26T10:42:45.536Z</time></trkpt><trkpt lat="43.8840667" lon="12.5217617"><ele>245.75</ele><time>2026-04-26T10:42:46.537Z</time></trkpt><trkpt lat="43.8839683" lon="12.5218883"><ele>243.0</ele><time>2026-04-26T10:42:47.532Z</time></trkpt><trkpt lat="43.8838717" lon="12.5220117"><ele>241.5</ele><time>2026-04-26T10:42:48.536Z</time></trkpt><trkpt lat="43.8837817" lon="12.5221283"><ele>240.0</ele><time>2026-04-26T10:42:49.536Z</time></trkpt><trkpt lat="43.8836917" lon="12.522245"><ele>238.5</ele><time>2026-04-26T10:42:50.535Z</time></trkpt><trkpt lat="43.8836033" lon="12.5223617"><ele>237.0</ele><time>2026-04-26T10:42:51.534Z</time></trkpt><trkpt lat="43.8835167" lon="12.5224767"><ele>237.0</ele><time>2026-04-26T10:42:52.535Z</time></trkpt><trkpt lat="43.8834367" lon="12.5225917"><ele>237.0</ele><time>2026-04-26T10:42:53.536Z</time></trkpt><trkpt lat="43.883365" lon="12.52268"><ele>237.0</ele><time>2026-04-26T10:42:54.536Z</time></trkpt><trkpt lat="43.8833033" lon="12.522745"><ele>237.0</ele><time>2026-04-26T10:42:55.536Z</time></trkpt><trkpt lat="43.8832467" lon="12.522785"><ele>237.0</ele><time>2026-04-26T10:42:56.537Z</time></trkpt><trkpt lat="43.8831583" lon="12.5228133"><ele>237.0</ele><time>2026-04-26T10:42:58.536Z</time></trkpt><trkpt lat="43.8831083" lon="12.5228683"><ele>236.39999999999998</ele><time>2026-04-26T10:43:14.536Z</time></trkpt><trkpt lat="43.8831517" lon="12.5229583"><ele>235.79999999999998</ele><time>2026-04-26T10:43:16.536Z</time></trkpt><trkpt lat="43.883205" lon="12.523015"><ele>235.2</ele><time>2026-04-26T10:43:17.536Z</time></trkpt><trkpt lat="43.8832867" lon="12.5230817"><ele>234.6</ele><time>2026-04-26T10:43:18.536Z</time></trkpt><trkpt lat="43.8833867" lon="12.5231567"><ele>234.0</ele><time>2026-04-26T10:43:19.536Z</time></trkpt><trkpt lat="43.88349" lon="12.523235"><ele>234.0</ele><time>2026-04-26T10:43:20.536Z</time></trkpt><trkpt lat="43.8835867" lon="12.52331"><ele>233.99999999999997</ele><time>2026-04-26T10:43:21.534Z</time></trkpt><trkpt lat="43.8836817" lon="12.523385"><ele>233.99999999999997</ele><time>2026-04-26T10:43:22.535Z</time></trkpt><trkpt lat="43.88377" lon="12.5234633"><ele>234.0</ele><time>2026-04-26T10:43:23.536Z</time></trkpt><trkpt lat="43.88385" lon="12.5235483"><ele>234.0</ele><time>2026-04-26T10:43:24.536Z</time></trkpt><trkpt lat="43.88393" lon="12.5236517"><ele>232.75</ele><time>2026-04-26T10:43:25.537Z</time></trkpt><trkpt lat="43.884005" lon="12.5237767"><ele>231.5</ele><time>2026-04-26T10:43:26.536Z</time></trkpt><trkpt lat="43.8840733" lon="12.5239133"><ele>230.25</ele><time>2026-04-26T10:43:27.536Z</time></trkpt><trkpt lat="43.8841317" lon="12.5240633"><ele>229.0</ele><time>2026-04-26T10:43:28.536Z</time></trkpt><trkpt lat="43.8841833" lon="12.5242383"><ele>229.0</ele><time>2026-04-26T10:43:29.534Z</time></trkpt><trkpt lat="43.88423" lon="12.524425"><ele>229.0</ele><time>2026-04-26T10:43:30.534Z</time></trkpt><trkpt lat="43.884275" lon="12.5246217"><ele>229.0</ele><time>2026-04-26T10:43:31.535Z</time></trkpt><trkpt lat="43.8843233" lon="12.524825"><ele>229.0</ele><time>2026-04-26T10:43:32.535Z</time></trkpt><trkpt lat="43.884375" lon="12.525025"><ele>229.5</ele><time>2026-04-26T10:43:33.535Z</time></trkpt><trkpt lat="43.8844317" lon="12.52522"><ele>230.0</ele><time>2026-04-26T10:43:34.537Z</time></trkpt><trkpt lat="43.884495" lon="12.5254017"><ele>230.5</ele><time>2026-04-26T10:43:35.539Z</time></trkpt><trkpt lat="43.8845617" lon="12.525575"><ele>231.0</ele><time>2026-04-26T10:43:36.537Z</time></trkpt><trkpt lat="43.88463" lon="12.52574"><ele>228.5</ele><time>2026-04-26T10:43:37.534Z</time></trkpt><trkpt lat="43.884695" lon="12.5259"><ele>226.0</ele><time>2026-04-26T10:43:38.536Z</time></trkpt><trkpt lat="43.8847517" lon="12.5260567"><ele>223.5</ele><time>2026-04-26T10:43:39.534Z</time></trkpt><trkpt lat="43.8847883" lon="12.5262033"><ele>221.0</ele><time>2026-04-26T10:43:40.535Z</time></trkpt><trkpt lat="43.8847967" lon="12.5263433"><ele>219.20000000000002</ele><time>2026-04-26T10:43:41.537Z</time></trkpt><trkpt lat="43.8847933" lon="12.5264783"><ele>217.40000000000003</ele><time>2026-04-26T10:43:42.536Z</time></trkpt><trkpt lat="43.88478" lon="12.52661"><ele>215.6</ele><time>2026-04-26T10:43:43.538Z</time></trkpt><trkpt lat="43.884775" lon="12.5267367"><ele>213.8</ele><time>2026-04-26T10:43:44.537Z</time></trkpt><trkpt lat="43.8848033" lon="12.526855"><ele>212.0</ele><time>2026-04-26T10:43:45.536Z</time></trkpt><trkpt lat="43.8848633" lon="12.5269517"><ele>212.0</ele><time>2026-04-26T10:43:46.536Z</time></trkpt><trkpt lat="43.8849583" lon="12.527025"><ele>212.0</ele><time>2026-04-26T10:43:47.538Z</time></trkpt><trkpt lat="43.8850767" lon="12.5271117"><ele>212.0</ele><time>2026-04-26T10:43:48.541Z</time></trkpt><trkpt lat="43.88521" lon="12.5272283"><ele>212.0</ele><time>2026-04-26T10:43:49.536Z</time></trkpt><trkpt lat="43.8853533" lon="12.5273683"><ele>212.0</ele><time>2026-04-26T10:43:50.537Z</time></trkpt><trkpt lat="43.8855" lon="12.5275233"><ele>212.0</ele><time>2026-04-26T10:43:51.537Z</time></trkpt><trkpt lat="43.88565" lon="12.5276833"><ele>212.0</ele><time>2026-04-26T10:43:52.538Z</time></trkpt><trkpt lat="43.8858033" lon="12.5278667"><ele>213.66666666666669</ele><time>2026-04-26T10:43:53.536Z</time></trkpt><trkpt lat="43.8859567" lon="12.5280617"><ele>215.33333333333331</ele><time>2026-04-26T10:43:54.536Z</time></trkpt><trkpt lat="43.886105" lon="12.5282633"><ele>217.0</ele><time>2026-04-26T10:43:55.535Z</time></trkpt><trkpt lat="43.8862567" lon="12.5284667"><ele>217.0</ele><time>2026-04-26T10:43:56.534Z</time></trkpt><trkpt lat="43.886405" lon="12.52867"><ele>217.0</ele><time>2026-04-26T10:43:57.537Z</time></trkpt><trkpt lat="43.8865583" lon="12.5288733"><ele>217.0</ele><time>2026-04-26T10:43:58.537Z</time></trkpt><trkpt lat="43.886705" lon="12.5290717"><ele>217.66666666666666</ele><time>2026-04-26T10:43:59.536Z</time></trkpt><trkpt lat="43.8868467" lon="12.5292633"><ele>218.33333333333331</ele><time>2026-04-26T10:44:00.536Z</time></trkpt><trkpt lat="43.8869867" lon="12.5294533"><ele>219.0</ele><time>2026-04-26T10:44:01.534Z</time></trkpt><trkpt lat="43.8871233" lon="12.5296383"><ele>216.0</ele><time>2026-04-26T10:44:02.538Z</time></trkpt><trkpt lat="43.887255" lon="12.5298183"><ele>213.0</ele><time>2026-04-26T10:44:03.535Z</time></trkpt><trkpt lat="43.887395" lon="12.53"><ele>210.0</ele><time>2026-04-26T10:44:04.536Z</time></trkpt><trkpt lat="43.8875317" lon="12.5301817"><ele>209.66666666666669</ele><time>2026-04-26T10:44:05.534Z</time></trkpt><trkpt lat="43.8876633" lon="12.5303617"><ele>209.33333333333334</ele><time>2026-04-26T10:44:06.534Z</time></trkpt><trkpt lat="43.8877983" lon="12.53054"><ele>209.0</ele><time>2026-04-26T10:44:07.536Z</time></trkpt><trkpt lat="43.8879333" lon="12.5307233"><ele>209.0</ele><time>2026-04-26T10:44:08.535Z</time></trkpt><trkpt lat="43.8880667" lon="12.5309067"><ele>209.0</ele><time>2026-04-26T10:44:09.535Z</time></trkpt><trkpt lat="43.888205" lon="12.5310967"><ele>209.0</ele><time>2026-04-26T10:44:10.537Z</time></trkpt><trkpt lat="43.888345" lon="12.53129"><ele>210.33333333333334</ele><time>2026-04-26T10:44:11.537Z</time></trkpt><trkpt lat="43.8884917" lon="12.5314817"><ele>211.66666666666669</ele><time>2026-04-26T10:44:12.536Z</time></trkpt><trkpt lat="43.888645" lon="12.5316683"><ele>213.0</ele><time>2026-04-26T10:44:13.534Z</time></trkpt><trkpt lat="43.8888033" lon="12.53185"><ele>213.0</ele><time>2026-04-26T10:44:14.534Z</time></trkpt><trkpt lat="43.8889667" lon="12.5320233"><ele>213.0</ele><time>2026-04-26T10:44:15.533Z</time></trkpt><trkpt lat="43.88913" lon="12.5321833"><ele>213.0</ele><time>2026-04-26T10:44:16.534Z</time></trkpt><trkpt lat="43.8892933" lon="12.5323333"><ele>209.66666666666669</ele><time>2026-04-26T10:44:17.534Z</time></trkpt><trkpt lat="43.8894583" lon="12.5324717"><ele>206.33333333333334</ele><time>2026-04-26T10:44:18.534Z</time></trkpt><trkpt lat="43.88963" lon="12.5326033"><ele>203.0</ele><time>2026-04-26T10:44:19.537Z</time></trkpt><trkpt lat="43.8898017" lon="12.532725"><ele>203.0</ele><time>2026-04-26T10:44:20.536Z</time></trkpt><trkpt lat="43.8899717" lon="12.5328367"><ele>203.0</ele><time>2026-04-26T10:44:21.536Z</time></trkpt><trkpt lat="43.8901383" lon="12.5329433"><ele>203.0</ele><time>2026-04-26T10:44:22.536Z</time></trkpt><trkpt lat="43.8903017" lon="12.5330433"><ele>201.66666666666669</ele><time>2026-04-26T10:44:23.536Z</time></trkpt><trkpt lat="43.8904633" lon="12.5331367"><ele>200.33333333333331</ele><time>2026-04-26T10:44:24.537Z</time></trkpt><trkpt lat="43.8906333" lon="12.533225"><ele>199.0</ele><time>2026-04-26T10:44:25.536Z</time></trkpt><trkpt lat="43.89081" lon="12.5332967"><ele>198.33333333333331</ele><time>2026-04-26T10:44:26.537Z</time></trkpt><trkpt lat="43.8909933" lon="12.5333567"><ele>197.66666666666669</ele><time>2026-04-26T10:44:27.533Z</time></trkpt><trkpt lat="43.8911817" lon="12.5334067"><ele>197.0</ele><time>2026-04-26T10:44:28.537Z</time></trkpt><trkpt lat="43.8913733" lon="12.5334517"><ele>197.0</ele><time>2026-04-26T10:44:29.533Z</time></trkpt><trkpt lat="43.8915683" lon="12.5334933"><ele>197.0</ele><time>2026-04-26T10:44:30.535Z</time></trkpt><trkpt lat="43.89176" lon="12.533535"><ele>197.0</ele><time>2026-04-26T10:44:31.535Z</time></trkpt><trkpt lat="43.8919517" lon="12.5335717"><ele>196.66666666666669</ele><time>2026-04-26T10:44:32.533Z</time></trkpt><trkpt lat="43.8921433" lon="12.533605"><ele>196.33333333333331</ele><time>2026-04-26T10:44:33.534Z</time></trkpt><trkpt lat="43.8923367" lon="12.5336367"><ele>196.0</ele><time>2026-04-26T10:44:34.535Z</time></trkpt><trkpt lat="43.89253" lon="12.5336667"><ele>195.66666666666666</ele><time>2026-04-26T10:44:35.534Z</time></trkpt><trkpt lat="43.8927267" lon="12.5336917"><ele>195.33333333333331</ele><time>2026-04-26T10:44:36.534Z</time></trkpt><trkpt lat="43.8929267" lon="12.53371"><ele>195.0</ele><time>2026-04-26T10:44:37.535Z</time></trkpt><trkpt lat="43.8931267" lon="12.5337167"><ele>195.0</ele><time>2026-04-26T10:44:38.537Z</time></trkpt><trkpt lat="43.89332" lon="12.5337117"><ele>195.0</ele><time>2026-04-26T10:44:39.534Z</time></trkpt><trkpt lat="43.893505" lon="12.5336967"><ele>195.0</ele><time>2026-04-26T10:44:40.537Z</time></trkpt><trkpt lat="43.893685" lon="12.533675"><ele>196.33333333333331</ele><time>2026-04-26T10:44:41.537Z</time></trkpt><trkpt lat="43.893865" lon="12.5336517"><ele>197.66666666666666</ele><time>2026-04-26T10:44:42.538Z</time></trkpt><trkpt lat="43.8940417" lon="12.53363"><ele>199.0</ele><time>2026-04-26T10:44:43.538Z</time></trkpt><trkpt lat="43.8942117" lon="12.533605"><ele>199.33333333333331</ele><time>2026-04-26T10:44:44.536Z</time></trkpt><trkpt lat="43.8943783" lon="12.5335883"><ele>199.66666666666669</ele><time>2026-04-26T10:44:45.537Z</time></trkpt><trkpt lat="43.894545" lon="12.5335717"><ele>200.0</ele><time>2026-04-26T10:44:46.537Z</time></trkpt><trkpt lat="43.8947183" lon="12.5335567"><ele>200.0</ele><time>2026-04-26T10:44:47.536Z</time></trkpt><trkpt lat="43.894895" lon="12.5335383"><ele>200.0</ele><time>2026-04-26T10:44:48.537Z</time></trkpt><trkpt lat="43.895075" lon="12.53352"><ele>200.0</ele><time>2026-04-26T10:44:49.538Z</time></trkpt><trkpt lat="43.8952583" lon="12.5335"><ele>199.66666666666669</ele><time>2026-04-26T10:44:50.534Z</time></trkpt><trkpt lat="43.89544" lon="12.5334783"><ele>199.33333333333331</ele><time>2026-04-26T10:44:51.536Z</time></trkpt><trkpt lat="43.8956167" lon="12.5334583"><ele>199.0</ele><time>2026-04-26T10:44:52.537Z</time></trkpt><trkpt lat="43.8957917" lon="12.533445"><ele>199.0</ele><time>2026-04-26T10:44:53.537Z</time></trkpt><trkpt lat="43.8959667" lon="12.5334333"><ele>199.0</ele><time>2026-04-26T10:44:54.537Z</time></trkpt><trkpt lat="43.8961417" lon="12.533425"><ele>199.0</ele><time>2026-04-26T10:44:55.537Z</time></trkpt><trkpt lat="43.8963133" lon="12.5334233"><ele>199.0</ele><time>2026-04-26T10:44:56.534Z</time></trkpt><trkpt lat="43.896485" lon="12.5334267"><ele>199.0</ele><time>2026-04-26T10:44:57.535Z</time></trkpt><trkpt lat="43.8966583" lon="12.5334417"><ele>199.0</ele><time>2026-04-26T10:44:58.536Z</time></trkpt><trkpt lat="43.896825" lon="12.5334767"><ele>200.0</ele><time>2026-04-26T10:44:59.535Z</time></trkpt><trkpt lat="43.8969917" lon="12.5335217"><ele>201.0</ele><time>2026-04-26T10:45:00.537Z</time></trkpt><trkpt lat="43.8971567" lon="12.533565"><ele>202.0</ele><time>2026-04-26T10:45:01.535Z</time></trkpt><trkpt lat="43.8973217" lon="12.533605"><ele>202.0</ele><time>2026-04-26T10:45:02.535Z</time></trkpt><trkpt lat="43.8974867" lon="12.5336383"><ele>202.0</ele><time>2026-04-26T10:45:03.536Z</time></trkpt><trkpt lat="43.8976533" lon="12.5336683"><ele>202.0</ele><time>2026-04-26T10:45:04.535Z</time></trkpt><trkpt lat="43.8978217" lon="12.5336933"><ele>203.33333333333331</ele><time>2026-04-26T10:45:05.535Z</time></trkpt><trkpt lat="43.89799" lon="12.5337183"><ele>204.66666666666669</ele><time>2026-04-26T10:45:06.535Z</time></trkpt><trkpt lat="43.89816" lon="12.5337433"><ele>206.0</ele><time>2026-04-26T10:45:07.537Z</time></trkpt><trkpt lat="43.898335" lon="12.5337717"><ele>200.33333333333334</ele><time>2026-04-26T10:45:08.535Z</time></trkpt><trkpt lat="43.89851" lon="12.5338"><ele>194.66666666666669</ele><time>2026-04-26T10:45:09.535Z</time></trkpt><trkpt lat="43.8986867" lon="12.5338317"><ele>189.0</ele><time>2026-04-26T10:45:10.536Z</time></trkpt><trkpt lat="43.8988633" lon="12.5338617"><ele>189.0</ele><time>2026-04-26T10:45:11.535Z</time></trkpt><trkpt lat="43.8990433" lon="12.5338917"><ele>189.0</ele><time>2026-04-26T10:45:12.537Z</time></trkpt><trkpt lat="43.8992233" lon="12.53392"><ele>189.0</ele><time>2026-04-26T10:45:13.539Z</time></trkpt><trkpt lat="43.8994033" lon="12.53395"><ele>189.66666666666666</ele><time>2026-04-26T10:45:14.539Z</time></trkpt><trkpt lat="43.89958" lon="12.5339783"><ele>190.33333333333331</ele><time>2026-04-26T10:45:15.534Z</time></trkpt><trkpt lat="43.89975" lon="12.534005"><ele>191.0</ele><time>2026-04-26T10:45:16.535Z</time></trkpt><trkpt lat="43.8999183" lon="12.5340317"><ele>194.33333333333331</ele><time>2026-04-26T10:45:17.535Z</time></trkpt><trkpt lat="43.90009" lon="12.5340633"><ele>197.66666666666666</ele><time>2026-04-26T10:45:18.535Z</time></trkpt><trkpt lat="43.90026" lon="12.5341"><ele>201.0</ele><time>2026-04-26T10:45:19.536Z</time></trkpt><trkpt lat="43.90043" lon="12.5341467"><ele>201.0</ele><time>2026-04-26T10:45:20.536Z</time></trkpt><trkpt lat="43.9006017" lon="12.53421"><ele>201.0</ele><time>2026-04-26T10:45:21.537Z</time></trkpt><trkpt lat="43.9007717" lon="12.534295"><ele>201.0</ele><time>2026-04-26T10:45:22.537Z</time></trkpt><trkpt lat="43.9009467" lon="12.5344017"><ele>201.33333333333331</ele><time>2026-04-26T10:45:23.537Z</time></trkpt><trkpt lat="43.9011133" lon="12.534525"><ele>201.66666666666666</ele><time>2026-04-26T10:45:24.537Z</time></trkpt><trkpt lat="43.90127" lon="12.53465"><ele>202.0</ele><time>2026-04-26T10:45:25.54Z</time></trkpt><trkpt lat="43.9014067" lon="12.534775"><ele>202.0</ele><time>2026-04-26T10:45:26.537Z</time></trkpt><trkpt lat="43.9015167" lon="12.534895"><ele>202.0</ele><time>2026-04-26T10:45:27.542Z</time></trkpt><trkpt lat="43.9016017" lon="12.5350017"><ele>202.0</ele><time>2026-04-26T10:45:28.537Z</time></trkpt><trkpt lat="43.9016717" lon="12.53509"><ele>202.0</ele><time>2026-04-26T10:45:29.537Z</time></trkpt><trkpt lat="43.9017367" lon="12.5351617"><ele>202.0</ele><time>2026-04-26T10:45:30.538Z</time></trkpt><trkpt lat="43.9018017" lon="12.5352067"><ele>202.0</ele><time>2026-04-26T10:45:31.534Z</time></trkpt><trkpt lat="43.9019017" lon="12.5351717"><ele>202.0</ele><time>2026-04-26T10:45:33.537Z</time></trkpt><trkpt lat="43.9019417" lon="12.5350883"><ele>202.0</ele><time>2026-04-26T10:45:34.538Z</time></trkpt><trkpt lat="43.901995" lon="12.5349917"><ele>202.0</ele><time>2026-04-26T10:45:35.538Z</time></trkpt><trkpt lat="43.9020383" lon="12.5348617"><ele>202.0</ele><time>2026-04-26T10:45:36.538Z</time></trkpt><trkpt lat="43.9020767" lon="12.534745"><ele>201.99999999999997</ele><time>2026-04-26T10:45:37.537Z</time></trkpt><trkpt lat="43.9021083" lon="12.5346367"><ele>202.0</ele><time>2026-04-26T10:45:38.537Z</time></trkpt><trkpt lat="43.9021383" lon="12.5345317"><ele>202.0</ele><time>2026-04-26T10:45:39.536Z</time></trkpt><trkpt lat="43.902165" lon="12.5344383"><ele>202.0</ele><time>2026-04-26T10:45:40.537Z</time></trkpt><trkpt lat="43.9021917" lon="12.5343567"><ele>201.99999999999997</ele><time>2026-04-26T10:45:41.537Z</time></trkpt><trkpt lat="43.9022283" lon="12.5342383"><ele>202.0</ele><time>2026-04-26T10:45:43.536Z</time></trkpt><trkpt lat="43.90221" lon="12.5341483"><ele>202.49999999999997</ele><time>2026-04-26T10:51:12.536Z</time></trkpt><trkpt lat="43.9022333" lon="12.5340667"><ele>203.0</ele><time>2026-04-26T10:51:18.535Z</time></trkpt><trkpt lat="43.9022417" lon="12.5341767"><ele>203.5</ele><time>2026-04-26T10:52:06.538Z</time></trkpt><trkpt lat="43.9021783" lon="12.5341683"><ele>204.0</ele><time>2026-04-26T10:54:05.537Z</time></trkpt><trkpt lat="43.9022483" lon="12.534045"><ele>204.49999999999997</ele><time>2026-04-26T11:00:38.537Z</time></trkpt><trkpt lat="43.90231" lon="12.5339167"><ele>205.0</ele><time>2026-04-26T11:00:40.536Z</time></trkpt><trkpt lat="43.90236" lon="12.5338"><ele>206.0</ele><time>2026-04-26T11:00:42.536Z</time></trkpt><trkpt lat="43.9023917" lon="12.53369"><ele>207.0</ele><time>2026-04-26T11:00:44.536Z</time></trkpt><trkpt lat="43.90237" lon="12.5336033"><ele>208.0</ele><time>2026-04-26T11:00:46.534Z</time></trkpt><trkpt lat="43.9022817" lon="12.5335467"><ele>209.0</ele><time>2026-04-26T11:00:47.534Z</time></trkpt><trkpt lat="43.90214" lon="12.533475"><ele>210.0</ele><time>2026-04-26T11:00:48.535Z</time></trkpt><trkpt lat="43.901985" lon="12.53339"><ele>210.0</ele><time>2026-04-26T11:00:49.534Z</time></trkpt><trkpt lat="43.9018383" lon="12.5333033"><ele>210.0</ele><time>2026-04-26T11:00:50.534Z</time></trkpt><trkpt lat="43.9017067" lon="12.5332267"><ele>210.0</ele><time>2026-04-26T11:00:51.536Z</time></trkpt><trkpt lat="43.9015867" lon="12.5331583"><ele>210.0</ele><time>2026-04-26T11:00:52.533Z</time></trkpt><trkpt lat="43.9014817" lon="12.5330967"><ele>209.5</ele><time>2026-04-26T11:00:53.54Z</time></trkpt><trkpt lat="43.9013933" lon="12.5330467"><ele>209.0</ele><time>2026-04-26T11:00:54.536Z</time></trkpt><trkpt lat="43.901315" lon="12.53302"><ele>208.5</ele><time>2026-04-26T11:00:55.538Z</time></trkpt><trkpt lat="43.9012517" lon="12.533025"><ele>208.0</ele><time>2026-04-26T11:00:56.536Z</time></trkpt><trkpt lat="43.901195" lon="12.5330767"><ele>207.5</ele><time>2026-04-26T11:00:57.534Z</time></trkpt><trkpt lat="43.9011367" lon="12.533145"><ele>207.0</ele><time>2026-04-26T11:00:58.533Z</time></trkpt><trkpt lat="43.9010733" lon="12.533275"><ele>207.0</ele><time>2026-04-26T11:00:59.537Z</time></trkpt><trkpt lat="43.9009983" lon="12.5334233"><ele>207.0</ele><time>2026-04-26T11:01:00.536Z</time></trkpt><trkpt lat="43.9009183" lon="12.5335533"><ele>207.0</ele><time>2026-04-26T11:01:01.534Z</time></trkpt><trkpt lat="43.90083" lon="12.5336633"><ele>207.0</ele><time>2026-04-26T11:01:02.536Z</time></trkpt><trkpt lat="43.9007367" lon="12.53377"><ele>206.0</ele><time>2026-04-26T11:01:03.535Z</time></trkpt><trkpt lat="43.9006533" lon="12.5338667"><ele>205.0</ele><time>2026-04-26T11:01:04.533Z</time></trkpt><trkpt lat="43.900575" lon="12.5339483"><ele>204.0</ele><time>2026-04-26T11:01:05.535Z</time></trkpt><trkpt lat="43.900515" lon="12.5340183"><ele>203.0</ele><time>2026-04-26T11:01:06.534Z</time></trkpt><trkpt lat="43.9004567" lon="12.5340717"><ele>202.0</ele><time>2026-04-26T11:01:07.533Z</time></trkpt><trkpt lat="43.9003967" lon="12.5341167"><ele>201.0</ele><time>2026-04-26T11:01:08.533Z</time></trkpt><trkpt lat="43.90034" lon="12.5341633"><ele>201.0</ele><time>2026-04-26T11:01:09.534Z</time></trkpt><trkpt lat="43.9002867" lon="12.53421"><ele>201.0</ele><time>2026-04-26T11:01:10.536Z</time></trkpt><trkpt lat="43.9002233" lon="12.5342867"><ele>201.0</ele><time>2026-04-26T11:01:12.536Z</time></trkpt><trkpt lat="43.9002217" lon="12.534405"><ele>201.0</ele><time>2026-04-26T11:01:15.535Z</time></trkpt><trkpt lat="43.9002183" lon="12.53451"><ele>201.0</ele><time>2026-04-26T11:01:19.534Z</time></trkpt><trkpt lat="43.9001617" lon="12.5345617"><ele>201.0</ele><time>2026-04-26T11:01:21.535Z</time></trkpt><trkpt lat="43.9000967" lon="12.5346233"><ele>198.4</ele><time>2026-04-26T11:01:23.538Z</time></trkpt><trkpt lat="43.9000167" lon="12.53473"><ele>195.8</ele><time>2026-04-26T11:01:25.534Z</time></trkpt><trkpt lat="43.89996" lon="12.5347883"><ele>193.20000000000002</ele><time>2026-04-26T11:01:26.534Z</time></trkpt><trkpt lat="43.899875" lon="12.5348583"><ele>190.60000000000002</ele><time>2026-04-26T11:01:27.536Z</time></trkpt><trkpt lat="43.8997867" lon="12.53492"><ele>188.0</ele><time>2026-04-26T11:01:28.534Z</time></trkpt><trkpt lat="43.899695" lon="12.534975"><ele>188.0</ele><time>2026-04-26T11:01:29.533Z</time></trkpt><trkpt lat="43.89961" lon="12.535025"><ele>188.0</ele><time>2026-04-26T11:01:30.534Z</time></trkpt><trkpt lat="43.89953" lon="12.53507"><ele>188.0</ele><time>2026-04-26T11:01:31.535Z</time></trkpt><trkpt lat="43.899465" lon="12.535105"><ele>188.0</ele><time>2026-04-26T11:01:32.536Z</time></trkpt><trkpt lat="43.8993683" lon="12.5351533"><ele>188.0</ele><time>2026-04-26T11:01:34.533Z</time></trkpt><trkpt lat="43.8992767" lon="12.5351833"><ele>188.0</ele><time>2026-04-26T11:01:36.534Z</time></trkpt><trkpt lat="43.8991717" lon="12.535235"><ele>187.5</ele><time>2026-04-26T11:01:38.533Z</time></trkpt><trkpt lat="43.89907" lon="12.535315"><ele>187.0</ele><time>2026-04-26T11:01:40.534Z</time></trkpt><trkpt lat="43.899015" lon="12.535395"><ele>186.5</ele><time>2026-04-26T11:01:42.535Z</time></trkpt><trkpt lat="43.8990217" lon="12.53552"><ele>186.0</ele><time>2026-04-26T11:01:44.535Z</time></trkpt><trkpt lat="43.8990433" lon="12.5356033"><ele>185.5</ele><time>2026-04-26T11:01:45.536Z</time></trkpt><trkpt lat="43.8990617" lon="12.5357283"><ele>185.0</ele><time>2026-04-26T11:01:47.533Z</time></trkpt><trkpt lat="43.89909" lon="12.535845"><ele>184.66666666666666</ele><time>2026-04-26T11:01:50.535Z</time></trkpt><trkpt lat="43.8990817" lon="12.5359333"><ele>184.33333333333331</ele><time>2026-04-26T11:01:52.533Z</time></trkpt><trkpt lat="43.899095" lon="12.536055"><ele>184.0</ele><time>2026-04-26T11:01:54.538Z</time></trkpt><trkpt lat="43.8991083" lon="12.5361917"><ele>183.66666666666666</ele><time>2026-04-26T11:01:56.534Z</time></trkpt><trkpt lat="43.8991083" lon="12.536305"><ele>183.33333333333334</ele><time>2026-04-26T11:01:58.534Z</time></trkpt><trkpt lat="43.89909" lon="12.5364033"><ele>183.0</ele><time>2026-04-26T11:02:00.535Z</time></trkpt><trkpt lat="43.899065" lon="12.5364917"><ele>182.83333333333334</ele><time>2026-04-26T11:02:03.534Z</time></trkpt><trkpt lat="43.899" lon="12.536545"><ele>182.66666666666666</ele><time>2026-04-26T11:02:08.534Z</time></trkpt><trkpt lat="43.898925" lon="12.53656"><ele>182.5</ele><time>2026-04-26T11:02:12.534Z</time></trkpt><trkpt lat="43.89883" lon="12.5365783"><ele>182.33333333333331</ele><time>2026-04-26T11:02:15.533Z</time></trkpt><trkpt lat="43.8987617" lon="12.5365983"><ele>182.16666666666666</ele><time>2026-04-26T11:02:17.535Z</time></trkpt><trkpt lat="43.8986633" lon="12.5366283"><ele>182.0</ele><time>2026-04-26T11:02:19.536Z</time></trkpt><trkpt lat="43.898545" lon="12.5366633"><ele>182.0</ele><time>2026-04-26T11:02:21.535Z</time></trkpt><trkpt lat="43.8984367" lon="12.5367383"><ele>182.0</ele><time>2026-04-26T11:02:23.535Z</time></trkpt><trkpt lat="43.8983883" lon="12.5367967"><ele>182.0</ele><time>2026-04-26T11:02:24.537Z</time></trkpt><trkpt lat="43.8983117" lon="12.5369067"><ele>182.0</ele><time>2026-04-26T11:02:26.535Z</time></trkpt><trkpt lat="43.8982617" lon="12.5369967"><ele>182.0</ele><time>2026-04-26T11:02:28.533Z</time></trkpt><trkpt lat="43.8982733" lon="12.53711"><ele>182.0</ele><time>2026-04-26T11:02:31.535Z</time></trkpt><trkpt lat="43.8983183" lon="12.5371817"><ele>182.0</ele><time>2026-04-26T11:02:33.535Z</time></trkpt><trkpt lat="43.8983633" lon="12.5372567"><ele>182.0</ele><time>2026-04-26T11:03:24.533Z</time></trkpt><trkpt lat="43.89844" lon="12.53733"><ele>182.0</ele><time>2026-04-26T11:03:27.534Z</time></trkpt><trkpt lat="43.8985183" lon="12.5373383"><ele>182.0</ele><time>2026-04-26T11:03:29.532Z</time></trkpt><trkpt lat="43.8985833" lon="12.53735"><ele>182.0</ele><time>2026-04-26T11:03:31.533Z</time></trkpt><trkpt lat="43.8985783" lon="12.5374433"><ele>182.0</ele><time>2026-04-26T11:03:34.534Z</time></trkpt><trkpt lat="43.8985683" lon="12.5375383"><ele>182.0</ele><time>2026-04-26T11:03:37.535Z</time></trkpt><trkpt lat="43.8986" lon="12.5376283"><ele>182.0</ele><time>2026-04-26T11:03:40.537Z</time></trkpt><trkpt lat="43.8986267" lon="12.5377433"><ele>182.0</ele><time>2026-04-26T11:03:43.536Z</time></trkpt><trkpt lat="43.898685" lon="12.5378517"><ele>182.0</ele><time>2026-04-26T11:04:55.533Z</time></trkpt><trkpt lat="43.8987967" lon="12.537995"><ele>182.0</ele><time>2026-04-26T11:05:14.536Z</time></trkpt><trkpt lat="43.8987683" lon="12.5381033"><ele>182.0</ele><time>2026-04-26T11:05:19.534Z</time></trkpt><trkpt lat="43.8987067" lon="12.53818"><ele>182.0</ele><time>2026-04-26T11:05:21.535Z</time></trkpt><trkpt lat="43.898615" lon="12.5382933"><ele>182.0</ele><time>2026-04-26T11:05:23.536Z</time></trkpt><trkpt lat="43.898565" lon="12.5383567"><ele>182.0</ele><time>2026-04-26T11:05:24.536Z</time></trkpt><trkpt lat="43.898505" lon="12.5384317"><ele>182.0</ele><time>2026-04-26T11:05:25.536Z</time></trkpt><trkpt lat="43.8984467" lon="12.538505"><ele>182.0</ele><time>2026-04-26T11:05:26.536Z</time></trkpt><trkpt lat="43.8983883" lon="12.53858"><ele>182.0</ele><time>2026-04-26T11:05:27.536Z</time></trkpt><trkpt lat="43.898325" lon="12.5386617"><ele>182.0</ele><time>2026-04-26T11:05:28.537Z</time></trkpt><trkpt lat="43.8982617" lon="12.5387467"><ele>182.0</ele><time>2026-04-26T11:05:29.536Z</time></trkpt><trkpt lat="43.8981967" lon="12.538835"><ele>182.0</ele><time>2026-04-26T11:05:30.536Z</time></trkpt><trkpt lat="43.8981333" lon="12.53892"><ele>182.0</ele><time>2026-04-26T11:05:31.536Z</time></trkpt><trkpt lat="43.8980717" lon="12.539005"><ele>182.0</ele><time>2026-04-26T11:05:32.538Z</time></trkpt><trkpt lat="43.89801" lon="12.5390933"><ele>182.0</ele><time>2026-04-26T11:05:33.537Z</time></trkpt><trkpt lat="43.8979483" lon="12.5391817"><ele>182.0</ele><time>2026-04-26T11:05:34.533Z</time></trkpt><trkpt lat="43.8978883" lon="12.5392683"><ele>182.0</ele><time>2026-04-26T11:05:35.537Z</time></trkpt><trkpt lat="43.8978233" lon="12.539355"><ele>182.0</ele><time>2026-04-26T11:05:36.536Z</time></trkpt><trkpt lat="43.8977633" lon="12.539445"><ele>182.0</ele><time>2026-04-26T11:05:37.536Z</time></trkpt><trkpt lat="43.8977067" lon="12.539525"><ele>182.0</ele><time>2026-04-26T11:05:38.536Z</time></trkpt><trkpt lat="43.8976533" lon="12.53959"><ele>182.2</ele><time>2026-04-26T11:05:39.536Z</time></trkpt><trkpt lat="43.8975717" lon="12.539685"><ele>182.39999999999998</ele><time>2026-04-26T11:05:41.537Z</time></trkpt><trkpt lat="43.89758" lon="12.5397817"><ele>182.60000000000002</ele><time>2026-04-26T11:05:44.536Z</time></trkpt><trkpt lat="43.8976717" lon="12.539865"><ele>182.8</ele><time>2026-04-26T11:05:46.534Z</time></trkpt><trkpt lat="43.8977317" lon="12.53993"><ele>183.0</ele><time>2026-04-26T11:05:47.534Z</time></trkpt><trkpt lat="43.8978133" lon="12.540005"><ele>183.0</ele><time>2026-04-26T11:05:48.533Z</time></trkpt><trkpt lat="43.89795" lon="12.54009"><ele>183.0</ele><time>2026-04-26T11:05:49.535Z</time></trkpt><trkpt lat="43.8981233" lon="12.5402017"><ele>183.0</ele><time>2026-04-26T11:05:50.533Z</time></trkpt><trkpt lat="43.8983083" lon="12.5403383"><ele>182.33333333333334</ele><time>2026-04-26T11:05:51.535Z</time></trkpt><trkpt lat="43.8984617" lon="12.540465"><ele>181.66666666666669</ele><time>2026-04-26T11:05:52.533Z</time></trkpt><trkpt lat="43.8986183" lon="12.540595"><ele>181.0</ele><time>2026-04-26T11:05:53.533Z</time></trkpt><trkpt lat="43.898765" lon="12.5407117"><ele>181.0</ele><time>2026-04-26T11:05:54.536Z</time></trkpt><trkpt lat="43.89891" lon="12.54083"><ele>181.0</ele><time>2026-04-26T11:05:55.538Z</time></trkpt><trkpt lat="43.8990467" lon="12.5409567"><ele>181.0</ele><time>2026-04-26T11:05:56.536Z</time></trkpt><trkpt lat="43.8991833" lon="12.5410817"><ele>180.75</ele><time>2026-04-26T11:05:57.535Z</time></trkpt><trkpt lat="43.89932" lon="12.5411917"><ele>180.5</ele><time>2026-04-26T11:05:58.534Z</time></trkpt><trkpt lat="43.8994517" lon="12.54128"><ele>180.25</ele><time>2026-04-26T11:05:59.537Z</time></trkpt><trkpt lat="43.8995783" lon="12.5413633"><ele>180.0</ele><time>2026-04-26T11:06:00.536Z</time></trkpt><trkpt lat="43.89969" lon="12.54146"><ele>180.5</ele><time>2026-04-26T11:06:01.537Z</time></trkpt><trkpt lat="43.8997967" lon="12.5415767"><ele>181.0</ele><time>2026-04-26T11:06:02.537Z</time></trkpt><trkpt lat="43.8999017" lon="12.5416983"><ele>181.5</ele><time>2026-04-26T11:06:03.538Z</time></trkpt><trkpt lat="43.90002" lon="12.5418133"><ele>182.0</ele><time>2026-04-26T11:06:04.533Z</time></trkpt><trkpt lat="43.9001433" lon="12.5419317"><ele>181.33333333333331</ele><time>2026-04-26T11:06:05.538Z</time></trkpt><trkpt lat="43.9002717" lon="12.5420567"><ele>180.66666666666666</ele><time>2026-04-26T11:06:06.534Z</time></trkpt><trkpt lat="43.9004033" lon="12.5421817"><ele>180.0</ele><time>2026-04-26T11:06:07.536Z</time></trkpt><trkpt lat="43.9005317" lon="12.54231"><ele>180.0</ele><time>2026-04-26T11:06:08.534Z</time></trkpt><trkpt lat="43.90066" lon="12.5424283"><ele>180.0</ele><time>2026-04-26T11:06:09.535Z</time></trkpt><trkpt lat="43.9007817" lon="12.54254"><ele>180.0</ele><time>2026-04-26T11:06:10.534Z</time></trkpt><trkpt lat="43.9008883" lon="12.5426533"><ele>180.0</ele><time>2026-04-26T11:06:11.533Z</time></trkpt><trkpt lat="43.90098" lon="12.5427783"><ele>178.5</ele><time>2026-04-26T11:06:12.533Z</time></trkpt><trkpt lat="43.9010733" lon="12.5429233"><ele>177.0</ele><time>2026-04-26T11:06:13.537Z</time></trkpt><trkpt lat="43.901165" lon="12.543075"><ele>175.5</ele><time>2026-04-26T11:06:14.536Z</time></trkpt><trkpt lat="43.9012633" lon="12.5432117"><ele>174.0</ele><time>2026-04-26T11:06:15.535Z</time></trkpt><trkpt lat="43.90137" lon="12.543335"><ele>174.0</ele><time>2026-04-26T11:06:16.536Z</time></trkpt><trkpt lat="43.9014883" lon="12.543435"><ele>174.0</ele><time>2026-04-26T11:06:17.536Z</time></trkpt><trkpt lat="43.9016233" lon="12.5435217"><ele>174.0</ele><time>2026-04-26T11:06:18.536Z</time></trkpt><trkpt lat="43.901755" lon="12.5436017"><ele>174.0</ele><time>2026-04-26T11:06:19.536Z</time></trkpt><trkpt lat="43.9018717" lon="12.543695"><ele>173.5</ele><time>2026-04-26T11:06:20.537Z</time></trkpt><trkpt lat="43.90197" lon="12.5438183"><ele>173.0</ele><time>2026-04-26T11:06:21.536Z</time></trkpt><trkpt lat="43.9020583" lon="12.54397"><ele>172.5</ele><time>2026-04-26T11:06:22.536Z</time></trkpt><trkpt lat="43.9021417" lon="12.54414"><ele>172.0</ele><time>2026-04-26T11:06:23.537Z</time></trkpt><trkpt lat="43.9022233" lon="12.54432"><ele>172.0</ele><time>2026-04-26T11:06:24.536Z</time></trkpt><trkpt lat="43.902305" lon="12.5445"><ele>172.0</ele><time>2026-04-26T11:06:25.535Z</time></trkpt><trkpt lat="43.9023783" lon="12.5446717"><ele>172.0</ele><time>2026-04-26T11:06:26.536Z</time></trkpt><trkpt lat="43.9024317" lon="12.5448533"><ele>172.0</ele><time>2026-04-26T11:06:27.539Z</time></trkpt><trkpt lat="43.9024583" lon="12.5450517"><ele>172.66666666666669</ele><time>2026-04-26T11:06:28.534Z</time></trkpt><trkpt lat="43.9024767" lon="12.5452617"><ele>173.33333333333334</ele><time>2026-04-26T11:06:29.534Z</time></trkpt><trkpt lat="43.9024883" lon="12.545485"><ele>174.0</ele><time>2026-04-26T11:06:30.533Z</time></trkpt><trkpt lat="43.9025017" lon="12.5457117"><ele>175.33333333333334</ele><time>2026-04-26T11:06:31.536Z</time></trkpt><trkpt lat="43.9025233" lon="12.5459283"><ele>176.66666666666669</ele><time>2026-04-26T11:06:32.533Z</time></trkpt><trkpt lat="43.90257" lon="12.5461383"><ele>178.0</ele><time>2026-04-26T11:06:33.536Z</time></trkpt><trkpt lat="43.9026317" lon="12.546345"><ele>178.0</ele><time>2026-04-26T11:06:34.536Z</time></trkpt><trkpt lat="43.9027017" lon="12.5465417"><ele>178.0</ele><time>2026-04-26T11:06:35.533Z</time></trkpt><trkpt lat="43.9027617" lon="12.5467167"><ele>178.0</ele><time>2026-04-26T11:06:36.536Z</time></trkpt><trkpt lat="43.902815" lon="12.5468683"><ele>178.0</ele><time>2026-04-26T11:06:37.536Z</time></trkpt><trkpt lat="43.9028717" lon="12.5469983"><ele>179.2</ele><time>2026-04-26T11:06:38.54Z</time></trkpt><trkpt lat="43.90293" lon="12.5471033"><ele>180.4</ele><time>2026-04-26T11:06:39.537Z</time></trkpt><trkpt lat="43.9030133" lon="12.54719"><ele>181.6</ele><time>2026-04-26T11:06:40.535Z</time></trkpt><trkpt lat="43.903105" lon="12.547285"><ele>182.79999999999998</ele><time>2026-04-26T11:06:41.536Z</time></trkpt><trkpt lat="43.9031983" lon="12.5474033"><ele>184.0</ele><time>2026-04-26T11:06:42.537Z</time></trkpt><trkpt lat="43.9032783" lon="12.547535"><ele>184.0</ele><time>2026-04-26T11:06:43.538Z</time></trkpt><trkpt lat="43.9033483" lon="12.5476733"><ele>184.0</ele><time>2026-04-26T11:06:44.538Z</time></trkpt><trkpt lat="43.9034267" lon="12.54781"><ele>184.0</ele><time>2026-04-26T11:06:45.537Z</time></trkpt><trkpt lat="43.90351" lon="12.5479267"><ele>184.0</ele><time>2026-04-26T11:06:46.536Z</time></trkpt><trkpt lat="43.903605" lon="12.5480183"><ele>182.2</ele><time>2026-04-26T11:06:47.538Z</time></trkpt><trkpt lat="43.9037067" lon="12.5480933"><ele>180.39999999999998</ele><time>2026-04-26T11:06:48.537Z</time></trkpt><trkpt lat="43.9038083" lon="12.5481567"><ele>178.6</ele><time>2026-04-26T11:06:49.536Z</time></trkpt><trkpt lat="43.903905" lon="12.54821"><ele>176.8</ele><time>2026-04-26T11:06:50.536Z</time></trkpt><trkpt lat="43.9039933" lon="12.5482633"><ele>175.0</ele><time>2026-04-26T11:06:51.534Z</time></trkpt><trkpt lat="43.904055" lon="12.54834"><ele>175.0</ele><time>2026-04-26T11:06:52.534Z</time></trkpt><trkpt lat="43.9041083" lon="12.548445"><ele>175.0</ele><time>2026-04-26T11:06:53.536Z</time></trkpt><trkpt lat="43.9041533" lon="12.548575"><ele>175.0</ele><time>2026-04-26T11:06:54.536Z</time></trkpt><trkpt lat="43.904225" lon="12.5487267"><ele>175.0</ele><time>2026-04-26T11:06:55.536Z</time></trkpt><trkpt lat="43.9042917" lon="12.5488733"><ele>175.0</ele><time>2026-04-26T11:06:56.536Z</time></trkpt><trkpt lat="43.9043433" lon="12.549015"><ele>175.0</ele><time>2026-04-26T11:06:57.536Z</time></trkpt><trkpt lat="43.9043717" lon="12.54915"><ele>175.0</ele><time>2026-04-26T11:06:58.534Z</time></trkpt><trkpt lat="43.90438" lon="12.5492667"><ele>175.0</ele><time>2026-04-26T11:06:59.534Z</time></trkpt><trkpt lat="43.904355" lon="12.5493783"><ele>175.0</ele><time>2026-04-26T11:07:00.537Z</time></trkpt><trkpt lat="43.9043283" lon="12.5495067"><ele>176.25</ele><time>2026-04-26T11:07:01.536Z</time></trkpt><trkpt lat="43.904295" lon="12.5496517"><ele>177.5</ele><time>2026-04-26T11:07:02.533Z</time></trkpt><trkpt lat="43.9042867" lon="12.5498217"><ele>178.75</ele><time>2026-04-26T11:07:03.535Z</time></trkpt><trkpt lat="43.904305" lon="12.5500133"><ele>180.0</ele><time>2026-04-26T11:07:04.533Z</time></trkpt><trkpt lat="43.9043367" lon="12.55022"><ele>180.5</ele><time>2026-04-26T11:07:05.534Z</time></trkpt><trkpt lat="43.904375" lon="12.550415"><ele>181.0</ele><time>2026-04-26T11:07:06.537Z</time></trkpt><trkpt lat="43.9044133" lon="12.550595"><ele>181.5</ele><time>2026-04-26T11:07:07.534Z</time></trkpt><trkpt lat="43.9044517" lon="12.5507567"><ele>182.0</ele><time>2026-04-26T11:07:08.533Z</time></trkpt><trkpt lat="43.9044767" lon="12.5509017"><ele>182.0</ele><time>2026-04-26T11:07:09.536Z</time></trkpt><trkpt lat="43.9044883" lon="12.5510167"><ele>182.0</ele><time>2026-04-26T11:07:10.536Z</time></trkpt><trkpt lat="43.9044817" lon="12.5511233"><ele>182.0</ele><time>2026-04-26T11:07:11.537Z</time></trkpt><trkpt lat="43.9044567" lon="12.5512317"><ele>182.0</ele><time>2026-04-26T11:07:12.535Z</time></trkpt><trkpt lat="43.9044083" lon="12.5513383"><ele>182.0</ele><time>2026-04-26T11:07:13.534Z</time></trkpt><trkpt lat="43.9043333" lon="12.5514567"><ele>182.0</ele><time>2026-04-26T11:07:14.534Z</time></trkpt><trkpt lat="43.9042717" lon="12.5515817"><ele>181.8</ele><time>2026-04-26T11:07:15.537Z</time></trkpt><trkpt lat="43.9042167" lon="12.5517217"><ele>181.6</ele><time>2026-04-26T11:07:16.533Z</time></trkpt><trkpt lat="43.9041817" lon="12.5518617"><ele>181.4</ele><time>2026-04-26T11:07:17.536Z</time></trkpt><trkpt lat="43.9041683" lon="12.5519967"><ele>181.20000000000002</ele><time>2026-04-26T11:07:18.536Z</time></trkpt><trkpt lat="43.904185" lon="12.552125"><ele>181.0</ele><time>2026-04-26T11:07:19.537Z</time></trkpt><trkpt lat="43.90422" lon="12.55223"><ele>179.5</ele><time>2026-04-26T11:07:20.536Z</time></trkpt><trkpt lat="43.9042633" lon="12.5523117"><ele>178.0</ele><time>2026-04-26T11:07:21.536Z</time></trkpt><trkpt lat="43.9043667" lon="12.55239"><ele>176.5</ele><time>2026-04-26T11:07:23.537Z</time></trkpt><trkpt lat="43.904435" lon="12.5523433"><ele>175.0</ele><time>2026-04-26T11:07:24.533Z</time></trkpt><trkpt lat="43.904505" lon="12.552305"><ele>173.5</ele><time>2026-04-26T11:07:25.535Z</time></trkpt><trkpt lat="43.9045767" lon="12.55226"><ele>172.0</ele><time>2026-04-26T11:07:26.534Z</time></trkpt><trkpt lat="43.9046483" lon="12.5522233"><ele>172.0</ele><time>2026-04-26T11:07:27.537Z</time></trkpt><trkpt lat="43.9047333" lon="12.55219"><ele>172.0</ele><time>2026-04-26T11:07:28.536Z</time></trkpt><trkpt lat="43.9048333" lon="12.5521917"><ele>172.0</ele><time>2026-04-26T11:07:29.534Z</time></trkpt><trkpt lat="43.904935" lon="12.5522083"><ele>172.0</ele><time>2026-04-26T11:07:30.538Z</time></trkpt><trkpt lat="43.9051183" lon="12.552245"><ele>170.33333333333334</ele><time>2026-04-26T11:07:31.538Z</time></trkpt><trkpt lat="43.9052883" lon="12.5522917"><ele>168.66666666666666</ele><time>2026-04-26T11:07:32.536Z</time></trkpt><trkpt lat="43.9054617" lon="12.5523333"><ele>167.0</ele><time>2026-04-26T11:07:33.533Z</time></trkpt><trkpt lat="43.90562" lon="12.5523533"><ele>167.0</ele><time>2026-04-26T11:07:34.537Z</time></trkpt><trkpt lat="43.9057883" lon="12.552345"><ele>167.0</ele><time>2026-04-26T11:07:35.533Z</time></trkpt><trkpt lat="43.905965" lon="12.552295"><ele>167.0</ele><time>2026-04-26T11:07:36.534Z</time></trkpt><trkpt lat="43.90614" lon="12.5522433"><ele>165.33333333333331</ele><time>2026-04-26T11:07:37.535Z</time></trkpt><trkpt lat="43.90633" lon="12.5522033"><ele>163.66666666666666</ele><time>2026-04-26T11:07:38.536Z</time></trkpt><trkpt lat="43.906505" lon="12.5521833"><ele>162.0</ele><time>2026-04-26T11:07:39.534Z</time></trkpt><trkpt lat="43.9066733" lon="12.55218"><ele>161.33333333333334</ele><time>2026-04-26T11:07:40.533Z</time></trkpt><trkpt lat="43.9068433" lon="12.5521983"><ele>160.66666666666669</ele><time>2026-04-26T11:07:41.533Z</time></trkpt><trkpt lat="43.9069933" lon="12.55223"><ele>160.0</ele><time>2026-04-26T11:07:42.537Z</time></trkpt><trkpt lat="43.9071217" lon="12.5522683"><ele>160.0</ele><time>2026-04-26T11:07:43.536Z</time></trkpt><trkpt lat="43.9072167" lon="12.5523133"><ele>160.0</ele><time>2026-04-26T11:07:44.535Z</time></trkpt><trkpt lat="43.9072917" lon="12.5523583"><ele>160.0</ele><time>2026-04-26T11:07:45.536Z</time></trkpt><trkpt lat="43.9073433" lon="12.5524133"><ele>160.0</ele><time>2026-04-26T11:07:46.537Z</time></trkpt><trkpt lat="43.9073767" lon="12.552495"><ele>160.0</ele><time>2026-04-26T11:07:47.537Z</time></trkpt><trkpt lat="43.907405" lon="12.5526133"><ele>160.0</ele><time>2026-04-26T11:07:48.535Z</time></trkpt><trkpt lat="43.907435" lon="12.5527717"><ele>160.0</ele><time>2026-04-26T11:07:49.538Z</time></trkpt><trkpt lat="43.907465" lon="12.5529967"><ele>160.0</ele><time>2026-04-26T11:07:50.537Z</time></trkpt><trkpt lat="43.9075033" lon="12.5532417"><ele>160.0</ele><time>2026-04-26T11:07:51.535Z</time></trkpt><trkpt lat="43.9075467" lon="12.5534867"><ele>159.0</ele><time>2026-04-26T11:07:52.536Z</time></trkpt><trkpt lat="43.9076017" lon="12.5537383"><ele>158.0</ele><time>2026-04-26T11:07:53.535Z</time></trkpt><trkpt lat="43.907665" lon="12.5539833"><ele>157.0</ele><time>2026-04-26T11:07:54.536Z</time></trkpt><trkpt lat="43.907725" lon="12.55423"><ele>157.0</ele><time>2026-04-26T11:07:55.536Z</time></trkpt><trkpt lat="43.9077817" lon="12.554475"><ele>157.0</ele><time>2026-04-26T11:07:56.537Z</time></trkpt><trkpt lat="43.9078317" lon="12.554705"><ele>157.0</ele><time>2026-04-26T11:07:57.532Z</time></trkpt><trkpt lat="43.907885" lon="12.5549267"><ele>156.66666666666669</ele><time>2026-04-26T11:07:58.533Z</time></trkpt><trkpt lat="43.9079417" lon="12.555145"><ele>156.33333333333334</ele><time>2026-04-26T11:07:59.532Z</time></trkpt><trkpt lat="43.907995" lon="12.5553617"><ele>156.0</ele><time>2026-04-26T11:08:00.533Z</time></trkpt><trkpt lat="43.9080467" lon="12.555575"><ele>155.66666666666666</ele><time>2026-04-26T11:08:01.533Z</time></trkpt><trkpt lat="43.908095" lon="12.5557833"><ele>155.33333333333331</ele><time>2026-04-26T11:08:02.536Z</time></trkpt><trkpt lat="43.908135" lon="12.5559783"><ele>155.0</ele><time>2026-04-26T11:08:03.536Z</time></trkpt><trkpt lat="43.9081767" lon="12.5561733"><ele>154.75</ele><time>2026-04-26T11:08:04.534Z</time></trkpt><trkpt lat="43.90821" lon="12.5563733"><ele>154.5</ele><time>2026-04-26T11:08:05.536Z</time></trkpt><trkpt lat="43.9082467" lon="12.5565683"><ele>154.25</ele><time>2026-04-26T11:08:06.534Z</time></trkpt><trkpt lat="43.9082833" lon="12.5567667"><ele>154.0</ele><time>2026-04-26T11:08:07.533Z</time></trkpt><trkpt lat="43.9083217" lon="12.5569583"><ele>154.25</ele><time>2026-04-26T11:08:08.534Z</time></trkpt><trkpt lat="43.9083667" lon="12.5571433"><ele>154.5</ele><time>2026-04-26T11:08:09.532Z</time></trkpt><trkpt lat="43.9084083" lon="12.55733"><ele>154.75</ele><time>2026-04-26T11:08:10.534Z</time></trkpt><trkpt lat="43.90844" lon="12.5575233"><ele>155.0</ele><time>2026-04-26T11:08:11.536Z</time></trkpt><trkpt lat="43.9084667" lon="12.5576983"><ele>155.0</ele><time>2026-04-26T11:08:12.535Z</time></trkpt><trkpt lat="43.9085" lon="12.557865"><ele>155.0</ele><time>2026-04-26T11:08:13.536Z</time></trkpt><trkpt lat="43.9085383" lon="12.558035"><ele>155.0</ele><time>2026-04-26T11:08:14.532Z</time></trkpt><trkpt lat="43.9085783" lon="12.55821"><ele>155.0</ele><time>2026-04-26T11:08:15.536Z</time></trkpt><trkpt lat="43.9086233" lon="12.558385"><ele>154.75</ele><time>2026-04-26T11:08:16.534Z</time></trkpt><trkpt lat="43.90867" lon="12.5585683"><ele>154.5</ele><time>2026-04-26T11:08:17.534Z</time></trkpt><trkpt lat="43.908715" lon="12.558755"><ele>154.25</ele><time>2026-04-26T11:08:18.534Z</time></trkpt><trkpt lat="43.9087583" lon="12.5589433"><ele>154.0</ele><time>2026-04-26T11:08:19.535Z</time></trkpt><trkpt lat="43.908805" lon="12.559125"><ele>154.0</ele><time>2026-04-26T11:08:20.533Z</time></trkpt><trkpt lat="43.9088517" lon="12.5592933"><ele>154.0</ele><time>2026-04-26T11:08:21.535Z</time></trkpt><trkpt lat="43.9089033" lon="12.5594517"><ele>154.0</ele><time>2026-04-26T11:08:22.535Z</time></trkpt><trkpt lat="43.9089617" lon="12.5596033"><ele>154.0</ele><time>2026-04-26T11:08:23.537Z</time></trkpt><trkpt lat="43.90903" lon="12.559745"><ele>154.0</ele><time>2026-04-26T11:08:24.535Z</time></trkpt><trkpt lat="43.9091083" lon="12.5598867"><ele>154.0</ele><time>2026-04-26T11:08:25.536Z</time></trkpt><trkpt lat="43.9092017" lon="12.5600283"><ele>154.0</ele><time>2026-04-26T11:08:26.535Z</time></trkpt><trkpt lat="43.909305" lon="12.5601733"><ele>154.0</ele><time>2026-04-26T11:08:27.536Z</time></trkpt><trkpt lat="43.9094267" lon="12.560325"><ele>153.33333333333334</ele><time>2026-04-26T11:08:28.532Z</time></trkpt><trkpt lat="43.9095517" lon="12.5604817"><ele>152.66666666666666</ele><time>2026-04-26T11:08:29.536Z</time></trkpt><trkpt lat="43.909675" lon="12.56064"><ele>152.0</ele><time>2026-04-26T11:08:30.534Z</time></trkpt><trkpt lat="43.9097967" lon="12.560795"><ele>152.0</ele><time>2026-04-26T11:08:31.533Z</time></trkpt><trkpt lat="43.9099167" lon="12.5609483"><ele>152.0</ele><time>2026-04-26T11:08:32.536Z</time></trkpt><trkpt lat="43.91003" lon="12.5611017"><ele>152.0</ele><time>2026-04-26T11:08:33.536Z</time></trkpt><trkpt lat="43.9101383" lon="12.5612517"><ele>151.0</ele><time>2026-04-26T11:08:34.533Z</time></trkpt><trkpt lat="43.9102433" lon="12.56139"><ele>150.0</ele><time>2026-04-26T11:08:35.538Z</time></trkpt><trkpt lat="43.91034" lon="12.5615133"><ele>149.0</ele><time>2026-04-26T11:08:36.537Z</time></trkpt><trkpt lat="43.91043" lon="12.56162"><ele>148.0</ele><time>2026-04-26T11:08:37.534Z</time></trkpt><trkpt lat="43.9104967" lon="12.561705"><ele>148.0</ele><time>2026-04-26T11:08:38.536Z</time></trkpt><trkpt lat="43.9105517" lon="12.5617683"><ele>148.0</ele><time>2026-04-26T11:08:39.536Z</time></trkpt><trkpt lat="43.9106133" lon="12.5618083"><ele>148.0</ele><time>2026-04-26T11:08:41.532Z</time></trkpt><trkpt lat="43.9106683" lon="12.5617533"><ele>148.0</ele><time>2026-04-26T11:08:43.538Z</time></trkpt><trkpt lat="43.9107033" lon="12.56166"><ele>148.0</ele><time>2026-04-26T11:08:45.537Z</time></trkpt><trkpt lat="43.910755" lon="12.5615617"><ele>148.0</ele><time>2026-04-26T11:10:53.536Z</time></trkpt><trkpt lat="43.9107533" lon="12.5614667"><ele>148.0</ele><time>2026-04-26T11:10:57.536Z</time></trkpt><trkpt lat="43.910795" lon="12.56138"><ele>148.0</ele><time>2026-04-26T11:11:01.537Z</time></trkpt><trkpt lat="43.9108467" lon="12.5613183"><ele>148.0</ele><time>2026-04-26T11:11:03.537Z</time></trkpt><trkpt lat="43.9109083" lon="12.56128"><ele>148.0</ele><time>2026-04-26T11:11:07.538Z</time></trkpt><trkpt lat="43.9108833" lon="12.5611383"><ele>148.0</ele><time>2026-04-26T11:13:21.535Z</time></trkpt><trkpt lat="43.910865" lon="12.5612383"><ele>148.0</ele><time>2026-04-26T11:14:04.536Z</time></trkpt><trkpt lat="43.9108217" lon="12.5613417"><ele>148.0</ele><time>2026-04-26T11:14:56.536Z</time></trkpt><trkpt lat="43.9107983" lon="12.56144"><ele>148.0</ele><time>2026-04-26T11:15:00.534Z</time></trkpt><trkpt lat="43.910745" lon="12.5615267"><ele>148.0</ele><time>2026-04-26T11:15:59.536Z</time></trkpt><trkpt lat="43.910675" lon="12.5616067"><ele>148.0</ele><time>2026-04-26T11:16:02.534Z</time></trkpt><trkpt lat="43.9106233" lon="12.5616617"><ele>148.0</ele><time>2026-04-26T11:16:04.534Z</time></trkpt><trkpt lat="43.91059" lon="12.56176"><ele>148.0</ele><time>2026-04-26T11:16:07.539Z</time></trkpt><trkpt lat="43.9106283" lon="12.56183"><ele>148.0</ele><time>2026-04-26T11:16:16.536Z</time></trkpt><trkpt lat="43.91071" lon="12.5619317"><ele>148.0</ele><time>2026-04-26T11:16:18.534Z</time></trkpt><trkpt lat="43.9108017" lon="12.562045"><ele>148.0</ele><time>2026-04-26T11:16:20.534Z</time></trkpt><trkpt lat="43.9108517" lon="12.5621167"><ele>148.0</ele><time>2026-04-26T11:16:21.537Z</time></trkpt><trkpt lat="43.9109067" lon="12.562195"><ele>148.0</ele><time>2026-04-26T11:16:22.535Z</time></trkpt><trkpt lat="43.9109633" lon="12.5622783"><ele>148.0</ele><time>2026-04-26T11:16:23.535Z</time></trkpt><trkpt lat="43.9110233" lon="12.5623667"><ele>148.0</ele><time>2026-04-26T11:16:24.533Z</time></trkpt><trkpt lat="43.9110833" lon="12.5624533"><ele>148.0</ele><time>2026-04-26T11:16:25.535Z</time></trkpt><trkpt lat="43.911145" lon="12.5625333"><ele>148.0</ele><time>2026-04-26T11:16:26.533Z</time></trkpt><trkpt lat="43.9112083" lon="12.5626167"><ele>148.0</ele><time>2026-04-26T11:16:27.534Z</time></trkpt><trkpt lat="43.9112633" lon="12.5627117"><ele>148.0</ele><time>2026-04-26T11:16:28.533Z</time></trkpt><trkpt lat="43.9113217" lon="12.56281"><ele>148.0</ele><time>2026-04-26T11:16:29.533Z</time></trkpt><trkpt lat="43.9113833" lon="12.5629217"><ele>148.4</ele><time>2026-04-26T11:16:30.536Z</time></trkpt><trkpt lat="43.91144" lon="12.5630317"><ele>148.8</ele><time>2026-04-26T11:16:31.538Z</time></trkpt><trkpt lat="43.9115067" lon="12.5631567"><ele>149.2</ele><time>2026-04-26T11:16:32.533Z</time></trkpt><trkpt lat="43.911565" lon="12.56328"><ele>149.6</ele><time>2026-04-26T11:16:33.533Z</time></trkpt><trkpt lat="43.9116167" lon="12.5633983"><ele>150.0</ele><time>2026-04-26T11:16:34.533Z</time></trkpt><trkpt lat="43.9116717" lon="12.5635167"><ele>150.0</ele><time>2026-04-26T11:16:35.533Z</time></trkpt><trkpt lat="43.911735" lon="12.56363"><ele>150.0</ele><time>2026-04-26T11:16:36.534Z</time></trkpt><trkpt lat="43.9118017" lon="12.563745"><ele>150.0</ele><time>2026-04-26T11:16:37.534Z</time></trkpt><trkpt lat="43.9118633" lon="12.56385"><ele>150.0</ele><time>2026-04-26T11:16:38.533Z</time></trkpt><trkpt lat="43.9119233" lon="12.5639417"><ele>150.0</ele><time>2026-04-26T11:16:39.533Z</time></trkpt><trkpt lat="43.9119767" lon="12.564035"><ele>149.5</ele><time>2026-04-26T11:16:40.534Z</time></trkpt><trkpt lat="43.9120283" lon="12.564125"><ele>149.0</ele><time>2026-04-26T11:16:41.533Z</time></trkpt><trkpt lat="43.91208" lon="12.564205"><ele>148.5</ele><time>2026-04-26T11:16:42.533Z</time></trkpt><trkpt lat="43.9121317" lon="12.56428"><ele>148.0</ele><time>2026-04-26T11:16:43.535Z</time></trkpt><trkpt lat="43.9122" lon="12.564365"><ele>147.5</ele><time>2026-04-26T11:16:44.535Z</time></trkpt><trkpt lat="43.9122583" lon="12.564435"><ele>147.0</ele><time>2026-04-26T11:16:45.537Z</time></trkpt><trkpt lat="43.9123083" lon="12.5644917"><ele>147.16666666666666</ele><time>2026-04-26T11:16:46.533Z</time></trkpt><trkpt lat="43.9123633" lon="12.5645483"><ele>147.33333333333334</ele><time>2026-04-26T11:16:47.533Z</time></trkpt><trkpt lat="43.9124583" lon="12.56464"><ele>147.5</ele><time>2026-04-26T11:16:49.536Z</time></trkpt><trkpt lat="43.9125133" lon="12.5646917"><ele>147.66666666666669</ele><time>2026-04-26T11:16:50.533Z</time></trkpt><trkpt lat="43.912575" lon="12.5647433"><ele>147.83333333333334</ele><time>2026-04-26T11:16:51.534Z</time></trkpt><trkpt lat="43.9126417" lon="12.564795"><ele>148.0</ele><time>2026-04-26T11:16:52.534Z</time></trkpt><trkpt lat="43.912715" lon="12.56485"><ele>147.66666666666669</ele><time>2026-04-26T11:16:53.534Z</time></trkpt><trkpt lat="43.9127933" lon="12.5649017"><ele>147.33333333333334</ele><time>2026-04-26T11:16:54.534Z</time></trkpt><trkpt lat="43.91287" lon="12.56495"><ele>147.0</ele><time>2026-04-26T11:16:55.534Z</time></trkpt><trkpt lat="43.9129433" lon="12.5649883"><ele>146.66666666666666</ele><time>2026-04-26T11:16:56.533Z</time></trkpt><trkpt lat="43.9130167" lon="12.5650283"><ele>146.33333333333331</ele><time>2026-04-26T11:16:57.535Z</time></trkpt><trkpt lat="43.913085" lon="12.5650767"><ele>146.0</ele><time>2026-04-26T11:16:58.536Z</time></trkpt><trkpt lat="43.9131517" lon="12.5651367"><ele>146.0</ele><time>2026-04-26T11:16:59.536Z</time></trkpt><trkpt lat="43.9132167" lon="12.565205"><ele>146.0</ele><time>2026-04-26T11:17:00.533Z</time></trkpt><trkpt lat="43.9132833" lon="12.5652733"><ele>146.0</ele><time>2026-04-26T11:17:01.534Z</time></trkpt><trkpt lat="43.9133467" lon="12.5653417"><ele>146.0</ele><time>2026-04-26T11:17:02.538Z</time></trkpt><trkpt lat="43.9134083" lon="12.5654033"><ele>146.0</ele><time>2026-04-26T11:17:03.534Z</time></trkpt><trkpt lat="43.9134733" lon="12.56545"><ele>146.0</ele><time>2026-04-26T11:17:04.535Z</time></trkpt><trkpt lat="43.913545" lon="12.5654833"><ele>145.83333333333331</ele><time>2026-04-26T11:17:05.534Z</time></trkpt><trkpt lat="43.9136217" lon="12.5655167"><ele>145.66666666666666</ele><time>2026-04-26T11:17:06.533Z</time></trkpt><trkpt lat="43.9137" lon="12.5655433"><ele>145.5</ele><time>2026-04-26T11:17:07.536Z</time></trkpt><trkpt lat="43.9137817" lon="12.56557"><ele>145.33333333333334</ele><time>2026-04-26T11:17:08.533Z</time></trkpt><trkpt lat="43.913855" lon="12.5656017"><ele>145.16666666666669</ele><time>2026-04-26T11:17:09.536Z</time></trkpt><trkpt lat="43.9139283" lon="12.5656467"><ele>145.0</ele><time>2026-04-26T11:17:10.534Z</time></trkpt><trkpt lat="43.9139967" lon="12.5657017"><ele>145.0</ele><time>2026-04-26T11:17:11.533Z</time></trkpt><trkpt lat="43.914065" lon="12.565775"><ele>145.0</ele><time>2026-04-26T11:17:12.536Z</time></trkpt><trkpt lat="43.9141383" lon="12.56586"><ele>145.0</ele><time>2026-04-26T11:17:13.537Z</time></trkpt><trkpt lat="43.9142083" lon="12.5659517"><ele>145.0</ele><time>2026-04-26T11:17:14.533Z</time></trkpt><trkpt lat="43.91428" lon="12.56605"><ele>145.0</ele><time>2026-04-26T11:17:15.532Z</time></trkpt><trkpt lat="43.9143433" lon="12.56615"><ele>145.0</ele><time>2026-04-26T11:17:16.533Z</time></trkpt><trkpt lat="43.9143933" lon="12.5662633"><ele>145.0</ele><time>2026-04-26T11:17:17.532Z</time></trkpt><trkpt lat="43.914435" lon="12.5663767"><ele>145.0</ele><time>2026-04-26T11:17:18.532Z</time></trkpt><trkpt lat="43.91447" lon="12.5664817"><ele>145.0</ele><time>2026-04-26T11:17:19.533Z</time></trkpt><trkpt lat="43.9144967" lon="12.566575"><ele>145.0</ele><time>2026-04-26T11:17:20.532Z</time></trkpt><trkpt lat="43.914515" lon="12.5666617"><ele>145.0</ele><time>2026-04-26T11:17:21.532Z</time></trkpt><trkpt lat="43.9145183" lon="12.5667967"><ele>145.0</ele><time>2026-04-26T11:17:23.536Z</time></trkpt><trkpt lat="43.9144583" lon="12.5669"><ele>145.0</ele><time>2026-04-26T11:17:25.536Z</time></trkpt><trkpt lat="43.9143933" lon="12.5670083"><ele>145.0</ele><time>2026-04-26T11:17:27.536Z</time></trkpt><trkpt lat="43.9143267" lon="12.5671217"><ele>145.0</ele><time>2026-04-26T11:17:29.532Z</time></trkpt><trkpt lat="43.9142667" lon="12.5672533"><ele>145.0</ele><time>2026-04-26T11:17:31.536Z</time></trkpt><trkpt lat="43.914235" lon="12.5674133"><ele>148.25</ele><time>2026-04-26T11:17:33.536Z</time></trkpt><trkpt lat="43.914225" lon="12.56758"><ele>151.5</ele><time>2026-04-26T11:17:35.532Z</time></trkpt><trkpt lat="43.9142217" lon="12.5677483"><ele>154.75</ele><time>2026-04-26T11:17:37.536Z</time></trkpt><trkpt lat="43.914225" lon="12.5679183"><ele>158.0</ele><time>2026-04-26T11:17:39.536Z</time></trkpt><trkpt lat="43.914235" lon="12.5680783"><ele>158.60000000000002</ele><time>2026-04-26T11:17:41.535Z</time></trkpt><trkpt lat="43.9142517" lon="12.568225"><ele>159.20000000000002</ele><time>2026-04-26T11:17:43.534Z</time></trkpt><trkpt lat="43.9142583" lon="12.56835"><ele>159.8</ele><time>2026-04-26T11:17:45.536Z</time></trkpt><trkpt lat="43.9142517" lon="12.5684717"><ele>160.4</ele><time>2026-04-26T11:18:20.535Z</time></trkpt><trkpt lat="43.9142167" lon="12.5685883"><ele>161.0</ele><time>2026-04-26T11:18:22.535Z</time></trkpt><trkpt lat="43.9141767" lon="12.5687167"><ele>161.0</ele><time>2026-04-26T11:18:24.536Z</time></trkpt><trkpt lat="43.9141283" lon="12.568865"><ele>161.0</ele><time>2026-04-26T11:18:26.536Z</time></trkpt><trkpt lat="43.9141017" lon="12.5689483"><ele>161.0</ele><time>2026-04-26T11:18:27.536Z</time></trkpt><trkpt lat="43.9140717" lon="12.5690433"><ele>161.0</ele><time>2026-04-26T11:18:28.536Z</time></trkpt><trkpt lat="43.914035" lon="12.5691433"><ele>161.0</ele><time>2026-04-26T11:18:29.537Z</time></trkpt><trkpt lat="43.914" lon="12.5692467"><ele>161.0</ele><time>2026-04-26T11:18:30.536Z</time></trkpt><trkpt lat="43.9139617" lon="12.569355"><ele>161.0</ele><time>2026-04-26T11:18:31.536Z</time></trkpt><trkpt lat="43.9139217" lon="12.5694633"><ele>161.0</ele><time>2026-04-26T11:18:32.536Z</time></trkpt><trkpt lat="43.91388" lon="12.5695767"><ele>161.0</ele><time>2026-04-26T11:18:33.536Z</time></trkpt><trkpt lat="43.91384" lon="12.5696833"><ele>161.0</ele><time>2026-04-26T11:18:34.536Z</time></trkpt><trkpt lat="43.9138067" lon="12.569785"><ele>161.0</ele><time>2026-04-26T11:18:35.532Z</time></trkpt><trkpt lat="43.9137833" lon="12.5698817"><ele>161.0</ele><time>2026-04-26T11:18:36.536Z</time></trkpt><trkpt lat="43.9137717" lon="12.5699817"><ele>160.85714285714286</ele><time>2026-04-26T11:18:37.534Z</time></trkpt><trkpt lat="43.913765" lon="12.5700833"><ele>160.71428571428572</ele><time>2026-04-26T11:18:38.535Z</time></trkpt><trkpt lat="43.913765" lon="12.5701917"><ele>160.57142857142856</ele><time>2026-04-26T11:18:39.537Z</time></trkpt><trkpt lat="43.9137683" lon="12.5702983"><ele>160.42857142857144</ele><time>2026-04-26T11:18:40.537Z</time></trkpt><trkpt lat="43.9137717" lon="12.5704033"><ele>160.28571428571428</ele><time>2026-04-26T11:18:41.536Z</time></trkpt><trkpt lat="43.9137733" lon="12.5704983"><ele>160.14285714285714</ele><time>2026-04-26T11:18:42.538Z</time></trkpt><trkpt lat="43.9137567" lon="12.57059"><ele>160.0</ele><time>2026-04-26T11:18:43.537Z</time></trkpt><trkpt lat="43.9137317" lon="12.5706817"><ele>160.6</ele><time>2026-04-26T11:18:44.536Z</time></trkpt><trkpt lat="43.9136967" lon="12.570785"><ele>161.2</ele><time>2026-04-26T11:18:45.535Z</time></trkpt><trkpt lat="43.913655" lon="12.5709"><ele>161.8</ele><time>2026-04-26T11:18:46.536Z</time></trkpt><trkpt lat="43.913615" lon="12.57102"><ele>162.4</ele><time>2026-04-26T11:18:47.535Z</time></trkpt><trkpt lat="43.9135717" lon="12.5711417"><ele>163.0</ele><time>2026-04-26T11:18:48.536Z</time></trkpt><trkpt lat="43.9135317" lon="12.571265"><ele>163.0</ele><time>2026-04-26T11:18:49.537Z</time></trkpt><trkpt lat="43.9134917" lon="12.5713917"><ele>163.0</ele><time>2026-04-26T11:18:50.536Z</time></trkpt><trkpt lat="43.913455" lon="12.5715167"><ele>163.0</ele><time>2026-04-26T11:18:51.536Z</time></trkpt><trkpt lat="43.9134183" lon="12.57164"><ele>163.0</ele><time>2026-04-26T11:18:52.536Z</time></trkpt><trkpt lat="43.913385" lon="12.5717633"><ele>163.0</ele><time>2026-04-26T11:18:53.535Z</time></trkpt><trkpt lat="43.9133583" lon="12.5718833"><ele>164.8</ele><time>2026-04-26T11:18:54.536Z</time></trkpt><trkpt lat="43.9133317" lon="12.5720033"><ele>166.60000000000002</ele><time>2026-04-26T11:18:55.537Z</time></trkpt><trkpt lat="43.913305" lon="12.5721317"><ele>168.39999999999998</ele><time>2026-04-26T11:18:56.536Z</time></trkpt><trkpt lat="43.9132783" lon="12.5722633"><ele>170.2</ele><time>2026-04-26T11:18:57.535Z</time></trkpt><trkpt lat="43.913255" lon="12.5723917"><ele>172.0</ele><time>2026-04-26T11:18:58.536Z</time></trkpt><trkpt lat="43.91324" lon="12.572505"><ele>172.0</ele><time>2026-04-26T11:18:59.535Z</time></trkpt><trkpt lat="43.9132317" lon="12.572605"><ele>172.0</ele><time>2026-04-26T11:19:00.536Z</time></trkpt><trkpt lat="43.91323" lon="12.5727017"><ele>172.0</ele><time>2026-04-26T11:19:01.536Z</time></trkpt><trkpt lat="43.91323" lon="12.5728083"><ele>172.0</ele><time>2026-04-26T11:19:02.538Z</time></trkpt><trkpt lat="43.91324" lon="12.5729183"><ele>172.0</ele><time>2026-04-26T11:19:03.536Z</time></trkpt><trkpt lat="43.913265" lon="12.573035"><ele>172.0</ele><time>2026-04-26T11:19:04.536Z</time></trkpt><trkpt lat="43.91329" lon="12.573155"><ele>170.83333333333334</ele><time>2026-04-26T11:19:05.536Z</time></trkpt><trkpt lat="43.9133133" lon="12.5732667"><ele>169.66666666666669</ele><time>2026-04-26T11:19:06.536Z</time></trkpt><trkpt lat="43.913325" lon="12.5733617"><ele>168.5</ele><time>2026-04-26T11:19:07.536Z</time></trkpt><trkpt lat="43.9132733" lon="12.5735117"><ele>167.33333333333334</ele><time>2026-04-26T11:19:09.537Z</time></trkpt><trkpt lat="43.9132133" lon="12.57356"><ele>166.16666666666666</ele><time>2026-04-26T11:19:10.536Z</time></trkpt><trkpt lat="43.9131317" lon="12.5735883"><ele>165.0</ele><time>2026-04-26T11:19:11.535Z</time></trkpt><trkpt lat="43.91304" lon="12.5735983"><ele>165.0</ele><time>2026-04-26T11:19:12.536Z</time></trkpt><trkpt lat="43.91294" lon="12.5735933"><ele>165.0</ele><time>2026-04-26T11:19:13.537Z</time></trkpt><trkpt lat="43.9128383" lon="12.5735917"><ele>165.0</ele><time>2026-04-26T11:19:14.536Z</time></trkpt><trkpt lat="43.91275" lon="12.573595"><ele>165.0</ele><time>2026-04-26T11:19:15.536Z</time></trkpt><trkpt lat="43.9126733" lon="12.5736083"><ele>165.0</ele><time>2026-04-26T11:19:16.533Z</time></trkpt><trkpt lat="43.912565" lon="12.5736633"><ele>164.5</ele><time>2026-04-26T11:19:18.534Z</time></trkpt><trkpt lat="43.9125383" lon="12.5737483"><ele>164.0</ele><time>2026-04-26T11:19:21.532Z</time></trkpt><trkpt lat="43.9126083" lon="12.573805"><ele>163.5</ele><time>2026-04-26T11:19:22.534Z</time></trkpt><trkpt lat="43.9126667" lon="12.57386"><ele>163.0</ele><time>2026-04-26T11:19:23.534Z</time></trkpt><trkpt lat="43.9127433" lon="12.5739517"><ele>162.5</ele><time>2026-04-26T11:19:24.533Z</time></trkpt><trkpt lat="43.9128" lon="12.5740617"><ele>162.0</ele><time>2026-04-26T11:19:25.536Z</time></trkpt><trkpt lat="43.9128833" lon="12.5742233"><ele>162.0</ele><time>2026-04-26T11:19:26.536Z</time></trkpt><trkpt lat="43.9129283" lon="12.57437"><ele>162.0</ele><time>2026-04-26T11:19:27.536Z</time></trkpt><trkpt lat="43.9129617" lon="12.5745167"><ele>162.0</ele><time>2026-04-26T11:19:28.536Z</time></trkpt><trkpt lat="43.9129467" lon="12.5746517"><ele>162.0</ele><time>2026-04-26T11:19:29.536Z</time></trkpt><trkpt lat="43.9129083" lon="12.5747867"><ele>162.0</ele><time>2026-04-26T11:19:30.536Z</time></trkpt><trkpt lat="43.9128633" lon="12.5749267"><ele>162.75</ele><time>2026-04-26T11:19:31.537Z</time></trkpt><trkpt lat="43.912815" lon="12.5750633"><ele>163.5</ele><time>2026-04-26T11:19:32.536Z</time></trkpt><trkpt lat="43.912775" lon="12.5752033"><ele>164.25</ele><time>2026-04-26T11:19:33.537Z</time></trkpt><trkpt lat="43.91275" lon="12.57536"><ele>165.0</ele><time>2026-04-26T11:19:34.536Z</time></trkpt><trkpt lat="43.91273" lon="12.5755267"><ele>165.0</ele><time>2026-04-26T11:19:35.537Z</time></trkpt><trkpt lat="43.9127133" lon="12.5757067"><ele>165.0</ele><time>2026-04-26T11:19:36.536Z</time></trkpt><trkpt lat="43.9126967" lon="12.5758867"><ele>165.0</ele><time>2026-04-26T11:19:37.536Z</time></trkpt><trkpt lat="43.9126833" lon="12.576055"><ele>165.0</ele><time>2026-04-26T11:19:38.536Z</time></trkpt><trkpt lat="43.91268" lon="12.5762"><ele>165.4</ele><time>2026-04-26T11:19:39.536Z</time></trkpt><trkpt lat="43.912685" lon="12.5763267"><ele>165.8</ele><time>2026-04-26T11:19:40.534Z</time></trkpt><trkpt lat="43.9126883" lon="12.5764433"><ele>166.2</ele><time>2026-04-26T11:19:41.536Z</time></trkpt><trkpt lat="43.9126583" lon="12.5765783"><ele>166.6</ele><time>2026-04-26T11:19:43.536Z</time></trkpt><trkpt lat="43.9125667" lon="12.57667"><ele>167.0</ele><time>2026-04-26T11:19:45.536Z</time></trkpt><trkpt lat="43.912515" lon="12.5767433"><ele>170.16666666666666</ele><time>2026-04-26T11:19:46.536Z</time></trkpt><trkpt lat="43.9124633" lon="12.5768317"><ele>173.33333333333331</ele><time>2026-04-26T11:19:47.536Z</time></trkpt><trkpt lat="43.9124183" lon="12.57692"><ele>176.5</ele><time>2026-04-26T11:19:48.536Z</time></trkpt><trkpt lat="43.9123733" lon="12.5770117"><ele>179.66666666666666</ele><time>2026-04-26T11:19:49.534Z</time></trkpt><trkpt lat="43.91233" lon="12.5771067"><ele>182.83333333333334</ele><time>2026-04-26T11:19:50.534Z</time></trkpt><trkpt lat="43.9122783" lon="12.577205"><ele>186.0</ele><time>2026-04-26T11:19:51.534Z</time></trkpt><trkpt lat="43.912225" lon="12.5773167"><ele>186.0</ele><time>2026-04-26T11:19:52.536Z</time></trkpt><trkpt lat="43.912175" lon="12.5774167"><ele>186.0</ele><time>2026-04-26T11:19:53.536Z</time></trkpt><trkpt lat="43.91213" lon="12.5775083"><ele>186.0</ele><time>2026-04-26T11:19:54.535Z</time></trkpt><trkpt lat="43.9120917" lon="12.5775867"><ele>186.0</ele><time>2026-04-26T11:19:55.536Z</time></trkpt><trkpt lat="43.912045" lon="12.5777133"><ele>186.0</ele><time>2026-04-26T11:19:57.534Z</time></trkpt><trkpt lat="43.9120483" lon="12.5778167"><ele>186.0</ele><time>2026-04-26T11:19:59.533Z</time></trkpt><trkpt lat="43.91213" lon="12.5778967"><ele>185.8</ele><time>2026-04-26T11:20:01.537Z</time></trkpt><trkpt lat="43.9121967" lon="12.57793"><ele>185.60000000000002</ele><time>2026-04-26T11:20:02.536Z</time></trkpt><trkpt lat="43.9122733" lon="12.5779633"><ele>185.4</ele><time>2026-04-26T11:20:03.536Z</time></trkpt><trkpt lat="43.9123583" lon="12.5780017"><ele>185.2</ele><time>2026-04-26T11:20:04.536Z</time></trkpt><trkpt lat="43.9124567" lon="12.5780567"><ele>185.0</ele><time>2026-04-26T11:20:05.536Z</time></trkpt><trkpt lat="43.91256" lon="12.57811"><ele>182.2</ele><time>2026-04-26T11:20:06.536Z</time></trkpt><trkpt lat="43.9126667" lon="12.5781567"><ele>179.4</ele><time>2026-04-26T11:20:07.538Z</time></trkpt><trkpt lat="43.9127633" lon="12.5781983"><ele>176.60000000000002</ele><time>2026-04-26T11:20:08.533Z</time></trkpt><trkpt lat="43.912845" lon="12.578255"><ele>173.8</ele><time>2026-04-26T11:20:09.536Z</time></trkpt><trkpt lat="43.9129183" lon="12.5783367"><ele>171.0</ele><time>2026-04-26T11:20:10.536Z</time></trkpt><trkpt lat="43.912985" lon="12.578435"><ele>171.0</ele><time>2026-04-26T11:20:11.536Z</time></trkpt><trkpt lat="43.9130533" lon="12.5785233"><ele>171.0</ele><time>2026-04-26T11:20:12.536Z</time></trkpt><trkpt lat="43.9131283" lon="12.5785983"><ele>171.0</ele><time>2026-04-26T11:20:13.536Z</time></trkpt><trkpt lat="43.9132133" lon="12.578655"><ele>171.0</ele><time>2026-04-26T11:20:14.536Z</time></trkpt><trkpt lat="43.9133117" lon="12.578685"><ele>171.0</ele><time>2026-04-26T11:20:15.536Z</time></trkpt><trkpt lat="43.9134233" lon="12.5786933"><ele>166.75</ele><time>2026-04-26T11:20:16.536Z</time></trkpt><trkpt lat="43.913535" lon="12.57869"><ele>162.5</ele><time>2026-04-26T11:20:17.537Z</time></trkpt><trkpt lat="43.9136483" lon="12.5786883"><ele>158.25</ele><time>2026-04-26T11:20:18.537Z</time></trkpt><trkpt lat="43.913765" lon="12.5786933"><ele>154.0</ele><time>2026-04-26T11:20:19.536Z</time></trkpt><trkpt lat="43.9138867" lon="12.5787017"><ele>154.0</ele><time>2026-04-26T11:20:20.536Z</time></trkpt><trkpt lat="43.9140117" lon="12.5787183"><ele>154.0</ele><time>2026-04-26T11:20:21.536Z</time></trkpt><trkpt lat="43.91413" lon="12.5787517"><ele>154.0</ele><time>2026-04-26T11:20:22.536Z</time></trkpt><trkpt lat="43.9142367" lon="12.5788167"><ele>154.0</ele><time>2026-04-26T11:20:23.537Z</time></trkpt><trkpt lat="43.9143367" lon="12.578915"><ele>151.5</ele><time>2026-04-26T11:20:24.536Z</time></trkpt><trkpt lat="43.9144367" lon="12.579035"><ele>149.0</ele><time>2026-04-26T11:20:25.538Z</time></trkpt><trkpt lat="43.9145367" lon="12.5791483"><ele>146.5</ele><time>2026-04-26T11:20:26.536Z</time></trkpt><trkpt lat="43.914635" lon="12.5792483"><ele>144.0</ele><time>2026-04-26T11:20:27.536Z</time></trkpt><trkpt lat="43.9147367" lon="12.5793367"><ele>144.0</ele><time>2026-04-26T11:20:28.539Z</time></trkpt><trkpt lat="43.9148383" lon="12.5794133"><ele>144.0</ele><time>2026-04-26T11:20:29.536Z</time></trkpt><trkpt lat="43.9149433" lon="12.579475"><ele>144.0</ele><time>2026-04-26T11:20:30.537Z</time></trkpt><trkpt lat="43.9150467" lon="12.5795267"><ele>144.0</ele><time>2026-04-26T11:20:31.535Z</time></trkpt><trkpt lat="43.915145" lon="12.5795683"><ele>144.0</ele><time>2026-04-26T11:20:32.536Z</time></trkpt><trkpt lat="43.9152417" lon="12.5795967"><ele>142.6</ele><time>2026-04-26T11:20:33.536Z</time></trkpt><trkpt lat="43.9153383" lon="12.5796183"><ele>141.2</ele><time>2026-04-26T11:20:34.538Z</time></trkpt><trkpt lat="43.9154333" lon="12.5796483"><ele>139.79999999999998</ele><time>2026-04-26T11:20:35.536Z</time></trkpt><trkpt lat="43.915535" lon="12.5796917"><ele>138.4</ele><time>2026-04-26T11:20:36.536Z</time></trkpt><trkpt lat="43.9156367" lon="12.5797467"><ele>137.0</ele><time>2026-04-26T11:20:37.537Z</time></trkpt><trkpt lat="43.9157417" lon="12.5798067"><ele>137.0</ele><time>2026-04-26T11:20:38.536Z</time></trkpt><trkpt lat="43.9158533" lon="12.5798617"><ele>137.0</ele><time>2026-04-26T11:20:39.536Z</time></trkpt><trkpt lat="43.9159733" lon="12.579915"><ele>137.0</ele><time>2026-04-26T11:20:40.537Z</time></trkpt><trkpt lat="43.9161117" lon="12.5799683"><ele>137.0</ele><time>2026-04-26T11:20:41.536Z</time></trkpt><trkpt lat="43.9162617" lon="12.58002"><ele>135.0</ele><time>2026-04-26T11:20:42.537Z</time></trkpt><trkpt lat="43.9164067" lon="12.5800733"><ele>133.0</ele><time>2026-04-26T11:20:43.537Z</time></trkpt><trkpt lat="43.91654" lon="12.5801283"><ele>131.0</ele><time>2026-04-26T11:20:44.536Z</time></trkpt><trkpt lat="43.9166683" lon="12.5801833"><ele>129.0</ele><time>2026-04-26T11:20:45.536Z</time></trkpt><trkpt lat="43.9167983" lon="12.5802367"><ele>128.25</ele><time>2026-04-26T11:20:46.536Z</time></trkpt><trkpt lat="43.9169333" lon="12.5802833"><ele>127.5</ele><time>2026-04-26T11:20:47.536Z</time></trkpt><trkpt lat="43.9170667" lon="12.5803217"><ele>126.75</ele><time>2026-04-26T11:20:48.537Z</time></trkpt><trkpt lat="43.9171933" lon="12.580355"><ele>126.0</ele><time>2026-04-26T11:20:49.535Z</time></trkpt><trkpt lat="43.9173133" lon="12.58038"><ele>126.0</ele><time>2026-04-26T11:20:50.533Z</time></trkpt><trkpt lat="43.9174217" lon="12.58041"><ele>126.0</ele><time>2026-04-26T11:20:51.536Z</time></trkpt><trkpt lat="43.91752" lon="12.58046"><ele>126.0</ele><time>2026-04-26T11:20:52.533Z</time></trkpt><trkpt lat="43.9176167" lon="12.5805433"><ele>126.0</ele><time>2026-04-26T11:20:53.536Z</time></trkpt><trkpt lat="43.9177133" lon="12.5806667"><ele>125.5</ele><time>2026-04-26T11:20:54.533Z</time></trkpt><trkpt lat="43.9177933" lon="12.58083"><ele>125.0</ele><time>2026-04-26T11:20:55.534Z</time></trkpt><trkpt lat="43.9178667" lon="12.5810033"><ele>124.5</ele><time>2026-04-26T11:20:56.537Z</time></trkpt><trkpt lat="43.9179467" lon="12.5811683"><ele>124.0</ele><time>2026-04-26T11:20:57.536Z</time></trkpt><trkpt lat="43.9180483" lon="12.5813133"><ele>123.75</ele><time>2026-04-26T11:20:58.536Z</time></trkpt><trkpt lat="43.918155" lon="12.5814467"><ele>123.5</ele><time>2026-04-26T11:20:59.536Z</time></trkpt><trkpt lat="43.918245" lon="12.5815783"><ele>123.25</ele><time>2026-04-26T11:21:00.536Z</time></trkpt><trkpt lat="43.9183067" lon="12.5817233"><ele>123.0</ele><time>2026-04-26T11:21:01.533Z</time></trkpt><trkpt lat="43.91833" lon="12.581885"><ele>122.75</ele><time>2026-04-26T11:21:02.533Z</time></trkpt><trkpt lat="43.91833" lon="12.5820633"><ele>122.5</ele><time>2026-04-26T11:21:03.538Z</time></trkpt><trkpt lat="43.91831" lon="12.5822633"><ele>122.25</ele><time>2026-04-26T11:21:04.536Z</time></trkpt><trkpt lat="43.91828" lon="12.5824733"><ele>122.0</ele><time>2026-04-26T11:21:05.537Z</time></trkpt><trkpt lat="43.9182517" lon="12.5826917"><ele>121.66666666666666</ele><time>2026-04-26T11:21:06.536Z</time></trkpt><trkpt lat="43.918225" lon="12.5829167"><ele>121.33333333333334</ele><time>2026-04-26T11:21:07.538Z</time></trkpt><trkpt lat="43.9182017" lon="12.58314"><ele>121.0</ele><time>2026-04-26T11:21:08.533Z</time></trkpt><trkpt lat="43.91818" lon="12.583355"><ele>121.0</ele><time>2026-04-26T11:21:09.536Z</time></trkpt><trkpt lat="43.9181583" lon="12.5835583"><ele>121.0</ele><time>2026-04-26T11:21:10.536Z</time></trkpt><trkpt lat="43.91814" lon="12.5837517"><ele>121.0</ele><time>2026-04-26T11:21:11.533Z</time></trkpt><trkpt lat="43.91813" lon="12.5839317"><ele>121.0</ele><time>2026-04-26T11:21:12.535Z</time></trkpt><trkpt lat="43.91812" lon="12.5840983"><ele>121.19999999999999</ele><time>2026-04-26T11:21:13.539Z</time></trkpt><trkpt lat="43.918105" lon="12.5842567"><ele>121.39999999999999</ele><time>2026-04-26T11:21:14.536Z</time></trkpt><trkpt lat="43.9180833" lon="12.5844"><ele>121.6</ele><time>2026-04-26T11:21:15.537Z</time></trkpt><trkpt lat="43.9180467" lon="12.5845283"><ele>121.8</ele><time>2026-04-26T11:21:16.539Z</time></trkpt><trkpt lat="43.9179933" lon="12.5846367"><ele>122.0</ele><time>2026-04-26T11:21:17.536Z</time></trkpt><trkpt lat="43.917925" lon="12.58473"><ele>122.0</ele><time>2026-04-26T11:21:18.538Z</time></trkpt><trkpt lat="43.9178483" lon="12.58482"><ele>122.0</ele><time>2026-04-26T11:21:19.539Z</time></trkpt><trkpt lat="43.9177067" lon="12.5850233"><ele>122.0</ele><time>2026-04-26T11:21:21.536Z</time></trkpt><trkpt lat="43.9176433" lon="12.58514"><ele>122.0</ele><time>2026-04-26T11:21:22.537Z</time></trkpt><trkpt lat="43.9175733" lon="12.5852733"><ele>121.75</ele><time>2026-04-26T11:21:23.533Z</time></trkpt><trkpt lat="43.91749" lon="12.585425"><ele>121.5</ele><time>2026-04-26T11:21:24.533Z</time></trkpt><trkpt lat="43.9174017" lon="12.5855867"><ele>121.25</ele><time>2026-04-26T11:21:25.536Z</time></trkpt><trkpt lat="43.9173083" lon="12.5857517"><ele>121.0</ele><time>2026-04-26T11:21:26.536Z</time></trkpt><trkpt lat="43.9172167" lon="12.5859183"><ele>121.0</ele><time>2026-04-26T11:21:27.533Z</time></trkpt><trkpt lat="43.9171233" lon="12.5860817"><ele>121.0</ele><time>2026-04-26T11:21:28.536Z</time></trkpt><trkpt lat="43.9170317" lon="12.586245"><ele>121.0</ele><time>2026-04-26T11:21:29.537Z</time></trkpt><trkpt lat="43.9169367" lon="12.5864083"><ele>120.25</ele><time>2026-04-26T11:21:30.536Z</time></trkpt><trkpt lat="43.9168433" lon="12.58657"><ele>119.5</ele><time>2026-04-26T11:21:31.535Z</time></trkpt><trkpt lat="43.91675" lon="12.58673"><ele>118.75</ele><time>2026-04-26T11:21:32.533Z</time></trkpt><trkpt lat="43.91666" lon="12.586885"><ele>118.0</ele><time>2026-04-26T11:21:33.536Z</time></trkpt><trkpt lat="43.9165733" lon="12.5870333"><ele>117.75</ele><time>2026-04-26T11:21:34.534Z</time></trkpt><trkpt lat="43.9164883" lon="12.58718"><ele>117.5</ele><time>2026-04-26T11:21:35.535Z</time></trkpt><trkpt lat="43.9164017" lon="12.5873217"><ele>117.25</ele><time>2026-04-26T11:21:36.535Z</time></trkpt><trkpt lat="43.91632" lon="12.5874583"><ele>117.0</ele><time>2026-04-26T11:21:37.535Z</time></trkpt><trkpt lat="43.9162483" lon="12.5875783"><ele>117.0</ele><time>2026-04-26T11:21:38.535Z</time></trkpt><trkpt lat="43.9161967" lon="12.5876783"><ele>117.0</ele><time>2026-04-26T11:21:39.535Z</time></trkpt><trkpt lat="43.9161567" lon="12.5877683"><ele>117.0</ele><time>2026-04-26T11:21:40.534Z</time></trkpt><trkpt lat="43.9161233" lon="12.5878633"><ele>117.0</ele><time>2026-04-26T11:21:41.535Z</time></trkpt><trkpt lat="43.9160917" lon="12.5879717"><ele>117.0</ele><time>2026-04-26T11:21:42.536Z</time></trkpt><trkpt lat="43.91606" lon="12.5880933"><ele>117.0</ele><time>2026-04-26T11:21:43.536Z</time></trkpt><trkpt lat="43.916025" lon="12.5882167"><ele>117.25</ele><time>2026-04-26T11:21:44.536Z</time></trkpt><trkpt lat="43.915985" lon="12.588355"><ele>117.5</ele><time>2026-04-26T11:21:45.539Z</time></trkpt><trkpt lat="43.91594" lon="12.5885067"><ele>117.75</ele><time>2026-04-26T11:21:46.533Z</time></trkpt><trkpt lat="43.915885" lon="12.5886667"><ele>118.0</ele><time>2026-04-26T11:21:47.534Z</time></trkpt><trkpt lat="43.91583" lon="12.5888367"><ele>117.5</ele><time>2026-04-26T11:21:48.536Z</time></trkpt><trkpt lat="43.9157733" lon="12.5890183"><ele>117.0</ele><time>2026-04-26T11:21:49.535Z</time></trkpt><trkpt lat="43.9157167" lon="12.5892067"><ele>116.5</ele><time>2026-04-26T11:21:50.534Z</time></trkpt><trkpt lat="43.9156583" lon="12.5893967"><ele>116.0</ele><time>2026-04-26T11:21:51.536Z</time></trkpt><trkpt lat="43.9156017" lon="12.589585"><ele>115.75</ele><time>2026-04-26T11:21:52.535Z</time></trkpt><trkpt lat="43.9155467" lon="12.5897733"><ele>115.5</ele><time>2026-04-26T11:21:53.535Z</time></trkpt><trkpt lat="43.9154917" lon="12.589965"><ele>115.25</ele><time>2026-04-26T11:21:54.535Z</time></trkpt><trkpt lat="43.9154317" lon="12.590155"><ele>115.0</ele><time>2026-04-26T11:21:55.535Z</time></trkpt><trkpt lat="43.9153733" lon="12.590345"><ele>114.66666666666667</ele><time>2026-04-26T11:21:56.536Z</time></trkpt><trkpt lat="43.915315" lon="12.5905383"><ele>114.33333333333334</ele><time>2026-04-26T11:21:57.532Z</time></trkpt><trkpt lat="43.9152583" lon="12.5907333"><ele>114.0</ele><time>2026-04-26T11:21:58.532Z</time></trkpt><trkpt lat="43.9151983" lon="12.5909267"><ele>114.0</ele><time>2026-04-26T11:21:59.533Z</time></trkpt><trkpt lat="43.9151367" lon="12.591125"><ele>114.0</ele><time>2026-04-26T11:22:00.533Z</time></trkpt><trkpt lat="43.915075" lon="12.5913317"><ele>114.0</ele><time>2026-04-26T11:22:01.536Z</time></trkpt><trkpt lat="43.915015" lon="12.5915367"><ele>113.66666666666666</ele><time>2026-04-26T11:22:02.535Z</time></trkpt><trkpt lat="43.9149517" lon="12.5917467"><ele>113.33333333333333</ele><time>2026-04-26T11:22:03.533Z</time></trkpt><trkpt lat="43.9148883" lon="12.5919583"><ele>113.0</ele><time>2026-04-26T11:22:04.533Z</time></trkpt><trkpt lat="43.91482" lon="12.5921783"><ele>112.66666666666666</ele><time>2026-04-26T11:22:05.537Z</time></trkpt><trkpt lat="43.9147517" lon="12.5924017"><ele>112.33333333333334</ele><time>2026-04-26T11:22:06.535Z</time></trkpt><trkpt lat="43.9146833" lon="12.5926267"><ele>112.0</ele><time>2026-04-26T11:22:07.537Z</time></trkpt><trkpt lat="43.914615" lon="12.5928483"><ele>113.0</ele><time>2026-04-26T11:22:08.536Z</time></trkpt><trkpt lat="43.9145583" lon="12.5930583"><ele>114.0</ele><time>2026-04-26T11:22:09.532Z</time></trkpt><trkpt lat="43.9145117" lon="12.5932583"><ele>115.0</ele><time>2026-04-26T11:22:10.536Z</time></trkpt><trkpt lat="43.9144733" lon="12.5934567"><ele>115.0</ele><time>2026-04-26T11:22:11.536Z</time></trkpt><trkpt lat="43.9144333" lon="12.5936517"><ele>115.0</ele><time>2026-04-26T11:22:12.533Z</time></trkpt><trkpt lat="43.9143833" lon="12.5938517"><ele>115.0</ele><time>2026-04-26T11:22:13.536Z</time></trkpt><trkpt lat="43.914325" lon="12.5940467"><ele>114.5</ele><time>2026-04-26T11:22:14.535Z</time></trkpt><trkpt lat="43.9142567" lon="12.5942217"><ele>114.0</ele><time>2026-04-26T11:22:15.533Z</time></trkpt><trkpt lat="43.914175" lon="12.5943833"><ele>113.5</ele><time>2026-04-26T11:22:16.535Z</time></trkpt><trkpt lat="43.9140783" lon="12.5945483"><ele>113.0</ele><time>2026-04-26T11:22:17.535Z</time></trkpt><trkpt lat="43.913975" lon="12.5947233"><ele>112.0</ele><time>2026-04-26T11:22:18.536Z</time></trkpt><trkpt lat="43.9138717" lon="12.5949067"><ele>111.0</ele><time>2026-04-26T11:22:19.533Z</time></trkpt><trkpt lat="43.913775" lon="12.5950983"><ele>110.0</ele><time>2026-04-26T11:22:20.535Z</time></trkpt><trkpt lat="43.9136883" lon="12.5952983"><ele>109.66666666666666</ele><time>2026-04-26T11:22:21.534Z</time></trkpt><trkpt lat="43.9136083" lon="12.595495"><ele>109.33333333333334</ele><time>2026-04-26T11:22:22.534Z</time></trkpt><trkpt lat="43.9135367" lon="12.595685"><ele>109.0</ele><time>2026-04-26T11:22:23.536Z</time></trkpt><trkpt lat="43.9134583" lon="12.5958783"><ele>109.0</ele><time>2026-04-26T11:22:24.535Z</time></trkpt><trkpt lat="43.913375" lon="12.5960767"><ele>109.0</ele><time>2026-04-26T11:22:25.536Z</time></trkpt><trkpt lat="43.91329" lon="12.5962833"><ele>109.0</ele><time>2026-04-26T11:22:26.534Z</time></trkpt><trkpt lat="43.9132067" lon="12.5964883"><ele>108.66666666666667</ele><time>2026-04-26T11:22:27.536Z</time></trkpt><trkpt lat="43.9131217" lon="12.5966933"><ele>108.33333333333334</ele><time>2026-04-26T11:22:28.532Z</time></trkpt><trkpt lat="43.9130383" lon="12.5969033"><ele>108.0</ele><time>2026-04-26T11:22:29.537Z</time></trkpt><trkpt lat="43.9129567" lon="12.5971167"><ele>108.0</ele><time>2026-04-26T11:22:30.534Z</time></trkpt><trkpt lat="43.91288" lon="12.5973183"><ele>108.0</ele><time>2026-04-26T11:22:31.536Z</time></trkpt><trkpt lat="43.912805" lon="12.597505"><ele>108.0</ele><time>2026-04-26T11:22:32.536Z</time></trkpt><trkpt lat="43.9127317" lon="12.59768"><ele>108.0</ele><time>2026-04-26T11:22:33.536Z</time></trkpt><trkpt lat="43.9126617" lon="12.5978417"><ele>108.00000000000001</ele><time>2026-04-26T11:22:34.535Z</time></trkpt><trkpt lat="43.9126" lon="12.597995"><ele>108.00000000000001</ele><time>2026-04-26T11:22:35.536Z</time></trkpt><trkpt lat="43.9125517" lon="12.5981267"><ele>108.0</ele><time>2026-04-26T11:22:36.535Z</time></trkpt><trkpt lat="43.91252" lon="12.5982183"><ele>108.0</ele><time>2026-04-26T11:22:37.536Z</time></trkpt><trkpt lat="43.9125" lon="12.598305"><ele>108.0</ele><time>2026-04-26T11:22:39.537Z</time></trkpt><trkpt lat="43.9125633" lon="12.59836"><ele>108.00000000000001</ele><time>2026-04-26T11:22:41.535Z</time></trkpt><trkpt lat="43.912635" lon="12.59839"><ele>108.00000000000001</ele><time>2026-04-26T11:22:42.536Z</time></trkpt><trkpt lat="43.912735" lon="12.5984283"><ele>108.0</ele><time>2026-04-26T11:22:43.536Z</time></trkpt><trkpt lat="43.912865" lon="12.5984933"><ele>108.0</ele><time>2026-04-26T11:22:44.537Z</time></trkpt><trkpt lat="43.9129917" lon="12.59856"><ele>108.0</ele><time>2026-04-26T11:22:45.536Z</time></trkpt><trkpt lat="43.91312" lon="12.598635"><ele>108.0</ele><time>2026-04-26T11:22:46.534Z</time></trkpt><trkpt lat="43.913245" lon="12.5987167"><ele>108.0</ele><time>2026-04-26T11:22:47.535Z</time></trkpt><trkpt lat="43.913365" lon="12.5988017"><ele>108.0</ele><time>2026-04-26T11:22:48.534Z</time></trkpt><trkpt lat="43.9134767" lon="12.5988833"><ele>108.25</ele><time>2026-04-26T11:22:49.535Z</time></trkpt><trkpt lat="43.91359" lon="12.5989617"><ele>108.5</ele><time>2026-04-26T11:22:50.535Z</time></trkpt><trkpt lat="43.9137033" lon="12.5990383"><ele>108.75</ele><time>2026-04-26T11:22:51.535Z</time></trkpt><trkpt lat="43.913815" lon="12.5991133"><ele>109.0</ele><time>2026-04-26T11:22:52.536Z</time></trkpt><trkpt lat="43.913925" lon="12.5991883"><ele>109.0</ele><time>2026-04-26T11:22:53.537Z</time></trkpt><trkpt lat="43.9140333" lon="12.5992617"><ele>109.0</ele><time>2026-04-26T11:22:54.535Z</time></trkpt><trkpt lat="43.9141483" lon="12.5993383"><ele>109.0</ele><time>2026-04-26T11:22:55.536Z</time></trkpt><trkpt lat="43.91427" lon="12.5994183"><ele>109.0</ele><time>2026-04-26T11:22:56.535Z</time></trkpt><trkpt lat="43.9143967" lon="12.5995"><ele>110.0</ele><time>2026-04-26T11:22:57.533Z</time></trkpt><trkpt lat="43.9145267" lon="12.59958"><ele>111.0</ele><time>2026-04-26T11:22:58.536Z</time></trkpt><trkpt lat="43.91466" lon="12.5996583"><ele>112.0</ele><time>2026-04-26T11:22:59.536Z</time></trkpt><trkpt lat="43.914795" lon="12.5997433"><ele>113.0</ele><time>2026-04-26T11:23:00.533Z</time></trkpt><trkpt lat="43.91493" lon="12.5998333"><ele>113.0</ele><time>2026-04-26T11:23:01.537Z</time></trkpt><trkpt lat="43.91506" lon="12.5999217"><ele>113.0</ele><time>2026-04-26T11:23:02.535Z</time></trkpt><trkpt lat="43.91519" lon="12.6000133"><ele>113.0</ele><time>2026-04-26T11:23:03.536Z</time></trkpt><trkpt lat="43.9153233" lon="12.6001"><ele>113.0</ele><time>2026-04-26T11:23:04.535Z</time></trkpt><trkpt lat="43.9154533" lon="12.6001867"><ele>114.0</ele><time>2026-04-26T11:23:05.533Z</time></trkpt><trkpt lat="43.91558" lon="12.6002733"><ele>115.0</ele><time>2026-04-26T11:23:06.533Z</time></trkpt><trkpt lat="43.9157" lon="12.60036"><ele>116.0</ele><time>2026-04-26T11:23:07.536Z</time></trkpt><trkpt lat="43.915815" lon="12.60044"><ele>117.0</ele><time>2026-04-26T11:23:08.536Z</time></trkpt><trkpt lat="43.915915" lon="12.6005133"><ele>117.83333333333333</ele><time>2026-04-26T11:23:09.534Z</time></trkpt><trkpt lat="43.9160017" lon="12.60058"><ele>118.66666666666666</ele><time>2026-04-26T11:23:10.536Z</time></trkpt><trkpt lat="43.916075" lon="12.6006333"><ele>119.5</ele><time>2026-04-26T11:23:11.539Z</time></trkpt><trkpt lat="43.9161333" lon="12.6006717"><ele>120.33333333333333</ele><time>2026-04-26T11:23:12.536Z</time></trkpt><trkpt lat="43.9161967" lon="12.6007117"><ele>121.16666666666666</ele><time>2026-04-26T11:23:14.536Z</time></trkpt><trkpt lat="43.91626" lon="12.6006633"><ele>122.0</ele><time>2026-04-26T11:23:19.536Z</time></trkpt><trkpt lat="43.9163367" lon="12.6004817"><ele>122.0</ele><time>2026-04-26T11:23:21.534Z</time></trkpt><trkpt lat="43.9163817" lon="12.6003517"><ele>122.0</ele><time>2026-04-26T11:23:22.534Z</time></trkpt><trkpt lat="43.9164317" lon="12.6001917"><ele>122.0</ele><time>2026-04-26T11:23:23.536Z</time></trkpt><trkpt lat="43.9164833" lon="12.600025"><ele>122.0</ele><time>2026-04-26T11:23:24.537Z</time></trkpt><trkpt lat="43.9165333" lon="12.59986"><ele>122.0</ele><time>2026-04-26T11:23:25.536Z</time></trkpt><trkpt lat="43.9165817" lon="12.59971"><ele>122.0</ele><time>2026-04-26T11:23:26.536Z</time></trkpt><trkpt lat="43.9166233" lon="12.5995617"><ele>122.0</ele><time>2026-04-26T11:23:27.533Z</time></trkpt><trkpt lat="43.9166667" lon="12.5994133"><ele>122.0</ele><time>2026-04-26T11:23:28.536Z</time></trkpt><trkpt lat="43.916715" lon="12.5992617"><ele>125.0</ele><time>2026-04-26T11:23:29.536Z</time></trkpt><trkpt lat="43.9167667" lon="12.5991017"><ele>128.0</ele><time>2026-04-26T11:23:30.535Z</time></trkpt><trkpt lat="43.916815" lon="12.59894"><ele>131.0</ele><time>2026-04-26T11:23:31.536Z</time></trkpt><trkpt lat="43.916865" lon="12.59878"><ele>134.0</ele><time>2026-04-26T11:23:32.536Z</time></trkpt><trkpt lat="43.91691" lon="12.5986183"><ele>134.0</ele><time>2026-04-26T11:23:33.536Z</time></trkpt><trkpt lat="43.9169533" lon="12.5984617"><ele>134.0</ele><time>2026-04-26T11:23:34.536Z</time></trkpt><trkpt lat="43.916995" lon="12.5982983"><ele>134.0</ele><time>2026-04-26T11:23:35.536Z</time></trkpt><trkpt lat="43.9170267" lon="12.5981267"><ele>134.0</ele><time>2026-04-26T11:23:36.535Z</time></trkpt><trkpt lat="43.91705" lon="12.59795"><ele>133.0</ele><time>2026-04-26T11:23:37.536Z</time></trkpt><trkpt lat="43.9170583" lon="12.5977683"><ele>132.0</ele><time>2026-04-26T11:23:38.534Z</time></trkpt><trkpt lat="43.9170567" lon="12.5975967"><ele>131.0</ele><time>2026-04-26T11:23:39.535Z</time></trkpt><trkpt lat="43.9170483" lon="12.597435"><ele>130.0</ele><time>2026-04-26T11:23:40.536Z</time></trkpt><trkpt lat="43.9170417" lon="12.5972867"><ele>130.0</ele><time>2026-04-26T11:23:41.533Z</time></trkpt><trkpt lat="43.91704" lon="12.59715"><ele>130.0</ele><time>2026-04-26T11:23:42.534Z</time></trkpt><trkpt lat="43.91704" lon="12.59701"><ele>130.0</ele><time>2026-04-26T11:23:43.536Z</time></trkpt><trkpt lat="43.9170317" lon="12.5968517"><ele>130.0</ele><time>2026-04-26T11:23:44.533Z</time></trkpt><trkpt lat="43.9170117" lon="12.596675"><ele>130.0</ele><time>2026-04-26T11:23:45.534Z</time></trkpt><trkpt lat="43.9169967" lon="12.5964817"><ele>129.66666666666669</ele><time>2026-04-26T11:23:46.533Z</time></trkpt><trkpt lat="43.9169867" lon="12.5962767"><ele>129.33333333333334</ele><time>2026-04-26T11:23:47.534Z</time></trkpt><trkpt lat="43.9169883" lon="12.5960617"><ele>129.0</ele><time>2026-04-26T11:23:48.534Z</time></trkpt><trkpt lat="43.916995" lon="12.59584"><ele>128.33333333333334</ele><time>2026-04-26T11:23:49.533Z</time></trkpt><trkpt lat="43.9170033" lon="12.595615"><ele>127.66666666666667</ele><time>2026-04-26T11:23:50.533Z</time></trkpt><trkpt lat="43.9170133" lon="12.5953867"><ele>127.0</ele><time>2026-04-26T11:23:51.535Z</time></trkpt><trkpt lat="43.9170233" lon="12.5951533"><ele>126.33333333333334</ele><time>2026-04-26T11:23:52.534Z</time></trkpt><trkpt lat="43.9170367" lon="12.5949167"><ele>125.66666666666666</ele><time>2026-04-26T11:23:53.537Z</time></trkpt><trkpt lat="43.9170467" lon="12.594675"><ele>125.0</ele><time>2026-04-26T11:23:54.536Z</time></trkpt><trkpt lat="43.9170567" lon="12.5944333"><ele>124.33333333333333</ele><time>2026-04-26T11:23:55.536Z</time></trkpt><trkpt lat="43.9170633" lon="12.5941917"><ele>123.66666666666666</ele><time>2026-04-26T11:23:56.536Z</time></trkpt><trkpt lat="43.9170767" lon="12.5939467"><ele>123.0</ele><time>2026-04-26T11:23:57.536Z</time></trkpt><trkpt lat="43.9170967" lon="12.5937017"><ele>123.0</ele><time>2026-04-26T11:23:58.537Z</time></trkpt><trkpt lat="43.91713" lon="12.5934533"><ele>123.0</ele><time>2026-04-26T11:23:59.536Z</time></trkpt><trkpt lat="43.9171817" lon="12.5932033"><ele>123.0</ele><time>2026-04-26T11:24:00.537Z</time></trkpt><trkpt lat="43.91725" lon="12.5929533"><ele>123.33333333333334</ele><time>2026-04-26T11:24:01.536Z</time></trkpt><trkpt lat="43.9173217" lon="12.5926983"><ele>123.66666666666667</ele><time>2026-04-26T11:24:02.536Z</time></trkpt><trkpt lat="43.917395" lon="12.5924417"><ele>124.0</ele><time>2026-04-26T11:24:03.537Z</time></trkpt><trkpt lat="43.9174667" lon="12.5921833"><ele>123.33333333333334</ele><time>2026-04-26T11:24:04.534Z</time></trkpt><trkpt lat="43.9175367" lon="12.5919233"><ele>122.66666666666666</ele><time>2026-04-26T11:24:05.535Z</time></trkpt><trkpt lat="43.91761" lon="12.59166"><ele>122.0</ele><time>2026-04-26T11:24:06.533Z</time></trkpt><trkpt lat="43.9176817" lon="12.5913967"><ele>123.0</ele><time>2026-04-26T11:24:07.534Z</time></trkpt><trkpt lat="43.917755" lon="12.5911333"><ele>124.0</ele><time>2026-04-26T11:24:08.537Z</time></trkpt><trkpt lat="43.9178283" lon="12.5908717"><ele>125.0</ele><time>2026-04-26T11:24:09.533Z</time></trkpt><trkpt lat="43.9178983" lon="12.590605"><ele>124.66666666666666</ele><time>2026-04-26T11:24:10.534Z</time></trkpt><trkpt lat="43.9179667" lon="12.5903367"><ele>124.33333333333334</ele><time>2026-04-26T11:24:11.535Z</time></trkpt><trkpt lat="43.9180217" lon="12.5900733"><ele>124.0</ele><time>2026-04-26T11:24:12.534Z</time></trkpt><trkpt lat="43.9180633" lon="12.5898117"><ele>124.0</ele><time>2026-04-26T11:24:13.537Z</time></trkpt><trkpt lat="43.918095" lon="12.5895533"><ele>124.0</ele><time>2026-04-26T11:24:14.533Z</time></trkpt><trkpt lat="43.9181233" lon="12.5892917"><ele>124.0</ele><time>2026-04-26T11:24:15.534Z</time></trkpt><trkpt lat="43.918155" lon="12.58903"><ele>124.0</ele><time>2026-04-26T11:24:16.534Z</time></trkpt><trkpt lat="43.918195" lon="12.5887717"><ele>124.0</ele><time>2026-04-26T11:24:17.534Z</time></trkpt><trkpt lat="43.9182433" lon="12.588515"><ele>124.0</ele><time>2026-04-26T11:24:18.534Z</time></trkpt><trkpt lat="43.918305" lon="12.5882683"><ele>123.66666666666667</ele><time>2026-04-26T11:24:19.535Z</time></trkpt><trkpt lat="43.9183817" lon="12.588025"><ele>123.33333333333334</ele><time>2026-04-26T11:24:20.534Z</time></trkpt><trkpt lat="43.9184633" lon="12.5877833"><ele>123.0</ele><time>2026-04-26T11:24:21.534Z</time></trkpt><trkpt lat="43.918545" lon="12.58754"><ele>123.66666666666666</ele><time>2026-04-26T11:24:22.536Z</time></trkpt><trkpt lat="43.9186283" lon="12.5872917"><ele>124.33333333333333</ele><time>2026-04-26T11:24:23.536Z</time></trkpt><trkpt lat="43.9187083" lon="12.5870417"><ele>125.0</ele><time>2026-04-26T11:24:24.536Z</time></trkpt><trkpt lat="43.9187917" lon="12.5867867"><ele>125.0</ele><time>2026-04-26T11:24:25.536Z</time></trkpt><trkpt lat="43.918875" lon="12.58653"><ele>125.0</ele><time>2026-04-26T11:24:26.537Z</time></trkpt><trkpt lat="43.91896" lon="12.5862717"><ele>125.0</ele><time>2026-04-26T11:24:27.536Z</time></trkpt><trkpt lat="43.9190433" lon="12.5860117"><ele>124.33333333333333</ele><time>2026-04-26T11:24:28.536Z</time></trkpt><trkpt lat="43.9191283" lon="12.58575"><ele>123.66666666666666</ele><time>2026-04-26T11:24:29.537Z</time></trkpt><trkpt lat="43.9192133" lon="12.58549"><ele>123.0</ele><time>2026-04-26T11:24:30.537Z</time></trkpt><trkpt lat="43.9193017" lon="12.5852317"><ele>125.0</ele><time>2026-04-26T11:24:31.536Z</time></trkpt><trkpt lat="43.9193917" lon="12.5849733"><ele>127.0</ele><time>2026-04-26T11:24:32.536Z</time></trkpt><trkpt lat="43.9194783" lon="12.584715"><ele>129.0</ele><time>2026-04-26T11:24:33.536Z</time></trkpt><trkpt lat="43.9195683" lon="12.5844567"><ele>129.0</ele><time>2026-04-26T11:24:34.536Z</time></trkpt><trkpt lat="43.91966" lon="12.5841983"><ele>129.0</ele><time>2026-04-26T11:24:35.538Z</time></trkpt><trkpt lat="43.9197533" lon="12.5839383"><ele>129.0</ele><time>2026-04-26T11:24:36.536Z</time></trkpt><trkpt lat="43.9198433" lon="12.5836767"><ele>128.0</ele><time>2026-04-26T11:24:37.537Z</time></trkpt><trkpt lat="43.9199217" lon="12.5834083"><ele>127.0</ele><time>2026-04-26T11:24:38.536Z</time></trkpt><trkpt lat="43.9199817" lon="12.58313"><ele>126.0</ele><time>2026-04-26T11:24:39.534Z</time></trkpt><trkpt lat="43.9200183" lon="12.5828467"><ele>126.0</ele><time>2026-04-26T11:24:40.537Z</time></trkpt><trkpt lat="43.92003" lon="12.58256"><ele>126.0</ele><time>2026-04-26T11:24:41.533Z</time></trkpt><trkpt lat="43.9200317" lon="12.5822717"><ele>126.0</ele><time>2026-04-26T11:24:42.541Z</time></trkpt><trkpt lat="43.920025" lon="12.58198"><ele>126.0</ele><time>2026-04-26T11:24:43.535Z</time></trkpt><trkpt lat="43.9200167" lon="12.58169"><ele>126.0</ele><time>2026-04-26T11:24:44.537Z</time></trkpt><trkpt lat="43.9200117" lon="12.5813883"><ele>126.0</ele><time>2026-04-26T11:24:45.536Z</time></trkpt><trkpt lat="43.9200083" lon="12.5810833"><ele>126.0</ele><time>2026-04-26T11:24:46.533Z</time></trkpt><trkpt lat="43.9200067" lon="12.5807833"><ele>126.0</ele><time>2026-04-26T11:24:47.533Z</time></trkpt><trkpt lat="43.9200017" lon="12.5804867"><ele>126.0</ele><time>2026-04-26T11:24:48.533Z</time></trkpt><trkpt lat="43.9199917" lon="12.5801933"><ele>126.33333333333334</ele><time>2026-04-26T11:24:49.533Z</time></trkpt><trkpt lat="43.9199717" lon="12.579905"><ele>126.66666666666667</ele><time>2026-04-26T11:24:50.534Z</time></trkpt><trkpt lat="43.91993" lon="12.57962"><ele>127.0</ele><time>2026-04-26T11:24:51.534Z</time></trkpt><trkpt lat="43.9198683" lon="12.5793433"><ele>127.66666666666667</ele><time>2026-04-26T11:24:52.533Z</time></trkpt><trkpt lat="43.9197933" lon="12.5790767"><ele>128.33333333333334</ele><time>2026-04-26T11:24:53.534Z</time></trkpt><trkpt lat="43.9197167" lon="12.5788283"><ele>129.0</ele><time>2026-04-26T11:24:54.534Z</time></trkpt><trkpt lat="43.9196417" lon="12.5785967"><ele>130.0</ele><time>2026-04-26T11:24:55.533Z</time></trkpt><trkpt lat="43.9195733" lon="12.5783667"><ele>131.0</ele><time>2026-04-26T11:24:56.536Z</time></trkpt><trkpt lat="43.9195167" lon="12.578125"><ele>132.0</ele><time>2026-04-26T11:24:57.537Z</time></trkpt><trkpt lat="43.91946" lon="12.57787"><ele>132.33333333333334</ele><time>2026-04-26T11:24:58.536Z</time></trkpt><trkpt lat="43.9193967" lon="12.5776033"><ele>132.66666666666669</ele><time>2026-04-26T11:24:59.536Z</time></trkpt><trkpt lat="43.919325" lon="12.5773333"><ele>133.0</ele><time>2026-04-26T11:25:00.536Z</time></trkpt><trkpt lat="43.9192567" lon="12.5770633"><ele>132.66666666666669</ele><time>2026-04-26T11:25:01.534Z</time></trkpt><trkpt lat="43.9191867" lon="12.5767933"><ele>132.33333333333334</ele><time>2026-04-26T11:25:02.534Z</time></trkpt><trkpt lat="43.9191117" lon="12.57652"><ele>132.0</ele><time>2026-04-26T11:25:03.537Z</time></trkpt><trkpt lat="43.91904" lon="12.5762417"><ele>132.66666666666666</ele><time>2026-04-26T11:25:04.536Z</time></trkpt><trkpt lat="43.9189683" lon="12.5759683"><ele>133.33333333333331</ele><time>2026-04-26T11:25:05.533Z</time></trkpt><trkpt lat="43.9188983" lon="12.5757083"><ele>134.0</ele><time>2026-04-26T11:25:06.536Z</time></trkpt><trkpt lat="43.9188333" lon="12.5754633"><ele>135.0</ele><time>2026-04-26T11:25:07.536Z</time></trkpt><trkpt lat="43.918775" lon="12.5752383"><ele>136.0</ele><time>2026-04-26T11:25:08.537Z</time></trkpt><trkpt lat="43.9187167" lon="12.5750183"><ele>137.0</ele><time>2026-04-26T11:25:09.536Z</time></trkpt><trkpt lat="43.9186583" lon="12.5747967"><ele>137.0</ele><time>2026-04-26T11:25:10.537Z</time></trkpt><trkpt lat="43.9186017" lon="12.5745667"><ele>137.0</ele><time>2026-04-26T11:25:11.536Z</time></trkpt><trkpt lat="43.918545" lon="12.574325"><ele>137.0</ele><time>2026-04-26T11:25:12.536Z</time></trkpt><trkpt lat="43.918485" lon="12.5740783"><ele>137.0</ele><time>2026-04-26T11:25:13.537Z</time></trkpt><trkpt lat="43.9184233" lon="12.57383"><ele>137.0</ele><time>2026-04-26T11:25:14.538Z</time></trkpt><trkpt lat="43.9183567" lon="12.5735783"><ele>137.0</ele><time>2026-04-26T11:25:15.536Z</time></trkpt><trkpt lat="43.91829" lon="12.5733217"><ele>137.0</ele><time>2026-04-26T11:25:16.536Z</time></trkpt><trkpt lat="43.918225" lon="12.573065"><ele>137.0</ele><time>2026-04-26T11:25:17.536Z</time></trkpt><trkpt lat="43.91816" lon="12.57281"><ele>137.0</ele><time>2026-04-26T11:25:18.533Z</time></trkpt><trkpt lat="43.918095" lon="12.5725567"><ele>137.66666666666666</ele><time>2026-04-26T11:25:19.536Z</time></trkpt><trkpt lat="43.9180283" lon="12.57231"><ele>138.33333333333334</ele><time>2026-04-26T11:25:20.536Z</time></trkpt><trkpt lat="43.9179633" lon="12.5720733"><ele>139.0</ele><time>2026-04-26T11:25:21.534Z</time></trkpt><trkpt lat="43.9179017" lon="12.5718483"><ele>140.0</ele><time>2026-04-26T11:25:22.533Z</time></trkpt><trkpt lat="43.9178433" lon="12.5716333"><ele>141.0</ele><time>2026-04-26T11:25:23.536Z</time></trkpt><trkpt lat="43.9177883" lon="12.5714233"><ele>142.0</ele><time>2026-04-26T11:25:24.536Z</time></trkpt><trkpt lat="43.9177383" lon="12.5712083"><ele>142.33333333333334</ele><time>2026-04-26T11:25:25.536Z</time></trkpt><trkpt lat="43.9176983" lon="12.5709833"><ele>142.66666666666666</ele><time>2026-04-26T11:25:26.536Z</time></trkpt><trkpt lat="43.9176717" lon="12.57075"><ele>143.0</ele><time>2026-04-26T11:25:27.536Z</time></trkpt><trkpt lat="43.91766" lon="12.5705067"><ele>143.0</ele><time>2026-04-26T11:25:28.536Z</time></trkpt><trkpt lat="43.91766" lon="12.5702617"><ele>143.0</ele><time>2026-04-26T11:25:29.536Z</time></trkpt><trkpt lat="43.9176683" lon="12.57003"><ele>143.0</ele><time>2026-04-26T11:25:30.537Z</time></trkpt><trkpt lat="43.9176767" lon="12.5698117"><ele>143.0</ele><time>2026-04-26T11:25:31.536Z</time></trkpt><trkpt lat="43.9176817" lon="12.5696083"><ele>143.0</ele><time>2026-04-26T11:25:32.537Z</time></trkpt><trkpt lat="43.91769" lon="12.5694217"><ele>143.0</ele><time>2026-04-26T11:25:33.536Z</time></trkpt><trkpt lat="43.9176983" lon="12.569245"><ele>143.0</ele><time>2026-04-26T11:25:34.537Z</time></trkpt><trkpt lat="43.9177033" lon="12.569085"><ele>143.0</ele><time>2026-04-26T11:25:35.537Z</time></trkpt><trkpt lat="43.9177067" lon="12.568945"><ele>143.0</ele><time>2026-04-26T11:25:36.536Z</time></trkpt><trkpt lat="43.9177083" lon="12.5688383"><ele>143.0</ele><time>2026-04-26T11:25:37.536Z</time></trkpt><trkpt lat="43.9177" lon="12.56872"><ele>143.0</ele><time>2026-04-26T11:25:39.536Z</time></trkpt><trkpt lat="43.9176067" lon="12.568695"><ele>143.0</ele><time>2026-04-26T11:25:42.536Z</time></trkpt><trkpt lat="43.9174967" lon="12.5686683"><ele>142.66666666666666</ele><time>2026-04-26T11:25:44.538Z</time></trkpt><trkpt lat="43.9174317" lon="12.5686717"><ele>142.33333333333331</ele><time>2026-04-26T11:25:45.536Z</time></trkpt><trkpt lat="43.91736" lon="12.5686967"><ele>142.0</ele><time>2026-04-26T11:25:46.534Z</time></trkpt><trkpt lat="43.91728" lon="12.5687417"><ele>141.66666666666666</ele><time>2026-04-26T11:25:47.537Z</time></trkpt><trkpt lat="43.9172017" lon="12.5688067"><ele>141.33333333333334</ele><time>2026-04-26T11:25:48.536Z</time></trkpt><trkpt lat="43.91713" lon="12.5688733"><ele>141.0</ele><time>2026-04-26T11:25:49.535Z</time></trkpt><trkpt lat="43.9170633" lon="12.568935"><ele>140.66666666666666</ele><time>2026-04-26T11:25:50.536Z</time></trkpt><trkpt lat="43.9170033" lon="12.56898"><ele>140.33333333333334</ele><time>2026-04-26T11:25:51.534Z</time></trkpt><trkpt lat="43.9169067" lon="12.56904"><ele>140.0</ele><time>2026-04-26T11:25:53.536Z</time></trkpt><trkpt lat="43.91698" lon="12.5690283"><ele>139.66666666666669</ele><time>2026-04-26T11:25:59.535Z</time></trkpt><trkpt lat="43.9170317" lon="12.5689717"><ele>139.33333333333334</ele><time>2026-04-26T11:26:00.536Z</time></trkpt><trkpt lat="43.917095" lon="12.56891"><ele>139.0</ele><time>2026-04-26T11:26:01.538Z</time></trkpt><trkpt lat="43.91716" lon="12.56885"><ele>139.0</ele><time>2026-04-26T11:26:02.533Z</time></trkpt><trkpt lat="43.917235" lon="12.568795"><ele>139.0</ele><time>2026-04-26T11:26:03.534Z</time></trkpt><trkpt lat="43.9173167" lon="12.5687433"><ele>139.0</ele><time>2026-04-26T11:26:04.534Z</time></trkpt><trkpt lat="43.9174067" lon="12.5687117"><ele>139.0</ele><time>2026-04-26T11:26:05.537Z</time></trkpt><trkpt lat="43.9174933" lon="12.5687017"><ele>139.0</ele><time>2026-04-26T11:26:06.535Z</time></trkpt><trkpt lat="43.91757" lon="12.5687083"><ele>139.0</ele><time>2026-04-26T11:26:07.535Z</time></trkpt><trkpt lat="43.91765" lon="12.5687383"><ele>139.8</ele><time>2026-04-26T11:26:09.535Z</time></trkpt><trkpt lat="43.9176933" lon="12.5686167"><ele>140.60000000000002</ele><time>2026-04-26T11:26:16.536Z</time></trkpt><trkpt lat="43.9177017" lon="12.5684267"><ele>141.4</ele><time>2026-04-26T11:26:18.535Z</time></trkpt><trkpt lat="43.917705" lon="12.5683183"><ele>142.20000000000002</ele><time>2026-04-26T11:26:19.536Z</time></trkpt><trkpt lat="43.91771" lon="12.5682"><ele>143.0</ele><time>2026-04-26T11:26:20.536Z</time></trkpt><trkpt lat="43.9177117" lon="12.5680717"><ele>143.0</ele><time>2026-04-26T11:26:21.535Z</time></trkpt><trkpt lat="43.9177083" lon="12.5679233"><ele>143.0</ele><time>2026-04-26T11:26:22.535Z</time></trkpt><trkpt lat="43.9177033" lon="12.56776"><ele>143.0</ele><time>2026-04-26T11:26:23.535Z</time></trkpt><trkpt lat="43.9176933" lon="12.5675967"><ele>143.0</ele><time>2026-04-26T11:26:24.536Z</time></trkpt><trkpt lat="43.91766" lon="12.567425"><ele>143.25</ele><time>2026-04-26T11:26:25.539Z</time></trkpt><trkpt lat="43.9175917" lon="12.5672567"><ele>143.5</ele><time>2026-04-26T11:26:26.535Z</time></trkpt><trkpt lat="43.9174983" lon="12.5670967"><ele>143.75</ele><time>2026-04-26T11:26:27.536Z</time></trkpt><trkpt lat="43.917385" lon="12.566945"><ele>144.0</ele><time>2026-04-26T11:26:28.534Z</time></trkpt><trkpt lat="43.9172517" lon="12.5668017"><ele>144.0</ele><time>2026-04-26T11:26:29.537Z</time></trkpt><trkpt lat="43.9171017" lon="12.5666633"><ele>144.0</ele><time>2026-04-26T11:26:30.536Z</time></trkpt><trkpt lat="43.9169433" lon="12.5665233"><ele>144.0</ele><time>2026-04-26T11:26:31.533Z</time></trkpt><trkpt lat="43.91678" lon="12.5663783"><ele>143.33333333333334</ele><time>2026-04-26T11:26:32.536Z</time></trkpt><trkpt lat="43.9166183" lon="12.5662317"><ele>142.66666666666669</ele><time>2026-04-26T11:26:33.535Z</time></trkpt><trkpt lat="43.9164567" lon="12.5660767"><ele>142.0</ele><time>2026-04-26T11:26:34.536Z</time></trkpt><trkpt lat="43.9163017" lon="12.5659183"><ele>142.0</ele><time>2026-04-26T11:26:35.536Z</time></trkpt><trkpt lat="43.9161533" lon="12.56576"><ele>142.0</ele><time>2026-04-26T11:26:36.535Z</time></trkpt><trkpt lat="43.9160117" lon="12.5656117"><ele>142.0</ele><time>2026-04-26T11:26:37.54Z</time></trkpt><trkpt lat="43.9158817" lon="12.56547"><ele>143.5</ele><time>2026-04-26T11:26:38.535Z</time></trkpt><trkpt lat="43.9157683" lon="12.5653333"><ele>145.0</ele><time>2026-04-26T11:26:39.535Z</time></trkpt><trkpt lat="43.9156817" lon="12.5651917"><ele>146.5</ele><time>2026-04-26T11:26:40.535Z</time></trkpt><trkpt lat="43.9156217" lon="12.56504"><ele>148.0</ele><time>2026-04-26T11:26:41.535Z</time></trkpt><trkpt lat="43.9155883" lon="12.5648783"><ele>148.0</ele><time>2026-04-26T11:26:42.536Z</time></trkpt><trkpt lat="43.9155917" lon="12.5646983"><ele>148.0</ele><time>2026-04-26T11:26:43.536Z</time></trkpt><trkpt lat="43.9156017" lon="12.5645017"><ele>148.0</ele><time>2026-04-26T11:26:44.534Z</time></trkpt><trkpt lat="43.9156167" lon="12.5643017"><ele>148.0</ele><time>2026-04-26T11:26:45.536Z</time></trkpt><trkpt lat="43.9156317" lon="12.5640933"><ele>149.25</ele><time>2026-04-26T11:26:46.536Z</time></trkpt><trkpt lat="43.9156417" lon="12.5638833"><ele>150.5</ele><time>2026-04-26T11:26:47.536Z</time></trkpt><trkpt lat="43.91564" lon="12.5636767"><ele>151.75</ele><time>2026-04-26T11:26:48.535Z</time></trkpt><trkpt lat="43.9156233" lon="12.563475"><ele>153.0</ele><time>2026-04-26T11:26:49.537Z</time></trkpt><trkpt lat="43.91558" lon="12.5632933"><ele>154.75</ele><time>2026-04-26T11:26:50.535Z</time></trkpt><trkpt lat="43.9154983" lon="12.5631333"><ele>156.5</ele><time>2026-04-26T11:26:51.535Z</time></trkpt><trkpt lat="43.915385" lon="12.5630033"><ele>158.25</ele><time>2026-04-26T11:26:52.537Z</time></trkpt><trkpt lat="43.9152533" lon="12.562915"><ele>160.0</ele><time>2026-04-26T11:26:53.535Z</time></trkpt><trkpt lat="43.9151117" lon="12.5628533"><ele>159.75</ele><time>2026-04-26T11:26:54.536Z</time></trkpt><trkpt lat="43.9149733" lon="12.5628017"><ele>159.5</ele><time>2026-04-26T11:26:55.536Z</time></trkpt><trkpt lat="43.9148433" lon="12.56274"><ele>159.25</ele><time>2026-04-26T11:26:56.536Z</time></trkpt><trkpt lat="43.9147283" lon="12.5626483"><ele>159.0</ele><time>2026-04-26T11:26:57.533Z</time></trkpt><trkpt lat="43.9146167" lon="12.562525"><ele>159.0</ele><time>2026-04-26T11:26:58.535Z</time></trkpt><trkpt lat="43.9145217" lon="12.5623667"><ele>159.0</ele><time>2026-04-26T11:26:59.533Z</time></trkpt><trkpt lat="43.9144317" lon="12.56219"><ele>159.0</ele><time>2026-04-26T11:27:00.534Z</time></trkpt><trkpt lat="43.9143383" lon="12.562005"><ele>159.33333333333334</ele><time>2026-04-26T11:27:01.534Z</time></trkpt><trkpt lat="43.9142433" lon="12.5618167"><ele>159.66666666666669</ele><time>2026-04-26T11:27:02.535Z</time></trkpt><trkpt lat="43.9141467" lon="12.5616267"><ele>160.0</ele><time>2026-04-26T11:27:03.533Z</time></trkpt><trkpt lat="43.91405" lon="12.5614383"><ele>160.0</ele><time>2026-04-26T11:27:04.535Z</time></trkpt><trkpt lat="43.9139533" lon="12.5612517"><ele>160.0</ele><time>2026-04-26T11:27:05.535Z</time></trkpt><trkpt lat="43.913855" lon="12.5610667"><ele>160.0</ele><time>2026-04-26T11:27:06.533Z</time></trkpt><trkpt lat="43.913755" lon="12.5608833"><ele>160.33333333333334</ele><time>2026-04-26T11:27:07.534Z</time></trkpt><trkpt lat="43.913655" lon="12.5607"><ele>160.66666666666666</ele><time>2026-04-26T11:27:08.533Z</time></trkpt><trkpt lat="43.91356" lon="12.5605217"><ele>161.0</ele><time>2026-04-26T11:27:09.533Z</time></trkpt><trkpt lat="43.9134733" lon="12.5603533"><ele>161.75</ele><time>2026-04-26T11:27:10.534Z</time></trkpt><trkpt lat="43.9133917" lon="12.5601917"><ele>162.5</ele><time>2026-04-26T11:27:11.533Z</time></trkpt><trkpt lat="43.91331" lon="12.5600317"><ele>163.25</ele><time>2026-04-26T11:27:12.533Z</time></trkpt><trkpt lat="43.9132267" lon="12.5598683"><ele>164.0</ele><time>2026-04-26T11:27:13.533Z</time></trkpt><trkpt lat="43.9131433" lon="12.5597"><ele>164.0</ele><time>2026-04-26T11:27:14.536Z</time></trkpt><trkpt lat="43.9130633" lon="12.5595383"><ele>164.0</ele><time>2026-04-26T11:27:15.537Z</time></trkpt><trkpt lat="43.91299" lon="12.55939"><ele>164.0</ele><time>2026-04-26T11:27:16.536Z</time></trkpt><trkpt lat="43.9129233" lon="12.559255"><ele>164.0</ele><time>2026-04-26T11:27:17.534Z</time></trkpt><trkpt lat="43.9128683" lon="12.559145"><ele>164.0</ele><time>2026-04-26T11:27:18.535Z</time></trkpt><trkpt lat="43.9128167" lon="12.55906"><ele>164.0</ele><time>2026-04-26T11:27:19.535Z</time></trkpt><trkpt lat="43.9127483" lon="12.5590267"><ele>164.0</ele><time>2026-04-26T11:27:22.534Z</time></trkpt><trkpt lat="43.9127117" lon="12.5591433"><ele>164.0</ele><time>2026-04-26T11:27:24.535Z</time></trkpt><trkpt lat="43.9126517" lon="12.55919"><ele>164.0</ele><time>2026-04-26T11:27:25.534Z</time></trkpt><trkpt lat="43.912565" lon="12.5592367"><ele>164.0</ele><time>2026-04-26T11:27:26.535Z</time></trkpt><trkpt lat="43.912475" lon="12.5592767"><ele>164.0</ele><time>2026-04-26T11:27:27.534Z</time></trkpt><trkpt lat="43.9123867" lon="12.55931"><ele>164.0</ele><time>2026-04-26T11:27:28.536Z</time></trkpt><trkpt lat="43.912295" lon="12.5593417"><ele>164.0</ele><time>2026-04-26T11:27:29.535Z</time></trkpt><trkpt lat="43.9122133" lon="12.5593717"><ele>164.0</ele><time>2026-04-26T11:27:30.536Z</time></trkpt><trkpt lat="43.91214" lon="12.55941"><ele>164.0</ele><time>2026-04-26T11:27:31.537Z</time></trkpt><trkpt lat="43.9120733" lon="12.55946"><ele>164.0</ele><time>2026-04-26T11:27:32.536Z</time></trkpt><trkpt lat="43.9120067" lon="12.5595183"><ele>163.2</ele><time>2026-04-26T11:27:33.534Z</time></trkpt><trkpt lat="43.9119467" lon="12.5595933"><ele>162.39999999999998</ele><time>2026-04-26T11:27:34.535Z</time></trkpt><trkpt lat="43.9118817" lon="12.559685"><ele>161.6</ele><time>2026-04-26T11:27:35.534Z</time></trkpt><trkpt lat="43.9118067" lon="12.5598033"><ele>160.8</ele><time>2026-04-26T11:27:36.536Z</time></trkpt><trkpt lat="43.91173" lon="12.559935"><ele>160.0</ele><time>2026-04-26T11:27:37.536Z</time></trkpt><trkpt lat="43.9116567" lon="12.56007"><ele>158.8</ele><time>2026-04-26T11:27:38.535Z</time></trkpt><trkpt lat="43.9115833" lon="12.5602033"><ele>157.6</ele><time>2026-04-26T11:27:39.536Z</time></trkpt><trkpt lat="43.9115133" lon="12.560335"><ele>156.4</ele><time>2026-04-26T11:27:40.536Z</time></trkpt><trkpt lat="43.9114517" lon="12.560455"><ele>155.2</ele><time>2026-04-26T11:27:41.536Z</time></trkpt><trkpt lat="43.9113917" lon="12.5605633"><ele>154.0</ele><time>2026-04-26T11:27:42.535Z</time></trkpt><trkpt lat="43.9113333" lon="12.5606633"><ele>153.33333333333334</ele><time>2026-04-26T11:27:43.536Z</time></trkpt><trkpt lat="43.9112817" lon="12.5607533"><ele>152.66666666666669</ele><time>2026-04-26T11:27:44.534Z</time></trkpt><trkpt lat="43.911235" lon="12.5608367"><ele>152.0</ele><time>2026-04-26T11:27:45.535Z</time></trkpt><trkpt lat="43.9111667" lon="12.5609533"><ele>151.33333333333334</ele><time>2026-04-26T11:27:47.532Z</time></trkpt><trkpt lat="43.9110917" lon="12.5610133"><ele>150.66666666666666</ele><time>2026-04-26T11:27:49.533Z</time></trkpt><trkpt lat="43.9110333" lon="12.56105"><ele>150.0</ele><time>2026-04-26T11:27:52.534Z</time></trkpt><trkpt lat="43.9111033" lon="12.5610767"><ele>150.0</ele><time>2026-04-26T11:27:57.533Z</time></trkpt><trkpt lat="43.9111517" lon="12.56098"><ele>150.0</ele><time>2026-04-26T11:27:59.532Z</time></trkpt><trkpt lat="43.911185" lon="12.5608917"><ele>150.0</ele><time>2026-04-26T11:28:00.533Z</time></trkpt><trkpt lat="43.9112383" lon="12.5607783"><ele>150.0</ele><time>2026-04-26T11:28:01.534Z</time></trkpt><trkpt lat="43.9112883" lon="12.5606633"><ele>150.0</ele><time>2026-04-26T11:28:02.537Z</time></trkpt><trkpt lat="43.9113967" lon="12.5604983"><ele>151.0</ele><time>2026-04-26T11:28:03.536Z</time></trkpt><trkpt lat="43.9114833" lon="12.5603533"><ele>152.0</ele><time>2026-04-26T11:28:04.535Z</time></trkpt><trkpt lat="43.9115617" lon="12.5602117"><ele>153.0</ele><time>2026-04-26T11:28:05.533Z</time></trkpt><trkpt lat="43.9116567" lon="12.5600517"><ele>154.0</ele><time>2026-04-26T11:28:06.535Z</time></trkpt><trkpt lat="43.9117417" lon="12.5598983"><ele>155.2</ele><time>2026-04-26T11:28:07.536Z</time></trkpt><trkpt lat="43.91183" lon="12.5597567"><ele>156.4</ele><time>2026-04-26T11:28:08.534Z</time></trkpt><trkpt lat="43.9119033" lon="12.559635"><ele>157.6</ele><time>2026-04-26T11:28:09.537Z</time></trkpt><trkpt lat="43.9119717" lon="12.5595317"><ele>158.8</ele><time>2026-04-26T11:28:10.534Z</time></trkpt><trkpt lat="43.912045" lon="12.5594483"><ele>160.0</ele><time>2026-04-26T11:28:11.534Z</time></trkpt><trkpt lat="43.9121333" lon="12.5593917"><ele>160.8</ele><time>2026-04-26T11:28:12.535Z</time></trkpt><trkpt lat="43.91223" lon="12.5593483"><ele>161.6</ele><time>2026-04-26T11:28:13.537Z</time></trkpt><trkpt lat="43.91234" lon="12.5593183"><ele>162.39999999999998</ele><time>2026-04-26T11:28:14.533Z</time></trkpt><trkpt lat="43.9124467" lon="12.5592867"><ele>163.2</ele><time>2026-04-26T11:28:15.537Z</time></trkpt><trkpt lat="43.91256" lon="12.5592517"><ele>164.0</ele><time>2026-04-26T11:28:16.536Z</time></trkpt><trkpt lat="43.9126733" lon="12.559205"><ele>164.0</ele><time>2026-04-26T11:28:17.533Z</time></trkpt><trkpt lat="43.9127617" lon="12.5591667"><ele>164.0</ele><time>2026-04-26T11:28:18.535Z</time></trkpt><trkpt lat="43.9128467" lon="12.5591233"><ele>164.0</ele><time>2026-04-26T11:28:20.533Z</time></trkpt><trkpt lat="43.9128917" lon="12.5592283"><ele>164.0</ele><time>2026-04-26T11:28:23.533Z</time></trkpt><trkpt lat="43.9129217" lon="12.5593117"><ele>164.0</ele><time>2026-04-26T11:28:24.534Z</time></trkpt><trkpt lat="43.912965" lon="12.55942"><ele>164.0</ele><time>2026-04-26T11:28:25.535Z</time></trkpt><trkpt lat="43.913025" lon="12.55955"><ele>164.0</ele><time>2026-04-26T11:28:26.533Z</time></trkpt><trkpt lat="43.9130967" lon="12.5596883"><ele>164.0</ele><time>2026-04-26T11:28:27.533Z</time></trkpt><trkpt lat="43.9131667" lon="12.5598267"><ele>164.0</ele><time>2026-04-26T11:28:28.536Z</time></trkpt><trkpt lat="43.9132433" lon="12.5599667"><ele>164.0</ele><time>2026-04-26T11:28:29.534Z</time></trkpt><trkpt lat="43.9133133" lon="12.560105"><ele>164.0</ele><time>2026-04-26T11:28:30.536Z</time></trkpt><trkpt lat="43.9133833" lon="12.5602383"><ele>164.0</ele><time>2026-04-26T11:28:31.537Z</time></trkpt><trkpt lat="43.91345" lon="12.5603683"><ele>164.0</ele><time>2026-04-26T11:28:32.536Z</time></trkpt><trkpt lat="43.9135133" lon="12.5604917"><ele>164.0</ele><time>2026-04-26T11:28:33.536Z</time></trkpt><trkpt lat="43.9135767" lon="12.5606083"><ele>164.0</ele><time>2026-04-26T11:28:34.536Z</time></trkpt><trkpt lat="43.9136417" lon="12.560725"><ele>163.39999999999998</ele><time>2026-04-26T11:28:35.533Z</time></trkpt><trkpt lat="43.9137033" lon="12.5608417"><ele>162.8</ele><time>2026-04-26T11:28:36.536Z</time></trkpt><trkpt lat="43.913765" lon="12.56096"><ele>162.2</ele><time>2026-04-26T11:28:37.536Z</time></trkpt><trkpt lat="43.9138233" lon="12.5610783"><ele>161.60000000000002</ele><time>2026-04-26T11:28:38.534Z</time></trkpt><trkpt lat="43.9138817" lon="12.5611933"><ele>161.0</ele><time>2026-04-26T11:28:39.536Z</time></trkpt><trkpt lat="43.9139417" lon="12.5613083"><ele>160.8</ele><time>2026-04-26T11:28:40.533Z</time></trkpt><trkpt lat="43.914" lon="12.5614217"><ele>160.60000000000002</ele><time>2026-04-26T11:28:41.534Z</time></trkpt><trkpt lat="43.91406" lon="12.5615333"><ele>160.4</ele><time>2026-04-26T11:28:42.537Z</time></trkpt><trkpt lat="43.9141183" lon="12.5616483"><ele>160.2</ele><time>2026-04-26T11:28:43.533Z</time></trkpt><trkpt lat="43.9141817" lon="12.5617733"><ele>160.0</ele><time>2026-04-26T11:28:44.537Z</time></trkpt><trkpt lat="43.9142483" lon="12.5619067"><ele>159.75</ele><time>2026-04-26T11:28:45.536Z</time></trkpt><trkpt lat="43.9143167" lon="12.5620467"><ele>159.5</ele><time>2026-04-26T11:28:46.533Z</time></trkpt><trkpt lat="43.9143933" lon="12.5621933"><ele>159.25</ele><time>2026-04-26T11:28:47.533Z</time></trkpt><trkpt lat="43.91448" lon="12.56235"><ele>159.0</ele><time>2026-04-26T11:28:48.535Z</time></trkpt><trkpt lat="43.9145767" lon="12.5625017"><ele>159.0</ele><time>2026-04-26T11:28:49.534Z</time></trkpt><trkpt lat="43.9146867" lon="12.5626383"><ele>159.0</ele><time>2026-04-26T11:28:50.534Z</time></trkpt><trkpt lat="43.9148233" lon="12.5627467"><ele>159.0</ele><time>2026-04-26T11:28:51.534Z</time></trkpt><trkpt lat="43.914985" lon="12.562825"><ele>159.33333333333334</ele><time>2026-04-26T11:28:52.535Z</time></trkpt><trkpt lat="43.91515" lon="12.562895"><ele>159.66666666666669</ele><time>2026-04-26T11:28:53.534Z</time></trkpt><trkpt lat="43.9153067" lon="12.5629817"><ele>160.0</ele><time>2026-04-26T11:28:54.534Z</time></trkpt><trkpt lat="43.9154433" lon="12.5631033"><ele>160.0</ele><time>2026-04-26T11:28:55.535Z</time></trkpt><trkpt lat="43.9155533" lon="12.5632633"><ele>160.0</ele><time>2026-04-26T11:28:56.533Z</time></trkpt><trkpt lat="43.9156283" lon="12.56346"><ele>160.0</ele><time>2026-04-26T11:28:57.534Z</time></trkpt><trkpt lat="43.9156567" lon="12.5636767"><ele>157.66666666666669</ele><time>2026-04-26T11:28:58.536Z</time></trkpt><trkpt lat="43.9156517" lon="12.5639067"><ele>155.33333333333334</ele><time>2026-04-26T11:28:59.536Z</time></trkpt><trkpt lat="43.9156283" lon="12.5641517"><ele>153.0</ele><time>2026-04-26T11:29:00.536Z</time></trkpt><trkpt lat="43.9156017" lon="12.5644017"><ele>151.33333333333334</ele><time>2026-04-26T11:29:01.536Z</time></trkpt><trkpt lat="43.915585" lon="12.56464"><ele>149.66666666666669</ele><time>2026-04-26T11:29:02.535Z</time></trkpt><trkpt lat="43.9155833" lon="12.5648633"><ele>148.0</ele><time>2026-04-26T11:29:03.534Z</time></trkpt><trkpt lat="43.9156167" lon="12.565065"><ele>148.0</ele><time>2026-04-26T11:29:04.533Z</time></trkpt><trkpt lat="43.9156817" lon="12.5652383"><ele>148.0</ele><time>2026-04-26T11:29:05.533Z</time></trkpt><trkpt lat="43.915785" lon="12.5653917"><ele>148.0</ele><time>2026-04-26T11:29:06.537Z</time></trkpt><trkpt lat="43.9159167" lon="12.5655467"><ele>146.0</ele><time>2026-04-26T11:29:07.534Z</time></trkpt><trkpt lat="43.9160717" lon="12.5657083"><ele>144.0</ele><time>2026-04-26T11:29:08.533Z</time></trkpt><trkpt lat="43.916235" lon="12.5658783"><ele>142.0</ele><time>2026-04-26T11:29:09.535Z</time></trkpt><trkpt lat="43.9164033" lon="12.5660533"><ele>142.0</ele><time>2026-04-26T11:29:10.534Z</time></trkpt><trkpt lat="43.9165783" lon="12.56623"><ele>142.0</ele><time>2026-04-26T11:29:11.533Z</time></trkpt><trkpt lat="43.9167567" lon="12.5663967"><ele>142.0</ele><time>2026-04-26T11:29:12.537Z</time></trkpt><trkpt lat="43.916935" lon="12.5665617"><ele>142.0</ele><time>2026-04-26T11:29:13.537Z</time></trkpt><trkpt lat="43.9171083" lon="12.5667183"><ele>142.0</ele><time>2026-04-26T11:29:14.536Z</time></trkpt><trkpt lat="43.9172733" lon="12.5668783"><ele>142.0</ele><time>2026-04-26T11:29:15.536Z</time></trkpt><trkpt lat="43.917425" lon="12.56705"><ele>142.0</ele><time>2026-04-26T11:29:16.534Z</time></trkpt><trkpt lat="43.91755" lon="12.567245"><ele>142.0</ele><time>2026-04-26T11:29:17.534Z</time></trkpt><trkpt lat="43.91764" lon="12.56747"><ele>142.0</ele><time>2026-04-26T11:29:18.534Z</time></trkpt><trkpt lat="43.9176867" lon="12.5677267"><ele>142.33333333333334</ele><time>2026-04-26T11:29:19.536Z</time></trkpt><trkpt lat="43.9177033" lon="12.5680067"><ele>142.66666666666666</ele><time>2026-04-26T11:29:20.534Z</time></trkpt><trkpt lat="43.9177033" lon="12.5682817"><ele>143.0</ele><time>2026-04-26T11:29:21.534Z</time></trkpt><trkpt lat="43.9177" lon="12.5685183"><ele>143.0</ele><time>2026-04-26T11:29:22.536Z</time></trkpt><trkpt lat="43.9176917" lon="12.5686983"><ele>143.0</ele><time>2026-04-26T11:29:23.536Z</time></trkpt><trkpt lat="43.91769" lon="12.5688267"><ele>143.0</ele><time>2026-04-26T11:29:24.536Z</time></trkpt><trkpt lat="43.9176833" lon="12.56892"><ele>143.0</ele><time>2026-04-26T11:29:25.536Z</time></trkpt><trkpt lat="43.9177517" lon="12.5689133"><ele>143.0</ele><time>2026-04-26T11:29:29.537Z</time></trkpt><trkpt lat="43.91789" lon="12.5688783"><ele>143.0</ele><time>2026-04-26T11:29:31.536Z</time></trkpt><trkpt lat="43.918055" lon="12.5688417"><ele>143.0</ele><time>2026-04-26T11:29:32.536Z</time></trkpt><trkpt lat="43.9182133" lon="12.5688217"><ele>143.0</ele><time>2026-04-26T11:29:33.536Z</time></trkpt><trkpt lat="43.9183817" lon="12.5688017"><ele>144.66666666666666</ele><time>2026-04-26T11:29:34.536Z</time></trkpt><trkpt lat="43.9185383" lon="12.5687817"><ele>146.33333333333334</ele><time>2026-04-26T11:29:35.536Z</time></trkpt><trkpt lat="43.918695" lon="12.5687367"><ele>148.0</ele><time>2026-04-26T11:29:36.536Z</time></trkpt><trkpt lat="43.9188567" lon="12.56868"><ele>148.0</ele><time>2026-04-26T11:29:37.537Z</time></trkpt><trkpt lat="43.9190217" lon="12.56862"><ele>148.0</ele><time>2026-04-26T11:29:38.537Z</time></trkpt><trkpt lat="43.9191833" lon="12.56856"><ele>148.0</ele><time>2026-04-26T11:29:39.537Z</time></trkpt><trkpt lat="43.9193383" lon="12.5685033"><ele>150.25</ele><time>2026-04-26T11:29:40.536Z</time></trkpt><trkpt lat="43.9194833" lon="12.56845"><ele>152.5</ele><time>2026-04-26T11:29:41.534Z</time></trkpt><trkpt lat="43.9196217" lon="12.568395"><ele>154.75</ele><time>2026-04-26T11:29:42.538Z</time></trkpt><trkpt lat="43.919735" lon="12.5683483"><ele>157.0</ele><time>2026-04-26T11:29:43.537Z</time></trkpt><trkpt lat="43.9198267" lon="12.5683017"><ele>157.0</ele><time>2026-04-26T11:29:44.537Z</time></trkpt><trkpt lat="43.9198967" lon="12.5682433"><ele>157.0</ele><time>2026-04-26T11:29:45.536Z</time></trkpt><trkpt lat="43.9199583" lon="12.5681833"><ele>157.0</ele><time>2026-04-26T11:29:46.533Z</time></trkpt><trkpt lat="43.9200217" lon="12.568125"><ele>157.0</ele><time>2026-04-26T11:29:47.535Z</time></trkpt><trkpt lat="43.92009" lon="12.5680667"><ele>157.0</ele><time>2026-04-26T11:29:48.533Z</time></trkpt><trkpt lat="43.92016" lon="12.5680083"><ele>157.0</ele><time>2026-04-26T11:29:49.535Z</time></trkpt><trkpt lat="43.920235" lon="12.5679483"><ele>158.39999999999998</ele><time>2026-04-26T11:29:50.534Z</time></trkpt><trkpt lat="43.920315" lon="12.56789"><ele>159.79999999999998</ele><time>2026-04-26T11:29:51.536Z</time></trkpt><trkpt lat="43.920405" lon="12.5678367"><ele>161.2</ele><time>2026-04-26T11:29:52.534Z</time></trkpt><trkpt lat="43.9205133" lon="12.5677817"><ele>162.6</ele><time>2026-04-26T11:29:53.536Z</time></trkpt><trkpt lat="43.9206367" lon="12.5677183"><ele>164.0</ele><time>2026-04-26T11:29:54.536Z</time></trkpt><trkpt lat="43.9207667" lon="12.56765"><ele>164.75</ele><time>2026-04-26T11:29:55.536Z</time></trkpt><trkpt lat="43.9208933" lon="12.5675833"><ele>165.5</ele><time>2026-04-26T11:29:56.536Z</time></trkpt><trkpt lat="43.92102" lon="12.567515"><ele>166.25</ele><time>2026-04-26T11:29:57.534Z</time></trkpt><trkpt lat="43.9211433" lon="12.5674483"><ele>167.0</ele><time>2026-04-26T11:29:58.534Z</time></trkpt><trkpt lat="43.9212617" lon="12.5673833"><ele>169.0</ele><time>2026-04-26T11:29:59.535Z</time></trkpt><trkpt lat="43.9213717" lon="12.5673217"><ele>171.0</ele><time>2026-04-26T11:30:00.535Z</time></trkpt><trkpt lat="43.92146" lon="12.5672683"><ele>173.0</ele><time>2026-04-26T11:30:01.536Z</time></trkpt><trkpt lat="43.92153" lon="12.5672233"><ele>175.0</ele><time>2026-04-26T11:30:02.534Z</time></trkpt><trkpt lat="43.9216067" lon="12.5671717"><ele>177.0</ele><time>2026-04-26T11:30:04.535Z</time></trkpt><trkpt lat="43.921695" lon="12.5672"><ele>178.25</ele><time>2026-04-26T11:30:07.536Z</time></trkpt><trkpt lat="43.92176" lon="12.5672617"><ele>179.5</ele><time>2026-04-26T11:30:08.534Z</time></trkpt><trkpt lat="43.9218567" lon="12.567355"><ele>180.75</ele><time>2026-04-26T11:30:09.534Z</time></trkpt><trkpt lat="43.921965" lon="12.5674817"><ele>182.0</ele><time>2026-04-26T11:30:10.538Z</time></trkpt><trkpt lat="43.92207" lon="12.5676283"><ele>182.0</ele><time>2026-04-26T11:30:11.538Z</time></trkpt><trkpt lat="43.92216" lon="12.5677733"><ele>182.0</ele><time>2026-04-26T11:30:12.536Z</time></trkpt><trkpt lat="43.9222583" lon="12.5678917"><ele>182.0</ele><time>2026-04-26T11:30:13.535Z</time></trkpt><trkpt lat="43.9223733" lon="12.56797"><ele>182.0</ele><time>2026-04-26T11:30:14.534Z</time></trkpt><trkpt lat="43.922515" lon="12.568015"><ele>182.33333333333331</ele><time>2026-04-26T11:30:15.537Z</time></trkpt><trkpt lat="43.9226767" lon="12.568035"><ele>182.66666666666666</ele><time>2026-04-26T11:30:16.537Z</time></trkpt><trkpt lat="43.9228533" lon="12.5680433"><ele>183.0</ele><time>2026-04-26T11:30:17.537Z</time></trkpt><trkpt lat="43.9230383" lon="12.5680533"><ele>183.0</ele><time>2026-04-26T11:30:18.537Z</time></trkpt><trkpt lat="43.9232183" lon="12.5680667"><ele>183.0</ele><time>2026-04-26T11:30:19.538Z</time></trkpt><trkpt lat="43.9233783" lon="12.5680917"><ele>183.0</ele><time>2026-04-26T11:30:20.533Z</time></trkpt><trkpt lat="43.9235083" lon="12.568145"><ele>185.5</ele><time>2026-04-26T11:30:21.537Z</time></trkpt><trkpt lat="43.923605" lon="12.5682367"><ele>188.0</ele><time>2026-04-26T11:30:22.537Z</time></trkpt><trkpt lat="43.92368" lon="12.56837"><ele>190.5</ele><time>2026-04-26T11:30:23.538Z</time></trkpt><trkpt lat="43.9237617" lon="12.5685267"><ele>193.0</ele><time>2026-04-26T11:30:24.538Z</time></trkpt><trkpt lat="43.9238567" lon="12.56868"><ele>193.33333333333331</ele><time>2026-04-26T11:30:25.537Z</time></trkpt><trkpt lat="43.9239733" lon="12.5688"><ele>193.66666666666669</ele><time>2026-04-26T11:30:26.537Z</time></trkpt><trkpt lat="43.9241133" lon="12.5688783"><ele>194.0</ele><time>2026-04-26T11:30:27.534Z</time></trkpt><trkpt lat="43.924265" lon="12.568935"><ele>197.0</ele><time>2026-04-26T11:30:28.535Z</time></trkpt><trkpt lat="43.9244183" lon="12.56899"><ele>200.0</ele><time>2026-04-26T11:30:29.535Z</time></trkpt><trkpt lat="43.9245667" lon="12.56906"><ele>203.0</ele><time>2026-04-26T11:30:30.538Z</time></trkpt><trkpt lat="43.9247083" lon="12.5691533"><ele>203.0</ele><time>2026-04-26T11:30:31.536Z</time></trkpt><trkpt lat="43.9248433" lon="12.5692633"><ele>203.0</ele><time>2026-04-26T11:30:32.537Z</time></trkpt><trkpt lat="43.9249783" lon="12.5693817"><ele>203.0</ele><time>2026-04-26T11:30:33.537Z</time></trkpt><trkpt lat="43.9251217" lon="12.569485"><ele>206.33333333333334</ele><time>2026-04-26T11:30:34.533Z</time></trkpt><trkpt lat="43.925275" lon="12.56957"><ele>209.66666666666669</ele><time>2026-04-26T11:30:35.533Z</time></trkpt><trkpt lat="43.92544" lon="12.5696367"><ele>213.0</ele><time>2026-04-26T11:30:36.534Z</time></trkpt><trkpt lat="43.925615" lon="12.56969"><ele>213.0</ele><time>2026-04-26T11:30:37.535Z</time></trkpt><trkpt lat="43.92579" lon="12.5697317"><ele>213.0</ele><time>2026-04-26T11:30:38.533Z</time></trkpt><trkpt lat="43.92595" lon="12.5697517"><ele>213.0</ele><time>2026-04-26T11:30:39.533Z</time></trkpt><trkpt lat="43.9260933" lon="12.5697617"><ele>213.83333333333334</ele><time>2026-04-26T11:30:40.538Z</time></trkpt><trkpt lat="43.926205" lon="12.5697683"><ele>214.66666666666669</ele><time>2026-04-26T11:30:41.536Z</time></trkpt><trkpt lat="43.9262783" lon="12.5697883"><ele>215.5</ele><time>2026-04-26T11:30:42.541Z</time></trkpt><trkpt lat="43.9263417" lon="12.5698267"><ele>216.33333333333334</ele><time>2026-04-26T11:30:43.537Z</time></trkpt><trkpt lat="43.9263917" lon="12.56989"><ele>217.16666666666669</ele><time>2026-04-26T11:30:44.536Z</time></trkpt><trkpt lat="43.926435" lon="12.5699633"><ele>218.0</ele><time>2026-04-26T11:30:45.537Z</time></trkpt><trkpt lat="43.9264483" lon="12.5700567"><ele>218.0</ele><time>2026-04-26T11:30:46.537Z</time></trkpt><trkpt lat="43.926435" lon="12.5701683"><ele>218.0</ele><time>2026-04-26T11:30:47.539Z</time></trkpt><trkpt lat="43.926405" lon="12.570305"><ele>218.0</ele><time>2026-04-26T11:30:48.536Z</time></trkpt><trkpt lat="43.9263733" lon="12.5704583"><ele>218.0</ele><time>2026-04-26T11:30:49.537Z</time></trkpt><trkpt lat="43.9263333" lon="12.5706717"><ele>216.33333333333334</ele><time>2026-04-26T11:30:50.536Z</time></trkpt><trkpt lat="43.9263083" lon="12.570905"><ele>214.66666666666669</ele><time>2026-04-26T11:30:51.535Z</time></trkpt><trkpt lat="43.9262883" lon="12.5711517"><ele>213.0</ele><time>2026-04-26T11:30:52.536Z</time></trkpt><trkpt lat="43.9262733" lon="12.5714167"><ele>212.33333333333331</ele><time>2026-04-26T11:30:53.536Z</time></trkpt><trkpt lat="43.92626" lon="12.5716883"><ele>211.66666666666666</ele><time>2026-04-26T11:30:54.536Z</time></trkpt><trkpt lat="43.9262467" lon="12.5719583"><ele>211.0</ele><time>2026-04-26T11:30:55.536Z</time></trkpt><trkpt lat="43.9262317" lon="12.5722317"><ele>211.0</ele><time>2026-04-26T11:30:56.536Z</time></trkpt><trkpt lat="43.9262183" lon="12.5725083"><ele>211.0</ele><time>2026-04-26T11:30:57.535Z</time></trkpt><trkpt lat="43.9262017" lon="12.572785"><ele>211.0</ele><time>2026-04-26T11:30:58.534Z</time></trkpt><trkpt lat="43.9261883" lon="12.57306"><ele>212.0</ele><time>2026-04-26T11:30:59.532Z</time></trkpt><trkpt lat="43.9261717" lon="12.57333"><ele>213.0</ele><time>2026-04-26T11:31:00.533Z</time></trkpt><trkpt lat="43.9261583" lon="12.573595"><ele>214.0</ele><time>2026-04-26T11:31:01.532Z</time></trkpt><trkpt lat="43.9261433" lon="12.5738483"><ele>214.66666666666666</ele><time>2026-04-26T11:31:02.533Z</time></trkpt><trkpt lat="43.9261267" lon="12.57409"><ele>215.33333333333331</ele><time>2026-04-26T11:31:03.532Z</time></trkpt><trkpt lat="43.92611" lon="12.5743333"><ele>216.0</ele><time>2026-04-26T11:31:04.535Z</time></trkpt><trkpt lat="43.9261033" lon="12.5745817"><ele>216.66666666666669</ele><time>2026-04-26T11:31:05.532Z</time></trkpt><trkpt lat="43.9261083" lon="12.574835"><ele>217.33333333333334</ele><time>2026-04-26T11:31:06.533Z</time></trkpt><trkpt lat="43.9261317" lon="12.57509"><ele>218.0</ele><time>2026-04-26T11:31:07.533Z</time></trkpt><trkpt lat="43.9261683" lon="12.575345"><ele>218.33333333333334</ele><time>2026-04-26T11:31:08.532Z</time></trkpt><trkpt lat="43.92621" lon="12.5755983"><ele>218.66666666666669</ele><time>2026-04-26T11:31:09.534Z</time></trkpt><trkpt lat="43.9262483" lon="12.575855"><ele>219.0</ele><time>2026-04-26T11:31:10.536Z</time></trkpt><trkpt lat="43.9262833" lon="12.5761167"><ele>221.0</ele><time>2026-04-26T11:31:11.536Z</time></trkpt><trkpt lat="43.9263083" lon="12.576385"><ele>223.0</ele><time>2026-04-26T11:31:12.537Z</time></trkpt><trkpt lat="43.926325" lon="12.5766633"><ele>225.0</ele><time>2026-04-26T11:31:13.536Z</time></trkpt><trkpt lat="43.9263317" lon="12.5769467"><ele>227.0</ele><time>2026-04-26T11:31:14.535Z</time></trkpt><trkpt lat="43.9263317" lon="12.57723"><ele>229.0</ele><time>2026-04-26T11:31:15.537Z</time></trkpt><trkpt lat="43.926325" lon="12.57751"><ele>231.0</ele><time>2026-04-26T11:31:16.537Z</time></trkpt><trkpt lat="43.9263017" lon="12.5777783"><ele>231.66666666666669</ele><time>2026-04-26T11:31:17.536Z</time></trkpt><trkpt lat="43.9262717" lon="12.57804"><ele>232.33333333333334</ele><time>2026-04-26T11:31:18.536Z</time></trkpt><trkpt lat="43.9262467" lon="12.578305"><ele>233.0</ele><time>2026-04-26T11:31:19.537Z</time></trkpt><trkpt lat="43.926235" lon="12.5785767"><ele>232.33333333333334</ele><time>2026-04-26T11:31:20.537Z</time></trkpt><trkpt lat="43.9262333" lon="12.5788517"><ele>231.66666666666669</ele><time>2026-04-26T11:31:21.533Z</time></trkpt><trkpt lat="43.92624" lon="12.5791267"><ele>231.0</ele><time>2026-04-26T11:31:22.537Z</time></trkpt><trkpt lat="43.9262517" lon="12.5793917"><ele>229.0</ele><time>2026-04-26T11:31:23.536Z</time></trkpt><trkpt lat="43.9262633" lon="12.579645"><ele>227.0</ele><time>2026-04-26T11:31:24.535Z</time></trkpt><trkpt lat="43.9262633" lon="12.5798767"><ele>225.0</ele><time>2026-04-26T11:31:25.537Z</time></trkpt><trkpt lat="43.9262567" lon="12.5800933"><ele>225.0</ele><time>2026-04-26T11:31:26.532Z</time></trkpt><trkpt lat="43.9262367" lon="12.5802833"><ele>225.0</ele><time>2026-04-26T11:31:27.536Z</time></trkpt><trkpt lat="43.9262167" lon="12.5804433"><ele>225.0</ele><time>2026-04-26T11:31:28.536Z</time></trkpt><trkpt lat="43.9261933" lon="12.5805783"><ele>225.0</ele><time>2026-04-26T11:31:29.533Z</time></trkpt><trkpt lat="43.9261683" lon="12.58068"><ele>225.0</ele><time>2026-04-26T11:31:30.533Z</time></trkpt><trkpt lat="43.9261483" lon="12.580795"><ele>223.8</ele><time>2026-04-26T11:31:32.532Z</time></trkpt><trkpt lat="43.926175" lon="12.5808967"><ele>222.6</ele><time>2026-04-26T11:31:34.533Z</time></trkpt><trkpt lat="43.92622" lon="12.5809733"><ele>221.39999999999998</ele><time>2026-04-26T11:31:36.536Z</time></trkpt><trkpt lat="43.9263267" lon="12.58103"><ele>220.2</ele><time>2026-04-26T11:31:38.534Z</time></trkpt><trkpt lat="43.92641" lon="12.5810817"><ele>219.0</ele><time>2026-04-26T11:31:39.535Z</time></trkpt><trkpt lat="43.926505" lon="12.5811467"><ele>217.25</ele><time>2026-04-26T11:31:40.536Z</time></trkpt><trkpt lat="43.9265967" lon="12.5812217"><ele>215.5</ele><time>2026-04-26T11:31:41.535Z</time></trkpt><trkpt lat="43.9266967" lon="12.5812983"><ele>213.75</ele><time>2026-04-26T11:31:42.533Z</time></trkpt><trkpt lat="43.9268033" lon="12.5813733"><ele>212.0</ele><time>2026-04-26T11:31:43.539Z</time></trkpt><trkpt lat="43.9269117" lon="12.5814467"><ele>210.5</ele><time>2026-04-26T11:31:44.537Z</time></trkpt><trkpt lat="43.9270183" lon="12.5815217"><ele>209.0</ele><time>2026-04-26T11:31:45.537Z</time></trkpt><trkpt lat="43.9271233" lon="12.5816"><ele>207.5</ele><time>2026-04-26T11:31:46.536Z</time></trkpt><trkpt lat="43.9272233" lon="12.5816817"><ele>206.0</ele><time>2026-04-26T11:31:47.536Z</time></trkpt><trkpt lat="43.927315" lon="12.5817733"><ele>206.0</ele><time>2026-04-26T11:31:48.533Z</time></trkpt><trkpt lat="43.9273967" lon="12.5818733"><ele>206.0</ele><time>2026-04-26T11:31:49.536Z</time></trkpt><trkpt lat="43.9274717" lon="12.581975"><ele>206.0</ele><time>2026-04-26T11:31:50.533Z</time></trkpt><trkpt lat="43.9275383" lon="12.5820717"><ele>206.0</ele><time>2026-04-26T11:31:51.537Z</time></trkpt><trkpt lat="43.9275967" lon="12.5821617"><ele>206.0</ele><time>2026-04-26T11:31:52.535Z</time></trkpt><trkpt lat="43.9276433" lon="12.58223"><ele>204.00000000000003</ele><time>2026-04-26T11:31:53.532Z</time></trkpt><trkpt lat="43.9277033" lon="12.58231"><ele>202.0</ele><time>2026-04-26T11:31:55.536Z</time></trkpt><trkpt lat="43.9277433" lon="12.58223"><ele>200.0</ele><time>2026-04-26T11:32:02.532Z</time></trkpt><trkpt lat="43.9278333" lon="12.5822183"><ele>198.0</ele><time>2026-04-26T11:32:04.534Z</time></trkpt><trkpt lat="43.9279067" lon="12.5822067"><ele>196.00000000000003</ele><time>2026-04-26T11:32:05.533Z</time></trkpt><trkpt lat="43.928" lon="12.5821883"><ele>194.0</ele><time>2026-04-26T11:32:06.534Z</time></trkpt><trkpt lat="43.9281067" lon="12.58217"><ele>194.0</ele><time>2026-04-26T11:32:07.534Z</time></trkpt><trkpt lat="43.928215" lon="12.5821517"><ele>194.0</ele><time>2026-04-26T11:32:08.533Z</time></trkpt><trkpt lat="43.9283217" lon="12.5821267"><ele>194.0</ele><time>2026-04-26T11:32:09.534Z</time></trkpt><trkpt lat="43.9284267" lon="12.5820967"><ele>194.0</ele><time>2026-04-26T11:32:10.537Z</time></trkpt><trkpt lat="43.928525" lon="12.58207"><ele>194.0</ele><time>2026-04-26T11:32:11.535Z</time></trkpt><trkpt lat="43.9286167" lon="12.5820467"><ele>194.16666666666669</ele><time>2026-04-26T11:32:12.537Z</time></trkpt><trkpt lat="43.928705" lon="12.5820183"><ele>194.33333333333334</ele><time>2026-04-26T11:32:13.537Z</time></trkpt><trkpt lat="43.9287867" lon="12.5819883"><ele>194.5</ele><time>2026-04-26T11:32:14.536Z</time></trkpt><trkpt lat="43.92886" lon="12.5819517"><ele>194.66666666666669</ele><time>2026-04-26T11:32:15.536Z</time></trkpt><trkpt lat="43.9289217" lon="12.5819167"><ele>194.83333333333334</ele><time>2026-04-26T11:32:16.537Z</time></trkpt><trkpt lat="43.9290017" lon="12.5818883"><ele>195.0</ele><time>2026-04-26T11:32:18.535Z</time></trkpt><trkpt lat="43.9290917" lon="12.5819317"><ele>195.0</ele><time>2026-04-26T11:32:20.533Z</time></trkpt><trkpt lat="43.9291583" lon="12.581965"><ele>195.0</ele><time>2026-04-26T11:32:21.532Z</time></trkpt><trkpt lat="43.9292417" lon="12.5819917"><ele>195.0</ele><time>2026-04-26T11:32:22.538Z</time></trkpt><trkpt lat="43.92933" lon="12.581995"><ele>195.0</ele><time>2026-04-26T11:32:23.533Z</time></trkpt><trkpt lat="43.929425" lon="12.5819767"><ele>195.0</ele><time>2026-04-26T11:32:24.54Z</time></trkpt><trkpt lat="43.92951" lon="12.5819317"><ele>195.0</ele><time>2026-04-26T11:32:25.536Z</time></trkpt><trkpt lat="43.9295967" lon="12.58187"><ele>191.6</ele><time>2026-04-26T11:32:26.532Z</time></trkpt><trkpt lat="43.9296833" lon="12.5817867"><ele>188.2</ele><time>2026-04-26T11:32:27.534Z</time></trkpt><trkpt lat="43.9297817" lon="12.58171"><ele>184.8</ele><time>2026-04-26T11:32:28.534Z</time></trkpt><trkpt lat="43.929885" lon="12.5816367"><ele>181.4</ele><time>2026-04-26T11:32:29.533Z</time></trkpt><trkpt lat="43.9299767" lon="12.5815633"><ele>178.0</ele><time>2026-04-26T11:32:30.534Z</time></trkpt><trkpt lat="43.9300617" lon="12.581465"><ele>176.2</ele><time>2026-04-26T11:32:31.533Z</time></trkpt><trkpt lat="43.9301417" lon="12.5813483"><ele>174.4</ele><time>2026-04-26T11:32:32.533Z</time></trkpt><trkpt lat="43.93022" lon="12.5812433"><ele>172.6</ele><time>2026-04-26T11:32:33.532Z</time></trkpt><trkpt lat="43.9302933" lon="12.5811617"><ele>170.79999999999998</ele><time>2026-04-26T11:32:34.533Z</time></trkpt><trkpt lat="43.93037" lon="12.5811083"><ele>169.0</ele><time>2026-04-26T11:32:35.533Z</time></trkpt><trkpt lat="43.9304617" lon="12.5810917"><ele>169.0</ele><time>2026-04-26T11:32:36.534Z</time></trkpt><trkpt lat="43.9305633" lon="12.5811233"><ele>169.0</ele><time>2026-04-26T11:32:37.534Z</time></trkpt><trkpt lat="43.9306783" lon="12.5811933"><ele>169.0</ele><time>2026-04-26T11:32:38.536Z</time></trkpt><trkpt lat="43.930765" lon="12.58126"><ele>169.0</ele><time>2026-04-26T11:32:39.537Z</time></trkpt><trkpt lat="43.9308417" lon="12.5813033"><ele>169.0</ele><time>2026-04-26T11:32:40.536Z</time></trkpt><trkpt lat="43.930905" lon="12.58133"><ele>166.39999999999998</ele><time>2026-04-26T11:32:41.536Z</time></trkpt><trkpt lat="43.930975" lon="12.5813333"><ele>163.79999999999998</ele><time>2026-04-26T11:32:42.536Z</time></trkpt><trkpt lat="43.9310467" lon="12.5813067"><ele>161.2</ele><time>2026-04-26T11:32:43.536Z</time></trkpt><trkpt lat="43.9311317" lon="12.5812467"><ele>158.6</ele><time>2026-04-26T11:32:44.536Z</time></trkpt><trkpt lat="43.9312283" lon="12.5811367"><ele>156.0</ele><time>2026-04-26T11:32:45.537Z</time></trkpt><trkpt lat="43.931315" lon="12.5810217"><ele>156.0</ele><time>2026-04-26T11:32:46.536Z</time></trkpt><trkpt lat="43.9314017" lon="12.5809217"><ele>156.0</ele><time>2026-04-26T11:32:47.537Z</time></trkpt><trkpt lat="43.931505" lon="12.580865"><ele>156.0</ele><time>2026-04-26T11:32:48.536Z</time></trkpt><trkpt lat="43.9316367" lon="12.5808367"><ele>156.0</ele><time>2026-04-26T11:32:49.535Z</time></trkpt><trkpt lat="43.9317833" lon="12.5808167"><ele>154.0</ele><time>2026-04-26T11:32:50.536Z</time></trkpt><trkpt lat="43.9319467" lon="12.5807917"><ele>152.0</ele><time>2026-04-26T11:32:51.536Z</time></trkpt><trkpt lat="43.932115" lon="12.5807667"><ele>150.0</ele><time>2026-04-26T11:32:52.536Z</time></trkpt><trkpt lat="43.9322867" lon="12.5807383"><ele>150.0</ele><time>2026-04-26T11:32:53.536Z</time></trkpt><trkpt lat="43.9324517" lon="12.5807167"><ele>150.0</ele><time>2026-04-26T11:32:54.536Z</time></trkpt><trkpt lat="43.9326117" lon="12.5807067"><ele>150.0</ele><time>2026-04-26T11:32:55.536Z</time></trkpt><trkpt lat="43.9327717" lon="12.5807067"><ele>149.33333333333334</ele><time>2026-04-26T11:32:56.537Z</time></trkpt><trkpt lat="43.9329333" lon="12.58071"><ele>148.66666666666669</ele><time>2026-04-26T11:32:57.534Z</time></trkpt><trkpt lat="43.9330983" lon="12.580715"><ele>148.0</ele><time>2026-04-26T11:32:58.533Z</time></trkpt><trkpt lat="43.9332667" lon="12.58072"><ele>146.66666666666669</ele><time>2026-04-26T11:32:59.534Z</time></trkpt><trkpt lat="43.93343" lon="12.5807283"><ele>145.33333333333334</ele><time>2026-04-26T11:33:00.533Z</time></trkpt><trkpt lat="43.933585" lon="12.580735"><ele>144.0</ele><time>2026-04-26T11:33:01.535Z</time></trkpt><trkpt lat="43.933735" lon="12.5807467"><ele>144.0</ele><time>2026-04-26T11:33:02.534Z</time></trkpt><trkpt lat="43.9338783" lon="12.5807583"><ele>144.0</ele><time>2026-04-26T11:33:03.535Z</time></trkpt><trkpt lat="43.9340183" lon="12.5807717"><ele>144.0</ele><time>2026-04-26T11:33:04.535Z</time></trkpt><trkpt lat="43.934155" lon="12.5807867"><ele>144.0</ele><time>2026-04-26T11:33:05.534Z</time></trkpt><trkpt lat="43.9342883" lon="12.5808017"><ele>142.25</ele><time>2026-04-26T11:33:06.533Z</time></trkpt><trkpt lat="43.9344167" lon="12.5808167"><ele>140.5</ele><time>2026-04-26T11:33:07.535Z</time></trkpt><trkpt lat="43.93454" lon="12.580835"><ele>138.75</ele><time>2026-04-26T11:33:08.534Z</time></trkpt><trkpt lat="43.9346683" lon="12.5808483"><ele>137.0</ele><time>2026-04-26T11:33:09.534Z</time></trkpt><trkpt lat="43.934805" lon="12.5808433"><ele>137.0</ele><time>2026-04-26T11:33:10.536Z</time></trkpt><trkpt lat="43.9349483" lon="12.5808233"><ele>137.0</ele><time>2026-04-26T11:33:11.536Z</time></trkpt><trkpt lat="43.9350983" lon="12.5807867"><ele>137.0</ele><time>2026-04-26T11:33:12.536Z</time></trkpt><trkpt lat="43.935255" lon="12.58075"><ele>136.66666666666666</ele><time>2026-04-26T11:33:13.536Z</time></trkpt><trkpt lat="43.9354133" lon="12.5807167"><ele>136.33333333333334</ele><time>2026-04-26T11:33:14.533Z</time></trkpt><trkpt lat="43.93557" lon="12.5806817"><ele>136.0</ele><time>2026-04-26T11:33:15.536Z</time></trkpt><trkpt lat="43.9357233" lon="12.5806483"><ele>136.0</ele><time>2026-04-26T11:33:16.535Z</time></trkpt><trkpt lat="43.9358767" lon="12.5806217"><ele>136.0</ele><time>2026-04-26T11:33:17.537Z</time></trkpt><trkpt lat="43.936035" lon="12.5805983"><ele>136.0</ele><time>2026-04-26T11:33:18.536Z</time></trkpt><trkpt lat="43.9361983" lon="12.580565"><ele>134.66666666666669</ele><time>2026-04-26T11:33:19.536Z</time></trkpt><trkpt lat="43.93636" lon="12.5805317"><ele>133.33333333333334</ele><time>2026-04-26T11:33:20.536Z</time></trkpt><trkpt lat="43.9365183" lon="12.5804967"><ele>132.0</ele><time>2026-04-26T11:33:21.536Z</time></trkpt><trkpt lat="43.9366733" lon="12.5804583"><ele>130.75</ele><time>2026-04-26T11:33:22.536Z</time></trkpt><trkpt lat="43.936825" lon="12.58042"><ele>129.5</ele><time>2026-04-26T11:33:23.536Z</time></trkpt><trkpt lat="43.9369683" lon="12.580395"><ele>128.25</ele><time>2026-04-26T11:33:24.537Z</time></trkpt><trkpt lat="43.9371067" lon="12.580375"><ele>127.0</ele><time>2026-04-26T11:33:25.535Z</time></trkpt><trkpt lat="43.9372483" lon="12.580365"><ele>127.0</ele><time>2026-04-26T11:33:26.538Z</time></trkpt><trkpt lat="43.9373933" lon="12.58037"><ele>127.0</ele><time>2026-04-26T11:33:27.534Z</time></trkpt><trkpt lat="43.937545" lon="12.5803933"><ele>127.0</ele><time>2026-04-26T11:33:28.534Z</time></trkpt><trkpt lat="43.937695" lon="12.580425"><ele>127.0</ele><time>2026-04-26T11:33:29.534Z</time></trkpt><trkpt lat="43.93784" lon="12.5804583"><ele>126.75</ele><time>2026-04-26T11:33:30.533Z</time></trkpt><trkpt lat="43.9379833" lon="12.5804917"><ele>126.5</ele><time>2026-04-26T11:33:31.535Z</time></trkpt><trkpt lat="43.9381183" lon="12.580525"><ele>126.25</ele><time>2026-04-26T11:33:32.533Z</time></trkpt><trkpt lat="43.93825" lon="12.58056"><ele>126.0</ele><time>2026-04-26T11:33:33.533Z</time></trkpt><trkpt lat="43.938385" lon="12.5805983"><ele>124.75</ele><time>2026-04-26T11:33:34.534Z</time></trkpt><trkpt lat="43.93852" lon="12.58065"><ele>123.5</ele><time>2026-04-26T11:33:35.536Z</time></trkpt><trkpt lat="43.93865" lon="12.5807067"><ele>122.25</ele><time>2026-04-26T11:33:36.534Z</time></trkpt><trkpt lat="43.93878" lon="12.580755"><ele>121.0</ele><time>2026-04-26T11:33:37.537Z</time></trkpt><trkpt lat="43.938905" lon="12.5807933"><ele>121.0</ele><time>2026-04-26T11:33:38.536Z</time></trkpt><trkpt lat="43.9390267" lon="12.580815"><ele>121.0</ele><time>2026-04-26T11:33:39.536Z</time></trkpt><trkpt lat="43.9391467" lon="12.580805"><ele>121.0</ele><time>2026-04-26T11:33:40.536Z</time></trkpt><trkpt lat="43.9392667" lon="12.580775"><ele>121.0</ele><time>2026-04-26T11:33:41.537Z</time></trkpt><trkpt lat="43.939395" lon="12.5807267"><ele>120.5</ele><time>2026-04-26T11:33:42.536Z</time></trkpt><trkpt lat="43.93953" lon="12.5806667"><ele>120.0</ele><time>2026-04-26T11:33:43.536Z</time></trkpt><trkpt lat="43.93967" lon="12.5805983"><ele>119.5</ele><time>2026-04-26T11:33:44.536Z</time></trkpt><trkpt lat="43.9398017" lon="12.5805317"><ele>119.0</ele><time>2026-04-26T11:33:45.537Z</time></trkpt><trkpt lat="43.93992" lon="12.5804733"><ele>119.0</ele><time>2026-04-26T11:33:46.535Z</time></trkpt><trkpt lat="43.9400233" lon="12.5804267"><ele>119.0</ele><time>2026-04-26T11:33:47.535Z</time></trkpt><trkpt lat="43.940115" lon="12.58039"><ele>119.0</ele><time>2026-04-26T11:33:48.535Z</time></trkpt><trkpt lat="43.940195" lon="12.5803683"><ele>119.0</ele><time>2026-04-26T11:33:49.535Z</time></trkpt><trkpt lat="43.9402617" lon="12.58036"><ele>119.0</ele><time>2026-04-26T11:33:50.534Z</time></trkpt><trkpt lat="43.9403633" lon="12.5803533"><ele>119.0</ele><time>2026-04-26T11:33:52.535Z</time></trkpt><trkpt lat="43.9402083" lon="12.5803583"><ele>119.0</ele><time>2026-04-26T11:33:59.536Z</time></trkpt><trkpt lat="43.940095" lon="12.580405"><ele>119.0</ele><time>2026-04-26T11:34:00.537Z</time></trkpt><trkpt lat="43.93998" lon="12.5804483"><ele>119.0</ele><time>2026-04-26T11:34:01.538Z</time></trkpt><trkpt lat="43.9398633" lon="12.5804967"><ele>119.0</ele><time>2026-04-26T11:34:02.539Z</time></trkpt><trkpt lat="43.9397467" lon="12.58055"><ele>119.0</ele><time>2026-04-26T11:34:03.536Z</time></trkpt><trkpt lat="43.9396333" lon="12.5806083"><ele>119.0</ele><time>2026-04-26T11:34:04.536Z</time></trkpt><trkpt lat="43.9395217" lon="12.580665"><ele>119.0</ele><time>2026-04-26T11:34:05.536Z</time></trkpt><trkpt lat="43.939405" lon="12.580715"><ele>119.0</ele><time>2026-04-26T11:34:06.536Z</time></trkpt><trkpt lat="43.9392883" lon="12.58075"><ele>119.0</ele><time>2026-04-26T11:34:07.537Z</time></trkpt><trkpt lat="43.9391833" lon="12.5807717"><ele>119.0</ele><time>2026-04-26T11:34:08.537Z</time></trkpt><trkpt lat="43.93908" lon="12.5807883"><ele>119.0</ele><time>2026-04-26T11:34:09.536Z</time></trkpt><trkpt lat="43.9389783" lon="12.5807967"><ele>119.0</ele><time>2026-04-26T11:34:10.538Z</time></trkpt><trkpt lat="43.93888" lon="12.5807883"><ele>119.33333333333333</ele><time>2026-04-26T11:34:11.537Z</time></trkpt><trkpt lat="43.93879" lon="12.5807617"><ele>119.66666666666666</ele><time>2026-04-26T11:34:12.536Z</time></trkpt><trkpt lat="43.9387183" lon="12.5807367"><ele>120.0</ele><time>2026-04-26T11:34:13.538Z</time></trkpt><trkpt lat="43.9386533" lon="12.5807183"><ele>120.33333333333334</ele><time>2026-04-26T11:34:14.536Z</time></trkpt><trkpt lat="43.9385617" lon="12.5807383"><ele>120.66666666666667</ele><time>2026-04-26T11:34:16.537Z</time></trkpt><trkpt lat="43.938525" lon="12.58089"><ele>121.0</ele><time>2026-04-26T11:34:18.536Z</time></trkpt><trkpt lat="43.93851" lon="12.5810083"><ele>121.0</ele><time>2026-04-26T11:34:19.535Z</time></trkpt><trkpt lat="43.9384867" lon="12.58113"><ele>121.0</ele><time>2026-04-26T11:34:20.534Z</time></trkpt><trkpt lat="43.9384483" lon="12.5812867"><ele>121.0</ele><time>2026-04-26T11:34:21.535Z</time></trkpt><trkpt lat="43.9384083" lon="12.5814483"><ele>121.0</ele><time>2026-04-26T11:34:22.535Z</time></trkpt><trkpt lat="43.93836" lon="12.58161"><ele>121.0</ele><time>2026-04-26T11:34:23.536Z</time></trkpt><trkpt lat="43.938315" lon="12.581765"><ele>121.0</ele><time>2026-04-26T11:34:24.536Z</time></trkpt><trkpt lat="43.9382717" lon="12.58191"><ele>121.0</ele><time>2026-04-26T11:34:25.536Z</time></trkpt><trkpt lat="43.93823" lon="12.5820567"><ele>121.0</ele><time>2026-04-26T11:34:26.537Z</time></trkpt><trkpt lat="43.938185" lon="12.5822133"><ele>119.4</ele><time>2026-04-26T11:34:27.538Z</time></trkpt><trkpt lat="43.9381417" lon="12.5823667"><ele>117.8</ele><time>2026-04-26T11:34:28.536Z</time></trkpt><trkpt lat="43.9381033" lon="12.58251"><ele>116.20000000000002</ele><time>2026-04-26T11:34:29.537Z</time></trkpt><trkpt lat="43.9380667" lon="12.5826533"><ele>114.60000000000001</ele><time>2026-04-26T11:34:30.537Z</time></trkpt><trkpt lat="43.9380283" lon="12.5827883"><ele>113.0</ele><time>2026-04-26T11:34:31.536Z</time></trkpt><trkpt lat="43.937985" lon="12.5829117"><ele>111.60000000000001</ele><time>2026-04-26T11:34:32.536Z</time></trkpt><trkpt lat="43.9379383" lon="12.5830333"><ele>110.20000000000002</ele><time>2026-04-26T11:34:33.537Z</time></trkpt><trkpt lat="43.937895" lon="12.58315"><ele>108.8</ele><time>2026-04-26T11:34:34.536Z</time></trkpt><trkpt lat="43.93786" lon="12.58327"><ele>107.4</ele><time>2026-04-26T11:34:35.537Z</time></trkpt><trkpt lat="43.937835" lon="12.5834"><ele>106.0</ele><time>2026-04-26T11:34:36.534Z</time></trkpt><trkpt lat="43.9378183" lon="12.58354"><ele>106.0</ele><time>2026-04-26T11:34:37.536Z</time></trkpt><trkpt lat="43.9378167" lon="12.583675"><ele>106.0</ele><time>2026-04-26T11:34:38.537Z</time></trkpt><trkpt lat="43.9378267" lon="12.5838067"><ele>106.0</ele><time>2026-04-26T11:34:39.537Z</time></trkpt><trkpt lat="43.93784" lon="12.583945"><ele>106.0</ele><time>2026-04-26T11:34:40.534Z</time></trkpt><trkpt lat="43.9378533" lon="12.5840867"><ele>106.0</ele><time>2026-04-26T11:34:41.536Z</time></trkpt><trkpt lat="43.93786" lon="12.5842267"><ele>104.33333333333334</ele><time>2026-04-26T11:34:42.536Z</time></trkpt><trkpt lat="43.9378683" lon="12.5843583"><ele>102.66666666666667</ele><time>2026-04-26T11:34:43.537Z</time></trkpt><trkpt lat="43.9378617" lon="12.5844817"><ele>101.0</ele><time>2026-04-26T11:34:44.537Z</time></trkpt><trkpt lat="43.9378467" lon="12.5845967"><ele>99.33333333333334</ele><time>2026-04-26T11:34:45.537Z</time></trkpt><trkpt lat="43.9378283" lon="12.5847067"><ele>97.66666666666667</ele><time>2026-04-26T11:34:46.536Z</time></trkpt><trkpt lat="43.9378117" lon="12.5848167"><ele>96.0</ele><time>2026-04-26T11:34:47.535Z</time></trkpt><trkpt lat="43.937795" lon="12.5849317"><ele>94.66666666666667</ele><time>2026-04-26T11:34:48.536Z</time></trkpt><trkpt lat="43.9377783" lon="12.5850433"><ele>93.33333333333333</ele><time>2026-04-26T11:34:49.536Z</time></trkpt><trkpt lat="43.93777" lon="12.58515"><ele>92.0</ele><time>2026-04-26T11:34:50.536Z</time></trkpt><trkpt lat="43.937775" lon="12.5852517"><ele>90.66666666666666</ele><time>2026-04-26T11:34:51.535Z</time></trkpt><trkpt lat="43.93779" lon="12.5853467"><ele>89.33333333333333</ele><time>2026-04-26T11:34:52.535Z</time></trkpt><trkpt lat="43.937855" lon="12.5854967"><ele>88.0</ele><time>2026-04-26T11:34:54.537Z</time></trkpt><trkpt lat="43.937915" lon="12.5855733"><ele>86.5</ele><time>2026-04-26T11:34:55.536Z</time></trkpt><trkpt lat="43.9379867" lon="12.585655"><ele>85.0</ele><time>2026-04-26T11:34:56.537Z</time></trkpt><trkpt lat="43.938085" lon="12.585755"><ele>83.5</ele><time>2026-04-26T11:34:57.536Z</time></trkpt><trkpt lat="43.9381833" lon="12.58586"><ele>82.0</ele><time>2026-04-26T11:34:58.537Z</time></trkpt><trkpt lat="43.93828" lon="12.5859683"><ele>82.0</ele><time>2026-04-26T11:34:59.534Z</time></trkpt><trkpt lat="43.9383717" lon="12.5860717"><ele>82.0</ele><time>2026-04-26T11:35:00.536Z</time></trkpt><trkpt lat="43.9384583" lon="12.586165"><ele>82.0</ele><time>2026-04-26T11:35:01.537Z</time></trkpt><trkpt lat="43.93854" lon="12.58625"><ele>82.0</ele><time>2026-04-26T11:35:02.534Z</time></trkpt><trkpt lat="43.9386217" lon="12.586335"><ele>82.0</ele><time>2026-04-26T11:35:03.534Z</time></trkpt><trkpt lat="43.9387" lon="12.5864217"><ele>80.6</ele><time>2026-04-26T11:35:04.536Z</time></trkpt><trkpt lat="43.9387733" lon="12.5865017"><ele>79.19999999999999</ele><time>2026-04-26T11:35:05.538Z</time></trkpt><trkpt lat="43.9388417" lon="12.5865767"><ele>77.8</ele><time>2026-04-26T11:35:06.533Z</time></trkpt><trkpt lat="43.93891" lon="12.5866517"><ele>76.4</ele><time>2026-04-26T11:35:07.535Z</time></trkpt><trkpt lat="43.938985" lon="12.5867267"><ele>75.0</ele><time>2026-04-26T11:35:08.538Z</time></trkpt><trkpt lat="43.9390683" lon="12.5868017"><ele>75.0</ele><time>2026-04-26T11:35:09.537Z</time></trkpt><trkpt lat="43.9391617" lon="12.586875"><ele>75.0</ele><time>2026-04-26T11:35:10.537Z</time></trkpt><trkpt lat="43.93926" lon="12.5869417"><ele>75.0</ele><time>2026-04-26T11:35:11.537Z</time></trkpt><trkpt lat="43.9393617" lon="12.587"><ele>75.0</ele><time>2026-04-26T11:35:12.535Z</time></trkpt><trkpt lat="43.9394617" lon="12.587065"><ele>75.0</ele><time>2026-04-26T11:35:13.539Z</time></trkpt><trkpt lat="43.9395567" lon="12.587135"><ele>73.66666666666667</ele><time>2026-04-26T11:35:14.537Z</time></trkpt><trkpt lat="43.939635" lon="12.5872"><ele>72.33333333333333</ele><time>2026-04-26T11:35:15.537Z</time></trkpt><trkpt lat="43.9396933" lon="12.5872733"><ele>71.0</ele><time>2026-04-26T11:35:16.535Z</time></trkpt><trkpt lat="43.9397333" lon="12.5873533"><ele>69.66666666666666</ele><time>2026-04-26T11:35:17.535Z</time></trkpt><trkpt lat="43.9397317" lon="12.58752"><ele>68.33333333333333</ele><time>2026-04-26T11:35:19.533Z</time></trkpt><trkpt lat="43.9396783" lon="12.5876133"><ele>67.0</ele><time>2026-04-26T11:35:20.535Z</time></trkpt><trkpt lat="43.9395917" lon="12.58771"><ele>67.0</ele><time>2026-04-26T11:35:21.532Z</time></trkpt><trkpt lat="43.9394933" lon="12.5878133"><ele>67.0</ele><time>2026-04-26T11:35:22.533Z</time></trkpt><trkpt lat="43.9393967" lon="12.5879117"><ele>67.0</ele><time>2026-04-26T11:35:23.536Z</time></trkpt><trkpt lat="43.9393083" lon="12.5879983"><ele>67.0</ele><time>2026-04-26T11:35:24.535Z</time></trkpt><trkpt lat="43.9392333" lon="12.5880717"><ele>67.0</ele><time>2026-04-26T11:35:25.536Z</time></trkpt><trkpt lat="43.939175" lon="12.58814"><ele>67.5</ele><time>2026-04-26T11:35:26.537Z</time></trkpt><trkpt lat="43.9391317" lon="12.5882083"><ele>68.0</ele><time>2026-04-26T11:35:27.535Z</time></trkpt><trkpt lat="43.9391033" lon="12.5882917"><ele>68.5</ele><time>2026-04-26T11:35:28.537Z</time></trkpt><trkpt lat="43.9391067" lon="12.5883917"><ele>69.0</ele><time>2026-04-26T11:35:29.532Z</time></trkpt><trkpt lat="43.93914" lon="12.5885183"><ele>69.5</ele><time>2026-04-26T11:35:30.535Z</time></trkpt><trkpt lat="43.9391983" lon="12.5886667"><ele>70.0</ele><time>2026-04-26T11:35:31.537Z</time></trkpt><trkpt lat="43.9392583" lon="12.5888233"><ele>71.25</ele><time>2026-04-26T11:35:32.535Z</time></trkpt><trkpt lat="43.939315" lon="12.588985"><ele>72.5</ele><time>2026-04-26T11:35:33.536Z</time></trkpt><trkpt lat="43.9393733" lon="12.589165"><ele>73.75</ele><time>2026-04-26T11:35:34.535Z</time></trkpt><trkpt lat="43.9394333" lon="12.5893533"><ele>75.0</ele><time>2026-04-26T11:35:35.536Z</time></trkpt><trkpt lat="43.9394983" lon="12.5895433"><ele>76.5</ele><time>2026-04-26T11:35:36.536Z</time></trkpt><trkpt lat="43.9395617" lon="12.5897267"><ele>78.0</ele><time>2026-04-26T11:35:37.539Z</time></trkpt><trkpt lat="43.9396217" lon="12.5898917"><ele>79.5</ele><time>2026-04-26T11:35:38.536Z</time></trkpt><trkpt lat="43.939675" lon="12.590055"><ele>81.0</ele><time>2026-04-26T11:35:39.541Z</time></trkpt><trkpt lat="43.939725" lon="12.59021"><ele>82.75</ele><time>2026-04-26T11:35:40.536Z</time></trkpt><trkpt lat="43.9397633" lon="12.590355"><ele>84.5</ele><time>2026-04-26T11:35:41.536Z</time></trkpt><trkpt lat="43.939785" lon="12.5904967"><ele>86.25</ele><time>2026-04-26T11:35:42.536Z</time></trkpt><trkpt lat="43.93979" lon="12.59065"><ele>88.0</ele><time>2026-04-26T11:35:43.536Z</time></trkpt><trkpt lat="43.9397817" lon="12.59083"><ele>88.0</ele><time>2026-04-26T11:35:44.537Z</time></trkpt><trkpt lat="43.9397667" lon="12.59103"><ele>88.0</ele><time>2026-04-26T11:35:45.536Z</time></trkpt><trkpt lat="43.9397533" lon="12.59123"><ele>88.0</ele><time>2026-04-26T11:35:46.537Z</time></trkpt><trkpt lat="43.9397433" lon="12.5914383"><ele>88.0</ele><time>2026-04-26T11:35:47.536Z</time></trkpt><trkpt lat="43.9397383" lon="12.591645"><ele>89.75</ele><time>2026-04-26T11:35:48.536Z</time></trkpt><trkpt lat="43.9397333" lon="12.5918383"><ele>91.5</ele><time>2026-04-26T11:35:49.536Z</time></trkpt><trkpt lat="43.9397283" lon="12.5920033"><ele>93.25</ele><time>2026-04-26T11:35:50.535Z</time></trkpt><trkpt lat="43.9397067" lon="12.5921333"><ele>95.0</ele><time>2026-04-26T11:35:51.536Z</time></trkpt><trkpt lat="43.939665" lon="12.5922567"><ele>97.0</ele><time>2026-04-26T11:35:52.535Z</time></trkpt><trkpt lat="43.9396" lon="12.5923833"><ele>99.0</ele><time>2026-04-26T11:35:53.536Z</time></trkpt><trkpt lat="43.9395333" lon="12.5925183"><ele>101.0</ele><time>2026-04-26T11:35:54.535Z</time></trkpt><trkpt lat="43.9394567" lon="12.5926617"><ele>103.0</ele><time>2026-04-26T11:35:55.536Z</time></trkpt><trkpt lat="43.9393833" lon="12.5928167"><ele>105.75</ele><time>2026-04-26T11:35:56.536Z</time></trkpt><trkpt lat="43.939305" lon="12.592975"><ele>108.5</ele><time>2026-04-26T11:35:57.536Z</time></trkpt><trkpt lat="43.9392183" lon="12.5931417"><ele>111.25</ele><time>2026-04-26T11:35:58.536Z</time></trkpt><trkpt lat="43.93914" lon="12.5933017"><ele>114.0</ele><time>2026-04-26T11:35:59.535Z</time></trkpt><trkpt lat="43.9390667" lon="12.593455"><ele>115.75</ele><time>2026-04-26T11:36:00.536Z</time></trkpt><trkpt lat="43.9389933" lon="12.5936067"><ele>117.5</ele><time>2026-04-26T11:36:01.536Z</time></trkpt><trkpt lat="43.9389217" lon="12.5937667"><ele>119.25</ele><time>2026-04-26T11:36:02.532Z</time></trkpt><trkpt lat="43.93885" lon="12.5939367"><ele>121.0</ele><time>2026-04-26T11:36:03.532Z</time></trkpt><trkpt lat="43.93878" lon="12.5941117"><ele>124.5</ele><time>2026-04-26T11:36:04.533Z</time></trkpt><trkpt lat="43.938705" lon="12.5942983"><ele>128.0</ele><time>2026-04-26T11:36:05.532Z</time></trkpt><trkpt lat="43.9386317" lon="12.5944783"><ele>131.5</ele><time>2026-04-26T11:36:06.535Z</time></trkpt><trkpt lat="43.9385667" lon="12.5946333"><ele>135.0</ele><time>2026-04-26T11:36:07.536Z</time></trkpt><trkpt lat="43.93851" lon="12.5947633"><ele>135.8</ele><time>2026-04-26T11:36:08.536Z</time></trkpt><trkpt lat="43.9384633" lon="12.5948833"><ele>136.6</ele><time>2026-04-26T11:36:09.537Z</time></trkpt><trkpt lat="43.9384133" lon="12.5949733"><ele>137.4</ele><time>2026-04-26T11:36:10.534Z</time></trkpt><trkpt lat="43.9383367" lon="12.5950567"><ele>138.2</ele><time>2026-04-26T11:36:12.537Z</time></trkpt><trkpt lat="43.9382267" lon="12.59509"><ele>139.0</ele><time>2026-04-26T11:36:40.532Z</time></trkpt><trkpt lat="43.9381567" lon="12.5951083"><ele>139.0</ele><time>2026-04-26T11:36:41.533Z</time></trkpt><trkpt lat="43.93807" lon="12.5951017"><ele>139.0</ele><time>2026-04-26T11:36:42.534Z</time></trkpt><trkpt lat="43.9379833" lon="12.5950933"><ele>139.0</ele><time>2026-04-26T11:36:43.533Z</time></trkpt><trkpt lat="43.9378867" lon="12.5950717"><ele>139.0</ele><time>2026-04-26T11:36:44.536Z</time></trkpt><trkpt lat="43.937785" lon="12.5950483"><ele>139.0</ele><time>2026-04-26T11:36:45.539Z</time></trkpt><trkpt lat="43.9376933" lon="12.5950267"><ele>139.0</ele><time>2026-04-26T11:36:46.536Z</time></trkpt><trkpt lat="43.937625" lon="12.5950083"><ele>139.0</ele><time>2026-04-26T11:36:47.536Z</time></trkpt><trkpt lat="43.9375117" lon="12.5950133"><ele>139.0</ele><time>2026-04-26T11:36:49.536Z</time></trkpt><trkpt lat="43.9374483" lon="12.5950267"><ele>139.0</ele><time>2026-04-26T11:36:50.536Z</time></trkpt><trkpt lat="43.9373717" lon="12.5950233"><ele>139.0</ele><time>2026-04-26T11:36:51.536Z</time></trkpt><trkpt lat="43.9372783" lon="12.5950083"><ele>139.0</ele><time>2026-04-26T11:36:52.535Z</time></trkpt><trkpt lat="43.9371733" lon="12.5949983"><ele>139.25</ele><time>2026-04-26T11:36:53.533Z</time></trkpt><trkpt lat="43.9370533" lon="12.5949967"><ele>139.5</ele><time>2026-04-26T11:36:54.534Z</time></trkpt><trkpt lat="43.9369283" lon="12.594995"><ele>139.75</ele><time>2026-04-26T11:36:55.536Z</time></trkpt><trkpt lat="43.9368017" lon="12.5949983"><ele>140.0</ele><time>2026-04-26T11:36:56.537Z</time></trkpt><trkpt lat="43.9366717" lon="12.5949967"><ele>141.2</ele><time>2026-04-26T11:36:57.537Z</time></trkpt><trkpt lat="43.9365417" lon="12.5949983"><ele>142.4</ele><time>2026-04-26T11:36:58.537Z</time></trkpt><trkpt lat="43.9364233" lon="12.5950017"><ele>143.6</ele><time>2026-04-26T11:36:59.537Z</time></trkpt><trkpt lat="43.936315" lon="12.5950033"><ele>144.8</ele><time>2026-04-26T11:37:00.536Z</time></trkpt><trkpt lat="43.9362283" lon="12.5949983"><ele>146.0</ele><time>2026-04-26T11:37:01.536Z</time></trkpt><trkpt lat="43.93615" lon="12.5949967"><ele>146.0</ele><time>2026-04-26T11:37:02.536Z</time></trkpt><trkpt lat="43.9360817" lon="12.5950083"><ele>146.0</ele><time>2026-04-26T11:37:03.536Z</time></trkpt><trkpt lat="43.935985" lon="12.5951017"><ele>146.0</ele><time>2026-04-26T11:37:05.536Z</time></trkpt><trkpt lat="43.935965" lon="12.595195"><ele>146.0</ele><time>2026-04-26T11:37:06.537Z</time></trkpt><trkpt lat="43.9359617" lon="12.59532"><ele>146.0</ele><time>2026-04-26T11:37:07.535Z</time></trkpt><trkpt lat="43.9359683" lon="12.595485"><ele>145.75</ele><time>2026-04-26T11:37:08.536Z</time></trkpt><trkpt lat="43.93599" lon="12.59568"><ele>145.5</ele><time>2026-04-26T11:37:09.534Z</time></trkpt><trkpt lat="43.936" lon="12.5958533"><ele>145.25</ele><time>2026-04-26T11:37:10.535Z</time></trkpt><trkpt lat="43.9360167" lon="12.5960267"><ele>145.0</ele><time>2026-04-26T11:37:11.534Z</time></trkpt><trkpt lat="43.9360383" lon="12.5961967"><ele>143.75</ele><time>2026-04-26T11:37:12.535Z</time></trkpt><trkpt lat="43.93606" lon="12.5963683"><ele>142.5</ele><time>2026-04-26T11:37:13.535Z</time></trkpt><trkpt lat="43.93608" lon="12.5965483"><ele>141.25</ele><time>2026-04-26T11:37:14.535Z</time></trkpt><trkpt lat="43.93611" lon="12.596745"><ele>140.0</ele><time>2026-04-26T11:37:15.534Z</time></trkpt><trkpt lat="43.93613" lon="12.5969467"><ele>138.75</ele><time>2026-04-26T11:37:16.535Z</time></trkpt><trkpt lat="43.93615" lon="12.5971517"><ele>137.5</ele><time>2026-04-26T11:37:17.534Z</time></trkpt><trkpt lat="43.936165" lon="12.5973517"><ele>136.25</ele><time>2026-04-26T11:37:18.536Z</time></trkpt><trkpt lat="43.9361783" lon="12.5975417"><ele>135.0</ele><time>2026-04-26T11:37:19.534Z</time></trkpt><trkpt lat="43.9361883" lon="12.5977283"><ele>133.0</ele><time>2026-04-26T11:37:20.534Z</time></trkpt><trkpt lat="43.936195" lon="12.5979217"><ele>131.0</ele><time>2026-04-26T11:37:21.534Z</time></trkpt><trkpt lat="43.9361983" lon="12.598115"><ele>129.0</ele><time>2026-04-26T11:37:22.534Z</time></trkpt><trkpt lat="43.936205" lon="12.5983067"><ele>127.0</ele><time>2026-04-26T11:37:23.536Z</time></trkpt><trkpt lat="43.936215" lon="12.5984967"><ele>125.75</ele><time>2026-04-26T11:37:24.537Z</time></trkpt><trkpt lat="43.93623" lon="12.59868"><ele>124.5</ele><time>2026-04-26T11:37:25.537Z</time></trkpt><trkpt lat="43.936245" lon="12.5988683"><ele>123.25</ele><time>2026-04-26T11:37:26.537Z</time></trkpt><trkpt lat="43.9362583" lon="12.5990583"><ele>122.0</ele><time>2026-04-26T11:37:27.536Z</time></trkpt><trkpt lat="43.9362783" lon="12.5992483"><ele>122.0</ele><time>2026-04-26T11:37:28.536Z</time></trkpt><trkpt lat="43.9363033" lon="12.59943"><ele>122.0</ele><time>2026-04-26T11:37:29.537Z</time></trkpt><trkpt lat="43.9363367" lon="12.5996033"><ele>122.0</ele><time>2026-04-26T11:37:30.537Z</time></trkpt><trkpt lat="43.9363783" lon="12.5997733"><ele>122.0</ele><time>2026-04-26T11:37:31.536Z</time></trkpt><trkpt lat="43.9364283" lon="12.599935"><ele>120.5</ele><time>2026-04-26T11:37:32.537Z</time></trkpt><trkpt lat="43.93648" lon="12.60009"><ele>119.0</ele><time>2026-04-26T11:37:33.538Z</time></trkpt><trkpt lat="43.9365283" lon="12.6002433"><ele>117.5</ele><time>2026-04-26T11:37:34.536Z</time></trkpt><trkpt lat="43.9365683" lon="12.6004083"><ele>116.0</ele><time>2026-04-26T11:37:35.537Z</time></trkpt><trkpt lat="43.9366" lon="12.6005983"><ele>113.33333333333333</ele><time>2026-04-26T11:37:36.537Z</time></trkpt><trkpt lat="43.936625" lon="12.6008117"><ele>110.66666666666666</ele><time>2026-04-26T11:37:37.536Z</time></trkpt><trkpt lat="43.9366483" lon="12.601035"><ele>108.0</ele><time>2026-04-26T11:37:38.536Z</time></trkpt><trkpt lat="43.9366733" lon="12.601255"><ele>105.66666666666666</ele><time>2026-04-26T11:37:39.536Z</time></trkpt><trkpt lat="43.9367" lon="12.6014717"><ele>103.33333333333333</ele><time>2026-04-26T11:37:40.536Z</time></trkpt><trkpt lat="43.936725" lon="12.601685"><ele>101.0</ele><time>2026-04-26T11:37:41.536Z</time></trkpt><trkpt lat="43.9367517" lon="12.601895"><ele>99.5</ele><time>2026-04-26T11:37:42.536Z</time></trkpt><trkpt lat="43.9367783" lon="12.6021"><ele>98.0</ele><time>2026-04-26T11:37:43.535Z</time></trkpt><trkpt lat="43.9368067" lon="12.6023"><ele>96.5</ele><time>2026-04-26T11:37:44.536Z</time></trkpt><trkpt lat="43.936835" lon="12.6024967"><ele>95.0</ele><time>2026-04-26T11:37:45.535Z</time></trkpt><trkpt lat="43.93686" lon="12.6026917"><ele>93.5</ele><time>2026-04-26T11:37:46.535Z</time></trkpt><trkpt lat="43.93688" lon="12.6028833"><ele>92.0</ele><time>2026-04-26T11:37:47.535Z</time></trkpt><trkpt lat="43.936895" lon="12.60307"><ele>90.5</ele><time>2026-04-26T11:37:48.535Z</time></trkpt><trkpt lat="43.9369067" lon="12.60325"><ele>89.0</ele><time>2026-04-26T11:37:49.535Z</time></trkpt><trkpt lat="43.936915" lon="12.6034033"><ele>89.0</ele><time>2026-04-26T11:37:50.536Z</time></trkpt><trkpt lat="43.9369117" lon="12.6035117"><ele>89.0</ele><time>2026-04-26T11:37:51.536Z</time></trkpt><trkpt lat="43.9368883" lon="12.6036667"><ele>89.0</ele><time>2026-04-26T11:37:53.536Z</time></trkpt><trkpt lat="43.936915" lon="12.60355"><ele>89.0</ele><time>2026-04-26T11:38:07.537Z</time></trkpt><trkpt lat="43.9369967" lon="12.603505"><ele>89.0</ele><time>2026-04-26T11:38:09.536Z</time></trkpt><trkpt lat="43.937065" lon="12.603495"><ele>89.0</ele><time>2026-04-26T11:38:10.536Z</time></trkpt><trkpt lat="43.9371533" lon="12.6034833"><ele>89.0</ele><time>2026-04-26T11:38:11.536Z</time></trkpt><trkpt lat="43.9372583" lon="12.60345"><ele>89.0</ele><time>2026-04-26T11:38:12.537Z</time></trkpt><trkpt lat="43.9373733" lon="12.6033967"><ele>89.0</ele><time>2026-04-26T11:38:13.536Z</time></trkpt><trkpt lat="43.93749" lon="12.6033467"><ele>89.0</ele><time>2026-04-26T11:38:14.537Z</time></trkpt><trkpt lat="43.937605" lon="12.6033067"><ele>88.16666666666667</ele><time>2026-04-26T11:38:15.536Z</time></trkpt><trkpt lat="43.937715" lon="12.603275"><ele>87.33333333333334</ele><time>2026-04-26T11:38:16.537Z</time></trkpt><trkpt lat="43.9378133" lon="12.6032617"><ele>86.5</ele><time>2026-04-26T11:38:17.535Z</time></trkpt><trkpt lat="43.9378917" lon="12.6032717"><ele>85.66666666666667</ele><time>2026-04-26T11:38:18.536Z</time></trkpt><trkpt lat="43.93796" lon="12.6033033"><ele>84.83333333333333</ele><time>2026-04-26T11:38:19.537Z</time></trkpt><trkpt lat="43.93802" lon="12.6033767"><ele>84.0</ele><time>2026-04-26T11:38:20.537Z</time></trkpt><trkpt lat="43.938085" lon="12.603505"><ele>84.0</ele><time>2026-04-26T11:38:21.536Z</time></trkpt><trkpt lat="43.9381633" lon="12.6036567"><ele>84.0</ele><time>2026-04-26T11:38:22.536Z</time></trkpt><trkpt lat="43.93826" lon="12.6038267"><ele>84.0</ele><time>2026-04-26T11:38:23.537Z</time></trkpt><trkpt lat="43.9383567" lon="12.604"><ele>84.0</ele><time>2026-04-26T11:38:24.538Z</time></trkpt><trkpt lat="43.938445" lon="12.6041717"><ele>81.25</ele><time>2026-04-26T11:38:25.536Z</time></trkpt><trkpt lat="43.938525" lon="12.6043417"><ele>78.5</ele><time>2026-04-26T11:38:26.537Z</time></trkpt><trkpt lat="43.9386067" lon="12.604515"><ele>75.75</ele><time>2026-04-26T11:38:27.533Z</time></trkpt><trkpt lat="43.9386817" lon="12.6046833"><ele>73.0</ele><time>2026-04-26T11:38:28.536Z</time></trkpt><trkpt lat="43.93875" lon="12.604835"><ele>72.66666666666666</ele><time>2026-04-26T11:38:29.536Z</time></trkpt><trkpt lat="43.9388067" lon="12.6049667"><ele>72.33333333333333</ele><time>2026-04-26T11:38:30.537Z</time></trkpt><trkpt lat="43.9388533" lon="12.60508"><ele>72.0</ele><time>2026-04-26T11:38:31.536Z</time></trkpt><trkpt lat="43.938895" lon="12.605175"><ele>71.66666666666667</ele><time>2026-04-26T11:38:32.536Z</time></trkpt><trkpt lat="43.9389333" lon="12.60526"><ele>71.33333333333334</ele><time>2026-04-26T11:38:33.533Z</time></trkpt><trkpt lat="43.9389717" lon="12.6053517"><ele>71.0</ele><time>2026-04-26T11:38:34.536Z</time></trkpt><trkpt lat="43.9390083" lon="12.6054533"><ele>69.75</ele><time>2026-04-26T11:38:35.533Z</time></trkpt><trkpt lat="43.9390417" lon="12.6055783"><ele>68.5</ele><time>2026-04-26T11:38:36.537Z</time></trkpt><trkpt lat="43.9390733" lon="12.6057267"><ele>67.25</ele><time>2026-04-26T11:38:37.537Z</time></trkpt><trkpt lat="43.9390983" lon="12.60589"><ele>66.0</ele><time>2026-04-26T11:38:38.536Z</time></trkpt><trkpt lat="43.9391233" lon="12.6060633"><ele>64.5</ele><time>2026-04-26T11:38:39.536Z</time></trkpt><trkpt lat="43.9391467" lon="12.6062367"><ele>63.0</ele><time>2026-04-26T11:38:40.536Z</time></trkpt><trkpt lat="43.9391783" lon="12.6064133"><ele>61.5</ele><time>2026-04-26T11:38:41.536Z</time></trkpt><trkpt lat="43.9392083" lon="12.6065867"><ele>60.0</ele><time>2026-04-26T11:38:42.536Z</time></trkpt><trkpt lat="43.9392367" lon="12.606755"><ele>59.5</ele><time>2026-04-26T11:38:43.537Z</time></trkpt><trkpt lat="43.9392633" lon="12.6069167"><ele>59.0</ele><time>2026-04-26T11:38:44.537Z</time></trkpt><trkpt lat="43.9392867" lon="12.607075"><ele>58.5</ele><time>2026-04-26T11:38:45.536Z</time></trkpt><trkpt lat="43.93931" lon="12.60723"><ele>58.0</ele><time>2026-04-26T11:38:46.534Z</time></trkpt><trkpt lat="43.9393317" lon="12.6073833"><ele>57.75</ele><time>2026-04-26T11:38:47.536Z</time></trkpt><trkpt lat="43.9393483" lon="12.6075367"><ele>57.5</ele><time>2026-04-26T11:38:48.536Z</time></trkpt><trkpt lat="43.9393633" lon="12.60769"><ele>57.25</ele><time>2026-04-26T11:38:49.536Z</time></trkpt><trkpt lat="43.939385" lon="12.607845"><ele>57.0</ele><time>2026-04-26T11:38:50.537Z</time></trkpt><trkpt lat="43.9394117" lon="12.6080017"><ele>56.5</ele><time>2026-04-26T11:38:51.539Z</time></trkpt><trkpt lat="43.9394517" lon="12.6081533"><ele>56.0</ele><time>2026-04-26T11:38:52.535Z</time></trkpt><trkpt lat="43.9395033" lon="12.6082917"><ele>55.5</ele><time>2026-04-26T11:38:53.537Z</time></trkpt><trkpt lat="43.9395633" lon="12.608425"><ele>55.0</ele><time>2026-04-26T11:38:54.534Z</time></trkpt><trkpt lat="43.9396183" lon="12.6085617"><ele>55.75</ele><time>2026-04-26T11:38:55.538Z</time></trkpt><trkpt lat="43.9396717" lon="12.608695"><ele>56.5</ele><time>2026-04-26T11:38:56.536Z</time></trkpt><trkpt lat="43.9397217" lon="12.6088317"><ele>57.25</ele><time>2026-04-26T11:38:57.534Z</time></trkpt><trkpt lat="43.9397767" lon="12.6089833"><ele>58.0</ele><time>2026-04-26T11:38:58.535Z</time></trkpt><trkpt lat="43.939835" lon="12.6091383"><ele>58.0</ele><time>2026-04-26T11:38:59.535Z</time></trkpt><trkpt lat="43.9398933" lon="12.6092883"><ele>58.0</ele><time>2026-04-26T11:39:00.537Z</time></trkpt><trkpt lat="43.939945" lon="12.609425"><ele>58.0</ele><time>2026-04-26T11:39:01.537Z</time></trkpt><trkpt lat="43.93999" lon="12.6095517"><ele>58.0</ele><time>2026-04-26T11:39:02.534Z</time></trkpt><trkpt lat="43.9400317" lon="12.6096517"><ele>58.0</ele><time>2026-04-26T11:39:03.537Z</time></trkpt><trkpt lat="43.9400817" lon="12.609725"><ele>57.71428571428572</ele><time>2026-04-26T11:39:04.535Z</time></trkpt><trkpt lat="43.94014" lon="12.6097667"><ele>57.42857142857143</ele><time>2026-04-26T11:39:05.536Z</time></trkpt><trkpt lat="43.9402033" lon="12.6097767"><ele>57.142857142857146</ele><time>2026-04-26T11:39:06.536Z</time></trkpt><trkpt lat="43.94027" lon="12.6097683"><ele>56.85714285714286</ele><time>2026-04-26T11:39:07.537Z</time></trkpt><trkpt lat="43.9403383" lon="12.60977"><ele>56.57142857142857</ele><time>2026-04-26T11:39:08.536Z</time></trkpt><trkpt lat="43.9404033" lon="12.6098083"><ele>56.285714285714285</ele><time>2026-04-26T11:39:09.538Z</time></trkpt><trkpt lat="43.9404533" lon="12.6099017"><ele>56.0</ele><time>2026-04-26T11:39:10.536Z</time></trkpt><trkpt lat="43.9404833" lon="12.6100317"><ele>56.0</ele><time>2026-04-26T11:39:11.536Z</time></trkpt><trkpt lat="43.9404933" lon="12.6102033"><ele>56.0</ele><time>2026-04-26T11:39:12.536Z</time></trkpt><trkpt lat="43.9405033" lon="12.6103667"><ele>56.0</ele><time>2026-04-26T11:39:13.537Z</time></trkpt><trkpt lat="43.9405183" lon="12.610525"><ele>56.0</ele><time>2026-04-26T11:39:14.536Z</time></trkpt><trkpt lat="43.9405333" lon="12.6106783"><ele>55.199999999999996</ele><time>2026-04-26T11:39:15.536Z</time></trkpt><trkpt lat="43.9405433" lon="12.6108283"><ele>54.39999999999999</ele><time>2026-04-26T11:39:16.533Z</time></trkpt><trkpt lat="43.9405517" lon="12.6109667"><ele>53.6</ele><time>2026-04-26T11:39:17.535Z</time></trkpt><trkpt lat="43.940545" lon="12.6110883"><ele>52.8</ele><time>2026-04-26T11:39:18.533Z</time></trkpt><trkpt lat="43.9405317" lon="12.6111967"><ele>52.0</ele><time>2026-04-26T11:39:19.535Z</time></trkpt><trkpt lat="43.9405117" lon="12.6113067"><ele>52.0</ele><time>2026-04-26T11:39:20.534Z</time></trkpt><trkpt lat="43.94048" lon="12.6114083"><ele>52.0</ele><time>2026-04-26T11:39:21.534Z</time></trkpt><trkpt lat="43.9404367" lon="12.6115033"><ele>52.0</ele><time>2026-04-26T11:39:22.535Z</time></trkpt><trkpt lat="43.9403783" lon="12.6116"><ele>52.0</ele><time>2026-04-26T11:39:23.534Z</time></trkpt><trkpt lat="43.9403083" lon="12.6117233"><ele>52.0</ele><time>2026-04-26T11:39:24.535Z</time></trkpt><trkpt lat="43.9402267" lon="12.61185"><ele>52.0</ele><time>2026-04-26T11:39:25.535Z</time></trkpt><trkpt lat="43.9401417" lon="12.6119767"><ele>52.0</ele><time>2026-04-26T11:39:26.539Z</time></trkpt><trkpt lat="43.9400567" lon="12.6121117"><ele>52.0</ele><time>2026-04-26T11:39:27.534Z</time></trkpt><trkpt lat="43.9399767" lon="12.612245"><ele>52.0</ele><time>2026-04-26T11:39:28.535Z</time></trkpt><trkpt lat="43.9399" lon="12.61238"><ele>52.75</ele><time>2026-04-26T11:39:29.534Z</time></trkpt><trkpt lat="43.9398317" lon="12.612515"><ele>53.5</ele><time>2026-04-26T11:39:30.534Z</time></trkpt><trkpt lat="43.9397683" lon="12.61265"><ele>54.25</ele><time>2026-04-26T11:39:31.534Z</time></trkpt><trkpt lat="43.9397133" lon="12.612795"><ele>55.0</ele><time>2026-04-26T11:39:32.535Z</time></trkpt><trkpt lat="43.9396633" lon="12.612945"><ele>55.5</ele><time>2026-04-26T11:39:33.534Z</time></trkpt><trkpt lat="43.9396217" lon="12.6131"><ele>56.0</ele><time>2026-04-26T11:39:34.536Z</time></trkpt><trkpt lat="43.93958" lon="12.6132633"><ele>56.5</ele><time>2026-04-26T11:39:35.535Z</time></trkpt><trkpt lat="43.93954" lon="12.613435"><ele>57.0</ele><time>2026-04-26T11:39:36.534Z</time></trkpt><trkpt lat="43.9394983" lon="12.61361"><ele>57.75</ele><time>2026-04-26T11:39:37.535Z</time></trkpt><trkpt lat="43.939455" lon="12.61379"><ele>58.5</ele><time>2026-04-26T11:39:38.534Z</time></trkpt><trkpt lat="43.9394083" lon="12.613975"><ele>59.25</ele><time>2026-04-26T11:39:39.534Z</time></trkpt><trkpt lat="43.9393617" lon="12.6141533"><ele>60.0</ele><time>2026-04-26T11:39:40.535Z</time></trkpt><trkpt lat="43.9393117" lon="12.6143217"><ele>60.0</ele><time>2026-04-26T11:39:41.535Z</time></trkpt><trkpt lat="43.9392567" lon="12.6144767"><ele>60.0</ele><time>2026-04-26T11:39:42.535Z</time></trkpt><trkpt lat="43.9391883" lon="12.6146217"><ele>60.0</ele><time>2026-04-26T11:39:43.536Z</time></trkpt><trkpt lat="43.9391167" lon="12.6147583"><ele>60.0</ele><time>2026-04-26T11:39:44.533Z</time></trkpt><trkpt lat="43.9390483" lon="12.6148833"><ele>61.2</ele><time>2026-04-26T11:39:45.536Z</time></trkpt><trkpt lat="43.9389917" lon="12.6150017"><ele>62.4</ele><time>2026-04-26T11:39:46.536Z</time></trkpt><trkpt lat="43.9389417" lon="12.61512"><ele>63.599999999999994</ele><time>2026-04-26T11:39:47.533Z</time></trkpt><trkpt lat="43.9389033" lon="12.6152383"><ele>64.8</ele><time>2026-04-26T11:39:48.535Z</time></trkpt><trkpt lat="43.9388667" lon="12.61536"><ele>66.0</ele><time>2026-04-26T11:39:49.535Z</time></trkpt><trkpt lat="43.9388367" lon="12.6154917"><ele>67.75</ele><time>2026-04-26T11:39:50.534Z</time></trkpt><trkpt lat="43.9388033" lon="12.6156367"><ele>69.5</ele><time>2026-04-26T11:39:51.534Z</time></trkpt><trkpt lat="43.9387633" lon="12.6157983"><ele>71.25</ele><time>2026-04-26T11:39:52.535Z</time></trkpt><trkpt lat="43.9387133" lon="12.6159633"><ele>73.0</ele><time>2026-04-26T11:39:53.535Z</time></trkpt><trkpt lat="43.9386617" lon="12.61609"><ele>74.0</ele><time>2026-04-26T11:39:54.535Z</time></trkpt><trkpt lat="43.93861" lon="12.6161917"><ele>75.0</ele><time>2026-04-26T11:39:55.536Z</time></trkpt><trkpt lat="43.9385617" lon="12.6162833"><ele>76.0</ele><time>2026-04-26T11:39:56.534Z</time></trkpt><trkpt lat="43.9385217" lon="12.616365"><ele>77.0</ele><time>2026-04-26T11:39:57.534Z</time></trkpt><trkpt lat="43.9384867" lon="12.6164533"><ele>78.0</ele><time>2026-04-26T11:39:58.537Z</time></trkpt><trkpt lat="43.9384467" lon="12.6165467"><ele>79.0</ele><time>2026-04-26T11:39:59.532Z</time></trkpt><trkpt lat="43.9384083" lon="12.6166433"><ele>80.83333333333333</ele><time>2026-04-26T11:40:00.534Z</time></trkpt><trkpt lat="43.9383667" lon="12.616745"><ele>82.66666666666666</ele><time>2026-04-26T11:40:01.536Z</time></trkpt><trkpt lat="43.9383217" lon="12.6168517"><ele>84.5</ele><time>2026-04-26T11:40:02.537Z</time></trkpt><trkpt lat="43.938275" lon="12.6169617"><ele>86.33333333333333</ele><time>2026-04-26T11:40:03.535Z</time></trkpt><trkpt lat="43.938225" lon="12.6170733"><ele>88.16666666666667</ele><time>2026-04-26T11:40:04.533Z</time></trkpt><trkpt lat="43.93818" lon="12.6171783"><ele>90.0</ele><time>2026-04-26T11:40:05.534Z</time></trkpt><trkpt lat="43.9381433" lon="12.6172817"><ele>90.83333333333333</ele><time>2026-04-26T11:40:06.535Z</time></trkpt><trkpt lat="43.9381133" lon="12.617385"><ele>91.66666666666667</ele><time>2026-04-26T11:40:07.534Z</time></trkpt><trkpt lat="43.9380833" lon="12.6174933"><ele>92.5</ele><time>2026-04-26T11:40:08.533Z</time></trkpt><trkpt lat="43.938065" lon="12.6176033"><ele>93.33333333333334</ele><time>2026-04-26T11:40:09.535Z</time></trkpt><trkpt lat="43.9380617" lon="12.6177117"><ele>94.16666666666667</ele><time>2026-04-26T11:40:10.536Z</time></trkpt><trkpt lat="43.9380683" lon="12.617825"><ele>95.0</ele><time>2026-04-26T11:40:11.535Z</time></trkpt><trkpt lat="43.9380867" lon="12.6179417"><ele>96.2</ele><time>2026-04-26T11:40:12.535Z</time></trkpt><trkpt lat="43.9381017" lon="12.6180583"><ele>97.4</ele><time>2026-04-26T11:40:13.536Z</time></trkpt><trkpt lat="43.93811" lon="12.618185"><ele>98.6</ele><time>2026-04-26T11:40:14.534Z</time></trkpt><trkpt lat="43.938105" lon="12.6183167"><ele>99.8</ele><time>2026-04-26T11:40:15.535Z</time></trkpt><trkpt lat="43.93809" lon="12.6184533"><ele>101.0</ele><time>2026-04-26T11:40:16.536Z</time></trkpt><trkpt lat="43.9380683" lon="12.618595"><ele>101.4</ele><time>2026-04-26T11:40:17.534Z</time></trkpt><trkpt lat="43.9380433" lon="12.6187317"><ele>101.8</ele><time>2026-04-26T11:40:18.54Z</time></trkpt><trkpt lat="43.93802" lon="12.6188633"><ele>102.2</ele><time>2026-04-26T11:40:19.535Z</time></trkpt><trkpt lat="43.9379967" lon="12.6190017"><ele>102.60000000000001</ele><time>2026-04-26T11:40:20.534Z</time></trkpt><trkpt lat="43.9379717" lon="12.6191417"><ele>103.0</ele><time>2026-04-26T11:40:21.535Z</time></trkpt><trkpt lat="43.9379383" lon="12.6192883"><ele>103.0</ele><time>2026-04-26T11:40:22.535Z</time></trkpt><trkpt lat="43.9379067" lon="12.6194367"><ele>103.0</ele><time>2026-04-26T11:40:23.536Z</time></trkpt><trkpt lat="43.9378833" lon="12.6195867"><ele>103.0</ele><time>2026-04-26T11:40:24.536Z</time></trkpt><trkpt lat="43.9378633" lon="12.6197483"><ele>103.0</ele><time>2026-04-26T11:40:25.536Z</time></trkpt><trkpt lat="43.9378467" lon="12.6199083"><ele>105.0</ele><time>2026-04-26T11:40:26.535Z</time></trkpt><trkpt lat="43.9378367" lon="12.6200583"><ele>107.0</ele><time>2026-04-26T11:40:27.534Z</time></trkpt><trkpt lat="43.93783" lon="12.62021"><ele>109.0</ele><time>2026-04-26T11:40:28.536Z</time></trkpt><trkpt lat="43.9378267" lon="12.62037"><ele>111.0</ele><time>2026-04-26T11:40:29.534Z</time></trkpt><trkpt lat="43.9378317" lon="12.6205333"><ele>113.0</ele><time>2026-04-26T11:40:30.535Z</time></trkpt><trkpt lat="43.9378383" lon="12.620695"><ele>115.0</ele><time>2026-04-26T11:40:31.538Z</time></trkpt><trkpt lat="43.9378467" lon="12.62085"><ele>117.0</ele><time>2026-04-26T11:40:32.534Z</time></trkpt><trkpt lat="43.9378517" lon="12.62099"><ele>119.0</ele><time>2026-04-26T11:40:33.535Z</time></trkpt><trkpt lat="43.93785" lon="12.6211267"><ele>121.0</ele><time>2026-04-26T11:40:34.535Z</time></trkpt><trkpt lat="43.9378267" lon="12.6212667"><ele>123.16666666666667</ele><time>2026-04-26T11:40:35.536Z</time></trkpt><trkpt lat="43.93779" lon="12.6214033"><ele>125.33333333333334</ele><time>2026-04-26T11:40:36.536Z</time></trkpt><trkpt lat="43.9377467" lon="12.6215167"><ele>127.5</ele><time>2026-04-26T11:40:37.536Z</time></trkpt><trkpt lat="43.9377033" lon="12.6216"><ele>129.66666666666666</ele><time>2026-04-26T11:40:38.537Z</time></trkpt><trkpt lat="43.9376583" lon="12.6216617"><ele>131.83333333333331</ele><time>2026-04-26T11:40:39.536Z</time></trkpt><trkpt lat="43.9375683" lon="12.6216983"><ele>134.0</ele><time>2026-04-26T11:40:41.536Z</time></trkpt><trkpt lat="43.937465" lon="12.6217567"><ele>134.8</ele><time>2026-04-26T11:40:43.536Z</time></trkpt><trkpt lat="43.93741" lon="12.6218117"><ele>135.60000000000002</ele><time>2026-04-26T11:40:44.537Z</time></trkpt><trkpt lat="43.9373517" lon="12.62189"><ele>136.4</ele><time>2026-04-26T11:40:45.536Z</time></trkpt><trkpt lat="43.937295" lon="12.621995"><ele>137.20000000000002</ele><time>2026-04-26T11:40:46.533Z</time></trkpt><trkpt lat="43.9372483" lon="12.6221333"><ele>138.0</ele><time>2026-04-26T11:40:47.535Z</time></trkpt><trkpt lat="43.9372317" lon="12.6222817"><ele>140.5</ele><time>2026-04-26T11:40:48.536Z</time></trkpt><trkpt lat="43.9372533" lon="12.6224567"><ele>143.0</ele><time>2026-04-26T11:40:49.535Z</time></trkpt><trkpt lat="43.93729" lon="12.6226383"><ele>145.5</ele><time>2026-04-26T11:40:50.536Z</time></trkpt><trkpt lat="43.9373433" lon="12.6228283"><ele>148.0</ele><time>2026-04-26T11:40:51.535Z</time></trkpt><trkpt lat="43.9374017" lon="12.6230233"><ele>149.33333333333334</ele><time>2026-04-26T11:40:52.535Z</time></trkpt><trkpt lat="43.9374533" lon="12.6232233"><ele>150.66666666666666</ele><time>2026-04-26T11:40:53.535Z</time></trkpt><trkpt lat="43.9375067" lon="12.6234317"><ele>152.0</ele><time>2026-04-26T11:40:54.534Z</time></trkpt><trkpt lat="43.93755" lon="12.6236317"><ele>153.0</ele><time>2026-04-26T11:40:55.535Z</time></trkpt><trkpt lat="43.9375667" lon="12.6238217"><ele>154.0</ele><time>2026-04-26T11:40:56.534Z</time></trkpt><trkpt lat="43.93755" lon="12.624"><ele>155.0</ele><time>2026-04-26T11:40:57.535Z</time></trkpt><trkpt lat="43.9375033" lon="12.6241767"><ele>156.0</ele><time>2026-04-26T11:40:58.537Z</time></trkpt><trkpt lat="43.93742" lon="12.6243383"><ele>156.0</ele><time>2026-04-26T11:40:59.536Z</time></trkpt><trkpt lat="43.9373017" lon="12.624475"><ele>156.0</ele><time>2026-04-26T11:41:00.536Z</time></trkpt><trkpt lat="43.9371617" lon="12.624585"><ele>156.0</ele><time>2026-04-26T11:41:01.536Z</time></trkpt><trkpt lat="43.9370217" lon="12.62468"><ele>156.25</ele><time>2026-04-26T11:41:02.536Z</time></trkpt><trkpt lat="43.93689" lon="12.6247767"><ele>156.5</ele><time>2026-04-26T11:41:03.536Z</time></trkpt><trkpt lat="43.9367667" lon="12.6248683"><ele>156.75</ele><time>2026-04-26T11:41:04.537Z</time></trkpt><trkpt lat="43.9366417" lon="12.6249383"><ele>157.0</ele><time>2026-04-26T11:41:05.536Z</time></trkpt><trkpt lat="43.9365217" lon="12.62496"><ele>157.0</ele><time>2026-04-26T11:41:06.536Z</time></trkpt><trkpt lat="43.9364033" lon="12.6249367"><ele>157.0</ele><time>2026-04-26T11:41:07.536Z</time></trkpt><trkpt lat="43.9362767" lon="12.6249033"><ele>157.0</ele><time>2026-04-26T11:41:08.536Z</time></trkpt><trkpt lat="43.9361433" lon="12.6248617"><ele>157.0</ele><time>2026-04-26T11:41:09.533Z</time></trkpt><trkpt lat="43.9359983" lon="12.6248183"><ele>156.66666666666669</ele><time>2026-04-26T11:41:10.536Z</time></trkpt><trkpt lat="43.9358317" lon="12.6247783"><ele>156.33333333333334</ele><time>2026-04-26T11:41:11.537Z</time></trkpt><trkpt lat="43.9356517" lon="12.624745"><ele>156.0</ele><time>2026-04-26T11:41:12.536Z</time></trkpt><trkpt lat="43.9354717" lon="12.6247133"><ele>156.0</ele><time>2026-04-26T11:41:13.536Z</time></trkpt><trkpt lat="43.9352933" lon="12.6246917"><ele>156.0</ele><time>2026-04-26T11:41:14.537Z</time></trkpt><trkpt lat="43.9351133" lon="12.6247"><ele>156.0</ele><time>2026-04-26T11:41:15.536Z</time></trkpt><trkpt lat="43.9349333" lon="12.6247317"><ele>156.66666666666666</ele><time>2026-04-26T11:41:16.533Z</time></trkpt><trkpt lat="43.9347483" lon="12.624775"><ele>157.33333333333331</ele><time>2026-04-26T11:41:17.535Z</time></trkpt><trkpt lat="43.9345617" lon="12.6248283"><ele>158.0</ele><time>2026-04-26T11:41:18.535Z</time></trkpt><trkpt lat="43.9343733" lon="12.6248767"><ele>160.33333333333331</ele><time>2026-04-26T11:41:19.535Z</time></trkpt><trkpt lat="43.9341883" lon="12.6249233"><ele>162.66666666666666</ele><time>2026-04-26T11:41:20.535Z</time></trkpt><trkpt lat="43.934015" lon="12.6249667"><ele>165.0</ele><time>2026-04-26T11:41:21.536Z</time></trkpt><trkpt lat="43.9338567" lon="12.6249967"><ele>165.0</ele><time>2026-04-26T11:41:22.535Z</time></trkpt><trkpt lat="43.9337167" lon="12.6250183"><ele>165.0</ele><time>2026-04-26T11:41:23.536Z</time></trkpt><trkpt lat="43.9335883" lon="12.6250283"><ele>165.0</ele><time>2026-04-26T11:41:24.536Z</time></trkpt><trkpt lat="43.9334767" lon="12.6250367"><ele>165.0</ele><time>2026-04-26T11:41:25.536Z</time></trkpt><trkpt lat="43.9333833" lon="12.6250683"><ele>165.8</ele><time>2026-04-26T11:41:26.536Z</time></trkpt><trkpt lat="43.9333033" lon="12.6251383"><ele>166.6</ele><time>2026-04-26T11:41:27.536Z</time></trkpt><trkpt lat="43.9332233" lon="12.625235"><ele>167.39999999999998</ele><time>2026-04-26T11:41:28.536Z</time></trkpt><trkpt lat="43.933135" lon="12.625345"><ele>168.2</ele><time>2026-04-26T11:41:29.536Z</time></trkpt><trkpt lat="43.9330333" lon="12.6254567"><ele>169.0</ele><time>2026-04-26T11:41:30.537Z</time></trkpt><trkpt lat="43.9329217" lon="12.62557"><ele>169.0</ele><time>2026-04-26T11:41:31.536Z</time></trkpt><trkpt lat="43.9328167" lon="12.6256817"><ele>169.0</ele><time>2026-04-26T11:41:32.532Z</time></trkpt><trkpt lat="43.9327167" lon="12.6257783"><ele>169.0</ele><time>2026-04-26T11:41:33.536Z</time></trkpt><trkpt lat="43.9326283" lon="12.6258683"><ele>169.0</ele><time>2026-04-26T11:41:34.536Z</time></trkpt><trkpt lat="43.9325517" lon="12.6259467"><ele>169.5</ele><time>2026-04-26T11:41:35.537Z</time></trkpt><trkpt lat="43.9324867" lon="12.626005"><ele>170.0</ele><time>2026-04-26T11:41:36.539Z</time></trkpt><trkpt lat="43.9324033" lon="12.6260717"><ele>170.5</ele><time>2026-04-26T11:41:38.533Z</time></trkpt><trkpt lat="43.93235" lon="12.6261233"><ele>171.0</ele><time>2026-04-26T11:42:08.536Z</time></trkpt><trkpt lat="43.932235" lon="12.6262217"><ele>171.5</ele><time>2026-04-26T11:42:10.536Z</time></trkpt><trkpt lat="43.9321733" lon="12.62627"><ele>172.0</ele><time>2026-04-26T11:42:11.534Z</time></trkpt><trkpt lat="43.93211" lon="12.6263083"><ele>172.0</ele><time>2026-04-26T11:42:12.536Z</time></trkpt><trkpt lat="43.93204" lon="12.626355"><ele>172.0</ele><time>2026-04-26T11:42:13.537Z</time></trkpt><trkpt lat="43.9319717" lon="12.62643"><ele>172.0</ele><time>2026-04-26T11:42:14.535Z</time></trkpt><trkpt lat="43.931915" lon="12.6265333"><ele>172.0</ele><time>2026-04-26T11:42:15.535Z</time></trkpt><trkpt lat="43.9318767" lon="12.6266867"><ele>172.0</ele><time>2026-04-26T11:42:16.536Z</time></trkpt><trkpt lat="43.931835" lon="12.626855"><ele>172.0</ele><time>2026-04-26T11:42:17.537Z</time></trkpt><trkpt lat="43.9317883" lon="12.6270467"><ele>172.0</ele><time>2026-04-26T11:42:18.536Z</time></trkpt><trkpt lat="43.9317467" lon="12.6272533"><ele>172.0</ele><time>2026-04-26T11:42:19.537Z</time></trkpt><trkpt lat="43.9317083" lon="12.6274717"><ele>172.0</ele><time>2026-04-26T11:42:20.537Z</time></trkpt><trkpt lat="43.93168" lon="12.62771"><ele>172.0</ele><time>2026-04-26T11:42:21.538Z</time></trkpt><trkpt lat="43.9316483" lon="12.62794"><ele>172.0</ele><time>2026-04-26T11:42:22.537Z</time></trkpt><trkpt lat="43.9316217" lon="12.6281617"><ele>171.66666666666669</ele><time>2026-04-26T11:42:23.538Z</time></trkpt><trkpt lat="43.931595" lon="12.6283783"><ele>171.33333333333334</ele><time>2026-04-26T11:42:24.536Z</time></trkpt><trkpt lat="43.9315683" lon="12.6285867"><ele>171.0</ele><time>2026-04-26T11:42:25.537Z</time></trkpt><trkpt lat="43.9315433" lon="12.628795"><ele>170.66666666666666</ele><time>2026-04-26T11:42:26.534Z</time></trkpt><trkpt lat="43.9315217" lon="12.62901"><ele>170.33333333333331</ele><time>2026-04-26T11:42:27.534Z</time></trkpt><trkpt lat="43.9315033" lon="12.6292283"><ele>170.0</ele><time>2026-04-26T11:42:28.533Z</time></trkpt><trkpt lat="43.9314867" lon="12.629445"><ele>169.33333333333331</ele><time>2026-04-26T11:42:29.534Z</time></trkpt><trkpt lat="43.93147" lon="12.6296617"><ele>168.66666666666666</ele><time>2026-04-26T11:42:30.536Z</time></trkpt><trkpt lat="43.9314533" lon="12.62987"><ele>168.0</ele><time>2026-04-26T11:42:31.534Z</time></trkpt><trkpt lat="43.9314367" lon="12.630085"><ele>168.0</ele><time>2026-04-26T11:42:32.536Z</time></trkpt><trkpt lat="43.93142" lon="12.6303067"><ele>168.0</ele><time>2026-04-26T11:42:33.535Z</time></trkpt><trkpt lat="43.9314117" lon="12.6305367"><ele>168.0</ele><time>2026-04-26T11:42:34.536Z</time></trkpt><trkpt lat="43.9313983" lon="12.6307667"><ele>166.66666666666666</ele><time>2026-04-26T11:42:35.536Z</time></trkpt><trkpt lat="43.9313783" lon="12.6310017"><ele>165.33333333333331</ele><time>2026-04-26T11:42:36.533Z</time></trkpt><trkpt lat="43.9313633" lon="12.6312317"><ele>164.0</ele><time>2026-04-26T11:42:37.537Z</time></trkpt><trkpt lat="43.9313467" lon="12.63146"><ele>162.66666666666666</ele><time>2026-04-26T11:42:38.536Z</time></trkpt><trkpt lat="43.93133" lon="12.6316867"><ele>161.33333333333334</ele><time>2026-04-26T11:42:39.536Z</time></trkpt><trkpt lat="43.9313117" lon="12.631905"><ele>160.0</ele><time>2026-04-26T11:42:40.536Z</time></trkpt><trkpt lat="43.9312833" lon="12.63211"><ele>159.0</ele><time>2026-04-26T11:42:41.536Z</time></trkpt><trkpt lat="43.9312383" lon="12.6323117"><ele>158.0</ele><time>2026-04-26T11:42:42.537Z</time></trkpt><trkpt lat="43.9311767" lon="12.632515"><ele>157.0</ele><time>2026-04-26T11:42:43.536Z</time></trkpt><trkpt lat="43.9311017" lon="12.6327133"><ele>156.25</ele><time>2026-04-26T11:42:44.537Z</time></trkpt><trkpt lat="43.9310217" lon="12.6328967"><ele>155.5</ele><time>2026-04-26T11:42:45.537Z</time></trkpt><trkpt lat="43.9309533" lon="12.6330583"><ele>154.75</ele><time>2026-04-26T11:42:46.536Z</time></trkpt><trkpt lat="43.930895" lon="12.6331967"><ele>154.0</ele><time>2026-04-26T11:42:47.536Z</time></trkpt><trkpt lat="43.9308467" lon="12.63333"><ele>154.0</ele><time>2026-04-26T11:42:48.537Z</time></trkpt><trkpt lat="43.9307983" lon="12.6334417"><ele>154.0</ele><time>2026-04-26T11:42:49.536Z</time></trkpt><trkpt lat="43.930755" lon="12.6335267"><ele>154.0</ele><time>2026-04-26T11:42:50.537Z</time></trkpt><trkpt lat="43.9307133" lon="12.6336617"><ele>154.0</ele><time>2026-04-26T11:42:52.537Z</time></trkpt><trkpt lat="43.9307517" lon="12.6337433"><ele>154.0</ele><time>2026-04-26T11:42:54.537Z</time></trkpt><trkpt lat="43.9308017" lon="12.6336333"><ele>154.0</ele><time>2026-04-26T11:42:56.537Z</time></trkpt><trkpt lat="43.9308233" lon="12.6335367"><ele>154.0</ele><time>2026-04-26T11:42:57.536Z</time></trkpt><trkpt lat="43.93086" lon="12.6334"><ele>154.0</ele><time>2026-04-26T11:42:58.537Z</time></trkpt><trkpt lat="43.9309233" lon="12.63323"><ele>154.0</ele><time>2026-04-26T11:42:59.537Z</time></trkpt><trkpt lat="43.9309967" lon="12.63305"><ele>154.0</ele><time>2026-04-26T11:43:00.538Z</time></trkpt><trkpt lat="43.931075" lon="12.63286"><ele>154.75</ele><time>2026-04-26T11:43:01.536Z</time></trkpt><trkpt lat="43.9311483" lon="12.6326917"><ele>155.5</ele><time>2026-04-26T11:43:02.537Z</time></trkpt><trkpt lat="43.9312117" lon="12.6325317"><ele>156.25</ele><time>2026-04-26T11:43:03.537Z</time></trkpt><trkpt lat="43.9312683" lon="12.6323667"><ele>157.0</ele><time>2026-04-26T11:43:04.534Z</time></trkpt><trkpt lat="43.931315" lon="12.6321917"><ele>157.0</ele><time>2026-04-26T11:43:05.537Z</time></trkpt><trkpt lat="43.9313467" lon="12.6320133"><ele>157.0</ele><time>2026-04-26T11:43:06.537Z</time></trkpt><trkpt lat="43.9313617" lon="12.6318467"><ele>157.0</ele><time>2026-04-26T11:43:07.537Z</time></trkpt><trkpt lat="43.9313683" lon="12.6317067"><ele>157.0</ele><time>2026-04-26T11:43:08.537Z</time></trkpt><trkpt lat="43.9313783" lon="12.6315967"><ele>157.0</ele><time>2026-04-26T11:43:09.536Z</time></trkpt><trkpt lat="43.9314333" lon="12.6314883"><ele>157.0</ele><time>2026-04-26T11:43:11.537Z</time></trkpt><trkpt lat="43.931535" lon="12.6314983"><ele>157.0</ele><time>2026-04-26T11:43:13.536Z</time></trkpt><trkpt lat="43.9316317" lon="12.6315883"><ele>157.0</ele><time>2026-04-26T11:43:15.536Z</time></trkpt><trkpt lat="43.9316717" lon="12.6316633"><ele>157.0</ele><time>2026-04-26T11:43:16.537Z</time></trkpt><trkpt lat="43.9317033" lon="12.631755"><ele>157.0</ele><time>2026-04-26T11:43:17.536Z</time></trkpt><trkpt lat="43.9317133" lon="12.63186"><ele>157.0</ele><time>2026-04-26T11:43:18.538Z</time></trkpt><trkpt lat="43.93172" lon="12.6319933"><ele>157.0</ele><time>2026-04-26T11:43:19.534Z</time></trkpt><trkpt lat="43.9316933" lon="12.6321717"><ele>157.0</ele><time>2026-04-26T11:43:20.537Z</time></trkpt><trkpt lat="43.931655" lon="12.6323383"><ele>157.0</ele><time>2026-04-26T11:43:21.537Z</time></trkpt><trkpt lat="43.9316133" lon="12.632505"><ele>157.0</ele><time>2026-04-26T11:43:22.534Z</time></trkpt><trkpt lat="43.9315633" lon="12.6326533"><ele>157.0</ele><time>2026-04-26T11:43:23.536Z</time></trkpt><trkpt lat="43.93151" lon="12.632785"><ele>157.0</ele><time>2026-04-26T11:43:24.541Z</time></trkpt><trkpt lat="43.9314617" lon="12.6329117"><ele>157.0</ele><time>2026-04-26T11:43:25.534Z</time></trkpt><trkpt lat="43.931415" lon="12.6330383"><ele>157.0</ele><time>2026-04-26T11:43:26.534Z</time></trkpt><trkpt lat="43.9313917" lon="12.6331633"><ele>157.0</ele><time>2026-04-26T11:43:27.534Z</time></trkpt><trkpt lat="43.9313983" lon="12.6333117"><ele>156.0</ele><time>2026-04-26T11:43:28.534Z</time></trkpt><trkpt lat="43.931415" lon="12.6334783"><ele>155.0</ele><time>2026-04-26T11:43:29.537Z</time></trkpt><trkpt lat="43.93144" lon="12.633645"><ele>154.0</ele><time>2026-04-26T11:43:30.537Z</time></trkpt><trkpt lat="43.93146" lon="12.63381"><ele>153.0</ele><time>2026-04-26T11:43:31.536Z</time></trkpt><trkpt lat="43.9314783" lon="12.63398"><ele>151.75</ele><time>2026-04-26T11:43:32.538Z</time></trkpt><trkpt lat="43.9314883" lon="12.6341467"><ele>150.5</ele><time>2026-04-26T11:43:33.538Z</time></trkpt><trkpt lat="43.9314967" lon="12.6343217"><ele>149.25</ele><time>2026-04-26T11:43:34.535Z</time></trkpt><trkpt lat="43.9314933" lon="12.6345067"><ele>148.0</ele><time>2026-04-26T11:43:35.535Z</time></trkpt><trkpt lat="43.9314733" lon="12.6347067"><ele>146.66666666666669</ele><time>2026-04-26T11:43:36.537Z</time></trkpt><trkpt lat="43.9314367" lon="12.6349283"><ele>145.33333333333334</ele><time>2026-04-26T11:43:37.537Z</time></trkpt><trkpt lat="43.9313917" lon="12.635165"><ele>144.0</ele><time>2026-04-26T11:43:38.536Z</time></trkpt><trkpt lat="43.9313483" lon="12.6353917"><ele>142.66666666666666</ele><time>2026-04-26T11:43:39.538Z</time></trkpt><trkpt lat="43.9313117" lon="12.6356067"><ele>141.33333333333331</ele><time>2026-04-26T11:43:40.536Z</time></trkpt><trkpt lat="43.93128" lon="12.635815"><ele>140.0</ele><time>2026-04-26T11:43:41.538Z</time></trkpt><trkpt lat="43.9312633" lon="12.6360217"><ele>138.33333333333331</ele><time>2026-04-26T11:43:42.538Z</time></trkpt><trkpt lat="43.9312667" lon="12.636245"><ele>136.66666666666666</ele><time>2026-04-26T11:43:43.537Z</time></trkpt><trkpt lat="43.9312733" lon="12.6364783"><ele>135.0</ele><time>2026-04-26T11:43:44.533Z</time></trkpt><trkpt lat="43.9312667" lon="12.6367017"><ele>135.0</ele><time>2026-04-26T11:43:45.536Z</time></trkpt><trkpt lat="43.9312433" lon="12.6368883"><ele>135.0</ele><time>2026-04-26T11:43:46.537Z</time></trkpt><trkpt lat="43.931215" lon="12.6370383"><ele>135.0</ele><time>2026-04-26T11:43:47.537Z</time></trkpt><trkpt lat="43.93119" lon="12.6371883"><ele>135.0</ele><time>2026-04-26T11:43:48.537Z</time></trkpt><trkpt lat="43.93117" lon="12.63736"><ele>135.0</ele><time>2026-04-26T11:43:49.538Z</time></trkpt><trkpt lat="43.9311683" lon="12.63756"><ele>135.0</ele><time>2026-04-26T11:43:50.537Z</time></trkpt><trkpt lat="43.9311767" lon="12.6377683"><ele>135.0</ele><time>2026-04-26T11:43:51.537Z</time></trkpt><trkpt lat="43.9311917" lon="12.6379667"><ele>135.0</ele><time>2026-04-26T11:43:52.537Z</time></trkpt><trkpt lat="43.9312117" lon="12.6381533"><ele>135.2</ele><time>2026-04-26T11:43:53.534Z</time></trkpt><trkpt lat="43.9312333" lon="12.6383283"><ele>135.4</ele><time>2026-04-26T11:43:54.538Z</time></trkpt><trkpt lat="43.9312567" lon="12.6384867"><ele>135.6</ele><time>2026-04-26T11:43:55.536Z</time></trkpt><trkpt lat="43.9312783" lon="12.6386283"><ele>135.8</ele><time>2026-04-26T11:43:56.535Z</time></trkpt><trkpt lat="43.9313" lon="12.63875"><ele>136.0</ele><time>2026-04-26T11:43:57.536Z</time></trkpt><trkpt lat="43.93133" lon="12.6388533"><ele>134.8</ele><time>2026-04-26T11:43:58.536Z</time></trkpt><trkpt lat="43.931375" lon="12.6389517"><ele>133.6</ele><time>2026-04-26T11:43:59.536Z</time></trkpt><trkpt lat="43.9314383" lon="12.6390383"><ele>132.4</ele><time>2026-04-26T11:44:00.538Z</time></trkpt><trkpt lat="43.93152" lon="12.6390983"><ele>131.2</ele><time>2026-04-26T11:44:01.54Z</time></trkpt><trkpt lat="43.93162" lon="12.639135"><ele>130.0</ele><time>2026-04-26T11:44:02.54Z</time></trkpt><trkpt lat="43.9317317" lon="12.63916"><ele>128.25</ele><time>2026-04-26T11:44:03.537Z</time></trkpt><trkpt lat="43.9318567" lon="12.6391767"><ele>126.5</ele><time>2026-04-26T11:44:04.535Z</time></trkpt><trkpt lat="43.932005" lon="12.6391917"><ele>124.75</ele><time>2026-04-26T11:44:05.537Z</time></trkpt><trkpt lat="43.9321667" lon="12.6392017"><ele>123.0</ele><time>2026-04-26T11:44:06.536Z</time></trkpt><trkpt lat="43.932325" lon="12.6392067"><ele>123.0</ele><time>2026-04-26T11:44:07.537Z</time></trkpt><trkpt lat="43.9324817" lon="12.6392067"><ele>123.0</ele><time>2026-04-26T11:44:08.538Z</time></trkpt><trkpt lat="43.9326333" lon="12.6392067"><ele>123.0</ele><time>2026-04-26T11:44:09.537Z</time></trkpt><trkpt lat="43.932785" lon="12.6392033"><ele>120.75</ele><time>2026-04-26T11:44:10.537Z</time></trkpt><trkpt lat="43.9329383" lon="12.6392017"><ele>118.5</ele><time>2026-04-26T11:44:11.536Z</time></trkpt><trkpt lat="43.93309" lon="12.6392"><ele>116.25</ele><time>2026-04-26T11:44:12.537Z</time></trkpt><trkpt lat="43.9332333" lon="12.6391983"><ele>114.0</ele><time>2026-04-26T11:44:13.537Z</time></trkpt><trkpt lat="43.933365" lon="12.639195"><ele>112.6</ele><time>2026-04-26T11:44:14.537Z</time></trkpt><trkpt lat="43.9334733" lon="12.6392"><ele>111.2</ele><time>2026-04-26T11:44:15.537Z</time></trkpt><trkpt lat="43.9335617" lon="12.6392267"><ele>109.79999999999998</ele><time>2026-04-26T11:44:16.537Z</time></trkpt><trkpt lat="43.9336333" lon="12.639295"><ele>108.39999999999999</ele><time>2026-04-26T11:44:17.537Z</time></trkpt><trkpt lat="43.9336917" lon="12.6394033"><ele>107.0</ele><time>2026-04-26T11:44:18.539Z</time></trkpt><trkpt lat="43.9337483" lon="12.6395517"><ele>107.0</ele><time>2026-04-26T11:44:19.538Z</time></trkpt><trkpt lat="43.93381" lon="12.6397233"><ele>107.0</ele><time>2026-04-26T11:44:20.538Z</time></trkpt><trkpt lat="43.9338767" lon="12.6398933"><ele>107.0</ele><time>2026-04-26T11:44:21.539Z</time></trkpt><trkpt lat="43.93395" lon="12.64005"><ele>107.0</ele><time>2026-04-26T11:44:22.537Z</time></trkpt><trkpt lat="43.934025" lon="12.6402083"><ele>105.66666666666666</ele><time>2026-04-26T11:44:23.537Z</time></trkpt><trkpt lat="43.9341083" lon="12.64038"><ele>104.33333333333334</ele><time>2026-04-26T11:44:24.537Z</time></trkpt><trkpt lat="43.9341983" lon="12.640555"><ele>103.0</ele><time>2026-04-26T11:44:25.539Z</time></trkpt><trkpt lat="43.9342833" lon="12.640725"><ele>100.75</ele><time>2026-04-26T11:44:26.537Z</time></trkpt><trkpt lat="43.934365" lon="12.6408933"><ele>98.5</ele><time>2026-04-26T11:44:27.533Z</time></trkpt><trkpt lat="43.9344433" lon="12.6410633"><ele>96.25</ele><time>2026-04-26T11:44:28.537Z</time></trkpt><trkpt lat="43.9345233" lon="12.641235"><ele>94.0</ele><time>2026-04-26T11:44:29.537Z</time></trkpt><trkpt lat="43.9346" lon="12.6414083"><ele>93.75</ele><time>2026-04-26T11:44:30.533Z</time></trkpt><trkpt lat="43.9346717" lon="12.6415733"><ele>93.5</ele><time>2026-04-26T11:44:31.534Z</time></trkpt><trkpt lat="43.9347433" lon="12.6417333"><ele>93.25</ele><time>2026-04-26T11:44:32.532Z</time></trkpt><trkpt lat="43.9348167" lon="12.641885"><ele>93.0</ele><time>2026-04-26T11:44:33.534Z</time></trkpt><trkpt lat="43.9348933" lon="12.64203"><ele>92.25</ele><time>2026-04-26T11:44:34.534Z</time></trkpt><trkpt lat="43.934975" lon="12.6421733"><ele>91.5</ele><time>2026-04-26T11:44:35.532Z</time></trkpt><trkpt lat="43.9350683" lon="12.6423133"><ele>90.75</ele><time>2026-04-26T11:44:36.537Z</time></trkpt><trkpt lat="43.9351633" lon="12.6424467"><ele>90.0</ele><time>2026-04-26T11:44:37.537Z</time></trkpt><trkpt lat="43.9352533" lon="12.642575"><ele>90.0</ele><time>2026-04-26T11:44:38.536Z</time></trkpt><trkpt lat="43.93533" lon="12.6426983"><ele>90.0</ele><time>2026-04-26T11:44:39.536Z</time></trkpt><trkpt lat="43.935385" lon="12.6428133"><ele>90.0</ele><time>2026-04-26T11:44:40.539Z</time></trkpt><trkpt lat="43.93542" lon="12.642905"><ele>90.0</ele><time>2026-04-26T11:44:41.536Z</time></trkpt><trkpt lat="43.9354733" lon="12.643025"><ele>90.0</ele><time>2026-04-26T11:44:43.537Z</time></trkpt><trkpt lat="43.9354367" lon="12.6429"><ele>90.0</ele><time>2026-04-26T11:44:55.538Z</time></trkpt><trkpt lat="43.9353883" lon="12.6427883"><ele>90.0</ele><time>2026-04-26T11:44:57.539Z</time></trkpt><trkpt lat="43.9352933" lon="12.642775"><ele>90.0</ele><time>2026-04-26T11:44:59.536Z</time></trkpt><trkpt lat="43.935225" lon="12.6428033"><ele>90.0</ele><time>2026-04-26T11:45:00.535Z</time></trkpt><trkpt lat="43.93515" lon="12.64284"><ele>90.0</ele><time>2026-04-26T11:45:01.536Z</time></trkpt><trkpt lat="43.9350533" lon="12.6429167"><ele>89.6</ele><time>2026-04-26T11:45:02.536Z</time></trkpt><trkpt lat="43.934965" lon="12.6429983"><ele>89.2</ele><time>2026-04-26T11:45:03.535Z</time></trkpt><trkpt lat="43.9349" lon="12.6430817"><ele>88.80000000000001</ele><time>2026-04-26T11:45:04.536Z</time></trkpt><trkpt lat="43.93484" lon="12.6431733"><ele>88.4</ele><time>2026-04-26T11:45:05.536Z</time></trkpt><trkpt lat="43.93478" lon="12.6433083"><ele>88.0</ele><time>2026-04-26T11:45:06.537Z</time></trkpt><trkpt lat="43.9347167" lon="12.643465"><ele>88.75</ele><time>2026-04-26T11:45:07.537Z</time></trkpt><trkpt lat="43.9346417" lon="12.6436333"><ele>89.5</ele><time>2026-04-26T11:45:08.536Z</time></trkpt><trkpt lat="43.9345717" lon="12.6437933"><ele>90.25</ele><time>2026-04-26T11:45:09.535Z</time></trkpt><trkpt lat="43.9345017" lon="12.6439333"><ele>91.0</ele><time>2026-04-26T11:45:10.537Z</time></trkpt><trkpt lat="43.9344367" lon="12.6440433"><ele>91.0</ele><time>2026-04-26T11:45:11.536Z</time></trkpt><trkpt lat="43.9343817" lon="12.6441083"><ele>91.0</ele><time>2026-04-26T11:45:12.536Z</time></trkpt><trkpt lat="43.9343083" lon="12.6441817"><ele>91.0</ele><time>2026-04-26T11:45:14.536Z</time></trkpt><trkpt lat="43.9342267" lon="12.6443017"><ele>91.0</ele><time>2026-04-26T11:45:16.537Z</time></trkpt><trkpt lat="43.93416" lon="12.6443833"><ele>91.0</ele><time>2026-04-26T11:45:17.537Z</time></trkpt><trkpt lat="43.9340933" lon="12.644455"><ele>90.0</ele><time>2026-04-26T11:45:18.534Z</time></trkpt><trkpt lat="43.9340367" lon="12.6445117"><ele>89.0</ele><time>2026-04-26T11:45:19.535Z</time></trkpt><trkpt lat="43.9339533" lon="12.6445967"><ele>88.0</ele><time>2026-04-26T11:45:21.533Z</time></trkpt><trkpt lat="43.93386" lon="12.6447117"><ele>87.0</ele><time>2026-04-26T11:45:23.534Z</time></trkpt><trkpt lat="43.9338133" lon="12.6447817"><ele>86.0</ele><time>2026-04-26T11:45:24.536Z</time></trkpt><trkpt lat="43.933765" lon="12.6448617"><ele>85.0</ele><time>2026-04-26T11:45:25.536Z</time></trkpt><trkpt lat="43.9337133" lon="12.6449517"><ele>85.0</ele><time>2026-04-26T11:45:26.537Z</time></trkpt><trkpt lat="43.9336567" lon="12.645045"><ele>85.0</ele><time>2026-04-26T11:45:27.537Z</time></trkpt><trkpt lat="43.9336" lon="12.64514"><ele>85.0</ele><time>2026-04-26T11:45:28.537Z</time></trkpt><trkpt lat="43.9335417" lon="12.6452383"><ele>85.0</ele><time>2026-04-26T11:45:29.532Z</time></trkpt><trkpt lat="43.9334817" lon="12.64534"><ele>85.0</ele><time>2026-04-26T11:45:30.536Z</time></trkpt><trkpt lat="43.9334267" lon="12.6454333"><ele>85.0</ele><time>2026-04-26T11:45:31.536Z</time></trkpt><trkpt lat="43.9333767" lon="12.6455283"><ele>85.0</ele><time>2026-04-26T11:45:32.537Z</time></trkpt><trkpt lat="43.9333367" lon="12.64563"><ele>85.0</ele><time>2026-04-26T11:45:33.536Z</time></trkpt><trkpt lat="43.9333033" lon="12.64574"><ele>85.0</ele><time>2026-04-26T11:45:34.538Z</time></trkpt><trkpt lat="43.9332783" lon="12.64585"><ele>85.0</ele><time>2026-04-26T11:45:35.536Z</time></trkpt><trkpt lat="43.9332517" lon="12.64595"><ele>85.0</ele><time>2026-04-26T11:45:36.535Z</time></trkpt><trkpt lat="43.9332233" lon="12.6460333"><ele>85.0</ele><time>2026-04-26T11:45:37.536Z</time></trkpt><trkpt lat="43.93319" lon="12.6461183"><ele>85.0</ele><time>2026-04-26T11:45:38.538Z</time></trkpt><trkpt lat="43.9331283" lon="12.6462567"><ele>85.0</ele><time>2026-04-26T11:45:40.536Z</time></trkpt><trkpt lat="43.9330667" lon="12.6463733"><ele>85.0</ele><time>2026-04-26T11:45:42.538Z</time></trkpt><trkpt lat="43.932985" lon="12.6464483"><ele>85.0</ele><time>2026-04-26T11:45:44.536Z</time></trkpt><trkpt lat="43.9329233" lon="12.6464817"><ele>84.83333333333333</ele><time>2026-04-26T11:45:45.536Z</time></trkpt><trkpt lat="43.932855" lon="12.6465233"><ele>84.66666666666666</ele><time>2026-04-26T11:45:46.533Z</time></trkpt><trkpt lat="43.932785" lon="12.6465733"><ele>84.5</ele><time>2026-04-26T11:45:47.533Z</time></trkpt><trkpt lat="43.93272" lon="12.6466317"><ele>84.33333333333333</ele><time>2026-04-26T11:45:48.534Z</time></trkpt><trkpt lat="43.9326583" lon="12.6467183"><ele>84.16666666666667</ele><time>2026-04-26T11:45:49.535Z</time></trkpt><trkpt lat="43.9325883" lon="12.6468233"><ele>84.0</ele><time>2026-04-26T11:45:50.533Z</time></trkpt><trkpt lat="43.9325233" lon="12.6469317"><ele>84.66666666666667</ele><time>2026-04-26T11:45:51.534Z</time></trkpt><trkpt lat="43.9324667" lon="12.6470217"><ele>85.33333333333333</ele><time>2026-04-26T11:45:52.533Z</time></trkpt><trkpt lat="43.9324183" lon="12.647105"><ele>86.0</ele><time>2026-04-26T11:45:53.537Z</time></trkpt><trkpt lat="43.9323783" lon="12.6471733"><ele>86.66666666666666</ele><time>2026-04-26T11:45:54.536Z</time></trkpt><trkpt lat="43.93233" lon="12.64723"><ele>87.33333333333333</ele><time>2026-04-26T11:45:56.536Z</time></trkpt><trkpt lat="43.9322533" lon="12.6472167"><ele>88.0</ele><time>2026-04-26T11:46:00.536Z</time></trkpt><trkpt lat="43.9321817" lon="12.64714"><ele>88.0</ele><time>2026-04-26T11:46:02.534Z</time></trkpt><trkpt lat="43.9320983" lon="12.6470617"><ele>88.0</ele><time>2026-04-26T11:46:04.536Z</time></trkpt><trkpt lat="43.9320133" lon="12.64697"><ele>88.0</ele><time>2026-04-26T11:46:06.536Z</time></trkpt><trkpt lat="43.9319067" lon="12.6468717"><ele>88.0</ele><time>2026-04-26T11:46:08.532Z</time></trkpt><trkpt lat="43.9318483" lon="12.64682"><ele>88.0</ele><time>2026-04-26T11:46:09.534Z</time></trkpt><trkpt lat="43.9317833" lon="12.6467617"><ele>90.33333333333333</ele><time>2026-04-26T11:46:10.536Z</time></trkpt><trkpt lat="43.9317183" lon="12.646705"><ele>92.66666666666666</ele><time>2026-04-26T11:46:11.537Z</time></trkpt><trkpt lat="43.93165" lon="12.6466517"><ele>95.0</ele><time>2026-04-26T11:46:12.536Z</time></trkpt><trkpt lat="43.9315833" lon="12.64659"><ele>97.33333333333333</ele><time>2026-04-26T11:46:13.536Z</time></trkpt><trkpt lat="43.931515" lon="12.6465167"><ele>99.66666666666667</ele><time>2026-04-26T11:46:14.533Z</time></trkpt><trkpt lat="43.93145" lon="12.6464333"><ele>102.0</ele><time>2026-04-26T11:46:15.538Z</time></trkpt><trkpt lat="43.9313817" lon="12.6463583"><ele>102.0</ele><time>2026-04-26T11:46:16.534Z</time></trkpt><trkpt lat="43.931315" lon="12.646285"><ele>102.0</ele><time>2026-04-26T11:46:17.535Z</time></trkpt><trkpt lat="43.9312467" lon="12.6462133"><ele>102.0</ele><time>2026-04-26T11:46:18.537Z</time></trkpt><trkpt lat="43.9311817" lon="12.6461433"><ele>102.0</ele><time>2026-04-26T11:46:19.536Z</time></trkpt><trkpt lat="43.931115" lon="12.6460717"><ele>102.0</ele><time>2026-04-26T11:46:20.535Z</time></trkpt><trkpt lat="43.9310567" lon="12.646005"><ele>102.0</ele><time>2026-04-26T11:46:21.536Z</time></trkpt><trkpt lat="43.9309717" lon="12.6459067"><ele>102.0</ele><time>2026-04-26T11:46:23.536Z</time></trkpt><trkpt lat="43.9310067" lon="12.6459917"><ele>102.0</ele><time>2026-04-26T11:46:42.533Z</time></trkpt><trkpt lat="43.9311067" lon="12.6460983"><ele>102.0</ele><time>2026-04-26T11:46:44.536Z</time></trkpt><trkpt lat="43.9311633" lon="12.64616"><ele>102.0</ele><time>2026-04-26T11:46:45.536Z</time></trkpt><trkpt lat="43.9312167" lon="12.64622"><ele>102.0</ele><time>2026-04-26T11:46:46.543Z</time></trkpt><trkpt lat="43.9312683" lon="12.64628"><ele>102.0</ele><time>2026-04-26T11:46:47.535Z</time></trkpt><trkpt lat="43.9313217" lon="12.646335"><ele>102.0</ele><time>2026-04-26T11:46:48.537Z</time></trkpt><trkpt lat="43.9313767" lon="12.6463933"><ele>102.0</ele><time>2026-04-26T11:46:49.535Z</time></trkpt><trkpt lat="43.93143" lon="12.6464517"><ele>102.0</ele><time>2026-04-26T11:46:50.535Z</time></trkpt><trkpt lat="43.9314833" lon="12.6465167"><ele>102.0</ele><time>2026-04-26T11:46:51.535Z</time></trkpt><trkpt lat="43.9315417" lon="12.64658"><ele>102.0</ele><time>2026-04-26T11:46:52.536Z</time></trkpt><trkpt lat="43.9316033" lon="12.6466383"><ele>102.0</ele><time>2026-04-26T11:46:53.535Z</time></trkpt><trkpt lat="43.931665" lon="12.646695"><ele>102.0</ele><time>2026-04-26T11:46:54.537Z</time></trkpt><trkpt lat="43.9317267" lon="12.6467433"><ele>100.0</ele><time>2026-04-26T11:46:55.534Z</time></trkpt><trkpt lat="43.93179" lon="12.6467917"><ele>98.0</ele><time>2026-04-26T11:46:56.536Z</time></trkpt><trkpt lat="43.9318533" lon="12.6468433"><ele>96.0</ele><time>2026-04-26T11:46:57.534Z</time></trkpt><trkpt lat="43.9319217" lon="12.6469017"><ele>94.0</ele><time>2026-04-26T11:46:58.537Z</time></trkpt><trkpt lat="43.9319867" lon="12.6469583"><ele>92.0</ele><time>2026-04-26T11:46:59.535Z</time></trkpt><trkpt lat="43.9320567" lon="12.6470183"><ele>90.0</ele><time>2026-04-26T11:47:00.536Z</time></trkpt><trkpt lat="43.9321217" lon="12.6470767"><ele>89.66666666666667</ele><time>2026-04-26T11:47:01.537Z</time></trkpt><trkpt lat="43.9321783" lon="12.6471367"><ele>89.33333333333333</ele><time>2026-04-26T11:47:02.537Z</time></trkpt><trkpt lat="43.9322317" lon="12.647195"><ele>89.0</ele><time>2026-04-26T11:47:03.536Z</time></trkpt><trkpt lat="43.9322967" lon="12.6472917"><ele>88.66666666666666</ele><time>2026-04-26T11:47:05.536Z</time></trkpt><trkpt lat="43.9323217" lon="12.6474117"><ele>88.33333333333333</ele><time>2026-04-26T11:47:07.536Z</time></trkpt><trkpt lat="43.9323017" lon="12.6475517"><ele>88.0</ele><time>2026-04-26T11:47:09.536Z</time></trkpt><trkpt lat="43.9322267" lon="12.6476433"><ele>88.0</ele><time>2026-04-26T11:47:11.536Z</time></trkpt><trkpt lat="43.9321717" lon="12.6476867"><ele>88.0</ele><time>2026-04-26T11:47:12.536Z</time></trkpt><trkpt lat="43.9321133" lon="12.647735"><ele>88.0</ele><time>2026-04-26T11:47:13.537Z</time></trkpt><trkpt lat="43.932045" lon="12.6477883"><ele>88.0</ele><time>2026-04-26T11:47:14.533Z</time></trkpt><trkpt lat="43.9319683" lon="12.64783"><ele>88.0</ele><time>2026-04-26T11:47:15.536Z</time></trkpt><trkpt lat="43.9318917" lon="12.6478767"><ele>88.0</ele><time>2026-04-26T11:47:16.534Z</time></trkpt><trkpt lat="43.9318133" lon="12.6479267"><ele>87.5</ele><time>2026-04-26T11:47:17.533Z</time></trkpt><trkpt lat="43.931735" lon="12.6479783"><ele>87.0</ele><time>2026-04-26T11:47:18.533Z</time></trkpt><trkpt lat="43.9316533" lon="12.64803"><ele>86.5</ele><time>2026-04-26T11:47:19.534Z</time></trkpt><trkpt lat="43.9315717" lon="12.6480883"><ele>86.0</ele><time>2026-04-26T11:47:20.534Z</time></trkpt><trkpt lat="43.9315017" lon="12.6481483"><ele>85.5</ele><time>2026-04-26T11:47:21.534Z</time></trkpt><trkpt lat="43.9314383" lon="12.6482067"><ele>85.0</ele><time>2026-04-26T11:47:22.534Z</time></trkpt><trkpt lat="43.93138" lon="12.6482717"><ele>85.83333333333333</ele><time>2026-04-26T11:47:23.533Z</time></trkpt><trkpt lat="43.93133" lon="12.6483333"><ele>86.66666666666666</ele><time>2026-04-26T11:47:24.538Z</time></trkpt><trkpt lat="43.931295" lon="12.6484117"><ele>87.5</ele><time>2026-04-26T11:47:25.533Z</time></trkpt><trkpt lat="43.9312783" lon="12.64851"><ele>88.33333333333333</ele><time>2026-04-26T11:47:26.533Z</time></trkpt><trkpt lat="43.9312617" lon="12.6486167"><ele>89.16666666666667</ele><time>2026-04-26T11:47:27.534Z</time></trkpt><trkpt lat="43.9312517" lon="12.6487117"><ele>90.0</ele><time>2026-04-26T11:47:28.535Z</time></trkpt><trkpt lat="43.9312433" lon="12.6488817"><ele>90.0</ele><time>2026-04-26T11:47:30.534Z</time></trkpt><trkpt lat="43.9312083" lon="12.6490367"><ele>90.0</ele><time>2026-04-26T11:47:32.534Z</time></trkpt><trkpt lat="43.9311317" lon="12.64917"><ele>90.0</ele><time>2026-04-26T11:47:34.537Z</time></trkpt><trkpt lat="43.9310833" lon="12.649235"><ele>90.0</ele><time>2026-04-26T11:47:35.537Z</time></trkpt><trkpt lat="43.9310383" lon="12.6493033"><ele>90.0</ele><time>2026-04-26T11:47:36.534Z</time></trkpt><trkpt lat="43.9309733" lon="12.6494083"><ele>90.5</ele><time>2026-04-26T11:47:38.535Z</time></trkpt><trkpt lat="43.930905" lon="12.6495267"><ele>91.0</ele><time>2026-04-26T11:47:42.536Z</time></trkpt><trkpt lat="43.9308617" lon="12.6495917"><ele>91.5</ele><time>2026-04-26T11:47:43.534Z</time></trkpt><trkpt lat="43.9308133" lon="12.64967"><ele>92.0</ele><time>2026-04-26T11:47:44.537Z</time></trkpt><trkpt lat="43.930775" lon="12.64974"><ele>92.5</ele><time>2026-04-26T11:47:45.533Z</time></trkpt><trkpt lat="43.9307" lon="12.6498517"><ele>93.0</ele><time>2026-04-26T11:47:47.537Z</time></trkpt><trkpt lat="43.930645" lon="12.6499283"><ele>93.0</ele><time>2026-04-26T11:47:48.538Z</time></trkpt><trkpt lat="43.9306" lon="12.650025"><ele>93.0</ele><time>2026-04-26T11:47:49.538Z</time></trkpt><trkpt lat="43.930535" lon="12.6501467"><ele>93.0</ele><time>2026-04-26T11:47:50.536Z</time></trkpt><trkpt lat="43.930445" lon="12.6503117"><ele>93.0</ele><time>2026-04-26T11:47:51.537Z</time></trkpt><trkpt lat="43.9303617" lon="12.6504733"><ele>91.75</ele><time>2026-04-26T11:47:52.537Z</time></trkpt><trkpt lat="43.9302783" lon="12.6506333"><ele>90.5</ele><time>2026-04-26T11:47:53.534Z</time></trkpt><trkpt lat="43.9301983" lon="12.65078"><ele>89.25</ele><time>2026-04-26T11:47:54.536Z</time></trkpt><trkpt lat="43.9301233" lon="12.6509117"><ele>88.0</ele><time>2026-04-26T11:47:55.538Z</time></trkpt><trkpt lat="43.930065" lon="12.6510217"><ele>87.83333333333333</ele><time>2026-04-26T11:47:56.535Z</time></trkpt><trkpt lat="43.930015" lon="12.6511083"><ele>87.66666666666666</ele><time>2026-04-26T11:47:57.535Z</time></trkpt><trkpt lat="43.9299583" lon="12.651215"><ele>87.5</ele><time>2026-04-26T11:47:59.537Z</time></trkpt><trkpt lat="43.9300133" lon="12.6512867"><ele>87.33333333333333</ele><time>2026-04-26T11:48:01.537Z</time></trkpt><trkpt lat="43.93008" lon="12.651345"><ele>87.16666666666667</ele><time>2026-04-26T11:48:02.536Z</time></trkpt><trkpt lat="43.930155" lon="12.65141"><ele>87.0</ele><time>2026-04-26T11:48:03.536Z</time></trkpt><trkpt lat="43.9302383" lon="12.6514917"><ele>85.5</ele><time>2026-04-26T11:48:04.536Z</time></trkpt><trkpt lat="43.9303717" lon="12.6516083"><ele>84.0</ele><time>2026-04-26T11:48:05.534Z</time></trkpt><trkpt lat="43.9304933" lon="12.65172"><ele>82.5</ele><time>2026-04-26T11:48:06.537Z</time></trkpt><trkpt lat="43.9305767" lon="12.65181"><ele>81.0</ele><time>2026-04-26T11:48:07.626Z</time></trkpt><trkpt lat="43.9306367" lon="12.6519017"><ele>80.0</ele><time>2026-04-26T11:48:08.534Z</time></trkpt><trkpt lat="43.930675" lon="12.652"><ele>79.0</ele><time>2026-04-26T11:48:09.537Z</time></trkpt><trkpt lat="43.93068" lon="12.652105"><ele>78.0</ele><time>2026-04-26T11:48:10.537Z</time></trkpt><trkpt lat="43.9306233" lon="12.6522233"><ele>77.0</ele><time>2026-04-26T11:48:11.536Z</time></trkpt><trkpt lat="43.9305533" lon="12.6523483"><ele>76.0</ele><time>2026-04-26T11:48:12.538Z</time></trkpt><trkpt lat="43.930485" lon="12.6524617"><ele>76.0</ele><time>2026-04-26T11:48:13.538Z</time></trkpt><trkpt lat="43.9304333" lon="12.652545"><ele>76.0</ele><time>2026-04-26T11:48:14.534Z</time></trkpt><trkpt lat="43.9303917" lon="12.652615"><ele>76.0</ele><time>2026-04-26T11:48:15.534Z</time></trkpt><trkpt lat="43.9303683" lon="12.6527217"><ele>76.0</ele><time>2026-04-26T11:48:17.537Z</time></trkpt><trkpt lat="43.9304433" lon="12.6528817"><ele>76.0</ele><time>2026-04-26T11:48:19.538Z</time></trkpt><trkpt lat="43.9305267" lon="12.6529783"><ele>75.33333333333333</ele><time>2026-04-26T11:48:20.538Z</time></trkpt><trkpt lat="43.930655" lon="12.6530983"><ele>74.66666666666667</ele><time>2026-04-26T11:48:21.533Z</time></trkpt><trkpt lat="43.93079" lon="12.65323"><ele>74.0</ele><time>2026-04-26T11:48:22.537Z</time></trkpt><trkpt lat="43.9309367" lon="12.6533733"><ele>74.0</ele><time>2026-04-26T11:48:23.536Z</time></trkpt><trkpt lat="43.93108" lon="12.653515"><ele>74.0</ele><time>2026-04-26T11:48:24.537Z</time></trkpt><trkpt lat="43.9312017" lon="12.65364"><ele>74.0</ele><time>2026-04-26T11:48:25.536Z</time></trkpt><trkpt lat="43.9313133" lon="12.6537517"><ele>74.4</ele><time>2026-04-26T11:48:26.537Z</time></trkpt><trkpt lat="43.9314133" lon="12.6538533"><ele>74.80000000000001</ele><time>2026-04-26T11:48:27.538Z</time></trkpt><trkpt lat="43.9314983" lon="12.6539433"><ele>75.19999999999999</ele><time>2026-04-26T11:48:28.537Z</time></trkpt><trkpt lat="43.9315683" lon="12.6540317"><ele>75.6</ele><time>2026-04-26T11:48:29.537Z</time></trkpt><trkpt lat="43.931615" lon="12.6541333"><ele>76.0</ele><time>2026-04-26T11:48:30.537Z</time></trkpt><trkpt lat="43.9316467" lon="12.6542367"><ele>76.0</ele><time>2026-04-26T11:48:31.538Z</time></trkpt><trkpt lat="43.9316567" lon="12.6543267"><ele>76.0</ele><time>2026-04-26T11:48:32.538Z</time></trkpt><trkpt lat="43.9317167" lon="12.654445"><ele>76.0</ele><time>2026-04-26T11:48:34.538Z</time></trkpt><trkpt lat="43.931805" lon="12.6544467"><ele>76.0</ele><time>2026-04-26T11:48:36.538Z</time></trkpt><trkpt lat="43.9318383" lon="12.654345"><ele>76.0</ele><time>2026-04-26T11:48:38.537Z</time></trkpt><trkpt lat="43.9317683" lon="12.6542417"><ele>76.0</ele><time>2026-04-26T11:48:40.537Z</time></trkpt><trkpt lat="43.9316567" lon="12.65425"><ele>76.0</ele><time>2026-04-26T11:48:42.537Z</time></trkpt><trkpt lat="43.9315783" lon="12.6543067"><ele>76.0</ele><time>2026-04-26T11:48:43.538Z</time></trkpt><trkpt lat="43.9315" lon="12.6543733"><ele>76.0</ele><time>2026-04-26T11:48:44.537Z</time></trkpt><trkpt lat="43.9314333" lon="12.6544433"><ele>76.0</ele><time>2026-04-26T11:48:45.537Z</time></trkpt><trkpt lat="43.9313633" lon="12.6545317"><ele>76.0</ele><time>2026-04-26T11:48:46.536Z</time></trkpt><trkpt lat="43.9312867" lon="12.654625"><ele>76.33333333333333</ele><time>2026-04-26T11:48:47.534Z</time></trkpt><trkpt lat="43.9312083" lon="12.65471"><ele>76.66666666666666</ele><time>2026-04-26T11:48:48.538Z</time></trkpt><trkpt lat="43.931135" lon="12.654785"><ele>77.0</ele><time>2026-04-26T11:48:49.536Z</time></trkpt><trkpt lat="43.93108" lon="12.6548733"><ele>77.33333333333333</ele><time>2026-04-26T11:48:50.537Z</time></trkpt><trkpt lat="43.931045" lon="12.6549833"><ele>77.66666666666667</ele><time>2026-04-26T11:48:51.536Z</time></trkpt><trkpt lat="43.931015" lon="12.6550967"><ele>78.0</ele><time>2026-04-26T11:48:52.535Z</time></trkpt><trkpt lat="43.9309767" lon="12.6552033"><ele>77.4</ele><time>2026-04-26T11:48:53.534Z</time></trkpt><trkpt lat="43.9309217" lon="12.6553133"><ele>76.8</ele><time>2026-04-26T11:48:54.534Z</time></trkpt><trkpt lat="43.930855" lon="12.6554233"><ele>76.2</ele><time>2026-04-26T11:48:55.542Z</time></trkpt><trkpt lat="43.9307783" lon="12.6555283"><ele>75.6</ele><time>2026-04-26T11:48:56.535Z</time></trkpt><trkpt lat="43.9307083" lon="12.6556183"><ele>75.0</ele><time>2026-04-26T11:48:57.541Z</time></trkpt><trkpt lat="43.9306433" lon="12.6557017"><ele>75.0</ele><time>2026-04-26T11:48:58.535Z</time></trkpt><trkpt lat="43.930585" lon="12.6557817"><ele>75.0</ele><time>2026-04-26T11:48:59.536Z</time></trkpt><trkpt lat="43.9305383" lon="12.6558817"><ele>75.0</ele><time>2026-04-26T11:49:00.533Z</time></trkpt><trkpt lat="43.9304833" lon="12.6560083"><ele>75.0</ele><time>2026-04-26T11:49:01.534Z</time></trkpt><trkpt lat="43.9304217" lon="12.6561417"><ele>75.0</ele><time>2026-04-26T11:49:02.537Z</time></trkpt><trkpt lat="43.9303517" lon="12.6562783"><ele>74.75</ele><time>2026-04-26T11:49:03.536Z</time></trkpt><trkpt lat="43.9302783" lon="12.656425"><ele>74.5</ele><time>2026-04-26T11:49:04.537Z</time></trkpt><trkpt lat="43.9302" lon="12.6565733"><ele>74.25</ele><time>2026-04-26T11:49:05.534Z</time></trkpt><trkpt lat="43.9301267" lon="12.6567317"><ele>74.0</ele><time>2026-04-26T11:49:06.534Z</time></trkpt><trkpt lat="43.9300483" lon="12.6569017"><ele>73.66666666666667</ele><time>2026-04-26T11:49:07.535Z</time></trkpt><trkpt lat="43.9299633" lon="12.6570817"><ele>73.33333333333333</ele><time>2026-04-26T11:49:08.534Z</time></trkpt><trkpt lat="43.9298783" lon="12.6572717"><ele>73.0</ele><time>2026-04-26T11:49:09.535Z</time></trkpt><trkpt lat="43.9297833" lon="12.6574617"><ele>73.0</ele><time>2026-04-26T11:49:10.537Z</time></trkpt><trkpt lat="43.9296833" lon="12.6576517"><ele>73.0</ele><time>2026-04-26T11:49:11.537Z</time></trkpt><trkpt lat="43.9295883" lon="12.6578317"><ele>73.0</ele><time>2026-04-26T11:49:12.536Z</time></trkpt><trkpt lat="43.9295017" lon="12.658"><ele>72.5</ele><time>2026-04-26T11:49:13.536Z</time></trkpt><trkpt lat="43.929415" lon="12.6581617"><ele>72.0</ele><time>2026-04-26T11:49:14.537Z</time></trkpt><trkpt lat="43.9293317" lon="12.6583217"><ele>71.5</ele><time>2026-04-26T11:49:15.536Z</time></trkpt><trkpt lat="43.92925" lon="12.65848"><ele>71.0</ele><time>2026-04-26T11:49:16.533Z</time></trkpt><trkpt lat="43.9291733" lon="12.6586333"><ele>70.8</ele><time>2026-04-26T11:49:17.533Z</time></trkpt><trkpt lat="43.9291133" lon="12.6587783"><ele>70.6</ele><time>2026-04-26T11:49:18.533Z</time></trkpt><trkpt lat="43.929075" lon="12.65892"><ele>70.4</ele><time>2026-04-26T11:49:19.534Z</time></trkpt><trkpt lat="43.9290683" lon="12.6590583"><ele>70.2</ele><time>2026-04-26T11:49:20.534Z</time></trkpt><trkpt lat="43.9290817" lon="12.6591883"><ele>70.0</ele><time>2026-04-26T11:49:21.533Z</time></trkpt><trkpt lat="43.9291167" lon="12.659295"><ele>70.0</ele><time>2026-04-26T11:49:22.533Z</time></trkpt><trkpt lat="43.9291517" lon="12.6593883"><ele>70.0</ele><time>2026-04-26T11:49:23.534Z</time></trkpt><trkpt lat="43.9291767" lon="12.6594833"><ele>70.0</ele><time>2026-04-26T11:49:24.536Z</time></trkpt><trkpt lat="43.9291767" lon="12.6595783"><ele>70.0</ele><time>2026-04-26T11:49:25.537Z</time></trkpt><trkpt lat="43.9291233" lon="12.659665"><ele>70.0</ele><time>2026-04-26T11:49:26.536Z</time></trkpt><trkpt lat="43.92905" lon="12.6597567"><ele>70.0</ele><time>2026-04-26T11:49:27.536Z</time></trkpt><trkpt lat="43.9289633" lon="12.65986"><ele>70.25</ele><time>2026-04-26T11:49:28.538Z</time></trkpt><trkpt lat="43.9288667" lon="12.6599717"><ele>70.5</ele><time>2026-04-26T11:49:29.536Z</time></trkpt><trkpt lat="43.92876" lon="12.6600833"><ele>70.75</ele><time>2026-04-26T11:49:30.537Z</time></trkpt><trkpt lat="43.9286517" lon="12.6601983"><ele>71.0</ele><time>2026-04-26T11:49:31.536Z</time></trkpt><trkpt lat="43.9285517" lon="12.6603117"><ele>70.5</ele><time>2026-04-26T11:49:32.536Z</time></trkpt><trkpt lat="43.9284567" lon="12.6604217"><ele>70.0</ele><time>2026-04-26T11:49:33.536Z</time></trkpt><trkpt lat="43.9283667" lon="12.66053"><ele>69.5</ele><time>2026-04-26T11:49:34.536Z</time></trkpt><trkpt lat="43.9282817" lon="12.6606333"><ele>69.0</ele><time>2026-04-26T11:49:35.536Z</time></trkpt><trkpt lat="43.9281983" lon="12.66073"><ele>68.2</ele><time>2026-04-26T11:49:36.534Z</time></trkpt><trkpt lat="43.928115" lon="12.6608117"><ele>67.4</ele><time>2026-04-26T11:49:37.536Z</time></trkpt><trkpt lat="43.9280233" lon="12.6608667"><ele>66.6</ele><time>2026-04-26T11:49:38.537Z</time></trkpt><trkpt lat="43.927935" lon="12.6608667"><ele>65.8</ele><time>2026-04-26T11:49:39.536Z</time></trkpt><trkpt lat="43.927855" lon="12.66086"><ele>65.0</ele><time>2026-04-26T11:49:40.536Z</time></trkpt><trkpt lat="43.9277767" lon="12.66088"><ele>65.0</ele><time>2026-04-26T11:49:41.537Z</time></trkpt><trkpt lat="43.92772" lon="12.6609317"><ele>65.0</ele><time>2026-04-26T11:49:42.536Z</time></trkpt><trkpt lat="43.9277083" lon="12.66102"><ele>65.0</ele><time>2026-04-26T11:49:43.537Z</time></trkpt><trkpt lat="43.9277667" lon="12.6611983"><ele>65.0</ele><time>2026-04-26T11:49:45.537Z</time></trkpt><trkpt lat="43.9278367" lon="12.6612883"><ele>65.0</ele><time>2026-04-26T11:49:46.536Z</time></trkpt><trkpt lat="43.92792" lon="12.6613833"><ele>63.5</ele><time>2026-04-26T11:49:47.536Z</time></trkpt><trkpt lat="43.9280083" lon="12.6615067"><ele>62.0</ele><time>2026-04-26T11:49:48.536Z</time></trkpt><trkpt lat="43.92808" lon="12.6616683"><ele>60.5</ele><time>2026-04-26T11:49:49.537Z</time></trkpt><trkpt lat="43.9281483" lon="12.6618633"><ele>59.0</ele><time>2026-04-26T11:49:50.536Z</time></trkpt><trkpt lat="43.9282167" lon="12.6620667"><ele>58.0</ele><time>2026-04-26T11:49:51.536Z</time></trkpt><trkpt lat="43.9282983" lon="12.6622733"><ele>57.0</ele><time>2026-04-26T11:49:52.536Z</time></trkpt><trkpt lat="43.9283867" lon="12.6624967"><ele>56.0</ele><time>2026-04-26T11:49:53.537Z</time></trkpt><trkpt lat="43.9284817" lon="12.6627533"><ele>56.5</ele><time>2026-04-26T11:49:54.536Z</time></trkpt><trkpt lat="43.928585" lon="12.66303"><ele>57.0</ele><time>2026-04-26T11:49:55.536Z</time></trkpt><trkpt lat="43.9287033" lon="12.66331"><ele>57.0</ele><time>2026-04-26T11:49:56.537Z</time></trkpt><trkpt lat="43.928835" lon="12.6635783"><ele>57.0</ele><time>2026-04-26T11:49:57.536Z</time></trkpt><trkpt lat="43.92898" lon="12.66383"><ele>57.0</ele><time>2026-04-26T11:49:58.536Z</time></trkpt><trkpt lat="43.929125" lon="12.6640617"><ele>57.0</ele><time>2026-04-26T11:49:59.537Z</time></trkpt><trkpt lat="43.92926" lon="12.6642733"><ele>57.0</ele><time>2026-04-26T11:50:00.537Z</time></trkpt><trkpt lat="43.9293933" lon="12.6644717"><ele>56.33333333333333</ele><time>2026-04-26T11:50:01.533Z</time></trkpt><trkpt lat="43.9295217" lon="12.664655"><ele>55.666666666666664</ele><time>2026-04-26T11:50:02.533Z</time></trkpt><trkpt lat="43.9296417" lon="12.664825"><ele>55.0</ele><time>2026-04-26T11:50:03.537Z</time></trkpt><trkpt lat="43.92974" lon="12.664985"><ele>55.0</ele><time>2026-04-26T11:50:04.536Z</time></trkpt><trkpt lat="43.9298067" lon="12.66514"><ele>55.0</ele><time>2026-04-26T11:50:05.536Z</time></trkpt><trkpt lat="43.9298483" lon="12.6653133"><ele>55.0</ele><time>2026-04-26T11:50:06.537Z</time></trkpt><trkpt lat="43.92987" lon="12.6655167"><ele>55.0</ele><time>2026-04-26T11:50:07.537Z</time></trkpt><trkpt lat="43.9298633" lon="12.665735"><ele>54.666666666666664</ele><time>2026-04-26T11:50:08.532Z</time></trkpt><trkpt lat="43.9298217" lon="12.6659617"><ele>54.33333333333333</ele><time>2026-04-26T11:50:09.533Z</time></trkpt><trkpt lat="43.9297467" lon="12.6661967"><ele>54.0</ele><time>2026-04-26T11:50:10.536Z</time></trkpt><trkpt lat="43.9296467" lon="12.6664417"><ele>54.0</ele><time>2026-04-26T11:50:11.534Z</time></trkpt><trkpt lat="43.9295267" lon="12.6666933"><ele>54.0</ele><time>2026-04-26T11:50:12.536Z</time></trkpt><trkpt lat="43.9293833" lon="12.6669483"><ele>53.5</ele><time>2026-04-26T11:50:13.536Z</time></trkpt><trkpt lat="43.92922" lon="12.667195"><ele>53.0</ele><time>2026-04-26T11:50:14.537Z</time></trkpt><trkpt lat="43.9290317" lon="12.6674183"><ele>53.0</ele><time>2026-04-26T11:50:15.537Z</time></trkpt><trkpt lat="43.9288233" lon="12.6676217"><ele>53.0</ele><time>2026-04-26T11:50:16.536Z</time></trkpt><trkpt lat="43.9286067" lon="12.6678"><ele>51.5</ele><time>2026-04-26T11:50:17.537Z</time></trkpt><trkpt lat="43.9283833" lon="12.6679733"><ele>50.0</ele><time>2026-04-26T11:50:18.536Z</time></trkpt><trkpt lat="43.9281583" lon="12.6681483"><ele>50.0</ele><time>2026-04-26T11:50:19.538Z</time></trkpt><trkpt lat="43.9279333" lon="12.6683367"><ele>50.0</ele><time>2026-04-26T11:50:20.536Z</time></trkpt><trkpt lat="43.92771" lon="12.6685367"><ele>48.5</ele><time>2026-04-26T11:50:21.536Z</time></trkpt><trkpt lat="43.9274917" lon="12.6687483"><ele>47.0</ele><time>2026-04-26T11:50:22.537Z</time></trkpt><trkpt lat="43.9272833" lon="12.6689767"><ele>47.0</ele><time>2026-04-26T11:50:23.537Z</time></trkpt><trkpt lat="43.9270817" lon="12.6692167"><ele>47.0</ele><time>2026-04-26T11:50:24.536Z</time></trkpt><trkpt lat="43.9268817" lon="12.669465"><ele>45.5</ele><time>2026-04-26T11:50:25.538Z</time></trkpt><trkpt lat="43.9266817" lon="12.6697117"><ele>44.0</ele><time>2026-04-26T11:50:26.536Z</time></trkpt><trkpt lat="43.9264833" lon="12.6699567"><ele>44.0</ele><time>2026-04-26T11:50:27.536Z</time></trkpt><trkpt lat="43.926285" lon="12.6702017"><ele>44.0</ele><time>2026-04-26T11:50:28.536Z</time></trkpt><trkpt lat="43.9260867" lon="12.6704417"><ele>42.5</ele><time>2026-04-26T11:50:29.536Z</time></trkpt><trkpt lat="43.92589" lon="12.6706817"><ele>41.0</ele><time>2026-04-26T11:50:30.536Z</time></trkpt><trkpt lat="43.925695" lon="12.6709233"><ele>41.0</ele><time>2026-04-26T11:50:31.536Z</time></trkpt><trkpt lat="43.9255033" lon="12.67117"><ele>41.0</ele><time>2026-04-26T11:50:32.535Z</time></trkpt><trkpt lat="43.92531" lon="12.6714117"><ele>41.0</ele><time>2026-04-26T11:50:33.536Z</time></trkpt><trkpt lat="43.9251217" lon="12.6716483"><ele>41.0</ele><time>2026-04-26T11:50:34.536Z</time></trkpt><trkpt lat="43.9249383" lon="12.6718783"><ele>44.5</ele><time>2026-04-26T11:50:35.536Z</time></trkpt><trkpt lat="43.9247683" lon="12.6720917"><ele>48.0</ele><time>2026-04-26T11:50:36.536Z</time></trkpt><trkpt lat="43.9246117" lon="12.6723083"><ele>48.0</ele><time>2026-04-26T11:50:37.536Z</time></trkpt><trkpt lat="43.9244717" lon="12.6725333"><ele>48.0</ele><time>2026-04-26T11:50:38.536Z</time></trkpt><trkpt lat="43.9243517" lon="12.672755"><ele>48.0</ele><time>2026-04-26T11:50:39.536Z</time></trkpt><trkpt lat="43.9242483" lon="12.6729733"><ele>49.33333333333333</ele><time>2026-04-26T11:50:40.537Z</time></trkpt><trkpt lat="43.9241567" lon="12.6731817"><ele>50.666666666666664</ele><time>2026-04-26T11:50:41.536Z</time></trkpt><trkpt lat="43.9240767" lon="12.6733717"><ele>52.0</ele><time>2026-04-26T11:50:42.534Z</time></trkpt><trkpt lat="43.923995" lon="12.6735417"><ele>51.6</ele><time>2026-04-26T11:50:43.536Z</time></trkpt><trkpt lat="43.92391" lon="12.6736683"><ele>51.2</ele><time>2026-04-26T11:50:44.537Z</time></trkpt><trkpt lat="43.9238217" lon="12.6737467"><ele>50.8</ele><time>2026-04-26T11:50:45.537Z</time></trkpt><trkpt lat="43.92374" lon="12.6738183"><ele>50.4</ele><time>2026-04-26T11:50:46.536Z</time></trkpt><trkpt lat="43.9236767" lon="12.6739133"><ele>50.0</ele><time>2026-04-26T11:50:47.536Z</time></trkpt><trkpt lat="43.9236467" lon="12.6740233"><ele>50.0</ele><time>2026-04-26T11:50:48.536Z</time></trkpt><trkpt lat="43.9236433" lon="12.6741283"><ele>50.0</ele><time>2026-04-26T11:50:49.537Z</time></trkpt><trkpt lat="43.9236867" lon="12.6742317"><ele>50.0</ele><time>2026-04-26T11:50:50.536Z</time></trkpt><trkpt lat="43.9237517" lon="12.6743283"><ele>50.0</ele><time>2026-04-26T11:50:51.536Z</time></trkpt><trkpt lat="43.923885" lon="12.6744017"><ele>50.0</ele><time>2026-04-26T11:50:52.536Z</time></trkpt><trkpt lat="43.924045" lon="12.67452"><ele>50.0</ele><time>2026-04-26T11:50:53.536Z</time></trkpt><trkpt lat="43.92419" lon="12.6746967"><ele>50.0</ele><time>2026-04-26T11:50:54.537Z</time></trkpt><trkpt lat="43.9243267" lon="12.674895"><ele>50.0</ele><time>2026-04-26T11:50:55.536Z</time></trkpt><trkpt lat="43.9244733" lon="12.6751083"><ele>49.5</ele><time>2026-04-26T11:50:56.536Z</time></trkpt><trkpt lat="43.9246317" lon="12.6753333"><ele>49.0</ele><time>2026-04-26T11:50:57.536Z</time></trkpt><trkpt lat="43.92479" lon="12.6755683"><ele>49.0</ele><time>2026-04-26T11:50:58.538Z</time></trkpt><trkpt lat="43.9249517" lon="12.67581"><ele>49.0</ele><time>2026-04-26T11:50:59.537Z</time></trkpt><trkpt lat="43.9251133" lon="12.6760633"><ele>48.5</ele><time>2026-04-26T11:51:00.537Z</time></trkpt><trkpt lat="43.925275" lon="12.676325"><ele>48.0</ele><time>2026-04-26T11:51:01.537Z</time></trkpt><trkpt lat="43.9254367" lon="12.676595"><ele>48.0</ele><time>2026-04-26T11:51:02.536Z</time></trkpt><trkpt lat="43.9255983" lon="12.6768717"><ele>48.0</ele><time>2026-04-26T11:51:03.536Z</time></trkpt><trkpt lat="43.9257633" lon="12.6771567"><ele>48.0</ele><time>2026-04-26T11:51:04.537Z</time></trkpt><trkpt lat="43.9259217" lon="12.6774483"><ele>48.0</ele><time>2026-04-26T11:51:05.536Z</time></trkpt><trkpt lat="43.9260733" lon="12.6777483"><ele>48.0</ele><time>2026-04-26T11:51:06.536Z</time></trkpt><trkpt lat="43.9262233" lon="12.67805"><ele>48.0</ele><time>2026-04-26T11:51:07.537Z</time></trkpt><trkpt lat="43.9263733" lon="12.67835"><ele>48.0</ele><time>2026-04-26T11:51:08.536Z</time></trkpt><trkpt lat="43.9265267" lon="12.6786467"><ele>48.0</ele><time>2026-04-26T11:51:09.537Z</time></trkpt><trkpt lat="43.9266783" lon="12.67894"><ele>48.0</ele><time>2026-04-26T11:51:10.536Z</time></trkpt><trkpt lat="43.9268333" lon="12.67923"><ele>48.0</ele><time>2026-04-26T11:51:11.536Z</time></trkpt><trkpt lat="43.9269867" lon="12.67952"><ele>48.0</ele><time>2026-04-26T11:51:12.536Z</time></trkpt><trkpt lat="43.92714" lon="12.6798117"><ele>48.0</ele><time>2026-04-26T11:51:13.536Z</time></trkpt><trkpt lat="43.9272933" lon="12.6801"><ele>48.5</ele><time>2026-04-26T11:51:14.539Z</time></trkpt><trkpt lat="43.9274467" lon="12.68038"><ele>49.0</ele><time>2026-04-26T11:51:15.537Z</time></trkpt><trkpt lat="43.9276033" lon="12.6806533"><ele>49.5</ele><time>2026-04-26T11:51:16.537Z</time></trkpt><trkpt lat="43.9277683" lon="12.680925"><ele>50.0</ele><time>2026-04-26T11:51:17.533Z</time></trkpt><trkpt lat="43.92794" lon="12.6811867"><ele>50.0</ele><time>2026-04-26T11:51:18.534Z</time></trkpt><trkpt lat="43.92811" lon="12.6814417"><ele>50.0</ele><time>2026-04-26T11:51:19.534Z</time></trkpt><trkpt lat="43.928285" lon="12.681695"><ele>49.0</ele><time>2026-04-26T11:51:20.534Z</time></trkpt><trkpt lat="43.9284633" lon="12.681945"><ele>48.0</ele><time>2026-04-26T11:51:21.533Z</time></trkpt><trkpt lat="43.9286467" lon="12.68219"><ele>48.0</ele><time>2026-04-26T11:51:22.535Z</time></trkpt><trkpt lat="43.9288333" lon="12.6824317"><ele>48.0</ele><time>2026-04-26T11:51:23.533Z</time></trkpt><trkpt lat="43.9290233" lon="12.6826717"><ele>48.0</ele><time>2026-04-26T11:51:24.534Z</time></trkpt><trkpt lat="43.929215" lon="12.6829083"><ele>48.0</ele><time>2026-04-26T11:51:25.534Z</time></trkpt><trkpt lat="43.9294067" lon="12.6831483"><ele>48.0</ele><time>2026-04-26T11:51:26.533Z</time></trkpt><trkpt lat="43.9295983" lon="12.6833883"><ele>48.0</ele><time>2026-04-26T11:51:27.534Z</time></trkpt><trkpt lat="43.929795" lon="12.6836333"><ele>47.5</ele><time>2026-04-26T11:51:28.536Z</time></trkpt><trkpt lat="43.9299967" lon="12.683885"><ele>47.0</ele><time>2026-04-26T11:51:29.537Z</time></trkpt><trkpt lat="43.930205" lon="12.6841417"><ele>47.0</ele><time>2026-04-26T11:51:30.536Z</time></trkpt><trkpt lat="43.93042" lon="12.6844033"><ele>47.0</ele><time>2026-04-26T11:51:31.537Z</time></trkpt><trkpt lat="43.9306367" lon="12.68467"><ele>47.0</ele><time>2026-04-26T11:51:32.536Z</time></trkpt><trkpt lat="43.9308483" lon="12.6849283"><ele>47.0</ele><time>2026-04-26T11:51:33.537Z</time></trkpt><trkpt lat="43.9310467" lon="12.6851717"><ele>47.0</ele><time>2026-04-26T11:51:34.541Z</time></trkpt><trkpt lat="43.9312317" lon="12.6853983"><ele>47.0</ele><time>2026-04-26T11:51:35.536Z</time></trkpt><trkpt lat="43.9314033" lon="12.6856117"><ele>47.0</ele><time>2026-04-26T11:51:36.536Z</time></trkpt><trkpt lat="43.931565" lon="12.6858117"><ele>47.0</ele><time>2026-04-26T11:51:37.534Z</time></trkpt><trkpt lat="43.93171" lon="12.686005"><ele>47.0</ele><time>2026-04-26T11:51:38.534Z</time></trkpt><trkpt lat="43.93184" lon="12.6862033"><ele>46.33333333333333</ele><time>2026-04-26T11:51:39.533Z</time></trkpt><trkpt lat="43.9319433" lon="12.6864167"><ele>45.666666666666664</ele><time>2026-04-26T11:51:40.535Z</time></trkpt><trkpt lat="43.9320117" lon="12.6866367"><ele>45.0</ele><time>2026-04-26T11:51:41.543Z</time></trkpt><trkpt lat="43.9320667" lon="12.686855"><ele>44.666666666666664</ele><time>2026-04-26T11:51:42.537Z</time></trkpt><trkpt lat="43.9320867" lon="12.6870633"><ele>44.33333333333333</ele><time>2026-04-26T11:51:43.537Z</time></trkpt><trkpt lat="43.93206" lon="12.6872633"><ele>44.0</ele><time>2026-04-26T11:51:44.533Z</time></trkpt><trkpt lat="43.9319967" lon="12.687455"><ele>44.0</ele><time>2026-04-26T11:51:45.537Z</time></trkpt><trkpt lat="43.931895" lon="12.6876517"><ele>44.0</ele><time>2026-04-26T11:51:46.536Z</time></trkpt><trkpt lat="43.9317717" lon="12.6878617"><ele>44.0</ele><time>2026-04-26T11:51:47.534Z</time></trkpt><trkpt lat="43.9316367" lon="12.688085"><ele>44.0</ele><time>2026-04-26T11:51:48.535Z</time></trkpt><trkpt lat="43.931485" lon="12.6883183"><ele>44.0</ele><time>2026-04-26T11:51:49.536Z</time></trkpt><trkpt lat="43.93132" lon="12.6885583"><ele>43.5</ele><time>2026-04-26T11:51:50.533Z</time></trkpt><trkpt lat="43.9311333" lon="12.6887967"><ele>43.0</ele><time>2026-04-26T11:51:51.534Z</time></trkpt><trkpt lat="43.9309383" lon="12.6890283"><ele>43.0</ele><time>2026-04-26T11:51:52.535Z</time></trkpt><trkpt lat="43.9307417" lon="12.689245"><ele>43.0</ele><time>2026-04-26T11:51:53.535Z</time></trkpt><trkpt lat="43.9305567" lon="12.6894417"><ele>43.0</ele><time>2026-04-26T11:51:54.541Z</time></trkpt><trkpt lat="43.93038" lon="12.6896233"><ele>43.0</ele><time>2026-04-26T11:51:55.536Z</time></trkpt><trkpt lat="43.9302167" lon="12.6897917"><ele>43.0</ele><time>2026-04-26T11:51:56.534Z</time></trkpt><trkpt lat="43.93007" lon="12.6899517"><ele>43.25</ele><time>2026-04-26T11:51:57.534Z</time></trkpt><trkpt lat="43.9299383" lon="12.6900983"><ele>43.5</ele><time>2026-04-26T11:51:58.536Z</time></trkpt><trkpt lat="43.9298233" lon="12.69022"><ele>43.75</ele><time>2026-04-26T11:51:59.534Z</time></trkpt><trkpt lat="43.92973" lon="12.6903167"><ele>44.0</ele><time>2026-04-26T11:52:00.534Z</time></trkpt><trkpt lat="43.9296517" lon="12.6903817"><ele>44.0</ele><time>2026-04-26T11:52:01.534Z</time></trkpt><trkpt lat="43.9295817" lon="12.690415"><ele>44.0</ele><time>2026-04-26T11:52:02.534Z</time></trkpt><trkpt lat="43.9295117" lon="12.6904267"><ele>44.0</ele><time>2026-04-26T11:52:03.535Z</time></trkpt><trkpt lat="43.9294383" lon="12.6904"><ele>44.0</ele><time>2026-04-26T11:52:04.534Z</time></trkpt><trkpt lat="43.9293633" lon="12.6903633"><ele>44.0</ele><time>2026-04-26T11:52:05.535Z</time></trkpt><trkpt lat="43.9293067" lon="12.6902367"><ele>44.0</ele><time>2026-04-26T11:52:06.534Z</time></trkpt><trkpt lat="43.929235" lon="12.69006"><ele>44.666666666666664</ele><time>2026-04-26T11:52:07.535Z</time></trkpt><trkpt lat="43.9291517" lon="12.6899067"><ele>45.333333333333336</ele><time>2026-04-26T11:52:08.535Z</time></trkpt><trkpt lat="43.9290283" lon="12.6897167"><ele>46.0</ele><time>2026-04-26T11:52:09.535Z</time></trkpt><trkpt lat="43.9288717" lon="12.6895217"><ele>46.0</ele><time>2026-04-26T11:52:10.534Z</time></trkpt><trkpt lat="43.9287183" lon="12.6893417"><ele>46.0</ele><time>2026-04-26T11:52:11.534Z</time></trkpt><trkpt lat="43.9285583" lon="12.68916"><ele>46.0</ele><time>2026-04-26T11:52:12.534Z</time></trkpt><trkpt lat="43.9283917" lon="12.68898"><ele>46.333333333333336</ele><time>2026-04-26T11:52:13.536Z</time></trkpt><trkpt lat="43.92823" lon="12.6888067"><ele>46.666666666666664</ele><time>2026-04-26T11:52:14.536Z</time></trkpt><trkpt lat="43.9280833" lon="12.688635"><ele>47.0</ele><time>2026-04-26T11:52:15.537Z</time></trkpt><trkpt lat="43.9279483" lon="12.6884817"><ele>47.33333333333333</ele><time>2026-04-26T11:52:16.537Z</time></trkpt><trkpt lat="43.9278267" lon="12.68834"><ele>47.666666666666664</ele><time>2026-04-26T11:52:17.549Z</time></trkpt><trkpt lat="43.92771" lon="12.688195"><ele>48.0</ele><time>2026-04-26T11:52:18.533Z</time></trkpt><trkpt lat="43.9276033" lon="12.6880367"><ele>47.666666666666664</ele><time>2026-04-26T11:52:19.535Z</time></trkpt><trkpt lat="43.9274983" lon="12.6878633"><ele>47.33333333333333</ele><time>2026-04-26T11:52:20.533Z</time></trkpt><trkpt lat="43.9273967" lon="12.687665"><ele>47.0</ele><time>2026-04-26T11:52:21.535Z</time></trkpt><trkpt lat="43.9272967" lon="12.687455"><ele>47.666666666666664</ele><time>2026-04-26T11:52:22.534Z</time></trkpt><trkpt lat="43.9271967" lon="12.6872467"><ele>48.33333333333333</ele><time>2026-04-26T11:52:23.533Z</time></trkpt><trkpt lat="43.9270967" lon="12.6870317"><ele>49.0</ele><time>2026-04-26T11:52:24.534Z</time></trkpt><trkpt lat="43.9269967" lon="12.68682"><ele>49.0</ele><time>2026-04-26T11:52:25.536Z</time></trkpt><trkpt lat="43.9269" lon="12.68662"><ele>49.0</ele><time>2026-04-26T11:52:26.534Z</time></trkpt><trkpt lat="43.92679" lon="12.686435"><ele>49.0</ele><time>2026-04-26T11:52:27.533Z</time></trkpt><trkpt lat="43.9266683" lon="12.686255"><ele>49.33333333333333</ele><time>2026-04-26T11:52:28.537Z</time></trkpt><trkpt lat="43.9265333" lon="12.6860817"><ele>49.66666666666667</ele><time>2026-04-26T11:52:29.537Z</time></trkpt><trkpt lat="43.92638" lon="12.6859167"><ele>50.0</ele><time>2026-04-26T11:52:30.537Z</time></trkpt><trkpt lat="43.92622" lon="12.6857533"><ele>50.0</ele><time>2026-04-26T11:52:31.534Z</time></trkpt><trkpt lat="43.92606" lon="12.6855917"><ele>50.0</ele><time>2026-04-26T11:52:32.537Z</time></trkpt><trkpt lat="43.9259067" lon="12.685435"><ele>50.0</ele><time>2026-04-26T11:52:33.535Z</time></trkpt><trkpt lat="43.9257683" lon="12.6852867"><ele>50.0</ele><time>2026-04-26T11:52:34.536Z</time></trkpt><trkpt lat="43.9256317" lon="12.6851467"><ele>50.0</ele><time>2026-04-26T11:52:35.538Z</time></trkpt><trkpt lat="43.9254983" lon="12.6850083"><ele>50.0</ele><time>2026-04-26T11:52:36.537Z</time></trkpt><trkpt lat="43.925365" lon="12.6848683"><ele>50.0</ele><time>2026-04-26T11:52:37.538Z</time></trkpt><trkpt lat="43.925235" lon="12.6847217"><ele>50.0</ele><time>2026-04-26T11:52:38.536Z</time></trkpt><trkpt lat="43.925115" lon="12.684575"><ele>50.0</ele><time>2026-04-26T11:52:39.533Z</time></trkpt><trkpt lat="43.925" lon="12.6844283"><ele>50.5</ele><time>2026-04-26T11:52:40.534Z</time></trkpt><trkpt lat="43.9248917" lon="12.684275"><ele>51.0</ele><time>2026-04-26T11:52:41.535Z</time></trkpt><trkpt lat="43.9248" lon="12.6841167"><ele>51.5</ele><time>2026-04-26T11:52:42.537Z</time></trkpt><trkpt lat="43.9247233" lon="12.6839533"><ele>52.0</ele><time>2026-04-26T11:52:43.536Z</time></trkpt><trkpt lat="43.9246517" lon="12.683785"><ele>52.0</ele><time>2026-04-26T11:52:44.535Z</time></trkpt><trkpt lat="43.92458" lon="12.6836167"><ele>52.0</ele><time>2026-04-26T11:52:45.534Z</time></trkpt><trkpt lat="43.9245117" lon="12.6834517"><ele>52.0</ele><time>2026-04-26T11:52:46.537Z</time></trkpt><trkpt lat="43.9244467" lon="12.6832933"><ele>52.0</ele><time>2026-04-26T11:52:47.533Z</time></trkpt><trkpt lat="43.9243833" lon="12.6831383"><ele>52.0</ele><time>2026-04-26T11:52:48.534Z</time></trkpt><trkpt lat="43.9243167" lon="12.6829817"><ele>52.0</ele><time>2026-04-26T11:52:49.535Z</time></trkpt><trkpt lat="43.92425" lon="12.6828267"><ele>52.0</ele><time>2026-04-26T11:52:50.534Z</time></trkpt><trkpt lat="43.9241883" lon="12.6826767"><ele>52.0</ele><time>2026-04-26T11:52:51.534Z</time></trkpt><trkpt lat="43.924125" lon="12.6825267"><ele>52.0</ele><time>2026-04-26T11:52:52.534Z</time></trkpt><trkpt lat="43.9240583" lon="12.6823633"><ele>52.0</ele><time>2026-04-26T11:52:53.533Z</time></trkpt><trkpt lat="43.9239883" lon="12.6821933"><ele>52.0</ele><time>2026-04-26T11:52:54.534Z</time></trkpt><trkpt lat="43.9239117" lon="12.6820133"><ele>52.0</ele><time>2026-04-26T11:52:55.534Z</time></trkpt><trkpt lat="43.9238417" lon="12.6818367"><ele>51.75</ele><time>2026-04-26T11:52:56.534Z</time></trkpt><trkpt lat="43.9237683" lon="12.6816583"><ele>51.5</ele><time>2026-04-26T11:52:57.533Z</time></trkpt><trkpt lat="43.923695" lon="12.6814833"><ele>51.25</ele><time>2026-04-26T11:52:58.534Z</time></trkpt><trkpt lat="43.9236317" lon="12.681315"><ele>51.0</ele><time>2026-04-26T11:52:59.534Z</time></trkpt><trkpt lat="43.92358" lon="12.6811633"><ele>51.333333333333336</ele><time>2026-04-26T11:53:00.536Z</time></trkpt><trkpt lat="43.92353" lon="12.6810333"><ele>51.66666666666667</ele><time>2026-04-26T11:53:01.537Z</time></trkpt><trkpt lat="43.9234783" lon="12.6809433"><ele>52.0</ele><time>2026-04-26T11:53:02.537Z</time></trkpt><trkpt lat="43.9234233" lon="12.680885"><ele>52.333333333333336</ele><time>2026-04-26T11:53:03.538Z</time></trkpt><trkpt lat="43.923355" lon="12.6808867"><ele>52.66666666666667</ele><time>2026-04-26T11:53:04.537Z</time></trkpt><trkpt lat="43.9232883" lon="12.6809"><ele>53.0</ele><time>2026-04-26T11:53:05.536Z</time></trkpt><trkpt lat="43.92317" lon="12.6809817"><ele>53.0</ele><time>2026-04-26T11:53:06.537Z</time></trkpt><trkpt lat="43.9230433" lon="12.6810683"><ele>53.0</ele><time>2026-04-26T11:53:07.538Z</time></trkpt><trkpt lat="43.9229167" lon="12.68115"><ele>53.0</ele><time>2026-04-26T11:53:08.537Z</time></trkpt><trkpt lat="43.92279" lon="12.6812283"><ele>53.0</ele><time>2026-04-26T11:53:09.536Z</time></trkpt><trkpt lat="43.922435" lon="12.68145"><ele>52.75</ele><time>2026-04-26T11:53:12.535Z</time></trkpt><trkpt lat="43.9223183" lon="12.6815233"><ele>52.5</ele><time>2026-04-26T11:53:13.534Z</time></trkpt><trkpt lat="43.9221917" lon="12.6816033"><ele>52.25</ele><time>2026-04-26T11:53:14.533Z</time></trkpt><trkpt lat="43.922055" lon="12.681685"><ele>52.0</ele><time>2026-04-26T11:53:15.537Z</time></trkpt><trkpt lat="43.9219233" lon="12.6817633"><ele>52.0</ele><time>2026-04-26T11:53:16.535Z</time></trkpt><trkpt lat="43.9217933" lon="12.6818317"><ele>52.0</ele><time>2026-04-26T11:53:17.535Z</time></trkpt><trkpt lat="43.92167" lon="12.681895"><ele>52.0</ele><time>2026-04-26T11:53:18.536Z</time></trkpt><trkpt lat="43.921565" lon="12.6819517"><ele>52.0</ele><time>2026-04-26T11:53:19.535Z</time></trkpt><trkpt lat="43.921465" lon="12.682"><ele>51.83333333333333</ele><time>2026-04-26T11:53:20.536Z</time></trkpt><trkpt lat="43.9213767" lon="12.68205"><ele>51.666666666666664</ele><time>2026-04-26T11:53:21.536Z</time></trkpt><trkpt lat="43.9213017" lon="12.6821"><ele>51.5</ele><time>2026-04-26T11:53:22.536Z</time></trkpt><trkpt lat="43.9212367" lon="12.68214"><ele>51.33333333333333</ele><time>2026-04-26T11:53:23.537Z</time></trkpt><trkpt lat="43.9211617" lon="12.6821817"><ele>51.166666666666664</ele><time>2026-04-26T11:53:24.533Z</time></trkpt><trkpt lat="43.9210767" lon="12.6822333"><ele>51.0</ele><time>2026-04-26T11:53:25.535Z</time></trkpt><trkpt lat="43.9209783" lon="12.6822983"><ele>51.0</ele><time>2026-04-26T11:53:26.535Z</time></trkpt><trkpt lat="43.920875" lon="12.682365"><ele>51.0</ele><time>2026-04-26T11:53:27.536Z</time></trkpt><trkpt lat="43.9207717" lon="12.6824183"><ele>51.0</ele><time>2026-04-26T11:53:28.536Z</time></trkpt><trkpt lat="43.920675" lon="12.68247"><ele>51.0</ele><time>2026-04-26T11:53:29.537Z</time></trkpt><trkpt lat="43.920595" lon="12.6825267"><ele>51.0</ele><time>2026-04-26T11:53:30.534Z</time></trkpt><trkpt lat="43.92052" lon="12.682575"><ele>51.0</ele><time>2026-04-26T11:53:31.536Z</time></trkpt><trkpt lat="43.92047" lon="12.6826367"><ele>51.0</ele><time>2026-04-26T11:53:32.536Z</time></trkpt><trkpt lat="43.920445" lon="12.6827183"><ele>51.0</ele><time>2026-04-26T11:53:33.532Z</time></trkpt><trkpt lat="43.9204333" lon="12.6828217"><ele>51.0</ele><time>2026-04-26T11:53:34.536Z</time></trkpt><trkpt lat="43.92044" lon="12.68296"><ele>51.0</ele><time>2026-04-26T11:53:35.54Z</time></trkpt><trkpt lat="43.9204583" lon="12.6830967"><ele>51.0</ele><time>2026-04-26T11:53:36.535Z</time></trkpt><trkpt lat="43.9204517" lon="12.6832133"><ele>50.199999999999996</ele><time>2026-04-26T11:53:37.535Z</time></trkpt><trkpt lat="43.9204433" lon="12.68333"><ele>49.4</ele><time>2026-04-26T11:53:38.536Z</time></trkpt><trkpt lat="43.9204167" lon="12.6834283"><ele>48.6</ele><time>2026-04-26T11:53:39.536Z</time></trkpt><trkpt lat="43.9203567" lon="12.6835067"><ele>47.8</ele><time>2026-04-26T11:53:40.536Z</time></trkpt><trkpt lat="43.9202433" lon="12.6835733"><ele>47.0</ele><time>2026-04-26T11:53:41.536Z</time></trkpt><trkpt lat="43.9201117" lon="12.6836617"><ele>47.666666666666664</ele><time>2026-04-26T11:53:42.537Z</time></trkpt><trkpt lat="43.91998" lon="12.68379"><ele>48.33333333333333</ele><time>2026-04-26T11:53:43.537Z</time></trkpt><trkpt lat="43.9198767" lon="12.6839817"><ele>49.0</ele><time>2026-04-26T11:53:44.537Z</time></trkpt><trkpt lat="43.9197983" lon="12.6842"><ele>49.0</ele><time>2026-04-26T11:53:45.536Z</time></trkpt><trkpt lat="43.9197367" lon="12.6844233"><ele>49.0</ele><time>2026-04-26T11:53:46.534Z</time></trkpt><trkpt lat="43.919675" lon="12.6846183"><ele>49.0</ele><time>2026-04-26T11:53:47.534Z</time></trkpt><trkpt lat="43.9196167" lon="12.6847933"><ele>50.0</ele><time>2026-04-26T11:53:48.534Z</time></trkpt><trkpt lat="43.91957" lon="12.68496"><ele>51.0</ele><time>2026-04-26T11:53:49.533Z</time></trkpt><trkpt lat="43.91953" lon="12.6851333"><ele>52.0</ele><time>2026-04-26T11:53:50.534Z</time></trkpt><trkpt lat="43.9194883" lon="12.6853383"><ele>53.0</ele><time>2026-04-26T11:53:51.534Z</time></trkpt><trkpt lat="43.9194483" lon="12.6855567"><ele>53.0</ele><time>2026-04-26T11:53:52.534Z</time></trkpt><trkpt lat="43.9194067" lon="12.685765"><ele>53.0</ele><time>2026-04-26T11:53:53.536Z</time></trkpt><trkpt lat="43.919365" lon="12.68596"><ele>53.0</ele><time>2026-04-26T11:53:54.536Z</time></trkpt><trkpt lat="43.9193233" lon="12.6861383"><ele>53.0</ele><time>2026-04-26T11:53:55.536Z</time></trkpt><trkpt lat="43.9192817" lon="12.6863083"><ele>54.25</ele><time>2026-04-26T11:53:56.536Z</time></trkpt><trkpt lat="43.9192483" lon="12.6864833"><ele>55.5</ele><time>2026-04-26T11:53:57.536Z</time></trkpt><trkpt lat="43.9192383" lon="12.6866767"><ele>56.75</ele><time>2026-04-26T11:53:58.536Z</time></trkpt><trkpt lat="43.9192517" lon="12.686895"><ele>58.0</ele><time>2026-04-26T11:53:59.536Z</time></trkpt><trkpt lat="43.9192833" lon="12.6871267"><ele>60.33333333333333</ele><time>2026-04-26T11:54:00.536Z</time></trkpt><trkpt lat="43.9193367" lon="12.6873617"><ele>62.66666666666667</ele><time>2026-04-26T11:54:01.536Z</time></trkpt><trkpt lat="43.9193967" lon="12.6876033"><ele>65.0</ele><time>2026-04-26T11:54:02.538Z</time></trkpt><trkpt lat="43.91944" lon="12.6878533"><ele>67.66666666666667</ele><time>2026-04-26T11:54:03.536Z</time></trkpt><trkpt lat="43.9194667" lon="12.6881117"><ele>70.33333333333333</ele><time>2026-04-26T11:54:04.536Z</time></trkpt><trkpt lat="43.9194883" lon="12.6883717"><ele>73.0</ele><time>2026-04-26T11:54:05.536Z</time></trkpt><trkpt lat="43.9195183" lon="12.688625"><ele>76.33333333333333</ele><time>2026-04-26T11:54:06.536Z</time></trkpt><trkpt lat="43.9195517" lon="12.6888817"><ele>79.66666666666667</ele><time>2026-04-26T11:54:07.536Z</time></trkpt><trkpt lat="43.9195917" lon="12.6891433"><ele>83.0</ele><time>2026-04-26T11:54:08.535Z</time></trkpt><trkpt lat="43.919635" lon="12.6894117"><ele>85.66666666666667</ele><time>2026-04-26T11:54:09.536Z</time></trkpt><trkpt lat="43.9196717" lon="12.6896767"><ele>88.33333333333333</ele><time>2026-04-26T11:54:10.536Z</time></trkpt><trkpt lat="43.919715" lon="12.6899517"><ele>91.0</ele><time>2026-04-26T11:54:11.536Z</time></trkpt><trkpt lat="43.91975" lon="12.690225"><ele>93.66666666666666</ele><time>2026-04-26T11:54:12.536Z</time></trkpt><trkpt lat="43.9197867" lon="12.6905017"><ele>96.33333333333333</ele><time>2026-04-26T11:54:13.536Z</time></trkpt><trkpt lat="43.9198267" lon="12.6907867"><ele>99.0</ele><time>2026-04-26T11:54:14.537Z</time></trkpt><trkpt lat="43.9198717" lon="12.6910767"><ele>101.33333333333334</ele><time>2026-04-26T11:54:15.537Z</time></trkpt><trkpt lat="43.9199133" lon="12.6913633"><ele>103.66666666666667</ele><time>2026-04-26T11:54:16.537Z</time></trkpt><trkpt lat="43.9199567" lon="12.6916433"><ele>106.0</ele><time>2026-04-26T11:54:17.536Z</time></trkpt><trkpt lat="43.9200017" lon="12.6919067"><ele>109.0</ele><time>2026-04-26T11:54:18.537Z</time></trkpt><trkpt lat="43.92005" lon="12.69215"><ele>112.0</ele><time>2026-04-26T11:54:19.536Z</time></trkpt><trkpt lat="43.9200967" lon="12.6923767"><ele>115.0</ele><time>2026-04-26T11:54:20.537Z</time></trkpt><trkpt lat="43.9201383" lon="12.6925917"><ele>117.5</ele><time>2026-04-26T11:54:21.536Z</time></trkpt><trkpt lat="43.9201783" lon="12.692805"><ele>120.0</ele><time>2026-04-26T11:54:22.536Z</time></trkpt><trkpt lat="43.9202117" lon="12.693005"><ele>122.5</ele><time>2026-04-26T11:54:23.54Z</time></trkpt><trkpt lat="43.9202383" lon="12.693175"><ele>125.0</ele><time>2026-04-26T11:54:24.538Z</time></trkpt><trkpt lat="43.92026" lon="12.6933183"><ele>124.99999999999999</ele><time>2026-04-26T11:54:25.536Z</time></trkpt><trkpt lat="43.9202833" lon="12.6934467"><ele>125.0</ele><time>2026-04-26T11:54:26.536Z</time></trkpt><trkpt lat="43.9203067" lon="12.6935667"><ele>125.0</ele><time>2026-04-26T11:54:27.537Z</time></trkpt><trkpt lat="43.9203283" lon="12.6936783"><ele>125.0</ele><time>2026-04-26T11:54:28.538Z</time></trkpt><trkpt lat="43.9203433" lon="12.693785"><ele>124.99999999999999</ele><time>2026-04-26T11:54:29.536Z</time></trkpt><trkpt lat="43.920355" lon="12.6938783"><ele>125.0</ele><time>2026-04-26T11:54:30.534Z</time></trkpt><trkpt lat="43.9203667" lon="12.69398"><ele>123.6</ele><time>2026-04-26T11:54:32.533Z</time></trkpt><trkpt lat="43.9204167" lon="12.6940667"><ele>122.2</ele><time>2026-04-26T11:54:35.537Z</time></trkpt><trkpt lat="43.92056" lon="12.6941117"><ele>120.80000000000001</ele><time>2026-04-26T11:54:37.536Z</time></trkpt><trkpt lat="43.920655" lon="12.6941367"><ele>119.4</ele><time>2026-04-26T11:54:38.533Z</time></trkpt><trkpt lat="43.9207717" lon="12.6941783"><ele>118.0</ele><time>2026-04-26T11:54:39.533Z</time></trkpt><trkpt lat="43.9209467" lon="12.6942583"><ele>117.33333333333334</ele><time>2026-04-26T11:54:40.537Z</time></trkpt><trkpt lat="43.921125" lon="12.694345"><ele>116.66666666666666</ele><time>2026-04-26T11:54:41.533Z</time></trkpt><trkpt lat="43.9213233" lon="12.6944467"><ele>116.0</ele><time>2026-04-26T11:54:42.537Z</time></trkpt><trkpt lat="43.921505" lon="12.69454"><ele>114.33333333333333</ele><time>2026-04-26T11:54:43.538Z</time></trkpt><trkpt lat="43.921695" lon="12.6946467"><ele>112.66666666666666</ele><time>2026-04-26T11:54:44.537Z</time></trkpt><trkpt lat="43.9218817" lon="12.6947533"><ele>111.0</ele><time>2026-04-26T11:54:45.536Z</time></trkpt><trkpt lat="43.9220667" lon="12.6948617"><ele>111.0</ele><time>2026-04-26T11:54:46.536Z</time></trkpt><trkpt lat="43.922225" lon="12.694995"><ele>111.0</ele><time>2026-04-26T11:54:47.537Z</time></trkpt><trkpt lat="43.9223733" lon="12.695165"><ele>111.0</ele><time>2026-04-26T11:54:48.533Z</time></trkpt><trkpt lat="43.9225067" lon="12.6953533"><ele>110.33333333333334</ele><time>2026-04-26T11:54:49.534Z</time></trkpt><trkpt lat="43.922645" lon="12.6955333"><ele>109.66666666666667</ele><time>2026-04-26T11:54:50.537Z</time></trkpt><trkpt lat="43.9228017" lon="12.69569"><ele>109.0</ele><time>2026-04-26T11:54:51.533Z</time></trkpt><trkpt lat="43.9229617" lon="12.6958267"><ele>109.0</ele><time>2026-04-26T11:54:52.537Z</time></trkpt><trkpt lat="43.9231383" lon="12.6959617"><ele>109.0</ele><time>2026-04-26T11:54:53.532Z</time></trkpt><trkpt lat="43.923335" lon="12.6961"><ele>109.0</ele><time>2026-04-26T11:54:54.536Z</time></trkpt><trkpt lat="43.9235333" lon="12.6962333"><ele>109.0</ele><time>2026-04-26T11:54:55.536Z</time></trkpt><trkpt lat="43.923725" lon="12.6963567"><ele>109.0</ele><time>2026-04-26T11:54:56.537Z</time></trkpt><trkpt lat="43.923915" lon="12.696475"><ele>109.0</ele><time>2026-04-26T11:54:57.533Z</time></trkpt><trkpt lat="43.92409" lon="12.696595"><ele>109.0</ele><time>2026-04-26T11:54:58.536Z</time></trkpt><trkpt lat="43.9242533" lon="12.6967267"><ele>109.0</ele><time>2026-04-26T11:54:59.536Z</time></trkpt><trkpt lat="43.924405" lon="12.6968817"><ele>109.0</ele><time>2026-04-26T11:55:00.536Z</time></trkpt><trkpt lat="43.9245383" lon="12.6970583"><ele>109.0</ele><time>2026-04-26T11:55:01.537Z</time></trkpt><trkpt lat="43.9246483" lon="12.6972483"><ele>109.0</ele><time>2026-04-26T11:55:02.533Z</time></trkpt><trkpt lat="43.9247383" lon="12.69746"><ele>109.0</ele><time>2026-04-26T11:55:03.536Z</time></trkpt><trkpt lat="43.9248183" lon="12.6977033"><ele>109.33333333333334</ele><time>2026-04-26T11:55:04.536Z</time></trkpt><trkpt lat="43.9248967" lon="12.6979633"><ele>109.66666666666666</ele><time>2026-04-26T11:55:05.537Z</time></trkpt><trkpt lat="43.9249717" lon="12.6982317"><ele>110.0</ele><time>2026-04-26T11:55:06.536Z</time></trkpt><trkpt lat="43.9250483" lon="12.6985"><ele>107.33333333333333</ele><time>2026-04-26T11:55:07.54Z</time></trkpt><trkpt lat="43.9251233" lon="12.698765"><ele>104.66666666666666</ele><time>2026-04-26T11:55:08.536Z</time></trkpt><trkpt lat="43.9252117" lon="12.6990283"><ele>102.0</ele><time>2026-04-26T11:55:09.536Z</time></trkpt><trkpt lat="43.9253117" lon="12.6992733"><ele>104.0</ele><time>2026-04-26T11:55:10.536Z</time></trkpt><trkpt lat="43.9254183" lon="12.699495"><ele>106.0</ele><time>2026-04-26T11:55:11.536Z</time></trkpt><trkpt lat="43.9255217" lon="12.6997017"><ele>108.0</ele><time>2026-04-26T11:55:12.536Z</time></trkpt><trkpt lat="43.9256217" lon="12.699915"><ele>108.0</ele><time>2026-04-26T11:55:13.533Z</time></trkpt><trkpt lat="43.9257133" lon="12.7001467"><ele>108.0</ele><time>2026-04-26T11:55:14.537Z</time></trkpt><trkpt lat="43.9258017" lon="12.700395"><ele>108.0</ele><time>2026-04-26T11:55:15.536Z</time></trkpt><trkpt lat="43.9258817" lon="12.7006517"><ele>108.0</ele><time>2026-04-26T11:55:16.536Z</time></trkpt><trkpt lat="43.9259617" lon="12.7009017"><ele>108.0</ele><time>2026-04-26T11:55:17.536Z</time></trkpt><trkpt lat="43.926045" lon="12.7011283"><ele>108.0</ele><time>2026-04-26T11:55:18.534Z</time></trkpt><trkpt lat="43.9261317" lon="12.7013233"><ele>108.0</ele><time>2026-04-26T11:55:19.534Z</time></trkpt><trkpt lat="43.9262317" lon="12.701495"><ele>108.0</ele><time>2026-04-26T11:55:20.536Z</time></trkpt><trkpt lat="43.9263633" lon="12.70167"><ele>108.0</ele><time>2026-04-26T11:55:21.537Z</time></trkpt><trkpt lat="43.9265133" lon="12.7018517"><ele>108.66666666666666</ele><time>2026-04-26T11:55:22.537Z</time></trkpt><trkpt lat="43.9266717" lon="12.7020267"><ele>109.33333333333333</ele><time>2026-04-26T11:55:23.537Z</time></trkpt><trkpt lat="43.9268283" lon="12.70219"><ele>110.0</ele><time>2026-04-26T11:55:24.536Z</time></trkpt><trkpt lat="43.9269767" lon="12.7023417"><ele>107.33333333333333</ele><time>2026-04-26T11:55:25.537Z</time></trkpt><trkpt lat="43.9271233" lon="12.7024833"><ele>104.66666666666666</ele><time>2026-04-26T11:55:26.536Z</time></trkpt><trkpt lat="43.9272583" lon="12.702615"><ele>102.0</ele><time>2026-04-26T11:55:27.536Z</time></trkpt><trkpt lat="43.92739" lon="12.7027467"><ele>101.66666666666666</ele><time>2026-04-26T11:55:28.536Z</time></trkpt><trkpt lat="43.92752" lon="12.7028933"><ele>101.33333333333333</ele><time>2026-04-26T11:55:29.537Z</time></trkpt><trkpt lat="43.9276483" lon="12.703065"><ele>101.0</ele><time>2026-04-26T11:55:30.536Z</time></trkpt><trkpt lat="43.9277817" lon="12.7032517"><ele>99.66666666666666</ele><time>2026-04-26T11:55:31.538Z</time></trkpt><trkpt lat="43.92791" lon="12.7034333"><ele>98.33333333333334</ele><time>2026-04-26T11:55:32.536Z</time></trkpt><trkpt lat="43.9280433" lon="12.703605"><ele>97.0</ele><time>2026-04-26T11:55:33.536Z</time></trkpt><trkpt lat="43.9281817" lon="12.7037683"><ele>97.0</ele><time>2026-04-26T11:55:34.536Z</time></trkpt><trkpt lat="43.9283283" lon="12.703915"><ele>97.0</ele><time>2026-04-26T11:55:35.536Z</time></trkpt><trkpt lat="43.928475" lon="12.7040483"><ele>97.0</ele><time>2026-04-26T11:55:36.536Z</time></trkpt><trkpt lat="43.928625" lon="12.7041783"><ele>97.33333333333334</ele><time>2026-04-26T11:55:37.534Z</time></trkpt><trkpt lat="43.928775" lon="12.7043117"><ele>97.66666666666666</ele><time>2026-04-26T11:55:38.537Z</time></trkpt><trkpt lat="43.92892" lon="12.704445"><ele>98.0</ele><time>2026-04-26T11:55:39.536Z</time></trkpt><trkpt lat="43.929045" lon="12.7045883"><ele>98.0</ele><time>2026-04-26T11:55:40.536Z</time></trkpt><trkpt lat="43.9291483" lon="12.704755"><ele>98.0</ele><time>2026-04-26T11:55:41.538Z</time></trkpt><trkpt lat="43.9292317" lon="12.7049567"><ele>98.0</ele><time>2026-04-26T11:55:42.537Z</time></trkpt><trkpt lat="43.929305" lon="12.7051817"><ele>98.33333333333333</ele><time>2026-04-26T11:55:43.538Z</time></trkpt><trkpt lat="43.9293817" lon="12.705395"><ele>98.66666666666666</ele><time>2026-04-26T11:55:44.533Z</time></trkpt><trkpt lat="43.9294667" lon="12.7055867"><ele>99.0</ele><time>2026-04-26T11:55:45.533Z</time></trkpt><trkpt lat="43.9295667" lon="12.70576"><ele>99.0</ele><time>2026-04-26T11:55:46.536Z</time></trkpt><trkpt lat="43.929675" lon="12.7059283"><ele>99.0</ele><time>2026-04-26T11:55:47.537Z</time></trkpt><trkpt lat="43.929785" lon="12.70608"><ele>99.0</ele><time>2026-04-26T11:55:48.536Z</time></trkpt><trkpt lat="43.9298883" lon="12.7062233"><ele>98.75</ele><time>2026-04-26T11:55:49.537Z</time></trkpt><trkpt lat="43.9299883" lon="12.7063583"><ele>98.5</ele><time>2026-04-26T11:55:50.536Z</time></trkpt><trkpt lat="43.9300833" lon="12.706485"><ele>98.25</ele><time>2026-04-26T11:55:51.536Z</time></trkpt><trkpt lat="43.9301783" lon="12.7065967"><ele>98.0</ele><time>2026-04-26T11:55:52.537Z</time></trkpt><trkpt lat="43.9302817" lon="12.706695"><ele>97.5</ele><time>2026-04-26T11:55:53.536Z</time></trkpt><trkpt lat="43.93039" lon="12.7067717"><ele>97.0</ele><time>2026-04-26T11:55:54.536Z</time></trkpt><trkpt lat="43.9305017" lon="12.70683"><ele>96.5</ele><time>2026-04-26T11:55:55.538Z</time></trkpt><trkpt lat="43.9306133" lon="12.70689"><ele>96.0</ele><time>2026-04-26T11:55:56.536Z</time></trkpt><trkpt lat="43.9307217" lon="12.70697"><ele>96.0</ele><time>2026-04-26T11:55:57.536Z</time></trkpt><trkpt lat="43.9308183" lon="12.707085"><ele>96.0</ele><time>2026-04-26T11:55:58.536Z</time></trkpt><trkpt lat="43.9309033" lon="12.70722"><ele>96.0</ele><time>2026-04-26T11:55:59.536Z</time></trkpt><trkpt lat="43.9309917" lon="12.7073483"><ele>96.0</ele><time>2026-04-26T11:56:00.536Z</time></trkpt><trkpt lat="43.931085" lon="12.70746"><ele>93.75</ele><time>2026-04-26T11:56:01.536Z</time></trkpt><trkpt lat="43.9311933" lon="12.7075517"><ele>91.5</ele><time>2026-04-26T11:56:02.537Z</time></trkpt><trkpt lat="43.9313133" lon="12.7076217"><ele>89.25</ele><time>2026-04-26T11:56:03.536Z</time></trkpt><trkpt lat="43.9314317" lon="12.7076867"><ele>87.0</ele><time>2026-04-26T11:56:04.534Z</time></trkpt><trkpt lat="43.9315517" lon="12.7077633"><ele>87.0</ele><time>2026-04-26T11:56:05.536Z</time></trkpt><trkpt lat="43.931665" lon="12.7078567"><ele>87.0</ele><time>2026-04-26T11:56:06.537Z</time></trkpt><trkpt lat="43.9317717" lon="12.7079683"><ele>87.0</ele><time>2026-04-26T11:56:07.536Z</time></trkpt><trkpt lat="43.9318733" lon="12.70809"><ele>87.0</ele><time>2026-04-26T11:56:08.533Z</time></trkpt><trkpt lat="43.9319733" lon="12.7082167"><ele>85.0</ele><time>2026-04-26T11:56:09.536Z</time></trkpt><trkpt lat="43.932075" lon="12.7083283"><ele>83.0</ele><time>2026-04-26T11:56:10.536Z</time></trkpt><trkpt lat="43.932175" lon="12.7084317"><ele>81.0</ele><time>2026-04-26T11:56:11.534Z</time></trkpt><trkpt lat="43.9322783" lon="12.7085367"><ele>79.0</ele><time>2026-04-26T11:56:12.536Z</time></trkpt><trkpt lat="43.9323767" lon="12.7086333"><ele>78.5</ele><time>2026-04-26T11:56:13.536Z</time></trkpt><trkpt lat="43.9324733" lon="12.708725"><ele>78.0</ele><time>2026-04-26T11:56:14.534Z</time></trkpt><trkpt lat="43.9325717" lon="12.708825"><ele>77.5</ele><time>2026-04-26T11:56:15.535Z</time></trkpt><trkpt lat="43.932675" lon="12.708935"><ele>77.0</ele><time>2026-04-26T11:56:16.536Z</time></trkpt><trkpt lat="43.9327783" lon="12.7090417"><ele>75.0</ele><time>2026-04-26T11:56:17.537Z</time></trkpt><trkpt lat="43.9328767" lon="12.7091433"><ele>73.0</ele><time>2026-04-26T11:56:18.536Z</time></trkpt><trkpt lat="43.9329767" lon="12.7092417"><ele>71.0</ele><time>2026-04-26T11:56:19.538Z</time></trkpt><trkpt lat="43.9330717" lon="12.70934"><ele>69.0</ele><time>2026-04-26T11:56:20.536Z</time></trkpt><trkpt lat="43.9331617" lon="12.709455"><ele>69.0</ele><time>2026-04-26T11:56:21.537Z</time></trkpt><trkpt lat="43.933245" lon="12.7095867"><ele>69.0</ele><time>2026-04-26T11:56:22.535Z</time></trkpt><trkpt lat="43.9333183" lon="12.70973"><ele>69.0</ele><time>2026-04-26T11:56:23.537Z</time></trkpt><trkpt lat="43.9333967" lon="12.7098783"><ele>69.0</ele><time>2026-04-26T11:56:24.535Z</time></trkpt><trkpt lat="43.93347" lon="12.7100217"><ele>66.5</ele><time>2026-04-26T11:56:25.535Z</time></trkpt><trkpt lat="43.9335433" lon="12.7101583"><ele>64.0</ele><time>2026-04-26T11:56:26.536Z</time></trkpt><trkpt lat="43.9336167" lon="12.7102883"><ele>61.5</ele><time>2026-04-26T11:56:27.536Z</time></trkpt><trkpt lat="43.9336867" lon="12.7104117"><ele>59.0</ele><time>2026-04-26T11:56:28.536Z</time></trkpt><trkpt lat="43.9337517" lon="12.7105383"><ele>59.0</ele><time>2026-04-26T11:56:29.533Z</time></trkpt><trkpt lat="43.9337983" lon="12.7106717"><ele>59.00000000000001</ele><time>2026-04-26T11:56:30.535Z</time></trkpt><trkpt lat="43.9338333" lon="12.71081"><ele>59.00000000000001</ele><time>2026-04-26T11:56:31.533Z</time></trkpt><trkpt lat="43.93386" lon="12.7109667"><ele>59.0</ele><time>2026-04-26T11:56:32.536Z</time></trkpt><trkpt lat="43.9338867" lon="12.71112"><ele>59.0</ele><time>2026-04-26T11:56:33.537Z</time></trkpt><trkpt lat="43.9339217" lon="12.711265"><ele>58.5</ele><time>2026-04-26T11:56:34.536Z</time></trkpt><trkpt lat="43.93396" lon="12.7114117"><ele>58.0</ele><time>2026-04-26T11:56:35.537Z</time></trkpt><trkpt lat="43.933965" lon="12.7115583"><ele>57.5</ele><time>2026-04-26T11:56:36.534Z</time></trkpt><trkpt lat="43.933955" lon="12.7117183"><ele>57.0</ele><time>2026-04-26T11:56:37.537Z</time></trkpt><trkpt lat="43.9339217" lon="12.7118833"><ele>55.75</ele><time>2026-04-26T11:56:38.536Z</time></trkpt><trkpt lat="43.9338733" lon="12.7120517"><ele>54.5</ele><time>2026-04-26T11:56:39.534Z</time></trkpt><trkpt lat="43.93382" lon="12.7122217"><ele>53.25</ele><time>2026-04-26T11:56:40.534Z</time></trkpt><trkpt lat="43.9337683" lon="12.71239"><ele>52.0</ele><time>2026-04-26T11:56:41.536Z</time></trkpt><trkpt lat="43.9337333" lon="12.7125633"><ele>52.0</ele><time>2026-04-26T11:56:42.533Z</time></trkpt><trkpt lat="43.9337033" lon="12.7127383"><ele>52.0</ele><time>2026-04-26T11:56:43.537Z</time></trkpt><trkpt lat="43.9336917" lon="12.71292"><ele>52.0</ele><time>2026-04-26T11:56:44.536Z</time></trkpt><trkpt lat="43.9336933" lon="12.7130933"><ele>52.0</ele><time>2026-04-26T11:56:45.536Z</time></trkpt><trkpt lat="43.9337017" lon="12.7132667"><ele>51.75</ele><time>2026-04-26T11:56:46.534Z</time></trkpt><trkpt lat="43.9337233" lon="12.71344"><ele>51.5</ele><time>2026-04-26T11:56:47.534Z</time></trkpt><trkpt lat="43.9337617" lon="12.7136117"><ele>51.25</ele><time>2026-04-26T11:56:48.535Z</time></trkpt><trkpt lat="43.933805" lon="12.7137817"><ele>51.0</ele><time>2026-04-26T11:56:49.534Z</time></trkpt><trkpt lat="43.93386" lon="12.7139467"><ele>51.0</ele><time>2026-04-26T11:56:50.535Z</time></trkpt><trkpt lat="43.93391" lon="12.7141033"><ele>51.0</ele><time>2026-04-26T11:56:51.534Z</time></trkpt><trkpt lat="43.93396" lon="12.7142583"><ele>51.0</ele><time>2026-04-26T11:56:52.535Z</time></trkpt><trkpt lat="43.9340033" lon="12.71441"><ele>51.0</ele><time>2026-04-26T11:56:53.534Z</time></trkpt><trkpt lat="43.9340433" lon="12.7145583"><ele>51.199999999999996</ele><time>2026-04-26T11:56:54.534Z</time></trkpt><trkpt lat="43.93408" lon="12.7146983"><ele>51.4</ele><time>2026-04-26T11:56:55.534Z</time></trkpt><trkpt lat="43.934105" lon="12.7148467"><ele>51.6</ele><time>2026-04-26T11:56:56.537Z</time></trkpt><trkpt lat="43.9340983" lon="12.7149933"><ele>51.8</ele><time>2026-04-26T11:56:57.535Z</time></trkpt><trkpt lat="43.93407" lon="12.7151333"><ele>52.0</ele><time>2026-04-26T11:56:58.537Z</time></trkpt><trkpt lat="43.9340317" lon="12.7152667"><ele>51.33333333333333</ele><time>2026-04-26T11:56:59.537Z</time></trkpt><trkpt lat="43.9339967" lon="12.7153983"><ele>50.666666666666664</ele><time>2026-04-26T11:57:00.534Z</time></trkpt><trkpt lat="43.93397" lon="12.7155283"><ele>50.0</ele><time>2026-04-26T11:57:01.538Z</time></trkpt><trkpt lat="43.93395" lon="12.71565"><ele>49.33333333333333</ele><time>2026-04-26T11:57:02.533Z</time></trkpt><trkpt lat="43.9339483" lon="12.715765"><ele>48.666666666666664</ele><time>2026-04-26T11:57:03.536Z</time></trkpt><trkpt lat="43.9339683" lon="12.71587"><ele>48.0</ele><time>2026-04-26T11:57:04.537Z</time></trkpt><trkpt lat="43.9340017" lon="12.7159617"><ele>48.0</ele><time>2026-04-26T11:57:05.536Z</time></trkpt><trkpt lat="43.934045" lon="12.716035"><ele>48.0</ele><time>2026-04-26T11:57:06.537Z</time></trkpt><trkpt lat="43.9341117" lon="12.71606"><ele>48.0</ele><time>2026-04-26T11:57:07.537Z</time></trkpt><trkpt lat="43.93418" lon="12.716075"><ele>48.0</ele><time>2026-04-26T11:57:08.536Z</time></trkpt><trkpt lat="43.934265" lon="12.71599"><ele>48.0</ele><time>2026-04-26T11:57:09.537Z</time></trkpt><trkpt lat="43.93434" lon="12.715915"><ele>48.0</ele><time>2026-04-26T11:57:10.536Z</time></trkpt><trkpt lat="43.934395" lon="12.7158"><ele>46.0</ele><time>2026-04-26T11:57:11.537Z</time></trkpt><trkpt lat="43.93443" lon="12.7156783"><ele>44.0</ele><time>2026-04-26T11:57:12.537Z</time></trkpt><trkpt lat="43.9344467" lon="12.7155417"><ele>42.0</ele><time>2026-04-26T11:57:13.537Z</time></trkpt><trkpt lat="43.9344633" lon="12.7153967"><ele>40.0</ele><time>2026-04-26T11:57:14.536Z</time></trkpt><trkpt lat="43.9344833" lon="12.7152417"><ele>38.0</ele><time>2026-04-26T11:57:15.533Z</time></trkpt><trkpt lat="43.9345067" lon="12.715085"><ele>38.0</ele><time>2026-04-26T11:57:16.534Z</time></trkpt><trkpt lat="43.9345283" lon="12.7149383"><ele>38.0</ele><time>2026-04-26T11:57:17.533Z</time></trkpt><trkpt lat="43.9345417" lon="12.7147917"><ele>38.0</ele><time>2026-04-26T11:57:18.534Z</time></trkpt><trkpt lat="43.9345517" lon="12.714655"><ele>38.0</ele><time>2026-04-26T11:57:19.535Z</time></trkpt><trkpt lat="43.9345667" lon="12.7145483"><ele>38.0</ele><time>2026-04-26T11:57:20.533Z</time></trkpt><trkpt lat="43.9345867" lon="12.7144633"><ele>38.0</ele><time>2026-04-26T11:57:21.533Z</time></trkpt><trkpt lat="43.93466" lon="12.7143833"><ele>38.0</ele><time>2026-04-26T11:57:23.534Z</time></trkpt><trkpt lat="43.934775" lon="12.71441"><ele>38.0</ele><time>2026-04-26T11:57:25.537Z</time></trkpt><trkpt lat="43.934835" lon="12.714465"><ele>38.0</ele><time>2026-04-26T11:57:26.536Z</time></trkpt><trkpt lat="43.9348917" lon="12.7145667"><ele>38.0</ele><time>2026-04-26T11:57:27.537Z</time></trkpt><trkpt lat="43.9349367" lon="12.7146717"><ele>38.0</ele><time>2026-04-26T11:57:28.536Z</time></trkpt><trkpt lat="43.9350167" lon="12.714765"><ele>38.0</ele><time>2026-04-26T11:57:29.536Z</time></trkpt><trkpt lat="43.9351" lon="12.7148417"><ele>38.0</ele><time>2026-04-26T11:57:30.537Z</time></trkpt><trkpt lat="43.9352" lon="12.7148967"><ele>38.0</ele><time>2026-04-26T11:57:31.537Z</time></trkpt><trkpt lat="43.93531" lon="12.71492"><ele>38.0</ele><time>2026-04-26T11:57:32.536Z</time></trkpt><trkpt lat="43.93542" lon="12.7149383"><ele>36.5</ele><time>2026-04-26T11:57:33.533Z</time></trkpt><trkpt lat="43.935535" lon="12.71495"><ele>35.0</ele><time>2026-04-26T11:57:34.533Z</time></trkpt><trkpt lat="43.9356533" lon="12.7149633"><ele>33.5</ele><time>2026-04-26T11:57:35.537Z</time></trkpt><trkpt lat="43.935775" lon="12.7149717"><ele>32.0</ele><time>2026-04-26T11:57:36.537Z</time></trkpt><trkpt lat="43.9358783" lon="12.714975"><ele>31.666666666666664</ele><time>2026-04-26T11:57:37.537Z</time></trkpt><trkpt lat="43.9359733" lon="12.7149767"><ele>31.333333333333332</ele><time>2026-04-26T11:57:38.536Z</time></trkpt><trkpt lat="43.93606" lon="12.7149767"><ele>31.0</ele><time>2026-04-26T11:57:39.533Z</time></trkpt><trkpt lat="43.9361383" lon="12.7149767"><ele>30.666666666666664</ele><time>2026-04-26T11:57:40.537Z</time></trkpt><trkpt lat="43.9362017" lon="12.7149867"><ele>30.333333333333332</ele><time>2026-04-26T11:57:41.534Z</time></trkpt><trkpt lat="43.9362867" lon="12.7150417"><ele>30.0</ele><time>2026-04-26T11:57:43.535Z</time></trkpt><trkpt lat="43.9362967" lon="12.7151417"><ele>30.0</ele><time>2026-04-26T11:57:45.537Z</time></trkpt><trkpt lat="43.9362217" lon="12.7152917"><ele>30.0</ele><time>2026-04-26T11:57:47.534Z</time></trkpt><trkpt lat="43.9361483" lon="12.715385"><ele>30.0</ele><time>2026-04-26T11:57:48.535Z</time></trkpt><trkpt lat="43.9360483" lon="12.7155083"><ele>30.0</ele><time>2026-04-26T11:57:49.537Z</time></trkpt><trkpt lat="43.9359433" lon="12.7156517"><ele>30.333333333333336</ele><time>2026-04-26T11:57:50.535Z</time></trkpt><trkpt lat="43.9358233" lon="12.715805"><ele>30.666666666666668</ele><time>2026-04-26T11:57:51.534Z</time></trkpt><trkpt lat="43.9356933" lon="12.7159667"><ele>31.0</ele><time>2026-04-26T11:57:52.534Z</time></trkpt><trkpt lat="43.9355667" lon="12.7161417"><ele>31.0</ele><time>2026-04-26T11:57:53.536Z</time></trkpt><trkpt lat="43.9354367" lon="12.716315"><ele>31.0</ele><time>2026-04-26T11:57:54.534Z</time></trkpt><trkpt lat="43.9353" lon="12.716485"><ele>31.0</ele><time>2026-04-26T11:57:55.535Z</time></trkpt><trkpt lat="43.9351683" lon="12.716665"><ele>30.666666666666668</ele><time>2026-04-26T11:57:56.537Z</time></trkpt><trkpt lat="43.93503" lon="12.71684"><ele>30.333333333333336</ele><time>2026-04-26T11:57:57.534Z</time></trkpt><trkpt lat="43.934895" lon="12.7170233"><ele>30.0</ele><time>2026-04-26T11:57:58.537Z</time></trkpt><trkpt lat="43.93476" lon="12.717215"><ele>30.0</ele><time>2026-04-26T11:57:59.533Z</time></trkpt><trkpt lat="43.9346317" lon="12.717415"><ele>30.0</ele><time>2026-04-26T11:58:00.534Z</time></trkpt><trkpt lat="43.9345067" lon="12.717615"><ele>30.0</ele><time>2026-04-26T11:58:01.534Z</time></trkpt><trkpt lat="43.934385" lon="12.717805"><ele>29.666666666666664</ele><time>2026-04-26T11:58:02.535Z</time></trkpt><trkpt lat="43.93427" lon="12.717985"><ele>29.333333333333332</ele><time>2026-04-26T11:58:03.537Z</time></trkpt><trkpt lat="43.9341617" lon="12.71816"><ele>29.0</ele><time>2026-04-26T11:58:04.534Z</time></trkpt><trkpt lat="43.9340583" lon="12.718325"><ele>29.0</ele><time>2026-04-26T11:58:05.534Z</time></trkpt><trkpt lat="43.9339567" lon="12.7184867"><ele>29.0</ele><time>2026-04-26T11:58:06.535Z</time></trkpt><trkpt lat="43.9338567" lon="12.7186483"><ele>29.0</ele><time>2026-04-26T11:58:07.534Z</time></trkpt><trkpt lat="43.93376" lon="12.718805"><ele>28.75</ele><time>2026-04-26T11:58:08.537Z</time></trkpt><trkpt lat="43.933665" lon="12.71895"><ele>28.5</ele><time>2026-04-26T11:58:09.534Z</time></trkpt><trkpt lat="43.9335833" lon="12.71908"><ele>28.25</ele><time>2026-04-26T11:58:10.537Z</time></trkpt><trkpt lat="43.93351" lon="12.719195"><ele>28.0</ele><time>2026-04-26T11:58:11.537Z</time></trkpt><trkpt lat="43.9334467" lon="12.7192883"><ele>28.000000000000004</ele><time>2026-04-26T11:58:12.537Z</time></trkpt><trkpt lat="43.9333917" lon="12.71936"><ele>28.0</ele><time>2026-04-26T11:58:13.537Z</time></trkpt><trkpt lat="43.9333383" lon="12.71943"><ele>28.0</ele><time>2026-04-26T11:58:15.537Z</time></trkpt><trkpt lat="43.9333567" lon="12.71955"><ele>28.0</ele><time>2026-04-26T11:58:18.533Z</time></trkpt><trkpt lat="43.9334117" lon="12.7196317"><ele>28.000000000000004</ele><time>2026-04-26T11:58:19.534Z</time></trkpt><trkpt lat="43.933495" lon="12.7197467"><ele>28.0</ele><time>2026-04-26T11:58:20.534Z</time></trkpt><trkpt lat="43.9335983" lon="12.71989"><ele>27.666666666666668</ele><time>2026-04-26T11:58:21.533Z</time></trkpt><trkpt lat="43.933705" lon="12.7200467"><ele>27.333333333333336</ele><time>2026-04-26T11:58:22.534Z</time></trkpt><trkpt lat="43.9338233" lon="12.72022"><ele>27.0</ele><time>2026-04-26T11:58:23.538Z</time></trkpt><trkpt lat="43.9339483" lon="12.7204017"><ele>26.666666666666664</ele><time>2026-04-26T11:58:24.536Z</time></trkpt><trkpt lat="43.9340733" lon="12.72059"><ele>26.333333333333332</ele><time>2026-04-26T11:58:25.536Z</time></trkpt><trkpt lat="43.9342" lon="12.7207817"><ele>26.0</ele><time>2026-04-26T11:58:26.536Z</time></trkpt><trkpt lat="43.9343233" lon="12.7209833"><ele>25.333333333333332</ele><time>2026-04-26T11:58:27.535Z</time></trkpt><trkpt lat="43.9344433" lon="12.72119"><ele>24.666666666666664</ele><time>2026-04-26T11:58:28.536Z</time></trkpt><trkpt lat="43.934555" lon="12.7213967"><ele>24.0</ele><time>2026-04-26T11:58:29.536Z</time></trkpt><trkpt lat="43.934665" lon="12.7216017"><ele>24.0</ele><time>2026-04-26T11:58:30.532Z</time></trkpt><trkpt lat="43.934775" lon="12.7218067"><ele>24.0</ele><time>2026-04-26T11:58:31.536Z</time></trkpt><trkpt lat="43.9348833" lon="12.722005"><ele>24.0</ele><time>2026-04-26T11:58:32.536Z</time></trkpt><trkpt lat="43.9349883" lon="12.722195"><ele>24.0</ele><time>2026-04-26T11:58:33.536Z</time></trkpt><trkpt lat="43.935085" lon="12.72237"><ele>24.0</ele><time>2026-04-26T11:58:34.536Z</time></trkpt><trkpt lat="43.9351783" lon="12.722535"><ele>24.0</ele><time>2026-04-26T11:58:35.537Z</time></trkpt><trkpt lat="43.93526" lon="12.72269"><ele>24.0</ele><time>2026-04-26T11:58:36.537Z</time></trkpt><trkpt lat="43.93534" lon="12.7228433"><ele>24.0</ele><time>2026-04-26T11:58:37.535Z</time></trkpt><trkpt lat="43.93542" lon="12.722995"><ele>24.0</ele><time>2026-04-26T11:58:38.536Z</time></trkpt><trkpt lat="43.9355" lon="12.723135"><ele>24.0</ele><time>2026-04-26T11:58:39.536Z</time></trkpt><trkpt lat="43.9355867" lon="12.72326"><ele>24.0</ele><time>2026-04-26T11:58:40.538Z</time></trkpt><trkpt lat="43.9356883" lon="12.7233817"><ele>24.0</ele><time>2026-04-26T11:58:41.533Z</time></trkpt><trkpt lat="43.935805" lon="12.7235067"><ele>24.0</ele><time>2026-04-26T11:58:42.536Z</time></trkpt><trkpt lat="43.9359183" lon="12.7236333"><ele>24.0</ele><time>2026-04-26T11:58:43.537Z</time></trkpt><trkpt lat="43.9360267" lon="12.7237767"><ele>24.0</ele><time>2026-04-26T11:58:44.537Z</time></trkpt><trkpt lat="43.9361267" lon="12.7239267"><ele>24.25</ele><time>2026-04-26T11:58:45.533Z</time></trkpt><trkpt lat="43.9362117" lon="12.7240817"><ele>24.5</ele><time>2026-04-26T11:58:46.534Z</time></trkpt><trkpt lat="43.93628" lon="12.7242517"><ele>24.75</ele><time>2026-04-26T11:58:47.533Z</time></trkpt><trkpt lat="43.936335" lon="12.7244333"><ele>25.0</ele><time>2026-04-26T11:58:48.534Z</time></trkpt><trkpt lat="43.9363767" lon="12.7246217"><ele>24.333333333333336</ele><time>2026-04-26T11:58:49.535Z</time></trkpt><trkpt lat="43.936415" lon="12.7248183"><ele>23.666666666666668</ele><time>2026-04-26T11:58:50.534Z</time></trkpt><trkpt lat="43.9364667" lon="12.725025"><ele>23.0</ele><time>2026-04-26T11:58:51.536Z</time></trkpt><trkpt lat="43.9365367" lon="12.7252417"><ele>23.333333333333336</ele><time>2026-04-26T11:58:52.534Z</time></trkpt><trkpt lat="43.9366267" lon="12.7254617"><ele>23.666666666666668</ele><time>2026-04-26T11:58:53.534Z</time></trkpt><trkpt lat="43.936725" lon="12.72569"><ele>24.0</ele><time>2026-04-26T11:58:54.533Z</time></trkpt><trkpt lat="43.9368217" lon="12.7259317"><ele>23.333333333333332</ele><time>2026-04-26T11:58:55.537Z</time></trkpt><trkpt lat="43.9369133" lon="12.7261867"><ele>22.666666666666664</ele><time>2026-04-26T11:58:56.537Z</time></trkpt><trkpt lat="43.9370067" lon="12.726445"><ele>22.0</ele><time>2026-04-26T11:58:57.536Z</time></trkpt><trkpt lat="43.9371067" lon="12.7266983"><ele>22.0</ele><time>2026-04-26T11:58:58.537Z</time></trkpt><trkpt lat="43.9372133" lon="12.7269383"><ele>22.0</ele><time>2026-04-26T11:58:59.536Z</time></trkpt><trkpt lat="43.9373217" lon="12.7271583"><ele>22.0</ele><time>2026-04-26T11:59:00.537Z</time></trkpt><trkpt lat="43.9374233" lon="12.7273667"><ele>22.0</ele><time>2026-04-26T11:59:01.536Z</time></trkpt><trkpt lat="43.93752" lon="12.7275583"><ele>22.0</ele><time>2026-04-26T11:59:02.536Z</time></trkpt><trkpt lat="43.937605" lon="12.727735"><ele>22.0</ele><time>2026-04-26T11:59:03.537Z</time></trkpt><trkpt lat="43.93768" lon="12.727895"><ele>22.0</ele><time>2026-04-26T11:59:04.537Z</time></trkpt><trkpt lat="43.9377483" lon="12.728055"><ele>22.0</ele><time>2026-04-26T11:59:05.536Z</time></trkpt><trkpt lat="43.9378167" lon="12.728235"><ele>22.0</ele><time>2026-04-26T11:59:06.539Z</time></trkpt><trkpt lat="43.9378833" lon="12.7284317"><ele>22.0</ele><time>2026-04-26T11:59:07.536Z</time></trkpt><trkpt lat="43.9379567" lon="12.728645"><ele>22.0</ele><time>2026-04-26T11:59:08.536Z</time></trkpt><trkpt lat="43.938035" lon="12.7288717"><ele>22.0</ele><time>2026-04-26T11:59:09.537Z</time></trkpt><trkpt lat="43.938115" lon="12.72911"><ele>22.0</ele><time>2026-04-26T11:59:10.537Z</time></trkpt><trkpt lat="43.9381933" lon="12.7293533"><ele>21.666666666666664</ele><time>2026-04-26T11:59:11.536Z</time></trkpt><trkpt lat="43.93827" lon="12.7296017"><ele>21.333333333333332</ele><time>2026-04-26T11:59:12.536Z</time></trkpt><trkpt lat="43.938355" lon="12.7298517"><ele>21.0</ele><time>2026-04-26T11:59:13.537Z</time></trkpt><trkpt lat="43.9384433" lon="12.7300933"><ele>20.0</ele><time>2026-04-26T11:59:14.537Z</time></trkpt><trkpt lat="43.9385383" lon="12.7303133"><ele>19.0</ele><time>2026-04-26T11:59:15.536Z</time></trkpt><trkpt lat="43.9386283" lon="12.7305167"><ele>18.0</ele><time>2026-04-26T11:59:16.536Z</time></trkpt><trkpt lat="43.9387083" lon="12.7307117"><ele>18.0</ele><time>2026-04-26T11:59:17.533Z</time></trkpt><trkpt lat="43.93877" lon="12.7308967"><ele>18.0</ele><time>2026-04-26T11:59:18.534Z</time></trkpt><trkpt lat="43.9388" lon="12.7310717"><ele>18.0</ele><time>2026-04-26T11:59:19.536Z</time></trkpt><trkpt lat="43.93879" lon="12.7312283"><ele>18.0</ele><time>2026-04-26T11:59:20.537Z</time></trkpt><trkpt lat="43.938755" lon="12.7313583"><ele>18.0</ele><time>2026-04-26T11:59:21.535Z</time></trkpt><trkpt lat="43.9387483" lon="12.7314783"><ele>18.0</ele><time>2026-04-26T11:59:22.534Z</time></trkpt><trkpt lat="43.938765" lon="12.73159"><ele>18.0</ele><time>2026-04-26T11:59:23.537Z</time></trkpt><trkpt lat="43.938815" lon="12.7316967"><ele>18.0</ele><time>2026-04-26T11:59:24.536Z</time></trkpt><trkpt lat="43.9389283" lon="12.7318033"><ele>18.0</ele><time>2026-04-26T11:59:25.536Z</time></trkpt><trkpt lat="43.9390783" lon="12.7319117"><ele>17.666666666666668</ele><time>2026-04-26T11:59:26.536Z</time></trkpt><trkpt lat="43.939255" lon="12.732035"><ele>17.333333333333336</ele><time>2026-04-26T11:59:27.536Z</time></trkpt><trkpt lat="43.939435" lon="12.7321617"><ele>17.0</ele><time>2026-04-26T11:59:28.536Z</time></trkpt><trkpt lat="43.9396217" lon="12.732295"><ele>17.0</ele><time>2026-04-26T11:59:29.536Z</time></trkpt><trkpt lat="43.9398017" lon="12.7324517"><ele>17.0</ele><time>2026-04-26T11:59:30.536Z</time></trkpt><trkpt lat="43.9399733" lon="12.7326383"><ele>17.0</ele><time>2026-04-26T11:59:31.536Z</time></trkpt><trkpt lat="43.94014" lon="12.73285"><ele>18.0</ele><time>2026-04-26T11:59:32.536Z</time></trkpt><trkpt lat="43.9403083" lon="12.7330733"><ele>19.0</ele><time>2026-04-26T11:59:33.534Z</time></trkpt><trkpt lat="43.94048" lon="12.7333"><ele>19.0</ele><time>2026-04-26T11:59:34.536Z</time></trkpt><trkpt lat="43.9406533" lon="12.7335233"><ele>19.0</ele><time>2026-04-26T11:59:35.536Z</time></trkpt><trkpt lat="43.940825" lon="12.7337467"><ele>18.0</ele><time>2026-04-26T11:59:36.536Z</time></trkpt><trkpt lat="43.9409883" lon="12.7339617"><ele>17.0</ele><time>2026-04-26T11:59:37.537Z</time></trkpt><trkpt lat="43.941145" lon="12.7341767"><ele>16.0</ele><time>2026-04-26T11:59:38.536Z</time></trkpt><trkpt lat="43.9413017" lon="12.7343983"><ele>16.0</ele><time>2026-04-26T11:59:39.533Z</time></trkpt><trkpt lat="43.9414567" lon="12.7346217"><ele>16.0</ele><time>2026-04-26T11:59:40.537Z</time></trkpt><trkpt lat="43.9416117" lon="12.7348483"><ele>16.0</ele><time>2026-04-26T11:59:41.538Z</time></trkpt><trkpt lat="43.9417683" lon="12.735075"><ele>16.0</ele><time>2026-04-26T11:59:42.538Z</time></trkpt><trkpt lat="43.9419283" lon="12.7353067"><ele>16.0</ele><time>2026-04-26T11:59:43.536Z</time></trkpt><trkpt lat="43.9420833" lon="12.7355417"><ele>16.0</ele><time>2026-04-26T11:59:44.536Z</time></trkpt><trkpt lat="43.9422383" lon="12.7357683"><ele>16.0</ele><time>2026-04-26T11:59:45.536Z</time></trkpt><trkpt lat="43.9423883" lon="12.7359833"><ele>16.0</ele><time>2026-04-26T11:59:46.536Z</time></trkpt><trkpt lat="43.9425267" lon="12.7361833"><ele>15.666666666666666</ele><time>2026-04-26T11:59:47.537Z</time></trkpt><trkpt lat="43.9426533" lon="12.73637"><ele>15.333333333333332</ele><time>2026-04-26T11:59:48.536Z</time></trkpt><trkpt lat="43.942775" lon="12.7365467"><ele>15.0</ele><time>2026-04-26T11:59:49.538Z</time></trkpt><trkpt lat="43.942885" lon="12.736715"><ele>15.0</ele><time>2026-04-26T11:59:50.536Z</time></trkpt><trkpt lat="43.9429767" lon="12.736875"><ele>15.0</ele><time>2026-04-26T11:59:51.537Z</time></trkpt><trkpt lat="43.9430517" lon="12.737025"><ele>15.0</ele><time>2026-04-26T11:59:52.536Z</time></trkpt><trkpt lat="43.9431033" lon="12.73717"><ele>15.0</ele><time>2026-04-26T11:59:53.536Z</time></trkpt><trkpt lat="43.943125" lon="12.7373383"><ele>14.666666666666668</ele><time>2026-04-26T11:59:54.536Z</time></trkpt><trkpt lat="43.943135" lon="12.7375317"><ele>14.333333333333334</ele><time>2026-04-26T11:59:55.536Z</time></trkpt><trkpt lat="43.9431417" lon="12.7377533"><ele>14.0</ele><time>2026-04-26T11:59:56.536Z</time></trkpt><trkpt lat="43.943175" lon="12.738"><ele>15.0</ele><time>2026-04-26T11:59:57.535Z</time></trkpt><trkpt lat="43.9432267" lon="12.738255"><ele>16.0</ele><time>2026-04-26T11:59:58.533Z</time></trkpt><trkpt lat="43.943275" lon="12.73851"><ele>17.0</ele><time>2026-04-26T11:59:59.534Z</time></trkpt><trkpt lat="43.9433133" lon="12.7387583"><ele>17.0</ele><time>2026-04-26T12:00:00.535Z</time></trkpt><trkpt lat="43.9433433" lon="12.7389917"><ele>17.0</ele><time>2026-04-26T12:00:01.534Z</time></trkpt><trkpt lat="43.9433583" lon="12.739225"><ele>17.0</ele><time>2026-04-26T12:00:02.533Z</time></trkpt><trkpt lat="43.943355" lon="12.739455"><ele>16.666666666666668</ele><time>2026-04-26T12:00:03.536Z</time></trkpt><trkpt lat="43.9433367" lon="12.7396717"><ele>16.333333333333332</ele><time>2026-04-26T12:00:04.534Z</time></trkpt><trkpt lat="43.9433233" lon="12.739885"><ele>16.0</ele><time>2026-04-26T12:00:05.533Z</time></trkpt><trkpt lat="43.943335" lon="12.7401033"><ele>15.666666666666666</ele><time>2026-04-26T12:00:06.534Z</time></trkpt><trkpt lat="43.9433717" lon="12.7403267"><ele>15.333333333333332</ele><time>2026-04-26T12:00:07.534Z</time></trkpt><trkpt lat="43.94343" lon="12.7405483"><ele>15.0</ele><time>2026-04-26T12:00:08.533Z</time></trkpt><trkpt lat="43.94351" lon="12.74077"><ele>15.333333333333332</ele><time>2026-04-26T12:00:09.533Z</time></trkpt><trkpt lat="43.943605" lon="12.74098"><ele>15.666666666666666</ele><time>2026-04-26T12:00:10.536Z</time></trkpt><trkpt lat="43.94372" lon="12.7411833"><ele>16.0</ele><time>2026-04-26T12:00:11.536Z</time></trkpt><trkpt lat="43.94385" lon="12.7413683"><ele>16.0</ele><time>2026-04-26T12:00:12.536Z</time></trkpt><trkpt lat="43.9439833" lon="12.7415383"><ele>16.0</ele><time>2026-04-26T12:00:13.534Z</time></trkpt><trkpt lat="43.94411" lon="12.741685"><ele>16.0</ele><time>2026-04-26T12:00:14.533Z</time></trkpt><trkpt lat="43.9442217" lon="12.7418033"><ele>15.600000000000001</ele><time>2026-04-26T12:00:15.533Z</time></trkpt><trkpt lat="43.9443267" lon="12.7418883"><ele>15.200000000000001</ele><time>2026-04-26T12:00:16.535Z</time></trkpt><trkpt lat="43.9444283" lon="12.74192"><ele>14.799999999999999</ele><time>2026-04-26T12:00:17.537Z</time></trkpt><trkpt lat="43.9445317" lon="12.7418983"><ele>14.399999999999999</ele><time>2026-04-26T12:00:18.536Z</time></trkpt><trkpt lat="43.9446367" lon="12.7418233"><ele>14.0</ele><time>2026-04-26T12:00:19.536Z</time></trkpt><trkpt lat="43.944755" lon="12.7417017"><ele>14.333333333333334</ele><time>2026-04-26T12:00:20.532Z</time></trkpt><trkpt lat="43.944885" lon="12.7415433"><ele>14.666666666666668</ele><time>2026-04-26T12:00:21.533Z</time></trkpt><trkpt lat="43.94503" lon="12.74137"><ele>15.0</ele><time>2026-04-26T12:00:22.537Z</time></trkpt><trkpt lat="43.945175" lon="12.7411933"><ele>15.333333333333332</ele><time>2026-04-26T12:00:23.536Z</time></trkpt><trkpt lat="43.9453167" lon="12.7410233"><ele>15.666666666666666</ele><time>2026-04-26T12:00:24.537Z</time></trkpt><trkpt lat="43.9454483" lon="12.7408633"><ele>16.0</ele><time>2026-04-26T12:00:25.537Z</time></trkpt><trkpt lat="43.9455767" lon="12.740715"><ele>16.0</ele><time>2026-04-26T12:00:26.536Z</time></trkpt><trkpt lat="43.945705" lon="12.7405717"><ele>16.0</ele><time>2026-04-26T12:00:27.534Z</time></trkpt><trkpt lat="43.9458333" lon="12.7404317"><ele>16.0</ele><time>2026-04-26T12:00:28.534Z</time></trkpt><trkpt lat="43.9459567" lon="12.7402917"><ele>15.75</ele><time>2026-04-26T12:00:29.533Z</time></trkpt><trkpt lat="43.9460717" lon="12.7401533"><ele>15.5</ele><time>2026-04-26T12:00:30.534Z</time></trkpt><trkpt lat="43.9461817" lon="12.7400233"><ele>15.25</ele><time>2026-04-26T12:00:31.534Z</time></trkpt><trkpt lat="43.946285" lon="12.7399"><ele>15.0</ele><time>2026-04-26T12:00:32.534Z</time></trkpt><trkpt lat="43.94638" lon="12.7397917"><ele>15.0</ele><time>2026-04-26T12:00:33.533Z</time></trkpt><trkpt lat="43.9464617" lon="12.73971"><ele>15.0</ele><time>2026-04-26T12:00:34.535Z</time></trkpt><trkpt lat="43.9465483" lon="12.7396583"><ele>15.0</ele><time>2026-04-26T12:00:35.534Z</time></trkpt><trkpt lat="43.9466267" lon="12.7396567"><ele>15.0</ele><time>2026-04-26T12:00:36.534Z</time></trkpt><trkpt lat="43.94671" lon="12.7396883"><ele>15.0</ele><time>2026-04-26T12:00:37.535Z</time></trkpt><trkpt lat="43.94679" lon="12.7397733"><ele>15.0</ele><time>2026-04-26T12:00:38.535Z</time></trkpt><trkpt lat="43.9468817" lon="12.73991"><ele>15.0</ele><time>2026-04-26T12:00:39.534Z</time></trkpt><trkpt lat="43.947005" lon="12.7400783"><ele>15.0</ele><time>2026-04-26T12:00:40.536Z</time></trkpt><trkpt lat="43.9471367" lon="12.74025"><ele>15.333333333333332</ele><time>2026-04-26T12:00:41.537Z</time></trkpt><trkpt lat="43.9472767" lon="12.7404217"><ele>15.666666666666666</ele><time>2026-04-26T12:00:42.533Z</time></trkpt><trkpt lat="43.947425" lon="12.740605"><ele>16.0</ele><time>2026-04-26T12:00:43.534Z</time></trkpt><trkpt lat="43.9475883" lon="12.7408"><ele>16.0</ele><time>2026-04-26T12:00:44.533Z</time></trkpt><trkpt lat="43.947765" lon="12.7409967"><ele>16.0</ele><time>2026-04-26T12:00:45.537Z</time></trkpt><trkpt lat="43.94796" lon="12.7411867"><ele>16.0</ele><time>2026-04-26T12:00:46.536Z</time></trkpt><trkpt lat="43.9481617" lon="12.7413633"><ele>16.0</ele><time>2026-04-26T12:00:47.536Z</time></trkpt><trkpt lat="43.9483533" lon="12.74153"><ele>15.666666666666666</ele><time>2026-04-26T12:00:48.535Z</time></trkpt><trkpt lat="43.9485317" lon="12.7416833"><ele>15.333333333333332</ele><time>2026-04-26T12:00:49.536Z</time></trkpt><trkpt lat="43.9486967" lon="12.741825"><ele>15.0</ele><time>2026-04-26T12:00:50.535Z</time></trkpt><trkpt lat="43.9488467" lon="12.7419567"><ele>15.0</ele><time>2026-04-26T12:00:51.534Z</time></trkpt><trkpt lat="43.9489767" lon="12.7420733"><ele>15.0</ele><time>2026-04-26T12:00:52.535Z</time></trkpt><trkpt lat="43.9490883" lon="12.7421733"><ele>15.0</ele><time>2026-04-26T12:00:53.535Z</time></trkpt><trkpt lat="43.949175" lon="12.7422617"><ele>15.0</ele><time>2026-04-26T12:00:54.535Z</time></trkpt><trkpt lat="43.9492367" lon="12.74236"><ele>15.0</ele><time>2026-04-26T12:00:55.54Z</time></trkpt><trkpt lat="43.9493" lon="12.7424583"><ele>15.0</ele><time>2026-04-26T12:00:56.537Z</time></trkpt><trkpt lat="43.9493733" lon="12.7425483"><ele>15.0</ele><time>2026-04-26T12:00:57.533Z</time></trkpt><trkpt lat="43.94947" lon="12.742635"><ele>15.0</ele><time>2026-04-26T12:00:58.533Z</time></trkpt><trkpt lat="43.9495933" lon="12.74274"><ele>14.666666666666668</ele><time>2026-04-26T12:00:59.533Z</time></trkpt><trkpt lat="43.9497333" lon="12.7428783"><ele>14.333333333333334</ele><time>2026-04-26T12:01:00.534Z</time></trkpt><trkpt lat="43.94987" lon="12.74304"><ele>14.0</ele><time>2026-04-26T12:01:01.534Z</time></trkpt><trkpt lat="43.9500167" lon="12.7432183"><ele>14.333333333333334</ele><time>2026-04-26T12:01:02.533Z</time></trkpt><trkpt lat="43.9501767" lon="12.7434067"><ele>14.666666666666668</ele><time>2026-04-26T12:01:03.534Z</time></trkpt><trkpt lat="43.9503417" lon="12.7436067"><ele>15.0</ele><time>2026-04-26T12:01:04.533Z</time></trkpt><trkpt lat="43.950505" lon="12.7438117"><ele>14.0</ele><time>2026-04-26T12:01:05.534Z</time></trkpt><trkpt lat="43.950655" lon="12.7440267"><ele>13.0</ele><time>2026-04-26T12:01:06.533Z</time></trkpt><trkpt lat="43.9507967" lon="12.7442133"><ele>12.0</ele><time>2026-04-26T12:01:07.534Z</time></trkpt><trkpt lat="43.9509317" lon="12.744385"><ele>12.0</ele><time>2026-04-26T12:01:08.533Z</time></trkpt><trkpt lat="43.9510567" lon="12.7445367"><ele>12.0</ele><time>2026-04-26T12:01:09.533Z</time></trkpt><trkpt lat="43.9511667" lon="12.7446633"><ele>12.0</ele><time>2026-04-26T12:01:10.534Z</time></trkpt><trkpt lat="43.9512483" lon="12.7447733"><ele>12.0</ele><time>2026-04-26T12:01:11.535Z</time></trkpt><trkpt lat="43.9513017" lon="12.74488"><ele>12.0</ele><time>2026-04-26T12:01:12.536Z</time></trkpt><trkpt lat="43.95131" lon="12.7449933"><ele>12.0</ele><time>2026-04-26T12:01:13.536Z</time></trkpt><trkpt lat="43.95128" lon="12.74511"><ele>12.0</ele><time>2026-04-26T12:01:14.534Z</time></trkpt><trkpt lat="43.9512" lon="12.7452383"><ele>12.0</ele><time>2026-04-26T12:01:15.535Z</time></trkpt><trkpt lat="43.9511283" lon="12.7453833"><ele>12.0</ele><time>2026-04-26T12:01:16.534Z</time></trkpt><trkpt lat="43.9510633" lon="12.7455133"><ele>12.0</ele><time>2026-04-26T12:01:17.533Z</time></trkpt><trkpt lat="43.951025" lon="12.7456333"><ele>12.0</ele><time>2026-04-26T12:01:18.535Z</time></trkpt><trkpt lat="43.9510167" lon="12.745745"><ele>12.0</ele><time>2026-04-26T12:01:19.534Z</time></trkpt><trkpt lat="43.9510417" lon="12.7458483"><ele>12.0</ele><time>2026-04-26T12:01:20.533Z</time></trkpt><trkpt lat="43.9511017" lon="12.7459367"><ele>12.0</ele><time>2026-04-26T12:01:21.535Z</time></trkpt><trkpt lat="43.95117" lon="12.7460133"><ele>12.0</ele><time>2026-04-26T12:01:22.533Z</time></trkpt><trkpt lat="43.9512767" lon="12.7460833"><ele>11.333333333333334</ele><time>2026-04-26T12:01:23.534Z</time></trkpt><trkpt lat="43.9514517" lon="12.7461583"><ele>10.666666666666668</ele><time>2026-04-26T12:01:24.537Z</time></trkpt><trkpt lat="43.9516317" lon="12.7462317"><ele>10.0</ele><time>2026-04-26T12:01:25.537Z</time></trkpt><trkpt lat="43.951805" lon="12.7463017"><ele>9.666666666666668</ele><time>2026-04-26T12:01:26.536Z</time></trkpt><trkpt lat="43.9519683" lon="12.7463667"><ele>9.333333333333334</ele><time>2026-04-26T12:01:27.535Z</time></trkpt><trkpt lat="43.9521117" lon="12.7464317"><ele>9.0</ele><time>2026-04-26T12:01:28.535Z</time></trkpt><trkpt lat="43.9522317" lon="12.74651"><ele>9.0</ele><time>2026-04-26T12:01:29.534Z</time></trkpt><trkpt lat="43.9523367" lon="12.7466167"><ele>9.0</ele><time>2026-04-26T12:01:30.533Z</time></trkpt><trkpt lat="43.95242" lon="12.74676"><ele>9.0</ele><time>2026-04-26T12:01:31.535Z</time></trkpt><trkpt lat="43.9524783" lon="12.7469233"><ele>9.0</ele><time>2026-04-26T12:01:32.534Z</time></trkpt><trkpt lat="43.9525167" lon="12.7471017"><ele>9.5</ele><time>2026-04-26T12:01:33.535Z</time></trkpt><trkpt lat="43.9525467" lon="12.747275"><ele>10.0</ele><time>2026-04-26T12:01:34.534Z</time></trkpt><trkpt lat="43.95259" lon="12.7474283"><ele>10.5</ele><time>2026-04-26T12:01:35.534Z</time></trkpt><trkpt lat="43.9526633" lon="12.74755"><ele>11.0</ele><time>2026-04-26T12:01:36.535Z</time></trkpt><trkpt lat="43.9527467" lon="12.7476717"><ele>10.75</ele><time>2026-04-26T12:01:37.537Z</time></trkpt><trkpt lat="43.95283" lon="12.74779"><ele>10.5</ele><time>2026-04-26T12:01:38.533Z</time></trkpt><trkpt lat="43.9529167" lon="12.74791"><ele>10.25</ele><time>2026-04-26T12:01:39.535Z</time></trkpt><trkpt lat="43.953005" lon="12.7480233"><ele>10.0</ele><time>2026-04-26T12:01:40.534Z</time></trkpt><trkpt lat="43.9531433" lon="12.7481017"><ele>10.5</ele><time>2026-04-26T12:01:41.533Z</time></trkpt><trkpt lat="43.9534567" lon="12.74814"><ele>11.0</ele><time>2026-04-26T12:01:42.537Z</time></trkpt><trkpt lat="43.953655" lon="12.7482633"><ele>11.0</ele><time>2026-04-26T12:01:43.537Z</time></trkpt><trkpt lat="43.953835" lon="12.748395"><ele>11.0</ele><time>2026-04-26T12:01:44.536Z</time></trkpt><trkpt lat="43.9540033" lon="12.7485417"><ele>11.0</ele><time>2026-04-26T12:01:45.536Z</time></trkpt><trkpt lat="43.9541667" lon="12.7486933"><ele>11.0</ele><time>2026-04-26T12:01:46.534Z</time></trkpt><trkpt lat="43.9543183" lon="12.7488683"><ele>11.0</ele><time>2026-04-26T12:01:47.534Z</time></trkpt><trkpt lat="43.9544617" lon="12.7490567"><ele>11.0</ele><time>2026-04-26T12:01:48.534Z</time></trkpt><trkpt lat="43.9545933" lon="12.74924"><ele>10.333333333333332</ele><time>2026-04-26T12:01:49.536Z</time></trkpt><trkpt lat="43.9547183" lon="12.7493983"><ele>9.666666666666666</ele><time>2026-04-26T12:01:50.536Z</time></trkpt><trkpt lat="43.9548333" lon="12.7495467"><ele>9.0</ele><time>2026-04-26T12:01:51.534Z</time></trkpt><trkpt lat="43.9549433" lon="12.7496767"><ele>9.25</ele><time>2026-04-26T12:01:52.538Z</time></trkpt><trkpt lat="43.9550483" lon="12.74979"><ele>9.5</ele><time>2026-04-26T12:01:53.533Z</time></trkpt><trkpt lat="43.955155" lon="12.7498633"><ele>9.75</ele><time>2026-04-26T12:01:54.534Z</time></trkpt><trkpt lat="43.9552583" lon="12.7498817"><ele>10.0</ele><time>2026-04-26T12:01:55.535Z</time></trkpt><trkpt lat="43.9553533" lon="12.7498467"><ele>10.0</ele><time>2026-04-26T12:01:56.536Z</time></trkpt><trkpt lat="43.9554417" lon="12.74972"><ele>10.0</ele><time>2026-04-26T12:01:57.534Z</time></trkpt><trkpt lat="43.9555117" lon="12.7495283"><ele>10.0</ele><time>2026-04-26T12:01:58.535Z</time></trkpt><trkpt lat="43.95558" lon="12.7493267"><ele>10.0</ele><time>2026-04-26T12:01:59.535Z</time></trkpt><trkpt lat="43.9556517" lon="12.7491333"><ele>10.0</ele><time>2026-04-26T12:02:00.534Z</time></trkpt><trkpt lat="43.955725" lon="12.748935"><ele>10.0</ele><time>2026-04-26T12:02:01.536Z</time></trkpt><trkpt lat="43.9558017" lon="12.74877"><ele>10.0</ele><time>2026-04-26T12:02:02.535Z</time></trkpt><trkpt lat="43.955875" lon="12.7486117"><ele>10.0</ele><time>2026-04-26T12:02:03.534Z</time></trkpt><trkpt lat="43.9559483" lon="12.7484667"><ele>10.25</ele><time>2026-04-26T12:02:04.536Z</time></trkpt><trkpt lat="43.9560283" lon="12.748345"><ele>10.5</ele><time>2026-04-26T12:02:05.534Z</time></trkpt><trkpt lat="43.9561167" lon="12.7482467"><ele>10.75</ele><time>2026-04-26T12:02:06.536Z</time></trkpt><trkpt lat="43.956215" lon="12.74817"><ele>11.0</ele><time>2026-04-26T12:02:07.535Z</time></trkpt><trkpt lat="43.9563167" lon="12.7481133"><ele>11.0</ele><time>2026-04-26T12:02:08.535Z</time></trkpt><trkpt lat="43.9564167" lon="12.7480983"><ele>11.0</ele><time>2026-04-26T12:02:09.54Z</time></trkpt><trkpt lat="43.9565167" lon="12.7481367"><ele>11.0</ele><time>2026-04-26T12:02:10.536Z</time></trkpt><trkpt lat="43.9566183" lon="12.74822"><ele>11.0</ele><time>2026-04-26T12:02:11.538Z</time></trkpt><trkpt lat="43.956725" lon="12.74833"><ele>11.0</ele><time>2026-04-26T12:02:12.537Z</time></trkpt><trkpt lat="43.9568317" lon="12.7484517"><ele>11.0</ele><time>2026-04-26T12:02:13.538Z</time></trkpt><trkpt lat="43.9569433" lon="12.74857"><ele>11.0</ele><time>2026-04-26T12:02:14.536Z</time></trkpt><trkpt lat="43.957055" lon="12.7486883"><ele>11.0</ele><time>2026-04-26T12:02:15.534Z</time></trkpt><trkpt lat="43.957165" lon="12.7488017"><ele>10.5</ele><time>2026-04-26T12:02:16.536Z</time></trkpt><trkpt lat="43.95727" lon="12.74892"><ele>10.0</ele><time>2026-04-26T12:02:17.537Z</time></trkpt><trkpt lat="43.9573717" lon="12.749055"><ele>9.5</ele><time>2026-04-26T12:02:18.537Z</time></trkpt><trkpt lat="43.9574683" lon="12.7491983"><ele>9.0</ele><time>2026-04-26T12:02:19.537Z</time></trkpt><trkpt lat="43.9575567" lon="12.7493433"><ele>8.5</ele><time>2026-04-26T12:02:20.534Z</time></trkpt><trkpt lat="43.957655" lon="12.7494817"><ele>8.0</ele><time>2026-04-26T12:02:21.535Z</time></trkpt><trkpt lat="43.95776" lon="12.7496033"><ele>7.5</ele><time>2026-04-26T12:02:22.537Z</time></trkpt><trkpt lat="43.9578767" lon="12.7497167"><ele>7.0</ele><time>2026-04-26T12:02:23.535Z</time></trkpt><trkpt lat="43.9580017" lon="12.749825"><ele>7.0</ele><time>2026-04-26T12:02:24.535Z</time></trkpt><trkpt lat="43.958125" lon="12.7499117"><ele>7.0</ele><time>2026-04-26T12:02:25.536Z</time></trkpt><trkpt lat="43.9582433" lon="12.7499933"><ele>7.0</ele><time>2026-04-26T12:02:26.535Z</time></trkpt><trkpt lat="43.95835" lon="12.7500783"><ele>7.0</ele><time>2026-04-26T12:02:27.536Z</time></trkpt><trkpt lat="43.95843" lon="12.7501583"><ele>7.000000000000001</ele><time>2026-04-26T12:02:28.533Z</time></trkpt><trkpt lat="43.9585017" lon="12.7502383"><ele>7.0</ele><time>2026-04-26T12:02:29.537Z</time></trkpt><trkpt lat="43.9585617" lon="12.75031"><ele>7.0</ele><time>2026-04-26T12:02:30.533Z</time></trkpt><trkpt lat="43.9586183" lon="12.75037"><ele>7.0</ele><time>2026-04-26T12:02:31.536Z</time></trkpt><trkpt lat="43.9587267" lon="12.750395"><ele>7.000000000000001</ele><time>2026-04-26T12:02:33.536Z</time></trkpt><trkpt lat="43.9588" lon="12.7503833"><ele>7.0</ele><time>2026-04-26T12:02:34.534Z</time></trkpt><trkpt lat="43.95888" lon="12.75036"><ele>7.0</ele><time>2026-04-26T12:02:35.534Z</time></trkpt><trkpt lat="43.95898" lon="12.7503367"><ele>6.999999999999999</ele><time>2026-04-26T12:02:36.535Z</time></trkpt><trkpt lat="43.95909" lon="12.7503367"><ele>6.999999999999999</ele><time>2026-04-26T12:02:37.537Z</time></trkpt><trkpt lat="43.9591833" lon="12.750345"><ele>7.0</ele><time>2026-04-26T12:02:38.537Z</time></trkpt><trkpt lat="43.9593167" lon="12.7503817"><ele>7.0</ele><time>2026-04-26T12:02:39.536Z</time></trkpt><trkpt lat="43.9594567" lon="12.7504233"><ele>7.6</ele><time>2026-04-26T12:02:40.536Z</time></trkpt><trkpt lat="43.95957" lon="12.75045"><ele>8.2</ele><time>2026-04-26T12:02:41.533Z</time></trkpt><trkpt lat="43.9596717" lon="12.75045"><ele>8.8</ele><time>2026-04-26T12:02:42.536Z</time></trkpt><trkpt lat="43.95977" lon="12.7504283"><ele>9.4</ele><time>2026-04-26T12:02:43.537Z</time></trkpt><trkpt lat="43.95986" lon="12.75041"><ele>10.0</ele><time>2026-04-26T12:02:44.537Z</time></trkpt><trkpt lat="43.9599367" lon="12.7504133"><ele>9.833333333333334</ele><time>2026-04-26T12:02:45.537Z</time></trkpt><trkpt lat="43.9600383" lon="12.750445"><ele>9.666666666666668</ele><time>2026-04-26T12:02:47.533Z</time></trkpt><trkpt lat="43.9600767" lon="12.750545"><ele>9.5</ele><time>2026-04-26T12:02:51.537Z</time></trkpt><trkpt lat="43.9600733" lon="12.7506433"><ele>9.333333333333334</ele><time>2026-04-26T12:02:53.537Z</time></trkpt><trkpt lat="43.9601283" lon="12.7507117"><ele>9.166666666666666</ele><time>2026-04-26T12:02:55.537Z</time></trkpt><trkpt lat="43.9601983" lon="12.7507317"><ele>9.0</ele><time>2026-04-26T12:02:56.537Z</time></trkpt><trkpt lat="43.960285" lon="12.7507533"><ele>9.0</ele><time>2026-04-26T12:02:57.536Z</time></trkpt><trkpt lat="43.96038" lon="12.75078"><ele>9.0</ele><time>2026-04-26T12:02:58.533Z</time></trkpt><trkpt lat="43.960485" lon="12.7508117"><ele>9.0</ele><time>2026-04-26T12:02:59.533Z</time></trkpt><trkpt lat="43.960595" lon="12.7508367"><ele>9.0</ele><time>2026-04-26T12:03:00.535Z</time></trkpt><trkpt lat="43.9607133" lon="12.750855"><ele>9.0</ele><time>2026-04-26T12:03:01.535Z</time></trkpt><trkpt lat="43.96083" lon="12.7508717"><ele>9.0</ele><time>2026-04-26T12:03:02.537Z</time></trkpt><trkpt lat="43.9609383" lon="12.7508867"><ele>9.0</ele><time>2026-04-26T12:03:03.536Z</time></trkpt><trkpt lat="43.9610383" lon="12.7509133"><ele>9.0</ele><time>2026-04-26T12:03:04.533Z</time></trkpt><trkpt lat="43.9611267" lon="12.75097"><ele>9.0</ele><time>2026-04-26T12:03:05.533Z</time></trkpt><trkpt lat="43.9612133" lon="12.7510367"><ele>9.0</ele><time>2026-04-26T12:03:06.533Z</time></trkpt><trkpt lat="43.961295" lon="12.7511183"><ele>9.25</ele><time>2026-04-26T12:03:07.534Z</time></trkpt><trkpt lat="43.9613867" lon="12.751205"><ele>9.5</ele><time>2026-04-26T12:03:08.534Z</time></trkpt><trkpt lat="43.96149" lon="12.7513"><ele>9.75</ele><time>2026-04-26T12:03:09.533Z</time></trkpt><trkpt lat="43.9615917" lon="12.751395"><ele>10.0</ele><time>2026-04-26T12:03:10.537Z</time></trkpt><trkpt lat="43.9616983" lon="12.75149"><ele>9.75</ele><time>2026-04-26T12:03:11.533Z</time></trkpt><trkpt lat="43.9617967" lon="12.7515833"><ele>9.5</ele><time>2026-04-26T12:03:12.535Z</time></trkpt><trkpt lat="43.9618983" lon="12.7516783"><ele>9.25</ele><time>2026-04-26T12:03:13.536Z</time></trkpt><trkpt lat="43.9620033" lon="12.7517717"><ele>9.0</ele><time>2026-04-26T12:03:14.534Z</time></trkpt><trkpt lat="43.9620983" lon="12.7518617"><ele>9.25</ele><time>2026-04-26T12:03:15.535Z</time></trkpt><trkpt lat="43.962195" lon="12.751945"><ele>9.5</ele><time>2026-04-26T12:03:16.536Z</time></trkpt><trkpt lat="43.96229" lon="12.7520283"><ele>9.75</ele><time>2026-04-26T12:03:17.532Z</time></trkpt><trkpt lat="43.9623883" lon="12.752115"><ele>10.0</ele><time>2026-04-26T12:03:18.534Z</time></trkpt><trkpt lat="43.9624817" lon="12.7521967"><ele>9.8</ele><time>2026-04-26T12:03:19.534Z</time></trkpt><trkpt lat="43.9625733" lon="12.7522717"><ele>9.6</ele><time>2026-04-26T12:03:20.532Z</time></trkpt><trkpt lat="43.9626567" lon="12.7523433"><ele>9.4</ele><time>2026-04-26T12:03:21.533Z</time></trkpt><trkpt lat="43.96274" lon="12.7524167"><ele>9.2</ele><time>2026-04-26T12:03:22.534Z</time></trkpt><trkpt lat="43.9628333" lon="12.7524917"><ele>9.0</ele><time>2026-04-26T12:03:23.533Z</time></trkpt><trkpt lat="43.9629283" lon="12.7525717"><ele>9.0</ele><time>2026-04-26T12:03:24.533Z</time></trkpt><trkpt lat="43.9630183" lon="12.7526533"><ele>9.0</ele><time>2026-04-26T12:03:25.533Z</time></trkpt><trkpt lat="43.9631167" lon="12.7527383"><ele>9.0</ele><time>2026-04-26T12:03:26.533Z</time></trkpt><trkpt lat="43.9632" lon="12.7528133"><ele>9.0</ele><time>2026-04-26T12:03:27.534Z</time></trkpt><trkpt lat="43.9632817" lon="12.7528817"><ele>9.0</ele><time>2026-04-26T12:03:28.533Z</time></trkpt><trkpt lat="43.9633667" lon="12.75296"><ele>8.75</ele><time>2026-04-26T12:03:29.533Z</time></trkpt><trkpt lat="43.963455" lon="12.753045"><ele>8.5</ele><time>2026-04-26T12:03:30.533Z</time></trkpt><trkpt lat="43.96355" lon="12.7531333"><ele>8.25</ele><time>2026-04-26T12:03:31.536Z</time></trkpt><trkpt lat="43.963645" lon="12.7532217"><ele>8.0</ele><time>2026-04-26T12:03:32.534Z</time></trkpt><trkpt lat="43.9637383" lon="12.7533133"><ele>8.0</ele><time>2026-04-26T12:03:33.534Z</time></trkpt><trkpt lat="43.963835" lon="12.7534033"><ele>8.0</ele><time>2026-04-26T12:03:34.533Z</time></trkpt><trkpt lat="43.9639383" lon="12.7534917"><ele>8.0</ele><time>2026-04-26T12:03:35.532Z</time></trkpt><trkpt lat="43.9640417" lon="12.7535817"><ele>8.0</ele><time>2026-04-26T12:03:36.533Z</time></trkpt><trkpt lat="43.9641433" lon="12.75367"><ele>6.75</ele><time>2026-04-26T12:03:37.539Z</time></trkpt><trkpt lat="43.9642467" lon="12.7537617"><ele>5.5</ele><time>2026-04-26T12:03:38.536Z</time></trkpt><trkpt lat="43.9643467" lon="12.753855"><ele>4.25</ele><time>2026-04-26T12:03:39.535Z</time></trkpt><trkpt lat="43.96445" lon="12.7539483"><ele>3.0</ele><time>2026-04-26T12:03:40.533Z</time></trkpt><trkpt lat="43.964555" lon="12.754045"><ele>3.0</ele><time>2026-04-26T12:03:41.533Z</time></trkpt><trkpt lat="43.9646567" lon="12.7541367"><ele>3.0</ele><time>2026-04-26T12:03:42.534Z</time></trkpt><trkpt lat="43.964755" lon="12.75423"><ele>3.0</ele><time>2026-04-26T12:03:43.535Z</time></trkpt><trkpt lat="43.9648467" lon="12.754335"><ele>3.0</ele><time>2026-04-26T12:03:44.537Z</time></trkpt><trkpt lat="43.964935" lon="12.7544483"><ele>3.4</ele><time>2026-04-26T12:03:45.534Z</time></trkpt><trkpt lat="43.9650217" lon="12.7545633"><ele>3.8</ele><time>2026-04-26T12:03:46.532Z</time></trkpt><trkpt lat="43.9651033" lon="12.7546683"><ele>4.2</ele><time>2026-04-26T12:03:47.533Z</time></trkpt><trkpt lat="43.9651767" lon="12.75476"><ele>4.6</ele><time>2026-04-26T12:03:48.533Z</time></trkpt><trkpt lat="43.965245" lon="12.7548417"><ele>5.0</ele><time>2026-04-26T12:03:49.534Z</time></trkpt><trkpt lat="43.9653167" lon="12.7549167"><ele>5.5</ele><time>2026-04-26T12:03:50.533Z</time></trkpt><trkpt lat="43.9653883" lon="12.7549817"><ele>6.0</ele><time>2026-04-26T12:03:51.534Z</time></trkpt><trkpt lat="43.965455" lon="12.7550383"><ele>6.5</ele><time>2026-04-26T12:03:52.533Z</time></trkpt><trkpt lat="43.9655233" lon="12.7550933"><ele>7.0</ele><time>2026-04-26T12:03:53.533Z</time></trkpt><trkpt lat="43.9655933" lon="12.7551517"><ele>7.499999999999999</ele><time>2026-04-26T12:03:54.533Z</time></trkpt><trkpt lat="43.9656583" lon="12.7552067"><ele>8.0</ele><time>2026-04-26T12:03:55.534Z</time></trkpt><trkpt lat="43.9657167" lon="12.7552567"><ele>8.0</ele><time>2026-04-26T12:03:56.533Z</time></trkpt><trkpt lat="43.9658133" lon="12.75534"><ele>8.0</ele><time>2026-04-26T12:03:58.534Z</time></trkpt><trkpt lat="43.96591" lon="12.7554133"><ele>8.0</ele><time>2026-04-26T12:04:00.533Z</time></trkpt><trkpt lat="43.9660033" lon="12.7554883"><ele>8.0</ele><time>2026-04-26T12:04:02.532Z</time></trkpt><trkpt lat="43.9660933" lon="12.7555867"><ele>8.0</ele><time>2026-04-26T12:04:04.534Z</time></trkpt><trkpt lat="43.9661867" lon="12.7556817"><ele>7.800000000000001</ele><time>2026-04-26T12:04:06.533Z</time></trkpt><trkpt lat="43.9662533" lon="12.7557533"><ele>7.6000000000000005</ele><time>2026-04-26T12:04:07.536Z</time></trkpt><trkpt lat="43.96633" lon="12.7558283"><ele>7.3999999999999995</ele><time>2026-04-26T12:04:08.532Z</time></trkpt><trkpt lat="43.9664517" lon="12.7558983"><ele>7.199999999999999</ele><time>2026-04-26T12:04:09.533Z</time></trkpt><trkpt lat="43.9665283" lon="12.7559683"><ele>7.0</ele><time>2026-04-26T12:04:10.533Z</time></trkpt><trkpt lat="43.9666167" lon="12.7560467"><ele>7.333333333333334</ele><time>2026-04-26T12:04:11.532Z</time></trkpt><trkpt lat="43.9666917" lon="12.7561383"><ele>7.666666666666667</ele><time>2026-04-26T12:04:12.533Z</time></trkpt><trkpt lat="43.9667283" lon="12.7562267"><ele>8.0</ele><time>2026-04-26T12:04:13.537Z</time></trkpt><trkpt lat="43.9667483" lon="12.75632"><ele>8.333333333333334</ele><time>2026-04-26T12:04:14.533Z</time></trkpt><trkpt lat="43.9667433" lon="12.7564217"><ele>8.666666666666666</ele><time>2026-04-26T12:04:15.537Z</time></trkpt><trkpt lat="43.966725" lon="12.7565317"><ele>9.0</ele><time>2026-04-26T12:04:16.534Z</time></trkpt><trkpt lat="43.9667017" lon="12.75665"><ele>9.0</ele><time>2026-04-26T12:04:17.533Z</time></trkpt><trkpt lat="43.9666733" lon="12.7567733"><ele>9.0</ele><time>2026-04-26T12:04:18.537Z</time></trkpt><trkpt lat="43.9666433" lon="12.756895"><ele>9.0</ele><time>2026-04-26T12:04:19.533Z</time></trkpt><trkpt lat="43.966615" lon="12.7570083"><ele>9.0</ele><time>2026-04-26T12:04:20.532Z</time></trkpt><trkpt lat="43.9665833" lon="12.7571183"><ele>9.0</ele><time>2026-04-26T12:04:21.532Z</time></trkpt><trkpt lat="43.9665533" lon="12.757235"><ele>9.0</ele><time>2026-04-26T12:04:22.533Z</time></trkpt><trkpt lat="43.9665167" lon="12.7573617"><ele>9.0</ele><time>2026-04-26T12:04:23.533Z</time></trkpt><trkpt lat="43.9664817" lon="12.757495"><ele>9.0</ele><time>2026-04-26T12:04:24.533Z</time></trkpt><trkpt lat="43.9664467" lon="12.757625"><ele>9.0</ele><time>2026-04-26T12:04:25.534Z</time></trkpt><trkpt lat="43.9664283" lon="12.75775"><ele>9.0</ele><time>2026-04-26T12:04:26.534Z</time></trkpt><trkpt lat="43.9664067" lon="12.7578733"><ele>9.0</ele><time>2026-04-26T12:04:27.533Z</time></trkpt><trkpt lat="43.9663783" lon="12.757985"><ele>9.0</ele><time>2026-04-26T12:04:28.532Z</time></trkpt><trkpt lat="43.9663583" lon="12.758085"><ele>9.0</ele><time>2026-04-26T12:04:29.533Z</time></trkpt><trkpt lat="43.9663317" lon="12.7581683"><ele>9.0</ele><time>2026-04-26T12:04:30.533Z</time></trkpt><trkpt lat="43.9662817" lon="12.758305"><ele>9.0</ele><time>2026-04-26T12:04:32.533Z</time></trkpt><trkpt lat="43.96624" lon="12.75845"><ele>9.0</ele><time>2026-04-26T12:04:34.535Z</time></trkpt><trkpt lat="43.9662083" lon="12.75858"><ele>9.0</ele><time>2026-04-26T12:04:36.533Z</time></trkpt><trkpt lat="43.9661967" lon="12.7586667"><ele>9.0</ele><time>2026-04-26T12:04:38.537Z</time></trkpt><trkpt lat="43.966245" lon="12.7585817"><ele>9.0</ele><time>2026-04-26T12:04:43.534Z</time></trkpt><trkpt lat="43.9662417" lon="12.758485"><ele>9.0</ele><time>2026-04-26T12:04:44.533Z</time></trkpt><trkpt lat="43.966265" lon="12.758365"><ele>9.0</ele><time>2026-04-26T12:04:45.532Z</time></trkpt><trkpt lat="43.96631" lon="12.758195"><ele>9.0</ele><time>2026-04-26T12:04:46.534Z</time></trkpt><trkpt lat="43.9663633" lon="12.7580083"><ele>9.0</ele><time>2026-04-26T12:04:47.534Z</time></trkpt><trkpt lat="43.966415" lon="12.7578117"><ele>9.0</ele><time>2026-04-26T12:04:48.533Z</time></trkpt><trkpt lat="43.9664667" lon="12.757635"><ele>9.0</ele><time>2026-04-26T12:04:49.533Z</time></trkpt><trkpt lat="43.9665167" lon="12.7574667"><ele>9.0</ele><time>2026-04-26T12:04:50.533Z</time></trkpt><trkpt lat="43.966565" lon="12.7572983"><ele>9.0</ele><time>2026-04-26T12:04:51.533Z</time></trkpt><trkpt lat="43.9666083" lon="12.7571317"><ele>9.0</ele><time>2026-04-26T12:04:52.533Z</time></trkpt><trkpt lat="43.9666333" lon="12.75696"><ele>9.0</ele><time>2026-04-26T12:04:53.533Z</time></trkpt><trkpt lat="43.966665" lon="12.7568033"><ele>9.0</ele><time>2026-04-26T12:04:54.533Z</time></trkpt><trkpt lat="43.9667033" lon="12.7566517"><ele>8.4</ele><time>2026-04-26T12:04:55.534Z</time></trkpt><trkpt lat="43.96674" lon="12.7565"><ele>7.800000000000001</ele><time>2026-04-26T12:04:56.534Z</time></trkpt><trkpt lat="43.9667817" lon="12.7563567"><ele>7.199999999999999</ele><time>2026-04-26T12:04:57.533Z</time></trkpt><trkpt lat="43.9668217" lon="12.7562133"><ele>6.6</ele><time>2026-04-26T12:04:58.534Z</time></trkpt><trkpt lat="43.9668583" lon="12.75607"><ele>6.0</ele><time>2026-04-26T12:04:59.533Z</time></trkpt><trkpt lat="43.966895" lon="12.7559383"><ele>6.0</ele><time>2026-04-26T12:05:00.534Z</time></trkpt><trkpt lat="43.966935" lon="12.7558083"><ele>6.0</ele><time>2026-04-26T12:05:01.534Z</time></trkpt><trkpt lat="43.966965" lon="12.75567"><ele>6.0</ele><time>2026-04-26T12:05:02.533Z</time></trkpt><trkpt lat="43.9670033" lon="12.755535"><ele>6.0</ele><time>2026-04-26T12:05:03.533Z</time></trkpt><trkpt lat="43.9670383" lon="12.7554117"><ele>6.0</ele><time>2026-04-26T12:05:04.533Z</time></trkpt><trkpt lat="43.9670733" lon="12.755295"><ele>6.166666666666667</ele><time>2026-04-26T12:05:05.534Z</time></trkpt><trkpt lat="43.9671033" lon="12.7551767"><ele>6.333333333333334</ele><time>2026-04-26T12:05:06.536Z</time></trkpt><trkpt lat="43.9671383" lon="12.7550633"><ele>6.5</ele><time>2026-04-26T12:05:07.536Z</time></trkpt><trkpt lat="43.9671633" lon="12.754945"><ele>6.666666666666667</ele><time>2026-04-26T12:05:08.532Z</time></trkpt><trkpt lat="43.9671883" lon="12.754835"><ele>6.833333333333334</ele><time>2026-04-26T12:05:09.536Z</time></trkpt><trkpt lat="43.9672167" lon="12.75473"><ele>7.0</ele><time>2026-04-26T12:05:10.536Z</time></trkpt><trkpt lat="43.9672433" lon="12.7546317"><ele>7.0</ele><time>2026-04-26T12:05:11.541Z</time></trkpt><trkpt lat="43.96728" lon="12.7544917"><ele>6.999999999999999</ele><time>2026-04-26T12:05:13.533Z</time></trkpt><trkpt lat="43.9673433" lon="12.7544433"><ele>6.999999999999999</ele><time>2026-04-26T12:05:16.536Z</time></trkpt><trkpt lat="43.9674167" lon="12.7544683"><ele>7.0</ele><time>2026-04-26T12:05:19.534Z</time></trkpt><trkpt lat="43.9674717" lon="12.7543883"><ele>7.0</ele><time>2026-04-26T12:05:23.537Z</time></trkpt><trkpt lat="43.96752" lon="12.7542267"><ele>6.166666666666667</ele><time>2026-04-26T12:05:25.534Z</time></trkpt><trkpt lat="43.9675517" lon="12.7541083"><ele>5.333333333333334</ele><time>2026-04-26T12:05:26.536Z</time></trkpt><trkpt lat="43.96758" lon="12.7539883"><ele>4.5</ele><time>2026-04-26T12:05:27.536Z</time></trkpt><trkpt lat="43.967615" lon="12.7538717"><ele>3.666666666666667</ele><time>2026-04-26T12:05:28.536Z</time></trkpt><trkpt lat="43.9676483" lon="12.7537633"><ele>2.833333333333333</ele><time>2026-04-26T12:05:29.535Z</time></trkpt><trkpt lat="43.9676717" lon="12.7536633"><ele>2.0</ele><time>2026-04-26T12:05:30.534Z</time></trkpt><trkpt lat="43.9676867" lon="12.7535767"><ele>1.9999999999999998</ele><time>2026-04-26T12:05:31.535Z</time></trkpt><trkpt lat="43.967685" lon="12.7534533"><ele>2.0</ele><time>2026-04-26T12:05:33.536Z</time></trkpt><trkpt lat="43.9677633" lon="12.7534383"><ele>2.0</ele><time>2026-04-26T12:05:36.536Z</time></trkpt><trkpt lat="43.9678517" lon="12.7534767"><ele>2.0</ele><time>2026-04-26T12:05:38.536Z</time></trkpt><trkpt lat="43.9678933" lon="12.753555"><ele>1.9999999999999998</ele><time>2026-04-26T12:05:41.536Z</time></trkpt><trkpt lat="43.9678783" lon="12.7536667"><ele>2.0</ele><time>2026-04-26T12:05:43.536Z</time></trkpt><trkpt lat="43.9678567" lon="12.7538167"><ele>2.0</ele><time>2026-04-26T12:05:45.533Z</time></trkpt><trkpt lat="43.96783" lon="12.75397"><ele>2.0</ele><time>2026-04-26T12:05:47.533Z</time></trkpt><trkpt lat="43.9678017" lon="12.754115"><ele>2.0</ele><time>2026-04-26T12:05:49.533Z</time></trkpt><trkpt lat="43.9677733" lon="12.75426"><ele>2.0</ele><time>2026-04-26T12:05:51.534Z</time></trkpt><trkpt lat="43.9677483" lon="12.7543933"><ele>2.0</ele><time>2026-04-26T12:05:53.534Z</time></trkpt><trkpt lat="43.9677183" lon="12.7544933"><ele>1.7142857142857142</ele><time>2026-04-26T12:05:56.533Z</time></trkpt><trkpt lat="43.9677183" lon="12.7545817"><ele>1.4285714285714284</ele><time>2026-04-26T12:18:57.538Z</time></trkpt><trkpt lat="43.9677817" lon="12.7545683"><ele>1.1428571428571428</ele><time>2026-04-26T12:19:06.539Z</time></trkpt><trkpt lat="43.9678533" lon="12.7545667"><ele>0.8571428571428571</ele><time>2026-04-26T12:25:46.538Z</time></trkpt><trkpt lat="43.9677883" lon="12.75462"><ele>0.5714285714285714</ele><time>2026-04-26T12:27:47.537Z</time></trkpt><trkpt lat="43.9677767" lon="12.7545233"><ele>0.2857142857142857</ele><time>2026-04-26T12:30:21.539Z</time></trkpt><trkpt lat="43.96783" lon="12.754575"><ele>0.0</ele><time>2026-04-26T12:30:48.538Z</time></trkpt><trkpt lat="43.9678983" lon="12.75456"><ele>0.0</ele><time>2026-04-26T12:31:57.538Z</time></trkpt><trkpt lat="43.9678417" lon="12.7545983"><ele>0.0</ele><time>2026-04-26T12:33:07.539Z</time></trkpt><trkpt lat="43.9677683" lon="12.7545917"><ele>0.0</ele><time>2026-04-26T12:35:32.538Z</time></trkpt><trkpt lat="43.9678183" lon="12.754535"><ele>0.0</ele><time>2026-04-26T12:38:46.539Z</time></trkpt><trkpt lat="43.9677367" lon="12.7545117"><ele>0.0</ele><time>2026-04-26T13:03:04.537Z</time></trkpt><trkpt lat="43.9678317" lon="12.7545433"><ele>0.0</ele><time>2026-04-26T13:11:03.538Z</time></trkpt><trkpt lat="43.9677717" lon="12.75451"><ele>0.0</ele><time>2026-04-26T13:13:06.538Z</time></trkpt><trkpt lat="43.9678317" lon="12.7545367"><ele>0.0</ele><time>2026-04-26T13:17:08.537Z</time></trkpt><trkpt lat="43.967765" lon="12.754515"><ele>0.0</ele><time>2026-04-26T13:27:43.538Z</time></trkpt><trkpt lat="43.9678283" lon="12.7545117"><ele>0.0</ele><time>2026-04-26T13:31:37.538Z</time></trkpt><trkpt lat="43.9677417" lon="12.7545333"><ele>0.0</ele><time>2026-04-26T13:34:04.537Z</time></trkpt><trkpt lat="43.967835" lon="12.7545267"><ele>0.0</ele><time>2026-04-26T13:35:31.539Z</time></trkpt><trkpt lat="43.96777" lon="12.754495"><ele>0.0</ele><time>2026-04-26T13:36:07.539Z</time></trkpt><trkpt lat="43.9678783" lon="12.7544983"><ele>0.0</ele><time>2026-04-26T13:37:51.538Z</time></trkpt><trkpt lat="43.9678133" lon="12.7545033"><ele>0.0</ele><time>2026-04-26T13:38:23.538Z</time></trkpt><trkpt lat="43.967745" lon="12.7544967"><ele>0.0</ele><time>2026-04-26T13:38:33.538Z</time></trkpt><trkpt lat="43.9678233" lon="12.7545333"><ele>0.0</ele><time>2026-04-26T13:45:00.539Z</time></trkpt><trkpt lat="43.96777" lon="12.7544833"><ele>0.0</ele><time>2026-04-26T13:50:25.539Z</time></trkpt><trkpt lat="43.9677583" lon="12.75459"><ele>0.0</ele><time>2026-04-26T13:50:42.535Z</time></trkpt><trkpt lat="43.9676983" lon="12.7546467"><ele>0.0</ele><time>2026-04-26T13:50:48.538Z</time></trkpt><trkpt lat="43.9676267" lon="12.7546567"><ele>0.0</ele><time>2026-04-26T13:50:51.539Z</time></trkpt><trkpt lat="43.9675533" lon="12.75464"><ele>0.0</ele><time>2026-04-26T13:50:53.538Z</time></trkpt><trkpt lat="43.967485" lon="12.7546133"><ele>0.0</ele><time>2026-04-26T13:50:56.536Z</time></trkpt><trkpt lat="43.967455" lon="12.754505"><ele>0.0</ele><time>2026-04-26T13:51:02.537Z</time></trkpt><trkpt lat="43.9674667" lon="12.754405"><ele>0.0</ele><time>2026-04-26T13:51:04.537Z</time></trkpt><trkpt lat="43.9674883" lon="12.7543083"><ele>0.0</ele><time>2026-04-26T13:51:06.538Z</time></trkpt><trkpt lat="43.9675167" lon="12.754195"><ele>0.2857142857142857</ele><time>2026-04-26T13:51:08.536Z</time></trkpt><trkpt lat="43.967535" lon="12.754095"><ele>0.5714285714285714</ele><time>2026-04-26T13:51:10.536Z</time></trkpt><trkpt lat="43.9675583" lon="12.7540083"><ele>0.8571428571428571</ele><time>2026-04-26T13:51:12.537Z</time></trkpt><trkpt lat="43.9675933" lon="12.7539117"><ele>1.1428571428571428</ele><time>2026-04-26T13:51:14.538Z</time></trkpt><trkpt lat="43.9676117" lon="12.7538017"><ele>1.4285714285714284</ele><time>2026-04-26T13:51:16.537Z</time></trkpt><trkpt lat="43.96764" lon="12.7537067"><ele>1.7142857142857142</ele><time>2026-04-26T13:51:19.536Z</time></trkpt><trkpt lat="43.9676667" lon="12.753625"><ele>2.0</ele><time>2026-04-26T13:51:23.534Z</time></trkpt><trkpt lat="43.9676817" lon="12.7535283"><ele>2.0</ele><time>2026-04-26T13:51:26.534Z</time></trkpt><trkpt lat="43.967675" lon="12.753415"><ele>2.0</ele><time>2026-04-26T13:51:29.538Z</time></trkpt><trkpt lat="43.9677083" lon="12.7532817"><ele>2.0</ele><time>2026-04-26T13:51:32.537Z</time></trkpt><trkpt lat="43.96773" lon="12.7531467"><ele>2.0</ele><time>2026-04-26T13:51:34.538Z</time></trkpt><trkpt lat="43.9677433" lon="12.7530317"><ele>2.0</ele><time>2026-04-26T13:51:35.539Z</time></trkpt><trkpt lat="43.9677617" lon="12.7529017"><ele>1.9999999999999998</ele><time>2026-04-26T13:51:36.534Z</time></trkpt><trkpt lat="43.9677783" lon="12.7528017"><ele>2.0</ele><time>2026-04-26T13:51:37.537Z</time></trkpt><trkpt lat="43.967795" lon="12.7527117"><ele>2.0</ele><time>2026-04-26T13:51:38.534Z</time></trkpt><trkpt lat="43.9678217" lon="12.752575"><ele>2.0</ele><time>2026-04-26T13:51:40.535Z</time></trkpt><trkpt lat="43.9678133" lon="12.7524867"><ele>1.9999999999999998</ele><time>2026-04-26T13:51:42.542Z</time></trkpt><trkpt lat="43.9676933" lon="12.75248"><ele>2.0</ele><time>2026-04-26T13:51:44.535Z</time></trkpt><trkpt lat="43.967595" lon="12.7524783"><ele>3.0</ele><time>2026-04-26T13:51:45.537Z</time></trkpt><trkpt lat="43.967505" lon="12.7524517"><ele>4.0</ele><time>2026-04-26T13:51:46.535Z</time></trkpt><trkpt lat="43.96742" lon="12.752435"><ele>4.999999999999999</ele><time>2026-04-26T13:51:47.536Z</time></trkpt><trkpt lat="43.967325" lon="12.7524133"><ele>6.0</ele><time>2026-04-26T13:51:49.536Z</time></trkpt><trkpt lat="43.9671833" lon="12.7523567"><ele>7.0</ele><time>2026-04-26T13:51:51.536Z</time></trkpt><trkpt lat="43.96708" lon="12.7523167"><ele>7.000000000000001</ele><time>2026-04-26T13:51:52.537Z</time></trkpt><trkpt lat="43.96698" lon="12.75227"><ele>7.0</ele><time>2026-04-26T13:51:53.536Z</time></trkpt><trkpt lat="43.9669" lon="12.7521867"><ele>7.0</ele><time>2026-04-26T13:51:54.536Z</time></trkpt><trkpt lat="43.96683" lon="12.7521067"><ele>7.0</ele><time>2026-04-26T13:51:55.537Z</time></trkpt><trkpt lat="43.9667633" lon="12.7520583"><ele>7.000000000000001</ele><time>2026-04-26T13:51:56.537Z</time></trkpt><trkpt lat="43.96671" lon="12.7520117"><ele>7.0</ele><time>2026-04-26T13:51:57.533Z</time></trkpt><trkpt lat="43.9666683" lon="12.751945"><ele>6.8</ele><time>2026-04-26T13:51:59.537Z</time></trkpt><trkpt lat="43.9665683" lon="12.7519233"><ele>6.6</ele><time>2026-04-26T13:52:02.536Z</time></trkpt><trkpt lat="43.96645" lon="12.7520283"><ele>6.3999999999999995</ele><time>2026-04-26T13:52:04.536Z</time></trkpt><trkpt lat="43.9663767" lon="12.752105"><ele>6.199999999999999</ele><time>2026-04-26T13:52:05.538Z</time></trkpt><trkpt lat="43.9663067" lon="12.752195"><ele>6.0</ele><time>2026-04-26T13:52:06.536Z</time></trkpt><trkpt lat="43.9662433" lon="12.7522817"><ele>6.0</ele><time>2026-04-26T13:52:07.536Z</time></trkpt><trkpt lat="43.9661867" lon="12.75238"><ele>6.0</ele><time>2026-04-26T13:52:08.538Z</time></trkpt><trkpt lat="43.9661367" lon="12.7524917"><ele>6.0</ele><time>2026-04-26T13:52:09.536Z</time></trkpt><trkpt lat="43.9660933" lon="12.7526067"><ele>6.0</ele><time>2026-04-26T13:52:10.536Z</time></trkpt><trkpt lat="43.9660567" lon="12.7527333"><ele>6.0</ele><time>2026-04-26T13:52:11.535Z</time></trkpt><trkpt lat="43.96602" lon="12.752855"><ele>6.0</ele><time>2026-04-26T13:52:12.536Z</time></trkpt><trkpt lat="43.96598" lon="12.7529833"><ele>6.0</ele><time>2026-04-26T13:52:13.536Z</time></trkpt><trkpt lat="43.96594" lon="12.753115"><ele>6.0</ele><time>2026-04-26T13:52:14.538Z</time></trkpt><trkpt lat="43.96589" lon="12.7532417"><ele>6.0</ele><time>2026-04-26T13:52:15.538Z</time></trkpt><trkpt lat="43.9658333" lon="12.7533683"><ele>6.0</ele><time>2026-04-26T13:52:16.538Z</time></trkpt><trkpt lat="43.9657733" lon="12.7534967"><ele>6.25</ele><time>2026-04-26T13:52:17.536Z</time></trkpt><trkpt lat="43.965715" lon="12.75363"><ele>6.5</ele><time>2026-04-26T13:52:18.536Z</time></trkpt><trkpt lat="43.9656483" lon="12.7537667"><ele>6.75</ele><time>2026-04-26T13:52:19.536Z</time></trkpt><trkpt lat="43.9655817" lon="12.7538933"><ele>7.0</ele><time>2026-04-26T13:52:20.536Z</time></trkpt><trkpt lat="43.965515" lon="12.75402"><ele>7.000000000000001</ele><time>2026-04-26T13:52:21.537Z</time></trkpt><trkpt lat="43.9654533" lon="12.7541417"><ele>7.0</ele><time>2026-04-26T13:52:22.536Z</time></trkpt><trkpt lat="43.96539" lon="12.75425"><ele>7.0</ele><time>2026-04-26T13:52:23.536Z</time></trkpt><trkpt lat="43.965335" lon="12.75435"><ele>7.0</ele><time>2026-04-26T13:52:24.535Z</time></trkpt><trkpt lat="43.9652933" lon="12.75444"><ele>7.000000000000001</ele><time>2026-04-26T13:52:25.536Z</time></trkpt><trkpt lat="43.9652733" lon="12.7545283"><ele>7.0</ele><time>2026-04-26T13:52:26.536Z</time></trkpt><trkpt lat="43.9652767" lon="12.7546167"><ele>7.199999999999999</ele><time>2026-04-26T13:52:27.536Z</time></trkpt><trkpt lat="43.965355" lon="12.7547517"><ele>7.3999999999999995</ele><time>2026-04-26T13:52:29.536Z</time></trkpt><trkpt lat="43.9654517" lon="12.754825"><ele>7.6000000000000005</ele><time>2026-04-26T13:52:31.535Z</time></trkpt><trkpt lat="43.965485" lon="12.7549117"><ele>7.800000000000001</ele><time>2026-04-26T13:52:33.534Z</time></trkpt><trkpt lat="43.9655083" lon="12.7550183"><ele>8.0</ele><time>2026-04-26T13:52:35.54Z</time></trkpt><trkpt lat="43.96559" lon="12.7551567"><ele>8.0</ele><time>2026-04-26T13:52:37.537Z</time></trkpt><trkpt lat="43.96565" lon="12.75522"><ele>8.0</ele><time>2026-04-26T13:52:38.536Z</time></trkpt><trkpt lat="43.96572" lon="12.75528"><ele>8.0</ele><time>2026-04-26T13:52:39.535Z</time></trkpt><trkpt lat="43.965805" lon="12.7553417"><ele>8.0</ele><time>2026-04-26T13:52:40.536Z</time></trkpt><trkpt lat="43.9658983" lon="12.75542"><ele>8.0</ele><time>2026-04-26T13:52:41.536Z</time></trkpt><trkpt lat="43.9659933" lon="12.7555133"><ele>7.800000000000001</ele><time>2026-04-26T13:52:42.536Z</time></trkpt><trkpt lat="43.9660783" lon="12.7555967"><ele>7.6000000000000005</ele><time>2026-04-26T13:52:43.536Z</time></trkpt><trkpt lat="43.96616" lon="12.7556683"><ele>7.3999999999999995</ele><time>2026-04-26T13:52:44.536Z</time></trkpt><trkpt lat="43.966235" lon="12.7557183"><ele>7.199999999999999</ele><time>2026-04-26T13:52:45.535Z</time></trkpt><trkpt lat="43.9663017" lon="12.755765"><ele>7.0</ele><time>2026-04-26T13:52:46.537Z</time></trkpt><trkpt lat="43.9663833" lon="12.75584"><ele>7.0</ele><time>2026-04-26T13:52:48.536Z</time></trkpt></trkseg></trk></gpx>